<?xml version="1.0" encoding="UTF-8" standalone="no" ?>
<gpx xmlns="http://www.topografix.com/GPX/1/1" xmlns:xsi="http://www.w3.org/2001/XMLSchema-instance" xsi:schemaLocation="http://www.topografix.com/GPX/1/1 http://www.topografix.com/GPX/1/1/gpx.xsd" version="1.1" creator="VisuGPX - https://www.visugpx.com">
  <metadata>
    <name>Rando sur Le Beaucet 1</name>
    <desc><![CDATA[Ebauche d\'un futur circuit sur le Beaucet
Trop de portions de route, à revoir]]></desc>
  </metadata>
  <wpt lat="43.99673" lon="5.13857">
    <ele>308.1</ele>
    <name><![CDATA[Repère 1]]></name>
    <desc><![CDATA[]]></desc>
  </wpt>
  <wpt lat="43.96973" lon="5.1225">
    <ele>380.1</ele>
    <name><![CDATA[Repère 2]]></name>
    <desc><![CDATA[]]></desc>
  </wpt>
  <trk>
    <name><![CDATA[18/02/2013 13:21 Le Beaucet 1]]></name>
    <desc><![CDATA[]]></desc>
    <trkseg>
      <trkpt lat="43.98321" lon="5.11908">
        <ele>308.9</ele>
        <time>2013-02-18T12:22:03.000Z</time>
      </trkpt>
      <trkpt lat="43.98318" lon="5.1191">
        <ele>307</ele>
        <time>2013-02-18T12:22:04.000Z</time>
      </trkpt>
      <trkpt lat="43.98315" lon="5.11908">
        <ele>306</ele>
        <time>2013-02-18T12:22:05.000Z</time>
      </trkpt>
      <trkpt lat="43.98318" lon="5.11904">
        <ele>307.7</ele>
        <time>2013-02-18T12:22:08.000Z</time>
      </trkpt>
      <trkpt lat="43.98319" lon="5.11903">
        <ele>306.4</ele>
        <time>2013-02-18T12:22:09.000Z</time>
      </trkpt>
      <trkpt lat="43.9832" lon="5.11904">
        <ele>302.1</ele>
        <time>2013-02-18T12:22:25.000Z</time>
      </trkpt>
      <trkpt lat="43.98307" lon="5.11901">
        <ele>289.4</ele>
        <time>2013-02-18T12:22:26.000Z</time>
      </trkpt>
      <trkpt lat="43.98312" lon="5.11902">
        <ele>296.5</ele>
        <time>2013-02-18T12:22:31.000Z</time>
      </trkpt>
      <trkpt lat="43.98312" lon="5.11902">
        <ele>295.2</ele>
        <time>2013-02-18T12:22:32.000Z</time>
      </trkpt>
      <trkpt lat="43.98313" lon="5.11899">
        <ele>291.6</ele>
        <time>2013-02-18T12:22:43.000Z</time>
      </trkpt>
      <trkpt lat="43.98314" lon="5.11896">
        <ele>293.4</ele>
        <time>2013-02-18T12:22:44.000Z</time>
      </trkpt>
      <trkpt lat="43.98313" lon="5.1189">
        <ele>294.6</ele>
        <time>2013-02-18T12:22:46.000Z</time>
      </trkpt>
      <trkpt lat="43.98314" lon="5.11889">
        <ele>294.8</ele>
        <time>2013-02-18T12:22:47.000Z</time>
      </trkpt>
      <trkpt lat="43.98314" lon="5.11886">
        <ele>294.8</ele>
        <time>2013-02-18T12:22:48.000Z</time>
      </trkpt>
      <trkpt lat="43.98318" lon="5.11881">
        <ele>296.3</ele>
        <time>2013-02-18T12:22:49.000Z</time>
      </trkpt>
      <trkpt lat="43.9832" lon="5.11878">
        <ele>296</ele>
        <time>2013-02-18T12:22:50.000Z</time>
      </trkpt>
      <trkpt lat="43.98323" lon="5.11875">
        <ele>295.6</ele>
        <time>2013-02-18T12:22:51.000Z</time>
      </trkpt>
      <trkpt lat="43.98326" lon="5.11872">
        <ele>295.4</ele>
        <time>2013-02-18T12:22:52.000Z</time>
      </trkpt>
      <trkpt lat="43.9833" lon="5.11868">
        <ele>293.9</ele>
        <time>2013-02-18T12:22:53.000Z</time>
      </trkpt>
      <trkpt lat="43.98335" lon="5.1186">
        <ele>294.2</ele>
        <time>2013-02-18T12:22:54.000Z</time>
      </trkpt>
      <trkpt lat="43.98345" lon="5.11844">
        <ele>293.7</ele>
        <time>2013-02-18T12:22:55.000Z</time>
      </trkpt>
      <trkpt lat="43.98343" lon="5.11853">
        <ele>294.9</ele>
        <time>2013-02-18T12:22:56.000Z</time>
      </trkpt>
      <trkpt lat="43.98346" lon="5.11849">
        <ele>291.4</ele>
        <time>2013-02-18T12:22:57.000Z</time>
      </trkpt>
      <trkpt lat="43.98349" lon="5.11849">
        <ele>292.1</ele>
        <time>2013-02-18T12:22:58.000Z</time>
      </trkpt>
      <trkpt lat="43.98352" lon="5.11846">
        <ele>291.4</ele>
        <time>2013-02-18T12:22:59.000Z</time>
      </trkpt>
      <trkpt lat="43.98357" lon="5.11844">
        <ele>291.1</ele>
        <time>2013-02-18T12:23:00.000Z</time>
      </trkpt>
      <trkpt lat="43.98363" lon="5.11839">
        <ele>289.9</ele>
        <time>2013-02-18T12:23:01.000Z</time>
      </trkpt>
      <trkpt lat="43.98367" lon="5.11835">
        <ele>289.2</ele>
        <time>2013-02-18T12:23:02.000Z</time>
      </trkpt>
      <trkpt lat="43.98372" lon="5.1183">
        <ele>287</ele>
        <time>2013-02-18T12:23:03.000Z</time>
      </trkpt>
      <trkpt lat="43.98377" lon="5.11826">
        <ele>286.1</ele>
        <time>2013-02-18T12:23:04.000Z</time>
      </trkpt>
      <trkpt lat="43.98381" lon="5.11823">
        <ele>284.9</ele>
        <time>2013-02-18T12:23:05.000Z</time>
      </trkpt>
      <trkpt lat="43.98385" lon="5.11819">
        <ele>284.4</ele>
        <time>2013-02-18T12:23:06.000Z</time>
      </trkpt>
      <trkpt lat="43.98389" lon="5.11816">
        <ele>284</ele>
        <time>2013-02-18T12:23:07.000Z</time>
      </trkpt>
      <trkpt lat="43.98393" lon="5.11813">
        <ele>283.7</ele>
        <time>2013-02-18T12:23:08.000Z</time>
      </trkpt>
      <trkpt lat="43.98396" lon="5.1181">
        <ele>282.7</ele>
        <time>2013-02-18T12:23:09.000Z</time>
      </trkpt>
      <trkpt lat="43.984" lon="5.11808">
        <ele>282.1</ele>
        <time>2013-02-18T12:23:10.000Z</time>
      </trkpt>
      <trkpt lat="43.98403" lon="5.11806">
        <ele>281.1</ele>
        <time>2013-02-18T12:23:11.000Z</time>
      </trkpt>
      <trkpt lat="43.98407" lon="5.11803">
        <ele>280.5</ele>
        <time>2013-02-18T12:23:12.000Z</time>
      </trkpt>
      <trkpt lat="43.9841" lon="5.11798">
        <ele>280.6</ele>
        <time>2013-02-18T12:23:13.000Z</time>
      </trkpt>
      <trkpt lat="43.98411" lon="5.11792">
        <ele>279.9</ele>
        <time>2013-02-18T12:23:14.000Z</time>
      </trkpt>
      <trkpt lat="43.98412" lon="5.11788">
        <ele>280</ele>
        <time>2013-02-18T12:23:15.000Z</time>
      </trkpt>
      <trkpt lat="43.98414" lon="5.11786">
        <ele>280.6</ele>
        <time>2013-02-18T12:23:16.000Z</time>
      </trkpt>
      <trkpt lat="43.98418" lon="5.11787">
        <ele>284</ele>
        <time>2013-02-18T12:23:17.000Z</time>
      </trkpt>
      <trkpt lat="43.98418" lon="5.11787">
        <ele>292.8</ele>
        <time>2013-02-18T12:23:20.000Z</time>
      </trkpt>
      <trkpt lat="43.9842" lon="5.11776">
        <ele>292.7</ele>
        <time>2013-02-18T12:23:21.000Z</time>
      </trkpt>
      <trkpt lat="43.98421" lon="5.11768">
        <ele>291.9</ele>
        <time>2013-02-18T12:23:22.000Z</time>
      </trkpt>
      <trkpt lat="43.98421" lon="5.11764">
        <ele>291.2</ele>
        <time>2013-02-18T12:23:23.000Z</time>
      </trkpt>
      <trkpt lat="43.98424" lon="5.11752">
        <ele>290.9</ele>
        <time>2013-02-18T12:23:24.000Z</time>
      </trkpt>
      <trkpt lat="43.98414" lon="5.11746">
        <ele>290.5</ele>
        <time>2013-02-18T12:23:25.000Z</time>
      </trkpt>
      <trkpt lat="43.98402" lon="5.11738">
        <ele>290.2</ele>
        <time>2013-02-18T12:23:26.000Z</time>
      </trkpt>
      <trkpt lat="43.98395" lon="5.1173">
        <ele>290.2</ele>
        <time>2013-02-18T12:23:27.000Z</time>
      </trkpt>
      <trkpt lat="43.9839" lon="5.11727">
        <ele>289.7</ele>
        <time>2013-02-18T12:23:28.000Z</time>
      </trkpt>
      <trkpt lat="43.98386" lon="5.11722">
        <ele>288.9</ele>
        <time>2013-02-18T12:23:29.000Z</time>
      </trkpt>
      <trkpt lat="43.98383" lon="5.1172">
        <ele>288.8</ele>
        <time>2013-02-18T12:23:30.000Z</time>
      </trkpt>
      <trkpt lat="43.98379" lon="5.11716">
        <ele>288.5</ele>
        <time>2013-02-18T12:23:31.000Z</time>
      </trkpt>
      <trkpt lat="43.98376" lon="5.11714">
        <ele>288.5</ele>
        <time>2013-02-18T12:23:32.000Z</time>
      </trkpt>
      <trkpt lat="43.98374" lon="5.11711">
        <ele>287.9</ele>
        <time>2013-02-18T12:23:33.000Z</time>
      </trkpt>
      <trkpt lat="43.98372" lon="5.11709">
        <ele>286.8</ele>
        <time>2013-02-18T12:23:34.000Z</time>
      </trkpt>
      <trkpt lat="43.98371" lon="5.11706">
        <ele>285.4</ele>
        <time>2013-02-18T12:23:35.000Z</time>
      </trkpt>
      <trkpt lat="43.98366" lon="5.11705">
        <ele>285.8</ele>
        <time>2013-02-18T12:23:36.000Z</time>
      </trkpt>
      <trkpt lat="43.98362" lon="5.11703">
        <ele>286.5</ele>
        <time>2013-02-18T12:23:37.000Z</time>
      </trkpt>
      <trkpt lat="43.98359" lon="5.117">
        <ele>287</ele>
        <time>2013-02-18T12:23:38.000Z</time>
      </trkpt>
      <trkpt lat="43.98356" lon="5.11697">
        <ele>287.2</ele>
        <time>2013-02-18T12:23:39.000Z</time>
      </trkpt>
      <trkpt lat="43.98353" lon="5.11694">
        <ele>287.5</ele>
        <time>2013-02-18T12:23:40.000Z</time>
      </trkpt>
      <trkpt lat="43.9835" lon="5.11691">
        <ele>287.5</ele>
        <time>2013-02-18T12:23:41.000Z</time>
      </trkpt>
      <trkpt lat="43.98347" lon="5.11688">
        <ele>287.5</ele>
        <time>2013-02-18T12:23:42.000Z</time>
      </trkpt>
      <trkpt lat="43.98345" lon="5.11682">
        <ele>287.3</ele>
        <time>2013-02-18T12:23:43.000Z</time>
      </trkpt>
      <trkpt lat="43.98342" lon="5.11678">
        <ele>287.4</ele>
        <time>2013-02-18T12:23:44.000Z</time>
      </trkpt>
      <trkpt lat="43.98339" lon="5.11676">
        <ele>287.5</ele>
        <time>2013-02-18T12:23:45.000Z</time>
      </trkpt>
      <trkpt lat="43.98338" lon="5.11674">
        <ele>286.8</ele>
        <time>2013-02-18T12:23:46.000Z</time>
      </trkpt>
      <trkpt lat="43.98336" lon="5.1167">
        <ele>286.5</ele>
        <time>2013-02-18T12:23:47.000Z</time>
      </trkpt>
      <trkpt lat="43.98333" lon="5.11668">
        <ele>286</ele>
        <time>2013-02-18T12:23:48.000Z</time>
      </trkpt>
      <trkpt lat="43.98331" lon="5.11666">
        <ele>286.1</ele>
        <time>2013-02-18T12:23:49.000Z</time>
      </trkpt>
      <trkpt lat="43.98329" lon="5.11662">
        <ele>286.1</ele>
        <time>2013-02-18T12:23:50.000Z</time>
      </trkpt>
      <trkpt lat="43.98327" lon="5.11659">
        <ele>286.5</ele>
        <time>2013-02-18T12:23:51.000Z</time>
      </trkpt>
      <trkpt lat="43.98325" lon="5.11655">
        <ele>286.6</ele>
        <time>2013-02-18T12:23:52.000Z</time>
      </trkpt>
      <trkpt lat="43.98323" lon="5.11651">
        <ele>286.6</ele>
        <time>2013-02-18T12:23:53.000Z</time>
      </trkpt>
      <trkpt lat="43.98321" lon="5.11646">
        <ele>286.6</ele>
        <time>2013-02-18T12:23:54.000Z</time>
      </trkpt>
      <trkpt lat="43.98319" lon="5.11642">
        <ele>286.7</ele>
        <time>2013-02-18T12:23:55.000Z</time>
      </trkpt>
      <trkpt lat="43.98317" lon="5.11639">
        <ele>286.2</ele>
        <time>2013-02-18T12:23:56.000Z</time>
      </trkpt>
      <trkpt lat="43.98315" lon="5.11636">
        <ele>285.8</ele>
        <time>2013-02-18T12:23:57.000Z</time>
      </trkpt>
      <trkpt lat="43.98313" lon="5.11633">
        <ele>285.3</ele>
        <time>2013-02-18T12:23:58.000Z</time>
      </trkpt>
      <trkpt lat="43.98312" lon="5.11628">
        <ele>284.8</ele>
        <time>2013-02-18T12:23:59.000Z</time>
      </trkpt>
      <trkpt lat="43.9831" lon="5.11626">
        <ele>284.6</ele>
        <time>2013-02-18T12:24:00.000Z</time>
      </trkpt>
      <trkpt lat="43.98306" lon="5.11622">
        <ele>283.8</ele>
        <time>2013-02-18T12:24:01.000Z</time>
      </trkpt>
      <trkpt lat="43.98305" lon="5.11618">
        <ele>284.4</ele>
        <time>2013-02-18T12:24:02.000Z</time>
      </trkpt>
      <trkpt lat="43.98302" lon="5.11614">
        <ele>284.3</ele>
        <time>2013-02-18T12:24:03.000Z</time>
      </trkpt>
      <trkpt lat="43.98301" lon="5.11609">
        <ele>284.6</ele>
        <time>2013-02-18T12:24:04.000Z</time>
      </trkpt>
      <trkpt lat="43.98299" lon="5.11609">
        <ele>285.3</ele>
        <time>2013-02-18T12:24:05.000Z</time>
      </trkpt>
      <trkpt lat="43.98296" lon="5.11608">
        <ele>285.6</ele>
        <time>2013-02-18T12:24:06.000Z</time>
      </trkpt>
      <trkpt lat="43.98293" lon="5.11604">
        <ele>285.7</ele>
        <time>2013-02-18T12:24:07.000Z</time>
      </trkpt>
      <trkpt lat="43.98291" lon="5.11601">
        <ele>285.9</ele>
        <time>2013-02-18T12:24:08.000Z</time>
      </trkpt>
      <trkpt lat="43.9829" lon="5.11598">
        <ele>286.1</ele>
        <time>2013-02-18T12:24:09.000Z</time>
      </trkpt>
      <trkpt lat="43.98287" lon="5.11597">
        <ele>285.8</ele>
        <time>2013-02-18T12:24:10.000Z</time>
      </trkpt>
      <trkpt lat="43.98284" lon="5.11595">
        <ele>285.9</ele>
        <time>2013-02-18T12:24:11.000Z</time>
      </trkpt>
      <trkpt lat="43.98281" lon="5.11592">
        <ele>285.7</ele>
        <time>2013-02-18T12:24:12.000Z</time>
      </trkpt>
      <trkpt lat="43.98278" lon="5.11589">
        <ele>285.8</ele>
        <time>2013-02-18T12:24:13.000Z</time>
      </trkpt>
      <trkpt lat="43.98276" lon="5.11586">
        <ele>285.6</ele>
        <time>2013-02-18T12:24:14.000Z</time>
      </trkpt>
      <trkpt lat="43.98273" lon="5.11582">
        <ele>285.5</ele>
        <time>2013-02-18T12:24:15.000Z</time>
      </trkpt>
      <trkpt lat="43.98269" lon="5.11578">
        <ele>285.7</ele>
        <time>2013-02-18T12:24:16.000Z</time>
      </trkpt>
      <trkpt lat="43.98268" lon="5.11572">
        <ele>285.4</ele>
        <time>2013-02-18T12:24:17.000Z</time>
      </trkpt>
      <trkpt lat="43.98266" lon="5.11564">
        <ele>285.9</ele>
        <time>2013-02-18T12:24:18.000Z</time>
      </trkpt>
      <trkpt lat="43.98263" lon="5.1156">
        <ele>285.6</ele>
        <time>2013-02-18T12:24:19.000Z</time>
      </trkpt>
      <trkpt lat="43.98261" lon="5.11552">
        <ele>286.5</ele>
        <time>2013-02-18T12:24:20.000Z</time>
      </trkpt>
      <trkpt lat="43.98259" lon="5.11545">
        <ele>286</ele>
        <time>2013-02-18T12:24:21.000Z</time>
      </trkpt>
      <trkpt lat="43.98256" lon="5.1154">
        <ele>286</ele>
        <time>2013-02-18T12:24:22.000Z</time>
      </trkpt>
      <trkpt lat="43.98253" lon="5.11534">
        <ele>286.2</ele>
        <time>2013-02-18T12:24:23.000Z</time>
      </trkpt>
      <trkpt lat="43.98249" lon="5.1153">
        <ele>286.5</ele>
        <time>2013-02-18T12:24:24.000Z</time>
      </trkpt>
      <trkpt lat="43.98244" lon="5.11526">
        <ele>286.7</ele>
        <time>2013-02-18T12:24:25.000Z</time>
      </trkpt>
      <trkpt lat="43.98242" lon="5.11524">
        <ele>287.2</ele>
        <time>2013-02-18T12:24:26.000Z</time>
      </trkpt>
      <trkpt lat="43.98239" lon="5.11521">
        <ele>287.3</ele>
        <time>2013-02-18T12:24:27.000Z</time>
      </trkpt>
      <trkpt lat="43.98232" lon="5.11519">
        <ele>287.3</ele>
        <time>2013-02-18T12:24:28.000Z</time>
      </trkpt>
      <trkpt lat="43.98228" lon="5.11519">
        <ele>287.2</ele>
        <time>2013-02-18T12:24:29.000Z</time>
      </trkpt>
      <trkpt lat="43.98223" lon="5.1152">
        <ele>287.6</ele>
        <time>2013-02-18T12:24:30.000Z</time>
      </trkpt>
      <trkpt lat="43.98217" lon="5.11522">
        <ele>287</ele>
        <time>2013-02-18T12:24:31.000Z</time>
      </trkpt>
      <trkpt lat="43.98213" lon="5.11521">
        <ele>287.1</ele>
        <time>2013-02-18T12:24:32.000Z</time>
      </trkpt>
      <trkpt lat="43.98208" lon="5.1152">
        <ele>287.1</ele>
        <time>2013-02-18T12:24:33.000Z</time>
      </trkpt>
      <trkpt lat="43.98204" lon="5.1152">
        <ele>287.1</ele>
        <time>2013-02-18T12:24:34.000Z</time>
      </trkpt>
      <trkpt lat="43.982" lon="5.11519">
        <ele>286.9</ele>
        <time>2013-02-18T12:24:35.000Z</time>
      </trkpt>
      <trkpt lat="43.98197" lon="5.11517">
        <ele>286.5</ele>
        <time>2013-02-18T12:24:36.000Z</time>
      </trkpt>
      <trkpt lat="43.98193" lon="5.11515">
        <ele>286.5</ele>
        <time>2013-02-18T12:24:37.000Z</time>
      </trkpt>
      <trkpt lat="43.98189" lon="5.11513">
        <ele>289.7</ele>
        <time>2013-02-18T12:24:38.000Z</time>
      </trkpt>
      <trkpt lat="43.98186" lon="5.11511">
        <ele>290.4</ele>
        <time>2013-02-18T12:24:39.000Z</time>
      </trkpt>
      <trkpt lat="43.98182" lon="5.1151">
        <ele>291.2</ele>
        <time>2013-02-18T12:24:40.000Z</time>
      </trkpt>
      <trkpt lat="43.98177" lon="5.11509">
        <ele>291.1</ele>
        <time>2013-02-18T12:24:41.000Z</time>
      </trkpt>
      <trkpt lat="43.98173" lon="5.11507">
        <ele>291.2</ele>
        <time>2013-02-18T12:24:42.000Z</time>
      </trkpt>
      <trkpt lat="43.98169" lon="5.11505">
        <ele>291.2</ele>
        <time>2013-02-18T12:24:43.000Z</time>
      </trkpt>
      <trkpt lat="43.98166" lon="5.11502">
        <ele>291.1</ele>
        <time>2013-02-18T12:24:44.000Z</time>
      </trkpt>
      <trkpt lat="43.98163" lon="5.115">
        <ele>291.3</ele>
        <time>2013-02-18T12:24:45.000Z</time>
      </trkpt>
      <trkpt lat="43.9816" lon="5.11497">
        <ele>290.7</ele>
        <time>2013-02-18T12:24:46.000Z</time>
      </trkpt>
      <trkpt lat="43.98155" lon="5.11494">
        <ele>290.1</ele>
        <time>2013-02-18T12:24:47.000Z</time>
      </trkpt>
      <trkpt lat="43.98153" lon="5.11491">
        <ele>289.8</ele>
        <time>2013-02-18T12:24:48.000Z</time>
      </trkpt>
      <trkpt lat="43.9815" lon="5.11489">
        <ele>289.7</ele>
        <time>2013-02-18T12:24:49.000Z</time>
      </trkpt>
      <trkpt lat="43.98146" lon="5.11487">
        <ele>289.6</ele>
        <time>2013-02-18T12:24:50.000Z</time>
      </trkpt>
      <trkpt lat="43.98143" lon="5.11487">
        <ele>289.7</ele>
        <time>2013-02-18T12:24:51.000Z</time>
      </trkpt>
      <trkpt lat="43.9814" lon="5.11487">
        <ele>289.6</ele>
        <time>2013-02-18T12:24:52.000Z</time>
      </trkpt>
      <trkpt lat="43.98138" lon="5.11488">
        <ele>289.8</ele>
        <time>2013-02-18T12:24:53.000Z</time>
      </trkpt>
      <trkpt lat="43.98135" lon="5.11487">
        <ele>288.7</ele>
        <time>2013-02-18T12:24:54.000Z</time>
      </trkpt>
      <trkpt lat="43.98133" lon="5.11486">
        <ele>289.2</ele>
        <time>2013-02-18T12:24:55.000Z</time>
      </trkpt>
      <trkpt lat="43.9813" lon="5.11485">
        <ele>290</ele>
        <time>2013-02-18T12:24:56.000Z</time>
      </trkpt>
      <trkpt lat="43.98127" lon="5.11484">
        <ele>289.3</ele>
        <time>2013-02-18T12:24:57.000Z</time>
      </trkpt>
      <trkpt lat="43.98125" lon="5.11483">
        <ele>289.7</ele>
        <time>2013-02-18T12:24:58.000Z</time>
      </trkpt>
      <trkpt lat="43.98122" lon="5.11482">
        <ele>289.9</ele>
        <time>2013-02-18T12:24:59.000Z</time>
      </trkpt>
      <trkpt lat="43.9812" lon="5.11484">
        <ele>298.9</ele>
        <time>2013-02-18T12:25:03.000Z</time>
      </trkpt>
      <trkpt lat="43.98113" lon="5.11485">
        <ele>299.6</ele>
        <time>2013-02-18T12:25:04.000Z</time>
      </trkpt>
      <trkpt lat="43.9811" lon="5.11486">
        <ele>304.9</ele>
        <time>2013-02-18T12:25:07.000Z</time>
      </trkpt>
      <trkpt lat="43.98104" lon="5.11485">
        <ele>305.9</ele>
        <time>2013-02-18T12:25:08.000Z</time>
      </trkpt>
      <trkpt lat="43.98101" lon="5.11485">
        <ele>306.5</ele>
        <time>2013-02-18T12:25:09.000Z</time>
      </trkpt>
      <trkpt lat="43.98096" lon="5.11486">
        <ele>306.7</ele>
        <time>2013-02-18T12:25:10.000Z</time>
      </trkpt>
      <trkpt lat="43.9809" lon="5.11486">
        <ele>305.7</ele>
        <time>2013-02-18T12:25:11.000Z</time>
      </trkpt>
      <trkpt lat="43.98085" lon="5.11485">
        <ele>305.3</ele>
        <time>2013-02-18T12:25:12.000Z</time>
      </trkpt>
      <trkpt lat="43.98081" lon="5.11485">
        <ele>305.4</ele>
        <time>2013-02-18T12:25:13.000Z</time>
      </trkpt>
      <trkpt lat="43.98078" lon="5.11486">
        <ele>305.9</ele>
        <time>2013-02-18T12:25:14.000Z</time>
      </trkpt>
      <trkpt lat="43.98073" lon="5.11486">
        <ele>305</ele>
        <time>2013-02-18T12:25:15.000Z</time>
      </trkpt>
      <trkpt lat="43.98069" lon="5.11487">
        <ele>305.8</ele>
        <time>2013-02-18T12:25:16.000Z</time>
      </trkpt>
      <trkpt lat="43.98066" lon="5.11487">
        <ele>306.6</ele>
        <time>2013-02-18T12:25:17.000Z</time>
      </trkpt>
      <trkpt lat="43.98063" lon="5.11487">
        <ele>308</ele>
        <time>2013-02-18T12:25:19.000Z</time>
      </trkpt>
      <trkpt lat="43.98061" lon="5.11488">
        <ele>308.2</ele>
        <time>2013-02-18T12:25:20.000Z</time>
      </trkpt>
      <trkpt lat="43.98059" lon="5.11488">
        <ele>308.4</ele>
        <time>2013-02-18T12:25:21.000Z</time>
      </trkpt>
      <trkpt lat="43.98056" lon="5.11489">
        <ele>308.7</ele>
        <time>2013-02-18T12:25:22.000Z</time>
      </trkpt>
      <trkpt lat="43.98053" lon="5.11491">
        <ele>308.5</ele>
        <time>2013-02-18T12:25:23.000Z</time>
      </trkpt>
      <trkpt lat="43.98051" lon="5.11491">
        <ele>308.6</ele>
        <time>2013-02-18T12:25:24.000Z</time>
      </trkpt>
      <trkpt lat="43.98048" lon="5.1149">
        <ele>307.9</ele>
        <time>2013-02-18T12:25:25.000Z</time>
      </trkpt>
      <trkpt lat="43.98044" lon="5.1149">
        <ele>307.1</ele>
        <time>2013-02-18T12:25:26.000Z</time>
      </trkpt>
      <trkpt lat="43.9804" lon="5.1149">
        <ele>307</ele>
        <time>2013-02-18T12:25:28.000Z</time>
      </trkpt>
      <trkpt lat="43.98037" lon="5.1149">
        <ele>306.7</ele>
        <time>2013-02-18T12:25:29.000Z</time>
      </trkpt>
      <trkpt lat="43.98034" lon="5.11493">
        <ele>308.3</ele>
        <time>2013-02-18T12:25:31.000Z</time>
      </trkpt>
      <trkpt lat="43.98032" lon="5.11493">
        <ele>308</ele>
        <time>2013-02-18T12:25:32.000Z</time>
      </trkpt>
      <trkpt lat="43.98028" lon="5.11494">
        <ele>308.5</ele>
        <time>2013-02-18T12:25:34.000Z</time>
      </trkpt>
      <trkpt lat="43.98026" lon="5.11495">
        <ele>307.8</ele>
        <time>2013-02-18T12:25:35.000Z</time>
      </trkpt>
      <trkpt lat="43.98022" lon="5.11497">
        <ele>310.2</ele>
        <time>2013-02-18T12:25:38.000Z</time>
      </trkpt>
      <trkpt lat="43.9802" lon="5.11498">
        <ele>311.2</ele>
        <time>2013-02-18T12:25:39.000Z</time>
      </trkpt>
      <trkpt lat="43.98018" lon="5.11498">
        <ele>310.4</ele>
        <time>2013-02-18T12:25:40.000Z</time>
      </trkpt>
      <trkpt lat="43.98014" lon="5.11499">
        <ele>310</ele>
        <time>2013-02-18T12:25:41.000Z</time>
      </trkpt>
      <trkpt lat="43.98011" lon="5.115">
        <ele>309.5</ele>
        <time>2013-02-18T12:25:42.000Z</time>
      </trkpt>
      <trkpt lat="43.98008" lon="5.115">
        <ele>309.8</ele>
        <time>2013-02-18T12:25:43.000Z</time>
      </trkpt>
      <trkpt lat="43.98005" lon="5.115">
        <ele>309.9</ele>
        <time>2013-02-18T12:25:44.000Z</time>
      </trkpt>
      <trkpt lat="43.98002" lon="5.11501">
        <ele>309.7</ele>
        <time>2013-02-18T12:25:45.000Z</time>
      </trkpt>
      <trkpt lat="43.97999" lon="5.11501">
        <ele>311</ele>
        <time>2013-02-18T12:25:46.000Z</time>
      </trkpt>
      <trkpt lat="43.97996" lon="5.11502">
        <ele>310.1</ele>
        <time>2013-02-18T12:25:47.000Z</time>
      </trkpt>
      <trkpt lat="43.97993" lon="5.11502">
        <ele>309</ele>
        <time>2013-02-18T12:25:48.000Z</time>
      </trkpt>
      <trkpt lat="43.9799" lon="5.11503">
        <ele>308.5</ele>
        <time>2013-02-18T12:25:49.000Z</time>
      </trkpt>
      <trkpt lat="43.97988" lon="5.11503">
        <ele>308.8</ele>
        <time>2013-02-18T12:25:50.000Z</time>
      </trkpt>
      <trkpt lat="43.97985" lon="5.11502">
        <ele>307.5</ele>
        <time>2013-02-18T12:25:51.000Z</time>
      </trkpt>
      <trkpt lat="43.97983" lon="5.11501">
        <ele>307.3</ele>
        <time>2013-02-18T12:25:52.000Z</time>
      </trkpt>
      <trkpt lat="43.9798" lon="5.11501">
        <ele>307</ele>
        <time>2013-02-18T12:25:53.000Z</time>
      </trkpt>
      <trkpt lat="43.97977" lon="5.11501">
        <ele>305.8</ele>
        <time>2013-02-18T12:25:54.000Z</time>
      </trkpt>
      <trkpt lat="43.97974" lon="5.11502">
        <ele>305.3</ele>
        <time>2013-02-18T12:25:55.000Z</time>
      </trkpt>
      <trkpt lat="43.9797" lon="5.11501">
        <ele>304.4</ele>
        <time>2013-02-18T12:25:56.000Z</time>
      </trkpt>
      <trkpt lat="43.97966" lon="5.11501">
        <ele>304.6</ele>
        <time>2013-02-18T12:25:57.000Z</time>
      </trkpt>
      <trkpt lat="43.97963" lon="5.11501">
        <ele>305.8</ele>
        <time>2013-02-18T12:25:58.000Z</time>
      </trkpt>
      <trkpt lat="43.97961" lon="5.115">
        <ele>309.1</ele>
        <time>2013-02-18T12:25:59.000Z</time>
      </trkpt>
      <trkpt lat="43.97957" lon="5.11501">
        <ele>305.1</ele>
        <time>2013-02-18T12:26:00.000Z</time>
      </trkpt>
      <trkpt lat="43.97954" lon="5.115">
        <ele>306.3</ele>
        <time>2013-02-18T12:26:02.000Z</time>
      </trkpt>
      <trkpt lat="43.97952" lon="5.11499">
        <ele>306.7</ele>
        <time>2013-02-18T12:26:03.000Z</time>
      </trkpt>
      <trkpt lat="43.97949" lon="5.11499">
        <ele>306.8</ele>
        <time>2013-02-18T12:26:04.000Z</time>
      </trkpt>
      <trkpt lat="43.97947" lon="5.11499">
        <ele>306.3</ele>
        <time>2013-02-18T12:26:05.000Z</time>
      </trkpt>
      <trkpt lat="43.97943" lon="5.115">
        <ele>307.6</ele>
        <time>2013-02-18T12:26:07.000Z</time>
      </trkpt>
      <trkpt lat="43.9794" lon="5.115">
        <ele>307.6</ele>
        <time>2013-02-18T12:26:08.000Z</time>
      </trkpt>
      <trkpt lat="43.97937" lon="5.115">
        <ele>309.7</ele>
        <time>2013-02-18T12:26:11.000Z</time>
      </trkpt>
      <trkpt lat="43.97935" lon="5.115">
        <ele>310.1</ele>
        <time>2013-02-18T12:26:12.000Z</time>
      </trkpt>
      <trkpt lat="43.97932" lon="5.11501">
        <ele>309.5</ele>
        <time>2013-02-18T12:26:14.000Z</time>
      </trkpt>
      <trkpt lat="43.97929" lon="5.11501">
        <ele>308.8</ele>
        <time>2013-02-18T12:26:15.000Z</time>
      </trkpt>
      <trkpt lat="43.97926" lon="5.11503">
        <ele>313.4</ele>
        <time>2013-02-18T12:26:19.000Z</time>
      </trkpt>
      <trkpt lat="43.97923" lon="5.11502">
        <ele>313.2</ele>
        <time>2013-02-18T12:26:20.000Z</time>
      </trkpt>
      <trkpt lat="43.97922" lon="5.11501">
        <ele>313.4</ele>
        <time>2013-02-18T12:26:21.000Z</time>
      </trkpt>
      <trkpt lat="43.97916" lon="5.11503">
        <ele>311.8</ele>
        <time>2013-02-18T12:26:22.000Z</time>
      </trkpt>
      <trkpt lat="43.97913" lon="5.11504">
        <ele>312.3</ele>
        <time>2013-02-18T12:26:23.000Z</time>
      </trkpt>
      <trkpt lat="43.9791" lon="5.11505">
        <ele>311.7</ele>
        <time>2013-02-18T12:26:24.000Z</time>
      </trkpt>
      <trkpt lat="43.97908" lon="5.11505">
        <ele>311.6</ele>
        <time>2013-02-18T12:26:25.000Z</time>
      </trkpt>
      <trkpt lat="43.97906" lon="5.11506">
        <ele>311.5</ele>
        <time>2013-02-18T12:26:26.000Z</time>
      </trkpt>
      <trkpt lat="43.97903" lon="5.11506">
        <ele>311.1</ele>
        <time>2013-02-18T12:26:27.000Z</time>
      </trkpt>
      <trkpt lat="43.97899" lon="5.11509">
        <ele>310</ele>
        <time>2013-02-18T12:26:28.000Z</time>
      </trkpt>
      <trkpt lat="43.97897" lon="5.1151">
        <ele>310.3</ele>
        <time>2013-02-18T12:26:29.000Z</time>
      </trkpt>
      <trkpt lat="43.97894" lon="5.11511">
        <ele>310</ele>
        <time>2013-02-18T12:26:30.000Z</time>
      </trkpt>
      <trkpt lat="43.97891" lon="5.11512">
        <ele>310</ele>
        <time>2013-02-18T12:26:31.000Z</time>
      </trkpt>
      <trkpt lat="43.97889" lon="5.11513">
        <ele>310</ele>
        <time>2013-02-18T12:26:32.000Z</time>
      </trkpt>
      <trkpt lat="43.97886" lon="5.11514">
        <ele>310.1</ele>
        <time>2013-02-18T12:26:33.000Z</time>
      </trkpt>
      <trkpt lat="43.97884" lon="5.11515">
        <ele>311.1</ele>
        <time>2013-02-18T12:26:34.000Z</time>
      </trkpt>
      <trkpt lat="43.97881" lon="5.11517">
        <ele>311.6</ele>
        <time>2013-02-18T12:26:35.000Z</time>
      </trkpt>
      <trkpt lat="43.97879" lon="5.11519">
        <ele>310.9</ele>
        <time>2013-02-18T12:26:36.000Z</time>
      </trkpt>
      <trkpt lat="43.97876" lon="5.11521">
        <ele>311.6</ele>
        <time>2013-02-18T12:26:37.000Z</time>
      </trkpt>
      <trkpt lat="43.97874" lon="5.11523">
        <ele>311.7</ele>
        <time>2013-02-18T12:26:38.000Z</time>
      </trkpt>
      <trkpt lat="43.97871" lon="5.11523">
        <ele>312.4</ele>
        <time>2013-02-18T12:26:39.000Z</time>
      </trkpt>
      <trkpt lat="43.97868" lon="5.11526">
        <ele>311.4</ele>
        <time>2013-02-18T12:26:40.000Z</time>
      </trkpt>
      <trkpt lat="43.97866" lon="5.11526">
        <ele>312</ele>
        <time>2013-02-18T12:26:41.000Z</time>
      </trkpt>
      <trkpt lat="43.97863" lon="5.11528">
        <ele>312</ele>
        <time>2013-02-18T12:26:42.000Z</time>
      </trkpt>
      <trkpt lat="43.97861" lon="5.11529">
        <ele>311.4</ele>
        <time>2013-02-18T12:26:43.000Z</time>
      </trkpt>
      <trkpt lat="43.97858" lon="5.11531">
        <ele>310.6</ele>
        <time>2013-02-18T12:26:44.000Z</time>
      </trkpt>
      <trkpt lat="43.97856" lon="5.11531">
        <ele>313.5</ele>
        <time>2013-02-18T12:26:45.000Z</time>
      </trkpt>
      <trkpt lat="43.97852" lon="5.11533">
        <ele>311.9</ele>
        <time>2013-02-18T12:26:46.000Z</time>
      </trkpt>
      <trkpt lat="43.9785" lon="5.11534">
        <ele>312.2</ele>
        <time>2013-02-18T12:26:47.000Z</time>
      </trkpt>
      <trkpt lat="43.97847" lon="5.11535">
        <ele>312</ele>
        <time>2013-02-18T12:26:48.000Z</time>
      </trkpt>
      <trkpt lat="43.97843" lon="5.11535">
        <ele>312.8</ele>
        <time>2013-02-18T12:26:50.000Z</time>
      </trkpt>
      <trkpt lat="43.97841" lon="5.11534">
        <ele>313.3</ele>
        <time>2013-02-18T12:26:51.000Z</time>
      </trkpt>
      <trkpt lat="43.97838" lon="5.11534">
        <ele>313.3</ele>
        <time>2013-02-18T12:26:52.000Z</time>
      </trkpt>
      <trkpt lat="43.97835" lon="5.11533">
        <ele>313.2</ele>
        <time>2013-02-18T12:26:53.000Z</time>
      </trkpt>
      <trkpt lat="43.97832" lon="5.11534">
        <ele>313.7</ele>
        <time>2013-02-18T12:26:55.000Z</time>
      </trkpt>
      <trkpt lat="43.9783" lon="5.11534">
        <ele>314.1</ele>
        <time>2013-02-18T12:26:56.000Z</time>
      </trkpt>
      <trkpt lat="43.97827" lon="5.11534">
        <ele>314.9</ele>
        <time>2013-02-18T12:26:58.000Z</time>
      </trkpt>
      <trkpt lat="43.97826" lon="5.11534">
        <ele>315.1</ele>
        <time>2013-02-18T12:26:59.000Z</time>
      </trkpt>
      <trkpt lat="43.97822" lon="5.11533">
        <ele>314.7</ele>
        <time>2013-02-18T12:27:01.000Z</time>
      </trkpt>
      <trkpt lat="43.97819" lon="5.11533">
        <ele>314.4</ele>
        <time>2013-02-18T12:27:02.000Z</time>
      </trkpt>
      <trkpt lat="43.97817" lon="5.11533">
        <ele>315.2</ele>
        <time>2013-02-18T12:27:04.000Z</time>
      </trkpt>
      <trkpt lat="43.97814" lon="5.11533">
        <ele>315.3</ele>
        <time>2013-02-18T12:27:05.000Z</time>
      </trkpt>
      <trkpt lat="43.97811" lon="5.11531">
        <ele>315.3</ele>
        <time>2013-02-18T12:27:06.000Z</time>
      </trkpt>
      <trkpt lat="43.97808" lon="5.11531">
        <ele>315.5</ele>
        <time>2013-02-18T12:27:07.000Z</time>
      </trkpt>
      <trkpt lat="43.97806" lon="5.1153">
        <ele>313.8</ele>
        <time>2013-02-18T12:27:08.000Z</time>
      </trkpt>
      <trkpt lat="43.97803" lon="5.1153">
        <ele>312.8</ele>
        <time>2013-02-18T12:27:09.000Z</time>
      </trkpt>
      <trkpt lat="43.978" lon="5.11528">
        <ele>310.4</ele>
        <time>2013-02-18T12:27:11.000Z</time>
      </trkpt>
      <trkpt lat="43.97798" lon="5.11527">
        <ele>309.5</ele>
        <time>2013-02-18T12:27:12.000Z</time>
      </trkpt>
      <trkpt lat="43.97795" lon="5.11527">
        <ele>308.8</ele>
        <time>2013-02-18T12:27:13.000Z</time>
      </trkpt>
      <trkpt lat="43.97793" lon="5.11527">
        <ele>313.7</ele>
        <time>2013-02-18T12:27:14.000Z</time>
      </trkpt>
      <trkpt lat="43.9779" lon="5.11526">
        <ele>314.6</ele>
        <time>2013-02-18T12:27:15.000Z</time>
      </trkpt>
      <trkpt lat="43.97788" lon="5.11526">
        <ele>315.3</ele>
        <time>2013-02-18T12:27:16.000Z</time>
      </trkpt>
      <trkpt lat="43.97786" lon="5.11525">
        <ele>315.7</ele>
        <time>2013-02-18T12:27:17.000Z</time>
      </trkpt>
      <trkpt lat="43.97783" lon="5.11526">
        <ele>316</ele>
        <time>2013-02-18T12:27:18.000Z</time>
      </trkpt>
      <trkpt lat="43.97781" lon="5.11527">
        <ele>316.3</ele>
        <time>2013-02-18T12:27:19.000Z</time>
      </trkpt>
      <trkpt lat="43.97777" lon="5.11527">
        <ele>316</ele>
        <time>2013-02-18T12:27:20.000Z</time>
      </trkpt>
      <trkpt lat="43.97774" lon="5.11526">
        <ele>315.8</ele>
        <time>2013-02-18T12:27:21.000Z</time>
      </trkpt>
      <trkpt lat="43.97771" lon="5.11525">
        <ele>315.8</ele>
        <time>2013-02-18T12:27:22.000Z</time>
      </trkpt>
      <trkpt lat="43.97768" lon="5.11522">
        <ele>315.4</ele>
        <time>2013-02-18T12:27:24.000Z</time>
      </trkpt>
      <trkpt lat="43.97766" lon="5.11522">
        <ele>315.2</ele>
        <time>2013-02-18T12:27:25.000Z</time>
      </trkpt>
      <trkpt lat="43.97762" lon="5.11521">
        <ele>315</ele>
        <time>2013-02-18T12:27:26.000Z</time>
      </trkpt>
      <trkpt lat="43.9776" lon="5.11521">
        <ele>314.7</ele>
        <time>2013-02-18T12:27:27.000Z</time>
      </trkpt>
      <trkpt lat="43.97759" lon="5.11516">
        <ele>324.3</ele>
        <time>2013-02-18T12:27:34.000Z</time>
      </trkpt>
      <trkpt lat="43.97753" lon="5.11518">
        <ele>322.8</ele>
        <time>2013-02-18T12:27:35.000Z</time>
      </trkpt>
      <trkpt lat="43.9775" lon="5.11518">
        <ele>323</ele>
        <time>2013-02-18T12:27:36.000Z</time>
      </trkpt>
      <trkpt lat="43.97747" lon="5.11518">
        <ele>322.6</ele>
        <time>2013-02-18T12:27:37.000Z</time>
      </trkpt>
      <trkpt lat="43.97744" lon="5.11518">
        <ele>322.7</ele>
        <time>2013-02-18T12:27:39.000Z</time>
      </trkpt>
      <trkpt lat="43.97742" lon="5.11519">
        <ele>322.5</ele>
        <time>2013-02-18T12:27:40.000Z</time>
      </trkpt>
      <trkpt lat="43.97738" lon="5.1152">
        <ele>322.7</ele>
        <time>2013-02-18T12:27:42.000Z</time>
      </trkpt>
      <trkpt lat="43.97735" lon="5.1152">
        <ele>323.5</ele>
        <time>2013-02-18T12:27:43.000Z</time>
      </trkpt>
      <trkpt lat="43.97733" lon="5.11522">
        <ele>323.7</ele>
        <time>2013-02-18T12:27:44.000Z</time>
      </trkpt>
      <trkpt lat="43.97731" lon="5.11522">
        <ele>324.9</ele>
        <time>2013-02-18T12:27:45.000Z</time>
      </trkpt>
      <trkpt lat="43.97729" lon="5.11522">
        <ele>324.8</ele>
        <time>2013-02-18T12:27:46.000Z</time>
      </trkpt>
      <trkpt lat="43.97726" lon="5.11523">
        <ele>323.8</ele>
        <time>2013-02-18T12:27:47.000Z</time>
      </trkpt>
      <trkpt lat="43.97722" lon="5.11524">
        <ele>323.9</ele>
        <time>2013-02-18T12:27:49.000Z</time>
      </trkpt>
      <trkpt lat="43.9772" lon="5.11525">
        <ele>324.2</ele>
        <time>2013-02-18T12:27:50.000Z</time>
      </trkpt>
      <trkpt lat="43.97716" lon="5.11526">
        <ele>323.8</ele>
        <time>2013-02-18T12:27:52.000Z</time>
      </trkpt>
      <trkpt lat="43.97715" lon="5.11526">
        <ele>323.8</ele>
        <time>2013-02-18T12:27:53.000Z</time>
      </trkpt>
      <trkpt lat="43.97711" lon="5.11527">
        <ele>324</ele>
        <time>2013-02-18T12:27:55.000Z</time>
      </trkpt>
      <trkpt lat="43.97709" lon="5.11528">
        <ele>324.7</ele>
        <time>2013-02-18T12:27:56.000Z</time>
      </trkpt>
      <trkpt lat="43.97707" lon="5.11528">
        <ele>324.4</ele>
        <time>2013-02-18T12:27:57.000Z</time>
      </trkpt>
      <trkpt lat="43.97705" lon="5.11529">
        <ele>324.6</ele>
        <time>2013-02-18T12:27:58.000Z</time>
      </trkpt>
      <trkpt lat="43.977" lon="5.1153">
        <ele>324.8</ele>
        <time>2013-02-18T12:28:00.000Z</time>
      </trkpt>
      <trkpt lat="43.97698" lon="5.11531">
        <ele>324</ele>
        <time>2013-02-18T12:28:01.000Z</time>
      </trkpt>
      <trkpt lat="43.97695" lon="5.11533">
        <ele>324.7</ele>
        <time>2013-02-18T12:28:03.000Z</time>
      </trkpt>
      <trkpt lat="43.97693" lon="5.11534">
        <ele>325.6</ele>
        <time>2013-02-18T12:28:04.000Z</time>
      </trkpt>
      <trkpt lat="43.97692" lon="5.11534">
        <ele>325.9</ele>
        <time>2013-02-18T12:28:05.000Z</time>
      </trkpt>
      <trkpt lat="43.97689" lon="5.11535">
        <ele>325.7</ele>
        <time>2013-02-18T12:28:06.000Z</time>
      </trkpt>
      <trkpt lat="43.97686" lon="5.11536">
        <ele>325.4</ele>
        <time>2013-02-18T12:28:07.000Z</time>
      </trkpt>
      <trkpt lat="43.97684" lon="5.11537">
        <ele>325.1</ele>
        <time>2013-02-18T12:28:08.000Z</time>
      </trkpt>
      <trkpt lat="43.9768" lon="5.11538">
        <ele>324.6</ele>
        <time>2013-02-18T12:28:09.000Z</time>
      </trkpt>
      <trkpt lat="43.97678" lon="5.11539">
        <ele>324.6</ele>
        <time>2013-02-18T12:28:10.000Z</time>
      </trkpt>
      <trkpt lat="43.97676" lon="5.1154">
        <ele>324.2</ele>
        <time>2013-02-18T12:28:11.000Z</time>
      </trkpt>
      <trkpt lat="43.97673" lon="5.11541">
        <ele>324.1</ele>
        <time>2013-02-18T12:28:12.000Z</time>
      </trkpt>
      <trkpt lat="43.97669" lon="5.11543">
        <ele>323.9</ele>
        <time>2013-02-18T12:28:14.000Z</time>
      </trkpt>
      <trkpt lat="43.97667" lon="5.11544">
        <ele>324</ele>
        <time>2013-02-18T12:28:15.000Z</time>
      </trkpt>
      <trkpt lat="43.97663" lon="5.11546">
        <ele>323.7</ele>
        <time>2013-02-18T12:28:17.000Z</time>
      </trkpt>
      <trkpt lat="43.97661" lon="5.11546">
        <ele>323.4</ele>
        <time>2013-02-18T12:28:18.000Z</time>
      </trkpt>
      <trkpt lat="43.97658" lon="5.11548">
        <ele>323.5</ele>
        <time>2013-02-18T12:28:19.000Z</time>
      </trkpt>
      <trkpt lat="43.97656" lon="5.11549">
        <ele>323.1</ele>
        <time>2013-02-18T12:28:20.000Z</time>
      </trkpt>
      <trkpt lat="43.97652" lon="5.11552">
        <ele>323.8</ele>
        <time>2013-02-18T12:28:22.000Z</time>
      </trkpt>
      <trkpt lat="43.9765" lon="5.11553">
        <ele>323.5</ele>
        <time>2013-02-18T12:28:23.000Z</time>
      </trkpt>
      <trkpt lat="43.97647" lon="5.11555">
        <ele>324.1</ele>
        <time>2013-02-18T12:28:25.000Z</time>
      </trkpt>
      <trkpt lat="43.97645" lon="5.11555">
        <ele>324.5</ele>
        <time>2013-02-18T12:28:26.000Z</time>
      </trkpt>
      <trkpt lat="43.97642" lon="5.11557">
        <ele>324.5</ele>
        <time>2013-02-18T12:28:28.000Z</time>
      </trkpt>
      <trkpt lat="43.9764" lon="5.11557">
        <ele>324.4</ele>
        <time>2013-02-18T12:28:29.000Z</time>
      </trkpt>
      <trkpt lat="43.97637" lon="5.1156">
        <ele>325</ele>
        <time>2013-02-18T12:28:38.000Z</time>
      </trkpt>
      <trkpt lat="43.97634" lon="5.11561">
        <ele>324.7</ele>
        <time>2013-02-18T12:28:39.000Z</time>
      </trkpt>
      <trkpt lat="43.97631" lon="5.11562">
        <ele>324.4</ele>
        <time>2013-02-18T12:28:42.000Z</time>
      </trkpt>
      <trkpt lat="43.97629" lon="5.11563">
        <ele>324.5</ele>
        <time>2013-02-18T12:28:43.000Z</time>
      </trkpt>
      <trkpt lat="43.97628" lon="5.11563">
        <ele>324.7</ele>
        <time>2013-02-18T12:28:44.000Z</time>
      </trkpt>
      <trkpt lat="43.97624" lon="5.11563">
        <ele>324.2</ele>
        <time>2013-02-18T12:28:45.000Z</time>
      </trkpt>
      <trkpt lat="43.97621" lon="5.11564">
        <ele>324.3</ele>
        <time>2013-02-18T12:28:46.000Z</time>
      </trkpt>
      <trkpt lat="43.97619" lon="5.11565">
        <ele>324</ele>
        <time>2013-02-18T12:28:47.000Z</time>
      </trkpt>
      <trkpt lat="43.97615" lon="5.11566">
        <ele>323.3</ele>
        <time>2013-02-18T12:28:49.000Z</time>
      </trkpt>
      <trkpt lat="43.97612" lon="5.11567">
        <ele>323.4</ele>
        <time>2013-02-18T12:28:50.000Z</time>
      </trkpt>
      <trkpt lat="43.97608" lon="5.11568">
        <ele>325.4</ele>
        <time>2013-02-18T12:28:52.000Z</time>
      </trkpt>
      <trkpt lat="43.97606" lon="5.11568">
        <ele>325.7</ele>
        <time>2013-02-18T12:28:53.000Z</time>
      </trkpt>
      <trkpt lat="43.97602" lon="5.11569">
        <ele>326.8</ele>
        <time>2013-02-18T12:28:55.000Z</time>
      </trkpt>
      <trkpt lat="43.976" lon="5.1157">
        <ele>327.6</ele>
        <time>2013-02-18T12:28:56.000Z</time>
      </trkpt>
      <trkpt lat="43.97596" lon="5.11571">
        <ele>329.4</ele>
        <time>2013-02-18T12:28:58.000Z</time>
      </trkpt>
      <trkpt lat="43.97594" lon="5.11572">
        <ele>330</ele>
        <time>2013-02-18T12:28:59.000Z</time>
      </trkpt>
      <trkpt lat="43.9759" lon="5.11572">
        <ele>332.8</ele>
        <time>2013-02-18T12:29:01.000Z</time>
      </trkpt>
      <trkpt lat="43.97588" lon="5.11573">
        <ele>333.7</ele>
        <time>2013-02-18T12:29:02.000Z</time>
      </trkpt>
      <trkpt lat="43.97586" lon="5.11572">
        <ele>334.7</ele>
        <time>2013-02-18T12:29:03.000Z</time>
      </trkpt>
      <trkpt lat="43.97583" lon="5.11573">
        <ele>334.8</ele>
        <time>2013-02-18T12:29:04.000Z</time>
      </trkpt>
      <trkpt lat="43.9758" lon="5.11574">
        <ele>334.6</ele>
        <time>2013-02-18T12:29:05.000Z</time>
      </trkpt>
      <trkpt lat="43.97578" lon="5.11574">
        <ele>334.6</ele>
        <time>2013-02-18T12:29:06.000Z</time>
      </trkpt>
      <trkpt lat="43.97574" lon="5.11575">
        <ele>334.4</ele>
        <time>2013-02-18T12:29:07.000Z</time>
      </trkpt>
      <trkpt lat="43.97572" lon="5.11575">
        <ele>335</ele>
        <time>2013-02-18T12:29:08.000Z</time>
      </trkpt>
      <trkpt lat="43.97569" lon="5.11575">
        <ele>334.6</ele>
        <time>2013-02-18T12:29:09.000Z</time>
      </trkpt>
      <trkpt lat="43.97567" lon="5.11576">
        <ele>334.5</ele>
        <time>2013-02-18T12:29:10.000Z</time>
      </trkpt>
      <trkpt lat="43.97563" lon="5.11576">
        <ele>334.2</ele>
        <time>2013-02-18T12:29:12.000Z</time>
      </trkpt>
      <trkpt lat="43.97561" lon="5.11576">
        <ele>334.3</ele>
        <time>2013-02-18T12:29:13.000Z</time>
      </trkpt>
      <trkpt lat="43.97557" lon="5.11578">
        <ele>334.2</ele>
        <time>2013-02-18T12:29:15.000Z</time>
      </trkpt>
      <trkpt lat="43.97555" lon="5.11578">
        <ele>334</ele>
        <time>2013-02-18T12:29:16.000Z</time>
      </trkpt>
      <trkpt lat="43.97551" lon="5.11579">
        <ele>333.8</ele>
        <time>2013-02-18T12:29:18.000Z</time>
      </trkpt>
      <trkpt lat="43.97549" lon="5.1158">
        <ele>334.3</ele>
        <time>2013-02-18T12:29:19.000Z</time>
      </trkpt>
      <trkpt lat="43.97545" lon="5.1158">
        <ele>335.4</ele>
        <time>2013-02-18T12:29:20.000Z</time>
      </trkpt>
      <trkpt lat="43.97541" lon="5.1158">
        <ele>335.1</ele>
        <time>2013-02-18T12:29:21.000Z</time>
      </trkpt>
      <trkpt lat="43.97539" lon="5.1158">
        <ele>335.4</ele>
        <time>2013-02-18T12:29:22.000Z</time>
      </trkpt>
      <trkpt lat="43.97537" lon="5.1158">
        <ele>335.3</ele>
        <time>2013-02-18T12:29:23.000Z</time>
      </trkpt>
      <trkpt lat="43.97534" lon="5.11579">
        <ele>336.4</ele>
        <time>2013-02-18T12:29:24.000Z</time>
      </trkpt>
      <trkpt lat="43.97532" lon="5.1158">
        <ele>336.3</ele>
        <time>2013-02-18T12:29:25.000Z</time>
      </trkpt>
      <trkpt lat="43.97529" lon="5.1158">
        <ele>336.5</ele>
        <time>2013-02-18T12:29:26.000Z</time>
      </trkpt>
      <trkpt lat="43.97527" lon="5.1158">
        <ele>336.3</ele>
        <time>2013-02-18T12:29:27.000Z</time>
      </trkpt>
      <trkpt lat="43.97525" lon="5.11581">
        <ele>336.5</ele>
        <time>2013-02-18T12:29:28.000Z</time>
      </trkpt>
      <trkpt lat="43.97522" lon="5.1158">
        <ele>336.2</ele>
        <time>2013-02-18T12:29:29.000Z</time>
      </trkpt>
      <trkpt lat="43.97519" lon="5.11579">
        <ele>336.3</ele>
        <time>2013-02-18T12:29:30.000Z</time>
      </trkpt>
      <trkpt lat="43.97516" lon="5.11578">
        <ele>335.1</ele>
        <time>2013-02-18T12:29:31.000Z</time>
      </trkpt>
      <trkpt lat="43.97511" lon="5.11577">
        <ele>335</ele>
        <time>2013-02-18T12:29:32.000Z</time>
      </trkpt>
      <trkpt lat="43.97508" lon="5.11577">
        <ele>334.9</ele>
        <time>2013-02-18T12:29:33.000Z</time>
      </trkpt>
      <trkpt lat="43.97505" lon="5.11576">
        <ele>334.6</ele>
        <time>2013-02-18T12:29:34.000Z</time>
      </trkpt>
      <trkpt lat="43.97502" lon="5.11575">
        <ele>334.9</ele>
        <time>2013-02-18T12:29:35.000Z</time>
      </trkpt>
      <trkpt lat="43.975" lon="5.11575">
        <ele>335</ele>
        <time>2013-02-18T12:29:36.000Z</time>
      </trkpt>
      <trkpt lat="43.97496" lon="5.11574">
        <ele>334.9</ele>
        <time>2013-02-18T12:29:37.000Z</time>
      </trkpt>
      <trkpt lat="43.97493" lon="5.11573">
        <ele>334.2</ele>
        <time>2013-02-18T12:29:38.000Z</time>
      </trkpt>
      <trkpt lat="43.9749" lon="5.11573">
        <ele>334.1</ele>
        <time>2013-02-18T12:29:39.000Z</time>
      </trkpt>
      <trkpt lat="43.97488" lon="5.11573">
        <ele>334.7</ele>
        <time>2013-02-18T12:29:40.000Z</time>
      </trkpt>
      <trkpt lat="43.97485" lon="5.11572">
        <ele>334.5</ele>
        <time>2013-02-18T12:29:41.000Z</time>
      </trkpt>
      <trkpt lat="43.97483" lon="5.11572">
        <ele>334.3</ele>
        <time>2013-02-18T12:29:42.000Z</time>
      </trkpt>
      <trkpt lat="43.97479" lon="5.11572">
        <ele>333.4</ele>
        <time>2013-02-18T12:29:43.000Z</time>
      </trkpt>
      <trkpt lat="43.97477" lon="5.11571">
        <ele>333.3</ele>
        <time>2013-02-18T12:29:44.000Z</time>
      </trkpt>
      <trkpt lat="43.97473" lon="5.11572">
        <ele>333.3</ele>
        <time>2013-02-18T12:29:46.000Z</time>
      </trkpt>
      <trkpt lat="43.97471" lon="5.11572">
        <ele>334.1</ele>
        <time>2013-02-18T12:29:47.000Z</time>
      </trkpt>
      <trkpt lat="43.97469" lon="5.11572">
        <ele>334</ele>
        <time>2013-02-18T12:29:48.000Z</time>
      </trkpt>
      <trkpt lat="43.97466" lon="5.11572">
        <ele>333.1</ele>
        <time>2013-02-18T12:29:49.000Z</time>
      </trkpt>
      <trkpt lat="43.97463" lon="5.11572">
        <ele>333.5</ele>
        <time>2013-02-18T12:29:50.000Z</time>
      </trkpt>
      <trkpt lat="43.97461" lon="5.11572">
        <ele>333.5</ele>
        <time>2013-02-18T12:29:51.000Z</time>
      </trkpt>
      <trkpt lat="43.97457" lon="5.11572">
        <ele>333.8</ele>
        <time>2013-02-18T12:29:53.000Z</time>
      </trkpt>
      <trkpt lat="43.97454" lon="5.11573">
        <ele>334.2</ele>
        <time>2013-02-18T12:29:54.000Z</time>
      </trkpt>
      <trkpt lat="43.97452" lon="5.11573">
        <ele>334.4</ele>
        <time>2013-02-18T12:29:55.000Z</time>
      </trkpt>
      <trkpt lat="43.9745" lon="5.11573">
        <ele>334.3</ele>
        <time>2013-02-18T12:29:56.000Z</time>
      </trkpt>
      <trkpt lat="43.97445" lon="5.11573">
        <ele>334.1</ele>
        <time>2013-02-18T12:29:58.000Z</time>
      </trkpt>
      <trkpt lat="43.97443" lon="5.11573">
        <ele>333.9</ele>
        <time>2013-02-18T12:29:59.000Z</time>
      </trkpt>
      <trkpt lat="43.9744" lon="5.11574">
        <ele>335.2</ele>
        <time>2013-02-18T12:30:01.000Z</time>
      </trkpt>
      <trkpt lat="43.97438" lon="5.11574">
        <ele>335.9</ele>
        <time>2013-02-18T12:30:02.000Z</time>
      </trkpt>
      <trkpt lat="43.97434" lon="5.11574">
        <ele>336.4</ele>
        <time>2013-02-18T12:30:04.000Z</time>
      </trkpt>
      <trkpt lat="43.97432" lon="5.11574">
        <ele>336.2</ele>
        <time>2013-02-18T12:30:05.000Z</time>
      </trkpt>
      <trkpt lat="43.97428" lon="5.11575">
        <ele>336.6</ele>
        <time>2013-02-18T12:30:07.000Z</time>
      </trkpt>
      <trkpt lat="43.97426" lon="5.11575">
        <ele>336.8</ele>
        <time>2013-02-18T12:30:08.000Z</time>
      </trkpt>
      <trkpt lat="43.97422" lon="5.11575">
        <ele>337.3</ele>
        <time>2013-02-18T12:30:10.000Z</time>
      </trkpt>
      <trkpt lat="43.97419" lon="5.11576">
        <ele>337.7</ele>
        <time>2013-02-18T12:30:11.000Z</time>
      </trkpt>
      <trkpt lat="43.97409" lon="5.11577">
        <ele>330.6</ele>
        <time>2013-02-18T12:30:12.000Z</time>
      </trkpt>
      <trkpt lat="43.97405" lon="5.11578">
        <ele>330.9</ele>
        <time>2013-02-18T12:30:14.000Z</time>
      </trkpt>
      <trkpt lat="43.97403" lon="5.11579">
        <ele>331</ele>
        <time>2013-02-18T12:30:15.000Z</time>
      </trkpt>
      <trkpt lat="43.97401" lon="5.11579">
        <ele>330.1</ele>
        <time>2013-02-18T12:30:16.000Z</time>
      </trkpt>
      <trkpt lat="43.97398" lon="5.11582">
        <ele>328.8</ele>
        <time>2013-02-18T12:30:17.000Z</time>
      </trkpt>
      <trkpt lat="43.97396" lon="5.11583">
        <ele>334</ele>
        <time>2013-02-18T12:30:20.000Z</time>
      </trkpt>
      <trkpt lat="43.97393" lon="5.11584">
        <ele>334.6</ele>
        <time>2013-02-18T12:30:21.000Z</time>
      </trkpt>
      <trkpt lat="43.97389" lon="5.11585">
        <ele>335.4</ele>
        <time>2013-02-18T12:30:23.000Z</time>
      </trkpt>
      <trkpt lat="43.97387" lon="5.11586">
        <ele>335.7</ele>
        <time>2013-02-18T12:30:24.000Z</time>
      </trkpt>
      <trkpt lat="43.97384" lon="5.11588">
        <ele>335.4</ele>
        <time>2013-02-18T12:30:25.000Z</time>
      </trkpt>
      <trkpt lat="43.97382" lon="5.11589">
        <ele>336</ele>
        <time>2013-02-18T12:30:26.000Z</time>
      </trkpt>
      <trkpt lat="43.9738" lon="5.1159">
        <ele>336.6</ele>
        <time>2013-02-18T12:30:27.000Z</time>
      </trkpt>
      <trkpt lat="43.97378" lon="5.11592">
        <ele>336.7</ele>
        <time>2013-02-18T12:30:28.000Z</time>
      </trkpt>
      <trkpt lat="43.97374" lon="5.11595">
        <ele>337</ele>
        <time>2013-02-18T12:30:30.000Z</time>
      </trkpt>
      <trkpt lat="43.97372" lon="5.11596">
        <ele>337.9</ele>
        <time>2013-02-18T12:30:31.000Z</time>
      </trkpt>
      <trkpt lat="43.97368" lon="5.116">
        <ele>339</ele>
        <time>2013-02-18T12:30:33.000Z</time>
      </trkpt>
      <trkpt lat="43.97366" lon="5.11601">
        <ele>338.7</ele>
        <time>2013-02-18T12:30:34.000Z</time>
      </trkpt>
      <trkpt lat="43.97364" lon="5.11602">
        <ele>338.8</ele>
        <time>2013-02-18T12:30:35.000Z</time>
      </trkpt>
      <trkpt lat="43.97362" lon="5.11604">
        <ele>338.3</ele>
        <time>2013-02-18T12:30:36.000Z</time>
      </trkpt>
      <trkpt lat="43.97358" lon="5.11606">
        <ele>339.5</ele>
        <time>2013-02-18T12:30:38.000Z</time>
      </trkpt>
      <trkpt lat="43.97356" lon="5.11608">
        <ele>339.8</ele>
        <time>2013-02-18T12:30:39.000Z</time>
      </trkpt>
      <trkpt lat="43.97354" lon="5.11609">
        <ele>340</ele>
        <time>2013-02-18T12:30:40.000Z</time>
      </trkpt>
      <trkpt lat="43.97352" lon="5.11611">
        <ele>340.4</ele>
        <time>2013-02-18T12:30:41.000Z</time>
      </trkpt>
      <trkpt lat="43.97351" lon="5.11616">
        <ele>344.9</ele>
        <time>2013-02-18T12:30:44.000Z</time>
      </trkpt>
      <trkpt lat="43.97348" lon="5.11616">
        <ele>342.9</ele>
        <time>2013-02-18T12:30:45.000Z</time>
      </trkpt>
      <trkpt lat="43.97345" lon="5.11618">
        <ele>342.5</ele>
        <time>2013-02-18T12:30:47.000Z</time>
      </trkpt>
      <trkpt lat="43.97344" lon="5.1162">
        <ele>341.6</ele>
        <time>2013-02-18T12:30:48.000Z</time>
      </trkpt>
      <trkpt lat="43.9734" lon="5.1162">
        <ele>344.5</ele>
        <time>2013-02-18T12:30:51.000Z</time>
      </trkpt>
      <trkpt lat="43.97338" lon="5.11622">
        <ele>344.6</ele>
        <time>2013-02-18T12:30:52.000Z</time>
      </trkpt>
      <trkpt lat="43.97335" lon="5.11625">
        <ele>345.1</ele>
        <time>2013-02-18T12:30:54.000Z</time>
      </trkpt>
      <trkpt lat="43.97334" lon="5.11627">
        <ele>345.2</ele>
        <time>2013-02-18T12:30:55.000Z</time>
      </trkpt>
      <trkpt lat="43.97331" lon="5.11629">
        <ele>345.5</ele>
        <time>2013-02-18T12:30:57.000Z</time>
      </trkpt>
      <trkpt lat="43.9733" lon="5.1163">
        <ele>345.2</ele>
        <time>2013-02-18T12:30:58.000Z</time>
      </trkpt>
      <trkpt lat="43.97327" lon="5.11633">
        <ele>346.3</ele>
        <time>2013-02-18T12:31:01.000Z</time>
      </trkpt>
      <trkpt lat="43.97325" lon="5.11634">
        <ele>345.9</ele>
        <time>2013-02-18T12:31:02.000Z</time>
      </trkpt>
      <trkpt lat="43.97322" lon="5.11637">
        <ele>347.5</ele>
        <time>2013-02-18T12:31:05.000Z</time>
      </trkpt>
      <trkpt lat="43.9732" lon="5.11638">
        <ele>347.2</ele>
        <time>2013-02-18T12:31:06.000Z</time>
      </trkpt>
      <trkpt lat="43.97317" lon="5.11641">
        <ele>348</ele>
        <time>2013-02-18T12:31:09.000Z</time>
      </trkpt>
      <trkpt lat="43.97316" lon="5.11643">
        <ele>347.3</ele>
        <time>2013-02-18T12:31:10.000Z</time>
      </trkpt>
      <trkpt lat="43.97313" lon="5.11645">
        <ele>347.3</ele>
        <time>2013-02-18T12:31:12.000Z</time>
      </trkpt>
      <trkpt lat="43.9731" lon="5.11646">
        <ele>346.7</ele>
        <time>2013-02-18T12:31:13.000Z</time>
      </trkpt>
      <trkpt lat="43.97307" lon="5.11648">
        <ele>345.5</ele>
        <time>2013-02-18T12:31:15.000Z</time>
      </trkpt>
      <trkpt lat="43.97304" lon="5.11649">
        <ele>345.2</ele>
        <time>2013-02-18T12:31:16.000Z</time>
      </trkpt>
      <trkpt lat="43.97302" lon="5.11651">
        <ele>345.3</ele>
        <time>2013-02-18T12:31:17.000Z</time>
      </trkpt>
      <trkpt lat="43.97301" lon="5.11653">
        <ele>345.2</ele>
        <time>2013-02-18T12:31:18.000Z</time>
      </trkpt>
      <trkpt lat="43.97297" lon="5.11656">
        <ele>345.8</ele>
        <time>2013-02-18T12:31:20.000Z</time>
      </trkpt>
      <trkpt lat="43.97295" lon="5.11657">
        <ele>345.9</ele>
        <time>2013-02-18T12:31:21.000Z</time>
      </trkpt>
      <trkpt lat="43.97291" lon="5.11659">
        <ele>347.7</ele>
        <time>2013-02-18T12:31:23.000Z</time>
      </trkpt>
      <trkpt lat="43.97289" lon="5.11661">
        <ele>348.2</ele>
        <time>2013-02-18T12:31:24.000Z</time>
      </trkpt>
      <trkpt lat="43.97285" lon="5.11664">
        <ele>350</ele>
        <time>2013-02-18T12:31:26.000Z</time>
      </trkpt>
      <trkpt lat="43.97283" lon="5.11665">
        <ele>350.6</ele>
        <time>2013-02-18T12:31:27.000Z</time>
      </trkpt>
      <trkpt lat="43.97281" lon="5.11667">
        <ele>350.3</ele>
        <time>2013-02-18T12:31:29.000Z</time>
      </trkpt>
      <trkpt lat="43.97279" lon="5.11668">
        <ele>351</ele>
        <time>2013-02-18T12:31:30.000Z</time>
      </trkpt>
      <trkpt lat="43.97277" lon="5.11671">
        <ele>351.9</ele>
        <time>2013-02-18T12:31:32.000Z</time>
      </trkpt>
      <trkpt lat="43.97276" lon="5.11673">
        <ele>353</ele>
        <time>2013-02-18T12:31:33.000Z</time>
      </trkpt>
      <trkpt lat="43.97273" lon="5.11675">
        <ele>353.7</ele>
        <time>2013-02-18T12:31:35.000Z</time>
      </trkpt>
      <trkpt lat="43.97272" lon="5.11677">
        <ele>354.1</ele>
        <time>2013-02-18T12:31:36.000Z</time>
      </trkpt>
      <trkpt lat="43.9727" lon="5.11682">
        <ele>355</ele>
        <time>2013-02-18T12:31:38.000Z</time>
      </trkpt>
      <trkpt lat="43.97269" lon="5.11684">
        <ele>355.6</ele>
        <time>2013-02-18T12:31:39.000Z</time>
      </trkpt>
      <trkpt lat="43.97268" lon="5.11688">
        <ele>355.9</ele>
        <time>2013-02-18T12:31:41.000Z</time>
      </trkpt>
      <trkpt lat="43.97268" lon="5.11691">
        <ele>357.9</ele>
        <time>2013-02-18T12:31:42.000Z</time>
      </trkpt>
      <trkpt lat="43.97266" lon="5.11696">
        <ele>357</ele>
        <time>2013-02-18T12:31:44.000Z</time>
      </trkpt>
      <trkpt lat="43.97266" lon="5.11697">
        <ele>357.5</ele>
        <time>2013-02-18T12:31:45.000Z</time>
      </trkpt>
      <trkpt lat="43.97264" lon="5.11702">
        <ele>358.3</ele>
        <time>2013-02-18T12:31:47.000Z</time>
      </trkpt>
      <trkpt lat="43.97264" lon="5.11704">
        <ele>357.7</ele>
        <time>2013-02-18T12:31:48.000Z</time>
      </trkpt>
      <trkpt lat="43.97263" lon="5.11709">
        <ele>357.5</ele>
        <time>2013-02-18T12:31:50.000Z</time>
      </trkpt>
      <trkpt lat="43.97262" lon="5.11711">
        <ele>357.7</ele>
        <time>2013-02-18T12:31:51.000Z</time>
      </trkpt>
      <trkpt lat="43.97261" lon="5.11713">
        <ele>358</ele>
        <time>2013-02-18T12:31:52.000Z</time>
      </trkpt>
      <trkpt lat="43.97258" lon="5.11716">
        <ele>357</ele>
        <time>2013-02-18T12:31:53.000Z</time>
      </trkpt>
      <trkpt lat="43.97255" lon="5.11717">
        <ele>356.6</ele>
        <time>2013-02-18T12:31:55.000Z</time>
      </trkpt>
      <trkpt lat="43.97254" lon="5.11718">
        <ele>356.8</ele>
        <time>2013-02-18T12:31:56.000Z</time>
      </trkpt>
      <trkpt lat="43.97252" lon="5.11722">
        <ele>358.3</ele>
        <time>2013-02-18T12:32:17.000Z</time>
      </trkpt>
      <trkpt lat="43.97251" lon="5.11724">
        <ele>358.1</ele>
        <time>2013-02-18T12:32:18.000Z</time>
      </trkpt>
      <trkpt lat="43.9725" lon="5.11726">
        <ele>358.4</ele>
        <time>2013-02-18T12:32:19.000Z</time>
      </trkpt>
      <trkpt lat="43.97253" lon="5.11732">
        <ele>358.9</ele>
        <time>2013-02-18T12:32:20.000Z</time>
      </trkpt>
      <trkpt lat="43.97252" lon="5.11738">
        <ele>357.7</ele>
        <time>2013-02-18T12:32:22.000Z</time>
      </trkpt>
      <trkpt lat="43.97251" lon="5.11739">
        <ele>355.8</ele>
        <time>2013-02-18T12:32:23.000Z</time>
      </trkpt>
      <trkpt lat="43.97253" lon="5.11743">
        <ele>352.1</ele>
        <time>2013-02-18T12:32:26.000Z</time>
      </trkpt>
      <trkpt lat="43.97254" lon="5.11745">
        <ele>352.6</ele>
        <time>2013-02-18T12:32:27.000Z</time>
      </trkpt>
      <trkpt lat="43.97256" lon="5.11747">
        <ele>353</ele>
        <time>2013-02-18T12:32:29.000Z</time>
      </trkpt>
      <trkpt lat="43.97257" lon="5.1175">
        <ele>354.3</ele>
        <time>2013-02-18T12:32:30.000Z</time>
      </trkpt>
      <trkpt lat="43.97259" lon="5.11753">
        <ele>354.9</ele>
        <time>2013-02-18T12:32:31.000Z</time>
      </trkpt>
      <trkpt lat="43.97262" lon="5.11757">
        <ele>354.9</ele>
        <time>2013-02-18T12:32:32.000Z</time>
      </trkpt>
      <trkpt lat="43.97265" lon="5.11762">
        <ele>355.3</ele>
        <time>2013-02-18T12:32:34.000Z</time>
      </trkpt>
      <trkpt lat="43.97266" lon="5.11764">
        <ele>355.7</ele>
        <time>2013-02-18T12:32:35.000Z</time>
      </trkpt>
      <trkpt lat="43.97268" lon="5.11769">
        <ele>354.6</ele>
        <time>2013-02-18T12:32:38.000Z</time>
      </trkpt>
      <trkpt lat="43.97268" lon="5.11771">
        <ele>354.4</ele>
        <time>2013-02-18T12:32:39.000Z</time>
      </trkpt>
      <trkpt lat="43.9727" lon="5.11773">
        <ele>354.4</ele>
        <time>2013-02-18T12:32:42.000Z</time>
      </trkpt>
      <trkpt lat="43.97272" lon="5.11776">
        <ele>353.3</ele>
        <time>2013-02-18T12:32:43.000Z</time>
      </trkpt>
      <trkpt lat="43.97276" lon="5.11776">
        <ele>352.4</ele>
        <time>2013-02-18T12:32:45.000Z</time>
      </trkpt>
      <trkpt lat="43.97277" lon="5.11777">
        <ele>352.4</ele>
        <time>2013-02-18T12:32:46.000Z</time>
      </trkpt>
      <trkpt lat="43.9728" lon="5.11777">
        <ele>351.7</ele>
        <time>2013-02-18T12:32:48.000Z</time>
      </trkpt>
      <trkpt lat="43.97282" lon="5.11777">
        <ele>351.9</ele>
        <time>2013-02-18T12:32:49.000Z</time>
      </trkpt>
      <trkpt lat="43.97284" lon="5.11779">
        <ele>352.1</ele>
        <time>2013-02-18T12:32:51.000Z</time>
      </trkpt>
      <trkpt lat="43.97286" lon="5.1178">
        <ele>351.7</ele>
        <time>2013-02-18T12:32:52.000Z</time>
      </trkpt>
      <trkpt lat="43.97289" lon="5.11782">
        <ele>351.3</ele>
        <time>2013-02-18T12:32:55.000Z</time>
      </trkpt>
      <trkpt lat="43.9729" lon="5.11783">
        <ele>350.9</ele>
        <time>2013-02-18T12:32:56.000Z</time>
      </trkpt>
      <trkpt lat="43.97293" lon="5.11786">
        <ele>351.4</ele>
        <time>2013-02-18T12:32:58.000Z</time>
      </trkpt>
      <trkpt lat="43.97294" lon="5.11787">
        <ele>351.5</ele>
        <time>2013-02-18T12:32:59.000Z</time>
      </trkpt>
      <trkpt lat="43.97296" lon="5.1179">
        <ele>351.7</ele>
        <time>2013-02-18T12:33:01.000Z</time>
      </trkpt>
      <trkpt lat="43.97298" lon="5.11791">
        <ele>351.9</ele>
        <time>2013-02-18T12:33:02.000Z</time>
      </trkpt>
      <trkpt lat="43.97301" lon="5.11795">
        <ele>352.3</ele>
        <time>2013-02-18T12:33:05.000Z</time>
      </trkpt>
      <trkpt lat="43.97302" lon="5.11796">
        <ele>352.6</ele>
        <time>2013-02-18T12:33:06.000Z</time>
      </trkpt>
      <trkpt lat="43.97305" lon="5.11799">
        <ele>352</ele>
        <time>2013-02-18T12:33:09.000Z</time>
      </trkpt>
      <trkpt lat="43.97307" lon="5.11799">
        <ele>351.6</ele>
        <time>2013-02-18T12:33:10.000Z</time>
      </trkpt>
      <trkpt lat="43.9731" lon="5.11801">
        <ele>353.1</ele>
        <time>2013-02-18T12:33:13.000Z</time>
      </trkpt>
      <trkpt lat="43.97312" lon="5.11801">
        <ele>353.8</ele>
        <time>2013-02-18T12:33:14.000Z</time>
      </trkpt>
      <trkpt lat="43.97315" lon="5.11804">
        <ele>354.4</ele>
        <time>2013-02-18T12:33:17.000Z</time>
      </trkpt>
      <trkpt lat="43.97316" lon="5.11805">
        <ele>354.8</ele>
        <time>2013-02-18T12:33:18.000Z</time>
      </trkpt>
      <trkpt lat="43.97318" lon="5.11808">
        <ele>355.1</ele>
        <time>2013-02-18T12:33:20.000Z</time>
      </trkpt>
      <trkpt lat="43.9732" lon="5.11809">
        <ele>355.8</ele>
        <time>2013-02-18T12:33:21.000Z</time>
      </trkpt>
      <trkpt lat="43.97322" lon="5.11813">
        <ele>356.6</ele>
        <time>2013-02-18T12:33:24.000Z</time>
      </trkpt>
      <trkpt lat="43.97323" lon="5.11815">
        <ele>357.7</ele>
        <time>2013-02-18T12:33:25.000Z</time>
      </trkpt>
      <trkpt lat="43.97325" lon="5.1182">
        <ele>358.5</ele>
        <time>2013-02-18T12:33:47.000Z</time>
      </trkpt>
      <trkpt lat="43.97325" lon="5.11822">
        <ele>359.2</ele>
        <time>2013-02-18T12:33:48.000Z</time>
      </trkpt>
      <trkpt lat="43.97328" lon="5.11825">
        <ele>359.4</ele>
        <time>2013-02-18T12:33:58.000Z</time>
      </trkpt>
      <trkpt lat="43.97328" lon="5.11826">
        <ele>359</ele>
        <time>2013-02-18T12:33:59.000Z</time>
      </trkpt>
      <trkpt lat="43.97328" lon="5.11831">
        <ele>362.2</ele>
        <time>2013-02-18T12:34:07.000Z</time>
      </trkpt>
      <trkpt lat="43.97328" lon="5.11832">
        <ele>362.4</ele>
        <time>2013-02-18T12:34:08.000Z</time>
      </trkpt>
      <trkpt lat="43.97326" lon="5.11837">
        <ele>365.1</ele>
        <time>2013-02-18T12:34:22.000Z</time>
      </trkpt>
      <trkpt lat="43.97326" lon="5.11839">
        <ele>365.8</ele>
        <time>2013-02-18T12:34:23.000Z</time>
      </trkpt>
      <trkpt lat="43.97328" lon="5.11834">
        <ele>369.6</ele>
        <time>2013-02-18T12:34:50.000Z</time>
      </trkpt>
      <trkpt lat="43.97328" lon="5.11833">
        <ele>369.2</ele>
        <time>2013-02-18T12:34:51.000Z</time>
      </trkpt>
      <trkpt lat="43.97332" lon="5.1183">
        <ele>371.1</ele>
        <time>2013-02-18T12:34:59.000Z</time>
      </trkpt>
      <trkpt lat="43.97333" lon="5.11831">
        <ele>370.8</ele>
        <time>2013-02-18T12:35:00.000Z</time>
      </trkpt>
      <trkpt lat="43.97337" lon="5.1183">
        <ele>371</ele>
        <time>2013-02-18T12:35:03.000Z</time>
      </trkpt>
      <trkpt lat="43.97339" lon="5.1183">
        <ele>371.8</ele>
        <time>2013-02-18T12:35:04.000Z</time>
      </trkpt>
      <trkpt lat="43.97342" lon="5.11829">
        <ele>373.6</ele>
        <time>2013-02-18T12:35:09.000Z</time>
      </trkpt>
      <trkpt lat="43.97343" lon="5.11828">
        <ele>374.6</ele>
        <time>2013-02-18T12:35:10.000Z</time>
      </trkpt>
      <trkpt lat="43.97347" lon="5.11825">
        <ele>376.3</ele>
        <time>2013-02-18T12:35:14.000Z</time>
      </trkpt>
      <trkpt lat="43.97348" lon="5.11826">
        <ele>376.1</ele>
        <time>2013-02-18T12:35:15.000Z</time>
      </trkpt>
      <trkpt lat="43.97351" lon="5.11825">
        <ele>376.9</ele>
        <time>2013-02-18T12:35:19.000Z</time>
      </trkpt>
      <trkpt lat="43.97353" lon="5.11824">
        <ele>376.2</ele>
        <time>2013-02-18T12:35:20.000Z</time>
      </trkpt>
      <trkpt lat="43.97355" lon="5.1182">
        <ele>376.4</ele>
        <time>2013-02-18T12:35:23.000Z</time>
      </trkpt>
      <trkpt lat="43.97357" lon="5.11819">
        <ele>376</ele>
        <time>2013-02-18T12:35:24.000Z</time>
      </trkpt>
      <trkpt lat="43.9736" lon="5.11817">
        <ele>374.2</ele>
        <time>2013-02-18T12:35:26.000Z</time>
      </trkpt>
      <trkpt lat="43.97362" lon="5.11816">
        <ele>374</ele>
        <time>2013-02-18T12:35:27.000Z</time>
      </trkpt>
      <trkpt lat="43.97365" lon="5.11815">
        <ele>373.8</ele>
        <time>2013-02-18T12:35:29.000Z</time>
      </trkpt>
      <trkpt lat="43.97366" lon="5.11814">
        <ele>373.9</ele>
        <time>2013-02-18T12:35:30.000Z</time>
      </trkpt>
      <trkpt lat="43.9737" lon="5.11811">
        <ele>375.1</ele>
        <time>2013-02-18T12:35:33.000Z</time>
      </trkpt>
      <trkpt lat="43.9737" lon="5.1181">
        <ele>376.4</ele>
        <time>2013-02-18T12:35:34.000Z</time>
      </trkpt>
      <trkpt lat="43.97374" lon="5.11811">
        <ele>379.2</ele>
        <time>2013-02-18T12:35:40.000Z</time>
      </trkpt>
      <trkpt lat="43.97377" lon="5.11807">
        <ele>377</ele>
        <time>2013-02-18T12:35:41.000Z</time>
      </trkpt>
      <trkpt lat="43.97379" lon="5.11803">
        <ele>376.1</ele>
        <time>2013-02-18T12:35:44.000Z</time>
      </trkpt>
      <trkpt lat="43.9738" lon="5.11801">
        <ele>376.3</ele>
        <time>2013-02-18T12:35:45.000Z</time>
      </trkpt>
      <trkpt lat="43.9738" lon="5.11795">
        <ele>373.2</ele>
        <time>2013-02-18T12:35:55.000Z</time>
      </trkpt>
      <trkpt lat="43.97379" lon="5.11794">
        <ele>373.7</ele>
        <time>2013-02-18T12:35:56.000Z</time>
      </trkpt>
      <trkpt lat="43.97382" lon="5.11791">
        <ele>375.3</ele>
        <time>2013-02-18T12:36:07.000Z</time>
      </trkpt>
      <trkpt lat="43.97384" lon="5.11791">
        <ele>375.2</ele>
        <time>2013-02-18T12:36:08.000Z</time>
      </trkpt>
      <trkpt lat="43.97386" lon="5.1179">
        <ele>374.6</ele>
        <time>2013-02-18T12:36:10.000Z</time>
      </trkpt>
      <trkpt lat="43.97378" lon="5.11788">
        <ele>374.6</ele>
        <time>2013-02-18T12:36:11.000Z</time>
      </trkpt>
      <trkpt lat="43.97382" lon="5.11788">
        <ele>374.8</ele>
        <time>2013-02-18T12:36:14.000Z</time>
      </trkpt>
      <trkpt lat="43.97383" lon="5.11788">
        <ele>374.6</ele>
        <time>2013-02-18T12:36:15.000Z</time>
      </trkpt>
      <trkpt lat="43.97379" lon="5.1179">
        <ele>373.3</ele>
        <time>2013-02-18T12:36:18.000Z</time>
      </trkpt>
      <trkpt lat="43.97374" lon="5.1179">
        <ele>370.8</ele>
        <time>2013-02-18T12:36:19.000Z</time>
      </trkpt>
      <trkpt lat="43.97373" lon="5.11792">
        <ele>371.6</ele>
        <time>2013-02-18T12:36:20.000Z</time>
      </trkpt>
      <trkpt lat="43.97376" lon="5.11799">
        <ele>371.1</ele>
        <time>2013-02-18T12:36:21.000Z</time>
      </trkpt>
      <trkpt lat="43.97378" lon="5.11804">
        <ele>370.4</ele>
        <time>2013-02-18T12:36:31.000Z</time>
      </trkpt>
      <trkpt lat="43.97378" lon="5.11805">
        <ele>369.5</ele>
        <time>2013-02-18T12:36:32.000Z</time>
      </trkpt>
      <trkpt lat="43.97383" lon="5.11806">
        <ele>367.2</ele>
        <time>2013-02-18T12:36:45.000Z</time>
      </trkpt>
      <trkpt lat="43.97383" lon="5.11803">
        <ele>367.2</ele>
        <time>2013-02-18T12:36:46.000Z</time>
      </trkpt>
      <trkpt lat="43.97386" lon="5.11799">
        <ele>365.4</ele>
        <time>2013-02-18T12:36:56.000Z</time>
      </trkpt>
      <trkpt lat="43.97386" lon="5.11799">
        <ele>365.3</ele>
        <time>2013-02-18T12:36:57.000Z</time>
      </trkpt>
      <trkpt lat="43.97387" lon="5.11805">
        <ele>373.2</ele>
        <time>2013-02-18T12:37:07.000Z</time>
      </trkpt>
      <trkpt lat="43.97387" lon="5.11806">
        <ele>373.7</ele>
        <time>2013-02-18T12:37:08.000Z</time>
      </trkpt>
      <trkpt lat="43.97383" lon="5.11809">
        <ele>372.9</ele>
        <time>2013-02-18T12:37:10.000Z</time>
      </trkpt>
      <trkpt lat="43.97382" lon="5.11809">
        <ele>373.1</ele>
        <time>2013-02-18T12:37:11.000Z</time>
      </trkpt>
      <trkpt lat="43.97382" lon="5.11803">
        <ele>377.4</ele>
        <time>2013-02-18T12:37:38.000Z</time>
      </trkpt>
      <trkpt lat="43.97383" lon="5.11802">
        <ele>377.3</ele>
        <time>2013-02-18T12:37:39.000Z</time>
      </trkpt>
      <trkpt lat="43.97386" lon="5.11804">
        <ele>377.1</ele>
        <time>2013-02-18T12:37:49.000Z</time>
      </trkpt>
      <trkpt lat="43.97387" lon="5.11804">
        <ele>377.3</ele>
        <time>2013-02-18T12:37:50.000Z</time>
      </trkpt>
      <trkpt lat="43.9739" lon="5.11806">
        <ele>376.5</ele>
        <time>2013-02-18T12:37:59.000Z</time>
      </trkpt>
      <trkpt lat="43.9739" lon="5.1181">
        <ele>376.3</ele>
        <time>2013-02-18T12:38:00.000Z</time>
      </trkpt>
      <trkpt lat="43.97386" lon="5.11807">
        <ele>375.3</ele>
        <time>2013-02-18T12:38:13.000Z</time>
      </trkpt>
      <trkpt lat="43.97385" lon="5.11808">
        <ele>375</ele>
        <time>2013-02-18T12:38:14.000Z</time>
      </trkpt>
      <trkpt lat="43.97384" lon="5.11803">
        <ele>373.4</ele>
        <time>2013-02-18T12:38:19.000Z</time>
      </trkpt>
      <trkpt lat="43.97384" lon="5.11801">
        <ele>373.6</ele>
        <time>2013-02-18T12:38:20.000Z</time>
      </trkpt>
      <trkpt lat="43.97383" lon="5.11807">
        <ele>373.5</ele>
        <time>2013-02-18T12:38:30.000Z</time>
      </trkpt>
      <trkpt lat="43.97384" lon="5.11808">
        <ele>373.5</ele>
        <time>2013-02-18T12:38:31.000Z</time>
      </trkpt>
      <trkpt lat="43.9738" lon="5.11809">
        <ele>371.7</ele>
        <time>2013-02-18T12:38:33.000Z</time>
      </trkpt>
      <trkpt lat="43.97373" lon="5.1181">
        <ele>373.1</ele>
        <time>2013-02-18T12:38:34.000Z</time>
      </trkpt>
      <trkpt lat="43.97369" lon="5.11804">
        <ele>380.2</ele>
        <time>2013-02-18T12:38:35.000Z</time>
      </trkpt>
      <trkpt lat="43.97358" lon="5.1179">
        <ele>390.1</ele>
        <time>2013-02-18T12:38:36.000Z</time>
      </trkpt>
      <trkpt lat="43.97358" lon="5.11785">
        <ele>391.7</ele>
        <time>2013-02-18T12:38:37.000Z</time>
      </trkpt>
      <trkpt lat="43.97362" lon="5.11783">
        <ele>392.4</ele>
        <time>2013-02-18T12:38:38.000Z</time>
      </trkpt>
      <trkpt lat="43.97373" lon="5.11797">
        <ele>390.7</ele>
        <time>2013-02-18T12:38:39.000Z</time>
      </trkpt>
      <trkpt lat="43.97377" lon="5.11798">
        <ele>390.7</ele>
        <time>2013-02-18T12:38:40.000Z</time>
      </trkpt>
      <trkpt lat="43.9738" lon="5.118">
        <ele>391.2</ele>
        <time>2013-02-18T12:38:41.000Z</time>
      </trkpt>
      <trkpt lat="43.97381" lon="5.11806">
        <ele>391.5</ele>
        <time>2013-02-18T12:38:42.000Z</time>
      </trkpt>
      <trkpt lat="43.97382" lon="5.11808">
        <ele>391.4</ele>
        <time>2013-02-18T12:38:43.000Z</time>
      </trkpt>
      <trkpt lat="43.97381" lon="5.11814">
        <ele>389.6</ele>
        <time>2013-02-18T12:38:55.000Z</time>
      </trkpt>
      <trkpt lat="43.97381" lon="5.11815">
        <ele>389.5</ele>
        <time>2013-02-18T12:38:56.000Z</time>
      </trkpt>
      <trkpt lat="43.97384" lon="5.11813">
        <ele>391.6</ele>
        <time>2013-02-18T12:39:12.000Z</time>
      </trkpt>
      <trkpt lat="43.97385" lon="5.11813">
        <ele>392.8</ele>
        <time>2013-02-18T12:39:13.000Z</time>
      </trkpt>
      <trkpt lat="43.97389" lon="5.11815">
        <ele>392.5</ele>
        <time>2013-02-18T12:39:16.000Z</time>
      </trkpt>
      <trkpt lat="43.9739" lon="5.11815">
        <ele>392.2</ele>
        <time>2013-02-18T12:39:17.000Z</time>
      </trkpt>
      <trkpt lat="43.97391" lon="5.11821">
        <ele>390.9</ele>
        <time>2013-02-18T12:39:21.000Z</time>
      </trkpt>
      <trkpt lat="43.97391" lon="5.11822">
        <ele>390.7</ele>
        <time>2013-02-18T12:39:22.000Z</time>
      </trkpt>
      <trkpt lat="43.9739" lon="5.11827">
        <ele>390.5</ele>
        <time>2013-02-18T12:39:28.000Z</time>
      </trkpt>
      <trkpt lat="43.9739" lon="5.11829">
        <ele>390.6</ele>
        <time>2013-02-18T12:39:29.000Z</time>
      </trkpt>
      <trkpt lat="43.97391" lon="5.11834">
        <ele>391</ele>
        <time>2013-02-18T12:39:37.000Z</time>
      </trkpt>
      <trkpt lat="43.97392" lon="5.11837">
        <ele>390.3</ele>
        <time>2013-02-18T12:39:38.000Z</time>
      </trkpt>
      <trkpt lat="43.97389" lon="5.11836">
        <ele>390.3</ele>
        <time>2013-02-18T12:39:39.000Z</time>
      </trkpt>
      <trkpt lat="43.97387" lon="5.11837">
        <ele>389.2</ele>
        <time>2013-02-18T12:39:40.000Z</time>
      </trkpt>
      <trkpt lat="43.97384" lon="5.11841">
        <ele>387.4</ele>
        <time>2013-02-18T12:39:47.000Z</time>
      </trkpt>
      <trkpt lat="43.97384" lon="5.11844">
        <ele>385.2</ele>
        <time>2013-02-18T12:39:48.000Z</time>
      </trkpt>
      <trkpt lat="43.97383" lon="5.11838">
        <ele>379.8</ele>
        <time>2013-02-18T12:40:01.000Z</time>
      </trkpt>
      <trkpt lat="43.97383" lon="5.11837">
        <ele>379.3</ele>
        <time>2013-02-18T12:40:02.000Z</time>
      </trkpt>
      <trkpt lat="43.97386" lon="5.11835">
        <ele>377.9</ele>
        <time>2013-02-18T12:40:06.000Z</time>
      </trkpt>
      <trkpt lat="43.97387" lon="5.11835">
        <ele>377.5</ele>
        <time>2013-02-18T12:40:07.000Z</time>
      </trkpt>
      <trkpt lat="43.9739" lon="5.11832">
        <ele>373.6</ele>
        <time>2013-02-18T12:40:09.000Z</time>
      </trkpt>
      <trkpt lat="43.97391" lon="5.11831">
        <ele>372.9</ele>
        <time>2013-02-18T12:40:10.000Z</time>
      </trkpt>
      <trkpt lat="43.97394" lon="5.11827">
        <ele>369.6</ele>
        <time>2013-02-18T12:40:14.000Z</time>
      </trkpt>
      <trkpt lat="43.97394" lon="5.11826">
        <ele>368.7</ele>
        <time>2013-02-18T12:40:15.000Z</time>
      </trkpt>
      <trkpt lat="43.97394" lon="5.1182">
        <ele>368.9</ele>
        <time>2013-02-18T12:40:17.000Z</time>
      </trkpt>
      <trkpt lat="43.97394" lon="5.11818">
        <ele>368.3</ele>
        <time>2013-02-18T12:40:18.000Z</time>
      </trkpt>
      <trkpt lat="43.97394" lon="5.11813">
        <ele>372.5</ele>
        <time>2013-02-18T12:40:26.000Z</time>
      </trkpt>
      <trkpt lat="43.97395" lon="5.11811">
        <ele>374</ele>
        <time>2013-02-18T12:40:27.000Z</time>
      </trkpt>
      <trkpt lat="43.97396" lon="5.11805">
        <ele>376</ele>
        <time>2013-02-18T12:40:31.000Z</time>
      </trkpt>
      <trkpt lat="43.97397" lon="5.11804">
        <ele>376.2</ele>
        <time>2013-02-18T12:40:32.000Z</time>
      </trkpt>
      <trkpt lat="43.97396" lon="5.11798">
        <ele>378.8</ele>
        <time>2013-02-18T12:40:37.000Z</time>
      </trkpt>
      <trkpt lat="43.97397" lon="5.11797">
        <ele>378.4</ele>
        <time>2013-02-18T12:40:38.000Z</time>
      </trkpt>
      <trkpt lat="43.974" lon="5.11794">
        <ele>379.1</ele>
        <time>2013-02-18T12:40:42.000Z</time>
      </trkpt>
      <trkpt lat="43.97401" lon="5.11792">
        <ele>379.7</ele>
        <time>2013-02-18T12:40:43.000Z</time>
      </trkpt>
      <trkpt lat="43.97404" lon="5.11789">
        <ele>378.1</ele>
        <time>2013-02-18T12:40:48.000Z</time>
      </trkpt>
      <trkpt lat="43.97405" lon="5.11789">
        <ele>377.8</ele>
        <time>2013-02-18T12:40:49.000Z</time>
      </trkpt>
      <trkpt lat="43.97407" lon="5.11784">
        <ele>378.6</ele>
        <time>2013-02-18T12:40:52.000Z</time>
      </trkpt>
      <trkpt lat="43.97408" lon="5.11782">
        <ele>378</ele>
        <time>2013-02-18T12:40:53.000Z</time>
      </trkpt>
      <trkpt lat="43.97411" lon="5.1178">
        <ele>377.4</ele>
        <time>2013-02-18T12:40:58.000Z</time>
      </trkpt>
      <trkpt lat="43.97412" lon="5.11779">
        <ele>377</ele>
        <time>2013-02-18T12:40:59.000Z</time>
      </trkpt>
      <trkpt lat="43.97413" lon="5.11773">
        <ele>378.5</ele>
        <time>2013-02-18T12:41:03.000Z</time>
      </trkpt>
      <trkpt lat="43.97414" lon="5.11771">
        <ele>378.2</ele>
        <time>2013-02-18T12:41:04.000Z</time>
      </trkpt>
      <trkpt lat="43.97415" lon="5.11767">
        <ele>377.4</ele>
        <time>2013-02-18T12:41:07.000Z</time>
      </trkpt>
      <trkpt lat="43.97415" lon="5.11764">
        <ele>377.5</ele>
        <time>2013-02-18T12:41:08.000Z</time>
      </trkpt>
      <trkpt lat="43.97415" lon="5.1176">
        <ele>377.6</ele>
        <time>2013-02-18T12:41:11.000Z</time>
      </trkpt>
      <trkpt lat="43.97416" lon="5.11758">
        <ele>378.3</ele>
        <time>2013-02-18T12:41:12.000Z</time>
      </trkpt>
      <trkpt lat="43.97419" lon="5.11754">
        <ele>377.7</ele>
        <time>2013-02-18T12:41:15.000Z</time>
      </trkpt>
      <trkpt lat="43.97418" lon="5.11752">
        <ele>377.7</ele>
        <time>2013-02-18T12:41:16.000Z</time>
      </trkpt>
      <trkpt lat="43.9742" lon="5.11758">
        <ele>375.9</ele>
        <time>2013-02-18T12:44:08.000Z</time>
      </trkpt>
      <trkpt lat="43.9742" lon="5.11758">
        <ele>375.9</ele>
        <time>2013-02-18T12:44:09.000Z</time>
      </trkpt>
      <trkpt lat="43.9742" lon="5.11761">
        <ele>375</ele>
        <time>2013-02-18T12:44:10.000Z</time>
      </trkpt>
      <trkpt lat="43.97418" lon="5.11765">
        <ele>376</ele>
        <time>2013-02-18T12:44:11.000Z</time>
      </trkpt>
      <trkpt lat="43.97416" lon="5.1177">
        <ele>376.9</ele>
        <time>2013-02-18T12:44:13.000Z</time>
      </trkpt>
      <trkpt lat="43.97414" lon="5.11772">
        <ele>377.7</ele>
        <time>2013-02-18T12:44:14.000Z</time>
      </trkpt>
      <trkpt lat="43.97412" lon="5.11776">
        <ele>379.5</ele>
        <time>2013-02-18T12:44:18.000Z</time>
      </trkpt>
      <trkpt lat="43.97412" lon="5.11778">
        <ele>378.9</ele>
        <time>2013-02-18T12:44:19.000Z</time>
      </trkpt>
      <trkpt lat="43.97409" lon="5.11777">
        <ele>376</ele>
        <time>2013-02-18T12:44:22.000Z</time>
      </trkpt>
      <trkpt lat="43.97408" lon="5.11781">
        <ele>377.6</ele>
        <time>2013-02-18T12:44:23.000Z</time>
      </trkpt>
      <trkpt lat="43.97405" lon="5.11786">
        <ele>377</ele>
        <time>2013-02-18T12:44:47.000Z</time>
      </trkpt>
      <trkpt lat="43.97405" lon="5.11787">
        <ele>377</ele>
        <time>2013-02-18T12:44:48.000Z</time>
      </trkpt>
      <trkpt lat="43.97406" lon="5.11788">
        <ele>376.5</ele>
        <time>2013-02-18T12:46:19.000Z</time>
      </trkpt>
      <trkpt lat="43.97405" lon="5.11796">
        <ele>375.9</ele>
        <time>2013-02-18T12:46:20.000Z</time>
      </trkpt>
      <trkpt lat="43.97402" lon="5.118">
        <ele>379</ele>
        <time>2013-02-18T12:46:21.000Z</time>
      </trkpt>
      <trkpt lat="43.97401" lon="5.11801">
        <ele>377.8</ele>
        <time>2013-02-18T12:46:22.000Z</time>
      </trkpt>
      <trkpt lat="43.97399" lon="5.11807">
        <ele>377.8</ele>
        <time>2013-02-18T12:46:26.000Z</time>
      </trkpt>
      <trkpt lat="43.97398" lon="5.11808">
        <ele>376.7</ele>
        <time>2013-02-18T12:46:27.000Z</time>
      </trkpt>
      <trkpt lat="43.97398" lon="5.11814">
        <ele>375.5</ele>
        <time>2013-02-18T12:46:30.000Z</time>
      </trkpt>
      <trkpt lat="43.97398" lon="5.11816">
        <ele>377.3</ele>
        <time>2013-02-18T12:46:31.000Z</time>
      </trkpt>
      <trkpt lat="43.97396" lon="5.11821">
        <ele>376</ele>
        <time>2013-02-18T12:46:34.000Z</time>
      </trkpt>
      <trkpt lat="43.97396" lon="5.11823">
        <ele>375.9</ele>
        <time>2013-02-18T12:46:35.000Z</time>
      </trkpt>
      <trkpt lat="43.97394" lon="5.11828">
        <ele>380.4</ele>
        <time>2013-02-18T12:46:40.000Z</time>
      </trkpt>
      <trkpt lat="43.97394" lon="5.1183">
        <ele>380.5</ele>
        <time>2013-02-18T12:46:41.000Z</time>
      </trkpt>
      <trkpt lat="43.9739" lon="5.11832">
        <ele>381.1</ele>
        <time>2013-02-18T12:46:44.000Z</time>
      </trkpt>
      <trkpt lat="43.9739" lon="5.11834">
        <ele>380.2</ele>
        <time>2013-02-18T12:46:45.000Z</time>
      </trkpt>
      <trkpt lat="43.97387" lon="5.11839">
        <ele>381.6</ele>
        <time>2013-02-18T12:46:51.000Z</time>
      </trkpt>
      <trkpt lat="43.97386" lon="5.11841">
        <ele>382</ele>
        <time>2013-02-18T12:46:53.000Z</time>
      </trkpt>
      <trkpt lat="43.9739" lon="5.11842">
        <ele>381.1</ele>
        <time>2013-02-18T12:47:18.000Z</time>
      </trkpt>
      <trkpt lat="43.97391" lon="5.11841">
        <ele>380.7</ele>
        <time>2013-02-18T12:47:19.000Z</time>
      </trkpt>
      <trkpt lat="43.97394" lon="5.11839">
        <ele>381.1</ele>
        <time>2013-02-18T12:47:31.000Z</time>
      </trkpt>
      <trkpt lat="43.97395" lon="5.11839">
        <ele>380.9</ele>
        <time>2013-02-18T12:47:32.000Z</time>
      </trkpt>
      <trkpt lat="43.97399" lon="5.11836">
        <ele>381.9</ele>
        <time>2013-02-18T12:47:37.000Z</time>
      </trkpt>
      <trkpt lat="43.974" lon="5.11836">
        <ele>382.4</ele>
        <time>2013-02-18T12:47:38.000Z</time>
      </trkpt>
      <trkpt lat="43.97403" lon="5.11834">
        <ele>383.1</ele>
        <time>2013-02-18T12:47:44.000Z</time>
      </trkpt>
      <trkpt lat="43.97404" lon="5.11833">
        <ele>382.6</ele>
        <time>2013-02-18T12:47:45.000Z</time>
      </trkpt>
      <trkpt lat="43.97407" lon="5.1183">
        <ele>383.1</ele>
        <time>2013-02-18T12:47:51.000Z</time>
      </trkpt>
      <trkpt lat="43.97408" lon="5.11829">
        <ele>383.6</ele>
        <time>2013-02-18T12:47:53.000Z</time>
      </trkpt>
      <trkpt lat="43.97408" lon="5.11825">
        <ele>381.1</ele>
        <time>2013-02-18T12:48:06.000Z</time>
      </trkpt>
      <trkpt lat="43.97406" lon="5.11823">
        <ele>384.2</ele>
        <time>2013-02-18T12:48:07.000Z</time>
      </trkpt>
      <trkpt lat="43.97405" lon="5.11817">
        <ele>383.6</ele>
        <time>2013-02-18T12:48:10.000Z</time>
      </trkpt>
      <trkpt lat="43.97404" lon="5.11816">
        <ele>384</ele>
        <time>2013-02-18T12:48:11.000Z</time>
      </trkpt>
      <trkpt lat="43.97407" lon="5.11812">
        <ele>386.4</ele>
        <time>2013-02-18T12:48:20.000Z</time>
      </trkpt>
      <trkpt lat="43.97407" lon="5.1181">
        <ele>386.6</ele>
        <time>2013-02-18T12:48:21.000Z</time>
      </trkpt>
      <trkpt lat="43.9741" lon="5.11809">
        <ele>384.4</ele>
        <time>2013-02-18T12:48:22.000Z</time>
      </trkpt>
      <trkpt lat="43.97412" lon="5.11807">
        <ele>384</ele>
        <time>2013-02-18T12:48:23.000Z</time>
      </trkpt>
      <trkpt lat="43.97413" lon="5.11802">
        <ele>385.4</ele>
        <time>2013-02-18T12:48:48.000Z</time>
      </trkpt>
      <trkpt lat="43.97415" lon="5.118">
        <ele>384</ele>
        <time>2013-02-18T12:48:49.000Z</time>
      </trkpt>
      <trkpt lat="43.97418" lon="5.118">
        <ele>382.9</ele>
        <time>2013-02-18T12:48:52.000Z</time>
      </trkpt>
      <trkpt lat="43.9742" lon="5.11799">
        <ele>382.5</ele>
        <time>2013-02-18T12:48:53.000Z</time>
      </trkpt>
      <trkpt lat="43.97423" lon="5.11796">
        <ele>383.1</ele>
        <time>2013-02-18T12:49:01.000Z</time>
      </trkpt>
      <trkpt lat="43.97424" lon="5.11794">
        <ele>382.9</ele>
        <time>2013-02-18T12:49:02.000Z</time>
      </trkpt>
      <trkpt lat="43.97426" lon="5.11791">
        <ele>383.2</ele>
        <time>2013-02-18T12:49:04.000Z</time>
      </trkpt>
      <trkpt lat="43.97427" lon="5.11789">
        <ele>383</ele>
        <time>2013-02-18T12:49:05.000Z</time>
      </trkpt>
      <trkpt lat="43.97429" lon="5.11785">
        <ele>384.2</ele>
        <time>2013-02-18T12:49:07.000Z</time>
      </trkpt>
      <trkpt lat="43.97429" lon="5.11784">
        <ele>384.5</ele>
        <time>2013-02-18T12:49:08.000Z</time>
      </trkpt>
      <trkpt lat="43.9743" lon="5.11778">
        <ele>385</ele>
        <time>2013-02-18T12:49:11.000Z</time>
      </trkpt>
      <trkpt lat="43.9743" lon="5.11776">
        <ele>385.3</ele>
        <time>2013-02-18T12:49:12.000Z</time>
      </trkpt>
      <trkpt lat="43.97431" lon="5.11772">
        <ele>385.3</ele>
        <time>2013-02-18T12:49:13.000Z</time>
      </trkpt>
      <trkpt lat="43.97432" lon="5.11769">
        <ele>384.7</ele>
        <time>2013-02-18T12:49:14.000Z</time>
      </trkpt>
      <trkpt lat="43.9743" lon="5.11774">
        <ele>388.3</ele>
        <time>2013-02-18T12:49:40.000Z</time>
      </trkpt>
      <trkpt lat="43.9743" lon="5.11776">
        <ele>388.4</ele>
        <time>2013-02-18T12:49:41.000Z</time>
      </trkpt>
      <trkpt lat="43.97429" lon="5.11782">
        <ele>389.2</ele>
        <time>2013-02-18T12:49:47.000Z</time>
      </trkpt>
      <trkpt lat="43.97429" lon="5.11785">
        <ele>389.4</ele>
        <time>2013-02-18T12:49:48.000Z</time>
      </trkpt>
      <trkpt lat="43.97427" lon="5.1179">
        <ele>399.7</ele>
        <time>2013-02-18T12:49:53.000Z</time>
      </trkpt>
      <trkpt lat="43.97428" lon="5.11792">
        <ele>399.5</ele>
        <time>2013-02-18T12:49:54.000Z</time>
      </trkpt>
      <trkpt lat="43.97431" lon="5.11796">
        <ele>396.5</ele>
        <time>2013-02-18T12:50:01.000Z</time>
      </trkpt>
      <trkpt lat="43.97433" lon="5.11795">
        <ele>397.2</ele>
        <time>2013-02-18T12:50:02.000Z</time>
      </trkpt>
      <trkpt lat="43.97436" lon="5.11794">
        <ele>394.9</ele>
        <time>2013-02-18T12:50:05.000Z</time>
      </trkpt>
      <trkpt lat="43.97437" lon="5.11796">
        <ele>394.8</ele>
        <time>2013-02-18T12:50:06.000Z</time>
      </trkpt>
      <trkpt lat="43.97438" lon="5.11801">
        <ele>393.1</ele>
        <time>2013-02-18T12:50:11.000Z</time>
      </trkpt>
      <trkpt lat="43.97439" lon="5.11802">
        <ele>393.3</ele>
        <time>2013-02-18T12:50:12.000Z</time>
      </trkpt>
      <trkpt lat="43.97442" lon="5.11804">
        <ele>394.3</ele>
        <time>2013-02-18T12:50:16.000Z</time>
      </trkpt>
      <trkpt lat="43.97443" lon="5.11805">
        <ele>393.9</ele>
        <time>2013-02-18T12:50:17.000Z</time>
      </trkpt>
      <trkpt lat="43.97447" lon="5.11806">
        <ele>392.5</ele>
        <time>2013-02-18T12:50:20.000Z</time>
      </trkpt>
      <trkpt lat="43.97448" lon="5.11805">
        <ele>392.3</ele>
        <time>2013-02-18T12:50:21.000Z</time>
      </trkpt>
      <trkpt lat="43.97451" lon="5.11809">
        <ele>393</ele>
        <time>2013-02-18T12:50:23.000Z</time>
      </trkpt>
      <trkpt lat="43.97452" lon="5.1181">
        <ele>393.4</ele>
        <time>2013-02-18T12:50:24.000Z</time>
      </trkpt>
      <trkpt lat="43.97452" lon="5.11814">
        <ele>393.9</ele>
        <time>2013-02-18T12:50:26.000Z</time>
      </trkpt>
      <trkpt lat="43.97452" lon="5.11816">
        <ele>393.5</ele>
        <time>2013-02-18T12:50:27.000Z</time>
      </trkpt>
      <trkpt lat="43.97449" lon="5.11818">
        <ele>394.3</ele>
        <time>2013-02-18T12:50:29.000Z</time>
      </trkpt>
      <trkpt lat="43.97448" lon="5.1182">
        <ele>393.9</ele>
        <time>2013-02-18T12:50:30.000Z</time>
      </trkpt>
      <trkpt lat="43.97445" lon="5.11821">
        <ele>393.5</ele>
        <time>2013-02-18T12:50:32.000Z</time>
      </trkpt>
      <trkpt lat="43.97443" lon="5.11822">
        <ele>394</ele>
        <time>2013-02-18T12:50:33.000Z</time>
      </trkpt>
      <trkpt lat="43.9744" lon="5.11824">
        <ele>393.2</ele>
        <time>2013-02-18T12:50:35.000Z</time>
      </trkpt>
      <trkpt lat="43.97438" lon="5.11824">
        <ele>392.6</ele>
        <time>2013-02-18T12:50:36.000Z</time>
      </trkpt>
      <trkpt lat="43.97435" lon="5.11827">
        <ele>391.7</ele>
        <time>2013-02-18T12:50:38.000Z</time>
      </trkpt>
      <trkpt lat="43.97434" lon="5.11828">
        <ele>391.8</ele>
        <time>2013-02-18T12:50:39.000Z</time>
      </trkpt>
      <trkpt lat="43.97433" lon="5.11834">
        <ele>391.8</ele>
        <time>2013-02-18T12:50:43.000Z</time>
      </trkpt>
      <trkpt lat="43.97433" lon="5.11835">
        <ele>391.8</ele>
        <time>2013-02-18T12:50:44.000Z</time>
      </trkpt>
      <trkpt lat="43.97434" lon="5.11839">
        <ele>392.7</ele>
        <time>2013-02-18T12:50:47.000Z</time>
      </trkpt>
      <trkpt lat="43.97435" lon="5.11841">
        <ele>392.6</ele>
        <time>2013-02-18T12:50:48.000Z</time>
      </trkpt>
      <trkpt lat="43.97437" lon="5.11846">
        <ele>392.4</ele>
        <time>2013-02-18T12:50:51.000Z</time>
      </trkpt>
      <trkpt lat="43.97439" lon="5.1185">
        <ele>392.5</ele>
        <time>2013-02-18T12:50:53.000Z</time>
      </trkpt>
      <trkpt lat="43.9744" lon="5.11855">
        <ele>392.7</ele>
        <time>2013-02-18T12:50:55.000Z</time>
      </trkpt>
      <trkpt lat="43.97441" lon="5.11858">
        <ele>392.8</ele>
        <time>2013-02-18T12:50:56.000Z</time>
      </trkpt>
      <trkpt lat="43.97443" lon="5.11863">
        <ele>393.3</ele>
        <time>2013-02-18T12:50:58.000Z</time>
      </trkpt>
      <trkpt lat="43.97444" lon="5.11865">
        <ele>393.8</ele>
        <time>2013-02-18T12:50:59.000Z</time>
      </trkpt>
      <trkpt lat="43.97445" lon="5.1187">
        <ele>393.4</ele>
        <time>2013-02-18T12:51:01.000Z</time>
      </trkpt>
      <trkpt lat="43.97446" lon="5.11872">
        <ele>393.7</ele>
        <time>2013-02-18T12:51:02.000Z</time>
      </trkpt>
      <trkpt lat="43.97448" lon="5.11877">
        <ele>393.4</ele>
        <time>2013-02-18T12:51:04.000Z</time>
      </trkpt>
      <trkpt lat="43.9745" lon="5.11879">
        <ele>393.6</ele>
        <time>2013-02-18T12:51:05.000Z</time>
      </trkpt>
      <trkpt lat="43.97453" lon="5.11882">
        <ele>393.9</ele>
        <time>2013-02-18T12:51:07.000Z</time>
      </trkpt>
      <trkpt lat="43.97455" lon="5.11883">
        <ele>393.8</ele>
        <time>2013-02-18T12:51:08.000Z</time>
      </trkpt>
      <trkpt lat="43.97459" lon="5.11884">
        <ele>393.8</ele>
        <time>2013-02-18T12:51:10.000Z</time>
      </trkpt>
      <trkpt lat="43.97461" lon="5.11884">
        <ele>394.1</ele>
        <time>2013-02-18T12:51:11.000Z</time>
      </trkpt>
      <trkpt lat="43.97466" lon="5.11884">
        <ele>394.2</ele>
        <time>2013-02-18T12:51:13.000Z</time>
      </trkpt>
      <trkpt lat="43.97468" lon="5.11884">
        <ele>394.2</ele>
        <time>2013-02-18T12:51:14.000Z</time>
      </trkpt>
      <trkpt lat="43.97472" lon="5.11886">
        <ele>394.6</ele>
        <time>2013-02-18T12:51:16.000Z</time>
      </trkpt>
      <trkpt lat="43.97473" lon="5.11887">
        <ele>394.9</ele>
        <time>2013-02-18T12:51:17.000Z</time>
      </trkpt>
      <trkpt lat="43.97477" lon="5.11888">
        <ele>396</ele>
        <time>2013-02-18T12:51:19.000Z</time>
      </trkpt>
      <trkpt lat="43.97478" lon="5.11888">
        <ele>397.9</ele>
        <time>2013-02-18T12:51:20.000Z</time>
      </trkpt>
      <trkpt lat="43.97482" lon="5.1189">
        <ele>398</ele>
        <time>2013-02-18T12:51:22.000Z</time>
      </trkpt>
      <trkpt lat="43.97483" lon="5.11891">
        <ele>398.7</ele>
        <time>2013-02-18T12:51:23.000Z</time>
      </trkpt>
      <trkpt lat="43.97487" lon="5.11892">
        <ele>398.7</ele>
        <time>2013-02-18T12:51:25.000Z</time>
      </trkpt>
      <trkpt lat="43.97489" lon="5.11894">
        <ele>398.7</ele>
        <time>2013-02-18T12:51:26.000Z</time>
      </trkpt>
      <trkpt lat="43.97493" lon="5.11897">
        <ele>399.9</ele>
        <time>2013-02-18T12:51:28.000Z</time>
      </trkpt>
      <trkpt lat="43.97494" lon="5.11899">
        <ele>400.3</ele>
        <time>2013-02-18T12:51:29.000Z</time>
      </trkpt>
      <trkpt lat="43.97496" lon="5.11904">
        <ele>400.4</ele>
        <time>2013-02-18T12:51:32.000Z</time>
      </trkpt>
      <trkpt lat="43.97496" lon="5.11904">
        <ele>400.2</ele>
        <time>2013-02-18T12:51:33.000Z</time>
      </trkpt>
      <trkpt lat="43.975" lon="5.11906">
        <ele>395.4</ele>
        <time>2013-02-18T12:53:15.000Z</time>
      </trkpt>
      <trkpt lat="43.97501" lon="5.11906">
        <ele>394.6</ele>
        <time>2013-02-18T12:53:16.000Z</time>
      </trkpt>
      <trkpt lat="43.97505" lon="5.11906">
        <ele>394.5</ele>
        <time>2013-02-18T12:53:18.000Z</time>
      </trkpt>
      <trkpt lat="43.97507" lon="5.11906">
        <ele>394.7</ele>
        <time>2013-02-18T12:53:19.000Z</time>
      </trkpt>
      <trkpt lat="43.9751" lon="5.11906">
        <ele>394.9</ele>
        <time>2013-02-18T12:53:20.000Z</time>
      </trkpt>
      <trkpt lat="43.97512" lon="5.11906">
        <ele>395.1</ele>
        <time>2013-02-18T12:53:21.000Z</time>
      </trkpt>
      <trkpt lat="43.97515" lon="5.11906">
        <ele>395.3</ele>
        <time>2013-02-18T12:53:22.000Z</time>
      </trkpt>
      <trkpt lat="43.97518" lon="5.11907">
        <ele>395.3</ele>
        <time>2013-02-18T12:53:23.000Z</time>
      </trkpt>
      <trkpt lat="43.97521" lon="5.11908">
        <ele>395.7</ele>
        <time>2013-02-18T12:53:24.000Z</time>
      </trkpt>
      <trkpt lat="43.97524" lon="5.11908">
        <ele>395.6</ele>
        <time>2013-02-18T12:53:25.000Z</time>
      </trkpt>
      <trkpt lat="43.97526" lon="5.11909">
        <ele>395.5</ele>
        <time>2013-02-18T12:53:26.000Z</time>
      </trkpt>
      <trkpt lat="43.97529" lon="5.11909">
        <ele>395.6</ele>
        <time>2013-02-18T12:53:27.000Z</time>
      </trkpt>
      <trkpt lat="43.97531" lon="5.11909">
        <ele>395.5</ele>
        <time>2013-02-18T12:53:28.000Z</time>
      </trkpt>
      <trkpt lat="43.97534" lon="5.1191">
        <ele>395.3</ele>
        <time>2013-02-18T12:53:29.000Z</time>
      </trkpt>
      <trkpt lat="43.97537" lon="5.1191">
        <ele>395.3</ele>
        <time>2013-02-18T12:53:30.000Z</time>
      </trkpt>
      <trkpt lat="43.9754" lon="5.1191">
        <ele>395.4</ele>
        <time>2013-02-18T12:53:31.000Z</time>
      </trkpt>
      <trkpt lat="43.97543" lon="5.11911">
        <ele>395.3</ele>
        <time>2013-02-18T12:53:32.000Z</time>
      </trkpt>
      <trkpt lat="43.97546" lon="5.11911">
        <ele>395.2</ele>
        <time>2013-02-18T12:53:33.000Z</time>
      </trkpt>
      <trkpt lat="43.97549" lon="5.11912">
        <ele>395</ele>
        <time>2013-02-18T12:53:34.000Z</time>
      </trkpt>
      <trkpt lat="43.97552" lon="5.11912">
        <ele>395</ele>
        <time>2013-02-18T12:53:35.000Z</time>
      </trkpt>
      <trkpt lat="43.97555" lon="5.11913">
        <ele>395</ele>
        <time>2013-02-18T12:53:36.000Z</time>
      </trkpt>
      <trkpt lat="43.97558" lon="5.11913">
        <ele>395</ele>
        <time>2013-02-18T12:53:37.000Z</time>
      </trkpt>
      <trkpt lat="43.97561" lon="5.11914">
        <ele>394.9</ele>
        <time>2013-02-18T12:53:38.000Z</time>
      </trkpt>
      <trkpt lat="43.97564" lon="5.11915">
        <ele>394.8</ele>
        <time>2013-02-18T12:53:39.000Z</time>
      </trkpt>
      <trkpt lat="43.97567" lon="5.11916">
        <ele>394.7</ele>
        <time>2013-02-18T12:53:40.000Z</time>
      </trkpt>
      <trkpt lat="43.9757" lon="5.11917">
        <ele>394.3</ele>
        <time>2013-02-18T12:53:41.000Z</time>
      </trkpt>
      <trkpt lat="43.97573" lon="5.11918">
        <ele>394.2</ele>
        <time>2013-02-18T12:53:42.000Z</time>
      </trkpt>
      <trkpt lat="43.97576" lon="5.11918">
        <ele>394.6</ele>
        <time>2013-02-18T12:53:43.000Z</time>
      </trkpt>
      <trkpt lat="43.97578" lon="5.11918">
        <ele>394.6</ele>
        <time>2013-02-18T12:53:44.000Z</time>
      </trkpt>
      <trkpt lat="43.97581" lon="5.11918">
        <ele>394.3</ele>
        <time>2013-02-18T12:53:45.000Z</time>
      </trkpt>
      <trkpt lat="43.97584" lon="5.11919">
        <ele>394.3</ele>
        <time>2013-02-18T12:53:46.000Z</time>
      </trkpt>
      <trkpt lat="43.97587" lon="5.11919">
        <ele>393.9</ele>
        <time>2013-02-18T12:53:47.000Z</time>
      </trkpt>
      <trkpt lat="43.9759" lon="5.11919">
        <ele>393.7</ele>
        <time>2013-02-18T12:53:48.000Z</time>
      </trkpt>
      <trkpt lat="43.97594" lon="5.1192">
        <ele>393.2</ele>
        <time>2013-02-18T12:53:49.000Z</time>
      </trkpt>
      <trkpt lat="43.97597" lon="5.1192">
        <ele>393.1</ele>
        <time>2013-02-18T12:53:50.000Z</time>
      </trkpt>
      <trkpt lat="43.97602" lon="5.1192">
        <ele>392.7</ele>
        <time>2013-02-18T12:53:51.000Z</time>
      </trkpt>
      <trkpt lat="43.9761" lon="5.11922">
        <ele>392</ele>
        <time>2013-02-18T12:53:53.000Z</time>
      </trkpt>
      <trkpt lat="43.97615" lon="5.11923">
        <ele>391.8</ele>
        <time>2013-02-18T12:53:54.000Z</time>
      </trkpt>
      <trkpt lat="43.9762" lon="5.11924">
        <ele>391.6</ele>
        <time>2013-02-18T12:53:55.000Z</time>
      </trkpt>
      <trkpt lat="43.97625" lon="5.11925">
        <ele>391.3</ele>
        <time>2013-02-18T12:53:56.000Z</time>
      </trkpt>
      <trkpt lat="43.9763" lon="5.11926">
        <ele>391</ele>
        <time>2013-02-18T12:53:57.000Z</time>
      </trkpt>
      <trkpt lat="43.97636" lon="5.11926">
        <ele>390.5</ele>
        <time>2013-02-18T12:53:58.000Z</time>
      </trkpt>
      <trkpt lat="43.97642" lon="5.11926">
        <ele>390.1</ele>
        <time>2013-02-18T12:53:59.000Z</time>
      </trkpt>
      <trkpt lat="43.97647" lon="5.11925">
        <ele>390</ele>
        <time>2013-02-18T12:54:00.000Z</time>
      </trkpt>
      <trkpt lat="43.97652" lon="5.11923">
        <ele>389.6</ele>
        <time>2013-02-18T12:54:01.000Z</time>
      </trkpt>
      <trkpt lat="43.97656" lon="5.11922">
        <ele>389.4</ele>
        <time>2013-02-18T12:54:02.000Z</time>
      </trkpt>
      <trkpt lat="43.9766" lon="5.11921">
        <ele>389.3</ele>
        <time>2013-02-18T12:54:03.000Z</time>
      </trkpt>
      <trkpt lat="43.97664" lon="5.1192">
        <ele>389.2</ele>
        <time>2013-02-18T12:54:04.000Z</time>
      </trkpt>
      <trkpt lat="43.97668" lon="5.11921">
        <ele>389.4</ele>
        <time>2013-02-18T12:54:05.000Z</time>
      </trkpt>
      <trkpt lat="43.97672" lon="5.11922">
        <ele>389.8</ele>
        <time>2013-02-18T12:54:06.000Z</time>
      </trkpt>
      <trkpt lat="43.97674" lon="5.11924">
        <ele>389.4</ele>
        <time>2013-02-18T12:54:07.000Z</time>
      </trkpt>
      <trkpt lat="43.97678" lon="5.11925">
        <ele>389.4</ele>
        <time>2013-02-18T12:54:09.000Z</time>
      </trkpt>
      <trkpt lat="43.9768" lon="5.11927">
        <ele>389.2</ele>
        <time>2013-02-18T12:54:10.000Z</time>
      </trkpt>
      <trkpt lat="43.97682" lon="5.11929">
        <ele>389.2</ele>
        <time>2013-02-18T12:54:11.000Z</time>
      </trkpt>
      <trkpt lat="43.97685" lon="5.11932">
        <ele>389.2</ele>
        <time>2013-02-18T12:54:12.000Z</time>
      </trkpt>
      <trkpt lat="43.97687" lon="5.11935">
        <ele>389.2</ele>
        <time>2013-02-18T12:54:13.000Z</time>
      </trkpt>
      <trkpt lat="43.97689" lon="5.11937">
        <ele>389.2</ele>
        <time>2013-02-18T12:54:14.000Z</time>
      </trkpt>
      <trkpt lat="43.97692" lon="5.1194">
        <ele>389.1</ele>
        <time>2013-02-18T12:54:16.000Z</time>
      </trkpt>
      <trkpt lat="43.97694" lon="5.11943">
        <ele>389.1</ele>
        <time>2013-02-18T12:54:17.000Z</time>
      </trkpt>
      <trkpt lat="43.97696" lon="5.11945">
        <ele>389.2</ele>
        <time>2013-02-18T12:54:18.000Z</time>
      </trkpt>
      <trkpt lat="43.97698" lon="5.11948">
        <ele>389.1</ele>
        <time>2013-02-18T12:54:19.000Z</time>
      </trkpt>
      <trkpt lat="43.97701" lon="5.11951">
        <ele>388.8</ele>
        <time>2013-02-18T12:54:20.000Z</time>
      </trkpt>
      <trkpt lat="43.97703" lon="5.11953">
        <ele>388.5</ele>
        <time>2013-02-18T12:54:21.000Z</time>
      </trkpt>
      <trkpt lat="43.97706" lon="5.11956">
        <ele>388.3</ele>
        <time>2013-02-18T12:54:22.000Z</time>
      </trkpt>
      <trkpt lat="43.97708" lon="5.11958">
        <ele>388</ele>
        <time>2013-02-18T12:54:23.000Z</time>
      </trkpt>
      <trkpt lat="43.97711" lon="5.11961">
        <ele>387.9</ele>
        <time>2013-02-18T12:54:24.000Z</time>
      </trkpt>
      <trkpt lat="43.97714" lon="5.11963">
        <ele>388.2</ele>
        <time>2013-02-18T12:54:25.000Z</time>
      </trkpt>
      <trkpt lat="43.97717" lon="5.11967">
        <ele>385.8</ele>
        <time>2013-02-18T12:54:27.000Z</time>
      </trkpt>
      <trkpt lat="43.97719" lon="5.11968">
        <ele>385.6</ele>
        <time>2013-02-18T12:54:28.000Z</time>
      </trkpt>
      <trkpt lat="43.9772" lon="5.11969">
        <ele>385.5</ele>
        <time>2013-02-18T12:54:29.000Z</time>
      </trkpt>
      <trkpt lat="43.97723" lon="5.1197">
        <ele>385.4</ele>
        <time>2013-02-18T12:54:30.000Z</time>
      </trkpt>
      <trkpt lat="43.97726" lon="5.11971">
        <ele>385.1</ele>
        <time>2013-02-18T12:55:03.000Z</time>
      </trkpt>
      <trkpt lat="43.97727" lon="5.11971">
        <ele>385</ele>
        <time>2013-02-18T12:55:04.000Z</time>
      </trkpt>
      <trkpt lat="43.9773" lon="5.11972">
        <ele>385.6</ele>
        <time>2013-02-18T12:55:05.000Z</time>
      </trkpt>
      <trkpt lat="43.97733" lon="5.11971">
        <ele>384.8</ele>
        <time>2013-02-18T12:55:06.000Z</time>
      </trkpt>
      <trkpt lat="43.97736" lon="5.1197">
        <ele>385.1</ele>
        <time>2013-02-18T12:55:07.000Z</time>
      </trkpt>
      <trkpt lat="43.9774" lon="5.11969">
        <ele>385.4</ele>
        <time>2013-02-18T12:55:08.000Z</time>
      </trkpt>
      <trkpt lat="43.97744" lon="5.11969">
        <ele>384.8</ele>
        <time>2013-02-18T12:55:09.000Z</time>
      </trkpt>
      <trkpt lat="43.97749" lon="5.11968">
        <ele>384.9</ele>
        <time>2013-02-18T12:55:10.000Z</time>
      </trkpt>
      <trkpt lat="43.97753" lon="5.11968">
        <ele>384.5</ele>
        <time>2013-02-18T12:55:11.000Z</time>
      </trkpt>
      <trkpt lat="43.97758" lon="5.11968">
        <ele>384.3</ele>
        <time>2013-02-18T12:55:12.000Z</time>
      </trkpt>
      <trkpt lat="43.97764" lon="5.11967">
        <ele>383.5</ele>
        <time>2013-02-18T12:55:13.000Z</time>
      </trkpt>
      <trkpt lat="43.97768" lon="5.11966">
        <ele>382.8</ele>
        <time>2013-02-18T12:55:14.000Z</time>
      </trkpt>
      <trkpt lat="43.97772" lon="5.11966">
        <ele>382.1</ele>
        <time>2013-02-18T12:55:15.000Z</time>
      </trkpt>
      <trkpt lat="43.97776" lon="5.11966">
        <ele>382</ele>
        <time>2013-02-18T12:55:16.000Z</time>
      </trkpt>
      <trkpt lat="43.97779" lon="5.11967">
        <ele>381.2</ele>
        <time>2013-02-18T12:55:17.000Z</time>
      </trkpt>
      <trkpt lat="43.97781" lon="5.11971">
        <ele>380.9</ele>
        <time>2013-02-18T12:55:18.000Z</time>
      </trkpt>
      <trkpt lat="43.97782" lon="5.11976">
        <ele>380.7</ele>
        <time>2013-02-18T12:55:19.000Z</time>
      </trkpt>
      <trkpt lat="43.97783" lon="5.11982">
        <ele>380.1</ele>
        <time>2013-02-18T12:55:20.000Z</time>
      </trkpt>
      <trkpt lat="43.97785" lon="5.11988">
        <ele>379.8</ele>
        <time>2013-02-18T12:55:21.000Z</time>
      </trkpt>
      <trkpt lat="43.97787" lon="5.11994">
        <ele>378.8</ele>
        <time>2013-02-18T12:55:22.000Z</time>
      </trkpt>
      <trkpt lat="43.97789" lon="5.11999">
        <ele>378.1</ele>
        <time>2013-02-18T12:55:23.000Z</time>
      </trkpt>
      <trkpt lat="43.97792" lon="5.12005">
        <ele>377.8</ele>
        <time>2013-02-18T12:55:24.000Z</time>
      </trkpt>
      <trkpt lat="43.97794" lon="5.12011">
        <ele>377.4</ele>
        <time>2013-02-18T12:55:25.000Z</time>
      </trkpt>
      <trkpt lat="43.97796" lon="5.12017">
        <ele>376.5</ele>
        <time>2013-02-18T12:55:26.000Z</time>
      </trkpt>
      <trkpt lat="43.97799" lon="5.12023">
        <ele>376.1</ele>
        <time>2013-02-18T12:55:27.000Z</time>
      </trkpt>
      <trkpt lat="43.97801" lon="5.12028">
        <ele>376</ele>
        <time>2013-02-18T12:55:28.000Z</time>
      </trkpt>
      <trkpt lat="43.97803" lon="5.12034">
        <ele>375.5</ele>
        <time>2013-02-18T12:55:29.000Z</time>
      </trkpt>
      <trkpt lat="43.97805" lon="5.12039">
        <ele>374.6</ele>
        <time>2013-02-18T12:55:30.000Z</time>
      </trkpt>
      <trkpt lat="43.97807" lon="5.12044">
        <ele>374.2</ele>
        <time>2013-02-18T12:55:31.000Z</time>
      </trkpt>
      <trkpt lat="43.97808" lon="5.12049">
        <ele>373.7</ele>
        <time>2013-02-18T12:55:32.000Z</time>
      </trkpt>
      <trkpt lat="43.9781" lon="5.12054">
        <ele>373.1</ele>
        <time>2013-02-18T12:55:33.000Z</time>
      </trkpt>
      <trkpt lat="43.97812" lon="5.12058">
        <ele>372.6</ele>
        <time>2013-02-18T12:55:34.000Z</time>
      </trkpt>
      <trkpt lat="43.97814" lon="5.1206">
        <ele>372.3</ele>
        <time>2013-02-18T12:55:35.000Z</time>
      </trkpt>
      <trkpt lat="43.97814" lon="5.12063">
        <ele>371.9</ele>
        <time>2013-02-18T12:55:36.000Z</time>
      </trkpt>
      <trkpt lat="43.97816" lon="5.12067">
        <ele>371.7</ele>
        <time>2013-02-18T12:55:37.000Z</time>
      </trkpt>
      <trkpt lat="43.97817" lon="5.1207">
        <ele>371.3</ele>
        <time>2013-02-18T12:55:38.000Z</time>
      </trkpt>
      <trkpt lat="43.97818" lon="5.12074">
        <ele>370.8</ele>
        <time>2013-02-18T12:55:39.000Z</time>
      </trkpt>
      <trkpt lat="43.9782" lon="5.12079">
        <ele>369.8</ele>
        <time>2013-02-18T12:55:41.000Z</time>
      </trkpt>
      <trkpt lat="43.97821" lon="5.12082">
        <ele>369.5</ele>
        <time>2013-02-18T12:55:42.000Z</time>
      </trkpt>
      <trkpt lat="43.97822" lon="5.12086">
        <ele>368.8</ele>
        <time>2013-02-18T12:55:43.000Z</time>
      </trkpt>
      <trkpt lat="43.97824" lon="5.1209">
        <ele>368.4</ele>
        <time>2013-02-18T12:55:44.000Z</time>
      </trkpt>
      <trkpt lat="43.97826" lon="5.12095">
        <ele>367.8</ele>
        <time>2013-02-18T12:55:45.000Z</time>
      </trkpt>
      <trkpt lat="43.97827" lon="5.12099">
        <ele>367.3</ele>
        <time>2013-02-18T12:55:46.000Z</time>
      </trkpt>
      <trkpt lat="43.97829" lon="5.12103">
        <ele>367</ele>
        <time>2013-02-18T12:55:47.000Z</time>
      </trkpt>
      <trkpt lat="43.97831" lon="5.12106">
        <ele>366.9</ele>
        <time>2013-02-18T12:55:48.000Z</time>
      </trkpt>
      <trkpt lat="43.97832" lon="5.12108">
        <ele>367.1</ele>
        <time>2013-02-18T12:55:49.000Z</time>
      </trkpt>
      <trkpt lat="43.97836" lon="5.12105">
        <ele>365.7</ele>
        <time>2013-02-18T12:55:50.000Z</time>
      </trkpt>
      <trkpt lat="43.97838" lon="5.12103">
        <ele>365.7</ele>
        <time>2013-02-18T12:55:51.000Z</time>
      </trkpt>
      <trkpt lat="43.97841" lon="5.12101">
        <ele>365.9</ele>
        <time>2013-02-18T12:55:52.000Z</time>
      </trkpt>
      <trkpt lat="43.97844" lon="5.12099">
        <ele>365.8</ele>
        <time>2013-02-18T12:55:53.000Z</time>
      </trkpt>
      <trkpt lat="43.97847" lon="5.12097">
        <ele>365.4</ele>
        <time>2013-02-18T12:55:54.000Z</time>
      </trkpt>
      <trkpt lat="43.9785" lon="5.12095">
        <ele>365.6</ele>
        <time>2013-02-18T12:55:55.000Z</time>
      </trkpt>
      <trkpt lat="43.97853" lon="5.12094">
        <ele>365.2</ele>
        <time>2013-02-18T12:55:56.000Z</time>
      </trkpt>
      <trkpt lat="43.97856" lon="5.12096">
        <ele>365.2</ele>
        <time>2013-02-18T12:55:59.000Z</time>
      </trkpt>
      <trkpt lat="43.97857" lon="5.12097">
        <ele>365</ele>
        <time>2013-02-18T12:56:00.000Z</time>
      </trkpt>
      <trkpt lat="43.9786" lon="5.12099">
        <ele>363.5</ele>
        <time>2013-02-18T12:56:02.000Z</time>
      </trkpt>
      <trkpt lat="43.97861" lon="5.121">
        <ele>363.1</ele>
        <time>2013-02-18T12:56:03.000Z</time>
      </trkpt>
      <trkpt lat="43.97863" lon="5.12099">
        <ele>363.2</ele>
        <time>2013-02-18T12:56:04.000Z</time>
      </trkpt>
      <trkpt lat="43.97866" lon="5.12099">
        <ele>363.5</ele>
        <time>2013-02-18T12:56:05.000Z</time>
      </trkpt>
      <trkpt lat="43.9787" lon="5.12098">
        <ele>363.5</ele>
        <time>2013-02-18T12:56:09.000Z</time>
      </trkpt>
      <trkpt lat="43.9787" lon="5.12096">
        <ele>363.9</ele>
        <time>2013-02-18T12:56:10.000Z</time>
      </trkpt>
      <trkpt lat="43.97871" lon="5.12092">
        <ele>365.7</ele>
        <time>2013-02-18T12:56:12.000Z</time>
      </trkpt>
      <trkpt lat="43.97872" lon="5.12085">
        <ele>368.8</ele>
        <time>2013-02-18T12:56:13.000Z</time>
      </trkpt>
      <trkpt lat="43.97874" lon="5.12082">
        <ele>377.9</ele>
        <time>2013-02-18T12:56:15.000Z</time>
      </trkpt>
      <trkpt lat="43.97876" lon="5.12081">
        <ele>380.7</ele>
        <time>2013-02-18T12:56:16.000Z</time>
      </trkpt>
      <trkpt lat="43.97879" lon="5.12078">
        <ele>381.1</ele>
        <time>2013-02-18T12:56:18.000Z</time>
      </trkpt>
      <trkpt lat="43.97882" lon="5.12079">
        <ele>380.4</ele>
        <time>2013-02-18T12:56:19.000Z</time>
      </trkpt>
      <trkpt lat="43.97886" lon="5.1208">
        <ele>378.6</ele>
        <time>2013-02-18T12:57:03.000Z</time>
      </trkpt>
      <trkpt lat="43.97887" lon="5.12079">
        <ele>376.9</ele>
        <time>2013-02-18T12:57:04.000Z</time>
      </trkpt>
      <trkpt lat="43.97889" lon="5.12077">
        <ele>375.1</ele>
        <time>2013-02-18T12:57:05.000Z</time>
      </trkpt>
      <trkpt lat="43.97891" lon="5.12075">
        <ele>374.8</ele>
        <time>2013-02-18T12:57:06.000Z</time>
      </trkpt>
      <trkpt lat="43.97895" lon="5.12073">
        <ele>373.6</ele>
        <time>2013-02-18T12:57:08.000Z</time>
      </trkpt>
      <trkpt lat="43.97898" lon="5.12071">
        <ele>373.4</ele>
        <time>2013-02-18T12:57:09.000Z</time>
      </trkpt>
      <trkpt lat="43.979" lon="5.12069">
        <ele>373.2</ele>
        <time>2013-02-18T12:57:10.000Z</time>
      </trkpt>
      <trkpt lat="43.97903" lon="5.12068">
        <ele>372.9</ele>
        <time>2013-02-18T12:57:11.000Z</time>
      </trkpt>
      <trkpt lat="43.97906" lon="5.12065">
        <ele>372.5</ele>
        <time>2013-02-18T12:57:12.000Z</time>
      </trkpt>
      <trkpt lat="43.97909" lon="5.12063">
        <ele>372.7</ele>
        <time>2013-02-18T12:57:13.000Z</time>
      </trkpt>
      <trkpt lat="43.97913" lon="5.1206">
        <ele>372.2</ele>
        <time>2013-02-18T12:57:14.000Z</time>
      </trkpt>
      <trkpt lat="43.97917" lon="5.12057">
        <ele>371.9</ele>
        <time>2013-02-18T12:57:15.000Z</time>
      </trkpt>
      <trkpt lat="43.9792" lon="5.12053">
        <ele>371.4</ele>
        <time>2013-02-18T12:57:16.000Z</time>
      </trkpt>
      <trkpt lat="43.97923" lon="5.12049">
        <ele>370.9</ele>
        <time>2013-02-18T12:57:17.000Z</time>
      </trkpt>
      <trkpt lat="43.97927" lon="5.12048">
        <ele>370.2</ele>
        <time>2013-02-18T12:57:18.000Z</time>
      </trkpt>
      <trkpt lat="43.9793" lon="5.12046">
        <ele>369.4</ele>
        <time>2013-02-18T12:57:19.000Z</time>
      </trkpt>
      <trkpt lat="43.97932" lon="5.12043">
        <ele>369.5</ele>
        <time>2013-02-18T12:57:20.000Z</time>
      </trkpt>
      <trkpt lat="43.97935" lon="5.1204">
        <ele>369.4</ele>
        <time>2013-02-18T12:57:21.000Z</time>
      </trkpt>
      <trkpt lat="43.97937" lon="5.12038">
        <ele>369.1</ele>
        <time>2013-02-18T12:57:22.000Z</time>
      </trkpt>
      <trkpt lat="43.9794" lon="5.12036">
        <ele>368.4</ele>
        <time>2013-02-18T12:57:23.000Z</time>
      </trkpt>
      <trkpt lat="43.97942" lon="5.12034">
        <ele>367.7</ele>
        <time>2013-02-18T12:57:24.000Z</time>
      </trkpt>
      <trkpt lat="43.97944" lon="5.12032">
        <ele>367.2</ele>
        <time>2013-02-18T12:57:25.000Z</time>
      </trkpt>
      <trkpt lat="43.97946" lon="5.1203">
        <ele>367.1</ele>
        <time>2013-02-18T12:57:26.000Z</time>
      </trkpt>
      <trkpt lat="43.97948" lon="5.12028">
        <ele>367</ele>
        <time>2013-02-18T12:57:27.000Z</time>
      </trkpt>
      <trkpt lat="43.97951" lon="5.12028">
        <ele>366.8</ele>
        <time>2013-02-18T12:57:28.000Z</time>
      </trkpt>
      <trkpt lat="43.97954" lon="5.12027">
        <ele>366.3</ele>
        <time>2013-02-18T12:57:29.000Z</time>
      </trkpt>
      <trkpt lat="43.97957" lon="5.12025">
        <ele>366.2</ele>
        <time>2013-02-18T12:57:30.000Z</time>
      </trkpt>
      <trkpt lat="43.9796" lon="5.12022">
        <ele>365.9</ele>
        <time>2013-02-18T12:57:31.000Z</time>
      </trkpt>
      <trkpt lat="43.97963" lon="5.1202">
        <ele>366.1</ele>
        <time>2013-02-18T12:57:32.000Z</time>
      </trkpt>
      <trkpt lat="43.97966" lon="5.12018">
        <ele>366</ele>
        <time>2013-02-18T12:57:33.000Z</time>
      </trkpt>
      <trkpt lat="43.9797" lon="5.12016">
        <ele>366</ele>
        <time>2013-02-18T12:57:34.000Z</time>
      </trkpt>
      <trkpt lat="43.97973" lon="5.12014">
        <ele>365.9</ele>
        <time>2013-02-18T12:57:35.000Z</time>
      </trkpt>
      <trkpt lat="43.97977" lon="5.12012">
        <ele>366.1</ele>
        <time>2013-02-18T12:57:36.000Z</time>
      </trkpt>
      <trkpt lat="43.97981" lon="5.1201">
        <ele>365.6</ele>
        <time>2013-02-18T12:57:37.000Z</time>
      </trkpt>
      <trkpt lat="43.97984" lon="5.12008">
        <ele>365</ele>
        <time>2013-02-18T12:57:38.000Z</time>
      </trkpt>
      <trkpt lat="43.97987" lon="5.12005">
        <ele>365</ele>
        <time>2013-02-18T12:57:39.000Z</time>
      </trkpt>
      <trkpt lat="43.97991" lon="5.12002">
        <ele>364.9</ele>
        <time>2013-02-18T12:57:40.000Z</time>
      </trkpt>
      <trkpt lat="43.97994" lon="5.11999">
        <ele>364.5</ele>
        <time>2013-02-18T12:57:41.000Z</time>
      </trkpt>
      <trkpt lat="43.97997" lon="5.11995">
        <ele>365.2</ele>
        <time>2013-02-18T12:57:42.000Z</time>
      </trkpt>
      <trkpt lat="43.97999" lon="5.11994">
        <ele>364.4</ele>
        <time>2013-02-18T12:57:43.000Z</time>
      </trkpt>
      <trkpt lat="43.98001" lon="5.11992">
        <ele>364.5</ele>
        <time>2013-02-18T12:57:44.000Z</time>
      </trkpt>
      <trkpt lat="43.98003" lon="5.11991">
        <ele>364.5</ele>
        <time>2013-02-18T12:57:45.000Z</time>
      </trkpt>
      <trkpt lat="43.98005" lon="5.1199">
        <ele>364.4</ele>
        <time>2013-02-18T12:57:46.000Z</time>
      </trkpt>
      <trkpt lat="43.98008" lon="5.11987">
        <ele>363.7</ele>
        <time>2013-02-18T12:57:47.000Z</time>
      </trkpt>
      <trkpt lat="43.98011" lon="5.11985">
        <ele>363.5</ele>
        <time>2013-02-18T12:57:48.000Z</time>
      </trkpt>
      <trkpt lat="43.98013" lon="5.11983">
        <ele>363.4</ele>
        <time>2013-02-18T12:57:49.000Z</time>
      </trkpt>
      <trkpt lat="43.98017" lon="5.1198">
        <ele>362.4</ele>
        <time>2013-02-18T12:57:51.000Z</time>
      </trkpt>
      <trkpt lat="43.98021" lon="5.11977">
        <ele>362</ele>
        <time>2013-02-18T12:57:53.000Z</time>
      </trkpt>
      <trkpt lat="43.98024" lon="5.11975">
        <ele>362.1</ele>
        <time>2013-02-18T12:57:54.000Z</time>
      </trkpt>
      <trkpt lat="43.98027" lon="5.11974">
        <ele>362.1</ele>
        <time>2013-02-18T12:57:55.000Z</time>
      </trkpt>
      <trkpt lat="43.9803" lon="5.11972">
        <ele>362.5</ele>
        <time>2013-02-18T12:57:56.000Z</time>
      </trkpt>
      <trkpt lat="43.98032" lon="5.11969">
        <ele>362.4</ele>
        <time>2013-02-18T12:57:57.000Z</time>
      </trkpt>
      <trkpt lat="43.98035" lon="5.11967">
        <ele>362.4</ele>
        <time>2013-02-18T12:57:58.000Z</time>
      </trkpt>
      <trkpt lat="43.98038" lon="5.11966">
        <ele>362.5</ele>
        <time>2013-02-18T12:57:59.000Z</time>
      </trkpt>
      <trkpt lat="43.98041" lon="5.11966">
        <ele>362.3</ele>
        <time>2013-02-18T12:58:00.000Z</time>
      </trkpt>
      <trkpt lat="43.98044" lon="5.11965">
        <ele>361.6</ele>
        <time>2013-02-18T12:58:01.000Z</time>
      </trkpt>
      <trkpt lat="43.98047" lon="5.11962">
        <ele>361.2</ele>
        <time>2013-02-18T12:58:02.000Z</time>
      </trkpt>
      <trkpt lat="43.9805" lon="5.11959">
        <ele>360.9</ele>
        <time>2013-02-18T12:58:03.000Z</time>
      </trkpt>
      <trkpt lat="43.98054" lon="5.11958">
        <ele>360.5</ele>
        <time>2013-02-18T12:58:04.000Z</time>
      </trkpt>
      <trkpt lat="43.98057" lon="5.11956">
        <ele>360</ele>
        <time>2013-02-18T12:58:05.000Z</time>
      </trkpt>
      <trkpt lat="43.9806" lon="5.11954">
        <ele>359.9</ele>
        <time>2013-02-18T12:58:06.000Z</time>
      </trkpt>
      <trkpt lat="43.98063" lon="5.11952">
        <ele>359.5</ele>
        <time>2013-02-18T12:58:07.000Z</time>
      </trkpt>
      <trkpt lat="43.98066" lon="5.11951">
        <ele>359.2</ele>
        <time>2013-02-18T12:58:08.000Z</time>
      </trkpt>
      <trkpt lat="43.98069" lon="5.11949">
        <ele>359.3</ele>
        <time>2013-02-18T12:58:09.000Z</time>
      </trkpt>
      <trkpt lat="43.98072" lon="5.11947">
        <ele>359.1</ele>
        <time>2013-02-18T12:58:10.000Z</time>
      </trkpt>
      <trkpt lat="43.98076" lon="5.11945">
        <ele>359</ele>
        <time>2013-02-18T12:58:11.000Z</time>
      </trkpt>
      <trkpt lat="43.98078" lon="5.11943">
        <ele>359.5</ele>
        <time>2013-02-18T12:58:12.000Z</time>
      </trkpt>
      <trkpt lat="43.98081" lon="5.11942">
        <ele>360</ele>
        <time>2013-02-18T12:58:13.000Z</time>
      </trkpt>
      <trkpt lat="43.98083" lon="5.11938">
        <ele>359.5</ele>
        <time>2013-02-18T12:58:14.000Z</time>
      </trkpt>
      <trkpt lat="43.98085" lon="5.11936">
        <ele>359.6</ele>
        <time>2013-02-18T12:58:15.000Z</time>
      </trkpt>
      <trkpt lat="43.98086" lon="5.11934">
        <ele>359.6</ele>
        <time>2013-02-18T12:58:16.000Z</time>
      </trkpt>
      <trkpt lat="43.98089" lon="5.11931">
        <ele>359.4</ele>
        <time>2013-02-18T12:58:17.000Z</time>
      </trkpt>
      <trkpt lat="43.98091" lon="5.11929">
        <ele>359</ele>
        <time>2013-02-18T12:58:18.000Z</time>
      </trkpt>
      <trkpt lat="43.98095" lon="5.11929">
        <ele>358.7</ele>
        <time>2013-02-18T12:58:19.000Z</time>
      </trkpt>
      <trkpt lat="43.98097" lon="5.11927">
        <ele>358.9</ele>
        <time>2013-02-18T12:58:20.000Z</time>
      </trkpt>
      <trkpt lat="43.98101" lon="5.11926">
        <ele>358.9</ele>
        <time>2013-02-18T12:58:21.000Z</time>
      </trkpt>
      <trkpt lat="43.98104" lon="5.11923">
        <ele>358.4</ele>
        <time>2013-02-18T12:58:22.000Z</time>
      </trkpt>
      <trkpt lat="43.98106" lon="5.11921">
        <ele>358.4</ele>
        <time>2013-02-18T12:58:23.000Z</time>
      </trkpt>
      <trkpt lat="43.98109" lon="5.11919">
        <ele>358.6</ele>
        <time>2013-02-18T12:58:24.000Z</time>
      </trkpt>
      <trkpt lat="43.9811" lon="5.11915">
        <ele>358.5</ele>
        <time>2013-02-18T12:58:25.000Z</time>
      </trkpt>
      <trkpt lat="43.98111" lon="5.11912">
        <ele>358</ele>
        <time>2013-02-18T12:58:26.000Z</time>
      </trkpt>
      <trkpt lat="43.98113" lon="5.11909">
        <ele>357.6</ele>
        <time>2013-02-18T12:58:27.000Z</time>
      </trkpt>
      <trkpt lat="43.98115" lon="5.11905">
        <ele>357.6</ele>
        <time>2013-02-18T12:58:28.000Z</time>
      </trkpt>
      <trkpt lat="43.98117" lon="5.11902">
        <ele>357.5</ele>
        <time>2013-02-18T12:58:29.000Z</time>
      </trkpt>
      <trkpt lat="43.98119" lon="5.11899">
        <ele>357.4</ele>
        <time>2013-02-18T12:58:30.000Z</time>
      </trkpt>
      <trkpt lat="43.9812" lon="5.11895">
        <ele>357.6</ele>
        <time>2013-02-18T12:58:31.000Z</time>
      </trkpt>
      <trkpt lat="43.98122" lon="5.11891">
        <ele>357.7</ele>
        <time>2013-02-18T12:58:32.000Z</time>
      </trkpt>
      <trkpt lat="43.98124" lon="5.11888">
        <ele>357.7</ele>
        <time>2013-02-18T12:58:33.000Z</time>
      </trkpt>
      <trkpt lat="43.98126" lon="5.11884">
        <ele>357.7</ele>
        <time>2013-02-18T12:58:34.000Z</time>
      </trkpt>
      <trkpt lat="43.98128" lon="5.11881">
        <ele>357.5</ele>
        <time>2013-02-18T12:58:35.000Z</time>
      </trkpt>
      <trkpt lat="43.9813" lon="5.11878">
        <ele>357.3</ele>
        <time>2013-02-18T12:58:37.000Z</time>
      </trkpt>
      <trkpt lat="43.98131" lon="5.11876">
        <ele>357.4</ele>
        <time>2013-02-18T12:58:38.000Z</time>
      </trkpt>
      <trkpt lat="43.98132" lon="5.11871">
        <ele>357.3</ele>
        <time>2013-02-18T12:58:40.000Z</time>
      </trkpt>
      <trkpt lat="43.98133" lon="5.11868">
        <ele>357.2</ele>
        <time>2013-02-18T12:58:41.000Z</time>
      </trkpt>
      <trkpt lat="43.98135" lon="5.11863">
        <ele>357.5</ele>
        <time>2013-02-18T12:58:43.000Z</time>
      </trkpt>
      <trkpt lat="43.98136" lon="5.11861">
        <ele>357.5</ele>
        <time>2013-02-18T12:58:44.000Z</time>
      </trkpt>
      <trkpt lat="43.98137" lon="5.11857">
        <ele>357.5</ele>
        <time>2013-02-18T12:58:46.000Z</time>
      </trkpt>
      <trkpt lat="43.98137" lon="5.11854">
        <ele>357.9</ele>
        <time>2013-02-18T12:58:47.000Z</time>
      </trkpt>
      <trkpt lat="43.98138" lon="5.1185">
        <ele>357.6</ele>
        <time>2013-02-18T12:58:49.000Z</time>
      </trkpt>
      <trkpt lat="43.9814" lon="5.11848">
        <ele>357.2</ele>
        <time>2013-02-18T12:58:50.000Z</time>
      </trkpt>
      <trkpt lat="43.98141" lon="5.11847">
        <ele>356.9</ele>
        <time>2013-02-18T12:58:51.000Z</time>
      </trkpt>
      <trkpt lat="43.98145" lon="5.11841">
        <ele>355.6</ele>
        <time>2013-02-18T12:58:53.000Z</time>
      </trkpt>
      <trkpt lat="43.98147" lon="5.11838">
        <ele>355.8</ele>
        <time>2013-02-18T12:58:54.000Z</time>
      </trkpt>
      <trkpt lat="43.98149" lon="5.11835">
        <ele>356.1</ele>
        <time>2013-02-18T12:58:55.000Z</time>
      </trkpt>
      <trkpt lat="43.98148" lon="5.11832">
        <ele>350.5</ele>
        <time>2013-02-18T12:58:56.000Z</time>
      </trkpt>
      <trkpt lat="43.98148" lon="5.11828">
        <ele>350.7</ele>
        <time>2013-02-18T12:58:57.000Z</time>
      </trkpt>
      <trkpt lat="43.98146" lon="5.11826">
        <ele>351.3</ele>
        <time>2013-02-18T12:58:58.000Z</time>
      </trkpt>
      <trkpt lat="43.98145" lon="5.11822">
        <ele>351.5</ele>
        <time>2013-02-18T12:58:59.000Z</time>
      </trkpt>
      <trkpt lat="43.98144" lon="5.11819">
        <ele>351.1</ele>
        <time>2013-02-18T12:59:00.000Z</time>
      </trkpt>
      <trkpt lat="43.98143" lon="5.11816">
        <ele>350.6</ele>
        <time>2013-02-18T12:59:01.000Z</time>
      </trkpt>
      <trkpt lat="43.9814" lon="5.11814">
        <ele>352.3</ele>
        <time>2013-02-18T12:59:02.000Z</time>
      </trkpt>
      <trkpt lat="43.98139" lon="5.11811">
        <ele>351.9</ele>
        <time>2013-02-18T12:59:03.000Z</time>
      </trkpt>
      <trkpt lat="43.98139" lon="5.11807">
        <ele>350.7</ele>
        <time>2013-02-18T12:59:04.000Z</time>
      </trkpt>
      <trkpt lat="43.98139" lon="5.11803">
        <ele>350.3</ele>
        <time>2013-02-18T12:59:05.000Z</time>
      </trkpt>
      <trkpt lat="43.98139" lon="5.118">
        <ele>349.7</ele>
        <time>2013-02-18T12:59:06.000Z</time>
      </trkpt>
      <trkpt lat="43.98139" lon="5.11796">
        <ele>349</ele>
        <time>2013-02-18T12:59:07.000Z</time>
      </trkpt>
      <trkpt lat="43.98138" lon="5.11792">
        <ele>349</ele>
        <time>2013-02-18T12:59:08.000Z</time>
      </trkpt>
      <trkpt lat="43.98136" lon="5.11789">
        <ele>348.7</ele>
        <time>2013-02-18T12:59:09.000Z</time>
      </trkpt>
      <trkpt lat="43.98138" lon="5.11783">
        <ele>348.4</ele>
        <time>2013-02-18T12:59:11.000Z</time>
      </trkpt>
      <trkpt lat="43.9814" lon="5.11782">
        <ele>348.6</ele>
        <time>2013-02-18T12:59:12.000Z</time>
      </trkpt>
      <trkpt lat="43.98144" lon="5.11781">
        <ele>348.6</ele>
        <time>2013-02-18T12:59:14.000Z</time>
      </trkpt>
      <trkpt lat="43.98146" lon="5.1178">
        <ele>349</ele>
        <time>2013-02-18T12:59:15.000Z</time>
      </trkpt>
      <trkpt lat="43.98149" lon="5.11777">
        <ele>347.7</ele>
        <time>2013-02-18T12:59:16.000Z</time>
      </trkpt>
      <trkpt lat="43.98151" lon="5.11774">
        <ele>347.5</ele>
        <time>2013-02-18T12:59:17.000Z</time>
      </trkpt>
      <trkpt lat="43.98153" lon="5.1177">
        <ele>347.4</ele>
        <time>2013-02-18T12:59:18.000Z</time>
      </trkpt>
      <trkpt lat="43.98153" lon="5.11767">
        <ele>347</ele>
        <time>2013-02-18T12:59:19.000Z</time>
      </trkpt>
      <trkpt lat="43.98156" lon="5.11765">
        <ele>346.4</ele>
        <time>2013-02-18T12:59:20.000Z</time>
      </trkpt>
      <trkpt lat="43.98157" lon="5.11763">
        <ele>346.5</ele>
        <time>2013-02-18T12:59:21.000Z</time>
      </trkpt>
      <trkpt lat="43.98158" lon="5.11757">
        <ele>346.6</ele>
        <time>2013-02-18T12:59:23.000Z</time>
      </trkpt>
      <trkpt lat="43.98159" lon="5.11754">
        <ele>345.5</ele>
        <time>2013-02-18T12:59:24.000Z</time>
      </trkpt>
      <trkpt lat="43.98164" lon="5.11753">
        <ele>344.7</ele>
        <time>2013-02-18T12:59:26.000Z</time>
      </trkpt>
      <trkpt lat="43.98165" lon="5.11752">
        <ele>344.2</ele>
        <time>2013-02-18T12:59:27.000Z</time>
      </trkpt>
      <trkpt lat="43.98169" lon="5.11751">
        <ele>344</ele>
        <time>2013-02-18T12:59:29.000Z</time>
      </trkpt>
      <trkpt lat="43.98171" lon="5.11752">
        <ele>342.9</ele>
        <time>2013-02-18T12:59:30.000Z</time>
      </trkpt>
      <trkpt lat="43.98175" lon="5.11754">
        <ele>342.1</ele>
        <time>2013-02-18T12:59:32.000Z</time>
      </trkpt>
      <trkpt lat="43.98177" lon="5.11754">
        <ele>341.7</ele>
        <time>2013-02-18T12:59:33.000Z</time>
      </trkpt>
      <trkpt lat="43.98181" lon="5.11755">
        <ele>339.1</ele>
        <time>2013-02-18T12:59:35.000Z</time>
      </trkpt>
      <trkpt lat="43.98183" lon="5.11756">
        <ele>338.5</ele>
        <time>2013-02-18T12:59:36.000Z</time>
      </trkpt>
      <trkpt lat="43.98186" lon="5.11759">
        <ele>337.9</ele>
        <time>2013-02-18T12:59:38.000Z</time>
      </trkpt>
      <trkpt lat="43.98188" lon="5.1176">
        <ele>337.5</ele>
        <time>2013-02-18T12:59:39.000Z</time>
      </trkpt>
      <trkpt lat="43.98191" lon="5.11761">
        <ele>337.6</ele>
        <time>2013-02-18T12:59:41.000Z</time>
      </trkpt>
      <trkpt lat="43.98192" lon="5.11761">
        <ele>337.6</ele>
        <time>2013-02-18T12:59:42.000Z</time>
      </trkpt>
      <trkpt lat="43.98194" lon="5.11765">
        <ele>337</ele>
        <time>2013-02-18T12:59:44.000Z</time>
      </trkpt>
      <trkpt lat="43.98195" lon="5.11767">
        <ele>336.7</ele>
        <time>2013-02-18T12:59:45.000Z</time>
      </trkpt>
      <trkpt lat="43.98198" lon="5.11771">
        <ele>336.3</ele>
        <time>2013-02-18T12:59:47.000Z</time>
      </trkpt>
      <trkpt lat="43.98199" lon="5.11772">
        <ele>335.1</ele>
        <time>2013-02-18T12:59:48.000Z</time>
      </trkpt>
      <trkpt lat="43.98203" lon="5.11774">
        <ele>333.8</ele>
        <time>2013-02-18T12:59:50.000Z</time>
      </trkpt>
      <trkpt lat="43.98205" lon="5.11774">
        <ele>333.1</ele>
        <time>2013-02-18T12:59:51.000Z</time>
      </trkpt>
      <trkpt lat="43.9821" lon="5.11771">
        <ele>332.2</ele>
        <time>2013-02-18T12:59:53.000Z</time>
      </trkpt>
      <trkpt lat="43.98213" lon="5.11769">
        <ele>332.5</ele>
        <time>2013-02-18T12:59:54.000Z</time>
      </trkpt>
      <trkpt lat="43.98214" lon="5.11772">
        <ele>332.3</ele>
        <time>2013-02-18T12:59:55.000Z</time>
      </trkpt>
      <trkpt lat="43.98217" lon="5.11775">
        <ele>331.5</ele>
        <time>2013-02-18T12:59:56.000Z</time>
      </trkpt>
      <trkpt lat="43.9822" lon="5.11778">
        <ele>329.9</ele>
        <time>2013-02-18T12:59:57.000Z</time>
      </trkpt>
      <trkpt lat="43.98222" lon="5.11781">
        <ele>328.2</ele>
        <time>2013-02-18T12:59:58.000Z</time>
      </trkpt>
      <trkpt lat="43.98224" lon="5.11785">
        <ele>326.1</ele>
        <time>2013-02-18T12:59:59.000Z</time>
      </trkpt>
      <trkpt lat="43.98226" lon="5.11789">
        <ele>330.4</ele>
        <time>2013-02-18T13:00:00.000Z</time>
      </trkpt>
      <trkpt lat="43.98227" lon="5.11793">
        <ele>330.3</ele>
        <time>2013-02-18T13:00:01.000Z</time>
      </trkpt>
      <trkpt lat="43.98229" lon="5.11798">
        <ele>329.3</ele>
        <time>2013-02-18T13:00:02.000Z</time>
      </trkpt>
      <trkpt lat="43.9823" lon="5.11801">
        <ele>329.8</ele>
        <time>2013-02-18T13:00:03.000Z</time>
      </trkpt>
      <trkpt lat="43.98232" lon="5.11805">
        <ele>329</ele>
        <time>2013-02-18T13:00:04.000Z</time>
      </trkpt>
      <trkpt lat="43.98233" lon="5.11808">
        <ele>329.1</ele>
        <time>2013-02-18T13:00:05.000Z</time>
      </trkpt>
      <trkpt lat="43.98235" lon="5.11812">
        <ele>328.8</ele>
        <time>2013-02-18T13:00:06.000Z</time>
      </trkpt>
      <trkpt lat="43.98239" lon="5.11816">
        <ele>328.4</ele>
        <time>2013-02-18T13:00:07.000Z</time>
      </trkpt>
      <trkpt lat="43.98242" lon="5.1182">
        <ele>328.5</ele>
        <time>2013-02-18T13:00:08.000Z</time>
      </trkpt>
      <trkpt lat="43.98244" lon="5.11824">
        <ele>328</ele>
        <time>2013-02-18T13:00:09.000Z</time>
      </trkpt>
      <trkpt lat="43.98246" lon="5.11827">
        <ele>327.7</ele>
        <time>2013-02-18T13:00:10.000Z</time>
      </trkpt>
      <trkpt lat="43.98247" lon="5.1183">
        <ele>326.6</ele>
        <time>2013-02-18T13:00:11.000Z</time>
      </trkpt>
      <trkpt lat="43.98249" lon="5.11833">
        <ele>326.4</ele>
        <time>2013-02-18T13:00:12.000Z</time>
      </trkpt>
      <trkpt lat="43.9825" lon="5.11837">
        <ele>326.3</ele>
        <time>2013-02-18T13:00:13.000Z</time>
      </trkpt>
      <trkpt lat="43.98251" lon="5.11842">
        <ele>325.2</ele>
        <time>2013-02-18T13:00:15.000Z</time>
      </trkpt>
      <trkpt lat="43.9825" lon="5.11846">
        <ele>324.2</ele>
        <time>2013-02-18T13:00:16.000Z</time>
      </trkpt>
      <trkpt lat="43.98249" lon="5.1185">
        <ele>324</ele>
        <time>2013-02-18T13:00:17.000Z</time>
      </trkpt>
      <trkpt lat="43.98247" lon="5.11854">
        <ele>323.9</ele>
        <time>2013-02-18T13:00:18.000Z</time>
      </trkpt>
      <trkpt lat="43.98245" lon="5.11858">
        <ele>323.6</ele>
        <time>2013-02-18T13:00:19.000Z</time>
      </trkpt>
      <trkpt lat="43.98244" lon="5.11862">
        <ele>323.3</ele>
        <time>2013-02-18T13:00:20.000Z</time>
      </trkpt>
      <trkpt lat="43.98242" lon="5.11865">
        <ele>323.9</ele>
        <time>2013-02-18T13:00:21.000Z</time>
      </trkpt>
      <trkpt lat="43.9824" lon="5.11868">
        <ele>324.1</ele>
        <time>2013-02-18T13:00:22.000Z</time>
      </trkpt>
      <trkpt lat="43.98238" lon="5.11871">
        <ele>324</ele>
        <time>2013-02-18T13:00:23.000Z</time>
      </trkpt>
      <trkpt lat="43.98236" lon="5.11875">
        <ele>323.8</ele>
        <time>2013-02-18T13:00:24.000Z</time>
      </trkpt>
      <trkpt lat="43.98234" lon="5.11878">
        <ele>323.8</ele>
        <time>2013-02-18T13:00:25.000Z</time>
      </trkpt>
      <trkpt lat="43.98232" lon="5.11881">
        <ele>323.6</ele>
        <time>2013-02-18T13:00:26.000Z</time>
      </trkpt>
      <trkpt lat="43.9823" lon="5.11884">
        <ele>323.7</ele>
        <time>2013-02-18T13:00:27.000Z</time>
      </trkpt>
      <trkpt lat="43.98228" lon="5.11888">
        <ele>323.7</ele>
        <time>2013-02-18T13:00:28.000Z</time>
      </trkpt>
      <trkpt lat="43.98226" lon="5.11891">
        <ele>323.8</ele>
        <time>2013-02-18T13:00:29.000Z</time>
      </trkpt>
      <trkpt lat="43.98224" lon="5.11895">
        <ele>323.9</ele>
        <time>2013-02-18T13:00:30.000Z</time>
      </trkpt>
      <trkpt lat="43.98223" lon="5.119">
        <ele>324.2</ele>
        <time>2013-02-18T13:00:31.000Z</time>
      </trkpt>
      <trkpt lat="43.98221" lon="5.11904">
        <ele>324.2</ele>
        <time>2013-02-18T13:00:32.000Z</time>
      </trkpt>
      <trkpt lat="43.98219" lon="5.11908">
        <ele>324.3</ele>
        <time>2013-02-18T13:00:33.000Z</time>
      </trkpt>
      <trkpt lat="43.98218" lon="5.11912">
        <ele>324.4</ele>
        <time>2013-02-18T13:00:34.000Z</time>
      </trkpt>
      <trkpt lat="43.98216" lon="5.11916">
        <ele>324.7</ele>
        <time>2013-02-18T13:00:35.000Z</time>
      </trkpt>
      <trkpt lat="43.98214" lon="5.11919">
        <ele>324.9</ele>
        <time>2013-02-18T13:00:36.000Z</time>
      </trkpt>
      <trkpt lat="43.98212" lon="5.11922">
        <ele>324.8</ele>
        <time>2013-02-18T13:00:37.000Z</time>
      </trkpt>
      <trkpt lat="43.9821" lon="5.11925">
        <ele>325.1</ele>
        <time>2013-02-18T13:00:38.000Z</time>
      </trkpt>
      <trkpt lat="43.98208" lon="5.11929">
        <ele>324.9</ele>
        <time>2013-02-18T13:00:39.000Z</time>
      </trkpt>
      <trkpt lat="43.98205" lon="5.11933">
        <ele>325</ele>
        <time>2013-02-18T13:00:40.000Z</time>
      </trkpt>
      <trkpt lat="43.98201" lon="5.11937">
        <ele>324.7</ele>
        <time>2013-02-18T13:00:41.000Z</time>
      </trkpt>
      <trkpt lat="43.98199" lon="5.1194">
        <ele>324.3</ele>
        <time>2013-02-18T13:00:42.000Z</time>
      </trkpt>
      <trkpt lat="43.98204" lon="5.11943">
        <ele>323.6</ele>
        <time>2013-02-18T13:00:43.000Z</time>
      </trkpt>
      <trkpt lat="43.98201" lon="5.11946">
        <ele>323.1</ele>
        <time>2013-02-18T13:00:44.000Z</time>
      </trkpt>
      <trkpt lat="43.982" lon="5.11949">
        <ele>322.8</ele>
        <time>2013-02-18T13:00:45.000Z</time>
      </trkpt>
      <trkpt lat="43.98198" lon="5.11953">
        <ele>322.7</ele>
        <time>2013-02-18T13:00:46.000Z</time>
      </trkpt>
      <trkpt lat="43.98195" lon="5.11956">
        <ele>322.9</ele>
        <time>2013-02-18T13:00:47.000Z</time>
      </trkpt>
      <trkpt lat="43.98193" lon="5.11959">
        <ele>318</ele>
        <time>2013-02-18T13:00:48.000Z</time>
      </trkpt>
      <trkpt lat="43.98191" lon="5.11963">
        <ele>316.8</ele>
        <time>2013-02-18T13:00:49.000Z</time>
      </trkpt>
      <trkpt lat="43.98189" lon="5.11967">
        <ele>316.8</ele>
        <time>2013-02-18T13:00:50.000Z</time>
      </trkpt>
      <trkpt lat="43.98185" lon="5.1197">
        <ele>316.4</ele>
        <time>2013-02-18T13:00:51.000Z</time>
      </trkpt>
      <trkpt lat="43.98178" lon="5.11977">
        <ele>315.8</ele>
        <time>2013-02-18T13:00:53.000Z</time>
      </trkpt>
      <trkpt lat="43.98174" lon="5.11981">
        <ele>314.6</ele>
        <time>2013-02-18T13:00:54.000Z</time>
      </trkpt>
      <trkpt lat="43.98169" lon="5.11983">
        <ele>314.3</ele>
        <time>2013-02-18T13:00:55.000Z</time>
      </trkpt>
      <trkpt lat="43.98166" lon="5.11985">
        <ele>313.9</ele>
        <time>2013-02-18T13:00:56.000Z</time>
      </trkpt>
      <trkpt lat="43.98162" lon="5.11987">
        <ele>313.6</ele>
        <time>2013-02-18T13:00:57.000Z</time>
      </trkpt>
      <trkpt lat="43.98158" lon="5.1199">
        <ele>313.4</ele>
        <time>2013-02-18T13:00:58.000Z</time>
      </trkpt>
      <trkpt lat="43.98155" lon="5.11993">
        <ele>313.4</ele>
        <time>2013-02-18T13:00:59.000Z</time>
      </trkpt>
      <trkpt lat="43.98152" lon="5.11995">
        <ele>313.3</ele>
        <time>2013-02-18T13:01:00.000Z</time>
      </trkpt>
      <trkpt lat="43.98148" lon="5.11996">
        <ele>313.8</ele>
        <time>2013-02-18T13:01:01.000Z</time>
      </trkpt>
      <trkpt lat="43.98144" lon="5.11997">
        <ele>312.1</ele>
        <time>2013-02-18T13:01:03.000Z</time>
      </trkpt>
      <trkpt lat="43.98142" lon="5.11997">
        <ele>311.3</ele>
        <time>2013-02-18T13:01:04.000Z</time>
      </trkpt>
      <trkpt lat="43.98139" lon="5.11999">
        <ele>310.8</ele>
        <time>2013-02-18T13:01:05.000Z</time>
      </trkpt>
      <trkpt lat="43.98137" lon="5.12002">
        <ele>310.5</ele>
        <time>2013-02-18T13:01:06.000Z</time>
      </trkpt>
      <trkpt lat="43.98134" lon="5.12007">
        <ele>309.8</ele>
        <time>2013-02-18T13:01:08.000Z</time>
      </trkpt>
      <trkpt lat="43.98132" lon="5.12009">
        <ele>310</ele>
        <time>2013-02-18T13:01:09.000Z</time>
      </trkpt>
      <trkpt lat="43.98133" lon="5.12014">
        <ele>311.6</ele>
        <time>2013-02-18T13:01:16.000Z</time>
      </trkpt>
      <trkpt lat="43.98133" lon="5.12015">
        <ele>311.9</ele>
        <time>2013-02-18T13:01:17.000Z</time>
      </trkpt>
      <trkpt lat="43.98131" lon="5.1202">
        <ele>313</ele>
        <time>2013-02-18T13:01:21.000Z</time>
      </trkpt>
      <trkpt lat="43.98129" lon="5.1202">
        <ele>313.1</ele>
        <time>2013-02-18T13:01:22.000Z</time>
      </trkpt>
      <trkpt lat="43.98131" lon="5.12016">
        <ele>315.1</ele>
        <time>2013-02-18T13:01:32.000Z</time>
      </trkpt>
      <trkpt lat="43.98132" lon="5.12014">
        <ele>315</ele>
        <time>2013-02-18T13:01:33.000Z</time>
      </trkpt>
      <trkpt lat="43.98132" lon="5.12018">
        <ele>316.2</ele>
        <time>2013-02-18T13:01:40.000Z</time>
      </trkpt>
      <trkpt lat="43.98134" lon="5.1202">
        <ele>316.3</ele>
        <time>2013-02-18T13:01:41.000Z</time>
      </trkpt>
      <trkpt lat="43.98137" lon="5.12022">
        <ele>317</ele>
        <time>2013-02-18T13:01:43.000Z</time>
      </trkpt>
      <trkpt lat="43.98139" lon="5.12023">
        <ele>317.9</ele>
        <time>2013-02-18T13:01:44.000Z</time>
      </trkpt>
      <trkpt lat="43.98143" lon="5.12025">
        <ele>319.1</ele>
        <time>2013-02-18T13:01:48.000Z</time>
      </trkpt>
      <trkpt lat="43.98145" lon="5.12025">
        <ele>319.3</ele>
        <time>2013-02-18T13:01:49.000Z</time>
      </trkpt>
      <trkpt lat="43.98149" lon="5.12024">
        <ele>320.6</ele>
        <time>2013-02-18T13:01:51.000Z</time>
      </trkpt>
      <trkpt lat="43.98152" lon="5.12026">
        <ele>322.4</ele>
        <time>2013-02-18T13:01:53.000Z</time>
      </trkpt>
      <trkpt lat="43.98156" lon="5.12027">
        <ele>323.4</ele>
        <time>2013-02-18T13:01:55.000Z</time>
      </trkpt>
      <trkpt lat="43.98155" lon="5.12032">
        <ele>322</ele>
        <time>2013-02-18T13:01:56.000Z</time>
      </trkpt>
      <trkpt lat="43.98152" lon="5.12035">
        <ele>323.8</ele>
        <time>2013-02-18T13:02:00.000Z</time>
      </trkpt>
      <trkpt lat="43.98151" lon="5.12036">
        <ele>323.9</ele>
        <time>2013-02-18T13:02:01.000Z</time>
      </trkpt>
      <trkpt lat="43.98148" lon="5.12036">
        <ele>325.3</ele>
        <time>2013-02-18T13:02:05.000Z</time>
      </trkpt>
      <trkpt lat="43.98147" lon="5.12036">
        <ele>324.7</ele>
        <time>2013-02-18T13:02:06.000Z</time>
      </trkpt>
      <trkpt lat="43.98143" lon="5.12037">
        <ele>326.9</ele>
        <time>2013-02-18T13:02:09.000Z</time>
      </trkpt>
      <trkpt lat="43.98141" lon="5.12037">
        <ele>326.7</ele>
        <time>2013-02-18T13:02:10.000Z</time>
      </trkpt>
      <trkpt lat="43.98138" lon="5.12039">
        <ele>327.1</ele>
        <time>2013-02-18T13:02:13.000Z</time>
      </trkpt>
      <trkpt lat="43.98135" lon="5.1204">
        <ele>327.7</ele>
        <time>2013-02-18T13:02:14.000Z</time>
      </trkpt>
      <trkpt lat="43.98132" lon="5.1204">
        <ele>330.6</ele>
        <time>2013-02-18T13:02:17.000Z</time>
      </trkpt>
      <trkpt lat="43.98131" lon="5.12041">
        <ele>330.3</ele>
        <time>2013-02-18T13:02:18.000Z</time>
      </trkpt>
      <trkpt lat="43.98127" lon="5.1204">
        <ele>330.2</ele>
        <time>2013-02-18T13:02:21.000Z</time>
      </trkpt>
      <trkpt lat="43.98126" lon="5.1204">
        <ele>330.5</ele>
        <time>2013-02-18T13:02:22.000Z</time>
      </trkpt>
      <trkpt lat="43.98122" lon="5.12043">
        <ele>332.6</ele>
        <time>2013-02-18T13:02:25.000Z</time>
      </trkpt>
      <trkpt lat="43.98121" lon="5.12043">
        <ele>333.3</ele>
        <time>2013-02-18T13:02:26.000Z</time>
      </trkpt>
      <trkpt lat="43.98118" lon="5.12044">
        <ele>334.2</ele>
        <time>2013-02-18T13:02:28.000Z</time>
      </trkpt>
      <trkpt lat="43.98117" lon="5.12044">
        <ele>334.5</ele>
        <time>2013-02-18T13:02:29.000Z</time>
      </trkpt>
      <trkpt lat="43.98114" lon="5.12047">
        <ele>334.2</ele>
        <time>2013-02-18T13:02:31.000Z</time>
      </trkpt>
      <trkpt lat="43.98113" lon="5.12048">
        <ele>334.1</ele>
        <time>2013-02-18T13:02:32.000Z</time>
      </trkpt>
      <trkpt lat="43.98111" lon="5.1205">
        <ele>334.4</ele>
        <time>2013-02-18T13:02:34.000Z</time>
      </trkpt>
      <trkpt lat="43.98109" lon="5.12052">
        <ele>335</ele>
        <time>2013-02-18T13:02:35.000Z</time>
      </trkpt>
      <trkpt lat="43.98105" lon="5.12054">
        <ele>334.7</ele>
        <time>2013-02-18T13:02:38.000Z</time>
      </trkpt>
      <trkpt lat="43.98103" lon="5.12054">
        <ele>334.7</ele>
        <time>2013-02-18T13:02:39.000Z</time>
      </trkpt>
      <trkpt lat="43.981" lon="5.12056">
        <ele>334.4</ele>
        <time>2013-02-18T13:02:41.000Z</time>
      </trkpt>
      <trkpt lat="43.98099" lon="5.12056">
        <ele>334.7</ele>
        <time>2013-02-18T13:02:42.000Z</time>
      </trkpt>
      <trkpt lat="43.98097" lon="5.1206">
        <ele>332.2</ele>
        <time>2013-02-18T13:02:46.000Z</time>
      </trkpt>
      <trkpt lat="43.98095" lon="5.12061">
        <ele>331.9</ele>
        <time>2013-02-18T13:02:47.000Z</time>
      </trkpt>
      <trkpt lat="43.98093" lon="5.12065">
        <ele>332.6</ele>
        <time>2013-02-18T13:02:50.000Z</time>
      </trkpt>
      <trkpt lat="43.98091" lon="5.12065">
        <ele>332.7</ele>
        <time>2013-02-18T13:02:51.000Z</time>
      </trkpt>
      <trkpt lat="43.98088" lon="5.12065">
        <ele>334.2</ele>
        <time>2013-02-18T13:02:54.000Z</time>
      </trkpt>
      <trkpt lat="43.98086" lon="5.12066">
        <ele>334.4</ele>
        <time>2013-02-18T13:02:55.000Z</time>
      </trkpt>
      <trkpt lat="43.98082" lon="5.12066">
        <ele>335.1</ele>
        <time>2013-02-18T13:02:58.000Z</time>
      </trkpt>
      <trkpt lat="43.98081" lon="5.12066">
        <ele>335.6</ele>
        <time>2013-02-18T13:02:59.000Z</time>
      </trkpt>
      <trkpt lat="43.98077" lon="5.12067">
        <ele>336.4</ele>
        <time>2013-02-18T13:03:01.000Z</time>
      </trkpt>
      <trkpt lat="43.98076" lon="5.12068">
        <ele>336.4</ele>
        <time>2013-02-18T13:03:02.000Z</time>
      </trkpt>
      <trkpt lat="43.98072" lon="5.12069">
        <ele>336.3</ele>
        <time>2013-02-18T13:03:05.000Z</time>
      </trkpt>
      <trkpt lat="43.98071" lon="5.1207">
        <ele>336.2</ele>
        <time>2013-02-18T13:03:06.000Z</time>
      </trkpt>
      <trkpt lat="43.98067" lon="5.12071">
        <ele>336.6</ele>
        <time>2013-02-18T13:03:08.000Z</time>
      </trkpt>
      <trkpt lat="43.98064" lon="5.12069">
        <ele>336.8</ele>
        <time>2013-02-18T13:03:09.000Z</time>
      </trkpt>
      <trkpt lat="43.9806" lon="5.12067">
        <ele>339.2</ele>
        <time>2013-02-18T13:03:12.000Z</time>
      </trkpt>
      <trkpt lat="43.98059" lon="5.12066">
        <ele>339.7</ele>
        <time>2013-02-18T13:03:13.000Z</time>
      </trkpt>
      <trkpt lat="43.98056" lon="5.12064">
        <ele>340.3</ele>
        <time>2013-02-18T13:03:15.000Z</time>
      </trkpt>
      <trkpt lat="43.98054" lon="5.12064">
        <ele>342</ele>
        <time>2013-02-18T13:03:16.000Z</time>
      </trkpt>
      <trkpt lat="43.98057" lon="5.12064">
        <ele>340.5</ele>
        <time>2013-02-18T13:03:28.000Z</time>
      </trkpt>
      <trkpt lat="43.98058" lon="5.12063">
        <ele>340.7</ele>
        <time>2013-02-18T13:03:29.000Z</time>
      </trkpt>
      <trkpt lat="43.98055" lon="5.1206">
        <ele>341.9</ele>
        <time>2013-02-18T13:03:34.000Z</time>
      </trkpt>
      <trkpt lat="43.98054" lon="5.1206">
        <ele>342.2</ele>
        <time>2013-02-18T13:03:35.000Z</time>
      </trkpt>
      <trkpt lat="43.98054" lon="5.12066">
        <ele>342.5</ele>
        <time>2013-02-18T13:03:40.000Z</time>
      </trkpt>
      <trkpt lat="43.98054" lon="5.12067">
        <ele>342.8</ele>
        <time>2013-02-18T13:03:41.000Z</time>
      </trkpt>
      <trkpt lat="43.98051" lon="5.1207">
        <ele>342.8</ele>
        <time>2013-02-18T13:03:44.000Z</time>
      </trkpt>
      <trkpt lat="43.9805" lon="5.12071">
        <ele>343.1</ele>
        <time>2013-02-18T13:03:45.000Z</time>
      </trkpt>
      <trkpt lat="43.98046" lon="5.12072">
        <ele>343.2</ele>
        <time>2013-02-18T13:03:47.000Z</time>
      </trkpt>
      <trkpt lat="43.98045" lon="5.12072">
        <ele>343.5</ele>
        <time>2013-02-18T13:03:48.000Z</time>
      </trkpt>
      <trkpt lat="43.98041" lon="5.12073">
        <ele>344.3</ele>
        <time>2013-02-18T13:03:50.000Z</time>
      </trkpt>
      <trkpt lat="43.9804" lon="5.12074">
        <ele>344.6</ele>
        <time>2013-02-18T13:03:51.000Z</time>
      </trkpt>
      <trkpt lat="43.98037" lon="5.12074">
        <ele>345.9</ele>
        <time>2013-02-18T13:03:54.000Z</time>
      </trkpt>
      <trkpt lat="43.98035" lon="5.12075">
        <ele>346</ele>
        <time>2013-02-18T13:03:55.000Z</time>
      </trkpt>
      <trkpt lat="43.98032" lon="5.12076">
        <ele>347.1</ele>
        <time>2013-02-18T13:03:58.000Z</time>
      </trkpt>
      <trkpt lat="43.9803" lon="5.12077">
        <ele>347.2</ele>
        <time>2013-02-18T13:03:59.000Z</time>
      </trkpt>
      <trkpt lat="43.98027" lon="5.12079">
        <ele>348.2</ele>
        <time>2013-02-18T13:04:02.000Z</time>
      </trkpt>
      <trkpt lat="43.98026" lon="5.1208">
        <ele>348.7</ele>
        <time>2013-02-18T13:04:03.000Z</time>
      </trkpt>
      <trkpt lat="43.98023" lon="5.12081">
        <ele>348.2</ele>
        <time>2013-02-18T13:04:05.000Z</time>
      </trkpt>
      <trkpt lat="43.98021" lon="5.12081">
        <ele>347.6</ele>
        <time>2013-02-18T13:04:06.000Z</time>
      </trkpt>
      <trkpt lat="43.98017" lon="5.12083">
        <ele>349</ele>
        <time>2013-02-18T13:04:09.000Z</time>
      </trkpt>
      <trkpt lat="43.98016" lon="5.12084">
        <ele>349.2</ele>
        <time>2013-02-18T13:04:10.000Z</time>
      </trkpt>
      <trkpt lat="43.98012" lon="5.12085">
        <ele>347.1</ele>
        <time>2013-02-18T13:04:12.000Z</time>
      </trkpt>
      <trkpt lat="43.98011" lon="5.12087">
        <ele>347.4</ele>
        <time>2013-02-18T13:04:13.000Z</time>
      </trkpt>
      <trkpt lat="43.98009" lon="5.12091">
        <ele>347.9</ele>
        <time>2013-02-18T13:04:15.000Z</time>
      </trkpt>
      <trkpt lat="43.98008" lon="5.12091">
        <ele>348.2</ele>
        <time>2013-02-18T13:04:16.000Z</time>
      </trkpt>
      <trkpt lat="43.98004" lon="5.12095">
        <ele>349.3</ele>
        <time>2013-02-18T13:04:19.000Z</time>
      </trkpt>
      <trkpt lat="43.98003" lon="5.12096">
        <ele>348.7</ele>
        <time>2013-02-18T13:04:20.000Z</time>
      </trkpt>
      <trkpt lat="43.98001" lon="5.12098">
        <ele>347.6</ele>
        <time>2013-02-18T13:04:21.000Z</time>
      </trkpt>
      <trkpt lat="43.97998" lon="5.12101">
        <ele>346.1</ele>
        <time>2013-02-18T13:04:22.000Z</time>
      </trkpt>
      <trkpt lat="43.98001" lon="5.121">
        <ele>349.4</ele>
        <time>2013-02-18T13:06:47.000Z</time>
      </trkpt>
      <trkpt lat="43.98003" lon="5.12098">
        <ele>350.1</ele>
        <time>2013-02-18T13:06:48.000Z</time>
      </trkpt>
      <trkpt lat="43.98005" lon="5.12096">
        <ele>350.1</ele>
        <time>2013-02-18T13:06:49.000Z</time>
      </trkpt>
      <trkpt lat="43.98009" lon="5.12094">
        <ele>349.4</ele>
        <time>2013-02-18T13:06:50.000Z</time>
      </trkpt>
      <trkpt lat="43.98012" lon="5.12093">
        <ele>349</ele>
        <time>2013-02-18T13:06:51.000Z</time>
      </trkpt>
      <trkpt lat="43.98018" lon="5.12094">
        <ele>349.9</ele>
        <time>2013-02-18T13:06:53.000Z</time>
      </trkpt>
      <trkpt lat="43.98021" lon="5.12096">
        <ele>349.8</ele>
        <time>2013-02-18T13:06:55.000Z</time>
      </trkpt>
      <trkpt lat="43.98022" lon="5.12097">
        <ele>350.1</ele>
        <time>2013-02-18T13:06:56.000Z</time>
      </trkpt>
      <trkpt lat="43.98026" lon="5.121">
        <ele>350.8</ele>
        <time>2013-02-18T13:06:59.000Z</time>
      </trkpt>
      <trkpt lat="43.98027" lon="5.12101">
        <ele>351.3</ele>
        <time>2013-02-18T13:07:00.000Z</time>
      </trkpt>
      <trkpt lat="43.9803" lon="5.12106">
        <ele>351.7</ele>
        <time>2013-02-18T13:07:06.000Z</time>
      </trkpt>
      <trkpt lat="43.9803" lon="5.12106">
        <ele>351.6</ele>
        <time>2013-02-18T13:07:07.000Z</time>
      </trkpt>
      <trkpt lat="43.98027" lon="5.12103">
        <ele>352</ele>
        <time>2013-02-18T13:07:10.000Z</time>
      </trkpt>
      <trkpt lat="43.98026" lon="5.12103">
        <ele>352.4</ele>
        <time>2013-02-18T13:07:11.000Z</time>
      </trkpt>
      <trkpt lat="43.98022" lon="5.12102">
        <ele>351.6</ele>
        <time>2013-02-18T13:07:13.000Z</time>
      </trkpt>
      <trkpt lat="43.98019" lon="5.12101">
        <ele>351.7</ele>
        <time>2013-02-18T13:07:14.000Z</time>
      </trkpt>
      <trkpt lat="43.98016" lon="5.12099">
        <ele>351.7</ele>
        <time>2013-02-18T13:07:15.000Z</time>
      </trkpt>
      <trkpt lat="43.98014" lon="5.12098">
        <ele>351.4</ele>
        <time>2013-02-18T13:07:16.000Z</time>
      </trkpt>
      <trkpt lat="43.98011" lon="5.12098">
        <ele>351.5</ele>
        <time>2013-02-18T13:07:17.000Z</time>
      </trkpt>
      <trkpt lat="43.98008" lon="5.12098">
        <ele>351.5</ele>
        <time>2013-02-18T13:07:18.000Z</time>
      </trkpt>
      <trkpt lat="43.98004" lon="5.12099">
        <ele>352</ele>
        <time>2013-02-18T13:07:20.000Z</time>
      </trkpt>
      <trkpt lat="43.98002" lon="5.12101">
        <ele>352.2</ele>
        <time>2013-02-18T13:07:21.000Z</time>
      </trkpt>
      <trkpt lat="43.97998" lon="5.12104">
        <ele>352.4</ele>
        <time>2013-02-18T13:07:24.000Z</time>
      </trkpt>
      <trkpt lat="43.97997" lon="5.12105">
        <ele>352.7</ele>
        <time>2013-02-18T13:07:25.000Z</time>
      </trkpt>
      <trkpt lat="43.97994" lon="5.12108">
        <ele>352.8</ele>
        <time>2013-02-18T13:07:27.000Z</time>
      </trkpt>
      <trkpt lat="43.97993" lon="5.12109">
        <ele>352.9</ele>
        <time>2013-02-18T13:07:28.000Z</time>
      </trkpt>
      <trkpt lat="43.97989" lon="5.12112">
        <ele>353.3</ele>
        <time>2013-02-18T13:07:30.000Z</time>
      </trkpt>
      <trkpt lat="43.97988" lon="5.12114">
        <ele>353.6</ele>
        <time>2013-02-18T13:07:31.000Z</time>
      </trkpt>
      <trkpt lat="43.97985" lon="5.12116">
        <ele>355</ele>
        <time>2013-02-18T13:07:33.000Z</time>
      </trkpt>
      <trkpt lat="43.97983" lon="5.12117">
        <ele>354.6</ele>
        <time>2013-02-18T13:07:34.000Z</time>
      </trkpt>
      <trkpt lat="43.97979" lon="5.1212">
        <ele>356.3</ele>
        <time>2013-02-18T13:07:36.000Z</time>
      </trkpt>
      <trkpt lat="43.97978" lon="5.12121">
        <ele>356.7</ele>
        <time>2013-02-18T13:07:37.000Z</time>
      </trkpt>
      <trkpt lat="43.97975" lon="5.12125">
        <ele>357</ele>
        <time>2013-02-18T13:07:39.000Z</time>
      </trkpt>
      <trkpt lat="43.97973" lon="5.12126">
        <ele>356.9</ele>
        <time>2013-02-18T13:07:40.000Z</time>
      </trkpt>
      <trkpt lat="43.97971" lon="5.12128">
        <ele>357.1</ele>
        <time>2013-02-18T13:07:41.000Z</time>
      </trkpt>
      <trkpt lat="43.97969" lon="5.1213">
        <ele>357</ele>
        <time>2013-02-18T13:07:42.000Z</time>
      </trkpt>
      <trkpt lat="43.97965" lon="5.12132">
        <ele>357.4</ele>
        <time>2013-02-18T13:07:44.000Z</time>
      </trkpt>
      <trkpt lat="43.97964" lon="5.12134">
        <ele>357.2</ele>
        <time>2013-02-18T13:07:45.000Z</time>
      </trkpt>
      <trkpt lat="43.97961" lon="5.12137">
        <ele>357.5</ele>
        <time>2013-02-18T13:07:48.000Z</time>
      </trkpt>
      <trkpt lat="43.97959" lon="5.12138">
        <ele>357.5</ele>
        <time>2013-02-18T13:07:49.000Z</time>
      </trkpt>
      <trkpt lat="43.97958" lon="5.12143">
        <ele>358</ele>
        <time>2013-02-18T13:07:51.000Z</time>
      </trkpt>
      <trkpt lat="43.97955" lon="5.12148">
        <ele>359.4</ele>
        <time>2013-02-18T13:07:53.000Z</time>
      </trkpt>
      <trkpt lat="43.97953" lon="5.12152">
        <ele>361</ele>
        <time>2013-02-18T13:07:55.000Z</time>
      </trkpt>
      <trkpt lat="43.97952" lon="5.12154">
        <ele>361.3</ele>
        <time>2013-02-18T13:07:56.000Z</time>
      </trkpt>
      <trkpt lat="43.97952" lon="5.12159">
        <ele>362</ele>
        <time>2013-02-18T13:07:59.000Z</time>
      </trkpt>
      <trkpt lat="43.97951" lon="5.12161">
        <ele>362</ele>
        <time>2013-02-18T13:08:00.000Z</time>
      </trkpt>
      <trkpt lat="43.97951" lon="5.12166">
        <ele>362.3</ele>
        <time>2013-02-18T13:08:03.000Z</time>
      </trkpt>
      <trkpt lat="43.97951" lon="5.12167">
        <ele>362.5</ele>
        <time>2013-02-18T13:08:04.000Z</time>
      </trkpt>
      <trkpt lat="43.97951" lon="5.12173">
        <ele>362.7</ele>
        <time>2013-02-18T13:08:16.000Z</time>
      </trkpt>
      <trkpt lat="43.97951" lon="5.12173">
        <ele>362.7</ele>
        <time>2013-02-18T13:08:17.000Z</time>
      </trkpt>
      <trkpt lat="43.97955" lon="5.12173">
        <ele>362</ele>
        <time>2013-02-18T13:08:22.000Z</time>
      </trkpt>
      <trkpt lat="43.97955" lon="5.12173">
        <ele>362.2</ele>
        <time>2013-02-18T13:08:23.000Z</time>
      </trkpt>
      <trkpt lat="43.97952" lon="5.12174">
        <ele>360.1</ele>
        <time>2013-02-18T13:08:36.000Z</time>
      </trkpt>
      <trkpt lat="43.9795" lon="5.12175">
        <ele>360</ele>
        <time>2013-02-18T13:08:37.000Z</time>
      </trkpt>
      <trkpt lat="43.97948" lon="5.12178">
        <ele>359.8</ele>
        <time>2013-02-18T13:08:38.000Z</time>
      </trkpt>
      <trkpt lat="43.97946" lon="5.12181">
        <ele>359.8</ele>
        <time>2013-02-18T13:08:39.000Z</time>
      </trkpt>
      <trkpt lat="43.97944" lon="5.12183">
        <ele>359.5</ele>
        <time>2013-02-18T13:08:40.000Z</time>
      </trkpt>
      <trkpt lat="43.97942" lon="5.12186">
        <ele>359.8</ele>
        <time>2013-02-18T13:08:41.000Z</time>
      </trkpt>
      <trkpt lat="43.97941" lon="5.12188">
        <ele>360</ele>
        <time>2013-02-18T13:08:42.000Z</time>
      </trkpt>
      <trkpt lat="43.97939" lon="5.1219">
        <ele>359.9</ele>
        <time>2013-02-18T13:08:43.000Z</time>
      </trkpt>
      <trkpt lat="43.97937" lon="5.12193">
        <ele>360.1</ele>
        <time>2013-02-18T13:08:44.000Z</time>
      </trkpt>
      <trkpt lat="43.97935" lon="5.12195">
        <ele>360.2</ele>
        <time>2013-02-18T13:08:45.000Z</time>
      </trkpt>
      <trkpt lat="43.97933" lon="5.12197">
        <ele>360.4</ele>
        <time>2013-02-18T13:08:46.000Z</time>
      </trkpt>
      <trkpt lat="43.97932" lon="5.12199">
        <ele>360.6</ele>
        <time>2013-02-18T13:08:47.000Z</time>
      </trkpt>
      <trkpt lat="43.97929" lon="5.12202">
        <ele>360.8</ele>
        <time>2013-02-18T13:08:48.000Z</time>
      </trkpt>
      <trkpt lat="43.97927" lon="5.12203">
        <ele>360.6</ele>
        <time>2013-02-18T13:08:49.000Z</time>
      </trkpt>
      <trkpt lat="43.97925" lon="5.12204">
        <ele>360.9</ele>
        <time>2013-02-18T13:08:50.000Z</time>
      </trkpt>
      <trkpt lat="43.97922" lon="5.12205">
        <ele>361</ele>
        <time>2013-02-18T13:08:51.000Z</time>
      </trkpt>
      <trkpt lat="43.97916" lon="5.12208">
        <ele>360.4</ele>
        <time>2013-02-18T13:08:53.000Z</time>
      </trkpt>
      <trkpt lat="43.97914" lon="5.12209">
        <ele>360.7</ele>
        <time>2013-02-18T13:08:54.000Z</time>
      </trkpt>
      <trkpt lat="43.97912" lon="5.12212">
        <ele>363.1</ele>
        <time>2013-02-18T13:08:55.000Z</time>
      </trkpt>
      <trkpt lat="43.9791" lon="5.12216">
        <ele>367.4</ele>
        <time>2013-02-18T13:08:57.000Z</time>
      </trkpt>
      <trkpt lat="43.97909" lon="5.12218">
        <ele>369.2</ele>
        <time>2013-02-18T13:08:58.000Z</time>
      </trkpt>
      <trkpt lat="43.97906" lon="5.12221">
        <ele>370.4</ele>
        <time>2013-02-18T13:09:00.000Z</time>
      </trkpt>
      <trkpt lat="43.97904" lon="5.12223">
        <ele>370.3</ele>
        <time>2013-02-18T13:09:01.000Z</time>
      </trkpt>
      <trkpt lat="43.97901" lon="5.12226">
        <ele>370.8</ele>
        <time>2013-02-18T13:09:03.000Z</time>
      </trkpt>
      <trkpt lat="43.97899" lon="5.12229">
        <ele>371.3</ele>
        <time>2013-02-18T13:09:04.000Z</time>
      </trkpt>
      <trkpt lat="43.97896" lon="5.12231">
        <ele>371.7</ele>
        <time>2013-02-18T13:09:05.000Z</time>
      </trkpt>
      <trkpt lat="43.97895" lon="5.12232">
        <ele>372.3</ele>
        <time>2013-02-18T13:09:06.000Z</time>
      </trkpt>
      <trkpt lat="43.97892" lon="5.12235">
        <ele>371.9</ele>
        <time>2013-02-18T13:09:08.000Z</time>
      </trkpt>
      <trkpt lat="43.9789" lon="5.12237">
        <ele>372</ele>
        <time>2013-02-18T13:09:09.000Z</time>
      </trkpt>
      <trkpt lat="43.97888" lon="5.12238">
        <ele>372</ele>
        <time>2013-02-18T13:09:10.000Z</time>
      </trkpt>
      <trkpt lat="43.97885" lon="5.12238">
        <ele>372.1</ele>
        <time>2013-02-18T13:09:11.000Z</time>
      </trkpt>
      <trkpt lat="43.97882" lon="5.12239">
        <ele>372.1</ele>
        <time>2013-02-18T13:09:12.000Z</time>
      </trkpt>
      <trkpt lat="43.9788" lon="5.1224">
        <ele>371.7</ele>
        <time>2013-02-18T13:09:13.000Z</time>
      </trkpt>
      <trkpt lat="43.97877" lon="5.12241">
        <ele>371.4</ele>
        <time>2013-02-18T13:09:14.000Z</time>
      </trkpt>
      <trkpt lat="43.97874" lon="5.12241">
        <ele>371.4</ele>
        <time>2013-02-18T13:09:15.000Z</time>
      </trkpt>
      <trkpt lat="43.97872" lon="5.12241">
        <ele>371.4</ele>
        <time>2013-02-18T13:09:16.000Z</time>
      </trkpt>
      <trkpt lat="43.97869" lon="5.12242">
        <ele>371.4</ele>
        <time>2013-02-18T13:09:17.000Z</time>
      </trkpt>
      <trkpt lat="43.97867" lon="5.12244">
        <ele>369.8</ele>
        <time>2013-02-18T13:09:18.000Z</time>
      </trkpt>
      <trkpt lat="43.97864" lon="5.12246">
        <ele>369.3</ele>
        <time>2013-02-18T13:09:19.000Z</time>
      </trkpt>
      <trkpt lat="43.97863" lon="5.12247">
        <ele>369.2</ele>
        <time>2013-02-18T13:09:20.000Z</time>
      </trkpt>
      <trkpt lat="43.9786" lon="5.12249">
        <ele>369.2</ele>
        <time>2013-02-18T13:09:21.000Z</time>
      </trkpt>
      <trkpt lat="43.97858" lon="5.1225">
        <ele>369.2</ele>
        <time>2013-02-18T13:09:22.000Z</time>
      </trkpt>
      <trkpt lat="43.97856" lon="5.12252">
        <ele>369.2</ele>
        <time>2013-02-18T13:09:23.000Z</time>
      </trkpt>
      <trkpt lat="43.97853" lon="5.12255">
        <ele>369.2</ele>
        <time>2013-02-18T13:09:25.000Z</time>
      </trkpt>
      <trkpt lat="43.97851" lon="5.12256">
        <ele>369.4</ele>
        <time>2013-02-18T13:09:26.000Z</time>
      </trkpt>
      <trkpt lat="43.97848" lon="5.12258">
        <ele>369.8</ele>
        <time>2013-02-18T13:09:28.000Z</time>
      </trkpt>
      <trkpt lat="43.97846" lon="5.12259">
        <ele>369.7</ele>
        <time>2013-02-18T13:09:29.000Z</time>
      </trkpt>
      <trkpt lat="43.97842" lon="5.1226">
        <ele>369.9</ele>
        <time>2013-02-18T13:09:31.000Z</time>
      </trkpt>
      <trkpt lat="43.97842" lon="5.12261">
        <ele>369.8</ele>
        <time>2013-02-18T13:09:32.000Z</time>
      </trkpt>
      <trkpt lat="43.9784" lon="5.12266">
        <ele>370.2</ele>
        <time>2013-02-18T13:09:37.000Z</time>
      </trkpt>
      <trkpt lat="43.97841" lon="5.12267">
        <ele>370.3</ele>
        <time>2013-02-18T13:09:38.000Z</time>
      </trkpt>
      <trkpt lat="43.97844" lon="5.12269">
        <ele>370.8</ele>
        <time>2013-02-18T13:09:40.000Z</time>
      </trkpt>
      <trkpt lat="43.97845" lon="5.12269">
        <ele>371.3</ele>
        <time>2013-02-18T13:09:41.000Z</time>
      </trkpt>
      <trkpt lat="43.97849" lon="5.12269">
        <ele>371.7</ele>
        <time>2013-02-18T13:09:43.000Z</time>
      </trkpt>
      <trkpt lat="43.9785" lon="5.12267">
        <ele>371.9</ele>
        <time>2013-02-18T13:09:44.000Z</time>
      </trkpt>
      <trkpt lat="43.97855" lon="5.12269">
        <ele>372.9</ele>
        <time>2013-02-18T13:09:47.000Z</time>
      </trkpt>
      <trkpt lat="43.97856" lon="5.1227">
        <ele>373.2</ele>
        <time>2013-02-18T13:09:48.000Z</time>
      </trkpt>
      <trkpt lat="43.97859" lon="5.12272">
        <ele>374.1</ele>
        <time>2013-02-18T13:09:50.000Z</time>
      </trkpt>
      <trkpt lat="43.97861" lon="5.12274">
        <ele>373.3</ele>
        <time>2013-02-18T13:09:51.000Z</time>
      </trkpt>
      <trkpt lat="43.97864" lon="5.12277">
        <ele>373.6</ele>
        <time>2013-02-18T13:09:53.000Z</time>
      </trkpt>
      <trkpt lat="43.97865" lon="5.12278">
        <ele>373.9</ele>
        <time>2013-02-18T13:09:54.000Z</time>
      </trkpt>
      <trkpt lat="43.97868" lon="5.1228">
        <ele>374.5</ele>
        <time>2013-02-18T13:09:56.000Z</time>
      </trkpt>
      <trkpt lat="43.9787" lon="5.12281">
        <ele>375.1</ele>
        <time>2013-02-18T13:09:57.000Z</time>
      </trkpt>
      <trkpt lat="43.97872" lon="5.12283">
        <ele>376.1</ele>
        <time>2013-02-18T13:09:59.000Z</time>
      </trkpt>
      <trkpt lat="43.97874" lon="5.12285">
        <ele>373.5</ele>
        <time>2013-02-18T13:10:00.000Z</time>
      </trkpt>
      <trkpt lat="43.97877" lon="5.12287">
        <ele>373.4</ele>
        <time>2013-02-18T13:10:02.000Z</time>
      </trkpt>
      <trkpt lat="43.97879" lon="5.12289">
        <ele>373</ele>
        <time>2013-02-18T13:10:03.000Z</time>
      </trkpt>
      <trkpt lat="43.97882" lon="5.12292">
        <ele>373.2</ele>
        <time>2013-02-18T13:10:06.000Z</time>
      </trkpt>
      <trkpt lat="43.97884" lon="5.12294">
        <ele>373.1</ele>
        <time>2013-02-18T13:10:07.000Z</time>
      </trkpt>
      <trkpt lat="43.97886" lon="5.12297">
        <ele>372.7</ele>
        <time>2013-02-18T13:10:09.000Z</time>
      </trkpt>
      <trkpt lat="43.97888" lon="5.12299">
        <ele>372.2</ele>
        <time>2013-02-18T13:10:10.000Z</time>
      </trkpt>
      <trkpt lat="43.9789" lon="5.12301">
        <ele>372.4</ele>
        <time>2013-02-18T13:10:12.000Z</time>
      </trkpt>
      <trkpt lat="43.97891" lon="5.12303">
        <ele>372.3</ele>
        <time>2013-02-18T13:10:13.000Z</time>
      </trkpt>
      <trkpt lat="43.97895" lon="5.12305">
        <ele>372.5</ele>
        <time>2013-02-18T13:10:16.000Z</time>
      </trkpt>
      <trkpt lat="43.97896" lon="5.12306">
        <ele>372.5</ele>
        <time>2013-02-18T13:10:17.000Z</time>
      </trkpt>
      <trkpt lat="43.97899" lon="5.12309">
        <ele>372.5</ele>
        <time>2013-02-18T13:10:19.000Z</time>
      </trkpt>
      <trkpt lat="43.97901" lon="5.1231">
        <ele>372.3</ele>
        <time>2013-02-18T13:10:20.000Z</time>
      </trkpt>
      <trkpt lat="43.97905" lon="5.12313">
        <ele>373.5</ele>
        <time>2013-02-18T13:10:23.000Z</time>
      </trkpt>
      <trkpt lat="43.97906" lon="5.12314">
        <ele>373.5</ele>
        <time>2013-02-18T13:10:24.000Z</time>
      </trkpt>
      <trkpt lat="43.97908" lon="5.12317">
        <ele>374.2</ele>
        <time>2013-02-18T13:10:26.000Z</time>
      </trkpt>
      <trkpt lat="43.9791" lon="5.12319">
        <ele>374.5</ele>
        <time>2013-02-18T13:10:27.000Z</time>
      </trkpt>
      <trkpt lat="43.97912" lon="5.12323">
        <ele>374.6</ele>
        <time>2013-02-18T13:10:29.000Z</time>
      </trkpt>
      <trkpt lat="43.97913" lon="5.12324">
        <ele>374.8</ele>
        <time>2013-02-18T13:10:30.000Z</time>
      </trkpt>
      <trkpt lat="43.97916" lon="5.12328">
        <ele>375.7</ele>
        <time>2013-02-18T13:10:32.000Z</time>
      </trkpt>
      <trkpt lat="43.97917" lon="5.1233">
        <ele>375.7</ele>
        <time>2013-02-18T13:10:33.000Z</time>
      </trkpt>
      <trkpt lat="43.97918" lon="5.12336">
        <ele>375.9</ele>
        <time>2013-02-18T13:10:36.000Z</time>
      </trkpt>
      <trkpt lat="43.97918" lon="5.12338">
        <ele>376.3</ele>
        <time>2013-02-18T13:10:37.000Z</time>
      </trkpt>
      <trkpt lat="43.97917" lon="5.12342">
        <ele>376.3</ele>
        <time>2013-02-18T13:10:39.000Z</time>
      </trkpt>
      <trkpt lat="43.97916" lon="5.12344">
        <ele>376.4</ele>
        <time>2013-02-18T13:10:40.000Z</time>
      </trkpt>
      <trkpt lat="43.97916" lon="5.12348">
        <ele>376.5</ele>
        <time>2013-02-18T13:10:42.000Z</time>
      </trkpt>
      <trkpt lat="43.97916" lon="5.12351">
        <ele>376.3</ele>
        <time>2013-02-18T13:10:43.000Z</time>
      </trkpt>
      <trkpt lat="43.97915" lon="5.12353">
        <ele>375.9</ele>
        <time>2013-02-18T13:10:44.000Z</time>
      </trkpt>
      <trkpt lat="43.97915" lon="5.12357">
        <ele>375.5</ele>
        <time>2013-02-18T13:10:45.000Z</time>
      </trkpt>
      <trkpt lat="43.97915" lon="5.1236">
        <ele>375.1</ele>
        <time>2013-02-18T13:10:46.000Z</time>
      </trkpt>
      <trkpt lat="43.97916" lon="5.12364">
        <ele>374.3</ele>
        <time>2013-02-18T13:10:47.000Z</time>
      </trkpt>
      <trkpt lat="43.97916" lon="5.12367">
        <ele>373.6</ele>
        <time>2013-02-18T13:10:48.000Z</time>
      </trkpt>
      <trkpt lat="43.97917" lon="5.12371">
        <ele>373.2</ele>
        <time>2013-02-18T13:10:49.000Z</time>
      </trkpt>
      <trkpt lat="43.97919" lon="5.12375">
        <ele>372.7</ele>
        <time>2013-02-18T13:10:50.000Z</time>
      </trkpt>
      <trkpt lat="43.9792" lon="5.12379">
        <ele>372.4</ele>
        <time>2013-02-18T13:10:51.000Z</time>
      </trkpt>
      <trkpt lat="43.97921" lon="5.12384">
        <ele>372</ele>
        <time>2013-02-18T13:10:52.000Z</time>
      </trkpt>
      <trkpt lat="43.97923" lon="5.12389">
        <ele>371.5</ele>
        <time>2013-02-18T13:10:53.000Z</time>
      </trkpt>
      <trkpt lat="43.97924" lon="5.12393">
        <ele>371.1</ele>
        <time>2013-02-18T13:10:54.000Z</time>
      </trkpt>
      <trkpt lat="43.97926" lon="5.12398">
        <ele>370.6</ele>
        <time>2013-02-18T13:10:55.000Z</time>
      </trkpt>
      <trkpt lat="43.97927" lon="5.12403">
        <ele>370.1</ele>
        <time>2013-02-18T13:10:56.000Z</time>
      </trkpt>
      <trkpt lat="43.97928" lon="5.12407">
        <ele>369.7</ele>
        <time>2013-02-18T13:10:57.000Z</time>
      </trkpt>
      <trkpt lat="43.97929" lon="5.12412">
        <ele>369.3</ele>
        <time>2013-02-18T13:10:58.000Z</time>
      </trkpt>
      <trkpt lat="43.97931" lon="5.12416">
        <ele>368.8</ele>
        <time>2013-02-18T13:10:59.000Z</time>
      </trkpt>
      <trkpt lat="43.97932" lon="5.1242">
        <ele>368.6</ele>
        <time>2013-02-18T13:11:00.000Z</time>
      </trkpt>
      <trkpt lat="43.97933" lon="5.12424">
        <ele>367.6</ele>
        <time>2013-02-18T13:11:01.000Z</time>
      </trkpt>
      <trkpt lat="43.97935" lon="5.12428">
        <ele>366.9</ele>
        <time>2013-02-18T13:11:02.000Z</time>
      </trkpt>
      <trkpt lat="43.97936" lon="5.12433">
        <ele>366.6</ele>
        <time>2013-02-18T13:11:03.000Z</time>
      </trkpt>
      <trkpt lat="43.97938" lon="5.12438">
        <ele>366.3</ele>
        <time>2013-02-18T13:11:04.000Z</time>
      </trkpt>
      <trkpt lat="43.9794" lon="5.12443">
        <ele>366.5</ele>
        <time>2013-02-18T13:11:05.000Z</time>
      </trkpt>
      <trkpt lat="43.97941" lon="5.12449">
        <ele>367.1</ele>
        <time>2013-02-18T13:11:06.000Z</time>
      </trkpt>
      <trkpt lat="43.97944" lon="5.12452">
        <ele>369.6</ele>
        <time>2013-02-18T13:11:07.000Z</time>
      </trkpt>
      <trkpt lat="43.97945" lon="5.12457">
        <ele>369.1</ele>
        <time>2013-02-18T13:11:08.000Z</time>
      </trkpt>
      <trkpt lat="43.97946" lon="5.12462">
        <ele>368.9</ele>
        <time>2013-02-18T13:11:09.000Z</time>
      </trkpt>
      <trkpt lat="43.97947" lon="5.12466">
        <ele>368.4</ele>
        <time>2013-02-18T13:11:10.000Z</time>
      </trkpt>
      <trkpt lat="43.97948" lon="5.12469">
        <ele>368.1</ele>
        <time>2013-02-18T13:11:11.000Z</time>
      </trkpt>
      <trkpt lat="43.9795" lon="5.12472">
        <ele>367.8</ele>
        <time>2013-02-18T13:11:12.000Z</time>
      </trkpt>
      <trkpt lat="43.97951" lon="5.12477">
        <ele>368.6</ele>
        <time>2013-02-18T13:11:14.000Z</time>
      </trkpt>
      <trkpt lat="43.97952" lon="5.12479">
        <ele>369.3</ele>
        <time>2013-02-18T13:11:15.000Z</time>
      </trkpt>
      <trkpt lat="43.97954" lon="5.12483">
        <ele>368.7</ele>
        <time>2013-02-18T13:11:17.000Z</time>
      </trkpt>
      <trkpt lat="43.97956" lon="5.12484">
        <ele>368.6</ele>
        <time>2013-02-18T13:11:18.000Z</time>
      </trkpt>
      <trkpt lat="43.9796" lon="5.12485">
        <ele>368.6</ele>
        <time>2013-02-18T13:11:20.000Z</time>
      </trkpt>
      <trkpt lat="43.97962" lon="5.12485">
        <ele>367.5</ele>
        <time>2013-02-18T13:11:21.000Z</time>
      </trkpt>
      <trkpt lat="43.97966" lon="5.12483">
        <ele>367.4</ele>
        <time>2013-02-18T13:11:23.000Z</time>
      </trkpt>
      <trkpt lat="43.97967" lon="5.12482">
        <ele>367.5</ele>
        <time>2013-02-18T13:11:24.000Z</time>
      </trkpt>
      <trkpt lat="43.97972" lon="5.12482">
        <ele>366.8</ele>
        <time>2013-02-18T13:11:26.000Z</time>
      </trkpt>
      <trkpt lat="43.97974" lon="5.12482">
        <ele>366.8</ele>
        <time>2013-02-18T13:11:27.000Z</time>
      </trkpt>
      <trkpt lat="43.97978" lon="5.12484">
        <ele>366.9</ele>
        <time>2013-02-18T13:11:40.000Z</time>
      </trkpt>
      <trkpt lat="43.97978" lon="5.12484">
        <ele>366.6</ele>
        <time>2013-02-18T13:11:41.000Z</time>
      </trkpt>
      <trkpt lat="43.97981" lon="5.1248">
        <ele>366.9</ele>
        <time>2013-02-18T13:12:18.000Z</time>
      </trkpt>
      <trkpt lat="43.97984" lon="5.12478">
        <ele>366.3</ele>
        <time>2013-02-18T13:12:19.000Z</time>
      </trkpt>
      <trkpt lat="43.97986" lon="5.12478">
        <ele>366.2</ele>
        <time>2013-02-18T13:12:20.000Z</time>
      </trkpt>
      <trkpt lat="43.97988" lon="5.12478">
        <ele>365.6</ele>
        <time>2013-02-18T13:12:21.000Z</time>
      </trkpt>
      <trkpt lat="43.9799" lon="5.12478">
        <ele>364.5</ele>
        <time>2013-02-18T13:12:22.000Z</time>
      </trkpt>
      <trkpt lat="43.97994" lon="5.12476">
        <ele>364.9</ele>
        <time>2013-02-18T13:12:23.000Z</time>
      </trkpt>
      <trkpt lat="43.97997" lon="5.12476">
        <ele>363.9</ele>
        <time>2013-02-18T13:12:24.000Z</time>
      </trkpt>
      <trkpt lat="43.98001" lon="5.12475">
        <ele>363.2</ele>
        <time>2013-02-18T13:12:25.000Z</time>
      </trkpt>
      <trkpt lat="43.98003" lon="5.12473">
        <ele>361.9</ele>
        <time>2013-02-18T13:12:26.000Z</time>
      </trkpt>
      <trkpt lat="43.98006" lon="5.12472">
        <ele>361.4</ele>
        <time>2013-02-18T13:12:27.000Z</time>
      </trkpt>
      <trkpt lat="43.9801" lon="5.1247">
        <ele>361.5</ele>
        <time>2013-02-18T13:12:28.000Z</time>
      </trkpt>
      <trkpt lat="43.98012" lon="5.12469">
        <ele>361.4</ele>
        <time>2013-02-18T13:12:29.000Z</time>
      </trkpt>
      <trkpt lat="43.98015" lon="5.12468">
        <ele>362.3</ele>
        <time>2013-02-18T13:12:30.000Z</time>
      </trkpt>
      <trkpt lat="43.98019" lon="5.12467">
        <ele>362</ele>
        <time>2013-02-18T13:12:31.000Z</time>
      </trkpt>
      <trkpt lat="43.98023" lon="5.12466">
        <ele>361.9</ele>
        <time>2013-02-18T13:12:32.000Z</time>
      </trkpt>
      <trkpt lat="43.98026" lon="5.12464">
        <ele>361.2</ele>
        <time>2013-02-18T13:12:33.000Z</time>
      </trkpt>
      <trkpt lat="43.9803" lon="5.12463">
        <ele>360.7</ele>
        <time>2013-02-18T13:12:34.000Z</time>
      </trkpt>
      <trkpt lat="43.98034" lon="5.12461">
        <ele>360.4</ele>
        <time>2013-02-18T13:12:35.000Z</time>
      </trkpt>
      <trkpt lat="43.98039" lon="5.1246">
        <ele>360.4</ele>
        <time>2013-02-18T13:12:36.000Z</time>
      </trkpt>
      <trkpt lat="43.98042" lon="5.12457">
        <ele>360.1</ele>
        <time>2013-02-18T13:12:37.000Z</time>
      </trkpt>
      <trkpt lat="43.98045" lon="5.12455">
        <ele>359.8</ele>
        <time>2013-02-18T13:12:38.000Z</time>
      </trkpt>
      <trkpt lat="43.98049" lon="5.12452">
        <ele>359.2</ele>
        <time>2013-02-18T13:12:39.000Z</time>
      </trkpt>
      <trkpt lat="43.98053" lon="5.12452">
        <ele>358.7</ele>
        <time>2013-02-18T13:12:40.000Z</time>
      </trkpt>
      <trkpt lat="43.98056" lon="5.12451">
        <ele>359</ele>
        <time>2013-02-18T13:12:41.000Z</time>
      </trkpt>
      <trkpt lat="43.98059" lon="5.12449">
        <ele>358.9</ele>
        <time>2013-02-18T13:12:42.000Z</time>
      </trkpt>
      <trkpt lat="43.98063" lon="5.12448">
        <ele>358.8</ele>
        <time>2013-02-18T13:12:43.000Z</time>
      </trkpt>
      <trkpt lat="43.98067" lon="5.12447">
        <ele>358.9</ele>
        <time>2013-02-18T13:12:44.000Z</time>
      </trkpt>
      <trkpt lat="43.9807" lon="5.12446">
        <ele>358.9</ele>
        <time>2013-02-18T13:12:45.000Z</time>
      </trkpt>
      <trkpt lat="43.98074" lon="5.12444">
        <ele>359.1</ele>
        <time>2013-02-18T13:12:46.000Z</time>
      </trkpt>
      <trkpt lat="43.98078" lon="5.12443">
        <ele>358.8</ele>
        <time>2013-02-18T13:12:47.000Z</time>
      </trkpt>
      <trkpt lat="43.98081" lon="5.12442">
        <ele>358.4</ele>
        <time>2013-02-18T13:12:48.000Z</time>
      </trkpt>
      <trkpt lat="43.98085" lon="5.1244">
        <ele>358.1</ele>
        <time>2013-02-18T13:12:49.000Z</time>
      </trkpt>
      <trkpt lat="43.98089" lon="5.12438">
        <ele>357.8</ele>
        <time>2013-02-18T13:12:50.000Z</time>
      </trkpt>
      <trkpt lat="43.9809" lon="5.12435">
        <ele>357.6</ele>
        <time>2013-02-18T13:12:51.000Z</time>
      </trkpt>
      <trkpt lat="43.98095" lon="5.12431">
        <ele>356.6</ele>
        <time>2013-02-18T13:12:53.000Z</time>
      </trkpt>
      <trkpt lat="43.98097" lon="5.12429">
        <ele>356.7</ele>
        <time>2013-02-18T13:12:54.000Z</time>
      </trkpt>
      <trkpt lat="43.981" lon="5.1243">
        <ele>355.8</ele>
        <time>2013-02-18T13:12:55.000Z</time>
      </trkpt>
      <trkpt lat="43.98102" lon="5.12432">
        <ele>355.4</ele>
        <time>2013-02-18T13:12:56.000Z</time>
      </trkpt>
      <trkpt lat="43.98104" lon="5.12435">
        <ele>354.8</ele>
        <time>2013-02-18T13:12:57.000Z</time>
      </trkpt>
      <trkpt lat="43.98105" lon="5.12439">
        <ele>352.7</ele>
        <time>2013-02-18T13:12:58.000Z</time>
      </trkpt>
      <trkpt lat="43.98104" lon="5.12442">
        <ele>352.6</ele>
        <time>2013-02-18T13:12:59.000Z</time>
      </trkpt>
      <trkpt lat="43.98103" lon="5.12445">
        <ele>352.2</ele>
        <time>2013-02-18T13:13:00.000Z</time>
      </trkpt>
      <trkpt lat="43.98101" lon="5.12448">
        <ele>352</ele>
        <time>2013-02-18T13:13:01.000Z</time>
      </trkpt>
      <trkpt lat="43.98099" lon="5.1245">
        <ele>351.9</ele>
        <time>2013-02-18T13:13:02.000Z</time>
      </trkpt>
      <trkpt lat="43.98097" lon="5.12452">
        <ele>351.9</ele>
        <time>2013-02-18T13:13:03.000Z</time>
      </trkpt>
      <trkpt lat="43.98095" lon="5.12455">
        <ele>351.7</ele>
        <time>2013-02-18T13:13:04.000Z</time>
      </trkpt>
      <trkpt lat="43.98093" lon="5.12457">
        <ele>351.8</ele>
        <time>2013-02-18T13:13:05.000Z</time>
      </trkpt>
      <trkpt lat="43.98091" lon="5.1246">
        <ele>352.1</ele>
        <time>2013-02-18T13:13:06.000Z</time>
      </trkpt>
      <trkpt lat="43.98088" lon="5.12462">
        <ele>352.3</ele>
        <time>2013-02-18T13:13:07.000Z</time>
      </trkpt>
      <trkpt lat="43.98085" lon="5.12464">
        <ele>352.4</ele>
        <time>2013-02-18T13:13:08.000Z</time>
      </trkpt>
      <trkpt lat="43.98083" lon="5.12465">
        <ele>352.5</ele>
        <time>2013-02-18T13:13:09.000Z</time>
      </trkpt>
      <trkpt lat="43.9808" lon="5.12466">
        <ele>352.6</ele>
        <time>2013-02-18T13:13:10.000Z</time>
      </trkpt>
      <trkpt lat="43.98077" lon="5.12467">
        <ele>352.9</ele>
        <time>2013-02-18T13:13:11.000Z</time>
      </trkpt>
      <trkpt lat="43.98075" lon="5.12468">
        <ele>352.7</ele>
        <time>2013-02-18T13:13:12.000Z</time>
      </trkpt>
      <trkpt lat="43.98072" lon="5.12468">
        <ele>352.5</ele>
        <time>2013-02-18T13:13:13.000Z</time>
      </trkpt>
      <trkpt lat="43.98068" lon="5.1247">
        <ele>353.1</ele>
        <time>2013-02-18T13:13:15.000Z</time>
      </trkpt>
      <trkpt lat="43.98066" lon="5.12471">
        <ele>353.2</ele>
        <time>2013-02-18T13:13:16.000Z</time>
      </trkpt>
      <trkpt lat="43.98064" lon="5.12473">
        <ele>352.7</ele>
        <time>2013-02-18T13:13:17.000Z</time>
      </trkpt>
      <trkpt lat="43.98061" lon="5.12475">
        <ele>352.1</ele>
        <time>2013-02-18T13:13:18.000Z</time>
      </trkpt>
      <trkpt lat="43.98057" lon="5.12478">
        <ele>351.4</ele>
        <time>2013-02-18T13:13:19.000Z</time>
      </trkpt>
      <trkpt lat="43.98054" lon="5.12481">
        <ele>351.2</ele>
        <time>2013-02-18T13:13:20.000Z</time>
      </trkpt>
      <trkpt lat="43.9805" lon="5.12484">
        <ele>351.2</ele>
        <time>2013-02-18T13:13:21.000Z</time>
      </trkpt>
      <trkpt lat="43.98046" lon="5.12486">
        <ele>351.1</ele>
        <time>2013-02-18T13:13:22.000Z</time>
      </trkpt>
      <trkpt lat="43.98043" lon="5.12487">
        <ele>351.3</ele>
        <time>2013-02-18T13:13:23.000Z</time>
      </trkpt>
      <trkpt lat="43.9804" lon="5.12489">
        <ele>351.5</ele>
        <time>2013-02-18T13:13:24.000Z</time>
      </trkpt>
      <trkpt lat="43.98037" lon="5.1249">
        <ele>351.8</ele>
        <time>2013-02-18T13:13:25.000Z</time>
      </trkpt>
      <trkpt lat="43.98034" lon="5.12491">
        <ele>351.9</ele>
        <time>2013-02-18T13:13:26.000Z</time>
      </trkpt>
      <trkpt lat="43.98031" lon="5.12492">
        <ele>351.9</ele>
        <time>2013-02-18T13:13:27.000Z</time>
      </trkpt>
      <trkpt lat="43.98028" lon="5.12494">
        <ele>351.9</ele>
        <time>2013-02-18T13:13:28.000Z</time>
      </trkpt>
      <trkpt lat="43.98024" lon="5.12495">
        <ele>351.9</ele>
        <time>2013-02-18T13:13:29.000Z</time>
      </trkpt>
      <trkpt lat="43.98021" lon="5.12496">
        <ele>351.9</ele>
        <time>2013-02-18T13:13:30.000Z</time>
      </trkpt>
      <trkpt lat="43.98017" lon="5.12497">
        <ele>352.3</ele>
        <time>2013-02-18T13:13:31.000Z</time>
      </trkpt>
      <trkpt lat="43.98014" lon="5.12499">
        <ele>352.4</ele>
        <time>2013-02-18T13:13:32.000Z</time>
      </trkpt>
      <trkpt lat="43.98011" lon="5.125">
        <ele>352.5</ele>
        <time>2013-02-18T13:13:33.000Z</time>
      </trkpt>
      <trkpt lat="43.98008" lon="5.12502">
        <ele>352.7</ele>
        <time>2013-02-18T13:13:34.000Z</time>
      </trkpt>
      <trkpt lat="43.98005" lon="5.12503">
        <ele>352.9</ele>
        <time>2013-02-18T13:13:35.000Z</time>
      </trkpt>
      <trkpt lat="43.98002" lon="5.12504">
        <ele>353.2</ele>
        <time>2013-02-18T13:13:36.000Z</time>
      </trkpt>
      <trkpt lat="43.97999" lon="5.12506">
        <ele>353.3</ele>
        <time>2013-02-18T13:13:37.000Z</time>
      </trkpt>
      <trkpt lat="43.97996" lon="5.12507">
        <ele>353.7</ele>
        <time>2013-02-18T13:13:38.000Z</time>
      </trkpt>
      <trkpt lat="43.97994" lon="5.12508">
        <ele>353.9</ele>
        <time>2013-02-18T13:13:39.000Z</time>
      </trkpt>
      <trkpt lat="43.97992" lon="5.12509">
        <ele>354</ele>
        <time>2013-02-18T13:13:40.000Z</time>
      </trkpt>
      <trkpt lat="43.97989" lon="5.12509">
        <ele>354</ele>
        <time>2013-02-18T13:13:41.000Z</time>
      </trkpt>
      <trkpt lat="43.97987" lon="5.1251">
        <ele>354.1</ele>
        <time>2013-02-18T13:13:42.000Z</time>
      </trkpt>
      <trkpt lat="43.97984" lon="5.1251">
        <ele>354.2</ele>
        <time>2013-02-18T13:13:43.000Z</time>
      </trkpt>
      <trkpt lat="43.97981" lon="5.12511">
        <ele>354.2</ele>
        <time>2013-02-18T13:13:44.000Z</time>
      </trkpt>
      <trkpt lat="43.97977" lon="5.12513">
        <ele>354.9</ele>
        <time>2013-02-18T13:13:46.000Z</time>
      </trkpt>
      <trkpt lat="43.97977" lon="5.12514">
        <ele>355</ele>
        <time>2013-02-18T13:13:47.000Z</time>
      </trkpt>
      <trkpt lat="43.97975" lon="5.12518">
        <ele>354.7</ele>
        <time>2013-02-18T13:13:50.000Z</time>
      </trkpt>
      <trkpt lat="43.97971" lon="5.12523">
        <ele>354</ele>
        <time>2013-02-18T13:13:51.000Z</time>
      </trkpt>
      <trkpt lat="43.97969" lon="5.12527">
        <ele>353.3</ele>
        <time>2013-02-18T13:13:53.000Z</time>
      </trkpt>
      <trkpt lat="43.97969" lon="5.12531">
        <ele>352.7</ele>
        <time>2013-02-18T13:13:54.000Z</time>
      </trkpt>
      <trkpt lat="43.97969" lon="5.12534">
        <ele>352.1</ele>
        <time>2013-02-18T13:13:55.000Z</time>
      </trkpt>
      <trkpt lat="43.97968" lon="5.12539">
        <ele>351.4</ele>
        <time>2013-02-18T13:13:56.000Z</time>
      </trkpt>
      <trkpt lat="43.97968" lon="5.12544">
        <ele>350.8</ele>
        <time>2013-02-18T13:13:57.000Z</time>
      </trkpt>
      <trkpt lat="43.97968" lon="5.12548">
        <ele>350.1</ele>
        <time>2013-02-18T13:13:58.000Z</time>
      </trkpt>
      <trkpt lat="43.97969" lon="5.12553">
        <ele>349.6</ele>
        <time>2013-02-18T13:13:59.000Z</time>
      </trkpt>
      <trkpt lat="43.97968" lon="5.12557">
        <ele>349.3</ele>
        <time>2013-02-18T13:14:00.000Z</time>
      </trkpt>
      <trkpt lat="43.97969" lon="5.12561">
        <ele>348.5</ele>
        <time>2013-02-18T13:14:01.000Z</time>
      </trkpt>
      <trkpt lat="43.97968" lon="5.12565">
        <ele>348</ele>
        <time>2013-02-18T13:14:02.000Z</time>
      </trkpt>
      <trkpt lat="43.97966" lon="5.12568">
        <ele>348.3</ele>
        <time>2013-02-18T13:14:04.000Z</time>
      </trkpt>
      <trkpt lat="43.97964" lon="5.12568">
        <ele>348.4</ele>
        <time>2013-02-18T13:14:05.000Z</time>
      </trkpt>
      <trkpt lat="43.97961" lon="5.12571">
        <ele>348.5</ele>
        <time>2013-02-18T13:14:07.000Z</time>
      </trkpt>
      <trkpt lat="43.97959" lon="5.12571">
        <ele>348.4</ele>
        <time>2013-02-18T13:14:08.000Z</time>
      </trkpt>
      <trkpt lat="43.97954" lon="5.12571">
        <ele>349.1</ele>
        <time>2013-02-18T13:14:10.000Z</time>
      </trkpt>
      <trkpt lat="43.97951" lon="5.12572">
        <ele>349.4</ele>
        <time>2013-02-18T13:14:11.000Z</time>
      </trkpt>
      <trkpt lat="43.97949" lon="5.12571">
        <ele>349.4</ele>
        <time>2013-02-18T13:14:12.000Z</time>
      </trkpt>
      <trkpt lat="43.97947" lon="5.12571">
        <ele>349.5</ele>
        <time>2013-02-18T13:14:13.000Z</time>
      </trkpt>
      <trkpt lat="43.97944" lon="5.12571">
        <ele>349.6</ele>
        <time>2013-02-18T13:14:14.000Z</time>
      </trkpt>
      <trkpt lat="43.97941" lon="5.12572">
        <ele>349.9</ele>
        <time>2013-02-18T13:14:15.000Z</time>
      </trkpt>
      <trkpt lat="43.97939" lon="5.12572">
        <ele>350.3</ele>
        <time>2013-02-18T13:14:16.000Z</time>
      </trkpt>
      <trkpt lat="43.97936" lon="5.12573">
        <ele>349.2</ele>
        <time>2013-02-18T13:14:17.000Z</time>
      </trkpt>
      <trkpt lat="43.97934" lon="5.12574">
        <ele>348.9</ele>
        <time>2013-02-18T13:14:18.000Z</time>
      </trkpt>
      <trkpt lat="43.97932" lon="5.12575">
        <ele>348.5</ele>
        <time>2013-02-18T13:14:19.000Z</time>
      </trkpt>
      <trkpt lat="43.97929" lon="5.12576">
        <ele>347.7</ele>
        <time>2013-02-18T13:14:20.000Z</time>
      </trkpt>
      <trkpt lat="43.97926" lon="5.12576">
        <ele>347.1</ele>
        <time>2013-02-18T13:14:21.000Z</time>
      </trkpt>
      <trkpt lat="43.97923" lon="5.12575">
        <ele>346.4</ele>
        <time>2013-02-18T13:14:22.000Z</time>
      </trkpt>
      <trkpt lat="43.97921" lon="5.12575">
        <ele>345.5</ele>
        <time>2013-02-18T13:14:23.000Z</time>
      </trkpt>
      <trkpt lat="43.97919" lon="5.12574">
        <ele>345.3</ele>
        <time>2013-02-18T13:14:24.000Z</time>
      </trkpt>
      <trkpt lat="43.97915" lon="5.12579">
        <ele>347.7</ele>
        <time>2013-02-18T13:14:25.000Z</time>
      </trkpt>
      <trkpt lat="43.97911" lon="5.12579">
        <ele>347.5</ele>
        <time>2013-02-18T13:14:26.000Z</time>
      </trkpt>
      <trkpt lat="43.97909" lon="5.12579">
        <ele>347.2</ele>
        <time>2013-02-18T13:14:27.000Z</time>
      </trkpt>
      <trkpt lat="43.97905" lon="5.1258">
        <ele>348.1</ele>
        <time>2013-02-18T13:14:28.000Z</time>
      </trkpt>
      <trkpt lat="43.97901" lon="5.12581">
        <ele>348.1</ele>
        <time>2013-02-18T13:14:29.000Z</time>
      </trkpt>
      <trkpt lat="43.97898" lon="5.12582">
        <ele>348.4</ele>
        <time>2013-02-18T13:14:30.000Z</time>
      </trkpt>
      <trkpt lat="43.97895" lon="5.12584">
        <ele>347.7</ele>
        <time>2013-02-18T13:14:31.000Z</time>
      </trkpt>
      <trkpt lat="43.97892" lon="5.12585">
        <ele>347.6</ele>
        <time>2013-02-18T13:14:32.000Z</time>
      </trkpt>
      <trkpt lat="43.9789" lon="5.12587">
        <ele>348.1</ele>
        <time>2013-02-18T13:14:33.000Z</time>
      </trkpt>
      <trkpt lat="43.97888" lon="5.12588">
        <ele>348.4</ele>
        <time>2013-02-18T13:14:34.000Z</time>
      </trkpt>
      <trkpt lat="43.97886" lon="5.12591">
        <ele>348</ele>
        <time>2013-02-18T13:14:35.000Z</time>
      </trkpt>
      <trkpt lat="43.97884" lon="5.12594">
        <ele>347.8</ele>
        <time>2013-02-18T13:14:36.000Z</time>
      </trkpt>
      <trkpt lat="43.97881" lon="5.12597">
        <ele>347.9</ele>
        <time>2013-02-18T13:14:37.000Z</time>
      </trkpt>
      <trkpt lat="43.97879" lon="5.12599">
        <ele>348.2</ele>
        <time>2013-02-18T13:14:38.000Z</time>
      </trkpt>
      <trkpt lat="43.97877" lon="5.12602">
        <ele>348.8</ele>
        <time>2013-02-18T13:14:39.000Z</time>
      </trkpt>
      <trkpt lat="43.97875" lon="5.12605">
        <ele>349</ele>
        <time>2013-02-18T13:14:40.000Z</time>
      </trkpt>
      <trkpt lat="43.97873" lon="5.12607">
        <ele>348.8</ele>
        <time>2013-02-18T13:14:41.000Z</time>
      </trkpt>
      <trkpt lat="43.97869" lon="5.12609">
        <ele>348.4</ele>
        <time>2013-02-18T13:15:25.000Z</time>
      </trkpt>
      <trkpt lat="43.97868" lon="5.1261">
        <ele>348.4</ele>
        <time>2013-02-18T13:15:26.000Z</time>
      </trkpt>
      <trkpt lat="43.97866" lon="5.12614">
        <ele>349.4</ele>
        <time>2013-02-18T13:15:28.000Z</time>
      </trkpt>
      <trkpt lat="43.97865" lon="5.12614">
        <ele>350.2</ele>
        <time>2013-02-18T13:15:29.000Z</time>
      </trkpt>
      <trkpt lat="43.97863" lon="5.12616">
        <ele>350.9</ele>
        <time>2013-02-18T13:15:31.000Z</time>
      </trkpt>
      <trkpt lat="43.97861" lon="5.12619">
        <ele>350.7</ele>
        <time>2013-02-18T13:15:32.000Z</time>
      </trkpt>
      <trkpt lat="43.9786" lon="5.12621">
        <ele>350.8</ele>
        <time>2013-02-18T13:15:33.000Z</time>
      </trkpt>
      <trkpt lat="43.97857" lon="5.12623">
        <ele>351.5</ele>
        <time>2013-02-18T13:15:34.000Z</time>
      </trkpt>
      <trkpt lat="43.97851" lon="5.12627">
        <ele>351.5</ele>
        <time>2013-02-18T13:15:35.000Z</time>
      </trkpt>
      <trkpt lat="43.97847" lon="5.1263">
        <ele>352.8</ele>
        <time>2013-02-18T13:15:36.000Z</time>
      </trkpt>
      <trkpt lat="43.97844" lon="5.12634">
        <ele>352.8</ele>
        <time>2013-02-18T13:15:37.000Z</time>
      </trkpt>
      <trkpt lat="43.97842" lon="5.12636">
        <ele>352.2</ele>
        <time>2013-02-18T13:15:38.000Z</time>
      </trkpt>
      <trkpt lat="43.97838" lon="5.12637">
        <ele>351.4</ele>
        <time>2013-02-18T13:15:39.000Z</time>
      </trkpt>
      <trkpt lat="43.97836" lon="5.1264">
        <ele>351.2</ele>
        <time>2013-02-18T13:15:40.000Z</time>
      </trkpt>
      <trkpt lat="43.97833" lon="5.12641">
        <ele>351.2</ele>
        <time>2013-02-18T13:15:41.000Z</time>
      </trkpt>
      <trkpt lat="43.97831" lon="5.12643">
        <ele>352.1</ele>
        <time>2013-02-18T13:15:42.000Z</time>
      </trkpt>
      <trkpt lat="43.97828" lon="5.12645">
        <ele>352</ele>
        <time>2013-02-18T13:15:43.000Z</time>
      </trkpt>
      <trkpt lat="43.97825" lon="5.12647">
        <ele>351.9</ele>
        <time>2013-02-18T13:15:44.000Z</time>
      </trkpt>
      <trkpt lat="43.97821" lon="5.12646">
        <ele>351.7</ele>
        <time>2013-02-18T13:15:45.000Z</time>
      </trkpt>
      <trkpt lat="43.97817" lon="5.12647">
        <ele>351.1</ele>
        <time>2013-02-18T13:15:46.000Z</time>
      </trkpt>
      <trkpt lat="43.97815" lon="5.12648">
        <ele>350.2</ele>
        <time>2013-02-18T13:15:47.000Z</time>
      </trkpt>
      <trkpt lat="43.97812" lon="5.12649">
        <ele>350.5</ele>
        <time>2013-02-18T13:15:48.000Z</time>
      </trkpt>
      <trkpt lat="43.97809" lon="5.1265">
        <ele>350.4</ele>
        <time>2013-02-18T13:15:49.000Z</time>
      </trkpt>
      <trkpt lat="43.97807" lon="5.12652">
        <ele>350.7</ele>
        <time>2013-02-18T13:15:50.000Z</time>
      </trkpt>
      <trkpt lat="43.97804" lon="5.12654">
        <ele>350.5</ele>
        <time>2013-02-18T13:15:51.000Z</time>
      </trkpt>
      <trkpt lat="43.97802" lon="5.12656">
        <ele>350.5</ele>
        <time>2013-02-18T13:15:52.000Z</time>
      </trkpt>
      <trkpt lat="43.97799" lon="5.12658">
        <ele>350.4</ele>
        <time>2013-02-18T13:15:53.000Z</time>
      </trkpt>
      <trkpt lat="43.97795" lon="5.12661">
        <ele>351.2</ele>
        <time>2013-02-18T13:15:54.000Z</time>
      </trkpt>
      <trkpt lat="43.97792" lon="5.12664">
        <ele>351.5</ele>
        <time>2013-02-18T13:15:55.000Z</time>
      </trkpt>
      <trkpt lat="43.97789" lon="5.12666">
        <ele>351.3</ele>
        <time>2013-02-18T13:15:56.000Z</time>
      </trkpt>
      <trkpt lat="43.97785" lon="5.12668">
        <ele>351.5</ele>
        <time>2013-02-18T13:15:57.000Z</time>
      </trkpt>
      <trkpt lat="43.97782" lon="5.1267">
        <ele>351.3</ele>
        <time>2013-02-18T13:15:58.000Z</time>
      </trkpt>
      <trkpt lat="43.97779" lon="5.12672">
        <ele>351.4</ele>
        <time>2013-02-18T13:15:59.000Z</time>
      </trkpt>
      <trkpt lat="43.97776" lon="5.12674">
        <ele>351.4</ele>
        <time>2013-02-18T13:16:00.000Z</time>
      </trkpt>
      <trkpt lat="43.97774" lon="5.12676">
        <ele>351.7</ele>
        <time>2013-02-18T13:16:01.000Z</time>
      </trkpt>
      <trkpt lat="43.97769" lon="5.12676">
        <ele>352.1</ele>
        <time>2013-02-18T13:16:02.000Z</time>
      </trkpt>
      <trkpt lat="43.97766" lon="5.12679">
        <ele>353.3</ele>
        <time>2013-02-18T13:16:04.000Z</time>
      </trkpt>
      <trkpt lat="43.97765" lon="5.12681">
        <ele>353.8</ele>
        <time>2013-02-18T13:16:05.000Z</time>
      </trkpt>
      <trkpt lat="43.97762" lon="5.12685">
        <ele>354.4</ele>
        <time>2013-02-18T13:16:07.000Z</time>
      </trkpt>
      <trkpt lat="43.97761" lon="5.12687">
        <ele>354.4</ele>
        <time>2013-02-18T13:16:08.000Z</time>
      </trkpt>
      <trkpt lat="43.9776" lon="5.12689">
        <ele>354.5</ele>
        <time>2013-02-18T13:16:09.000Z</time>
      </trkpt>
      <trkpt lat="43.97756" lon="5.1269">
        <ele>354.5</ele>
        <time>2013-02-18T13:16:10.000Z</time>
      </trkpt>
      <trkpt lat="43.97754" lon="5.12692">
        <ele>354.7</ele>
        <time>2013-02-18T13:16:11.000Z</time>
      </trkpt>
      <trkpt lat="43.97752" lon="5.12694">
        <ele>354.7</ele>
        <time>2013-02-18T13:16:12.000Z</time>
      </trkpt>
      <trkpt lat="43.97751" lon="5.12696">
        <ele>354.2</ele>
        <time>2013-02-18T13:16:13.000Z</time>
      </trkpt>
      <trkpt lat="43.97746" lon="5.12697">
        <ele>354.9</ele>
        <time>2013-02-18T13:16:14.000Z</time>
      </trkpt>
      <trkpt lat="43.97743" lon="5.12698">
        <ele>355.3</ele>
        <time>2013-02-18T13:16:15.000Z</time>
      </trkpt>
      <trkpt lat="43.97741" lon="5.12699">
        <ele>355.1</ele>
        <time>2013-02-18T13:16:16.000Z</time>
      </trkpt>
      <trkpt lat="43.97738" lon="5.127">
        <ele>355.2</ele>
        <time>2013-02-18T13:16:17.000Z</time>
      </trkpt>
      <trkpt lat="43.97736" lon="5.12701">
        <ele>355.3</ele>
        <time>2013-02-18T13:16:18.000Z</time>
      </trkpt>
      <trkpt lat="43.97738" lon="5.12704">
        <ele>353.8</ele>
        <time>2013-02-18T13:16:24.000Z</time>
      </trkpt>
      <trkpt lat="43.97742" lon="5.12703">
        <ele>353.5</ele>
        <time>2013-02-18T13:16:25.000Z</time>
      </trkpt>
      <trkpt lat="43.97745" lon="5.12701">
        <ele>352.6</ele>
        <time>2013-02-18T13:16:26.000Z</time>
      </trkpt>
      <trkpt lat="43.97749" lon="5.127">
        <ele>351.8</ele>
        <time>2013-02-18T13:16:27.000Z</time>
      </trkpt>
      <trkpt lat="43.97752" lon="5.12698">
        <ele>351.6</ele>
        <time>2013-02-18T13:16:28.000Z</time>
      </trkpt>
      <trkpt lat="43.97754" lon="5.12697">
        <ele>351.6</ele>
        <time>2013-02-18T13:16:29.000Z</time>
      </trkpt>
      <trkpt lat="43.97758" lon="5.12694">
        <ele>351.5</ele>
        <time>2013-02-18T13:16:32.000Z</time>
      </trkpt>
      <trkpt lat="43.97761" lon="5.12693">
        <ele>351.5</ele>
        <time>2013-02-18T13:16:33.000Z</time>
      </trkpt>
      <trkpt lat="43.97764" lon="5.12691">
        <ele>350.9</ele>
        <time>2013-02-18T13:16:34.000Z</time>
      </trkpt>
      <trkpt lat="43.97767" lon="5.1269">
        <ele>350.6</ele>
        <time>2013-02-18T13:16:35.000Z</time>
      </trkpt>
      <trkpt lat="43.97771" lon="5.12687">
        <ele>350.2</ele>
        <time>2013-02-18T13:16:36.000Z</time>
      </trkpt>
      <trkpt lat="43.97776" lon="5.12685">
        <ele>349.4</ele>
        <time>2013-02-18T13:16:37.000Z</time>
      </trkpt>
      <trkpt lat="43.97781" lon="5.12683">
        <ele>348.3</ele>
        <time>2013-02-18T13:16:38.000Z</time>
      </trkpt>
      <trkpt lat="43.97785" lon="5.12682">
        <ele>348.3</ele>
        <time>2013-02-18T13:16:39.000Z</time>
      </trkpt>
      <trkpt lat="43.9779" lon="5.1268">
        <ele>347.5</ele>
        <time>2013-02-18T13:16:40.000Z</time>
      </trkpt>
      <trkpt lat="43.97794" lon="5.12678">
        <ele>346.7</ele>
        <time>2013-02-18T13:16:41.000Z</time>
      </trkpt>
      <trkpt lat="43.97799" lon="5.12676">
        <ele>345.3</ele>
        <time>2013-02-18T13:16:42.000Z</time>
      </trkpt>
      <trkpt lat="43.97804" lon="5.12675">
        <ele>345</ele>
        <time>2013-02-18T13:16:43.000Z</time>
      </trkpt>
      <trkpt lat="43.97808" lon="5.12674">
        <ele>344.3</ele>
        <time>2013-02-18T13:16:44.000Z</time>
      </trkpt>
      <trkpt lat="43.97812" lon="5.12673">
        <ele>344.2</ele>
        <time>2013-02-18T13:16:45.000Z</time>
      </trkpt>
      <trkpt lat="43.97817" lon="5.12673">
        <ele>343.8</ele>
        <time>2013-02-18T13:16:46.000Z</time>
      </trkpt>
      <trkpt lat="43.97821" lon="5.12673">
        <ele>343</ele>
        <time>2013-02-18T13:16:47.000Z</time>
      </trkpt>
      <trkpt lat="43.97824" lon="5.12672">
        <ele>342.2</ele>
        <time>2013-02-18T13:16:48.000Z</time>
      </trkpt>
      <trkpt lat="43.97828" lon="5.12671">
        <ele>341.4</ele>
        <time>2013-02-18T13:16:49.000Z</time>
      </trkpt>
      <trkpt lat="43.97832" lon="5.12671">
        <ele>341.3</ele>
        <time>2013-02-18T13:16:50.000Z</time>
      </trkpt>
      <trkpt lat="43.97836" lon="5.12671">
        <ele>340.9</ele>
        <time>2013-02-18T13:16:51.000Z</time>
      </trkpt>
      <trkpt lat="43.9784" lon="5.12671">
        <ele>341.8</ele>
        <time>2013-02-18T13:16:52.000Z</time>
      </trkpt>
      <trkpt lat="43.97843" lon="5.1267">
        <ele>341.7</ele>
        <time>2013-02-18T13:16:53.000Z</time>
      </trkpt>
      <trkpt lat="43.97846" lon="5.12671">
        <ele>340.6</ele>
        <time>2013-02-18T13:16:54.000Z</time>
      </trkpt>
      <trkpt lat="43.97848" lon="5.12669">
        <ele>341.9</ele>
        <time>2013-02-18T13:16:55.000Z</time>
      </trkpt>
      <trkpt lat="43.97851" lon="5.12669">
        <ele>341.7</ele>
        <time>2013-02-18T13:16:56.000Z</time>
      </trkpt>
      <trkpt lat="43.97854" lon="5.12667">
        <ele>341.2</ele>
        <time>2013-02-18T13:16:57.000Z</time>
      </trkpt>
      <trkpt lat="43.97857" lon="5.12666">
        <ele>341.2</ele>
        <time>2013-02-18T13:16:58.000Z</time>
      </trkpt>
      <trkpt lat="43.9786" lon="5.12665">
        <ele>341.1</ele>
        <time>2013-02-18T13:16:59.000Z</time>
      </trkpt>
      <trkpt lat="43.97863" lon="5.12664">
        <ele>340.3</ele>
        <time>2013-02-18T13:17:00.000Z</time>
      </trkpt>
      <trkpt lat="43.97867" lon="5.12663">
        <ele>339.2</ele>
        <time>2013-02-18T13:17:01.000Z</time>
      </trkpt>
      <trkpt lat="43.97871" lon="5.12662">
        <ele>337.9</ele>
        <time>2013-02-18T13:17:02.000Z</time>
      </trkpt>
      <trkpt lat="43.97874" lon="5.12662">
        <ele>337.2</ele>
        <time>2013-02-18T13:17:03.000Z</time>
      </trkpt>
      <trkpt lat="43.97878" lon="5.12662">
        <ele>335.2</ele>
        <time>2013-02-18T13:17:04.000Z</time>
      </trkpt>
      <trkpt lat="43.97882" lon="5.12662">
        <ele>333.6</ele>
        <time>2013-02-18T13:17:05.000Z</time>
      </trkpt>
      <trkpt lat="43.97887" lon="5.12663">
        <ele>333.2</ele>
        <time>2013-02-18T13:17:06.000Z</time>
      </trkpt>
      <trkpt lat="43.97891" lon="5.12664">
        <ele>330.6</ele>
        <time>2013-02-18T13:17:07.000Z</time>
      </trkpt>
      <trkpt lat="43.97895" lon="5.12663">
        <ele>329.5</ele>
        <time>2013-02-18T13:17:08.000Z</time>
      </trkpt>
      <trkpt lat="43.97899" lon="5.12663">
        <ele>328.9</ele>
        <time>2013-02-18T13:17:09.000Z</time>
      </trkpt>
      <trkpt lat="43.97902" lon="5.12662">
        <ele>329.5</ele>
        <time>2013-02-18T13:17:10.000Z</time>
      </trkpt>
      <trkpt lat="43.97906" lon="5.12662">
        <ele>329</ele>
        <time>2013-02-18T13:17:11.000Z</time>
      </trkpt>
      <trkpt lat="43.97911" lon="5.12661">
        <ele>328.3</ele>
        <time>2013-02-18T13:17:12.000Z</time>
      </trkpt>
      <trkpt lat="43.97915" lon="5.12661">
        <ele>328</ele>
        <time>2013-02-18T13:17:13.000Z</time>
      </trkpt>
      <trkpt lat="43.97919" lon="5.1266">
        <ele>327.6</ele>
        <time>2013-02-18T13:17:14.000Z</time>
      </trkpt>
      <trkpt lat="43.97923" lon="5.12659">
        <ele>327.1</ele>
        <time>2013-02-18T13:17:15.000Z</time>
      </trkpt>
      <trkpt lat="43.97927" lon="5.12658">
        <ele>326.5</ele>
        <time>2013-02-18T13:17:16.000Z</time>
      </trkpt>
      <trkpt lat="43.97931" lon="5.12658">
        <ele>326.1</ele>
        <time>2013-02-18T13:17:17.000Z</time>
      </trkpt>
      <trkpt lat="43.97935" lon="5.12659">
        <ele>325.4</ele>
        <time>2013-02-18T13:17:18.000Z</time>
      </trkpt>
      <trkpt lat="43.9794" lon="5.12659">
        <ele>324.8</ele>
        <time>2013-02-18T13:17:19.000Z</time>
      </trkpt>
      <trkpt lat="43.97945" lon="5.1266">
        <ele>324</ele>
        <time>2013-02-18T13:17:20.000Z</time>
      </trkpt>
      <trkpt lat="43.97949" lon="5.1266">
        <ele>322.9</ele>
        <time>2013-02-18T13:17:21.000Z</time>
      </trkpt>
      <trkpt lat="43.97954" lon="5.1266">
        <ele>322.4</ele>
        <time>2013-02-18T13:17:22.000Z</time>
      </trkpt>
      <trkpt lat="43.97959" lon="5.12662">
        <ele>321.7</ele>
        <time>2013-02-18T13:17:23.000Z</time>
      </trkpt>
      <trkpt lat="43.97964" lon="5.12664">
        <ele>321.2</ele>
        <time>2013-02-18T13:17:24.000Z</time>
      </trkpt>
      <trkpt lat="43.97968" lon="5.12665">
        <ele>320.7</ele>
        <time>2013-02-18T13:17:25.000Z</time>
      </trkpt>
      <trkpt lat="43.97973" lon="5.12667">
        <ele>320.5</ele>
        <time>2013-02-18T13:17:26.000Z</time>
      </trkpt>
      <trkpt lat="43.97978" lon="5.12668">
        <ele>320</ele>
        <time>2013-02-18T13:17:27.000Z</time>
      </trkpt>
      <trkpt lat="43.97982" lon="5.1267">
        <ele>319.7</ele>
        <time>2013-02-18T13:17:28.000Z</time>
      </trkpt>
      <trkpt lat="43.97986" lon="5.12672">
        <ele>319.5</ele>
        <time>2013-02-18T13:17:29.000Z</time>
      </trkpt>
      <trkpt lat="43.97987" lon="5.1267">
        <ele>319</ele>
        <time>2013-02-18T13:17:30.000Z</time>
      </trkpt>
      <trkpt lat="43.97991" lon="5.1267">
        <ele>318.3</ele>
        <time>2013-02-18T13:17:31.000Z</time>
      </trkpt>
      <trkpt lat="43.97995" lon="5.12672">
        <ele>318.6</ele>
        <time>2013-02-18T13:17:32.000Z</time>
      </trkpt>
      <trkpt lat="43.97999" lon="5.12676">
        <ele>316.7</ele>
        <time>2013-02-18T13:17:33.000Z</time>
      </trkpt>
      <trkpt lat="43.98003" lon="5.12678">
        <ele>316.2</ele>
        <time>2013-02-18T13:17:34.000Z</time>
      </trkpt>
      <trkpt lat="43.98006" lon="5.12679">
        <ele>316.3</ele>
        <time>2013-02-18T13:17:35.000Z</time>
      </trkpt>
      <trkpt lat="43.9801" lon="5.12682">
        <ele>316.6</ele>
        <time>2013-02-18T13:17:36.000Z</time>
      </trkpt>
      <trkpt lat="43.98013" lon="5.12684">
        <ele>316.5</ele>
        <time>2013-02-18T13:17:37.000Z</time>
      </trkpt>
      <trkpt lat="43.98016" lon="5.12688">
        <ele>316.6</ele>
        <time>2013-02-18T13:17:38.000Z</time>
      </trkpt>
      <trkpt lat="43.98019" lon="5.1269">
        <ele>316.5</ele>
        <time>2013-02-18T13:17:39.000Z</time>
      </trkpt>
      <trkpt lat="43.98023" lon="5.12689">
        <ele>316.3</ele>
        <time>2013-02-18T13:17:40.000Z</time>
      </trkpt>
      <trkpt lat="43.98026" lon="5.12688">
        <ele>316.2</ele>
        <time>2013-02-18T13:17:41.000Z</time>
      </trkpt>
      <trkpt lat="43.98029" lon="5.12689">
        <ele>316.1</ele>
        <time>2013-02-18T13:17:42.000Z</time>
      </trkpt>
      <trkpt lat="43.98032" lon="5.12687">
        <ele>314.9</ele>
        <time>2013-02-18T13:17:43.000Z</time>
      </trkpt>
      <trkpt lat="43.98035" lon="5.12687">
        <ele>314.6</ele>
        <time>2013-02-18T13:17:44.000Z</time>
      </trkpt>
      <trkpt lat="43.98038" lon="5.12686">
        <ele>314.2</ele>
        <time>2013-02-18T13:17:45.000Z</time>
      </trkpt>
      <trkpt lat="43.98041" lon="5.12688">
        <ele>314</ele>
        <time>2013-02-18T13:17:46.000Z</time>
      </trkpt>
      <trkpt lat="43.98045" lon="5.12689">
        <ele>313.1</ele>
        <time>2013-02-18T13:17:47.000Z</time>
      </trkpt>
      <trkpt lat="43.98047" lon="5.12694">
        <ele>311.8</ele>
        <time>2013-02-18T13:17:48.000Z</time>
      </trkpt>
      <trkpt lat="43.9805" lon="5.12697">
        <ele>309.6</ele>
        <time>2013-02-18T13:17:49.000Z</time>
      </trkpt>
      <trkpt lat="43.98051" lon="5.127">
        <ele>308.3</ele>
        <time>2013-02-18T13:17:50.000Z</time>
      </trkpt>
      <trkpt lat="43.98055" lon="5.12704">
        <ele>306.8</ele>
        <time>2013-02-18T13:17:54.000Z</time>
      </trkpt>
      <trkpt lat="43.98056" lon="5.12704">
        <ele>306</ele>
        <time>2013-02-18T13:17:55.000Z</time>
      </trkpt>
      <trkpt lat="43.98056" lon="5.12709">
        <ele>304.2</ele>
        <time>2013-02-18T13:18:42.000Z</time>
      </trkpt>
      <trkpt lat="43.98056" lon="5.12711">
        <ele>302.8</ele>
        <time>2013-02-18T13:18:43.000Z</time>
      </trkpt>
      <trkpt lat="43.98052" lon="5.12714">
        <ele>302.8</ele>
        <time>2013-02-18T13:18:45.000Z</time>
      </trkpt>
      <trkpt lat="43.9805" lon="5.12716">
        <ele>302.4</ele>
        <time>2013-02-18T13:18:46.000Z</time>
      </trkpt>
      <trkpt lat="43.98047" lon="5.1272">
        <ele>301.9</ele>
        <time>2013-02-18T13:18:48.000Z</time>
      </trkpt>
      <trkpt lat="43.98046" lon="5.12721">
        <ele>302</ele>
        <time>2013-02-18T13:18:49.000Z</time>
      </trkpt>
      <trkpt lat="43.98043" lon="5.12726">
        <ele>302.4</ele>
        <time>2013-02-18T13:18:51.000Z</time>
      </trkpt>
      <trkpt lat="43.98041" lon="5.12728">
        <ele>302.2</ele>
        <time>2013-02-18T13:18:52.000Z</time>
      </trkpt>
      <trkpt lat="43.98038" lon="5.12733">
        <ele>302.2</ele>
        <time>2013-02-18T13:18:54.000Z</time>
      </trkpt>
      <trkpt lat="43.98037" lon="5.12735">
        <ele>302.1</ele>
        <time>2013-02-18T13:18:55.000Z</time>
      </trkpt>
      <trkpt lat="43.98036" lon="5.12738">
        <ele>302.4</ele>
        <time>2013-02-18T13:18:56.000Z</time>
      </trkpt>
      <trkpt lat="43.98034" lon="5.1274">
        <ele>302.6</ele>
        <time>2013-02-18T13:18:57.000Z</time>
      </trkpt>
      <trkpt lat="43.98033" lon="5.12743">
        <ele>302.9</ele>
        <time>2013-02-18T13:18:58.000Z</time>
      </trkpt>
      <trkpt lat="43.98031" lon="5.12746">
        <ele>302.5</ele>
        <time>2013-02-18T13:18:59.000Z</time>
      </trkpt>
      <trkpt lat="43.9803" lon="5.12749">
        <ele>302.4</ele>
        <time>2013-02-18T13:19:00.000Z</time>
      </trkpt>
      <trkpt lat="43.98028" lon="5.12751">
        <ele>302.1</ele>
        <time>2013-02-18T13:19:01.000Z</time>
      </trkpt>
      <trkpt lat="43.98027" lon="5.12754">
        <ele>301.7</ele>
        <time>2013-02-18T13:19:02.000Z</time>
      </trkpt>
      <trkpt lat="43.98026" lon="5.12757">
        <ele>302.3</ele>
        <time>2013-02-18T13:19:03.000Z</time>
      </trkpt>
      <trkpt lat="43.98025" lon="5.1276">
        <ele>301.7</ele>
        <time>2013-02-18T13:19:04.000Z</time>
      </trkpt>
      <trkpt lat="43.98024" lon="5.12763">
        <ele>301.8</ele>
        <time>2013-02-18T13:19:05.000Z</time>
      </trkpt>
      <trkpt lat="43.98023" lon="5.12765">
        <ele>301.6</ele>
        <time>2013-02-18T13:19:06.000Z</time>
      </trkpt>
      <trkpt lat="43.98021" lon="5.12768">
        <ele>301.9</ele>
        <time>2013-02-18T13:19:07.000Z</time>
      </trkpt>
      <trkpt lat="43.9802" lon="5.12771">
        <ele>302.1</ele>
        <time>2013-02-18T13:19:08.000Z</time>
      </trkpt>
      <trkpt lat="43.9802" lon="5.12775">
        <ele>302.3</ele>
        <time>2013-02-18T13:19:09.000Z</time>
      </trkpt>
      <trkpt lat="43.9802" lon="5.12778">
        <ele>302.3</ele>
        <time>2013-02-18T13:19:10.000Z</time>
      </trkpt>
      <trkpt lat="43.98014" lon="5.12782">
        <ele>301.3</ele>
        <time>2013-02-18T13:19:11.000Z</time>
      </trkpt>
      <trkpt lat="43.98012" lon="5.12785">
        <ele>301.9</ele>
        <time>2013-02-18T13:19:12.000Z</time>
      </trkpt>
      <trkpt lat="43.98011" lon="5.12789">
        <ele>302.2</ele>
        <time>2013-02-18T13:19:13.000Z</time>
      </trkpt>
      <trkpt lat="43.9801" lon="5.12792">
        <ele>302.5</ele>
        <time>2013-02-18T13:19:14.000Z</time>
      </trkpt>
      <trkpt lat="43.98009" lon="5.12795">
        <ele>302.4</ele>
        <time>2013-02-18T13:19:15.000Z</time>
      </trkpt>
      <trkpt lat="43.98008" lon="5.12799">
        <ele>302.4</ele>
        <time>2013-02-18T13:19:16.000Z</time>
      </trkpt>
      <trkpt lat="43.98006" lon="5.12802">
        <ele>302.6</ele>
        <time>2013-02-18T13:19:17.000Z</time>
      </trkpt>
      <trkpt lat="43.98005" lon="5.12806">
        <ele>302.5</ele>
        <time>2013-02-18T13:19:18.000Z</time>
      </trkpt>
      <trkpt lat="43.98003" lon="5.12809">
        <ele>302.5</ele>
        <time>2013-02-18T13:19:19.000Z</time>
      </trkpt>
      <trkpt lat="43.98002" lon="5.12812">
        <ele>302.8</ele>
        <time>2013-02-18T13:19:20.000Z</time>
      </trkpt>
      <trkpt lat="43.98001" lon="5.12816">
        <ele>303.4</ele>
        <time>2013-02-18T13:19:21.000Z</time>
      </trkpt>
      <trkpt lat="43.98" lon="5.1282">
        <ele>303.1</ele>
        <time>2013-02-18T13:19:22.000Z</time>
      </trkpt>
      <trkpt lat="43.97998" lon="5.12823">
        <ele>302.8</ele>
        <time>2013-02-18T13:19:23.000Z</time>
      </trkpt>
      <trkpt lat="43.97997" lon="5.12827">
        <ele>303.1</ele>
        <time>2013-02-18T13:19:24.000Z</time>
      </trkpt>
      <trkpt lat="43.97997" lon="5.12831">
        <ele>303.2</ele>
        <time>2013-02-18T13:19:25.000Z</time>
      </trkpt>
      <trkpt lat="43.97995" lon="5.12835">
        <ele>303.6</ele>
        <time>2013-02-18T13:19:26.000Z</time>
      </trkpt>
      <trkpt lat="43.97995" lon="5.12839">
        <ele>304.1</ele>
        <time>2013-02-18T13:19:27.000Z</time>
      </trkpt>
      <trkpt lat="43.97995" lon="5.12843">
        <ele>304.4</ele>
        <time>2013-02-18T13:19:28.000Z</time>
      </trkpt>
      <trkpt lat="43.97994" lon="5.12847">
        <ele>304.4</ele>
        <time>2013-02-18T13:19:29.000Z</time>
      </trkpt>
      <trkpt lat="43.97993" lon="5.12851">
        <ele>304.3</ele>
        <time>2013-02-18T13:19:30.000Z</time>
      </trkpt>
      <trkpt lat="43.97992" lon="5.12855">
        <ele>304.2</ele>
        <time>2013-02-18T13:19:31.000Z</time>
      </trkpt>
      <trkpt lat="43.97992" lon="5.1286">
        <ele>304.4</ele>
        <time>2013-02-18T13:19:32.000Z</time>
      </trkpt>
      <trkpt lat="43.97991" lon="5.12864">
        <ele>304.5</ele>
        <time>2013-02-18T13:19:33.000Z</time>
      </trkpt>
      <trkpt lat="43.97991" lon="5.12869">
        <ele>304.5</ele>
        <time>2013-02-18T13:19:34.000Z</time>
      </trkpt>
      <trkpt lat="43.97991" lon="5.12873">
        <ele>304.8</ele>
        <time>2013-02-18T13:19:35.000Z</time>
      </trkpt>
      <trkpt lat="43.9799" lon="5.12878">
        <ele>304.9</ele>
        <time>2013-02-18T13:19:36.000Z</time>
      </trkpt>
      <trkpt lat="43.9799" lon="5.12882">
        <ele>305.4</ele>
        <time>2013-02-18T13:19:37.000Z</time>
      </trkpt>
      <trkpt lat="43.97989" lon="5.12886">
        <ele>305.5</ele>
        <time>2013-02-18T13:19:38.000Z</time>
      </trkpt>
      <trkpt lat="43.97989" lon="5.1289">
        <ele>306</ele>
        <time>2013-02-18T13:19:39.000Z</time>
      </trkpt>
      <trkpt lat="43.97989" lon="5.12894">
        <ele>306.1</ele>
        <time>2013-02-18T13:19:40.000Z</time>
      </trkpt>
      <trkpt lat="43.97989" lon="5.12898">
        <ele>306.4</ele>
        <time>2013-02-18T13:19:41.000Z</time>
      </trkpt>
      <trkpt lat="43.97988" lon="5.12903">
        <ele>306.5</ele>
        <time>2013-02-18T13:19:42.000Z</time>
      </trkpt>
      <trkpt lat="43.97988" lon="5.12906">
        <ele>306.7</ele>
        <time>2013-02-18T13:19:43.000Z</time>
      </trkpt>
      <trkpt lat="43.97987" lon="5.1291">
        <ele>306.8</ele>
        <time>2013-02-18T13:19:44.000Z</time>
      </trkpt>
      <trkpt lat="43.97987" lon="5.12914">
        <ele>307</ele>
        <time>2013-02-18T13:19:45.000Z</time>
      </trkpt>
      <trkpt lat="43.97987" lon="5.12918">
        <ele>307.1</ele>
        <time>2013-02-18T13:19:46.000Z</time>
      </trkpt>
      <trkpt lat="43.97986" lon="5.12922">
        <ele>307.3</ele>
        <time>2013-02-18T13:19:47.000Z</time>
      </trkpt>
      <trkpt lat="43.97985" lon="5.12926">
        <ele>307.6</ele>
        <time>2013-02-18T13:19:48.000Z</time>
      </trkpt>
      <trkpt lat="43.97984" lon="5.1293">
        <ele>307.8</ele>
        <time>2013-02-18T13:19:49.000Z</time>
      </trkpt>
      <trkpt lat="43.97984" lon="5.12934">
        <ele>308.2</ele>
        <time>2013-02-18T13:19:50.000Z</time>
      </trkpt>
      <trkpt lat="43.97982" lon="5.12938">
        <ele>308.1</ele>
        <time>2013-02-18T13:19:51.000Z</time>
      </trkpt>
      <trkpt lat="43.97981" lon="5.12942">
        <ele>308</ele>
        <time>2013-02-18T13:19:52.000Z</time>
      </trkpt>
      <trkpt lat="43.9798" lon="5.12945">
        <ele>308.3</ele>
        <time>2013-02-18T13:19:53.000Z</time>
      </trkpt>
      <trkpt lat="43.9798" lon="5.12949">
        <ele>308.5</ele>
        <time>2013-02-18T13:19:54.000Z</time>
      </trkpt>
      <trkpt lat="43.97978" lon="5.12952">
        <ele>308.5</ele>
        <time>2013-02-18T13:19:55.000Z</time>
      </trkpt>
      <trkpt lat="43.97977" lon="5.12955">
        <ele>308.6</ele>
        <time>2013-02-18T13:19:56.000Z</time>
      </trkpt>
      <trkpt lat="43.97976" lon="5.12959">
        <ele>308.6</ele>
        <time>2013-02-18T13:19:57.000Z</time>
      </trkpt>
      <trkpt lat="43.97975" lon="5.12962">
        <ele>308.5</ele>
        <time>2013-02-18T13:19:58.000Z</time>
      </trkpt>
      <trkpt lat="43.97974" lon="5.12966">
        <ele>308.9</ele>
        <time>2013-02-18T13:19:59.000Z</time>
      </trkpt>
      <trkpt lat="43.97972" lon="5.12969">
        <ele>309.2</ele>
        <time>2013-02-18T13:20:00.000Z</time>
      </trkpt>
      <trkpt lat="43.97971" lon="5.12973">
        <ele>309.2</ele>
        <time>2013-02-18T13:20:01.000Z</time>
      </trkpt>
      <trkpt lat="43.9797" lon="5.12976">
        <ele>309.3</ele>
        <time>2013-02-18T13:20:02.000Z</time>
      </trkpt>
      <trkpt lat="43.97969" lon="5.12979">
        <ele>309.3</ele>
        <time>2013-02-18T13:20:03.000Z</time>
      </trkpt>
      <trkpt lat="43.97967" lon="5.12983">
        <ele>309.6</ele>
        <time>2013-02-18T13:20:04.000Z</time>
      </trkpt>
      <trkpt lat="43.97966" lon="5.12986">
        <ele>310</ele>
        <time>2013-02-18T13:20:05.000Z</time>
      </trkpt>
      <trkpt lat="43.97964" lon="5.1299">
        <ele>310.1</ele>
        <time>2013-02-18T13:20:06.000Z</time>
      </trkpt>
      <trkpt lat="43.97963" lon="5.12993">
        <ele>310.3</ele>
        <time>2013-02-18T13:20:07.000Z</time>
      </trkpt>
      <trkpt lat="43.97962" lon="5.12996">
        <ele>310.6</ele>
        <time>2013-02-18T13:20:08.000Z</time>
      </trkpt>
      <trkpt lat="43.97961" lon="5.12999">
        <ele>310.9</ele>
        <time>2013-02-18T13:20:09.000Z</time>
      </trkpt>
      <trkpt lat="43.97959" lon="5.13002">
        <ele>311.1</ele>
        <time>2013-02-18T13:20:10.000Z</time>
      </trkpt>
      <trkpt lat="43.97957" lon="5.13005">
        <ele>311.3</ele>
        <time>2013-02-18T13:20:11.000Z</time>
      </trkpt>
      <trkpt lat="43.97956" lon="5.13008">
        <ele>311.3</ele>
        <time>2013-02-18T13:20:12.000Z</time>
      </trkpt>
      <trkpt lat="43.97955" lon="5.13011">
        <ele>311.8</ele>
        <time>2013-02-18T13:20:13.000Z</time>
      </trkpt>
      <trkpt lat="43.97953" lon="5.13014">
        <ele>312</ele>
        <time>2013-02-18T13:20:14.000Z</time>
      </trkpt>
      <trkpt lat="43.97952" lon="5.13017">
        <ele>312.3</ele>
        <time>2013-02-18T13:20:15.000Z</time>
      </trkpt>
      <trkpt lat="43.9795" lon="5.1302">
        <ele>312.5</ele>
        <time>2013-02-18T13:20:16.000Z</time>
      </trkpt>
      <trkpt lat="43.97949" lon="5.13023">
        <ele>312.7</ele>
        <time>2013-02-18T13:20:17.000Z</time>
      </trkpt>
      <trkpt lat="43.97947" lon="5.13025">
        <ele>312.9</ele>
        <time>2013-02-18T13:20:18.000Z</time>
      </trkpt>
      <trkpt lat="43.97946" lon="5.13028">
        <ele>313.2</ele>
        <time>2013-02-18T13:20:19.000Z</time>
      </trkpt>
      <trkpt lat="43.97944" lon="5.13031">
        <ele>313.2</ele>
        <time>2013-02-18T13:20:20.000Z</time>
      </trkpt>
      <trkpt lat="43.97943" lon="5.13033">
        <ele>313.4</ele>
        <time>2013-02-18T13:20:21.000Z</time>
      </trkpt>
      <trkpt lat="43.97941" lon="5.13036">
        <ele>313.5</ele>
        <time>2013-02-18T13:20:22.000Z</time>
      </trkpt>
      <trkpt lat="43.97939" lon="5.13039">
        <ele>313.7</ele>
        <time>2013-02-18T13:20:23.000Z</time>
      </trkpt>
      <trkpt lat="43.97938" lon="5.13042">
        <ele>314</ele>
        <time>2013-02-18T13:20:24.000Z</time>
      </trkpt>
      <trkpt lat="43.97936" lon="5.13044">
        <ele>314.1</ele>
        <time>2013-02-18T13:20:25.000Z</time>
      </trkpt>
      <trkpt lat="43.97934" lon="5.13047">
        <ele>314.6</ele>
        <time>2013-02-18T13:20:26.000Z</time>
      </trkpt>
      <trkpt lat="43.97933" lon="5.1305">
        <ele>314.7</ele>
        <time>2013-02-18T13:20:27.000Z</time>
      </trkpt>
      <trkpt lat="43.97931" lon="5.13052">
        <ele>314.7</ele>
        <time>2013-02-18T13:20:28.000Z</time>
      </trkpt>
      <trkpt lat="43.9793" lon="5.13055">
        <ele>315</ele>
        <time>2013-02-18T13:20:29.000Z</time>
      </trkpt>
      <trkpt lat="43.97928" lon="5.13058">
        <ele>315</ele>
        <time>2013-02-18T13:20:30.000Z</time>
      </trkpt>
      <trkpt lat="43.97926" lon="5.1306">
        <ele>315.1</ele>
        <time>2013-02-18T13:20:31.000Z</time>
      </trkpt>
      <trkpt lat="43.97925" lon="5.13062">
        <ele>315.3</ele>
        <time>2013-02-18T13:20:32.000Z</time>
      </trkpt>
      <trkpt lat="43.97923" lon="5.13065">
        <ele>315.3</ele>
        <time>2013-02-18T13:20:33.000Z</time>
      </trkpt>
      <trkpt lat="43.97921" lon="5.13067">
        <ele>315.2</ele>
        <time>2013-02-18T13:20:34.000Z</time>
      </trkpt>
      <trkpt lat="43.9792" lon="5.1307">
        <ele>315.5</ele>
        <time>2013-02-18T13:20:35.000Z</time>
      </trkpt>
      <trkpt lat="43.97918" lon="5.13073">
        <ele>315.8</ele>
        <time>2013-02-18T13:20:36.000Z</time>
      </trkpt>
      <trkpt lat="43.97917" lon="5.13075">
        <ele>315.8</ele>
        <time>2013-02-18T13:20:37.000Z</time>
      </trkpt>
      <trkpt lat="43.97915" lon="5.13077">
        <ele>315.8</ele>
        <time>2013-02-18T13:20:38.000Z</time>
      </trkpt>
      <trkpt lat="43.97913" lon="5.13079">
        <ele>315.7</ele>
        <time>2013-02-18T13:20:39.000Z</time>
      </trkpt>
      <trkpt lat="43.97909" lon="5.13082">
        <ele>316</ele>
        <time>2013-02-18T13:20:41.000Z</time>
      </trkpt>
      <trkpt lat="43.97907" lon="5.13083">
        <ele>315.7</ele>
        <time>2013-02-18T13:20:42.000Z</time>
      </trkpt>
      <trkpt lat="43.97904" lon="5.13085">
        <ele>315.3</ele>
        <time>2013-02-18T13:20:43.000Z</time>
      </trkpt>
      <trkpt lat="43.979" lon="5.13086">
        <ele>315.4</ele>
        <time>2013-02-18T13:20:44.000Z</time>
      </trkpt>
      <trkpt lat="43.97898" lon="5.13088">
        <ele>315.3</ele>
        <time>2013-02-18T13:20:45.000Z</time>
      </trkpt>
      <trkpt lat="43.97895" lon="5.1309">
        <ele>315.7</ele>
        <time>2013-02-18T13:20:46.000Z</time>
      </trkpt>
      <trkpt lat="43.97893" lon="5.13096">
        <ele>315.7</ele>
        <time>2013-02-18T13:20:47.000Z</time>
      </trkpt>
      <trkpt lat="43.97891" lon="5.13099">
        <ele>315.6</ele>
        <time>2013-02-18T13:20:49.000Z</time>
      </trkpt>
      <trkpt lat="43.9789" lon="5.13101">
        <ele>315.7</ele>
        <time>2013-02-18T13:20:50.000Z</time>
      </trkpt>
      <trkpt lat="43.97888" lon="5.13102">
        <ele>314.6</ele>
        <time>2013-02-18T13:20:51.000Z</time>
      </trkpt>
      <trkpt lat="43.97886" lon="5.13104">
        <ele>314.9</ele>
        <time>2013-02-18T13:20:52.000Z</time>
      </trkpt>
      <trkpt lat="43.97883" lon="5.13107">
        <ele>314.5</ele>
        <time>2013-02-18T13:20:54.000Z</time>
      </trkpt>
      <trkpt lat="43.97881" lon="5.13108">
        <ele>314.2</ele>
        <time>2013-02-18T13:20:55.000Z</time>
      </trkpt>
      <trkpt lat="43.97879" lon="5.13108">
        <ele>313.6</ele>
        <time>2013-02-18T13:20:56.000Z</time>
      </trkpt>
      <trkpt lat="43.97878" lon="5.13114">
        <ele>315.9</ele>
        <time>2013-02-18T13:20:57.000Z</time>
      </trkpt>
      <trkpt lat="43.97875" lon="5.13118">
        <ele>317.2</ele>
        <time>2013-02-18T13:20:59.000Z</time>
      </trkpt>
      <trkpt lat="43.97874" lon="5.13121">
        <ele>317.8</ele>
        <time>2013-02-18T13:21:00.000Z</time>
      </trkpt>
      <trkpt lat="43.97872" lon="5.13124">
        <ele>319</ele>
        <time>2013-02-18T13:21:01.000Z</time>
      </trkpt>
      <trkpt lat="43.9787" lon="5.13127">
        <ele>319.7</ele>
        <time>2013-02-18T13:21:02.000Z</time>
      </trkpt>
      <trkpt lat="43.97867" lon="5.13129">
        <ele>320.7</ele>
        <time>2013-02-18T13:21:04.000Z</time>
      </trkpt>
      <trkpt lat="43.97864" lon="5.13128">
        <ele>321.1</ele>
        <time>2013-02-18T13:21:05.000Z</time>
      </trkpt>
      <trkpt lat="43.97861" lon="5.13129">
        <ele>320.5</ele>
        <time>2013-02-18T13:21:06.000Z</time>
      </trkpt>
      <trkpt lat="43.9786" lon="5.13131">
        <ele>320.1</ele>
        <time>2013-02-18T13:21:07.000Z</time>
      </trkpt>
      <trkpt lat="43.97859" lon="5.13132">
        <ele>320.2</ele>
        <time>2013-02-18T13:21:09.000Z</time>
      </trkpt>
      <trkpt lat="43.97855" lon="5.13134">
        <ele>320</ele>
        <time>2013-02-18T13:21:10.000Z</time>
      </trkpt>
      <trkpt lat="43.97851" lon="5.13137">
        <ele>320.6</ele>
        <time>2013-02-18T13:21:11.000Z</time>
      </trkpt>
      <trkpt lat="43.97849" lon="5.13139">
        <ele>320.8</ele>
        <time>2013-02-18T13:21:12.000Z</time>
      </trkpt>
      <trkpt lat="43.97845" lon="5.13139">
        <ele>320.3</ele>
        <time>2013-02-18T13:21:14.000Z</time>
      </trkpt>
      <trkpt lat="43.97844" lon="5.13142">
        <ele>319.7</ele>
        <time>2013-02-18T13:21:15.000Z</time>
      </trkpt>
      <trkpt lat="43.9784" lon="5.13143">
        <ele>319.9</ele>
        <time>2013-02-18T13:21:16.000Z</time>
      </trkpt>
      <trkpt lat="43.97839" lon="5.13145">
        <ele>319.7</ele>
        <time>2013-02-18T13:21:17.000Z</time>
      </trkpt>
      <trkpt lat="43.97836" lon="5.13147">
        <ele>319.8</ele>
        <time>2013-02-18T13:21:18.000Z</time>
      </trkpt>
      <trkpt lat="43.97834" lon="5.1315">
        <ele>320</ele>
        <time>2013-02-18T13:21:19.000Z</time>
      </trkpt>
      <trkpt lat="43.97831" lon="5.13153">
        <ele>320.1</ele>
        <time>2013-02-18T13:21:21.000Z</time>
      </trkpt>
      <trkpt lat="43.97828" lon="5.13154">
        <ele>320.3</ele>
        <time>2013-02-18T13:21:22.000Z</time>
      </trkpt>
      <trkpt lat="43.97825" lon="5.13156">
        <ele>320.8</ele>
        <time>2013-02-18T13:21:23.000Z</time>
      </trkpt>
      <trkpt lat="43.97823" lon="5.13157">
        <ele>321.6</ele>
        <time>2013-02-18T13:21:24.000Z</time>
      </trkpt>
      <trkpt lat="43.97821" lon="5.13157">
        <ele>321.4</ele>
        <time>2013-02-18T13:21:26.000Z</time>
      </trkpt>
      <trkpt lat="43.97818" lon="5.13158">
        <ele>321.6</ele>
        <time>2013-02-18T13:21:27.000Z</time>
      </trkpt>
      <trkpt lat="43.97815" lon="5.13159">
        <ele>321.9</ele>
        <time>2013-02-18T13:21:28.000Z</time>
      </trkpt>
      <trkpt lat="43.97813" lon="5.13159">
        <ele>321.7</ele>
        <time>2013-02-18T13:21:29.000Z</time>
      </trkpt>
      <trkpt lat="43.9781" lon="5.1316">
        <ele>321.5</ele>
        <time>2013-02-18T13:21:30.000Z</time>
      </trkpt>
      <trkpt lat="43.97808" lon="5.13159">
        <ele>321</ele>
        <time>2013-02-18T13:21:31.000Z</time>
      </trkpt>
      <trkpt lat="43.97805" lon="5.13162">
        <ele>321.4</ele>
        <time>2013-02-18T13:21:32.000Z</time>
      </trkpt>
      <trkpt lat="43.97803" lon="5.13162">
        <ele>321.3</ele>
        <time>2013-02-18T13:21:33.000Z</time>
      </trkpt>
      <trkpt lat="43.978" lon="5.13164">
        <ele>321.5</ele>
        <time>2013-02-18T13:21:34.000Z</time>
      </trkpt>
      <trkpt lat="43.97799" lon="5.13166">
        <ele>322.1</ele>
        <time>2013-02-18T13:21:35.000Z</time>
      </trkpt>
      <trkpt lat="43.97796" lon="5.13167">
        <ele>322.8</ele>
        <time>2013-02-18T13:21:36.000Z</time>
      </trkpt>
      <trkpt lat="43.97794" lon="5.13169">
        <ele>324.2</ele>
        <time>2013-02-18T13:21:37.000Z</time>
      </trkpt>
      <trkpt lat="43.97792" lon="5.1317">
        <ele>324.1</ele>
        <time>2013-02-18T13:21:38.000Z</time>
      </trkpt>
      <trkpt lat="43.97789" lon="5.1317">
        <ele>324.5</ele>
        <time>2013-02-18T13:21:39.000Z</time>
      </trkpt>
      <trkpt lat="43.97787" lon="5.13171">
        <ele>324.5</ele>
        <time>2013-02-18T13:21:40.000Z</time>
      </trkpt>
      <trkpt lat="43.97785" lon="5.13173">
        <ele>324.7</ele>
        <time>2013-02-18T13:21:41.000Z</time>
      </trkpt>
      <trkpt lat="43.97782" lon="5.13174">
        <ele>324.2</ele>
        <time>2013-02-18T13:21:42.000Z</time>
      </trkpt>
      <trkpt lat="43.9778" lon="5.13175">
        <ele>324.9</ele>
        <time>2013-02-18T13:21:43.000Z</time>
      </trkpt>
      <trkpt lat="43.97777" lon="5.13176">
        <ele>324.5</ele>
        <time>2013-02-18T13:21:44.000Z</time>
      </trkpt>
      <trkpt lat="43.97774" lon="5.13177">
        <ele>324.7</ele>
        <time>2013-02-18T13:21:45.000Z</time>
      </trkpt>
      <trkpt lat="43.97772" lon="5.13179">
        <ele>325.3</ele>
        <time>2013-02-18T13:21:46.000Z</time>
      </trkpt>
      <trkpt lat="43.9777" lon="5.1318">
        <ele>326.1</ele>
        <time>2013-02-18T13:21:47.000Z</time>
      </trkpt>
      <trkpt lat="43.97768" lon="5.13181">
        <ele>325.9</ele>
        <time>2013-02-18T13:21:48.000Z</time>
      </trkpt>
      <trkpt lat="43.97766" lon="5.13182">
        <ele>326.2</ele>
        <time>2013-02-18T13:21:49.000Z</time>
      </trkpt>
      <trkpt lat="43.97763" lon="5.13182">
        <ele>325.8</ele>
        <time>2013-02-18T13:21:50.000Z</time>
      </trkpt>
      <trkpt lat="43.97761" lon="5.13183">
        <ele>325.8</ele>
        <time>2013-02-18T13:21:51.000Z</time>
      </trkpt>
      <trkpt lat="43.97758" lon="5.13184">
        <ele>326.2</ele>
        <time>2013-02-18T13:21:52.000Z</time>
      </trkpt>
      <trkpt lat="43.97754" lon="5.13186">
        <ele>326.4</ele>
        <time>2013-02-18T13:21:54.000Z</time>
      </trkpt>
      <trkpt lat="43.97751" lon="5.13187">
        <ele>326.5</ele>
        <time>2013-02-18T13:21:55.000Z</time>
      </trkpt>
      <trkpt lat="43.97749" lon="5.13187">
        <ele>327</ele>
        <time>2013-02-18T13:21:56.000Z</time>
      </trkpt>
      <trkpt lat="43.97747" lon="5.13187">
        <ele>327</ele>
        <time>2013-02-18T13:21:57.000Z</time>
      </trkpt>
      <trkpt lat="43.97744" lon="5.13188">
        <ele>326.7</ele>
        <time>2013-02-18T13:21:58.000Z</time>
      </trkpt>
      <trkpt lat="43.97742" lon="5.13188">
        <ele>326.9</ele>
        <time>2013-02-18T13:21:59.000Z</time>
      </trkpt>
      <trkpt lat="43.97739" lon="5.13189">
        <ele>326.7</ele>
        <time>2013-02-18T13:22:00.000Z</time>
      </trkpt>
      <trkpt lat="43.97736" lon="5.13189">
        <ele>326.5</ele>
        <time>2013-02-18T13:22:01.000Z</time>
      </trkpt>
      <trkpt lat="43.97733" lon="5.1319">
        <ele>326.4</ele>
        <time>2013-02-18T13:22:02.000Z</time>
      </trkpt>
      <trkpt lat="43.9773" lon="5.13189">
        <ele>326</ele>
        <time>2013-02-18T13:22:03.000Z</time>
      </trkpt>
      <trkpt lat="43.97727" lon="5.1319">
        <ele>326.2</ele>
        <time>2013-02-18T13:22:04.000Z</time>
      </trkpt>
      <trkpt lat="43.97725" lon="5.1319">
        <ele>326.5</ele>
        <time>2013-02-18T13:22:05.000Z</time>
      </trkpt>
      <trkpt lat="43.97722" lon="5.13191">
        <ele>327</ele>
        <time>2013-02-18T13:22:06.000Z</time>
      </trkpt>
      <trkpt lat="43.97719" lon="5.13191">
        <ele>326.9</ele>
        <time>2013-02-18T13:22:07.000Z</time>
      </trkpt>
      <trkpt lat="43.97717" lon="5.13192">
        <ele>327.2</ele>
        <time>2013-02-18T13:22:08.000Z</time>
      </trkpt>
      <trkpt lat="43.97714" lon="5.13192">
        <ele>328</ele>
        <time>2013-02-18T13:22:09.000Z</time>
      </trkpt>
      <trkpt lat="43.97712" lon="5.13193">
        <ele>328.7</ele>
        <time>2013-02-18T13:22:10.000Z</time>
      </trkpt>
      <trkpt lat="43.9771" lon="5.13194">
        <ele>328.9</ele>
        <time>2013-02-18T13:22:11.000Z</time>
      </trkpt>
      <trkpt lat="43.97707" lon="5.13195">
        <ele>329.5</ele>
        <time>2013-02-18T13:22:12.000Z</time>
      </trkpt>
      <trkpt lat="43.97704" lon="5.13194">
        <ele>328.4</ele>
        <time>2013-02-18T13:22:13.000Z</time>
      </trkpt>
      <trkpt lat="43.97701" lon="5.13195">
        <ele>329</ele>
        <time>2013-02-18T13:22:14.000Z</time>
      </trkpt>
      <trkpt lat="43.97698" lon="5.13195">
        <ele>329.2</ele>
        <time>2013-02-18T13:22:15.000Z</time>
      </trkpt>
      <trkpt lat="43.97695" lon="5.13195">
        <ele>330</ele>
        <time>2013-02-18T13:22:16.000Z</time>
      </trkpt>
      <trkpt lat="43.97692" lon="5.13195">
        <ele>329.9</ele>
        <time>2013-02-18T13:22:17.000Z</time>
      </trkpt>
      <trkpt lat="43.97689" lon="5.13196">
        <ele>330.3</ele>
        <time>2013-02-18T13:22:18.000Z</time>
      </trkpt>
      <trkpt lat="43.97686" lon="5.13197">
        <ele>330.5</ele>
        <time>2013-02-18T13:22:19.000Z</time>
      </trkpt>
      <trkpt lat="43.97683" lon="5.13197">
        <ele>330.7</ele>
        <time>2013-02-18T13:22:20.000Z</time>
      </trkpt>
      <trkpt lat="43.9768" lon="5.13198">
        <ele>330.6</ele>
        <time>2013-02-18T13:22:21.000Z</time>
      </trkpt>
      <trkpt lat="43.97677" lon="5.13198">
        <ele>330.5</ele>
        <time>2013-02-18T13:22:22.000Z</time>
      </trkpt>
      <trkpt lat="43.97674" lon="5.13199">
        <ele>330.6</ele>
        <time>2013-02-18T13:22:23.000Z</time>
      </trkpt>
      <trkpt lat="43.97672" lon="5.13199">
        <ele>330.5</ele>
        <time>2013-02-18T13:22:24.000Z</time>
      </trkpt>
      <trkpt lat="43.97669" lon="5.132">
        <ele>330.4</ele>
        <time>2013-02-18T13:22:25.000Z</time>
      </trkpt>
      <trkpt lat="43.97666" lon="5.132">
        <ele>330.4</ele>
        <time>2013-02-18T13:22:26.000Z</time>
      </trkpt>
      <trkpt lat="43.97663" lon="5.13199">
        <ele>330</ele>
        <time>2013-02-18T13:22:27.000Z</time>
      </trkpt>
      <trkpt lat="43.9766" lon="5.13202">
        <ele>331.3</ele>
        <time>2013-02-18T13:22:28.000Z</time>
      </trkpt>
      <trkpt lat="43.97658" lon="5.13203">
        <ele>331.4</ele>
        <time>2013-02-18T13:22:29.000Z</time>
      </trkpt>
      <trkpt lat="43.97656" lon="5.13203">
        <ele>331.4</ele>
        <time>2013-02-18T13:22:30.000Z</time>
      </trkpt>
      <trkpt lat="43.97653" lon="5.13205">
        <ele>331.5</ele>
        <time>2013-02-18T13:22:31.000Z</time>
      </trkpt>
      <trkpt lat="43.97651" lon="5.13207">
        <ele>331.3</ele>
        <time>2013-02-18T13:22:32.000Z</time>
      </trkpt>
      <trkpt lat="43.97649" lon="5.13209">
        <ele>331.1</ele>
        <time>2013-02-18T13:22:33.000Z</time>
      </trkpt>
      <trkpt lat="43.97648" lon="5.13212">
        <ele>331.9</ele>
        <time>2013-02-18T13:22:34.000Z</time>
      </trkpt>
      <trkpt lat="43.97644" lon="5.13216">
        <ele>332.2</ele>
        <time>2013-02-18T13:22:36.000Z</time>
      </trkpt>
      <trkpt lat="43.97643" lon="5.13219">
        <ele>332.2</ele>
        <time>2013-02-18T13:22:37.000Z</time>
      </trkpt>
      <trkpt lat="43.97641" lon="5.13221">
        <ele>332.1</ele>
        <time>2013-02-18T13:22:38.000Z</time>
      </trkpt>
      <trkpt lat="43.97639" lon="5.13224">
        <ele>331.8</ele>
        <time>2013-02-18T13:22:39.000Z</time>
      </trkpt>
      <trkpt lat="43.97638" lon="5.13227">
        <ele>331.7</ele>
        <time>2013-02-18T13:22:40.000Z</time>
      </trkpt>
      <trkpt lat="43.97636" lon="5.1323">
        <ele>331.5</ele>
        <time>2013-02-18T13:22:41.000Z</time>
      </trkpt>
      <trkpt lat="43.97635" lon="5.13233">
        <ele>330.9</ele>
        <time>2013-02-18T13:22:42.000Z</time>
      </trkpt>
      <trkpt lat="43.97635" lon="5.13236">
        <ele>330.6</ele>
        <time>2013-02-18T13:22:43.000Z</time>
      </trkpt>
      <trkpt lat="43.97635" lon="5.1324">
        <ele>330.3</ele>
        <time>2013-02-18T13:22:44.000Z</time>
      </trkpt>
      <trkpt lat="43.97636" lon="5.13244">
        <ele>330.6</ele>
        <time>2013-02-18T13:22:45.000Z</time>
      </trkpt>
      <trkpt lat="43.97637" lon="5.13247">
        <ele>330.6</ele>
        <time>2013-02-18T13:22:46.000Z</time>
      </trkpt>
      <trkpt lat="43.97639" lon="5.13251">
        <ele>330.5</ele>
        <time>2013-02-18T13:22:47.000Z</time>
      </trkpt>
      <trkpt lat="43.97641" lon="5.13252">
        <ele>330.9</ele>
        <time>2013-02-18T13:22:48.000Z</time>
      </trkpt>
      <trkpt lat="43.97644" lon="5.13254">
        <ele>331</ele>
        <time>2013-02-18T13:22:49.000Z</time>
      </trkpt>
      <trkpt lat="43.97646" lon="5.13256">
        <ele>331.5</ele>
        <time>2013-02-18T13:22:50.000Z</time>
      </trkpt>
      <trkpt lat="43.97649" lon="5.13258">
        <ele>332.2</ele>
        <time>2013-02-18T13:22:51.000Z</time>
      </trkpt>
      <trkpt lat="43.97651" lon="5.13258">
        <ele>333.1</ele>
        <time>2013-02-18T13:22:52.000Z</time>
      </trkpt>
      <trkpt lat="43.97654" lon="5.13258">
        <ele>333.4</ele>
        <time>2013-02-18T13:22:53.000Z</time>
      </trkpt>
      <trkpt lat="43.97656" lon="5.13259">
        <ele>333.7</ele>
        <time>2013-02-18T13:22:54.000Z</time>
      </trkpt>
      <trkpt lat="43.97658" lon="5.1326">
        <ele>333.8</ele>
        <time>2013-02-18T13:22:55.000Z</time>
      </trkpt>
      <trkpt lat="43.97661" lon="5.1326">
        <ele>334.1</ele>
        <time>2013-02-18T13:22:56.000Z</time>
      </trkpt>
      <trkpt lat="43.97663" lon="5.13261">
        <ele>334.3</ele>
        <time>2013-02-18T13:22:57.000Z</time>
      </trkpt>
      <trkpt lat="43.97665" lon="5.13262">
        <ele>334.4</ele>
        <time>2013-02-18T13:22:58.000Z</time>
      </trkpt>
      <trkpt lat="43.97668" lon="5.13263">
        <ele>334.7</ele>
        <time>2013-02-18T13:22:59.000Z</time>
      </trkpt>
      <trkpt lat="43.9767" lon="5.13264">
        <ele>334.8</ele>
        <time>2013-02-18T13:23:00.000Z</time>
      </trkpt>
      <trkpt lat="43.97672" lon="5.13266">
        <ele>334.8</ele>
        <time>2013-02-18T13:23:01.000Z</time>
      </trkpt>
      <trkpt lat="43.97674" lon="5.13267">
        <ele>334.7</ele>
        <time>2013-02-18T13:23:02.000Z</time>
      </trkpt>
      <trkpt lat="43.97677" lon="5.13268">
        <ele>334.8</ele>
        <time>2013-02-18T13:23:03.000Z</time>
      </trkpt>
      <trkpt lat="43.97679" lon="5.13269">
        <ele>334.9</ele>
        <time>2013-02-18T13:23:04.000Z</time>
      </trkpt>
      <trkpt lat="43.97681" lon="5.13271">
        <ele>335</ele>
        <time>2013-02-18T13:23:05.000Z</time>
      </trkpt>
      <trkpt lat="43.97684" lon="5.13273">
        <ele>335.3</ele>
        <time>2013-02-18T13:23:06.000Z</time>
      </trkpt>
      <trkpt lat="43.97686" lon="5.13275">
        <ele>335.5</ele>
        <time>2013-02-18T13:23:07.000Z</time>
      </trkpt>
      <trkpt lat="43.97688" lon="5.13278">
        <ele>335.8</ele>
        <time>2013-02-18T13:23:08.000Z</time>
      </trkpt>
      <trkpt lat="43.97689" lon="5.1328">
        <ele>335.8</ele>
        <time>2013-02-18T13:23:09.000Z</time>
      </trkpt>
      <trkpt lat="43.97691" lon="5.13283">
        <ele>335.7</ele>
        <time>2013-02-18T13:23:10.000Z</time>
      </trkpt>
      <trkpt lat="43.97691" lon="5.13287">
        <ele>335.6</ele>
        <time>2013-02-18T13:23:11.000Z</time>
      </trkpt>
      <trkpt lat="43.97691" lon="5.1329">
        <ele>335.7</ele>
        <time>2013-02-18T13:23:12.000Z</time>
      </trkpt>
      <trkpt lat="43.97691" lon="5.13293">
        <ele>335.9</ele>
        <time>2013-02-18T13:23:13.000Z</time>
      </trkpt>
      <trkpt lat="43.97691" lon="5.13298">
        <ele>336.2</ele>
        <time>2013-02-18T13:23:15.000Z</time>
      </trkpt>
      <trkpt lat="43.9769" lon="5.13301">
        <ele>336.4</ele>
        <time>2013-02-18T13:23:16.000Z</time>
      </trkpt>
      <trkpt lat="43.9769" lon="5.13304">
        <ele>336.4</ele>
        <time>2013-02-18T13:23:17.000Z</time>
      </trkpt>
      <trkpt lat="43.97688" lon="5.13307">
        <ele>336.8</ele>
        <time>2013-02-18T13:23:18.000Z</time>
      </trkpt>
      <trkpt lat="43.97687" lon="5.1331">
        <ele>336.9</ele>
        <time>2013-02-18T13:23:19.000Z</time>
      </trkpt>
      <trkpt lat="43.97686" lon="5.13313">
        <ele>337</ele>
        <time>2013-02-18T13:23:20.000Z</time>
      </trkpt>
      <trkpt lat="43.97683" lon="5.13318">
        <ele>337.6</ele>
        <time>2013-02-18T13:23:22.000Z</time>
      </trkpt>
      <trkpt lat="43.97682" lon="5.1332">
        <ele>337.8</ele>
        <time>2013-02-18T13:23:23.000Z</time>
      </trkpt>
      <trkpt lat="43.9768" lon="5.13326">
        <ele>338.1</ele>
        <time>2013-02-18T13:23:25.000Z</time>
      </trkpt>
      <trkpt lat="43.97679" lon="5.13329">
        <ele>338.2</ele>
        <time>2013-02-18T13:23:26.000Z</time>
      </trkpt>
      <trkpt lat="43.97677" lon="5.13334">
        <ele>338.5</ele>
        <time>2013-02-18T13:23:28.000Z</time>
      </trkpt>
      <trkpt lat="43.97676" lon="5.13336">
        <ele>338.6</ele>
        <time>2013-02-18T13:23:29.000Z</time>
      </trkpt>
      <trkpt lat="43.97674" lon="5.13341">
        <ele>339</ele>
        <time>2013-02-18T13:23:31.000Z</time>
      </trkpt>
      <trkpt lat="43.97674" lon="5.13344">
        <ele>339.2</ele>
        <time>2013-02-18T13:23:32.000Z</time>
      </trkpt>
      <trkpt lat="43.97672" lon="5.13349">
        <ele>339.5</ele>
        <time>2013-02-18T13:23:34.000Z</time>
      </trkpt>
      <trkpt lat="43.97671" lon="5.13352">
        <ele>339.5</ele>
        <time>2013-02-18T13:23:35.000Z</time>
      </trkpt>
      <trkpt lat="43.97669" lon="5.13357">
        <ele>339.8</ele>
        <time>2013-02-18T13:23:37.000Z</time>
      </trkpt>
      <trkpt lat="43.97668" lon="5.13359">
        <ele>340.3</ele>
        <time>2013-02-18T13:23:38.000Z</time>
      </trkpt>
      <trkpt lat="43.97666" lon="5.13364">
        <ele>340.9</ele>
        <time>2013-02-18T13:23:40.000Z</time>
      </trkpt>
      <trkpt lat="43.97665" lon="5.13367">
        <ele>341.3</ele>
        <time>2013-02-18T13:23:41.000Z</time>
      </trkpt>
      <trkpt lat="43.97663" lon="5.13372">
        <ele>341.7</ele>
        <time>2013-02-18T13:23:43.000Z</time>
      </trkpt>
      <trkpt lat="43.97662" lon="5.13374">
        <ele>341.9</ele>
        <time>2013-02-18T13:23:44.000Z</time>
      </trkpt>
      <trkpt lat="43.97661" lon="5.1338">
        <ele>342.5</ele>
        <time>2013-02-18T13:23:46.000Z</time>
      </trkpt>
      <trkpt lat="43.97659" lon="5.13382">
        <ele>342.5</ele>
        <time>2013-02-18T13:23:47.000Z</time>
      </trkpt>
      <trkpt lat="43.97657" lon="5.13387">
        <ele>342.6</ele>
        <time>2013-02-18T13:23:49.000Z</time>
      </trkpt>
      <trkpt lat="43.97656" lon="5.1339">
        <ele>342.5</ele>
        <time>2013-02-18T13:23:50.000Z</time>
      </trkpt>
      <trkpt lat="43.97655" lon="5.13395">
        <ele>342.8</ele>
        <time>2013-02-18T13:23:52.000Z</time>
      </trkpt>
      <trkpt lat="43.97654" lon="5.13398">
        <ele>342.9</ele>
        <time>2013-02-18T13:23:53.000Z</time>
      </trkpt>
      <trkpt lat="43.97653" lon="5.13403">
        <ele>343.2</ele>
        <time>2013-02-18T13:23:55.000Z</time>
      </trkpt>
      <trkpt lat="43.97652" lon="5.13406">
        <ele>343.4</ele>
        <time>2013-02-18T13:23:56.000Z</time>
      </trkpt>
      <trkpt lat="43.97653" lon="5.13412">
        <ele>342.9</ele>
        <time>2013-02-18T13:23:59.000Z</time>
      </trkpt>
      <trkpt lat="43.97652" lon="5.13413">
        <ele>342.6</ele>
        <time>2013-02-18T13:24:00.000Z</time>
      </trkpt>
      <trkpt lat="43.97653" lon="5.13416">
        <ele>343</ele>
        <time>2013-02-18T13:24:52.000Z</time>
      </trkpt>
      <trkpt lat="43.97655" lon="5.13417">
        <ele>341.9</ele>
        <time>2013-02-18T13:24:53.000Z</time>
      </trkpt>
      <trkpt lat="43.97657" lon="5.13418">
        <ele>341.1</ele>
        <time>2013-02-18T13:24:54.000Z</time>
      </trkpt>
      <trkpt lat="43.9766" lon="5.13418">
        <ele>340.8</ele>
        <time>2013-02-18T13:24:55.000Z</time>
      </trkpt>
      <trkpt lat="43.97663" lon="5.13419">
        <ele>340.9</ele>
        <time>2013-02-18T13:24:56.000Z</time>
      </trkpt>
      <trkpt lat="43.97666" lon="5.13419">
        <ele>340.5</ele>
        <time>2013-02-18T13:24:57.000Z</time>
      </trkpt>
      <trkpt lat="43.97663" lon="5.13422">
        <ele>341.9</ele>
        <time>2013-02-18T13:25:08.000Z</time>
      </trkpt>
      <trkpt lat="43.97662" lon="5.13423">
        <ele>342.8</ele>
        <time>2013-02-18T13:25:09.000Z</time>
      </trkpt>
      <trkpt lat="43.97658" lon="5.13425">
        <ele>343.5</ele>
        <time>2013-02-18T13:25:11.000Z</time>
      </trkpt>
      <trkpt lat="43.97657" lon="5.13427">
        <ele>345</ele>
        <time>2013-02-18T13:25:12.000Z</time>
      </trkpt>
      <trkpt lat="43.97653" lon="5.1343">
        <ele>346.9</ele>
        <time>2013-02-18T13:25:15.000Z</time>
      </trkpt>
      <trkpt lat="43.97653" lon="5.13432">
        <ele>347.6</ele>
        <time>2013-02-18T13:25:16.000Z</time>
      </trkpt>
      <trkpt lat="43.97654" lon="5.13437">
        <ele>350.3</ele>
        <time>2013-02-18T13:25:19.000Z</time>
      </trkpt>
      <trkpt lat="43.97653" lon="5.1344">
        <ele>348</ele>
        <time>2013-02-18T13:25:20.000Z</time>
      </trkpt>
      <trkpt lat="43.97653" lon="5.13446">
        <ele>347.7</ele>
        <time>2013-02-18T13:25:23.000Z</time>
      </trkpt>
      <trkpt lat="43.97653" lon="5.13447">
        <ele>347.4</ele>
        <time>2013-02-18T13:25:24.000Z</time>
      </trkpt>
      <trkpt lat="43.97656" lon="5.1345">
        <ele>345.1</ele>
        <time>2013-02-18T13:26:24.000Z</time>
      </trkpt>
      <trkpt lat="43.97657" lon="5.13451">
        <ele>345.3</ele>
        <time>2013-02-18T13:26:25.000Z</time>
      </trkpt>
      <trkpt lat="43.9766" lon="5.13455">
        <ele>346.3</ele>
        <time>2013-02-18T13:26:27.000Z</time>
      </trkpt>
      <trkpt lat="43.9766" lon="5.13456">
        <ele>346.2</ele>
        <time>2013-02-18T13:26:28.000Z</time>
      </trkpt>
      <trkpt lat="43.97659" lon="5.13459">
        <ele>345.9</ele>
        <time>2013-02-18T13:26:29.000Z</time>
      </trkpt>
      <trkpt lat="43.97663" lon="5.13461">
        <ele>346.6</ele>
        <time>2013-02-18T13:26:30.000Z</time>
      </trkpt>
      <trkpt lat="43.97666" lon="5.13462">
        <ele>346.2</ele>
        <time>2013-02-18T13:26:31.000Z</time>
      </trkpt>
      <trkpt lat="43.97668" lon="5.13464">
        <ele>346.2</ele>
        <time>2013-02-18T13:26:32.000Z</time>
      </trkpt>
      <trkpt lat="43.97672" lon="5.13463">
        <ele>346.2</ele>
        <time>2013-02-18T13:26:34.000Z</time>
      </trkpt>
      <trkpt lat="43.97674" lon="5.13463">
        <ele>345.7</ele>
        <time>2013-02-18T13:26:35.000Z</time>
      </trkpt>
      <trkpt lat="43.97677" lon="5.13461">
        <ele>345.5</ele>
        <time>2013-02-18T13:26:36.000Z</time>
      </trkpt>
      <trkpt lat="43.97679" lon="5.1346">
        <ele>344.8</ele>
        <time>2013-02-18T13:26:37.000Z</time>
      </trkpt>
      <trkpt lat="43.97681" lon="5.13458">
        <ele>344.9</ele>
        <time>2013-02-18T13:26:38.000Z</time>
      </trkpt>
      <trkpt lat="43.97683" lon="5.13455">
        <ele>345</ele>
        <time>2013-02-18T13:26:39.000Z</time>
      </trkpt>
      <trkpt lat="43.97685" lon="5.13452">
        <ele>344.8</ele>
        <time>2013-02-18T13:26:40.000Z</time>
      </trkpt>
      <trkpt lat="43.97686" lon="5.13449">
        <ele>344.4</ele>
        <time>2013-02-18T13:26:41.000Z</time>
      </trkpt>
      <trkpt lat="43.97688" lon="5.13446">
        <ele>344.5</ele>
        <time>2013-02-18T13:26:42.000Z</time>
      </trkpt>
      <trkpt lat="43.97689" lon="5.13443">
        <ele>345.3</ele>
        <time>2013-02-18T13:26:43.000Z</time>
      </trkpt>
      <trkpt lat="43.97691" lon="5.1344">
        <ele>346.1</ele>
        <time>2013-02-18T13:26:44.000Z</time>
      </trkpt>
      <trkpt lat="43.97692" lon="5.13436">
        <ele>345.6</ele>
        <time>2013-02-18T13:26:45.000Z</time>
      </trkpt>
      <trkpt lat="43.97693" lon="5.13433">
        <ele>345.8</ele>
        <time>2013-02-18T13:26:46.000Z</time>
      </trkpt>
      <trkpt lat="43.97695" lon="5.1343">
        <ele>345.7</ele>
        <time>2013-02-18T13:26:47.000Z</time>
      </trkpt>
      <trkpt lat="43.97697" lon="5.13427">
        <ele>345.3</ele>
        <time>2013-02-18T13:26:48.000Z</time>
      </trkpt>
      <trkpt lat="43.97699" lon="5.13424">
        <ele>345.3</ele>
        <time>2013-02-18T13:26:49.000Z</time>
      </trkpt>
      <trkpt lat="43.97701" lon="5.1342">
        <ele>344.9</ele>
        <time>2013-02-18T13:26:50.000Z</time>
      </trkpt>
      <trkpt lat="43.97703" lon="5.13417">
        <ele>344.5</ele>
        <time>2013-02-18T13:26:51.000Z</time>
      </trkpt>
      <trkpt lat="43.97705" lon="5.13413">
        <ele>344.1</ele>
        <time>2013-02-18T13:26:52.000Z</time>
      </trkpt>
      <trkpt lat="43.97708" lon="5.13409">
        <ele>343.9</ele>
        <time>2013-02-18T13:26:53.000Z</time>
      </trkpt>
      <trkpt lat="43.97711" lon="5.13406">
        <ele>343.6</ele>
        <time>2013-02-18T13:26:54.000Z</time>
      </trkpt>
      <trkpt lat="43.97713" lon="5.13402">
        <ele>343.2</ele>
        <time>2013-02-18T13:26:55.000Z</time>
      </trkpt>
      <trkpt lat="43.97716" lon="5.13398">
        <ele>343</ele>
        <time>2013-02-18T13:26:56.000Z</time>
      </trkpt>
      <trkpt lat="43.97719" lon="5.13394">
        <ele>343</ele>
        <time>2013-02-18T13:26:57.000Z</time>
      </trkpt>
      <trkpt lat="43.97722" lon="5.13391">
        <ele>343.1</ele>
        <time>2013-02-18T13:26:58.000Z</time>
      </trkpt>
      <trkpt lat="43.97724" lon="5.13388">
        <ele>343.1</ele>
        <time>2013-02-18T13:26:59.000Z</time>
      </trkpt>
      <trkpt lat="43.97727" lon="5.13384">
        <ele>343.2</ele>
        <time>2013-02-18T13:27:00.000Z</time>
      </trkpt>
      <trkpt lat="43.9773" lon="5.13381">
        <ele>343.3</ele>
        <time>2013-02-18T13:27:01.000Z</time>
      </trkpt>
      <trkpt lat="43.97733" lon="5.13378">
        <ele>343.3</ele>
        <time>2013-02-18T13:27:02.000Z</time>
      </trkpt>
      <trkpt lat="43.97736" lon="5.13376">
        <ele>343.2</ele>
        <time>2013-02-18T13:27:03.000Z</time>
      </trkpt>
      <trkpt lat="43.97739" lon="5.13373">
        <ele>343.4</ele>
        <time>2013-02-18T13:27:04.000Z</time>
      </trkpt>
      <trkpt lat="43.97742" lon="5.1337">
        <ele>343.5</ele>
        <time>2013-02-18T13:27:05.000Z</time>
      </trkpt>
      <trkpt lat="43.97746" lon="5.13368">
        <ele>343.5</ele>
        <time>2013-02-18T13:27:06.000Z</time>
      </trkpt>
      <trkpt lat="43.97749" lon="5.13366">
        <ele>343.6</ele>
        <time>2013-02-18T13:27:07.000Z</time>
      </trkpt>
      <trkpt lat="43.97752" lon="5.13365">
        <ele>343.8</ele>
        <time>2013-02-18T13:27:08.000Z</time>
      </trkpt>
      <trkpt lat="43.97756" lon="5.13363">
        <ele>343.8</ele>
        <time>2013-02-18T13:27:09.000Z</time>
      </trkpt>
      <trkpt lat="43.9776" lon="5.13362">
        <ele>343.9</ele>
        <time>2013-02-18T13:27:10.000Z</time>
      </trkpt>
      <trkpt lat="43.97763" lon="5.1336">
        <ele>343.7</ele>
        <time>2013-02-18T13:27:11.000Z</time>
      </trkpt>
      <trkpt lat="43.97767" lon="5.1336">
        <ele>343.6</ele>
        <time>2013-02-18T13:27:12.000Z</time>
      </trkpt>
      <trkpt lat="43.9777" lon="5.13359">
        <ele>344.3</ele>
        <time>2013-02-18T13:27:13.000Z</time>
      </trkpt>
      <trkpt lat="43.97774" lon="5.13358">
        <ele>344.7</ele>
        <time>2013-02-18T13:27:14.000Z</time>
      </trkpt>
      <trkpt lat="43.97777" lon="5.13358">
        <ele>344.8</ele>
        <time>2013-02-18T13:27:15.000Z</time>
      </trkpt>
      <trkpt lat="43.9778" lon="5.13357">
        <ele>344.9</ele>
        <time>2013-02-18T13:27:16.000Z</time>
      </trkpt>
      <trkpt lat="43.97784" lon="5.13355">
        <ele>345.2</ele>
        <time>2013-02-18T13:27:17.000Z</time>
      </trkpt>
      <trkpt lat="43.97787" lon="5.13354">
        <ele>345.4</ele>
        <time>2013-02-18T13:27:18.000Z</time>
      </trkpt>
      <trkpt lat="43.97789" lon="5.13352">
        <ele>345.6</ele>
        <time>2013-02-18T13:27:19.000Z</time>
      </trkpt>
      <trkpt lat="43.97792" lon="5.13351">
        <ele>345.8</ele>
        <time>2013-02-18T13:27:20.000Z</time>
      </trkpt>
      <trkpt lat="43.97795" lon="5.13349">
        <ele>345.7</ele>
        <time>2013-02-18T13:27:21.000Z</time>
      </trkpt>
      <trkpt lat="43.97799" lon="5.13348">
        <ele>345.8</ele>
        <time>2013-02-18T13:27:22.000Z</time>
      </trkpt>
      <trkpt lat="43.97802" lon="5.13347">
        <ele>346.3</ele>
        <time>2013-02-18T13:27:23.000Z</time>
      </trkpt>
      <trkpt lat="43.97805" lon="5.13345">
        <ele>346.2</ele>
        <time>2013-02-18T13:27:24.000Z</time>
      </trkpt>
      <trkpt lat="43.97809" lon="5.13344">
        <ele>346</ele>
        <time>2013-02-18T13:27:25.000Z</time>
      </trkpt>
      <trkpt lat="43.97812" lon="5.13343">
        <ele>345.9</ele>
        <time>2013-02-18T13:27:26.000Z</time>
      </trkpt>
      <trkpt lat="43.97815" lon="5.13341">
        <ele>345.6</ele>
        <time>2013-02-18T13:27:27.000Z</time>
      </trkpt>
      <trkpt lat="43.97818" lon="5.1334">
        <ele>345.7</ele>
        <time>2013-02-18T13:27:28.000Z</time>
      </trkpt>
      <trkpt lat="43.97821" lon="5.13339">
        <ele>345.8</ele>
        <time>2013-02-18T13:27:29.000Z</time>
      </trkpt>
      <trkpt lat="43.97824" lon="5.13338">
        <ele>345.7</ele>
        <time>2013-02-18T13:27:30.000Z</time>
      </trkpt>
      <trkpt lat="43.97827" lon="5.13337">
        <ele>345.8</ele>
        <time>2013-02-18T13:27:31.000Z</time>
      </trkpt>
      <trkpt lat="43.97831" lon="5.13336">
        <ele>345.6</ele>
        <time>2013-02-18T13:27:32.000Z</time>
      </trkpt>
      <trkpt lat="43.97833" lon="5.13335">
        <ele>345.6</ele>
        <time>2013-02-18T13:27:33.000Z</time>
      </trkpt>
      <trkpt lat="43.97837" lon="5.13334">
        <ele>345.7</ele>
        <time>2013-02-18T13:27:34.000Z</time>
      </trkpt>
      <trkpt lat="43.9784" lon="5.13333">
        <ele>345.8</ele>
        <time>2013-02-18T13:27:35.000Z</time>
      </trkpt>
      <trkpt lat="43.97843" lon="5.13332">
        <ele>345.7</ele>
        <time>2013-02-18T13:27:36.000Z</time>
      </trkpt>
      <trkpt lat="43.97846" lon="5.13331">
        <ele>345.6</ele>
        <time>2013-02-18T13:27:37.000Z</time>
      </trkpt>
      <trkpt lat="43.97849" lon="5.13331">
        <ele>345.6</ele>
        <time>2013-02-18T13:27:38.000Z</time>
      </trkpt>
      <trkpt lat="43.97852" lon="5.1333">
        <ele>345.7</ele>
        <time>2013-02-18T13:27:39.000Z</time>
      </trkpt>
      <trkpt lat="43.97856" lon="5.13329">
        <ele>345.6</ele>
        <time>2013-02-18T13:27:40.000Z</time>
      </trkpt>
      <trkpt lat="43.97859" lon="5.13329">
        <ele>345.7</ele>
        <time>2013-02-18T13:27:41.000Z</time>
      </trkpt>
      <trkpt lat="43.97862" lon="5.13328">
        <ele>345.7</ele>
        <time>2013-02-18T13:27:42.000Z</time>
      </trkpt>
      <trkpt lat="43.97865" lon="5.13327">
        <ele>345.8</ele>
        <time>2013-02-18T13:27:43.000Z</time>
      </trkpt>
      <trkpt lat="43.97869" lon="5.13327">
        <ele>346</ele>
        <time>2013-02-18T13:27:44.000Z</time>
      </trkpt>
      <trkpt lat="43.97872" lon="5.13326">
        <ele>346</ele>
        <time>2013-02-18T13:27:45.000Z</time>
      </trkpt>
      <trkpt lat="43.97875" lon="5.13325">
        <ele>345.9</ele>
        <time>2013-02-18T13:27:46.000Z</time>
      </trkpt>
      <trkpt lat="43.97878" lon="5.13324">
        <ele>346</ele>
        <time>2013-02-18T13:27:47.000Z</time>
      </trkpt>
      <trkpt lat="43.97882" lon="5.13324">
        <ele>346.1</ele>
        <time>2013-02-18T13:27:48.000Z</time>
      </trkpt>
      <trkpt lat="43.97885" lon="5.13323">
        <ele>345.9</ele>
        <time>2013-02-18T13:27:49.000Z</time>
      </trkpt>
      <trkpt lat="43.97888" lon="5.13322">
        <ele>345.8</ele>
        <time>2013-02-18T13:27:50.000Z</time>
      </trkpt>
      <trkpt lat="43.97892" lon="5.13322">
        <ele>346</ele>
        <time>2013-02-18T13:27:51.000Z</time>
      </trkpt>
      <trkpt lat="43.97895" lon="5.13321">
        <ele>346.1</ele>
        <time>2013-02-18T13:27:52.000Z</time>
      </trkpt>
      <trkpt lat="43.97898" lon="5.1332">
        <ele>346.6</ele>
        <time>2013-02-18T13:27:53.000Z</time>
      </trkpt>
      <trkpt lat="43.97901" lon="5.13319">
        <ele>346.8</ele>
        <time>2013-02-18T13:27:54.000Z</time>
      </trkpt>
      <trkpt lat="43.97903" lon="5.13318">
        <ele>347.2</ele>
        <time>2013-02-18T13:27:55.000Z</time>
      </trkpt>
      <trkpt lat="43.97906" lon="5.13318">
        <ele>347.1</ele>
        <time>2013-02-18T13:27:56.000Z</time>
      </trkpt>
      <trkpt lat="43.97908" lon="5.13316">
        <ele>347.8</ele>
        <time>2013-02-18T13:27:57.000Z</time>
      </trkpt>
      <trkpt lat="43.97913" lon="5.13316">
        <ele>348.3</ele>
        <time>2013-02-18T13:27:59.000Z</time>
      </trkpt>
      <trkpt lat="43.97914" lon="5.13317">
        <ele>348.7</ele>
        <time>2013-02-18T13:28:00.000Z</time>
      </trkpt>
      <trkpt lat="43.97919" lon="5.13316">
        <ele>348.4</ele>
        <time>2013-02-18T13:28:26.000Z</time>
      </trkpt>
      <trkpt lat="43.9792" lon="5.13316">
        <ele>348.2</ele>
        <time>2013-02-18T13:28:27.000Z</time>
      </trkpt>
      <trkpt lat="43.97924" lon="5.13317">
        <ele>347.6</ele>
        <time>2013-02-18T13:28:29.000Z</time>
      </trkpt>
      <trkpt lat="43.97925" lon="5.13318">
        <ele>347.4</ele>
        <time>2013-02-18T13:28:30.000Z</time>
      </trkpt>
      <trkpt lat="43.97925" lon="5.13324">
        <ele>346.6</ele>
        <time>2013-02-18T13:28:32.000Z</time>
      </trkpt>
      <trkpt lat="43.97926" lon="5.13327">
        <ele>346.2</ele>
        <time>2013-02-18T13:28:33.000Z</time>
      </trkpt>
      <trkpt lat="43.97927" lon="5.13329">
        <ele>345.9</ele>
        <time>2013-02-18T13:28:34.000Z</time>
      </trkpt>
      <trkpt lat="43.97929" lon="5.13332">
        <ele>345.5</ele>
        <time>2013-02-18T13:28:35.000Z</time>
      </trkpt>
      <trkpt lat="43.97933" lon="5.13333">
        <ele>346.4</ele>
        <time>2013-02-18T13:28:37.000Z</time>
      </trkpt>
      <trkpt lat="43.97935" lon="5.13334">
        <ele>345.9</ele>
        <time>2013-02-18T13:28:38.000Z</time>
      </trkpt>
      <trkpt lat="43.97938" lon="5.13333">
        <ele>345.4</ele>
        <time>2013-02-18T13:28:45.000Z</time>
      </trkpt>
      <trkpt lat="43.9794" lon="5.13332">
        <ele>345.1</ele>
        <time>2013-02-18T13:28:46.000Z</time>
      </trkpt>
      <trkpt lat="43.97944" lon="5.13333">
        <ele>344.5</ele>
        <time>2013-02-18T13:28:48.000Z</time>
      </trkpt>
      <trkpt lat="43.97946" lon="5.13333">
        <ele>344.4</ele>
        <time>2013-02-18T13:28:49.000Z</time>
      </trkpt>
      <trkpt lat="43.97949" lon="5.13334">
        <ele>342.7</ele>
        <time>2013-02-18T13:28:52.000Z</time>
      </trkpt>
      <trkpt lat="43.97951" lon="5.13334">
        <ele>342.8</ele>
        <time>2013-02-18T13:28:53.000Z</time>
      </trkpt>
      <trkpt lat="43.97955" lon="5.13335">
        <ele>341.5</ele>
        <time>2013-02-18T13:28:55.000Z</time>
      </trkpt>
      <trkpt lat="43.97958" lon="5.13334">
        <ele>341.2</ele>
        <time>2013-02-18T13:28:56.000Z</time>
      </trkpt>
      <trkpt lat="43.97962" lon="5.13334">
        <ele>340.7</ele>
        <time>2013-02-18T13:28:58.000Z</time>
      </trkpt>
      <trkpt lat="43.97964" lon="5.13334">
        <ele>341.5</ele>
        <time>2013-02-18T13:28:59.000Z</time>
      </trkpt>
      <trkpt lat="43.97966" lon="5.13333">
        <ele>342.1</ele>
        <time>2013-02-18T13:29:00.000Z</time>
      </trkpt>
      <trkpt lat="43.97968" lon="5.13332">
        <ele>342.7</ele>
        <time>2013-02-18T13:29:01.000Z</time>
      </trkpt>
      <trkpt lat="43.97971" lon="5.13332">
        <ele>342.9</ele>
        <time>2013-02-18T13:29:02.000Z</time>
      </trkpt>
      <trkpt lat="43.97973" lon="5.13332">
        <ele>342.7</ele>
        <time>2013-02-18T13:29:03.000Z</time>
      </trkpt>
      <trkpt lat="43.97977" lon="5.13332">
        <ele>341.5</ele>
        <time>2013-02-18T13:29:05.000Z</time>
      </trkpt>
      <trkpt lat="43.97979" lon="5.13332">
        <ele>341.1</ele>
        <time>2013-02-18T13:29:06.000Z</time>
      </trkpt>
      <trkpt lat="43.97983" lon="5.13333">
        <ele>340.1</ele>
        <time>2013-02-18T13:29:07.000Z</time>
      </trkpt>
      <trkpt lat="43.97986" lon="5.13333">
        <ele>339</ele>
        <time>2013-02-18T13:29:08.000Z</time>
      </trkpt>
      <trkpt lat="43.9799" lon="5.13332">
        <ele>337.3</ele>
        <time>2013-02-18T13:29:10.000Z</time>
      </trkpt>
      <trkpt lat="43.97991" lon="5.13331">
        <ele>336.9</ele>
        <time>2013-02-18T13:29:11.000Z</time>
      </trkpt>
      <trkpt lat="43.97995" lon="5.13329">
        <ele>334.5</ele>
        <time>2013-02-18T13:29:17.000Z</time>
      </trkpt>
      <trkpt lat="43.97997" lon="5.13328">
        <ele>334</ele>
        <time>2013-02-18T13:29:18.000Z</time>
      </trkpt>
      <trkpt lat="43.98001" lon="5.13327">
        <ele>332</ele>
        <time>2013-02-18T13:29:24.000Z</time>
      </trkpt>
      <trkpt lat="43.98001" lon="5.13327">
        <ele>331.6</ele>
        <time>2013-02-18T13:29:25.000Z</time>
      </trkpt>
      <trkpt lat="43.98004" lon="5.13324">
        <ele>330.5</ele>
        <time>2013-02-18T13:29:29.000Z</time>
      </trkpt>
      <trkpt lat="43.98006" lon="5.13323">
        <ele>330</ele>
        <time>2013-02-18T13:29:30.000Z</time>
      </trkpt>
      <trkpt lat="43.98009" lon="5.1332">
        <ele>328.9</ele>
        <time>2013-02-18T13:29:32.000Z</time>
      </trkpt>
      <trkpt lat="43.98011" lon="5.13319">
        <ele>328.4</ele>
        <time>2013-02-18T13:29:33.000Z</time>
      </trkpt>
      <trkpt lat="43.98014" lon="5.13316">
        <ele>327.5</ele>
        <time>2013-02-18T13:29:35.000Z</time>
      </trkpt>
      <trkpt lat="43.98016" lon="5.13314">
        <ele>326.7</ele>
        <time>2013-02-18T13:29:36.000Z</time>
      </trkpt>
      <trkpt lat="43.98019" lon="5.1331">
        <ele>327.2</ele>
        <time>2013-02-18T13:29:38.000Z</time>
      </trkpt>
      <trkpt lat="43.9802" lon="5.13308">
        <ele>326.7</ele>
        <time>2013-02-18T13:29:39.000Z</time>
      </trkpt>
      <trkpt lat="43.98022" lon="5.13306">
        <ele>326.7</ele>
        <time>2013-02-18T13:29:40.000Z</time>
      </trkpt>
      <trkpt lat="43.98025" lon="5.13305">
        <ele>326</ele>
        <time>2013-02-18T13:29:41.000Z</time>
      </trkpt>
      <trkpt lat="43.98029" lon="5.13303">
        <ele>325.4</ele>
        <time>2013-02-18T13:29:43.000Z</time>
      </trkpt>
      <trkpt lat="43.98031" lon="5.13303">
        <ele>323.2</ele>
        <time>2013-02-18T13:29:44.000Z</time>
      </trkpt>
      <trkpt lat="43.98033" lon="5.13302">
        <ele>322.6</ele>
        <time>2013-02-18T13:29:45.000Z</time>
      </trkpt>
      <trkpt lat="43.98035" lon="5.13302">
        <ele>322.1</ele>
        <time>2013-02-18T13:29:46.000Z</time>
      </trkpt>
      <trkpt lat="43.98038" lon="5.13301">
        <ele>321.1</ele>
        <time>2013-02-18T13:29:48.000Z</time>
      </trkpt>
      <trkpt lat="43.98039" lon="5.13297">
        <ele>319</ele>
        <time>2013-02-18T13:29:49.000Z</time>
      </trkpt>
      <trkpt lat="43.98041" lon="5.13294">
        <ele>317.7</ele>
        <time>2013-02-18T13:29:51.000Z</time>
      </trkpt>
      <trkpt lat="43.98042" lon="5.13293">
        <ele>318.2</ele>
        <time>2013-02-18T13:29:52.000Z</time>
      </trkpt>
      <trkpt lat="43.98046" lon="5.13289">
        <ele>317.7</ele>
        <time>2013-02-18T13:29:55.000Z</time>
      </trkpt>
      <trkpt lat="43.98047" lon="5.13288">
        <ele>317.7</ele>
        <time>2013-02-18T13:29:56.000Z</time>
      </trkpt>
      <trkpt lat="43.98049" lon="5.13285">
        <ele>316.6</ele>
        <time>2013-02-18T13:29:58.000Z</time>
      </trkpt>
      <trkpt lat="43.9805" lon="5.13283">
        <ele>317.5</ele>
        <time>2013-02-18T13:29:59.000Z</time>
      </trkpt>
      <trkpt lat="43.98052" lon="5.13287">
        <ele>321</ele>
        <time>2013-02-18T13:31:08.000Z</time>
      </trkpt>
      <trkpt lat="43.98054" lon="5.13288">
        <ele>321.3</ele>
        <time>2013-02-18T13:31:09.000Z</time>
      </trkpt>
      <trkpt lat="43.9805" lon="5.1329">
        <ele>320.9</ele>
        <time>2013-02-18T13:31:11.000Z</time>
      </trkpt>
      <trkpt lat="43.98049" lon="5.13291">
        <ele>321.4</ele>
        <time>2013-02-18T13:31:12.000Z</time>
      </trkpt>
      <trkpt lat="43.9805" lon="5.13297">
        <ele>320.1</ele>
        <time>2013-02-18T13:31:17.000Z</time>
      </trkpt>
      <trkpt lat="43.9805" lon="5.13299">
        <ele>319.9</ele>
        <time>2013-02-18T13:31:18.000Z</time>
      </trkpt>
      <trkpt lat="43.98054" lon="5.13302">
        <ele>319.3</ele>
        <time>2013-02-18T13:31:24.000Z</time>
      </trkpt>
      <trkpt lat="43.98055" lon="5.13302">
        <ele>319.2</ele>
        <time>2013-02-18T13:31:25.000Z</time>
      </trkpt>
      <trkpt lat="43.98059" lon="5.13301">
        <ele>319.2</ele>
        <time>2013-02-18T13:31:27.000Z</time>
      </trkpt>
      <trkpt lat="43.98061" lon="5.13301">
        <ele>320.2</ele>
        <time>2013-02-18T13:31:28.000Z</time>
      </trkpt>
      <trkpt lat="43.98064" lon="5.13303">
        <ele>321.5</ele>
        <time>2013-02-18T13:32:36.000Z</time>
      </trkpt>
      <trkpt lat="43.98066" lon="5.13302">
        <ele>322.6</ele>
        <time>2013-02-18T13:32:37.000Z</time>
      </trkpt>
      <trkpt lat="43.98069" lon="5.13298">
        <ele>328.9</ele>
        <time>2013-02-18T13:32:40.000Z</time>
      </trkpt>
      <trkpt lat="43.9807" lon="5.13297">
        <ele>330.3</ele>
        <time>2013-02-18T13:32:41.000Z</time>
      </trkpt>
      <trkpt lat="43.98074" lon="5.13294">
        <ele>330.2</ele>
        <time>2013-02-18T13:32:45.000Z</time>
      </trkpt>
      <trkpt lat="43.98075" lon="5.13293">
        <ele>331</ele>
        <time>2013-02-18T13:32:46.000Z</time>
      </trkpt>
      <trkpt lat="43.98077" lon="5.13289">
        <ele>334.4</ele>
        <time>2013-02-18T13:32:57.000Z</time>
      </trkpt>
      <trkpt lat="43.98078" lon="5.13288">
        <ele>333.9</ele>
        <time>2013-02-18T13:32:58.000Z</time>
      </trkpt>
      <trkpt lat="43.98082" lon="5.13286">
        <ele>337.7</ele>
        <time>2013-02-18T13:33:05.000Z</time>
      </trkpt>
      <trkpt lat="43.98083" lon="5.13285">
        <ele>338.1</ele>
        <time>2013-02-18T13:33:06.000Z</time>
      </trkpt>
      <trkpt lat="43.98087" lon="5.13283">
        <ele>335.9</ele>
        <time>2013-02-18T13:33:09.000Z</time>
      </trkpt>
      <trkpt lat="43.98087" lon="5.13282">
        <ele>336.5</ele>
        <time>2013-02-18T13:33:10.000Z</time>
      </trkpt>
      <trkpt lat="43.98089" lon="5.13277">
        <ele>334.4</ele>
        <time>2013-02-18T13:33:18.000Z</time>
      </trkpt>
      <trkpt lat="43.9809" lon="5.13277">
        <ele>334.5</ele>
        <time>2013-02-18T13:33:19.000Z</time>
      </trkpt>
      <trkpt lat="43.98093" lon="5.13274">
        <ele>335.2</ele>
        <time>2013-02-18T13:33:21.000Z</time>
      </trkpt>
      <trkpt lat="43.98094" lon="5.13273">
        <ele>334.2</ele>
        <time>2013-02-18T13:33:22.000Z</time>
      </trkpt>
      <trkpt lat="43.98099" lon="5.13272">
        <ele>333.8</ele>
        <time>2013-02-18T13:33:24.000Z</time>
      </trkpt>
      <trkpt lat="43.981" lon="5.13271">
        <ele>333.7</ele>
        <time>2013-02-18T13:33:25.000Z</time>
      </trkpt>
      <trkpt lat="43.98103" lon="5.13269">
        <ele>335.7</ele>
        <time>2013-02-18T13:33:29.000Z</time>
      </trkpt>
      <trkpt lat="43.98105" lon="5.13268">
        <ele>335.6</ele>
        <time>2013-02-18T13:33:30.000Z</time>
      </trkpt>
      <trkpt lat="43.98109" lon="5.13269">
        <ele>333.5</ele>
        <time>2013-02-18T13:33:33.000Z</time>
      </trkpt>
      <trkpt lat="43.9811" lon="5.1327">
        <ele>333.4</ele>
        <time>2013-02-18T13:33:34.000Z</time>
      </trkpt>
      <trkpt lat="43.98114" lon="5.13271">
        <ele>333.7</ele>
        <time>2013-02-18T13:33:38.000Z</time>
      </trkpt>
      <trkpt lat="43.98115" lon="5.13272">
        <ele>332.9</ele>
        <time>2013-02-18T13:33:39.000Z</time>
      </trkpt>
      <trkpt lat="43.98119" lon="5.13271">
        <ele>333.1</ele>
        <time>2013-02-18T13:33:44.000Z</time>
      </trkpt>
      <trkpt lat="43.98122" lon="5.13277">
        <ele>327.9</ele>
        <time>2013-02-18T13:33:45.000Z</time>
      </trkpt>
      <trkpt lat="43.98123" lon="5.13274">
        <ele>331.3</ele>
        <time>2013-02-18T13:33:55.000Z</time>
      </trkpt>
      <trkpt lat="43.98125" lon="5.13271">
        <ele>333.4</ele>
        <time>2013-02-18T13:33:56.000Z</time>
      </trkpt>
      <trkpt lat="43.9813" lon="5.13271">
        <ele>331.9</ele>
        <time>2013-02-18T13:33:58.000Z</time>
      </trkpt>
      <trkpt lat="43.98132" lon="5.13271">
        <ele>332.2</ele>
        <time>2013-02-18T13:33:59.000Z</time>
      </trkpt>
      <trkpt lat="43.98134" lon="5.1327">
        <ele>331.8</ele>
        <time>2013-02-18T13:34:01.000Z</time>
      </trkpt>
      <trkpt lat="43.98136" lon="5.1327">
        <ele>330.8</ele>
        <time>2013-02-18T13:34:02.000Z</time>
      </trkpt>
      <trkpt lat="43.9814" lon="5.13267">
        <ele>332.9</ele>
        <time>2013-02-18T13:34:05.000Z</time>
      </trkpt>
      <trkpt lat="43.98142" lon="5.13268">
        <ele>331.1</ele>
        <time>2013-02-18T13:34:06.000Z</time>
      </trkpt>
      <trkpt lat="43.98145" lon="5.13266">
        <ele>333.1</ele>
        <time>2013-02-18T13:34:08.000Z</time>
      </trkpt>
      <trkpt lat="43.98147" lon="5.13266">
        <ele>332.2</ele>
        <time>2013-02-18T13:34:09.000Z</time>
      </trkpt>
      <trkpt lat="43.9815" lon="5.13265">
        <ele>331.8</ele>
        <time>2013-02-18T13:34:11.000Z</time>
      </trkpt>
      <trkpt lat="43.98153" lon="5.13267">
        <ele>327.4</ele>
        <time>2013-02-18T13:34:12.000Z</time>
      </trkpt>
      <trkpt lat="43.98157" lon="5.13267">
        <ele>323.6</ele>
        <time>2013-02-18T13:34:14.000Z</time>
      </trkpt>
      <trkpt lat="43.98157" lon="5.13266">
        <ele>325</ele>
        <time>2013-02-18T13:34:15.000Z</time>
      </trkpt>
      <trkpt lat="43.9816" lon="5.13265">
        <ele>326.1</ele>
        <time>2013-02-18T13:34:17.000Z</time>
      </trkpt>
      <trkpt lat="43.98162" lon="5.13264">
        <ele>326.3</ele>
        <time>2013-02-18T13:34:18.000Z</time>
      </trkpt>
      <trkpt lat="43.98166" lon="5.13263">
        <ele>327.4</ele>
        <time>2013-02-18T13:34:21.000Z</time>
      </trkpt>
      <trkpt lat="43.98168" lon="5.13262">
        <ele>328</ele>
        <time>2013-02-18T13:34:22.000Z</time>
      </trkpt>
      <trkpt lat="43.98172" lon="5.1326">
        <ele>331.5</ele>
        <time>2013-02-18T13:34:25.000Z</time>
      </trkpt>
      <trkpt lat="43.98173" lon="5.13259">
        <ele>332.2</ele>
        <time>2013-02-18T13:34:26.000Z</time>
      </trkpt>
      <trkpt lat="43.98177" lon="5.13258">
        <ele>331.5</ele>
        <time>2013-02-18T13:34:29.000Z</time>
      </trkpt>
      <trkpt lat="43.98179" lon="5.13259">
        <ele>330.6</ele>
        <time>2013-02-18T13:34:30.000Z</time>
      </trkpt>
      <trkpt lat="43.98183" lon="5.13259">
        <ele>326.7</ele>
        <time>2013-02-18T13:34:32.000Z</time>
      </trkpt>
      <trkpt lat="43.98184" lon="5.13258">
        <ele>327.6</ele>
        <time>2013-02-18T13:34:33.000Z</time>
      </trkpt>
      <trkpt lat="43.98187" lon="5.13255">
        <ele>327.6</ele>
        <time>2013-02-18T13:34:35.000Z</time>
      </trkpt>
      <trkpt lat="43.98188" lon="5.13254">
        <ele>327.2</ele>
        <time>2013-02-18T13:34:36.000Z</time>
      </trkpt>
      <trkpt lat="43.98191" lon="5.13252">
        <ele>327</ele>
        <time>2013-02-18T13:34:38.000Z</time>
      </trkpt>
      <trkpt lat="43.98192" lon="5.13251">
        <ele>327.1</ele>
        <time>2013-02-18T13:34:39.000Z</time>
      </trkpt>
      <trkpt lat="43.98194" lon="5.13246">
        <ele>327.6</ele>
        <time>2013-02-18T13:34:42.000Z</time>
      </trkpt>
      <trkpt lat="43.98195" lon="5.13243">
        <ele>328.4</ele>
        <time>2013-02-18T13:34:43.000Z</time>
      </trkpt>
      <trkpt lat="43.98198" lon="5.1324">
        <ele>328.8</ele>
        <time>2013-02-18T13:34:46.000Z</time>
      </trkpt>
      <trkpt lat="43.98199" lon="5.13238">
        <ele>329.2</ele>
        <time>2013-02-18T13:34:47.000Z</time>
      </trkpt>
      <trkpt lat="43.98203" lon="5.13236">
        <ele>329.3</ele>
        <time>2013-02-18T13:34:49.000Z</time>
      </trkpt>
      <trkpt lat="43.98204" lon="5.13234">
        <ele>329.8</ele>
        <time>2013-02-18T13:34:50.000Z</time>
      </trkpt>
      <trkpt lat="43.98206" lon="5.13232">
        <ele>331.7</ele>
        <time>2013-02-18T13:34:52.000Z</time>
      </trkpt>
      <trkpt lat="43.98208" lon="5.13231">
        <ele>331.4</ele>
        <time>2013-02-18T13:34:53.000Z</time>
      </trkpt>
      <trkpt lat="43.98211" lon="5.13229">
        <ele>331.2</ele>
        <time>2013-02-18T13:34:55.000Z</time>
      </trkpt>
      <trkpt lat="43.98212" lon="5.13228">
        <ele>331.7</ele>
        <time>2013-02-18T13:34:56.000Z</time>
      </trkpt>
      <trkpt lat="43.98215" lon="5.13226">
        <ele>332.4</ele>
        <time>2013-02-18T13:34:58.000Z</time>
      </trkpt>
      <trkpt lat="43.98216" lon="5.13224">
        <ele>334.5</ele>
        <time>2013-02-18T13:34:59.000Z</time>
      </trkpt>
      <trkpt lat="43.98219" lon="5.13223">
        <ele>334</ele>
        <time>2013-02-18T13:35:01.000Z</time>
      </trkpt>
      <trkpt lat="43.98221" lon="5.13223">
        <ele>334.8</ele>
        <time>2013-02-18T13:35:02.000Z</time>
      </trkpt>
      <trkpt lat="43.98224" lon="5.13221">
        <ele>336</ele>
        <time>2013-02-18T13:35:04.000Z</time>
      </trkpt>
      <trkpt lat="43.98225" lon="5.1322">
        <ele>337.6</ele>
        <time>2013-02-18T13:35:05.000Z</time>
      </trkpt>
      <trkpt lat="43.98229" lon="5.13219">
        <ele>338.3</ele>
        <time>2013-02-18T13:35:07.000Z</time>
      </trkpt>
      <trkpt lat="43.9823" lon="5.13219">
        <ele>337.6</ele>
        <time>2013-02-18T13:35:08.000Z</time>
      </trkpt>
      <trkpt lat="43.98234" lon="5.13218">
        <ele>336.8</ele>
        <time>2013-02-18T13:35:10.000Z</time>
      </trkpt>
      <trkpt lat="43.98236" lon="5.13217">
        <ele>336.5</ele>
        <time>2013-02-18T13:35:11.000Z</time>
      </trkpt>
      <trkpt lat="43.98239" lon="5.13214">
        <ele>340.9</ele>
        <time>2013-02-18T13:35:14.000Z</time>
      </trkpt>
      <trkpt lat="43.98241" lon="5.13214">
        <ele>340.9</ele>
        <time>2013-02-18T13:35:15.000Z</time>
      </trkpt>
      <trkpt lat="43.98245" lon="5.13215">
        <ele>340.4</ele>
        <time>2013-02-18T13:35:17.000Z</time>
      </trkpt>
      <trkpt lat="43.98247" lon="5.13215">
        <ele>339.1</ele>
        <time>2013-02-18T13:35:18.000Z</time>
      </trkpt>
      <trkpt lat="43.9825" lon="5.13214">
        <ele>340.3</ele>
        <time>2013-02-18T13:35:20.000Z</time>
      </trkpt>
      <trkpt lat="43.98252" lon="5.13214">
        <ele>340.5</ele>
        <time>2013-02-18T13:35:21.000Z</time>
      </trkpt>
      <trkpt lat="43.98256" lon="5.13214">
        <ele>341.4</ele>
        <time>2013-02-18T13:35:23.000Z</time>
      </trkpt>
      <trkpt lat="43.98258" lon="5.13215">
        <ele>340.7</ele>
        <time>2013-02-18T13:35:24.000Z</time>
      </trkpt>
      <trkpt lat="43.98262" lon="5.13215">
        <ele>341.9</ele>
        <time>2013-02-18T13:35:26.000Z</time>
      </trkpt>
      <trkpt lat="43.98264" lon="5.13215">
        <ele>342.4</ele>
        <time>2013-02-18T13:35:27.000Z</time>
      </trkpt>
      <trkpt lat="43.98268" lon="5.13215">
        <ele>341.8</ele>
        <time>2013-02-18T13:35:29.000Z</time>
      </trkpt>
      <trkpt lat="43.98269" lon="5.13215">
        <ele>341.8</ele>
        <time>2013-02-18T13:35:30.000Z</time>
      </trkpt>
      <trkpt lat="43.98273" lon="5.13213">
        <ele>343.3</ele>
        <time>2013-02-18T13:35:32.000Z</time>
      </trkpt>
      <trkpt lat="43.98275" lon="5.13213">
        <ele>342.6</ele>
        <time>2013-02-18T13:35:33.000Z</time>
      </trkpt>
      <trkpt lat="43.98278" lon="5.13212">
        <ele>342.5</ele>
        <time>2013-02-18T13:35:35.000Z</time>
      </trkpt>
      <trkpt lat="43.9828" lon="5.1321">
        <ele>342.2</ele>
        <time>2013-02-18T13:35:36.000Z</time>
      </trkpt>
      <trkpt lat="43.98284" lon="5.13209">
        <ele>341.6</ele>
        <time>2013-02-18T13:35:38.000Z</time>
      </trkpt>
      <trkpt lat="43.98285" lon="5.13208">
        <ele>341.8</ele>
        <time>2013-02-18T13:35:39.000Z</time>
      </trkpt>
      <trkpt lat="43.98288" lon="5.13206">
        <ele>342.3</ele>
        <time>2013-02-18T13:35:41.000Z</time>
      </trkpt>
      <trkpt lat="43.9829" lon="5.13204">
        <ele>342.5</ele>
        <time>2013-02-18T13:35:42.000Z</time>
      </trkpt>
      <trkpt lat="43.98292" lon="5.13203">
        <ele>342</ele>
        <time>2013-02-18T13:35:43.000Z</time>
      </trkpt>
      <trkpt lat="43.98294" lon="5.13201">
        <ele>341.4</ele>
        <time>2013-02-18T13:35:44.000Z</time>
      </trkpt>
      <trkpt lat="43.98298" lon="5.13198">
        <ele>341.5</ele>
        <time>2013-02-18T13:35:46.000Z</time>
      </trkpt>
      <trkpt lat="43.983" lon="5.13196">
        <ele>341.8</ele>
        <time>2013-02-18T13:35:47.000Z</time>
      </trkpt>
      <trkpt lat="43.98303" lon="5.13194">
        <ele>343.4</ele>
        <time>2013-02-18T13:35:49.000Z</time>
      </trkpt>
      <trkpt lat="43.98304" lon="5.13192">
        <ele>344</ele>
        <time>2013-02-18T13:35:50.000Z</time>
      </trkpt>
      <trkpt lat="43.98306" lon="5.13188">
        <ele>345.6</ele>
        <time>2013-02-18T13:35:52.000Z</time>
      </trkpt>
      <trkpt lat="43.98309" lon="5.13188">
        <ele>344.6</ele>
        <time>2013-02-18T13:35:53.000Z</time>
      </trkpt>
      <trkpt lat="43.98313" lon="5.13185">
        <ele>345.9</ele>
        <time>2013-02-18T13:35:55.000Z</time>
      </trkpt>
      <trkpt lat="43.98315" lon="5.13185">
        <ele>345.9</ele>
        <time>2013-02-18T13:35:56.000Z</time>
      </trkpt>
      <trkpt lat="43.98318" lon="5.13183">
        <ele>347.2</ele>
        <time>2013-02-18T13:35:58.000Z</time>
      </trkpt>
      <trkpt lat="43.9832" lon="5.13182">
        <ele>346.1</ele>
        <time>2013-02-18T13:35:59.000Z</time>
      </trkpt>
      <trkpt lat="43.98325" lon="5.13181">
        <ele>346.5</ele>
        <time>2013-02-18T13:36:01.000Z</time>
      </trkpt>
      <trkpt lat="43.98327" lon="5.13181">
        <ele>346.6</ele>
        <time>2013-02-18T13:36:02.000Z</time>
      </trkpt>
      <trkpt lat="43.98331" lon="5.1318">
        <ele>347.5</ele>
        <time>2013-02-18T13:36:04.000Z</time>
      </trkpt>
      <trkpt lat="43.98333" lon="5.13179">
        <ele>349.1</ele>
        <time>2013-02-18T13:36:05.000Z</time>
      </trkpt>
      <trkpt lat="43.98337" lon="5.1318">
        <ele>348.2</ele>
        <time>2013-02-18T13:36:07.000Z</time>
      </trkpt>
      <trkpt lat="43.98339" lon="5.1318">
        <ele>347.9</ele>
        <time>2013-02-18T13:36:08.000Z</time>
      </trkpt>
      <trkpt lat="43.98343" lon="5.1318">
        <ele>348.1</ele>
        <time>2013-02-18T13:36:10.000Z</time>
      </trkpt>
      <trkpt lat="43.98345" lon="5.1318">
        <ele>348</ele>
        <time>2013-02-18T13:36:11.000Z</time>
      </trkpt>
      <trkpt lat="43.98349" lon="5.1318">
        <ele>348.2</ele>
        <time>2013-02-18T13:36:13.000Z</time>
      </trkpt>
      <trkpt lat="43.98351" lon="5.1318">
        <ele>348.3</ele>
        <time>2013-02-18T13:36:14.000Z</time>
      </trkpt>
      <trkpt lat="43.98355" lon="5.13182">
        <ele>348.2</ele>
        <time>2013-02-18T13:36:16.000Z</time>
      </trkpt>
      <trkpt lat="43.98357" lon="5.13182">
        <ele>348.7</ele>
        <time>2013-02-18T13:36:17.000Z</time>
      </trkpt>
      <trkpt lat="43.98359" lon="5.13182">
        <ele>351.2</ele>
        <time>2013-02-18T13:36:19.000Z</time>
      </trkpt>
      <trkpt lat="43.98361" lon="5.13178">
        <ele>352.2</ele>
        <time>2013-02-18T13:36:20.000Z</time>
      </trkpt>
      <trkpt lat="43.9836" lon="5.13172">
        <ele>355.1</ele>
        <time>2013-02-18T13:36:21.000Z</time>
      </trkpt>
      <trkpt lat="43.98359" lon="5.13168">
        <ele>356.3</ele>
        <time>2013-02-18T13:36:22.000Z</time>
      </trkpt>
      <trkpt lat="43.9836" lon="5.13173">
        <ele>359.3</ele>
        <time>2013-02-18T13:36:23.000Z</time>
      </trkpt>
      <trkpt lat="43.98363" lon="5.13175">
        <ele>357.8</ele>
        <time>2013-02-18T13:36:24.000Z</time>
      </trkpt>
      <trkpt lat="43.98363" lon="5.1318">
        <ele>355.2</ele>
        <time>2013-02-18T13:36:34.000Z</time>
      </trkpt>
      <trkpt lat="43.98364" lon="5.13183">
        <ele>354.6</ele>
        <time>2013-02-18T13:36:35.000Z</time>
      </trkpt>
      <trkpt lat="43.98366" lon="5.13188">
        <ele>354.1</ele>
        <time>2013-02-18T13:37:11.000Z</time>
      </trkpt>
      <trkpt lat="43.98367" lon="5.13188">
        <ele>353.6</ele>
        <time>2013-02-18T13:37:12.000Z</time>
      </trkpt>
      <trkpt lat="43.9837" lon="5.13191">
        <ele>354.4</ele>
        <time>2013-02-18T13:37:14.000Z</time>
      </trkpt>
      <trkpt lat="43.98373" lon="5.13192">
        <ele>353.8</ele>
        <time>2013-02-18T13:37:15.000Z</time>
      </trkpt>
      <trkpt lat="43.98375" lon="5.13193">
        <ele>353.8</ele>
        <time>2013-02-18T13:37:16.000Z</time>
      </trkpt>
      <trkpt lat="43.98378" lon="5.13194">
        <ele>352.9</ele>
        <time>2013-02-18T13:37:17.000Z</time>
      </trkpt>
      <trkpt lat="43.98381" lon="5.13197">
        <ele>352.2</ele>
        <time>2013-02-18T13:37:18.000Z</time>
      </trkpt>
      <trkpt lat="43.98382" lon="5.13199">
        <ele>352.2</ele>
        <time>2013-02-18T13:37:19.000Z</time>
      </trkpt>
      <trkpt lat="43.98385" lon="5.13201">
        <ele>351.7</ele>
        <time>2013-02-18T13:37:20.000Z</time>
      </trkpt>
      <trkpt lat="43.98388" lon="5.13206">
        <ele>351.8</ele>
        <time>2013-02-18T13:37:21.000Z</time>
      </trkpt>
      <trkpt lat="43.98392" lon="5.13209">
        <ele>351.6</ele>
        <time>2013-02-18T13:37:22.000Z</time>
      </trkpt>
      <trkpt lat="43.98396" lon="5.13214">
        <ele>350.7</ele>
        <time>2013-02-18T13:37:23.000Z</time>
      </trkpt>
      <trkpt lat="43.984" lon="5.13218">
        <ele>350.3</ele>
        <time>2013-02-18T13:37:24.000Z</time>
      </trkpt>
      <trkpt lat="43.98405" lon="5.13223">
        <ele>350.6</ele>
        <time>2013-02-18T13:37:25.000Z</time>
      </trkpt>
      <trkpt lat="43.9841" lon="5.13227">
        <ele>350.4</ele>
        <time>2013-02-18T13:37:26.000Z</time>
      </trkpt>
      <trkpt lat="43.98415" lon="5.13232">
        <ele>349.7</ele>
        <time>2013-02-18T13:37:27.000Z</time>
      </trkpt>
      <trkpt lat="43.9842" lon="5.13236">
        <ele>349.7</ele>
        <time>2013-02-18T13:37:28.000Z</time>
      </trkpt>
      <trkpt lat="43.98425" lon="5.13241">
        <ele>349.9</ele>
        <time>2013-02-18T13:37:29.000Z</time>
      </trkpt>
      <trkpt lat="43.9843" lon="5.13246">
        <ele>349.7</ele>
        <time>2013-02-18T13:37:30.000Z</time>
      </trkpt>
      <trkpt lat="43.98435" lon="5.1325">
        <ele>349.5</ele>
        <time>2013-02-18T13:37:31.000Z</time>
      </trkpt>
      <trkpt lat="43.9844" lon="5.13255">
        <ele>349</ele>
        <time>2013-02-18T13:37:32.000Z</time>
      </trkpt>
      <trkpt lat="43.98444" lon="5.1326">
        <ele>349.1</ele>
        <time>2013-02-18T13:37:33.000Z</time>
      </trkpt>
      <trkpt lat="43.98449" lon="5.13264">
        <ele>349.5</ele>
        <time>2013-02-18T13:37:34.000Z</time>
      </trkpt>
      <trkpt lat="43.98453" lon="5.13267">
        <ele>349.3</ele>
        <time>2013-02-18T13:37:35.000Z</time>
      </trkpt>
      <trkpt lat="43.98457" lon="5.13271">
        <ele>349.5</ele>
        <time>2013-02-18T13:37:36.000Z</time>
      </trkpt>
      <trkpt lat="43.9846" lon="5.13274">
        <ele>349.4</ele>
        <time>2013-02-18T13:37:37.000Z</time>
      </trkpt>
      <trkpt lat="43.98463" lon="5.13277">
        <ele>349.4</ele>
        <time>2013-02-18T13:37:38.000Z</time>
      </trkpt>
      <trkpt lat="43.98465" lon="5.13279">
        <ele>349.7</ele>
        <time>2013-02-18T13:37:39.000Z</time>
      </trkpt>
      <trkpt lat="43.98469" lon="5.13281">
        <ele>349.4</ele>
        <time>2013-02-18T13:37:42.000Z</time>
      </trkpt>
      <trkpt lat="43.9847" lon="5.13282">
        <ele>349.6</ele>
        <time>2013-02-18T13:37:43.000Z</time>
      </trkpt>
      <trkpt lat="43.98473" lon="5.13278">
        <ele>354.1</ele>
        <time>2013-02-18T13:37:47.000Z</time>
      </trkpt>
      <trkpt lat="43.98479" lon="5.13278">
        <ele>356.3</ele>
        <time>2013-02-18T13:37:48.000Z</time>
      </trkpt>
      <trkpt lat="43.9848" lon="5.13282">
        <ele>357.2</ele>
        <time>2013-02-18T13:37:50.000Z</time>
      </trkpt>
      <trkpt lat="43.98483" lon="5.13283">
        <ele>356.6</ele>
        <time>2013-02-18T13:37:51.000Z</time>
      </trkpt>
      <trkpt lat="43.98487" lon="5.1329">
        <ele>363.4</ele>
        <time>2013-02-18T13:37:52.000Z</time>
      </trkpt>
      <trkpt lat="43.98488" lon="5.13298">
        <ele>361.6</ele>
        <time>2013-02-18T13:37:54.000Z</time>
      </trkpt>
      <trkpt lat="43.98488" lon="5.13303">
        <ele>360.3</ele>
        <time>2013-02-18T13:37:56.000Z</time>
      </trkpt>
      <trkpt lat="43.98488" lon="5.13306">
        <ele>359.7</ele>
        <time>2013-02-18T13:37:57.000Z</time>
      </trkpt>
      <trkpt lat="43.98487" lon="5.1331">
        <ele>358.2</ele>
        <time>2013-02-18T13:38:39.000Z</time>
      </trkpt>
      <trkpt lat="43.98485" lon="5.13313">
        <ele>357.9</ele>
        <time>2013-02-18T13:38:40.000Z</time>
      </trkpt>
      <trkpt lat="43.98486" lon="5.13317">
        <ele>358.4</ele>
        <time>2013-02-18T13:38:41.000Z</time>
      </trkpt>
      <trkpt lat="43.98487" lon="5.1332">
        <ele>357</ele>
        <time>2013-02-18T13:38:42.000Z</time>
      </trkpt>
      <trkpt lat="43.98487" lon="5.13326">
        <ele>354.9</ele>
        <time>2013-02-18T13:38:44.000Z</time>
      </trkpt>
      <trkpt lat="43.9849" lon="5.13328">
        <ele>353.8</ele>
        <time>2013-02-18T13:38:45.000Z</time>
      </trkpt>
      <trkpt lat="43.98492" lon="5.13331">
        <ele>352.8</ele>
        <time>2013-02-18T13:38:46.000Z</time>
      </trkpt>
      <trkpt lat="43.98494" lon="5.13333">
        <ele>352.3</ele>
        <time>2013-02-18T13:38:47.000Z</time>
      </trkpt>
      <trkpt lat="43.98496" lon="5.13334">
        <ele>350.4</ele>
        <time>2013-02-18T13:38:48.000Z</time>
      </trkpt>
      <trkpt lat="43.98499" lon="5.13336">
        <ele>350</ele>
        <time>2013-02-18T13:38:49.000Z</time>
      </trkpt>
      <trkpt lat="43.98501" lon="5.13339">
        <ele>349.4</ele>
        <time>2013-02-18T13:38:50.000Z</time>
      </trkpt>
      <trkpt lat="43.98503" lon="5.13341">
        <ele>349.2</ele>
        <time>2013-02-18T13:38:51.000Z</time>
      </trkpt>
      <trkpt lat="43.98505" lon="5.13344">
        <ele>348.1</ele>
        <time>2013-02-18T13:38:52.000Z</time>
      </trkpt>
      <trkpt lat="43.98507" lon="5.13346">
        <ele>347.5</ele>
        <time>2013-02-18T13:38:53.000Z</time>
      </trkpt>
      <trkpt lat="43.98509" lon="5.13351">
        <ele>347.2</ele>
        <time>2013-02-18T13:38:55.000Z</time>
      </trkpt>
      <trkpt lat="43.98509" lon="5.13355">
        <ele>346.6</ele>
        <time>2013-02-18T13:38:56.000Z</time>
      </trkpt>
      <trkpt lat="43.9851" lon="5.13357">
        <ele>346.3</ele>
        <time>2013-02-18T13:38:57.000Z</time>
      </trkpt>
      <trkpt lat="43.98513" lon="5.13361">
        <ele>345.6</ele>
        <time>2013-02-18T13:38:58.000Z</time>
      </trkpt>
      <trkpt lat="43.98515" lon="5.13363">
        <ele>345.9</ele>
        <time>2013-02-18T13:38:59.000Z</time>
      </trkpt>
      <trkpt lat="43.98516" lon="5.13365">
        <ele>346.3</ele>
        <time>2013-02-18T13:39:00.000Z</time>
      </trkpt>
      <trkpt lat="43.98519" lon="5.13368">
        <ele>346.5</ele>
        <time>2013-02-18T13:39:02.000Z</time>
      </trkpt>
      <trkpt lat="43.9852" lon="5.13371">
        <ele>346.1</ele>
        <time>2013-02-18T13:39:03.000Z</time>
      </trkpt>
      <trkpt lat="43.98519" lon="5.13377">
        <ele>345</ele>
        <time>2013-02-18T13:39:38.000Z</time>
      </trkpt>
      <trkpt lat="43.98517" lon="5.13378">
        <ele>346.4</ele>
        <time>2013-02-18T13:39:39.000Z</time>
      </trkpt>
      <trkpt lat="43.98516" lon="5.13382">
        <ele>347.3</ele>
        <time>2013-02-18T13:39:40.000Z</time>
      </trkpt>
      <trkpt lat="43.98515" lon="5.13384">
        <ele>347.8</ele>
        <time>2013-02-18T13:39:41.000Z</time>
      </trkpt>
      <trkpt lat="43.98511" lon="5.13387">
        <ele>347.3</ele>
        <time>2013-02-18T13:39:42.000Z</time>
      </trkpt>
      <trkpt lat="43.98508" lon="5.1339">
        <ele>347.4</ele>
        <time>2013-02-18T13:39:43.000Z</time>
      </trkpt>
      <trkpt lat="43.98504" lon="5.13393">
        <ele>347.1</ele>
        <time>2013-02-18T13:39:44.000Z</time>
      </trkpt>
      <trkpt lat="43.98501" lon="5.13396">
        <ele>347.7</ele>
        <time>2013-02-18T13:39:45.000Z</time>
      </trkpt>
      <trkpt lat="43.98497" lon="5.13399">
        <ele>347.4</ele>
        <time>2013-02-18T13:39:46.000Z</time>
      </trkpt>
      <trkpt lat="43.98494" lon="5.13401">
        <ele>347.4</ele>
        <time>2013-02-18T13:39:47.000Z</time>
      </trkpt>
      <trkpt lat="43.98491" lon="5.13405">
        <ele>347.9</ele>
        <time>2013-02-18T13:39:48.000Z</time>
      </trkpt>
      <trkpt lat="43.98487" lon="5.13408">
        <ele>347.9</ele>
        <time>2013-02-18T13:39:49.000Z</time>
      </trkpt>
      <trkpt lat="43.98484" lon="5.13411">
        <ele>347.7</ele>
        <time>2013-02-18T13:39:50.000Z</time>
      </trkpt>
      <trkpt lat="43.98479" lon="5.13415">
        <ele>347.8</ele>
        <time>2013-02-18T13:39:51.000Z</time>
      </trkpt>
      <trkpt lat="43.98476" lon="5.13418">
        <ele>348</ele>
        <time>2013-02-18T13:39:52.000Z</time>
      </trkpt>
      <trkpt lat="43.9847" lon="5.13424">
        <ele>348.1</ele>
        <time>2013-02-18T13:39:54.000Z</time>
      </trkpt>
      <trkpt lat="43.98467" lon="5.13427">
        <ele>348</ele>
        <time>2013-02-18T13:39:55.000Z</time>
      </trkpt>
      <trkpt lat="43.98464" lon="5.1343">
        <ele>348.2</ele>
        <time>2013-02-18T13:39:56.000Z</time>
      </trkpt>
      <trkpt lat="43.98461" lon="5.13432">
        <ele>347.9</ele>
        <time>2013-02-18T13:39:57.000Z</time>
      </trkpt>
      <trkpt lat="43.98458" lon="5.13434">
        <ele>348.1</ele>
        <time>2013-02-18T13:39:58.000Z</time>
      </trkpt>
      <trkpt lat="43.98455" lon="5.13437">
        <ele>348.6</ele>
        <time>2013-02-18T13:39:59.000Z</time>
      </trkpt>
      <trkpt lat="43.98451" lon="5.1344">
        <ele>348.5</ele>
        <time>2013-02-18T13:40:00.000Z</time>
      </trkpt>
      <trkpt lat="43.98448" lon="5.13443">
        <ele>348.6</ele>
        <time>2013-02-18T13:40:01.000Z</time>
      </trkpt>
      <trkpt lat="43.98446" lon="5.13445">
        <ele>348.9</ele>
        <time>2013-02-18T13:40:02.000Z</time>
      </trkpt>
      <trkpt lat="43.98443" lon="5.13448">
        <ele>349.1</ele>
        <time>2013-02-18T13:40:03.000Z</time>
      </trkpt>
      <trkpt lat="43.9844" lon="5.1345">
        <ele>348.8</ele>
        <time>2013-02-18T13:40:04.000Z</time>
      </trkpt>
      <trkpt lat="43.98436" lon="5.13453">
        <ele>348.8</ele>
        <time>2013-02-18T13:40:05.000Z</time>
      </trkpt>
      <trkpt lat="43.98433" lon="5.13455">
        <ele>348.8</ele>
        <time>2013-02-18T13:40:06.000Z</time>
      </trkpt>
      <trkpt lat="43.98431" lon="5.13458">
        <ele>349</ele>
        <time>2013-02-18T13:40:07.000Z</time>
      </trkpt>
      <trkpt lat="43.98427" lon="5.1346">
        <ele>349</ele>
        <time>2013-02-18T13:40:08.000Z</time>
      </trkpt>
      <trkpt lat="43.98425" lon="5.13462">
        <ele>349.5</ele>
        <time>2013-02-18T13:40:09.000Z</time>
      </trkpt>
      <trkpt lat="43.98423" lon="5.13464">
        <ele>349.5</ele>
        <time>2013-02-18T13:40:10.000Z</time>
      </trkpt>
      <trkpt lat="43.9842" lon="5.13467">
        <ele>349.6</ele>
        <time>2013-02-18T13:40:11.000Z</time>
      </trkpt>
      <trkpt lat="43.98418" lon="5.13469">
        <ele>349.9</ele>
        <time>2013-02-18T13:40:12.000Z</time>
      </trkpt>
      <trkpt lat="43.98415" lon="5.13472">
        <ele>350.1</ele>
        <time>2013-02-18T13:40:13.000Z</time>
      </trkpt>
      <trkpt lat="43.98413" lon="5.13474">
        <ele>350.3</ele>
        <time>2013-02-18T13:40:14.000Z</time>
      </trkpt>
      <trkpt lat="43.9841" lon="5.13477">
        <ele>350.6</ele>
        <time>2013-02-18T13:40:15.000Z</time>
      </trkpt>
      <trkpt lat="43.98408" lon="5.13479">
        <ele>350.9</ele>
        <time>2013-02-18T13:40:16.000Z</time>
      </trkpt>
      <trkpt lat="43.98406" lon="5.13481">
        <ele>351.1</ele>
        <time>2013-02-18T13:40:17.000Z</time>
      </trkpt>
      <trkpt lat="43.98404" lon="5.13483">
        <ele>351.3</ele>
        <time>2013-02-18T13:40:18.000Z</time>
      </trkpt>
      <trkpt lat="43.984" lon="5.13487">
        <ele>351.5</ele>
        <time>2013-02-18T13:40:20.000Z</time>
      </trkpt>
      <trkpt lat="43.98398" lon="5.13488">
        <ele>351.6</ele>
        <time>2013-02-18T13:40:21.000Z</time>
      </trkpt>
      <trkpt lat="43.98394" lon="5.13492">
        <ele>351.6</ele>
        <time>2013-02-18T13:40:23.000Z</time>
      </trkpt>
      <trkpt lat="43.98393" lon="5.13493">
        <ele>351.9</ele>
        <time>2013-02-18T13:40:24.000Z</time>
      </trkpt>
      <trkpt lat="43.9839" lon="5.13496">
        <ele>352.5</ele>
        <time>2013-02-18T13:40:26.000Z</time>
      </trkpt>
      <trkpt lat="43.98389" lon="5.13498">
        <ele>352.7</ele>
        <time>2013-02-18T13:40:27.000Z</time>
      </trkpt>
      <trkpt lat="43.98386" lon="5.13501">
        <ele>353</ele>
        <time>2013-02-18T13:40:29.000Z</time>
      </trkpt>
      <trkpt lat="43.98385" lon="5.13503">
        <ele>353.3</ele>
        <time>2013-02-18T13:40:30.000Z</time>
      </trkpt>
      <trkpt lat="43.98382" lon="5.13506">
        <ele>353.5</ele>
        <time>2013-02-18T13:40:32.000Z</time>
      </trkpt>
      <trkpt lat="43.98381" lon="5.13508">
        <ele>353.6</ele>
        <time>2013-02-18T13:40:33.000Z</time>
      </trkpt>
      <trkpt lat="43.98378" lon="5.13511">
        <ele>353.9</ele>
        <time>2013-02-18T13:40:35.000Z</time>
      </trkpt>
      <trkpt lat="43.98376" lon="5.13512">
        <ele>353.7</ele>
        <time>2013-02-18T13:40:36.000Z</time>
      </trkpt>
      <trkpt lat="43.98372" lon="5.13515">
        <ele>354</ele>
        <time>2013-02-18T13:40:38.000Z</time>
      </trkpt>
      <trkpt lat="43.98372" lon="5.13517">
        <ele>354.6</ele>
        <time>2013-02-18T13:40:39.000Z</time>
      </trkpt>
      <trkpt lat="43.98369" lon="5.13522">
        <ele>355.1</ele>
        <time>2013-02-18T13:40:41.000Z</time>
      </trkpt>
      <trkpt lat="43.98367" lon="5.13524">
        <ele>355.2</ele>
        <time>2013-02-18T13:40:42.000Z</time>
      </trkpt>
      <trkpt lat="43.98365" lon="5.13527">
        <ele>355.8</ele>
        <time>2013-02-18T13:40:44.000Z</time>
      </trkpt>
      <trkpt lat="43.98363" lon="5.13528">
        <ele>355.7</ele>
        <time>2013-02-18T13:40:45.000Z</time>
      </trkpt>
      <trkpt lat="43.9836" lon="5.13532">
        <ele>356.1</ele>
        <time>2013-02-18T13:40:47.000Z</time>
      </trkpt>
      <trkpt lat="43.98359" lon="5.13534">
        <ele>356.2</ele>
        <time>2013-02-18T13:40:48.000Z</time>
      </trkpt>
      <trkpt lat="43.98355" lon="5.13538">
        <ele>356.3</ele>
        <time>2013-02-18T13:40:50.000Z</time>
      </trkpt>
      <trkpt lat="43.98354" lon="5.1354">
        <ele>356.3</ele>
        <time>2013-02-18T13:40:51.000Z</time>
      </trkpt>
      <trkpt lat="43.98352" lon="5.13542">
        <ele>356.4</ele>
        <time>2013-02-18T13:40:52.000Z</time>
      </trkpt>
      <trkpt lat="43.9835" lon="5.13546">
        <ele>356.1</ele>
        <time>2013-02-18T13:40:54.000Z</time>
      </trkpt>
      <trkpt lat="43.98347" lon="5.13548">
        <ele>356.5</ele>
        <time>2013-02-18T13:40:56.000Z</time>
      </trkpt>
      <trkpt lat="43.98346" lon="5.13549">
        <ele>356.5</ele>
        <time>2013-02-18T13:40:57.000Z</time>
      </trkpt>
      <trkpt lat="43.98343" lon="5.1355">
        <ele>356.7</ele>
        <time>2013-02-18T13:40:59.000Z</time>
      </trkpt>
      <trkpt lat="43.98341" lon="5.1355">
        <ele>357</ele>
        <time>2013-02-18T13:41:00.000Z</time>
      </trkpt>
      <trkpt lat="43.98337" lon="5.13548">
        <ele>356.5</ele>
        <time>2013-02-18T13:41:02.000Z</time>
      </trkpt>
      <trkpt lat="43.98336" lon="5.1355">
        <ele>357.1</ele>
        <time>2013-02-18T13:41:03.000Z</time>
      </trkpt>
      <trkpt lat="43.98331" lon="5.1355">
        <ele>358</ele>
        <time>2013-02-18T13:41:06.000Z</time>
      </trkpt>
      <trkpt lat="43.9833" lon="5.13551">
        <ele>358</ele>
        <time>2013-02-18T13:41:07.000Z</time>
      </trkpt>
      <trkpt lat="43.98327" lon="5.13554">
        <ele>358.5</ele>
        <time>2013-02-18T13:41:09.000Z</time>
      </trkpt>
      <trkpt lat="43.98325" lon="5.13555">
        <ele>358.5</ele>
        <time>2013-02-18T13:41:10.000Z</time>
      </trkpt>
      <trkpt lat="43.98322" lon="5.13559">
        <ele>359.3</ele>
        <time>2013-02-18T13:41:13.000Z</time>
      </trkpt>
      <trkpt lat="43.98321" lon="5.1356">
        <ele>359.4</ele>
        <time>2013-02-18T13:41:14.000Z</time>
      </trkpt>
      <trkpt lat="43.98319" lon="5.13563">
        <ele>359.7</ele>
        <time>2013-02-18T13:41:17.000Z</time>
      </trkpt>
      <trkpt lat="43.98317" lon="5.13564">
        <ele>359.6</ele>
        <time>2013-02-18T13:41:18.000Z</time>
      </trkpt>
      <trkpt lat="43.98315" lon="5.13567">
        <ele>359.4</ele>
        <time>2013-02-18T13:41:20.000Z</time>
      </trkpt>
      <trkpt lat="43.98314" lon="5.13568">
        <ele>359.2</ele>
        <time>2013-02-18T13:41:21.000Z</time>
      </trkpt>
      <trkpt lat="43.98313" lon="5.13574">
        <ele>359</ele>
        <time>2013-02-18T13:41:24.000Z</time>
      </trkpt>
      <trkpt lat="43.98313" lon="5.13576">
        <ele>359</ele>
        <time>2013-02-18T13:41:25.000Z</time>
      </trkpt>
      <trkpt lat="43.98314" lon="5.13578">
        <ele>359</ele>
        <time>2013-02-18T13:41:26.000Z</time>
      </trkpt>
      <trkpt lat="43.98316" lon="5.13581">
        <ele>358.8</ele>
        <time>2013-02-18T13:41:27.000Z</time>
      </trkpt>
      <trkpt lat="43.98317" lon="5.13585">
        <ele>358.7</ele>
        <time>2013-02-18T13:41:29.000Z</time>
      </trkpt>
      <trkpt lat="43.98318" lon="5.13588">
        <ele>359</ele>
        <time>2013-02-18T13:41:30.000Z</time>
      </trkpt>
      <trkpt lat="43.98319" lon="5.13592">
        <ele>359.2</ele>
        <time>2013-02-18T13:41:32.000Z</time>
      </trkpt>
      <trkpt lat="43.9832" lon="5.13595">
        <ele>359.3</ele>
        <time>2013-02-18T13:41:33.000Z</time>
      </trkpt>
      <trkpt lat="43.98321" lon="5.136">
        <ele>359.4</ele>
        <time>2013-02-18T13:41:35.000Z</time>
      </trkpt>
      <trkpt lat="43.98321" lon="5.13603">
        <ele>360</ele>
        <time>2013-02-18T13:41:36.000Z</time>
      </trkpt>
      <trkpt lat="43.98323" lon="5.13608">
        <ele>359.9</ele>
        <time>2013-02-18T13:41:39.000Z</time>
      </trkpt>
      <trkpt lat="43.98324" lon="5.13611">
        <ele>359.8</ele>
        <time>2013-02-18T13:41:40.000Z</time>
      </trkpt>
      <trkpt lat="43.98326" lon="5.13615">
        <ele>360.1</ele>
        <time>2013-02-18T13:41:42.000Z</time>
      </trkpt>
      <trkpt lat="43.98326" lon="5.13617">
        <ele>359.6</ele>
        <time>2013-02-18T13:41:43.000Z</time>
      </trkpt>
      <trkpt lat="43.98328" lon="5.1362">
        <ele>359.4</ele>
        <time>2013-02-18T13:41:45.000Z</time>
      </trkpt>
      <trkpt lat="43.98329" lon="5.13622">
        <ele>359.3</ele>
        <time>2013-02-18T13:41:46.000Z</time>
      </trkpt>
      <trkpt lat="43.98331" lon="5.13627">
        <ele>358.7</ele>
        <time>2013-02-18T13:41:49.000Z</time>
      </trkpt>
      <trkpt lat="43.98331" lon="5.1363">
        <ele>359</ele>
        <time>2013-02-18T13:41:50.000Z</time>
      </trkpt>
      <trkpt lat="43.98333" lon="5.13634">
        <ele>358.9</ele>
        <time>2013-02-18T13:41:52.000Z</time>
      </trkpt>
      <trkpt lat="43.98333" lon="5.13636">
        <ele>358.9</ele>
        <time>2013-02-18T13:41:53.000Z</time>
      </trkpt>
      <trkpt lat="43.98334" lon="5.13641">
        <ele>359.4</ele>
        <time>2013-02-18T13:42:54.000Z</time>
      </trkpt>
      <trkpt lat="43.98334" lon="5.13643">
        <ele>359.5</ele>
        <time>2013-02-18T13:42:55.000Z</time>
      </trkpt>
      <trkpt lat="43.98334" lon="5.13648">
        <ele>359.4</ele>
        <time>2013-02-18T13:42:57.000Z</time>
      </trkpt>
      <trkpt lat="43.98334" lon="5.13651">
        <ele>359.2</ele>
        <time>2013-02-18T13:42:58.000Z</time>
      </trkpt>
      <trkpt lat="43.98335" lon="5.13654">
        <ele>359.4</ele>
        <time>2013-02-18T13:42:59.000Z</time>
      </trkpt>
      <trkpt lat="43.98335" lon="5.13657">
        <ele>359.3</ele>
        <time>2013-02-18T13:43:00.000Z</time>
      </trkpt>
      <trkpt lat="43.98336" lon="5.13661">
        <ele>359.6</ele>
        <time>2013-02-18T13:43:01.000Z</time>
      </trkpt>
      <trkpt lat="43.98337" lon="5.13664">
        <ele>359.7</ele>
        <time>2013-02-18T13:43:02.000Z</time>
      </trkpt>
      <trkpt lat="43.98338" lon="5.13668">
        <ele>359.6</ele>
        <time>2013-02-18T13:43:03.000Z</time>
      </trkpt>
      <trkpt lat="43.9834" lon="5.13671">
        <ele>359.5</ele>
        <time>2013-02-18T13:43:04.000Z</time>
      </trkpt>
      <trkpt lat="43.98342" lon="5.13676">
        <ele>359.5</ele>
        <time>2013-02-18T13:43:05.000Z</time>
      </trkpt>
      <trkpt lat="43.98343" lon="5.13679">
        <ele>359.3</ele>
        <time>2013-02-18T13:43:06.000Z</time>
      </trkpt>
      <trkpt lat="43.98345" lon="5.13683">
        <ele>359</ele>
        <time>2013-02-18T13:43:07.000Z</time>
      </trkpt>
      <trkpt lat="43.98347" lon="5.13686">
        <ele>359</ele>
        <time>2013-02-18T13:43:08.000Z</time>
      </trkpt>
      <trkpt lat="43.98349" lon="5.13689">
        <ele>359</ele>
        <time>2013-02-18T13:43:09.000Z</time>
      </trkpt>
      <trkpt lat="43.98351" lon="5.13693">
        <ele>359.1</ele>
        <time>2013-02-18T13:43:10.000Z</time>
      </trkpt>
      <trkpt lat="43.98352" lon="5.13696">
        <ele>359.2</ele>
        <time>2013-02-18T13:43:11.000Z</time>
      </trkpt>
      <trkpt lat="43.98355" lon="5.13699">
        <ele>359.2</ele>
        <time>2013-02-18T13:43:12.000Z</time>
      </trkpt>
      <trkpt lat="43.98357" lon="5.13703">
        <ele>359.4</ele>
        <time>2013-02-18T13:43:13.000Z</time>
      </trkpt>
      <trkpt lat="43.98359" lon="5.13706">
        <ele>359.5</ele>
        <time>2013-02-18T13:43:14.000Z</time>
      </trkpt>
      <trkpt lat="43.98361" lon="5.13708">
        <ele>359.7</ele>
        <time>2013-02-18T13:43:15.000Z</time>
      </trkpt>
      <trkpt lat="43.98364" lon="5.13711">
        <ele>359.7</ele>
        <time>2013-02-18T13:43:16.000Z</time>
      </trkpt>
      <trkpt lat="43.98366" lon="5.13714">
        <ele>360</ele>
        <time>2013-02-18T13:43:17.000Z</time>
      </trkpt>
      <trkpt lat="43.98369" lon="5.13716">
        <ele>360.3</ele>
        <time>2013-02-18T13:43:18.000Z</time>
      </trkpt>
      <trkpt lat="43.98371" lon="5.13718">
        <ele>360.4</ele>
        <time>2013-02-18T13:43:19.000Z</time>
      </trkpt>
      <trkpt lat="43.98373" lon="5.13721">
        <ele>360.7</ele>
        <time>2013-02-18T13:43:20.000Z</time>
      </trkpt>
      <trkpt lat="43.98373" lon="5.13718">
        <ele>366.6</ele>
        <time>2013-02-18T13:43:22.000Z</time>
      </trkpt>
      <trkpt lat="43.98378" lon="5.13724">
        <ele>365.3</ele>
        <time>2013-02-18T13:43:23.000Z</time>
      </trkpt>
      <trkpt lat="43.9838" lon="5.13726">
        <ele>365.9</ele>
        <time>2013-02-18T13:43:24.000Z</time>
      </trkpt>
      <trkpt lat="43.98383" lon="5.13728">
        <ele>366.7</ele>
        <time>2013-02-18T13:43:25.000Z</time>
      </trkpt>
      <trkpt lat="43.98385" lon="5.1373">
        <ele>367</ele>
        <time>2013-02-18T13:43:26.000Z</time>
      </trkpt>
      <trkpt lat="43.98388" lon="5.13733">
        <ele>367.2</ele>
        <time>2013-02-18T13:43:27.000Z</time>
      </trkpt>
      <trkpt lat="43.9839" lon="5.13736">
        <ele>367.6</ele>
        <time>2013-02-18T13:43:28.000Z</time>
      </trkpt>
      <trkpt lat="43.98393" lon="5.13739">
        <ele>367.7</ele>
        <time>2013-02-18T13:43:29.000Z</time>
      </trkpt>
      <trkpt lat="43.98394" lon="5.13743">
        <ele>367.9</ele>
        <time>2013-02-18T13:43:30.000Z</time>
      </trkpt>
      <trkpt lat="43.98396" lon="5.13746">
        <ele>368.1</ele>
        <time>2013-02-18T13:43:31.000Z</time>
      </trkpt>
      <trkpt lat="43.98398" lon="5.13749">
        <ele>368.2</ele>
        <time>2013-02-18T13:43:32.000Z</time>
      </trkpt>
      <trkpt lat="43.984" lon="5.13753">
        <ele>368.4</ele>
        <time>2013-02-18T13:43:33.000Z</time>
      </trkpt>
      <trkpt lat="43.98402" lon="5.13757">
        <ele>368.4</ele>
        <time>2013-02-18T13:43:34.000Z</time>
      </trkpt>
      <trkpt lat="43.98403" lon="5.13761">
        <ele>368.5</ele>
        <time>2013-02-18T13:43:35.000Z</time>
      </trkpt>
      <trkpt lat="43.98405" lon="5.13765">
        <ele>368.8</ele>
        <time>2013-02-18T13:43:36.000Z</time>
      </trkpt>
      <trkpt lat="43.98406" lon="5.13768">
        <ele>368.7</ele>
        <time>2013-02-18T13:43:37.000Z</time>
      </trkpt>
      <trkpt lat="43.98408" lon="5.13772">
        <ele>368.6</ele>
        <time>2013-02-18T13:43:38.000Z</time>
      </trkpt>
      <trkpt lat="43.98409" lon="5.13775">
        <ele>368.6</ele>
        <time>2013-02-18T13:43:39.000Z</time>
      </trkpt>
      <trkpt lat="43.98411" lon="5.13778">
        <ele>368.6</ele>
        <time>2013-02-18T13:43:40.000Z</time>
      </trkpt>
      <trkpt lat="43.98412" lon="5.13781">
        <ele>368.5</ele>
        <time>2013-02-18T13:43:41.000Z</time>
      </trkpt>
      <trkpt lat="43.98414" lon="5.13785">
        <ele>368.6</ele>
        <time>2013-02-18T13:43:42.000Z</time>
      </trkpt>
      <trkpt lat="43.98416" lon="5.13789">
        <ele>368.5</ele>
        <time>2013-02-18T13:43:43.000Z</time>
      </trkpt>
      <trkpt lat="43.98417" lon="5.13793">
        <ele>368.3</ele>
        <time>2013-02-18T13:43:44.000Z</time>
      </trkpt>
      <trkpt lat="43.98419" lon="5.13797">
        <ele>368.1</ele>
        <time>2013-02-18T13:43:45.000Z</time>
      </trkpt>
      <trkpt lat="43.98421" lon="5.13802">
        <ele>367.8</ele>
        <time>2013-02-18T13:43:46.000Z</time>
      </trkpt>
      <trkpt lat="43.98423" lon="5.13806">
        <ele>367.7</ele>
        <time>2013-02-18T13:43:47.000Z</time>
      </trkpt>
      <trkpt lat="43.98425" lon="5.1381">
        <ele>367.7</ele>
        <time>2013-02-18T13:43:48.000Z</time>
      </trkpt>
      <trkpt lat="43.98426" lon="5.13814">
        <ele>367.6</ele>
        <time>2013-02-18T13:43:49.000Z</time>
      </trkpt>
      <trkpt lat="43.98428" lon="5.13819">
        <ele>367.4</ele>
        <time>2013-02-18T13:43:50.000Z</time>
      </trkpt>
      <trkpt lat="43.9843" lon="5.13823">
        <ele>367.3</ele>
        <time>2013-02-18T13:43:51.000Z</time>
      </trkpt>
      <trkpt lat="43.98431" lon="5.13828">
        <ele>367.3</ele>
        <time>2013-02-18T13:43:52.000Z</time>
      </trkpt>
      <trkpt lat="43.98435" lon="5.13837">
        <ele>367.1</ele>
        <time>2013-02-18T13:43:54.000Z</time>
      </trkpt>
      <trkpt lat="43.98437" lon="5.13842">
        <ele>367</ele>
        <time>2013-02-18T13:43:55.000Z</time>
      </trkpt>
      <trkpt lat="43.9844" lon="5.13846">
        <ele>366.8</ele>
        <time>2013-02-18T13:43:56.000Z</time>
      </trkpt>
      <trkpt lat="43.98442" lon="5.13851">
        <ele>366.5</ele>
        <time>2013-02-18T13:43:57.000Z</time>
      </trkpt>
      <trkpt lat="43.98444" lon="5.13857">
        <ele>366.2</ele>
        <time>2013-02-18T13:43:58.000Z</time>
      </trkpt>
      <trkpt lat="43.98446" lon="5.13862">
        <ele>366</ele>
        <time>2013-02-18T13:43:59.000Z</time>
      </trkpt>
      <trkpt lat="43.98449" lon="5.13868">
        <ele>365.7</ele>
        <time>2013-02-18T13:44:00.000Z</time>
      </trkpt>
      <trkpt lat="43.98451" lon="5.13873">
        <ele>365.6</ele>
        <time>2013-02-18T13:44:01.000Z</time>
      </trkpt>
      <trkpt lat="43.98454" lon="5.13879">
        <ele>365.3</ele>
        <time>2013-02-18T13:44:02.000Z</time>
      </trkpt>
      <trkpt lat="43.98456" lon="5.13885">
        <ele>365.1</ele>
        <time>2013-02-18T13:44:03.000Z</time>
      </trkpt>
      <trkpt lat="43.98459" lon="5.13891">
        <ele>364.9</ele>
        <time>2013-02-18T13:44:04.000Z</time>
      </trkpt>
      <trkpt lat="43.98461" lon="5.13897">
        <ele>364.6</ele>
        <time>2013-02-18T13:44:05.000Z</time>
      </trkpt>
      <trkpt lat="43.98463" lon="5.13902">
        <ele>364.4</ele>
        <time>2013-02-18T13:44:06.000Z</time>
      </trkpt>
      <trkpt lat="43.98466" lon="5.13908">
        <ele>364.2</ele>
        <time>2013-02-18T13:44:07.000Z</time>
      </trkpt>
      <trkpt lat="43.98468" lon="5.13914">
        <ele>363.9</ele>
        <time>2013-02-18T13:44:08.000Z</time>
      </trkpt>
      <trkpt lat="43.98471" lon="5.13919">
        <ele>363.7</ele>
        <time>2013-02-18T13:44:09.000Z</time>
      </trkpt>
      <trkpt lat="43.98473" lon="5.13923">
        <ele>363.5</ele>
        <time>2013-02-18T13:44:10.000Z</time>
      </trkpt>
      <trkpt lat="43.98475" lon="5.13928">
        <ele>363.3</ele>
        <time>2013-02-18T13:44:11.000Z</time>
      </trkpt>
      <trkpt lat="43.98476" lon="5.13932">
        <ele>363.2</ele>
        <time>2013-02-18T13:44:12.000Z</time>
      </trkpt>
      <trkpt lat="43.98477" lon="5.13936">
        <ele>362.8</ele>
        <time>2013-02-18T13:44:13.000Z</time>
      </trkpt>
      <trkpt lat="43.98478" lon="5.13939">
        <ele>362.7</ele>
        <time>2013-02-18T13:44:14.000Z</time>
      </trkpt>
      <trkpt lat="43.98479" lon="5.13944">
        <ele>362.4</ele>
        <time>2013-02-18T13:44:16.000Z</time>
      </trkpt>
      <trkpt lat="43.9848" lon="5.13946">
        <ele>362.4</ele>
        <time>2013-02-18T13:44:17.000Z</time>
      </trkpt>
      <trkpt lat="43.9848" lon="5.1395">
        <ele>362.4</ele>
        <time>2013-02-18T13:44:19.000Z</time>
      </trkpt>
      <trkpt lat="43.9848" lon="5.13952">
        <ele>362.3</ele>
        <time>2013-02-18T13:44:20.000Z</time>
      </trkpt>
      <trkpt lat="43.98481" lon="5.13947">
        <ele>362.8</ele>
        <time>2013-02-18T13:44:30.000Z</time>
      </trkpt>
      <trkpt lat="43.98482" lon="5.13945">
        <ele>362.8</ele>
        <time>2013-02-18T13:44:31.000Z</time>
      </trkpt>
      <trkpt lat="43.98485" lon="5.13941">
        <ele>361.9</ele>
        <time>2013-02-18T13:44:58.000Z</time>
      </trkpt>
      <trkpt lat="43.98487" lon="5.1394">
        <ele>362</ele>
        <time>2013-02-18T13:44:59.000Z</time>
      </trkpt>
      <trkpt lat="43.98489" lon="5.13938">
        <ele>361.6</ele>
        <time>2013-02-18T13:45:00.000Z</time>
      </trkpt>
      <trkpt lat="43.98492" lon="5.13936">
        <ele>361.8</ele>
        <time>2013-02-18T13:45:01.000Z</time>
      </trkpt>
      <trkpt lat="43.98495" lon="5.13935">
        <ele>361.2</ele>
        <time>2013-02-18T13:45:02.000Z</time>
      </trkpt>
      <trkpt lat="43.98498" lon="5.13933">
        <ele>360.9</ele>
        <time>2013-02-18T13:45:03.000Z</time>
      </trkpt>
      <trkpt lat="43.98501" lon="5.13932">
        <ele>360.5</ele>
        <time>2013-02-18T13:45:04.000Z</time>
      </trkpt>
      <trkpt lat="43.98505" lon="5.1393">
        <ele>360.6</ele>
        <time>2013-02-18T13:45:05.000Z</time>
      </trkpt>
      <trkpt lat="43.98508" lon="5.13929">
        <ele>359.9</ele>
        <time>2013-02-18T13:45:06.000Z</time>
      </trkpt>
      <trkpt lat="43.98511" lon="5.13927">
        <ele>359.7</ele>
        <time>2013-02-18T13:45:07.000Z</time>
      </trkpt>
      <trkpt lat="43.98515" lon="5.13926">
        <ele>359.4</ele>
        <time>2013-02-18T13:45:08.000Z</time>
      </trkpt>
      <trkpt lat="43.98519" lon="5.13924">
        <ele>358.6</ele>
        <time>2013-02-18T13:45:09.000Z</time>
      </trkpt>
      <trkpt lat="43.98523" lon="5.13923">
        <ele>358.3</ele>
        <time>2013-02-18T13:45:10.000Z</time>
      </trkpt>
      <trkpt lat="43.98527" lon="5.13921">
        <ele>357.9</ele>
        <time>2013-02-18T13:45:11.000Z</time>
      </trkpt>
      <trkpt lat="43.98532" lon="5.13919">
        <ele>358.4</ele>
        <time>2013-02-18T13:45:12.000Z</time>
      </trkpt>
      <trkpt lat="43.98537" lon="5.13917">
        <ele>358.2</ele>
        <time>2013-02-18T13:45:13.000Z</time>
      </trkpt>
      <trkpt lat="43.98541" lon="5.13916">
        <ele>357.8</ele>
        <time>2013-02-18T13:45:14.000Z</time>
      </trkpt>
      <trkpt lat="43.98546" lon="5.13915">
        <ele>357.9</ele>
        <time>2013-02-18T13:45:15.000Z</time>
      </trkpt>
      <trkpt lat="43.98551" lon="5.13914">
        <ele>357.6</ele>
        <time>2013-02-18T13:45:16.000Z</time>
      </trkpt>
      <trkpt lat="43.98556" lon="5.13913">
        <ele>357.6</ele>
        <time>2013-02-18T13:45:17.000Z</time>
      </trkpt>
      <trkpt lat="43.98562" lon="5.13912">
        <ele>357.3</ele>
        <time>2013-02-18T13:45:18.000Z</time>
      </trkpt>
      <trkpt lat="43.98567" lon="5.13912">
        <ele>357.3</ele>
        <time>2013-02-18T13:45:19.000Z</time>
      </trkpt>
      <trkpt lat="43.98572" lon="5.13911">
        <ele>357.2</ele>
        <time>2013-02-18T13:45:20.000Z</time>
      </trkpt>
      <trkpt lat="43.98577" lon="5.1391">
        <ele>356.9</ele>
        <time>2013-02-18T13:45:21.000Z</time>
      </trkpt>
      <trkpt lat="43.98583" lon="5.13909">
        <ele>356.6</ele>
        <time>2013-02-18T13:45:22.000Z</time>
      </trkpt>
      <trkpt lat="43.98588" lon="5.13908">
        <ele>356.6</ele>
        <time>2013-02-18T13:45:23.000Z</time>
      </trkpt>
      <trkpt lat="43.98594" lon="5.13908">
        <ele>356.3</ele>
        <time>2013-02-18T13:45:24.000Z</time>
      </trkpt>
      <trkpt lat="43.98599" lon="5.13908">
        <ele>356.2</ele>
        <time>2013-02-18T13:45:25.000Z</time>
      </trkpt>
      <trkpt lat="43.98605" lon="5.13908">
        <ele>356</ele>
        <time>2013-02-18T13:45:26.000Z</time>
      </trkpt>
      <trkpt lat="43.98611" lon="5.13908">
        <ele>355.7</ele>
        <time>2013-02-18T13:45:27.000Z</time>
      </trkpt>
      <trkpt lat="43.98616" lon="5.13909">
        <ele>355.8</ele>
        <time>2013-02-18T13:45:28.000Z</time>
      </trkpt>
      <trkpt lat="43.98622" lon="5.1391">
        <ele>355.5</ele>
        <time>2013-02-18T13:45:29.000Z</time>
      </trkpt>
      <trkpt lat="43.98627" lon="5.13911">
        <ele>355.7</ele>
        <time>2013-02-18T13:45:30.000Z</time>
      </trkpt>
      <trkpt lat="43.98632" lon="5.13913">
        <ele>356</ele>
        <time>2013-02-18T13:45:31.000Z</time>
      </trkpt>
      <trkpt lat="43.98635" lon="5.13914">
        <ele>355.9</ele>
        <time>2013-02-18T13:45:32.000Z</time>
      </trkpt>
      <trkpt lat="43.98638" lon="5.13914">
        <ele>356.5</ele>
        <time>2013-02-18T13:45:33.000Z</time>
      </trkpt>
      <trkpt lat="43.98642" lon="5.13913">
        <ele>358.3</ele>
        <time>2013-02-18T13:46:03.000Z</time>
      </trkpt>
      <trkpt lat="43.98643" lon="5.13914">
        <ele>358.5</ele>
        <time>2013-02-18T13:46:04.000Z</time>
      </trkpt>
      <trkpt lat="43.98647" lon="5.13913">
        <ele>357.7</ele>
        <time>2013-02-18T13:46:06.000Z</time>
      </trkpt>
      <trkpt lat="43.98649" lon="5.13913">
        <ele>358.1</ele>
        <time>2013-02-18T13:46:07.000Z</time>
      </trkpt>
      <trkpt lat="43.98652" lon="5.13914">
        <ele>357.7</ele>
        <time>2013-02-18T13:46:08.000Z</time>
      </trkpt>
      <trkpt lat="43.98655" lon="5.13913">
        <ele>356.7</ele>
        <time>2013-02-18T13:46:09.000Z</time>
      </trkpt>
      <trkpt lat="43.98658" lon="5.13912">
        <ele>356.4</ele>
        <time>2013-02-18T13:46:10.000Z</time>
      </trkpt>
      <trkpt lat="43.98661" lon="5.13911">
        <ele>356.5</ele>
        <time>2013-02-18T13:46:11.000Z</time>
      </trkpt>
      <trkpt lat="43.98664" lon="5.13909">
        <ele>355.9</ele>
        <time>2013-02-18T13:46:12.000Z</time>
      </trkpt>
      <trkpt lat="43.98668" lon="5.13907">
        <ele>355.6</ele>
        <time>2013-02-18T13:46:13.000Z</time>
      </trkpt>
      <trkpt lat="43.98671" lon="5.13906">
        <ele>355.2</ele>
        <time>2013-02-18T13:46:14.000Z</time>
      </trkpt>
      <trkpt lat="43.98675" lon="5.13903">
        <ele>355.4</ele>
        <time>2013-02-18T13:46:15.000Z</time>
      </trkpt>
      <trkpt lat="43.98678" lon="5.13901">
        <ele>355.3</ele>
        <time>2013-02-18T13:46:16.000Z</time>
      </trkpt>
      <trkpt lat="43.98683" lon="5.13899">
        <ele>355.3</ele>
        <time>2013-02-18T13:46:17.000Z</time>
      </trkpt>
      <trkpt lat="43.98687" lon="5.13897">
        <ele>355.3</ele>
        <time>2013-02-18T13:46:18.000Z</time>
      </trkpt>
      <trkpt lat="43.98691" lon="5.13895">
        <ele>355.1</ele>
        <time>2013-02-18T13:46:19.000Z</time>
      </trkpt>
      <trkpt lat="43.98694" lon="5.13893">
        <ele>355.3</ele>
        <time>2013-02-18T13:46:20.000Z</time>
      </trkpt>
      <trkpt lat="43.98699" lon="5.13892">
        <ele>355</ele>
        <time>2013-02-18T13:46:21.000Z</time>
      </trkpt>
      <trkpt lat="43.98703" lon="5.1389">
        <ele>354.8</ele>
        <time>2013-02-18T13:46:22.000Z</time>
      </trkpt>
      <trkpt lat="43.98707" lon="5.13889">
        <ele>354.9</ele>
        <time>2013-02-18T13:46:23.000Z</time>
      </trkpt>
      <trkpt lat="43.98712" lon="5.13887">
        <ele>354.8</ele>
        <time>2013-02-18T13:46:24.000Z</time>
      </trkpt>
      <trkpt lat="43.98717" lon="5.13886">
        <ele>354.3</ele>
        <time>2013-02-18T13:46:25.000Z</time>
      </trkpt>
      <trkpt lat="43.98721" lon="5.13885">
        <ele>354</ele>
        <time>2013-02-18T13:46:26.000Z</time>
      </trkpt>
      <trkpt lat="43.98726" lon="5.13884">
        <ele>354</ele>
        <time>2013-02-18T13:46:27.000Z</time>
      </trkpt>
      <trkpt lat="43.98731" lon="5.13882">
        <ele>354.2</ele>
        <time>2013-02-18T13:46:28.000Z</time>
      </trkpt>
      <trkpt lat="43.98735" lon="5.1388">
        <ele>354.2</ele>
        <time>2013-02-18T13:46:29.000Z</time>
      </trkpt>
      <trkpt lat="43.9874" lon="5.13877">
        <ele>353.6</ele>
        <time>2013-02-18T13:46:30.000Z</time>
      </trkpt>
      <trkpt lat="43.98745" lon="5.13875">
        <ele>353.3</ele>
        <time>2013-02-18T13:46:31.000Z</time>
      </trkpt>
      <trkpt lat="43.98749" lon="5.13872">
        <ele>353.1</ele>
        <time>2013-02-18T13:46:32.000Z</time>
      </trkpt>
      <trkpt lat="43.98754" lon="5.13869">
        <ele>352.9</ele>
        <time>2013-02-18T13:46:33.000Z</time>
      </trkpt>
      <trkpt lat="43.98759" lon="5.13867">
        <ele>352.8</ele>
        <time>2013-02-18T13:46:34.000Z</time>
      </trkpt>
      <trkpt lat="43.98763" lon="5.13865">
        <ele>352</ele>
        <time>2013-02-18T13:46:35.000Z</time>
      </trkpt>
      <trkpt lat="43.98768" lon="5.1386">
        <ele>351.9</ele>
        <time>2013-02-18T13:46:36.000Z</time>
      </trkpt>
      <trkpt lat="43.98772" lon="5.13857">
        <ele>351.9</ele>
        <time>2013-02-18T13:46:37.000Z</time>
      </trkpt>
      <trkpt lat="43.98776" lon="5.13852">
        <ele>352.4</ele>
        <time>2013-02-18T13:46:38.000Z</time>
      </trkpt>
      <trkpt lat="43.9878" lon="5.13849">
        <ele>352</ele>
        <time>2013-02-18T13:46:39.000Z</time>
      </trkpt>
      <trkpt lat="43.98784" lon="5.13844">
        <ele>353.2</ele>
        <time>2013-02-18T13:46:40.000Z</time>
      </trkpt>
      <trkpt lat="43.98789" lon="5.1384">
        <ele>353</ele>
        <time>2013-02-18T13:46:41.000Z</time>
      </trkpt>
      <trkpt lat="43.98793" lon="5.13837">
        <ele>353.1</ele>
        <time>2013-02-18T13:46:42.000Z</time>
      </trkpt>
      <trkpt lat="43.98798" lon="5.13833">
        <ele>353</ele>
        <time>2013-02-18T13:46:43.000Z</time>
      </trkpt>
      <trkpt lat="43.98802" lon="5.13829">
        <ele>352.9</ele>
        <time>2013-02-18T13:46:44.000Z</time>
      </trkpt>
      <trkpt lat="43.98806" lon="5.13825">
        <ele>353.5</ele>
        <time>2013-02-18T13:46:45.000Z</time>
      </trkpt>
      <trkpt lat="43.9881" lon="5.13819">
        <ele>355.1</ele>
        <time>2013-02-18T13:46:46.000Z</time>
      </trkpt>
      <trkpt lat="43.98816" lon="5.13818">
        <ele>352.3</ele>
        <time>2013-02-18T13:46:47.000Z</time>
      </trkpt>
      <trkpt lat="43.98821" lon="5.13814">
        <ele>353.1</ele>
        <time>2013-02-18T13:46:48.000Z</time>
      </trkpt>
      <trkpt lat="43.98827" lon="5.13812">
        <ele>353.2</ele>
        <time>2013-02-18T13:46:49.000Z</time>
      </trkpt>
      <trkpt lat="43.98832" lon="5.13809">
        <ele>353.2</ele>
        <time>2013-02-18T13:46:50.000Z</time>
      </trkpt>
      <trkpt lat="43.98837" lon="5.13806">
        <ele>354.2</ele>
        <time>2013-02-18T13:46:51.000Z</time>
      </trkpt>
      <trkpt lat="43.98843" lon="5.13803">
        <ele>353.8</ele>
        <time>2013-02-18T13:46:52.000Z</time>
      </trkpt>
      <trkpt lat="43.98848" lon="5.138">
        <ele>353.7</ele>
        <time>2013-02-18T13:46:53.000Z</time>
      </trkpt>
      <trkpt lat="43.98854" lon="5.13798">
        <ele>353.6</ele>
        <time>2013-02-18T13:46:54.000Z</time>
      </trkpt>
      <trkpt lat="43.98858" lon="5.13795">
        <ele>353.2</ele>
        <time>2013-02-18T13:46:55.000Z</time>
      </trkpt>
      <trkpt lat="43.98863" lon="5.13794">
        <ele>353.2</ele>
        <time>2013-02-18T13:46:56.000Z</time>
      </trkpt>
      <trkpt lat="43.98868" lon="5.13792">
        <ele>352.6</ele>
        <time>2013-02-18T13:46:57.000Z</time>
      </trkpt>
      <trkpt lat="43.98873" lon="5.13791">
        <ele>352.2</ele>
        <time>2013-02-18T13:46:58.000Z</time>
      </trkpt>
      <trkpt lat="43.98879" lon="5.1379">
        <ele>351.5</ele>
        <time>2013-02-18T13:46:59.000Z</time>
      </trkpt>
      <trkpt lat="43.98884" lon="5.1379">
        <ele>350.8</ele>
        <time>2013-02-18T13:47:00.000Z</time>
      </trkpt>
      <trkpt lat="43.9889" lon="5.13789">
        <ele>350.6</ele>
        <time>2013-02-18T13:47:01.000Z</time>
      </trkpt>
      <trkpt lat="43.98895" lon="5.13788">
        <ele>350</ele>
        <time>2013-02-18T13:47:02.000Z</time>
      </trkpt>
      <trkpt lat="43.989" lon="5.13786">
        <ele>350.3</ele>
        <time>2013-02-18T13:47:03.000Z</time>
      </trkpt>
      <trkpt lat="43.98906" lon="5.13785">
        <ele>350</ele>
        <time>2013-02-18T13:47:04.000Z</time>
      </trkpt>
      <trkpt lat="43.98911" lon="5.13784">
        <ele>349.4</ele>
        <time>2013-02-18T13:47:05.000Z</time>
      </trkpt>
      <trkpt lat="43.98917" lon="5.13783">
        <ele>348.9</ele>
        <time>2013-02-18T13:47:06.000Z</time>
      </trkpt>
      <trkpt lat="43.98922" lon="5.13783">
        <ele>348.9</ele>
        <time>2013-02-18T13:47:07.000Z</time>
      </trkpt>
      <trkpt lat="43.98927" lon="5.13783">
        <ele>348.9</ele>
        <time>2013-02-18T13:47:08.000Z</time>
      </trkpt>
      <trkpt lat="43.98933" lon="5.13783">
        <ele>348.6</ele>
        <time>2013-02-18T13:47:09.000Z</time>
      </trkpt>
      <trkpt lat="43.98938" lon="5.13785">
        <ele>348.1</ele>
        <time>2013-02-18T13:47:10.000Z</time>
      </trkpt>
      <trkpt lat="43.98944" lon="5.13786">
        <ele>347.7</ele>
        <time>2013-02-18T13:47:11.000Z</time>
      </trkpt>
      <trkpt lat="43.98949" lon="5.13787">
        <ele>347.1</ele>
        <time>2013-02-18T13:47:12.000Z</time>
      </trkpt>
      <trkpt lat="43.98955" lon="5.13787">
        <ele>346.7</ele>
        <time>2013-02-18T13:47:13.000Z</time>
      </trkpt>
      <trkpt lat="43.98961" lon="5.13787">
        <ele>345.5</ele>
        <time>2013-02-18T13:47:14.000Z</time>
      </trkpt>
      <trkpt lat="43.98967" lon="5.13786">
        <ele>344.7</ele>
        <time>2013-02-18T13:47:15.000Z</time>
      </trkpt>
      <trkpt lat="43.98974" lon="5.13782">
        <ele>345</ele>
        <time>2013-02-18T13:47:16.000Z</time>
      </trkpt>
      <trkpt lat="43.9898" lon="5.13779">
        <ele>344.9</ele>
        <time>2013-02-18T13:47:17.000Z</time>
      </trkpt>
      <trkpt lat="43.98986" lon="5.13771">
        <ele>343.9</ele>
        <time>2013-02-18T13:47:18.000Z</time>
      </trkpt>
      <trkpt lat="43.98992" lon="5.13765">
        <ele>343.5</ele>
        <time>2013-02-18T13:47:19.000Z</time>
      </trkpt>
      <trkpt lat="43.98997" lon="5.13757">
        <ele>343.4</ele>
        <time>2013-02-18T13:47:20.000Z</time>
      </trkpt>
      <trkpt lat="43.99002" lon="5.13749">
        <ele>342.9</ele>
        <time>2013-02-18T13:47:21.000Z</time>
      </trkpt>
      <trkpt lat="43.99007" lon="5.13741">
        <ele>342.3</ele>
        <time>2013-02-18T13:47:22.000Z</time>
      </trkpt>
      <trkpt lat="43.99013" lon="5.13733">
        <ele>341.8</ele>
        <time>2013-02-18T13:47:23.000Z</time>
      </trkpt>
      <trkpt lat="43.99018" lon="5.13724">
        <ele>341.8</ele>
        <time>2013-02-18T13:47:24.000Z</time>
      </trkpt>
      <trkpt lat="43.99023" lon="5.13717">
        <ele>342</ele>
        <time>2013-02-18T13:47:25.000Z</time>
      </trkpt>
      <trkpt lat="43.9903" lon="5.13711">
        <ele>342</ele>
        <time>2013-02-18T13:47:26.000Z</time>
      </trkpt>
      <trkpt lat="43.99036" lon="5.13706">
        <ele>341.8</ele>
        <time>2013-02-18T13:47:27.000Z</time>
      </trkpt>
      <trkpt lat="43.99042" lon="5.13701">
        <ele>341.6</ele>
        <time>2013-02-18T13:47:28.000Z</time>
      </trkpt>
      <trkpt lat="43.99049" lon="5.13696">
        <ele>341.4</ele>
        <time>2013-02-18T13:47:29.000Z</time>
      </trkpt>
      <trkpt lat="43.99056" lon="5.13692">
        <ele>340.9</ele>
        <time>2013-02-18T13:47:30.000Z</time>
      </trkpt>
      <trkpt lat="43.99063" lon="5.13687">
        <ele>340.4</ele>
        <time>2013-02-18T13:47:31.000Z</time>
      </trkpt>
      <trkpt lat="43.9907" lon="5.13681">
        <ele>340</ele>
        <time>2013-02-18T13:47:32.000Z</time>
      </trkpt>
      <trkpt lat="43.99078" lon="5.13676">
        <ele>339.4</ele>
        <time>2013-02-18T13:47:33.000Z</time>
      </trkpt>
      <trkpt lat="43.99086" lon="5.13671">
        <ele>338.6</ele>
        <time>2013-02-18T13:47:34.000Z</time>
      </trkpt>
      <trkpt lat="43.99093" lon="5.13665">
        <ele>338.2</ele>
        <time>2013-02-18T13:47:35.000Z</time>
      </trkpt>
      <trkpt lat="43.99101" lon="5.1366">
        <ele>338.1</ele>
        <time>2013-02-18T13:47:36.000Z</time>
      </trkpt>
      <trkpt lat="43.99106" lon="5.13655">
        <ele>337.6</ele>
        <time>2013-02-18T13:47:37.000Z</time>
      </trkpt>
      <trkpt lat="43.99111" lon="5.1365">
        <ele>337.6</ele>
        <time>2013-02-18T13:47:38.000Z</time>
      </trkpt>
      <trkpt lat="43.99115" lon="5.13646">
        <ele>337.3</ele>
        <time>2013-02-18T13:47:39.000Z</time>
      </trkpt>
      <trkpt lat="43.99119" lon="5.13641">
        <ele>337.4</ele>
        <time>2013-02-18T13:47:40.000Z</time>
      </trkpt>
      <trkpt lat="43.99123" lon="5.13637">
        <ele>337.8</ele>
        <time>2013-02-18T13:47:41.000Z</time>
      </trkpt>
      <trkpt lat="43.99128" lon="5.13634">
        <ele>338.1</ele>
        <time>2013-02-18T13:47:42.000Z</time>
      </trkpt>
      <trkpt lat="43.99132" lon="5.13633">
        <ele>337.8</ele>
        <time>2013-02-18T13:47:43.000Z</time>
      </trkpt>
      <trkpt lat="43.99137" lon="5.13634">
        <ele>337.5</ele>
        <time>2013-02-18T13:47:44.000Z</time>
      </trkpt>
      <trkpt lat="43.99141" lon="5.13635">
        <ele>337.3</ele>
        <time>2013-02-18T13:47:45.000Z</time>
      </trkpt>
      <trkpt lat="43.99145" lon="5.13637">
        <ele>337.3</ele>
        <time>2013-02-18T13:47:46.000Z</time>
      </trkpt>
      <trkpt lat="43.99149" lon="5.13638">
        <ele>337.1</ele>
        <time>2013-02-18T13:47:47.000Z</time>
      </trkpt>
      <trkpt lat="43.99153" lon="5.13638">
        <ele>336.7</ele>
        <time>2013-02-18T13:47:48.000Z</time>
      </trkpt>
      <trkpt lat="43.99157" lon="5.13638">
        <ele>336.7</ele>
        <time>2013-02-18T13:47:49.000Z</time>
      </trkpt>
      <trkpt lat="43.99161" lon="5.13638">
        <ele>336.4</ele>
        <time>2013-02-18T13:47:50.000Z</time>
      </trkpt>
      <trkpt lat="43.99165" lon="5.13638">
        <ele>335.9</ele>
        <time>2013-02-18T13:48:23.000Z</time>
      </trkpt>
      <trkpt lat="43.99167" lon="5.13637">
        <ele>335.7</ele>
        <time>2013-02-18T13:48:24.000Z</time>
      </trkpt>
      <trkpt lat="43.9917" lon="5.13637">
        <ele>335.8</ele>
        <time>2013-02-18T13:48:25.000Z</time>
      </trkpt>
      <trkpt lat="43.99173" lon="5.13637">
        <ele>335.4</ele>
        <time>2013-02-18T13:48:26.000Z</time>
      </trkpt>
      <trkpt lat="43.99176" lon="5.13635">
        <ele>334.9</ele>
        <time>2013-02-18T13:48:27.000Z</time>
      </trkpt>
      <trkpt lat="43.9918" lon="5.13633">
        <ele>335</ele>
        <time>2013-02-18T13:48:28.000Z</time>
      </trkpt>
      <trkpt lat="43.99184" lon="5.13633">
        <ele>334.8</ele>
        <time>2013-02-18T13:48:29.000Z</time>
      </trkpt>
      <trkpt lat="43.99188" lon="5.13633">
        <ele>334.4</ele>
        <time>2013-02-18T13:48:30.000Z</time>
      </trkpt>
      <trkpt lat="43.99192" lon="5.13633">
        <ele>334.3</ele>
        <time>2013-02-18T13:48:31.000Z</time>
      </trkpt>
      <trkpt lat="43.99196" lon="5.13633">
        <ele>333.6</ele>
        <time>2013-02-18T13:48:32.000Z</time>
      </trkpt>
      <trkpt lat="43.99201" lon="5.13634">
        <ele>333.5</ele>
        <time>2013-02-18T13:48:33.000Z</time>
      </trkpt>
      <trkpt lat="43.99205" lon="5.13634">
        <ele>333.2</ele>
        <time>2013-02-18T13:48:34.000Z</time>
      </trkpt>
      <trkpt lat="43.9921" lon="5.13635">
        <ele>333.5</ele>
        <time>2013-02-18T13:48:35.000Z</time>
      </trkpt>
      <trkpt lat="43.99214" lon="5.13635">
        <ele>333.3</ele>
        <time>2013-02-18T13:48:36.000Z</time>
      </trkpt>
      <trkpt lat="43.99218" lon="5.13635">
        <ele>333.2</ele>
        <time>2013-02-18T13:48:37.000Z</time>
      </trkpt>
      <trkpt lat="43.99222" lon="5.13634">
        <ele>333.1</ele>
        <time>2013-02-18T13:48:38.000Z</time>
      </trkpt>
      <trkpt lat="43.99226" lon="5.13634">
        <ele>333.3</ele>
        <time>2013-02-18T13:48:39.000Z</time>
      </trkpt>
      <trkpt lat="43.99229" lon="5.13634">
        <ele>333.4</ele>
        <time>2013-02-18T13:48:40.000Z</time>
      </trkpt>
      <trkpt lat="43.99233" lon="5.13634">
        <ele>333.2</ele>
        <time>2013-02-18T13:48:41.000Z</time>
      </trkpt>
      <trkpt lat="43.99236" lon="5.13634">
        <ele>333</ele>
        <time>2013-02-18T13:48:42.000Z</time>
      </trkpt>
      <trkpt lat="43.99239" lon="5.13634">
        <ele>332.8</ele>
        <time>2013-02-18T13:48:43.000Z</time>
      </trkpt>
      <trkpt lat="43.99243" lon="5.13633">
        <ele>332.5</ele>
        <time>2013-02-18T13:48:45.000Z</time>
      </trkpt>
      <trkpt lat="43.99245" lon="5.13634">
        <ele>332.1</ele>
        <time>2013-02-18T13:48:46.000Z</time>
      </trkpt>
      <trkpt lat="43.99248" lon="5.13635">
        <ele>332.1</ele>
        <time>2013-02-18T13:48:47.000Z</time>
      </trkpt>
      <trkpt lat="43.9925" lon="5.13637">
        <ele>332.1</ele>
        <time>2013-02-18T13:48:48.000Z</time>
      </trkpt>
      <trkpt lat="43.99253" lon="5.13638">
        <ele>331.4</ele>
        <time>2013-02-18T13:48:49.000Z</time>
      </trkpt>
      <trkpt lat="43.99256" lon="5.13639">
        <ele>331.3</ele>
        <time>2013-02-18T13:48:50.000Z</time>
      </trkpt>
      <trkpt lat="43.9926" lon="5.1364">
        <ele>331.5</ele>
        <time>2013-02-18T13:48:51.000Z</time>
      </trkpt>
      <trkpt lat="43.99263" lon="5.13641">
        <ele>332.1</ele>
        <time>2013-02-18T13:48:52.000Z</time>
      </trkpt>
      <trkpt lat="43.99267" lon="5.13642">
        <ele>331.8</ele>
        <time>2013-02-18T13:48:53.000Z</time>
      </trkpt>
      <trkpt lat="43.99271" lon="5.13642">
        <ele>331.8</ele>
        <time>2013-02-18T13:48:54.000Z</time>
      </trkpt>
      <trkpt lat="43.99275" lon="5.13644">
        <ele>331.3</ele>
        <time>2013-02-18T13:48:55.000Z</time>
      </trkpt>
      <trkpt lat="43.99279" lon="5.13645">
        <ele>330.9</ele>
        <time>2013-02-18T13:48:56.000Z</time>
      </trkpt>
      <trkpt lat="43.99283" lon="5.13646">
        <ele>330.5</ele>
        <time>2013-02-18T13:48:57.000Z</time>
      </trkpt>
      <trkpt lat="43.99286" lon="5.13647">
        <ele>331</ele>
        <time>2013-02-18T13:48:58.000Z</time>
      </trkpt>
      <trkpt lat="43.9929" lon="5.13647">
        <ele>331.2</ele>
        <time>2013-02-18T13:48:59.000Z</time>
      </trkpt>
      <trkpt lat="43.99294" lon="5.13647">
        <ele>330.9</ele>
        <time>2013-02-18T13:49:00.000Z</time>
      </trkpt>
      <trkpt lat="43.993" lon="5.13649">
        <ele>330.3</ele>
        <time>2013-02-18T13:49:01.000Z</time>
      </trkpt>
      <trkpt lat="43.99306" lon="5.13649">
        <ele>329.6</ele>
        <time>2013-02-18T13:49:02.000Z</time>
      </trkpt>
      <trkpt lat="43.99311" lon="5.1365">
        <ele>329.5</ele>
        <time>2013-02-18T13:49:03.000Z</time>
      </trkpt>
      <trkpt lat="43.99317" lon="5.13651">
        <ele>329.4</ele>
        <time>2013-02-18T13:49:04.000Z</time>
      </trkpt>
      <trkpt lat="43.99323" lon="5.13652">
        <ele>329.2</ele>
        <time>2013-02-18T13:49:05.000Z</time>
      </trkpt>
      <trkpt lat="43.99329" lon="5.13654">
        <ele>328.9</ele>
        <time>2013-02-18T13:49:06.000Z</time>
      </trkpt>
      <trkpt lat="43.99335" lon="5.13656">
        <ele>329</ele>
        <time>2013-02-18T13:49:07.000Z</time>
      </trkpt>
      <trkpt lat="43.99341" lon="5.13658">
        <ele>328.7</ele>
        <time>2013-02-18T13:49:08.000Z</time>
      </trkpt>
      <trkpt lat="43.99347" lon="5.1366">
        <ele>328.6</ele>
        <time>2013-02-18T13:49:09.000Z</time>
      </trkpt>
      <trkpt lat="43.99354" lon="5.13661">
        <ele>328.2</ele>
        <time>2013-02-18T13:49:10.000Z</time>
      </trkpt>
      <trkpt lat="43.9936" lon="5.13662">
        <ele>327.7</ele>
        <time>2013-02-18T13:49:11.000Z</time>
      </trkpt>
      <trkpt lat="43.99366" lon="5.13664">
        <ele>327.5</ele>
        <time>2013-02-18T13:49:12.000Z</time>
      </trkpt>
      <trkpt lat="43.99373" lon="5.13665">
        <ele>327.3</ele>
        <time>2013-02-18T13:49:13.000Z</time>
      </trkpt>
      <trkpt lat="43.99378" lon="5.13666">
        <ele>326.9</ele>
        <time>2013-02-18T13:49:14.000Z</time>
      </trkpt>
      <trkpt lat="43.99383" lon="5.13668">
        <ele>326.9</ele>
        <time>2013-02-18T13:49:15.000Z</time>
      </trkpt>
      <trkpt lat="43.99387" lon="5.1367">
        <ele>326.7</ele>
        <time>2013-02-18T13:49:16.000Z</time>
      </trkpt>
      <trkpt lat="43.99392" lon="5.13671">
        <ele>326.4</ele>
        <time>2013-02-18T13:49:17.000Z</time>
      </trkpt>
      <trkpt lat="43.99396" lon="5.13671">
        <ele>326.5</ele>
        <time>2013-02-18T13:49:18.000Z</time>
      </trkpt>
      <trkpt lat="43.994" lon="5.1367">
        <ele>326.2</ele>
        <time>2013-02-18T13:49:19.000Z</time>
      </trkpt>
      <trkpt lat="43.99403" lon="5.1367">
        <ele>326.7</ele>
        <time>2013-02-18T13:49:20.000Z</time>
      </trkpt>
      <trkpt lat="43.99407" lon="5.13672">
        <ele>325.6</ele>
        <time>2013-02-18T13:49:21.000Z</time>
      </trkpt>
      <trkpt lat="43.99411" lon="5.13675">
        <ele>325.7</ele>
        <time>2013-02-18T13:49:22.000Z</time>
      </trkpt>
      <trkpt lat="43.99414" lon="5.13678">
        <ele>325.7</ele>
        <time>2013-02-18T13:49:23.000Z</time>
      </trkpt>
      <trkpt lat="43.99418" lon="5.13681">
        <ele>325.6</ele>
        <time>2013-02-18T13:49:24.000Z</time>
      </trkpt>
      <trkpt lat="43.99422" lon="5.13684">
        <ele>325.4</ele>
        <time>2013-02-18T13:49:25.000Z</time>
      </trkpt>
      <trkpt lat="43.99426" lon="5.13686">
        <ele>325.2</ele>
        <time>2013-02-18T13:49:26.000Z</time>
      </trkpt>
      <trkpt lat="43.9943" lon="5.13688">
        <ele>325.1</ele>
        <time>2013-02-18T13:49:27.000Z</time>
      </trkpt>
      <trkpt lat="43.99435" lon="5.1369">
        <ele>325.1</ele>
        <time>2013-02-18T13:49:28.000Z</time>
      </trkpt>
      <trkpt lat="43.99439" lon="5.13692">
        <ele>325</ele>
        <time>2013-02-18T13:49:29.000Z</time>
      </trkpt>
      <trkpt lat="43.99443" lon="5.13694">
        <ele>325</ele>
        <time>2013-02-18T13:49:30.000Z</time>
      </trkpt>
      <trkpt lat="43.99446" lon="5.13694">
        <ele>325.6</ele>
        <time>2013-02-18T13:49:31.000Z</time>
      </trkpt>
      <trkpt lat="43.99449" lon="5.13695">
        <ele>325.5</ele>
        <time>2013-02-18T13:49:32.000Z</time>
      </trkpt>
      <trkpt lat="43.99453" lon="5.13696">
        <ele>325.6</ele>
        <time>2013-02-18T13:49:33.000Z</time>
      </trkpt>
      <trkpt lat="43.99456" lon="5.13697">
        <ele>325.5</ele>
        <time>2013-02-18T13:49:34.000Z</time>
      </trkpt>
      <trkpt lat="43.9946" lon="5.13699">
        <ele>325.8</ele>
        <time>2013-02-18T13:49:35.000Z</time>
      </trkpt>
      <trkpt lat="43.99464" lon="5.13701">
        <ele>325.5</ele>
        <time>2013-02-18T13:49:36.000Z</time>
      </trkpt>
      <trkpt lat="43.99468" lon="5.13702">
        <ele>325.4</ele>
        <time>2013-02-18T13:49:37.000Z</time>
      </trkpt>
      <trkpt lat="43.99472" lon="5.13704">
        <ele>325.2</ele>
        <time>2013-02-18T13:49:38.000Z</time>
      </trkpt>
      <trkpt lat="43.99476" lon="5.13706">
        <ele>325.5</ele>
        <time>2013-02-18T13:49:39.000Z</time>
      </trkpt>
      <trkpt lat="43.9948" lon="5.13708">
        <ele>325.1</ele>
        <time>2013-02-18T13:49:40.000Z</time>
      </trkpt>
      <trkpt lat="43.99485" lon="5.1371">
        <ele>324.6</ele>
        <time>2013-02-18T13:49:41.000Z</time>
      </trkpt>
      <trkpt lat="43.99488" lon="5.13712">
        <ele>324.4</ele>
        <time>2013-02-18T13:49:42.000Z</time>
      </trkpt>
      <trkpt lat="43.99492" lon="5.13715">
        <ele>324.1</ele>
        <time>2013-02-18T13:49:43.000Z</time>
      </trkpt>
      <trkpt lat="43.99495" lon="5.13717">
        <ele>323.9</ele>
        <time>2013-02-18T13:49:44.000Z</time>
      </trkpt>
      <trkpt lat="43.99498" lon="5.13719">
        <ele>323.8</ele>
        <time>2013-02-18T13:49:45.000Z</time>
      </trkpt>
      <trkpt lat="43.99502" lon="5.1372">
        <ele>323.4</ele>
        <time>2013-02-18T13:49:47.000Z</time>
      </trkpt>
      <trkpt lat="43.99502" lon="5.1372">
        <ele>323.4</ele>
        <time>2013-02-18T13:49:48.000Z</time>
      </trkpt>
      <trkpt lat="43.99504" lon="5.13718">
        <ele>323.5</ele>
        <time>2013-02-18T13:50:09.000Z</time>
      </trkpt>
      <trkpt lat="43.99507" lon="5.13717">
        <ele>323.1</ele>
        <time>2013-02-18T13:50:10.000Z</time>
      </trkpt>
      <trkpt lat="43.99509" lon="5.13716">
        <ele>322.8</ele>
        <time>2013-02-18T13:50:11.000Z</time>
      </trkpt>
      <trkpt lat="43.99511" lon="5.13716">
        <ele>322.4</ele>
        <time>2013-02-18T13:50:12.000Z</time>
      </trkpt>
      <trkpt lat="43.99514" lon="5.13715">
        <ele>322.1</ele>
        <time>2013-02-18T13:50:13.000Z</time>
      </trkpt>
      <trkpt lat="43.99516" lon="5.13715">
        <ele>322.5</ele>
        <time>2013-02-18T13:50:14.000Z</time>
      </trkpt>
      <trkpt lat="43.99519" lon="5.13717">
        <ele>322.6</ele>
        <time>2013-02-18T13:50:16.000Z</time>
      </trkpt>
      <trkpt lat="43.99521" lon="5.13718">
        <ele>323</ele>
        <time>2013-02-18T13:50:17.000Z</time>
      </trkpt>
      <trkpt lat="43.99523" lon="5.13719">
        <ele>323.2</ele>
        <time>2013-02-18T13:50:18.000Z</time>
      </trkpt>
      <trkpt lat="43.99526" lon="5.1372">
        <ele>322.6</ele>
        <time>2013-02-18T13:50:19.000Z</time>
      </trkpt>
      <trkpt lat="43.99528" lon="5.13721">
        <ele>323</ele>
        <time>2013-02-18T13:50:20.000Z</time>
      </trkpt>
      <trkpt lat="43.99531" lon="5.13722">
        <ele>323.5</ele>
        <time>2013-02-18T13:50:21.000Z</time>
      </trkpt>
      <trkpt lat="43.99533" lon="5.13724">
        <ele>322.5</ele>
        <time>2013-02-18T13:50:22.000Z</time>
      </trkpt>
      <trkpt lat="43.99535" lon="5.13726">
        <ele>322.3</ele>
        <time>2013-02-18T13:50:23.000Z</time>
      </trkpt>
      <trkpt lat="43.99538" lon="5.13728">
        <ele>322.1</ele>
        <time>2013-02-18T13:50:24.000Z</time>
      </trkpt>
      <trkpt lat="43.99541" lon="5.13731">
        <ele>321.6</ele>
        <time>2013-02-18T13:50:25.000Z</time>
      </trkpt>
      <trkpt lat="43.99545" lon="5.13733">
        <ele>321.3</ele>
        <time>2013-02-18T13:50:26.000Z</time>
      </trkpt>
      <trkpt lat="43.99548" lon="5.13736">
        <ele>321.1</ele>
        <time>2013-02-18T13:50:27.000Z</time>
      </trkpt>
      <trkpt lat="43.99552" lon="5.13738">
        <ele>321.3</ele>
        <time>2013-02-18T13:50:28.000Z</time>
      </trkpt>
      <trkpt lat="43.99556" lon="5.13741">
        <ele>320.8</ele>
        <time>2013-02-18T13:50:29.000Z</time>
      </trkpt>
      <trkpt lat="43.9956" lon="5.13744">
        <ele>320.6</ele>
        <time>2013-02-18T13:50:30.000Z</time>
      </trkpt>
      <trkpt lat="43.99564" lon="5.13746">
        <ele>319.9</ele>
        <time>2013-02-18T13:50:31.000Z</time>
      </trkpt>
      <trkpt lat="43.99568" lon="5.13748">
        <ele>320.1</ele>
        <time>2013-02-18T13:50:32.000Z</time>
      </trkpt>
      <trkpt lat="43.99573" lon="5.13749">
        <ele>319.9</ele>
        <time>2013-02-18T13:50:33.000Z</time>
      </trkpt>
      <trkpt lat="43.99577" lon="5.1375">
        <ele>319.1</ele>
        <time>2013-02-18T13:50:34.000Z</time>
      </trkpt>
      <trkpt lat="43.99582" lon="5.13751">
        <ele>318.6</ele>
        <time>2013-02-18T13:50:35.000Z</time>
      </trkpt>
      <trkpt lat="43.99586" lon="5.13753">
        <ele>318.4</ele>
        <time>2013-02-18T13:50:36.000Z</time>
      </trkpt>
      <trkpt lat="43.99591" lon="5.13755">
        <ele>318.1</ele>
        <time>2013-02-18T13:50:37.000Z</time>
      </trkpt>
      <trkpt lat="43.99595" lon="5.13758">
        <ele>317.5</ele>
        <time>2013-02-18T13:50:38.000Z</time>
      </trkpt>
      <trkpt lat="43.99597" lon="5.13759">
        <ele>318.1</ele>
        <time>2013-02-18T13:50:39.000Z</time>
      </trkpt>
      <trkpt lat="43.99599" lon="5.1376">
        <ele>318.8</ele>
        <time>2013-02-18T13:50:40.000Z</time>
      </trkpt>
      <trkpt lat="43.99604" lon="5.1376">
        <ele>319.4</ele>
        <time>2013-02-18T13:51:16.000Z</time>
      </trkpt>
      <trkpt lat="43.99604" lon="5.1376">
        <ele>319</ele>
        <time>2013-02-18T13:51:17.000Z</time>
      </trkpt>
      <trkpt lat="43.99607" lon="5.13762">
        <ele>319.1</ele>
        <time>2013-02-18T13:51:19.000Z</time>
      </trkpt>
      <trkpt lat="43.99607" lon="5.13765">
        <ele>318.9</ele>
        <time>2013-02-18T13:51:20.000Z</time>
      </trkpt>
      <trkpt lat="43.99609" lon="5.1377">
        <ele>318</ele>
        <time>2013-02-18T13:51:23.000Z</time>
      </trkpt>
      <trkpt lat="43.9961" lon="5.13771">
        <ele>318.1</ele>
        <time>2013-02-18T13:51:24.000Z</time>
      </trkpt>
      <trkpt lat="43.99613" lon="5.13775">
        <ele>319.4</ele>
        <time>2013-02-18T13:51:27.000Z</time>
      </trkpt>
      <trkpt lat="43.99614" lon="5.13776">
        <ele>319.1</ele>
        <time>2013-02-18T13:51:28.000Z</time>
      </trkpt>
      <trkpt lat="43.99616" lon="5.13779">
        <ele>318.4</ele>
        <time>2013-02-18T13:51:31.000Z</time>
      </trkpt>
      <trkpt lat="43.99616" lon="5.13781">
        <ele>318.3</ele>
        <time>2013-02-18T13:51:32.000Z</time>
      </trkpt>
      <trkpt lat="43.99618" lon="5.13786">
        <ele>316.2</ele>
        <time>2013-02-18T13:52:15.000Z</time>
      </trkpt>
      <trkpt lat="43.99618" lon="5.13787">
        <ele>316.2</ele>
        <time>2013-02-18T13:52:16.000Z</time>
      </trkpt>
      <trkpt lat="43.9962" lon="5.1379">
        <ele>315.3</ele>
        <time>2013-02-18T13:52:21.000Z</time>
      </trkpt>
      <trkpt lat="43.99622" lon="5.13791">
        <ele>315.3</ele>
        <time>2013-02-18T13:52:22.000Z</time>
      </trkpt>
      <trkpt lat="43.99625" lon="5.13795">
        <ele>315.6</ele>
        <time>2013-02-18T13:52:24.000Z</time>
      </trkpt>
      <trkpt lat="43.99626" lon="5.13797">
        <ele>315.7</ele>
        <time>2013-02-18T13:52:25.000Z</time>
      </trkpt>
      <trkpt lat="43.99628" lon="5.138">
        <ele>316</ele>
        <time>2013-02-18T13:52:26.000Z</time>
      </trkpt>
      <trkpt lat="43.99628" lon="5.13806">
        <ele>314.9</ele>
        <time>2013-02-18T13:52:27.000Z</time>
      </trkpt>
      <trkpt lat="43.99629" lon="5.13809">
        <ele>314.6</ele>
        <time>2013-02-18T13:52:28.000Z</time>
      </trkpt>
      <trkpt lat="43.9963" lon="5.13813">
        <ele>314</ele>
        <time>2013-02-18T13:52:29.000Z</time>
      </trkpt>
      <trkpt lat="43.99632" lon="5.13818">
        <ele>313.6</ele>
        <time>2013-02-18T13:52:31.000Z</time>
      </trkpt>
      <trkpt lat="43.99634" lon="5.13821">
        <ele>313.4</ele>
        <time>2013-02-18T13:52:32.000Z</time>
      </trkpt>
      <trkpt lat="43.99636" lon="5.13824">
        <ele>313.6</ele>
        <time>2013-02-18T13:52:33.000Z</time>
      </trkpt>
      <trkpt lat="43.99638" lon="5.13827">
        <ele>313.5</ele>
        <time>2013-02-18T13:52:34.000Z</time>
      </trkpt>
      <trkpt lat="43.9964" lon="5.1383">
        <ele>313.7</ele>
        <time>2013-02-18T13:52:35.000Z</time>
      </trkpt>
      <trkpt lat="43.99642" lon="5.13833">
        <ele>313.4</ele>
        <time>2013-02-18T13:52:36.000Z</time>
      </trkpt>
      <trkpt lat="43.99644" lon="5.13835">
        <ele>312.9</ele>
        <time>2013-02-18T13:52:37.000Z</time>
      </trkpt>
      <trkpt lat="43.99647" lon="5.13837">
        <ele>312.4</ele>
        <time>2013-02-18T13:52:38.000Z</time>
      </trkpt>
      <trkpt lat="43.9965" lon="5.13839">
        <ele>312.2</ele>
        <time>2013-02-18T13:52:39.000Z</time>
      </trkpt>
      <trkpt lat="43.99652" lon="5.13841">
        <ele>312.2</ele>
        <time>2013-02-18T13:52:40.000Z</time>
      </trkpt>
      <trkpt lat="43.99655" lon="5.13842">
        <ele>312.1</ele>
        <time>2013-02-18T13:52:41.000Z</time>
      </trkpt>
      <trkpt lat="43.99658" lon="5.13844">
        <ele>311.8</ele>
        <time>2013-02-18T13:52:42.000Z</time>
      </trkpt>
      <trkpt lat="43.99661" lon="5.13845">
        <ele>311.7</ele>
        <time>2013-02-18T13:52:43.000Z</time>
      </trkpt>
      <trkpt lat="43.99664" lon="5.13849">
        <ele>310.6</ele>
        <time>2013-02-18T13:52:44.000Z</time>
      </trkpt>
      <trkpt lat="43.99667" lon="5.13851">
        <ele>308.9</ele>
        <time>2013-02-18T13:52:45.000Z</time>
      </trkpt>
      <trkpt lat="43.99669" lon="5.13853">
        <ele>309</ele>
        <time>2013-02-18T13:52:46.000Z</time>
      </trkpt>
      <trkpt lat="43.99672" lon="5.13856">
        <ele>308</ele>
        <time>2013-02-18T13:52:47.000Z</time>
      </trkpt>
      <trkpt lat="43.99673" lon="5.13857">
        <ele>308.1</ele>
        <time>2013-02-18T13:52:48.000Z</time>
      </trkpt>
      <trkpt lat="43.99675" lon="5.1386">
        <ele>308.3</ele>
        <time>2013-02-18T13:53:46.000Z</time>
      </trkpt>
      <trkpt lat="43.99677" lon="5.13861">
        <ele>307.8</ele>
        <time>2013-02-18T13:53:47.000Z</time>
      </trkpt>
      <trkpt lat="43.99679" lon="5.13863">
        <ele>307.1</ele>
        <time>2013-02-18T13:53:48.000Z</time>
      </trkpt>
      <trkpt lat="43.9968" lon="5.13866">
        <ele>307.4</ele>
        <time>2013-02-18T13:53:49.000Z</time>
      </trkpt>
      <trkpt lat="43.99682" lon="5.13868">
        <ele>306.6</ele>
        <time>2013-02-18T13:53:50.000Z</time>
      </trkpt>
      <trkpt lat="43.99685" lon="5.13871">
        <ele>306.6</ele>
        <time>2013-02-18T13:53:51.000Z</time>
      </trkpt>
      <trkpt lat="43.99688" lon="5.13873">
        <ele>306.2</ele>
        <time>2013-02-18T13:53:52.000Z</time>
      </trkpt>
      <trkpt lat="43.99691" lon="5.13876">
        <ele>305.4</ele>
        <time>2013-02-18T13:53:53.000Z</time>
      </trkpt>
      <trkpt lat="43.99693" lon="5.13879">
        <ele>304.6</ele>
        <time>2013-02-18T13:53:54.000Z</time>
      </trkpt>
      <trkpt lat="43.99696" lon="5.13881">
        <ele>304.5</ele>
        <time>2013-02-18T13:53:55.000Z</time>
      </trkpt>
      <trkpt lat="43.99699" lon="5.13884">
        <ele>304.2</ele>
        <time>2013-02-18T13:53:56.000Z</time>
      </trkpt>
      <trkpt lat="43.99702" lon="5.13884">
        <ele>305.3</ele>
        <time>2013-02-18T13:53:57.000Z</time>
      </trkpt>
      <trkpt lat="43.99705" lon="5.13887">
        <ele>304.8</ele>
        <time>2013-02-18T13:53:58.000Z</time>
      </trkpt>
      <trkpt lat="43.99708" lon="5.13888">
        <ele>304.5</ele>
        <time>2013-02-18T13:53:59.000Z</time>
      </trkpt>
      <trkpt lat="43.99711" lon="5.13889">
        <ele>304.7</ele>
        <time>2013-02-18T13:54:00.000Z</time>
      </trkpt>
      <trkpt lat="43.99715" lon="5.13891">
        <ele>304.4</ele>
        <time>2013-02-18T13:54:01.000Z</time>
      </trkpt>
      <trkpt lat="43.99718" lon="5.13892">
        <ele>304.2</ele>
        <time>2013-02-18T13:54:02.000Z</time>
      </trkpt>
      <trkpt lat="43.9972" lon="5.13893">
        <ele>303.7</ele>
        <time>2013-02-18T13:54:03.000Z</time>
      </trkpt>
      <trkpt lat="43.99723" lon="5.13894">
        <ele>303.3</ele>
        <time>2013-02-18T13:54:04.000Z</time>
      </trkpt>
      <trkpt lat="43.99726" lon="5.13895">
        <ele>302.9</ele>
        <time>2013-02-18T13:54:05.000Z</time>
      </trkpt>
      <trkpt lat="43.99729" lon="5.13898">
        <ele>302.3</ele>
        <time>2013-02-18T13:54:06.000Z</time>
      </trkpt>
      <trkpt lat="43.99732" lon="5.139">
        <ele>301.7</ele>
        <time>2013-02-18T13:54:07.000Z</time>
      </trkpt>
      <trkpt lat="43.99735" lon="5.13901">
        <ele>301.7</ele>
        <time>2013-02-18T13:54:08.000Z</time>
      </trkpt>
      <trkpt lat="43.99738" lon="5.13903">
        <ele>301.2</ele>
        <time>2013-02-18T13:54:09.000Z</time>
      </trkpt>
      <trkpt lat="43.99741" lon="5.13905">
        <ele>300.5</ele>
        <time>2013-02-18T13:54:10.000Z</time>
      </trkpt>
      <trkpt lat="43.99744" lon="5.13907">
        <ele>300</ele>
        <time>2013-02-18T13:54:11.000Z</time>
      </trkpt>
      <trkpt lat="43.99746" lon="5.13908">
        <ele>299.9</ele>
        <time>2013-02-18T13:54:12.000Z</time>
      </trkpt>
      <trkpt lat="43.99749" lon="5.1391">
        <ele>299.1</ele>
        <time>2013-02-18T13:54:13.000Z</time>
      </trkpt>
      <trkpt lat="43.99752" lon="5.13911">
        <ele>298.6</ele>
        <time>2013-02-18T13:54:14.000Z</time>
      </trkpt>
      <trkpt lat="43.99754" lon="5.13912">
        <ele>298.1</ele>
        <time>2013-02-18T13:54:15.000Z</time>
      </trkpt>
      <trkpt lat="43.99757" lon="5.13912">
        <ele>298.2</ele>
        <time>2013-02-18T13:54:16.000Z</time>
      </trkpt>
      <trkpt lat="43.99759" lon="5.13913">
        <ele>298.2</ele>
        <time>2013-02-18T13:54:17.000Z</time>
      </trkpt>
      <trkpt lat="43.99762" lon="5.13914">
        <ele>298.1</ele>
        <time>2013-02-18T13:54:18.000Z</time>
      </trkpt>
      <trkpt lat="43.99764" lon="5.13914">
        <ele>298</ele>
        <time>2013-02-18T13:54:19.000Z</time>
      </trkpt>
      <trkpt lat="43.99768" lon="5.13915">
        <ele>296.8</ele>
        <time>2013-02-18T13:54:21.000Z</time>
      </trkpt>
      <trkpt lat="43.9977" lon="5.13914">
        <ele>297</ele>
        <time>2013-02-18T13:54:22.000Z</time>
      </trkpt>
      <trkpt lat="43.99773" lon="5.13915">
        <ele>296.5</ele>
        <time>2013-02-18T13:54:23.000Z</time>
      </trkpt>
      <trkpt lat="43.99775" lon="5.13915">
        <ele>295.8</ele>
        <time>2013-02-18T13:54:24.000Z</time>
      </trkpt>
      <trkpt lat="43.99778" lon="5.13916">
        <ele>295.4</ele>
        <time>2013-02-18T13:54:25.000Z</time>
      </trkpt>
      <trkpt lat="43.9978" lon="5.13916">
        <ele>294.9</ele>
        <time>2013-02-18T13:54:26.000Z</time>
      </trkpt>
      <trkpt lat="43.99783" lon="5.13917">
        <ele>294.2</ele>
        <time>2013-02-18T13:54:27.000Z</time>
      </trkpt>
      <trkpt lat="43.99786" lon="5.13917">
        <ele>293.7</ele>
        <time>2013-02-18T13:54:28.000Z</time>
      </trkpt>
      <trkpt lat="43.99789" lon="5.13918">
        <ele>292.9</ele>
        <time>2013-02-18T13:54:29.000Z</time>
      </trkpt>
      <trkpt lat="43.99791" lon="5.13918">
        <ele>292.9</ele>
        <time>2013-02-18T13:54:30.000Z</time>
      </trkpt>
      <trkpt lat="43.99794" lon="5.13919">
        <ele>293.2</ele>
        <time>2013-02-18T13:54:31.000Z</time>
      </trkpt>
      <trkpt lat="43.99797" lon="5.13919">
        <ele>293.3</ele>
        <time>2013-02-18T13:54:32.000Z</time>
      </trkpt>
      <trkpt lat="43.99799" lon="5.13919">
        <ele>293.3</ele>
        <time>2013-02-18T13:54:33.000Z</time>
      </trkpt>
      <trkpt lat="43.99802" lon="5.13918">
        <ele>293.4</ele>
        <time>2013-02-18T13:54:34.000Z</time>
      </trkpt>
      <trkpt lat="43.99806" lon="5.13918">
        <ele>290.4</ele>
        <time>2013-02-18T13:54:35.000Z</time>
      </trkpt>
      <trkpt lat="43.99809" lon="5.13917">
        <ele>289.1</ele>
        <time>2013-02-18T13:54:36.000Z</time>
      </trkpt>
      <trkpt lat="43.99812" lon="5.13917">
        <ele>287.9</ele>
        <time>2013-02-18T13:54:37.000Z</time>
      </trkpt>
      <trkpt lat="43.99814" lon="5.13917">
        <ele>290.7</ele>
        <time>2013-02-18T13:54:38.000Z</time>
      </trkpt>
      <trkpt lat="43.99816" lon="5.13918">
        <ele>291.2</ele>
        <time>2013-02-18T13:54:39.000Z</time>
      </trkpt>
      <trkpt lat="43.99819" lon="5.13918">
        <ele>291.6</ele>
        <time>2013-02-18T13:54:40.000Z</time>
      </trkpt>
      <trkpt lat="43.99821" lon="5.13917">
        <ele>291.8</ele>
        <time>2013-02-18T13:54:41.000Z</time>
      </trkpt>
      <trkpt lat="43.99824" lon="5.13918">
        <ele>292.3</ele>
        <time>2013-02-18T13:54:42.000Z</time>
      </trkpt>
      <trkpt lat="43.99828" lon="5.13922">
        <ele>291.6</ele>
        <time>2013-02-18T13:54:43.000Z</time>
      </trkpt>
      <trkpt lat="43.9983" lon="5.13923">
        <ele>290.7</ele>
        <time>2013-02-18T13:54:44.000Z</time>
      </trkpt>
      <trkpt lat="43.99834" lon="5.13923">
        <ele>290.9</ele>
        <time>2013-02-18T13:54:45.000Z</time>
      </trkpt>
      <trkpt lat="43.99837" lon="5.13924">
        <ele>290.8</ele>
        <time>2013-02-18T13:54:46.000Z</time>
      </trkpt>
      <trkpt lat="43.9984" lon="5.13925">
        <ele>290.6</ele>
        <time>2013-02-18T13:54:47.000Z</time>
      </trkpt>
      <trkpt lat="43.99844" lon="5.13927">
        <ele>290.1</ele>
        <time>2013-02-18T13:54:49.000Z</time>
      </trkpt>
      <trkpt lat="43.99846" lon="5.13928">
        <ele>289.8</ele>
        <time>2013-02-18T13:54:50.000Z</time>
      </trkpt>
      <trkpt lat="43.99849" lon="5.1393">
        <ele>288.8</ele>
        <time>2013-02-18T13:54:51.000Z</time>
      </trkpt>
      <trkpt lat="43.99851" lon="5.13932">
        <ele>287.8</ele>
        <time>2013-02-18T13:54:52.000Z</time>
      </trkpt>
      <trkpt lat="43.99854" lon="5.13935">
        <ele>286.2</ele>
        <time>2013-02-18T13:54:53.000Z</time>
      </trkpt>
      <trkpt lat="43.99857" lon="5.13937">
        <ele>284.7</ele>
        <time>2013-02-18T13:54:54.000Z</time>
      </trkpt>
      <trkpt lat="43.99858" lon="5.13942">
        <ele>283.9</ele>
        <time>2013-02-18T13:55:28.000Z</time>
      </trkpt>
      <trkpt lat="43.99863" lon="5.13943">
        <ele>283.8</ele>
        <time>2013-02-18T13:55:29.000Z</time>
      </trkpt>
      <trkpt lat="43.99866" lon="5.13947">
        <ele>283.7</ele>
        <time>2013-02-18T13:55:31.000Z</time>
      </trkpt>
      <trkpt lat="43.99868" lon="5.13947">
        <ele>283.3</ele>
        <time>2013-02-18T13:55:32.000Z</time>
      </trkpt>
      <trkpt lat="43.9987" lon="5.13948">
        <ele>283.9</ele>
        <time>2013-02-18T13:55:33.000Z</time>
      </trkpt>
      <trkpt lat="43.99873" lon="5.13948">
        <ele>282.8</ele>
        <time>2013-02-18T13:55:34.000Z</time>
      </trkpt>
      <trkpt lat="43.99875" lon="5.13949">
        <ele>282.3</ele>
        <time>2013-02-18T13:55:35.000Z</time>
      </trkpt>
      <trkpt lat="43.99877" lon="5.1395">
        <ele>281.9</ele>
        <time>2013-02-18T13:55:36.000Z</time>
      </trkpt>
      <trkpt lat="43.99879" lon="5.13951">
        <ele>281.5</ele>
        <time>2013-02-18T13:55:37.000Z</time>
      </trkpt>
      <trkpt lat="43.99882" lon="5.1395">
        <ele>281</ele>
        <time>2013-02-18T13:55:38.000Z</time>
      </trkpt>
      <trkpt lat="43.99884" lon="5.1395">
        <ele>280</ele>
        <time>2013-02-18T13:55:39.000Z</time>
      </trkpt>
      <trkpt lat="43.99887" lon="5.13949">
        <ele>278.6</ele>
        <time>2013-02-18T13:55:40.000Z</time>
      </trkpt>
      <trkpt lat="43.99889" lon="5.13947">
        <ele>278.3</ele>
        <time>2013-02-18T13:55:41.000Z</time>
      </trkpt>
      <trkpt lat="43.99891" lon="5.13946">
        <ele>278.2</ele>
        <time>2013-02-18T13:55:42.000Z</time>
      </trkpt>
      <trkpt lat="43.99893" lon="5.13943">
        <ele>278.1</ele>
        <time>2013-02-18T13:55:43.000Z</time>
      </trkpt>
      <trkpt lat="43.99896" lon="5.13941">
        <ele>277.5</ele>
        <time>2013-02-18T13:55:44.000Z</time>
      </trkpt>
      <trkpt lat="43.99898" lon="5.13938">
        <ele>277.5</ele>
        <time>2013-02-18T13:55:45.000Z</time>
      </trkpt>
      <trkpt lat="43.999" lon="5.13936">
        <ele>277.4</ele>
        <time>2013-02-18T13:55:46.000Z</time>
      </trkpt>
      <trkpt lat="43.99902" lon="5.13933">
        <ele>277.5</ele>
        <time>2013-02-18T13:55:47.000Z</time>
      </trkpt>
      <trkpt lat="43.99902" lon="5.13928">
        <ele>277</ele>
        <time>2013-02-18T13:55:48.000Z</time>
      </trkpt>
      <trkpt lat="43.99904" lon="5.13925">
        <ele>276</ele>
        <time>2013-02-18T13:55:49.000Z</time>
      </trkpt>
      <trkpt lat="43.99906" lon="5.13923">
        <ele>276.1</ele>
        <time>2013-02-18T13:55:50.000Z</time>
      </trkpt>
      <trkpt lat="43.99908" lon="5.13919">
        <ele>275.6</ele>
        <time>2013-02-18T13:55:52.000Z</time>
      </trkpt>
      <trkpt lat="43.99909" lon="5.13917">
        <ele>275.7</ele>
        <time>2013-02-18T13:55:53.000Z</time>
      </trkpt>
      <trkpt lat="43.9991" lon="5.13914">
        <ele>274.7</ele>
        <time>2013-02-18T13:55:54.000Z</time>
      </trkpt>
      <trkpt lat="43.99912" lon="5.1391">
        <ele>274.1</ele>
        <time>2013-02-18T13:55:55.000Z</time>
      </trkpt>
      <trkpt lat="43.99913" lon="5.13907">
        <ele>273.8</ele>
        <time>2013-02-18T13:55:56.000Z</time>
      </trkpt>
      <trkpt lat="43.99915" lon="5.13905">
        <ele>273.6</ele>
        <time>2013-02-18T13:55:57.000Z</time>
      </trkpt>
      <trkpt lat="43.99918" lon="5.13904">
        <ele>273.4</ele>
        <time>2013-02-18T13:55:59.000Z</time>
      </trkpt>
      <trkpt lat="43.9992" lon="5.13905">
        <ele>273.1</ele>
        <time>2013-02-18T13:56:00.000Z</time>
      </trkpt>
      <trkpt lat="43.9992" lon="5.13909">
        <ele>272.2</ele>
        <time>2013-02-18T13:56:01.000Z</time>
      </trkpt>
      <trkpt lat="43.9992" lon="5.13913">
        <ele>271.3</ele>
        <time>2013-02-18T13:56:02.000Z</time>
      </trkpt>
      <trkpt lat="43.9992" lon="5.13916">
        <ele>270.5</ele>
        <time>2013-02-18T13:56:03.000Z</time>
      </trkpt>
      <trkpt lat="43.9992" lon="5.13919">
        <ele>270.2</ele>
        <time>2013-02-18T13:56:04.000Z</time>
      </trkpt>
      <trkpt lat="43.9992" lon="5.13922">
        <ele>270</ele>
        <time>2013-02-18T13:56:05.000Z</time>
      </trkpt>
      <trkpt lat="43.99921" lon="5.13926">
        <ele>270.6</ele>
        <time>2013-02-18T13:56:06.000Z</time>
      </trkpt>
      <trkpt lat="43.99921" lon="5.1393">
        <ele>270.6</ele>
        <time>2013-02-18T13:56:07.000Z</time>
      </trkpt>
      <trkpt lat="43.99921" lon="5.13933">
        <ele>270.5</ele>
        <time>2013-02-18T13:56:08.000Z</time>
      </trkpt>
      <trkpt lat="43.99921" lon="5.13937">
        <ele>268.3</ele>
        <time>2013-02-18T13:56:10.000Z</time>
      </trkpt>
      <trkpt lat="43.99922" lon="5.1394">
        <ele>268.2</ele>
        <time>2013-02-18T13:56:11.000Z</time>
      </trkpt>
      <trkpt lat="43.99923" lon="5.13944">
        <ele>267.5</ele>
        <time>2013-02-18T13:56:13.000Z</time>
      </trkpt>
      <trkpt lat="43.99923" lon="5.13946">
        <ele>267.3</ele>
        <time>2013-02-18T13:56:14.000Z</time>
      </trkpt>
      <trkpt lat="43.99923" lon="5.13952">
        <ele>265.7</ele>
        <time>2013-02-18T13:56:22.000Z</time>
      </trkpt>
      <trkpt lat="43.99923" lon="5.13953">
        <ele>265.3</ele>
        <time>2013-02-18T13:56:23.000Z</time>
      </trkpt>
      <trkpt lat="43.99922" lon="5.13959">
        <ele>266.9</ele>
        <time>2013-02-18T13:56:33.000Z</time>
      </trkpt>
      <trkpt lat="43.99921" lon="5.13963">
        <ele>267</ele>
        <time>2013-02-18T13:56:34.000Z</time>
      </trkpt>
      <trkpt lat="43.99921" lon="5.13968">
        <ele>266.8</ele>
        <time>2013-02-18T13:56:36.000Z</time>
      </trkpt>
      <trkpt lat="43.99921" lon="5.13971">
        <ele>267.3</ele>
        <time>2013-02-18T13:56:37.000Z</time>
      </trkpt>
      <trkpt lat="43.99922" lon="5.13975">
        <ele>265.8</ele>
        <time>2013-02-18T13:56:38.000Z</time>
      </trkpt>
      <trkpt lat="43.99922" lon="5.13979">
        <ele>265.7</ele>
        <time>2013-02-18T13:56:39.000Z</time>
      </trkpt>
      <trkpt lat="43.99925" lon="5.13984">
        <ele>264.5</ele>
        <time>2013-02-18T13:56:41.000Z</time>
      </trkpt>
      <trkpt lat="43.99926" lon="5.13987">
        <ele>263.4</ele>
        <time>2013-02-18T13:56:42.000Z</time>
      </trkpt>
      <trkpt lat="43.99928" lon="5.13989">
        <ele>262.6</ele>
        <time>2013-02-18T13:56:43.000Z</time>
      </trkpt>
      <trkpt lat="43.9993" lon="5.13991">
        <ele>261.7</ele>
        <time>2013-02-18T13:56:44.000Z</time>
      </trkpt>
      <trkpt lat="43.99931" lon="5.13992">
        <ele>261.1</ele>
        <time>2013-02-18T13:56:45.000Z</time>
      </trkpt>
      <trkpt lat="43.99935" lon="5.13993">
        <ele>260.5</ele>
        <time>2013-02-18T13:56:46.000Z</time>
      </trkpt>
      <trkpt lat="43.99938" lon="5.13993">
        <ele>260.1</ele>
        <time>2013-02-18T13:56:47.000Z</time>
      </trkpt>
      <trkpt lat="43.9994" lon="5.13994">
        <ele>260.2</ele>
        <time>2013-02-18T13:56:48.000Z</time>
      </trkpt>
      <trkpt lat="43.99944" lon="5.13996">
        <ele>259.1</ele>
        <time>2013-02-18T13:56:58.000Z</time>
      </trkpt>
      <trkpt lat="43.99945" lon="5.13995">
        <ele>259.1</ele>
        <time>2013-02-18T13:56:59.000Z</time>
      </trkpt>
      <trkpt lat="43.99946" lon="5.13996">
        <ele>259</ele>
        <time>2013-02-18T13:57:00.000Z</time>
      </trkpt>
      <trkpt lat="43.99953" lon="5.13998">
        <ele>257.7</ele>
        <time>2013-02-18T13:57:01.000Z</time>
      </trkpt>
      <trkpt lat="43.99954" lon="5.14004">
        <ele>257.4</ele>
        <time>2013-02-18T13:57:02.000Z</time>
      </trkpt>
      <trkpt lat="43.99954" lon="5.1401">
        <ele>254.4</ele>
        <time>2013-02-18T13:57:03.000Z</time>
      </trkpt>
      <trkpt lat="43.99958" lon="5.14015">
        <ele>255</ele>
        <time>2013-02-18T13:57:04.000Z</time>
      </trkpt>
      <trkpt lat="43.99961" lon="5.14019">
        <ele>256.5</ele>
        <time>2013-02-18T13:57:05.000Z</time>
      </trkpt>
      <trkpt lat="43.99963" lon="5.1402">
        <ele>256.5</ele>
        <time>2013-02-18T13:57:06.000Z</time>
      </trkpt>
      <trkpt lat="43.99966" lon="5.14021">
        <ele>258.3</ele>
        <time>2013-02-18T13:57:07.000Z</time>
      </trkpt>
      <trkpt lat="43.99967" lon="5.14024">
        <ele>259.2</ele>
        <time>2013-02-18T13:57:08.000Z</time>
      </trkpt>
      <trkpt lat="43.9997" lon="5.14028">
        <ele>259.9</ele>
        <time>2013-02-18T13:57:10.000Z</time>
      </trkpt>
      <trkpt lat="43.99972" lon="5.14032">
        <ele>260.1</ele>
        <time>2013-02-18T13:57:11.000Z</time>
      </trkpt>
      <trkpt lat="43.99972" lon="5.14036">
        <ele>260.4</ele>
        <time>2013-02-18T13:57:12.000Z</time>
      </trkpt>
      <trkpt lat="43.99973" lon="5.14039">
        <ele>260.1</ele>
        <time>2013-02-18T13:57:13.000Z</time>
      </trkpt>
      <trkpt lat="43.99966" lon="5.14041">
        <ele>260.8</ele>
        <time>2013-02-18T13:57:14.000Z</time>
      </trkpt>
      <trkpt lat="43.99963" lon="5.14044">
        <ele>259.6</ele>
        <time>2013-02-18T13:57:35.000Z</time>
      </trkpt>
      <trkpt lat="43.99959" lon="5.14043">
        <ele>258.8</ele>
        <time>2013-02-18T13:57:36.000Z</time>
      </trkpt>
      <trkpt lat="43.99956" lon="5.14042">
        <ele>258</ele>
        <time>2013-02-18T13:57:38.000Z</time>
      </trkpt>
      <trkpt lat="43.99954" lon="5.14041">
        <ele>257.3</ele>
        <time>2013-02-18T13:57:39.000Z</time>
      </trkpt>
      <trkpt lat="43.99952" lon="5.14039">
        <ele>255.9</ele>
        <time>2013-02-18T13:57:40.000Z</time>
      </trkpt>
      <trkpt lat="43.9995" lon="5.14037">
        <ele>255.2</ele>
        <time>2013-02-18T13:57:41.000Z</time>
      </trkpt>
      <trkpt lat="43.99947" lon="5.14036">
        <ele>255</ele>
        <time>2013-02-18T13:57:43.000Z</time>
      </trkpt>
      <trkpt lat="43.99945" lon="5.14036">
        <ele>255</ele>
        <time>2013-02-18T13:57:44.000Z</time>
      </trkpt>
      <trkpt lat="43.99942" lon="5.14032">
        <ele>252</ele>
        <time>2013-02-18T13:57:46.000Z</time>
      </trkpt>
      <trkpt lat="43.9994" lon="5.14031">
        <ele>250.8</ele>
        <time>2013-02-18T13:57:47.000Z</time>
      </trkpt>
      <trkpt lat="43.99936" lon="5.14029">
        <ele>250</ele>
        <time>2013-02-18T13:57:49.000Z</time>
      </trkpt>
      <trkpt lat="43.99934" lon="5.14031">
        <ele>250.8</ele>
        <time>2013-02-18T13:57:50.000Z</time>
      </trkpt>
      <trkpt lat="43.99928" lon="5.14036">
        <ele>249.3</ele>
        <time>2013-02-18T13:57:51.000Z</time>
      </trkpt>
      <trkpt lat="43.99924" lon="5.14037">
        <ele>248.9</ele>
        <time>2013-02-18T13:57:52.000Z</time>
      </trkpt>
      <trkpt lat="43.9992" lon="5.14039">
        <ele>248.2</ele>
        <time>2013-02-18T13:57:53.000Z</time>
      </trkpt>
      <trkpt lat="43.99917" lon="5.14039">
        <ele>247.3</ele>
        <time>2013-02-18T13:57:54.000Z</time>
      </trkpt>
      <trkpt lat="43.99914" lon="5.1404">
        <ele>247.3</ele>
        <time>2013-02-18T13:57:55.000Z</time>
      </trkpt>
      <trkpt lat="43.9991" lon="5.14041">
        <ele>247.1</ele>
        <time>2013-02-18T13:57:56.000Z</time>
      </trkpt>
      <trkpt lat="43.99908" lon="5.14042">
        <ele>246.1</ele>
        <time>2013-02-18T13:57:57.000Z</time>
      </trkpt>
      <trkpt lat="43.99905" lon="5.14041">
        <ele>246.2</ele>
        <time>2013-02-18T13:57:58.000Z</time>
      </trkpt>
      <trkpt lat="43.99902" lon="5.14042">
        <ele>245.2</ele>
        <time>2013-02-18T13:57:59.000Z</time>
      </trkpt>
      <trkpt lat="43.99899" lon="5.14046">
        <ele>245.7</ele>
        <time>2013-02-18T13:58:00.000Z</time>
      </trkpt>
      <trkpt lat="43.99896" lon="5.14048">
        <ele>245</ele>
        <time>2013-02-18T13:58:01.000Z</time>
      </trkpt>
      <trkpt lat="43.99894" lon="5.14049">
        <ele>244.3</ele>
        <time>2013-02-18T13:58:02.000Z</time>
      </trkpt>
      <trkpt lat="43.9989" lon="5.1405">
        <ele>244.6</ele>
        <time>2013-02-18T13:58:03.000Z</time>
      </trkpt>
      <trkpt lat="43.99887" lon="5.14051">
        <ele>243.9</ele>
        <time>2013-02-18T13:58:04.000Z</time>
      </trkpt>
      <trkpt lat="43.99885" lon="5.14051">
        <ele>243.7</ele>
        <time>2013-02-18T13:58:05.000Z</time>
      </trkpt>
      <trkpt lat="43.99882" lon="5.14053">
        <ele>243.6</ele>
        <time>2013-02-18T13:58:06.000Z</time>
      </trkpt>
      <trkpt lat="43.9988" lon="5.14055">
        <ele>243</ele>
        <time>2013-02-18T13:58:07.000Z</time>
      </trkpt>
      <trkpt lat="43.99878" lon="5.14058">
        <ele>243.3</ele>
        <time>2013-02-18T13:58:08.000Z</time>
      </trkpt>
      <trkpt lat="43.99876" lon="5.14062">
        <ele>242.9</ele>
        <time>2013-02-18T13:58:09.000Z</time>
      </trkpt>
      <trkpt lat="43.99873" lon="5.14064">
        <ele>242.4</ele>
        <time>2013-02-18T13:58:10.000Z</time>
      </trkpt>
      <trkpt lat="43.9987" lon="5.14065">
        <ele>241.8</ele>
        <time>2013-02-18T13:58:11.000Z</time>
      </trkpt>
      <trkpt lat="43.99867" lon="5.14068">
        <ele>241</ele>
        <time>2013-02-18T13:58:12.000Z</time>
      </trkpt>
      <trkpt lat="43.99863" lon="5.14071">
        <ele>240.3</ele>
        <time>2013-02-18T13:58:13.000Z</time>
      </trkpt>
      <trkpt lat="43.99859" lon="5.14074">
        <ele>239.7</ele>
        <time>2013-02-18T13:58:14.000Z</time>
      </trkpt>
      <trkpt lat="43.99857" lon="5.14077">
        <ele>239.3</ele>
        <time>2013-02-18T13:58:15.000Z</time>
      </trkpt>
      <trkpt lat="43.99854" lon="5.14079">
        <ele>238.8</ele>
        <time>2013-02-18T13:58:16.000Z</time>
      </trkpt>
      <trkpt lat="43.99852" lon="5.14082">
        <ele>238.3</ele>
        <time>2013-02-18T13:58:17.000Z</time>
      </trkpt>
      <trkpt lat="43.99849" lon="5.14081">
        <ele>238.2</ele>
        <time>2013-02-18T13:58:18.000Z</time>
      </trkpt>
      <trkpt lat="43.99846" lon="5.14082">
        <ele>237.9</ele>
        <time>2013-02-18T13:58:19.000Z</time>
      </trkpt>
      <trkpt lat="43.99843" lon="5.14081">
        <ele>238.2</ele>
        <time>2013-02-18T13:58:20.000Z</time>
      </trkpt>
      <trkpt lat="43.99841" lon="5.1408">
        <ele>238.5</ele>
        <time>2013-02-18T13:58:21.000Z</time>
      </trkpt>
      <trkpt lat="43.99839" lon="5.14079">
        <ele>238.9</ele>
        <time>2013-02-18T13:58:22.000Z</time>
      </trkpt>
      <trkpt lat="43.99835" lon="5.14076">
        <ele>240.3</ele>
        <time>2013-02-18T13:59:17.000Z</time>
      </trkpt>
      <trkpt lat="43.99833" lon="5.14075">
        <ele>240.2</ele>
        <time>2013-02-18T13:59:18.000Z</time>
      </trkpt>
      <trkpt lat="43.99831" lon="5.14074">
        <ele>239.9</ele>
        <time>2013-02-18T13:59:19.000Z</time>
      </trkpt>
      <trkpt lat="43.99829" lon="5.14073">
        <ele>240.2</ele>
        <time>2013-02-18T13:59:20.000Z</time>
      </trkpt>
      <trkpt lat="43.99826" lon="5.14072">
        <ele>240</ele>
        <time>2013-02-18T13:59:21.000Z</time>
      </trkpt>
      <trkpt lat="43.99823" lon="5.14071">
        <ele>240.4</ele>
        <time>2013-02-18T13:59:22.000Z</time>
      </trkpt>
      <trkpt lat="43.9982" lon="5.1407">
        <ele>240.2</ele>
        <time>2013-02-18T13:59:23.000Z</time>
      </trkpt>
      <trkpt lat="43.99818" lon="5.14069">
        <ele>240.1</ele>
        <time>2013-02-18T13:59:24.000Z</time>
      </trkpt>
      <trkpt lat="43.99815" lon="5.14068">
        <ele>240.5</ele>
        <time>2013-02-18T13:59:25.000Z</time>
      </trkpt>
      <trkpt lat="43.99813" lon="5.14069">
        <ele>241.2</ele>
        <time>2013-02-18T13:59:26.000Z</time>
      </trkpt>
      <trkpt lat="43.9981" lon="5.14068">
        <ele>242</ele>
        <time>2013-02-18T13:59:27.000Z</time>
      </trkpt>
      <trkpt lat="43.99805" lon="5.14066">
        <ele>240.9</ele>
        <time>2013-02-18T13:59:28.000Z</time>
      </trkpt>
      <trkpt lat="43.99802" lon="5.14066">
        <ele>241.1</ele>
        <time>2013-02-18T13:59:29.000Z</time>
      </trkpt>
      <trkpt lat="43.99798" lon="5.14065">
        <ele>241</ele>
        <time>2013-02-18T13:59:30.000Z</time>
      </trkpt>
      <trkpt lat="43.99795" lon="5.14065">
        <ele>241.1</ele>
        <time>2013-02-18T13:59:31.000Z</time>
      </trkpt>
      <trkpt lat="43.99792" lon="5.14065">
        <ele>241.4</ele>
        <time>2013-02-18T13:59:32.000Z</time>
      </trkpt>
      <trkpt lat="43.99788" lon="5.14065">
        <ele>241.4</ele>
        <time>2013-02-18T13:59:33.000Z</time>
      </trkpt>
      <trkpt lat="43.99784" lon="5.14069">
        <ele>241.1</ele>
        <time>2013-02-18T13:59:34.000Z</time>
      </trkpt>
      <trkpt lat="43.9978" lon="5.14069">
        <ele>241</ele>
        <time>2013-02-18T13:59:35.000Z</time>
      </trkpt>
      <trkpt lat="43.99777" lon="5.14071">
        <ele>241.1</ele>
        <time>2013-02-18T13:59:36.000Z</time>
      </trkpt>
      <trkpt lat="43.99774" lon="5.14073">
        <ele>241.4</ele>
        <time>2013-02-18T13:59:37.000Z</time>
      </trkpt>
      <trkpt lat="43.99771" lon="5.14075">
        <ele>241.3</ele>
        <time>2013-02-18T13:59:38.000Z</time>
      </trkpt>
      <trkpt lat="43.99769" lon="5.14078">
        <ele>241.3</ele>
        <time>2013-02-18T13:59:39.000Z</time>
      </trkpt>
      <trkpt lat="43.99766" lon="5.14081">
        <ele>241.3</ele>
        <time>2013-02-18T13:59:40.000Z</time>
      </trkpt>
      <trkpt lat="43.99763" lon="5.14084">
        <ele>241.2</ele>
        <time>2013-02-18T13:59:41.000Z</time>
      </trkpt>
      <trkpt lat="43.99767" lon="5.14087">
        <ele>242.3</ele>
        <time>2013-02-18T13:59:42.000Z</time>
      </trkpt>
      <trkpt lat="43.99767" lon="5.1409">
        <ele>242.6</ele>
        <time>2013-02-18T13:59:43.000Z</time>
      </trkpt>
      <trkpt lat="43.99765" lon="5.14093">
        <ele>242.6</ele>
        <time>2013-02-18T13:59:44.000Z</time>
      </trkpt>
      <trkpt lat="43.99764" lon="5.14098">
        <ele>242.9</ele>
        <time>2013-02-18T13:59:46.000Z</time>
      </trkpt>
      <trkpt lat="43.99763" lon="5.14101">
        <ele>243.6</ele>
        <time>2013-02-18T13:59:47.000Z</time>
      </trkpt>
      <trkpt lat="43.99762" lon="5.14106">
        <ele>244.3</ele>
        <time>2013-02-18T13:59:49.000Z</time>
      </trkpt>
      <trkpt lat="43.99761" lon="5.14109">
        <ele>244.4</ele>
        <time>2013-02-18T13:59:50.000Z</time>
      </trkpt>
      <trkpt lat="43.99759" lon="5.14114">
        <ele>244.8</ele>
        <time>2013-02-18T13:59:53.000Z</time>
      </trkpt>
      <trkpt lat="43.99759" lon="5.14117">
        <ele>245</ele>
        <time>2013-02-18T13:59:54.000Z</time>
      </trkpt>
      <trkpt lat="43.99758" lon="5.1412">
        <ele>245.2</ele>
        <time>2013-02-18T13:59:56.000Z</time>
      </trkpt>
      <trkpt lat="43.99757" lon="5.14123">
        <ele>245.2</ele>
        <time>2013-02-18T13:59:57.000Z</time>
      </trkpt>
      <trkpt lat="43.99756" lon="5.14127">
        <ele>246</ele>
        <time>2013-02-18T13:59:59.000Z</time>
      </trkpt>
      <trkpt lat="43.99756" lon="5.14129">
        <ele>246.4</ele>
        <time>2013-02-18T14:00:00.000Z</time>
      </trkpt>
      <trkpt lat="43.99755" lon="5.14133">
        <ele>247</ele>
        <time>2013-02-18T14:00:02.000Z</time>
      </trkpt>
      <trkpt lat="43.99754" lon="5.14135">
        <ele>247.4</ele>
        <time>2013-02-18T14:00:03.000Z</time>
      </trkpt>
      <trkpt lat="43.99753" lon="5.14139">
        <ele>248</ele>
        <time>2013-02-18T14:00:05.000Z</time>
      </trkpt>
      <trkpt lat="43.99753" lon="5.14141">
        <ele>248.1</ele>
        <time>2013-02-18T14:00:06.000Z</time>
      </trkpt>
      <trkpt lat="43.99752" lon="5.14145">
        <ele>248.5</ele>
        <time>2013-02-18T14:00:08.000Z</time>
      </trkpt>
      <trkpt lat="43.99751" lon="5.14147">
        <ele>248.5</ele>
        <time>2013-02-18T14:00:09.000Z</time>
      </trkpt>
      <trkpt lat="43.9975" lon="5.14152">
        <ele>248.8</ele>
        <time>2013-02-18T14:00:11.000Z</time>
      </trkpt>
      <trkpt lat="43.99749" lon="5.14154">
        <ele>248.8</ele>
        <time>2013-02-18T14:00:12.000Z</time>
      </trkpt>
      <trkpt lat="43.99749" lon="5.14159">
        <ele>248.8</ele>
        <time>2013-02-18T14:00:14.000Z</time>
      </trkpt>
      <trkpt lat="43.99749" lon="5.14161">
        <ele>248.4</ele>
        <time>2013-02-18T14:00:15.000Z</time>
      </trkpt>
      <trkpt lat="43.99751" lon="5.14165">
        <ele>247.7</ele>
        <time>2013-02-18T14:00:17.000Z</time>
      </trkpt>
      <trkpt lat="43.99752" lon="5.14167">
        <ele>247.2</ele>
        <time>2013-02-18T14:00:18.000Z</time>
      </trkpt>
      <trkpt lat="43.99755" lon="5.14169">
        <ele>246.7</ele>
        <time>2013-02-18T14:00:20.000Z</time>
      </trkpt>
      <trkpt lat="43.99757" lon="5.1417">
        <ele>246.1</ele>
        <time>2013-02-18T14:00:21.000Z</time>
      </trkpt>
      <trkpt lat="43.99759" lon="5.14171">
        <ele>246.2</ele>
        <time>2013-02-18T14:00:22.000Z</time>
      </trkpt>
      <trkpt lat="43.99761" lon="5.14172">
        <ele>245.7</ele>
        <time>2013-02-18T14:00:23.000Z</time>
      </trkpt>
      <trkpt lat="43.99763" lon="5.14173">
        <ele>245.4</ele>
        <time>2013-02-18T14:00:24.000Z</time>
      </trkpt>
      <trkpt lat="43.99766" lon="5.14174">
        <ele>245</ele>
        <time>2013-02-18T14:00:25.000Z</time>
      </trkpt>
      <trkpt lat="43.99769" lon="5.14175">
        <ele>245</ele>
        <time>2013-02-18T14:00:26.000Z</time>
      </trkpt>
      <trkpt lat="43.99772" lon="5.14177">
        <ele>244.8</ele>
        <time>2013-02-18T14:00:27.000Z</time>
      </trkpt>
      <trkpt lat="43.99775" lon="5.14178">
        <ele>244.3</ele>
        <time>2013-02-18T14:00:28.000Z</time>
      </trkpt>
      <trkpt lat="43.99777" lon="5.14181">
        <ele>243.7</ele>
        <time>2013-02-18T14:00:29.000Z</time>
      </trkpt>
      <trkpt lat="43.9978" lon="5.14183">
        <ele>243.7</ele>
        <time>2013-02-18T14:00:30.000Z</time>
      </trkpt>
      <trkpt lat="43.99782" lon="5.14187">
        <ele>243.4</ele>
        <time>2013-02-18T14:00:31.000Z</time>
      </trkpt>
      <trkpt lat="43.99784" lon="5.14191">
        <ele>243.4</ele>
        <time>2013-02-18T14:00:32.000Z</time>
      </trkpt>
      <trkpt lat="43.99786" lon="5.14195">
        <ele>243.5</ele>
        <time>2013-02-18T14:00:33.000Z</time>
      </trkpt>
      <trkpt lat="43.99786" lon="5.14198">
        <ele>243.6</ele>
        <time>2013-02-18T14:00:34.000Z</time>
      </trkpt>
      <trkpt lat="43.99787" lon="5.14201">
        <ele>243.7</ele>
        <time>2013-02-18T14:00:35.000Z</time>
      </trkpt>
      <trkpt lat="43.99787" lon="5.14204">
        <ele>243.9</ele>
        <time>2013-02-18T14:00:36.000Z</time>
      </trkpt>
      <trkpt lat="43.99787" lon="5.14207">
        <ele>244.5</ele>
        <time>2013-02-18T14:00:37.000Z</time>
      </trkpt>
      <trkpt lat="43.99788" lon="5.14211">
        <ele>244.8</ele>
        <time>2013-02-18T14:00:38.000Z</time>
      </trkpt>
      <trkpt lat="43.99789" lon="5.14213">
        <ele>245.1</ele>
        <time>2013-02-18T14:00:39.000Z</time>
      </trkpt>
      <trkpt lat="43.9979" lon="5.14216">
        <ele>245.4</ele>
        <time>2013-02-18T14:00:40.000Z</time>
      </trkpt>
      <trkpt lat="43.99791" lon="5.14219">
        <ele>245.6</ele>
        <time>2013-02-18T14:00:41.000Z</time>
      </trkpt>
      <trkpt lat="43.99794" lon="5.14223">
        <ele>245.8</ele>
        <time>2013-02-18T14:00:43.000Z</time>
      </trkpt>
      <trkpt lat="43.99795" lon="5.14225">
        <ele>246</ele>
        <time>2013-02-18T14:00:44.000Z</time>
      </trkpt>
      <trkpt lat="43.99799" lon="5.14228">
        <ele>246.3</ele>
        <time>2013-02-18T14:00:46.000Z</time>
      </trkpt>
      <trkpt lat="43.998" lon="5.14229">
        <ele>246.3</ele>
        <time>2013-02-18T14:00:47.000Z</time>
      </trkpt>
      <trkpt lat="43.99804" lon="5.14231">
        <ele>246.3</ele>
        <time>2013-02-18T14:00:49.000Z</time>
      </trkpt>
      <trkpt lat="43.99806" lon="5.14232">
        <ele>246.3</ele>
        <time>2013-02-18T14:00:50.000Z</time>
      </trkpt>
      <trkpt lat="43.9981" lon="5.14234">
        <ele>246</ele>
        <time>2013-02-18T14:00:52.000Z</time>
      </trkpt>
      <trkpt lat="43.99811" lon="5.14235">
        <ele>246</ele>
        <time>2013-02-18T14:00:53.000Z</time>
      </trkpt>
      <trkpt lat="43.99814" lon="5.14236">
        <ele>246.1</ele>
        <time>2013-02-18T14:00:55.000Z</time>
      </trkpt>
      <trkpt lat="43.99816" lon="5.14237">
        <ele>246.1</ele>
        <time>2013-02-18T14:00:56.000Z</time>
      </trkpt>
      <trkpt lat="43.9982" lon="5.14238">
        <ele>247.3</ele>
        <time>2013-02-18T14:02:57.000Z</time>
      </trkpt>
      <trkpt lat="43.99821" lon="5.14239">
        <ele>247.8</ele>
        <time>2013-02-18T14:02:58.000Z</time>
      </trkpt>
      <trkpt lat="43.9982" lon="5.14244">
        <ele>247.2</ele>
        <time>2013-02-18T14:03:01.000Z</time>
      </trkpt>
      <trkpt lat="43.9982" lon="5.14246">
        <ele>247.3</ele>
        <time>2013-02-18T14:03:02.000Z</time>
      </trkpt>
      <trkpt lat="43.99817" lon="5.14248">
        <ele>247.4</ele>
        <time>2013-02-18T14:03:04.000Z</time>
      </trkpt>
      <trkpt lat="43.99816" lon="5.1425">
        <ele>247.2</ele>
        <time>2013-02-18T14:03:05.000Z</time>
      </trkpt>
      <trkpt lat="43.99815" lon="5.14256">
        <ele>247</ele>
        <time>2013-02-18T14:03:07.000Z</time>
      </trkpt>
      <trkpt lat="43.99814" lon="5.14259">
        <ele>246.9</ele>
        <time>2013-02-18T14:03:08.000Z</time>
      </trkpt>
      <trkpt lat="43.99818" lon="5.14258">
        <ele>248.1</ele>
        <time>2013-02-18T14:03:09.000Z</time>
      </trkpt>
      <trkpt lat="43.99819" lon="5.1426">
        <ele>248.4</ele>
        <time>2013-02-18T14:03:10.000Z</time>
      </trkpt>
      <trkpt lat="43.99823" lon="5.14264">
        <ele>249.3</ele>
        <time>2013-02-18T14:03:13.000Z</time>
      </trkpt>
      <trkpt lat="43.99823" lon="5.14266">
        <ele>249.7</ele>
        <time>2013-02-18T14:03:14.000Z</time>
      </trkpt>
      <trkpt lat="43.99825" lon="5.1427">
        <ele>250</ele>
        <time>2013-02-18T14:03:16.000Z</time>
      </trkpt>
      <trkpt lat="43.99826" lon="5.14272">
        <ele>249.9</ele>
        <time>2013-02-18T14:03:17.000Z</time>
      </trkpt>
      <trkpt lat="43.99828" lon="5.14276">
        <ele>250</ele>
        <time>2013-02-18T14:03:19.000Z</time>
      </trkpt>
      <trkpt lat="43.99829" lon="5.14278">
        <ele>250.1</ele>
        <time>2013-02-18T14:03:20.000Z</time>
      </trkpt>
      <trkpt lat="43.99832" lon="5.14281">
        <ele>251</ele>
        <time>2013-02-18T14:03:22.000Z</time>
      </trkpt>
      <trkpt lat="43.99834" lon="5.14283">
        <ele>251</ele>
        <time>2013-02-18T14:03:23.000Z</time>
      </trkpt>
      <trkpt lat="43.99836" lon="5.14286">
        <ele>250.9</ele>
        <time>2013-02-18T14:03:25.000Z</time>
      </trkpt>
      <trkpt lat="43.99838" lon="5.14287">
        <ele>251</ele>
        <time>2013-02-18T14:03:26.000Z</time>
      </trkpt>
      <trkpt lat="43.9984" lon="5.1429">
        <ele>251.2</ele>
        <time>2013-02-18T14:03:28.000Z</time>
      </trkpt>
      <trkpt lat="43.99842" lon="5.14292">
        <ele>251.1</ele>
        <time>2013-02-18T14:03:29.000Z</time>
      </trkpt>
      <trkpt lat="43.99844" lon="5.14294">
        <ele>251.1</ele>
        <time>2013-02-18T14:03:31.000Z</time>
      </trkpt>
      <trkpt lat="43.99845" lon="5.14295">
        <ele>251.1</ele>
        <time>2013-02-18T14:03:32.000Z</time>
      </trkpt>
      <trkpt lat="43.99848" lon="5.14299">
        <ele>251.4</ele>
        <time>2013-02-18T14:03:35.000Z</time>
      </trkpt>
      <trkpt lat="43.99849" lon="5.14301">
        <ele>251.8</ele>
        <time>2013-02-18T14:03:36.000Z</time>
      </trkpt>
      <trkpt lat="43.99852" lon="5.14304">
        <ele>252</ele>
        <time>2013-02-18T14:03:38.000Z</time>
      </trkpt>
      <trkpt lat="43.99853" lon="5.14305">
        <ele>251.8</ele>
        <time>2013-02-18T14:03:39.000Z</time>
      </trkpt>
      <trkpt lat="43.99856" lon="5.14308">
        <ele>252.6</ele>
        <time>2013-02-18T14:03:42.000Z</time>
      </trkpt>
      <trkpt lat="43.99857" lon="5.1431">
        <ele>252.5</ele>
        <time>2013-02-18T14:03:43.000Z</time>
      </trkpt>
      <trkpt lat="43.99859" lon="5.14313">
        <ele>252.5</ele>
        <time>2013-02-18T14:03:45.000Z</time>
      </trkpt>
      <trkpt lat="43.9986" lon="5.14314">
        <ele>252.9</ele>
        <time>2013-02-18T14:03:46.000Z</time>
      </trkpt>
      <trkpt lat="43.99863" lon="5.14317">
        <ele>253.6</ele>
        <time>2013-02-18T14:03:48.000Z</time>
      </trkpt>
      <trkpt lat="43.99864" lon="5.14319">
        <ele>253.9</ele>
        <time>2013-02-18T14:03:49.000Z</time>
      </trkpt>
      <trkpt lat="43.99867" lon="5.14323">
        <ele>253.9</ele>
        <time>2013-02-18T14:03:52.000Z</time>
      </trkpt>
      <trkpt lat="43.99867" lon="5.14324">
        <ele>254.1</ele>
        <time>2013-02-18T14:03:53.000Z</time>
      </trkpt>
      <trkpt lat="43.99869" lon="5.14328">
        <ele>253.8</ele>
        <time>2013-02-18T14:03:55.000Z</time>
      </trkpt>
      <trkpt lat="43.9987" lon="5.1433">
        <ele>253.4</ele>
        <time>2013-02-18T14:03:56.000Z</time>
      </trkpt>
      <trkpt lat="43.99872" lon="5.14335">
        <ele>254.2</ele>
        <time>2013-02-18T14:03:59.000Z</time>
      </trkpt>
      <trkpt lat="43.99873" lon="5.14336">
        <ele>254.4</ele>
        <time>2013-02-18T14:04:00.000Z</time>
      </trkpt>
      <trkpt lat="43.99876" lon="5.14341">
        <ele>254.9</ele>
        <time>2013-02-18T14:04:03.000Z</time>
      </trkpt>
      <trkpt lat="43.99877" lon="5.14342">
        <ele>255.2</ele>
        <time>2013-02-18T14:04:04.000Z</time>
      </trkpt>
      <trkpt lat="43.9988" lon="5.14345">
        <ele>255.7</ele>
        <time>2013-02-18T14:04:07.000Z</time>
      </trkpt>
      <trkpt lat="43.9988" lon="5.14348">
        <ele>255.3</ele>
        <time>2013-02-18T14:04:08.000Z</time>
      </trkpt>
      <trkpt lat="43.99882" lon="5.14352">
        <ele>254.7</ele>
        <time>2013-02-18T14:04:10.000Z</time>
      </trkpt>
      <trkpt lat="43.99883" lon="5.14353">
        <ele>255.6</ele>
        <time>2013-02-18T14:04:11.000Z</time>
      </trkpt>
      <trkpt lat="43.99886" lon="5.14358">
        <ele>256.2</ele>
        <time>2013-02-18T14:04:14.000Z</time>
      </trkpt>
      <trkpt lat="43.99887" lon="5.14359">
        <ele>256.1</ele>
        <time>2013-02-18T14:04:15.000Z</time>
      </trkpt>
      <trkpt lat="43.99889" lon="5.14364">
        <ele>257.9</ele>
        <time>2013-02-18T14:04:19.000Z</time>
      </trkpt>
      <trkpt lat="43.99889" lon="5.14365">
        <ele>258.1</ele>
        <time>2013-02-18T14:04:20.000Z</time>
      </trkpt>
      <trkpt lat="43.99891" lon="5.1437">
        <ele>259.5</ele>
        <time>2013-02-18T14:04:26.000Z</time>
      </trkpt>
      <trkpt lat="43.99892" lon="5.14371">
        <ele>259.5</ele>
        <time>2013-02-18T14:04:27.000Z</time>
      </trkpt>
      <trkpt lat="43.99891" lon="5.14377">
        <ele>260.7</ele>
        <time>2013-02-18T14:04:31.000Z</time>
      </trkpt>
      <trkpt lat="43.99891" lon="5.14378">
        <ele>261.2</ele>
        <time>2013-02-18T14:04:32.000Z</time>
      </trkpt>
      <trkpt lat="43.99891" lon="5.14383">
        <ele>261.6</ele>
        <time>2013-02-18T14:04:36.000Z</time>
      </trkpt>
      <trkpt lat="43.99891" lon="5.14384">
        <ele>262.6</ele>
        <time>2013-02-18T14:04:37.000Z</time>
      </trkpt>
      <trkpt lat="43.99891" lon="5.1439">
        <ele>265.6</ele>
        <time>2013-02-18T14:04:43.000Z</time>
      </trkpt>
      <trkpt lat="43.99891" lon="5.14391">
        <ele>265.9</ele>
        <time>2013-02-18T14:04:44.000Z</time>
      </trkpt>
      <trkpt lat="43.99893" lon="5.14397">
        <ele>267</ele>
        <time>2013-02-18T14:04:50.000Z</time>
      </trkpt>
      <trkpt lat="43.99892" lon="5.14398">
        <ele>267.3</ele>
        <time>2013-02-18T14:04:51.000Z</time>
      </trkpt>
      <trkpt lat="43.99893" lon="5.14404">
        <ele>268.2</ele>
        <time>2013-02-18T14:04:56.000Z</time>
      </trkpt>
      <trkpt lat="43.99893" lon="5.14405">
        <ele>269.3</ele>
        <time>2013-02-18T14:04:57.000Z</time>
      </trkpt>
      <trkpt lat="43.99892" lon="5.1441">
        <ele>271.2</ele>
        <time>2013-02-18T14:05:03.000Z</time>
      </trkpt>
      <trkpt lat="43.99893" lon="5.14412">
        <ele>271.5</ele>
        <time>2013-02-18T14:05:04.000Z</time>
      </trkpt>
      <trkpt lat="43.99891" lon="5.14417">
        <ele>270.7</ele>
        <time>2013-02-18T14:05:10.000Z</time>
      </trkpt>
      <trkpt lat="43.99891" lon="5.14418">
        <ele>270.8</ele>
        <time>2013-02-18T14:05:11.000Z</time>
      </trkpt>
      <trkpt lat="43.99891" lon="5.14423">
        <ele>272.6</ele>
        <time>2013-02-18T14:05:16.000Z</time>
      </trkpt>
      <trkpt lat="43.99891" lon="5.14425">
        <ele>273</ele>
        <time>2013-02-18T14:05:17.000Z</time>
      </trkpt>
      <trkpt lat="43.99889" lon="5.1443">
        <ele>272.8</ele>
        <time>2013-02-18T14:05:25.000Z</time>
      </trkpt>
      <trkpt lat="43.99889" lon="5.1443">
        <ele>272.9</ele>
        <time>2013-02-18T14:05:26.000Z</time>
      </trkpt>
      <trkpt lat="43.99886" lon="5.14435">
        <ele>273.6</ele>
        <time>2013-02-18T14:05:31.000Z</time>
      </trkpt>
      <trkpt lat="43.99886" lon="5.14436">
        <ele>274</ele>
        <time>2013-02-18T14:05:32.000Z</time>
      </trkpt>
      <trkpt lat="43.99884" lon="5.1444">
        <ele>274.4</ele>
        <time>2013-02-18T14:05:36.000Z</time>
      </trkpt>
      <trkpt lat="43.99883" lon="5.14441">
        <ele>274.7</ele>
        <time>2013-02-18T14:05:37.000Z</time>
      </trkpt>
      <trkpt lat="43.99881" lon="5.14446">
        <ele>276.4</ele>
        <time>2013-02-18T14:05:44.000Z</time>
      </trkpt>
      <trkpt lat="43.99881" lon="5.14448">
        <ele>276.7</ele>
        <time>2013-02-18T14:05:45.000Z</time>
      </trkpt>
      <trkpt lat="43.99877" lon="5.14451">
        <ele>278.3</ele>
        <time>2013-02-18T14:05:52.000Z</time>
      </trkpt>
      <trkpt lat="43.99877" lon="5.14451">
        <ele>278.5</ele>
        <time>2013-02-18T14:05:53.000Z</time>
      </trkpt>
      <trkpt lat="43.99874" lon="5.14455">
        <ele>280.3</ele>
        <time>2013-02-18T14:05:59.000Z</time>
      </trkpt>
      <trkpt lat="43.99874" lon="5.14456">
        <ele>280.9</ele>
        <time>2013-02-18T14:06:00.000Z</time>
      </trkpt>
      <trkpt lat="43.9987" lon="5.14459">
        <ele>281.7</ele>
        <time>2013-02-18T14:06:06.000Z</time>
      </trkpt>
      <trkpt lat="43.99869" lon="5.1446">
        <ele>282</ele>
        <time>2013-02-18T14:06:07.000Z</time>
      </trkpt>
      <trkpt lat="43.99866" lon="5.14462">
        <ele>283.3</ele>
        <time>2013-02-18T14:06:13.000Z</time>
      </trkpt>
      <trkpt lat="43.99865" lon="5.14463">
        <ele>283.2</ele>
        <time>2013-02-18T14:06:14.000Z</time>
      </trkpt>
      <trkpt lat="43.99861" lon="5.14466">
        <ele>284.6</ele>
        <time>2013-02-18T14:06:24.000Z</time>
      </trkpt>
      <trkpt lat="43.99861" lon="5.14466">
        <ele>284.7</ele>
        <time>2013-02-18T14:06:25.000Z</time>
      </trkpt>
      <trkpt lat="43.99858" lon="5.14469">
        <ele>285.9</ele>
        <time>2013-02-18T14:06:30.000Z</time>
      </trkpt>
      <trkpt lat="43.99857" lon="5.1447">
        <ele>286.3</ele>
        <time>2013-02-18T14:06:31.000Z</time>
      </trkpt>
      <trkpt lat="43.99853" lon="5.14472">
        <ele>287.3</ele>
        <time>2013-02-18T14:06:36.000Z</time>
      </trkpt>
      <trkpt lat="43.99852" lon="5.14473">
        <ele>287.4</ele>
        <time>2013-02-18T14:06:37.000Z</time>
      </trkpt>
      <trkpt lat="43.99848" lon="5.14475">
        <ele>287.8</ele>
        <time>2013-02-18T14:06:43.000Z</time>
      </trkpt>
      <trkpt lat="43.99847" lon="5.14475">
        <ele>287.8</ele>
        <time>2013-02-18T14:06:44.000Z</time>
      </trkpt>
      <trkpt lat="43.99844" lon="5.14478">
        <ele>291</ele>
        <time>2013-02-18T14:06:52.000Z</time>
      </trkpt>
      <trkpt lat="43.99843" lon="5.14479">
        <ele>291.1</ele>
        <time>2013-02-18T14:06:53.000Z</time>
      </trkpt>
      <trkpt lat="43.99839" lon="5.14481">
        <ele>291.6</ele>
        <time>2013-02-18T14:06:58.000Z</time>
      </trkpt>
      <trkpt lat="43.99838" lon="5.14481">
        <ele>291.8</ele>
        <time>2013-02-18T14:06:59.000Z</time>
      </trkpt>
      <trkpt lat="43.99835" lon="5.14484">
        <ele>294.3</ele>
        <time>2013-02-18T14:07:05.000Z</time>
      </trkpt>
      <trkpt lat="43.99835" lon="5.14484">
        <ele>294.3</ele>
        <time>2013-02-18T14:07:06.000Z</time>
      </trkpt>
      <trkpt lat="43.99831" lon="5.14488">
        <ele>296.2</ele>
        <time>2013-02-18T14:07:16.000Z</time>
      </trkpt>
      <trkpt lat="43.99831" lon="5.14488">
        <ele>296.6</ele>
        <time>2013-02-18T14:07:17.000Z</time>
      </trkpt>
      <trkpt lat="43.99827" lon="5.14491">
        <ele>297.7</ele>
        <time>2013-02-18T14:07:24.000Z</time>
      </trkpt>
      <trkpt lat="43.99827" lon="5.14491">
        <ele>297.7</ele>
        <time>2013-02-18T14:07:25.000Z</time>
      </trkpt>
      <trkpt lat="43.99824" lon="5.14491">
        <ele>297.8</ele>
        <time>2013-02-18T14:07:31.000Z</time>
      </trkpt>
      <trkpt lat="43.9982" lon="5.14494">
        <ele>298</ele>
        <time>2013-02-18T14:07:32.000Z</time>
      </trkpt>
      <trkpt lat="43.99817" lon="5.14497">
        <ele>298.7</ele>
        <time>2013-02-18T14:07:40.000Z</time>
      </trkpt>
      <trkpt lat="43.99816" lon="5.14497">
        <ele>299.2</ele>
        <time>2013-02-18T14:07:41.000Z</time>
      </trkpt>
      <trkpt lat="43.99812" lon="5.14499">
        <ele>300.2</ele>
        <time>2013-02-18T14:07:46.000Z</time>
      </trkpt>
      <trkpt lat="43.99812" lon="5.145">
        <ele>300.4</ele>
        <time>2013-02-18T14:07:47.000Z</time>
      </trkpt>
      <trkpt lat="43.99808" lon="5.14502">
        <ele>302.3</ele>
        <time>2013-02-18T14:07:53.000Z</time>
      </trkpt>
      <trkpt lat="43.99807" lon="5.14502">
        <ele>302.1</ele>
        <time>2013-02-18T14:07:54.000Z</time>
      </trkpt>
      <trkpt lat="43.99803" lon="5.14505">
        <ele>302.7</ele>
        <time>2013-02-18T14:08:00.000Z</time>
      </trkpt>
      <trkpt lat="43.99803" lon="5.14506">
        <ele>302.7</ele>
        <time>2013-02-18T14:08:01.000Z</time>
      </trkpt>
      <trkpt lat="43.99799" lon="5.1451">
        <ele>302.8</ele>
        <time>2013-02-18T14:08:07.000Z</time>
      </trkpt>
      <trkpt lat="43.99799" lon="5.1451">
        <ele>302.8</ele>
        <time>2013-02-18T14:08:08.000Z</time>
      </trkpt>
      <trkpt lat="43.99795" lon="5.14512">
        <ele>302.3</ele>
        <time>2013-02-18T14:08:12.000Z</time>
      </trkpt>
      <trkpt lat="43.99794" lon="5.14512">
        <ele>302.7</ele>
        <time>2013-02-18T14:08:13.000Z</time>
      </trkpt>
      <trkpt lat="43.99791" lon="5.14515">
        <ele>302.3</ele>
        <time>2013-02-18T14:08:18.000Z</time>
      </trkpt>
      <trkpt lat="43.9979" lon="5.14516">
        <ele>302.4</ele>
        <time>2013-02-18T14:08:19.000Z</time>
      </trkpt>
      <trkpt lat="43.99787" lon="5.14517">
        <ele>303</ele>
        <time>2013-02-18T14:08:22.000Z</time>
      </trkpt>
      <trkpt lat="43.99785" lon="5.14517">
        <ele>303.1</ele>
        <time>2013-02-18T14:08:23.000Z</time>
      </trkpt>
      <trkpt lat="43.99782" lon="5.14519">
        <ele>305.2</ele>
        <time>2013-02-18T14:08:27.000Z</time>
      </trkpt>
      <trkpt lat="43.99781" lon="5.14519">
        <ele>304.9</ele>
        <time>2013-02-18T14:08:28.000Z</time>
      </trkpt>
      <trkpt lat="43.99777" lon="5.14523">
        <ele>305.3</ele>
        <time>2013-02-18T14:08:34.000Z</time>
      </trkpt>
      <trkpt lat="43.99776" lon="5.14525">
        <ele>305.1</ele>
        <time>2013-02-18T14:08:35.000Z</time>
      </trkpt>
      <trkpt lat="43.99773" lon="5.14528">
        <ele>305.5</ele>
        <time>2013-02-18T14:08:41.000Z</time>
      </trkpt>
      <trkpt lat="43.99772" lon="5.14529">
        <ele>305.6</ele>
        <time>2013-02-18T14:08:42.000Z</time>
      </trkpt>
      <trkpt lat="43.99769" lon="5.1453">
        <ele>306.4</ele>
        <time>2013-02-18T14:08:45.000Z</time>
      </trkpt>
      <trkpt lat="43.99767" lon="5.14531">
        <ele>306.4</ele>
        <time>2013-02-18T14:08:46.000Z</time>
      </trkpt>
      <trkpt lat="43.99763" lon="5.1453">
        <ele>306.3</ele>
        <time>2013-02-18T14:09:02.000Z</time>
      </trkpt>
      <trkpt lat="43.99762" lon="5.1453">
        <ele>306.8</ele>
        <time>2013-02-18T14:09:03.000Z</time>
      </trkpt>
      <trkpt lat="43.9976" lon="5.14535">
        <ele>307</ele>
        <time>2013-02-18T14:09:15.000Z</time>
      </trkpt>
      <trkpt lat="43.99759" lon="5.14536">
        <ele>307.5</ele>
        <time>2013-02-18T14:09:16.000Z</time>
      </trkpt>
      <trkpt lat="43.99755" lon="5.14537">
        <ele>309.2</ele>
        <time>2013-02-18T14:09:19.000Z</time>
      </trkpt>
      <trkpt lat="43.99754" lon="5.14538">
        <ele>309.4</ele>
        <time>2013-02-18T14:09:20.000Z</time>
      </trkpt>
      <trkpt lat="43.99751" lon="5.14542">
        <ele>309.6</ele>
        <time>2013-02-18T14:09:23.000Z</time>
      </trkpt>
      <trkpt lat="43.9975" lon="5.14544">
        <ele>309.8</ele>
        <time>2013-02-18T14:09:24.000Z</time>
      </trkpt>
      <trkpt lat="43.99748" lon="5.14548">
        <ele>310.7</ele>
        <time>2013-02-18T14:09:27.000Z</time>
      </trkpt>
      <trkpt lat="43.99747" lon="5.14549">
        <ele>310.9</ele>
        <time>2013-02-18T14:09:28.000Z</time>
      </trkpt>
      <trkpt lat="43.99745" lon="5.14552">
        <ele>311.2</ele>
        <time>2013-02-18T14:09:30.000Z</time>
      </trkpt>
      <trkpt lat="43.99743" lon="5.14552">
        <ele>311.5</ele>
        <time>2013-02-18T14:09:31.000Z</time>
      </trkpt>
      <trkpt lat="43.9974" lon="5.14556">
        <ele>312</ele>
        <time>2013-02-18T14:09:34.000Z</time>
      </trkpt>
      <trkpt lat="43.99739" lon="5.14557">
        <ele>312.1</ele>
        <time>2013-02-18T14:09:35.000Z</time>
      </trkpt>
      <trkpt lat="43.99736" lon="5.14559">
        <ele>312.7</ele>
        <time>2013-02-18T14:09:37.000Z</time>
      </trkpt>
      <trkpt lat="43.99735" lon="5.1456">
        <ele>312.5</ele>
        <time>2013-02-18T14:09:38.000Z</time>
      </trkpt>
      <trkpt lat="43.99731" lon="5.14562">
        <ele>313.7</ele>
        <time>2013-02-18T14:09:41.000Z</time>
      </trkpt>
      <trkpt lat="43.9973" lon="5.14564">
        <ele>313.6</ele>
        <time>2013-02-18T14:09:42.000Z</time>
      </trkpt>
      <trkpt lat="43.99727" lon="5.14566">
        <ele>313.9</ele>
        <time>2013-02-18T14:09:44.000Z</time>
      </trkpt>
      <trkpt lat="43.99725" lon="5.14567">
        <ele>313.8</ele>
        <time>2013-02-18T14:09:45.000Z</time>
      </trkpt>
      <trkpt lat="43.99723" lon="5.14572">
        <ele>314.6</ele>
        <time>2013-02-18T14:09:48.000Z</time>
      </trkpt>
      <trkpt lat="43.99722" lon="5.14573">
        <ele>314.8</ele>
        <time>2013-02-18T14:09:49.000Z</time>
      </trkpt>
      <trkpt lat="43.99719" lon="5.14578">
        <ele>315.2</ele>
        <time>2013-02-18T14:09:52.000Z</time>
      </trkpt>
      <trkpt lat="43.99718" lon="5.14579">
        <ele>315.3</ele>
        <time>2013-02-18T14:09:53.000Z</time>
      </trkpt>
      <trkpt lat="43.99716" lon="5.14583">
        <ele>315.4</ele>
        <time>2013-02-18T14:09:55.000Z</time>
      </trkpt>
      <trkpt lat="43.99715" lon="5.14585">
        <ele>315.4</ele>
        <time>2013-02-18T14:09:56.000Z</time>
      </trkpt>
      <trkpt lat="43.99713" lon="5.14589">
        <ele>316.1</ele>
        <time>2013-02-18T14:09:58.000Z</time>
      </trkpt>
      <trkpt lat="43.99712" lon="5.1459">
        <ele>315.6</ele>
        <time>2013-02-18T14:09:59.000Z</time>
      </trkpt>
      <trkpt lat="43.9971" lon="5.14594">
        <ele>315.6</ele>
        <time>2013-02-18T14:10:01.000Z</time>
      </trkpt>
      <trkpt lat="43.99709" lon="5.14595">
        <ele>316.1</ele>
        <time>2013-02-18T14:10:02.000Z</time>
      </trkpt>
      <trkpt lat="43.99707" lon="5.14598">
        <ele>316.5</ele>
        <time>2013-02-18T14:10:04.000Z</time>
      </trkpt>
      <trkpt lat="43.99706" lon="5.146">
        <ele>316.9</ele>
        <time>2013-02-18T14:10:05.000Z</time>
      </trkpt>
      <trkpt lat="43.99703" lon="5.14605">
        <ele>318.6</ele>
        <time>2013-02-18T14:10:08.000Z</time>
      </trkpt>
      <trkpt lat="43.99702" lon="5.14606">
        <ele>319.1</ele>
        <time>2013-02-18T14:10:09.000Z</time>
      </trkpt>
      <trkpt lat="43.99699" lon="5.14611">
        <ele>320.4</ele>
        <time>2013-02-18T14:10:12.000Z</time>
      </trkpt>
      <trkpt lat="43.99698" lon="5.14612">
        <ele>320.8</ele>
        <time>2013-02-18T14:10:13.000Z</time>
      </trkpt>
      <trkpt lat="43.99695" lon="5.14615">
        <ele>320.7</ele>
        <time>2013-02-18T14:10:15.000Z</time>
      </trkpt>
      <trkpt lat="43.99694" lon="5.14616">
        <ele>320.7</ele>
        <time>2013-02-18T14:10:16.000Z</time>
      </trkpt>
      <trkpt lat="43.99692" lon="5.1462">
        <ele>321.3</ele>
        <time>2013-02-18T14:10:18.000Z</time>
      </trkpt>
      <trkpt lat="43.99691" lon="5.14622">
        <ele>321.7</ele>
        <time>2013-02-18T14:10:19.000Z</time>
      </trkpt>
      <trkpt lat="43.99689" lon="5.14625">
        <ele>322.4</ele>
        <time>2013-02-18T14:10:21.000Z</time>
      </trkpt>
      <trkpt lat="43.99688" lon="5.14627">
        <ele>322.3</ele>
        <time>2013-02-18T14:10:22.000Z</time>
      </trkpt>
      <trkpt lat="43.99686" lon="5.1463">
        <ele>323</ele>
        <time>2013-02-18T14:10:24.000Z</time>
      </trkpt>
      <trkpt lat="43.99684" lon="5.14631">
        <ele>323.1</ele>
        <time>2013-02-18T14:10:25.000Z</time>
      </trkpt>
      <trkpt lat="43.9968" lon="5.14629">
        <ele>323.5</ele>
        <time>2013-02-18T14:10:27.000Z</time>
      </trkpt>
      <trkpt lat="43.9968" lon="5.14627">
        <ele>323.4</ele>
        <time>2013-02-18T14:10:28.000Z</time>
      </trkpt>
      <trkpt lat="43.9968" lon="5.14621">
        <ele>323.8</ele>
        <time>2013-02-18T14:10:31.000Z</time>
      </trkpt>
      <trkpt lat="43.9968" lon="5.14619">
        <ele>323.9</ele>
        <time>2013-02-18T14:10:32.000Z</time>
      </trkpt>
      <trkpt lat="43.99681" lon="5.14614">
        <ele>324.1</ele>
        <time>2013-02-18T14:10:34.000Z</time>
      </trkpt>
      <trkpt lat="43.99681" lon="5.14613">
        <ele>323.9</ele>
        <time>2013-02-18T14:10:35.000Z</time>
      </trkpt>
      <trkpt lat="43.99681" lon="5.14608">
        <ele>324.2</ele>
        <time>2013-02-18T14:10:37.000Z</time>
      </trkpt>
      <trkpt lat="43.99681" lon="5.14606">
        <ele>324.1</ele>
        <time>2013-02-18T14:10:38.000Z</time>
      </trkpt>
      <trkpt lat="43.99681" lon="5.14602">
        <ele>324</ele>
        <time>2013-02-18T14:10:41.000Z</time>
      </trkpt>
      <trkpt lat="43.99681" lon="5.14598">
        <ele>323.8</ele>
        <time>2013-02-18T14:10:42.000Z</time>
      </trkpt>
      <trkpt lat="43.99683" lon="5.14594">
        <ele>323.9</ele>
        <time>2013-02-18T14:10:45.000Z</time>
      </trkpt>
      <trkpt lat="43.99684" lon="5.14592">
        <ele>324.1</ele>
        <time>2013-02-18T14:10:46.000Z</time>
      </trkpt>
      <trkpt lat="43.99685" lon="5.14589">
        <ele>323.8</ele>
        <time>2013-02-18T14:10:48.000Z</time>
      </trkpt>
      <trkpt lat="43.99687" lon="5.14587">
        <ele>323.2</ele>
        <time>2013-02-18T14:10:49.000Z</time>
      </trkpt>
      <trkpt lat="43.99689" lon="5.14582">
        <ele>323</ele>
        <time>2013-02-18T14:10:52.000Z</time>
      </trkpt>
      <trkpt lat="43.99689" lon="5.1458">
        <ele>323.4</ele>
        <time>2013-02-18T14:10:53.000Z</time>
      </trkpt>
      <trkpt lat="43.9969" lon="5.14576">
        <ele>324</ele>
        <time>2013-02-18T14:10:55.000Z</time>
      </trkpt>
      <trkpt lat="43.9969" lon="5.14573">
        <ele>324.3</ele>
        <time>2013-02-18T14:10:56.000Z</time>
      </trkpt>
      <trkpt lat="43.9969" lon="5.14569">
        <ele>325.7</ele>
        <time>2013-02-18T14:10:58.000Z</time>
      </trkpt>
      <trkpt lat="43.99689" lon="5.14567">
        <ele>325.7</ele>
        <time>2013-02-18T14:10:59.000Z</time>
      </trkpt>
      <trkpt lat="43.99686" lon="5.14562">
        <ele>325.7</ele>
        <time>2013-02-18T14:11:02.000Z</time>
      </trkpt>
      <trkpt lat="43.99685" lon="5.14561">
        <ele>325.6</ele>
        <time>2013-02-18T14:11:03.000Z</time>
      </trkpt>
      <trkpt lat="43.99683" lon="5.14563">
        <ele>325.7</ele>
        <time>2013-02-18T14:11:05.000Z</time>
      </trkpt>
      <trkpt lat="43.99683" lon="5.14568">
        <ele>326</ele>
        <time>2013-02-18T14:11:06.000Z</time>
      </trkpt>
      <trkpt lat="43.99684" lon="5.14574">
        <ele>326.3</ele>
        <time>2013-02-18T14:11:09.000Z</time>
      </trkpt>
      <trkpt lat="43.99684" lon="5.14576">
        <ele>326.6</ele>
        <time>2013-02-18T14:11:10.000Z</time>
      </trkpt>
      <trkpt lat="43.99684" lon="5.14581">
        <ele>326.9</ele>
        <time>2013-02-18T14:11:12.000Z</time>
      </trkpt>
      <trkpt lat="43.99683" lon="5.14582">
        <ele>327.5</ele>
        <time>2013-02-18T14:11:13.000Z</time>
      </trkpt>
      <trkpt lat="43.99681" lon="5.14587">
        <ele>328.4</ele>
        <time>2013-02-18T14:11:15.000Z</time>
      </trkpt>
      <trkpt lat="43.99679" lon="5.14588">
        <ele>328.6</ele>
        <time>2013-02-18T14:11:16.000Z</time>
      </trkpt>
      <trkpt lat="43.99677" lon="5.14593">
        <ele>329.3</ele>
        <time>2013-02-18T14:11:18.000Z</time>
      </trkpt>
      <trkpt lat="43.99676" lon="5.14594">
        <ele>329.8</ele>
        <time>2013-02-18T14:11:19.000Z</time>
      </trkpt>
      <trkpt lat="43.99674" lon="5.14599">
        <ele>329.6</ele>
        <time>2013-02-18T14:11:21.000Z</time>
      </trkpt>
      <trkpt lat="43.99673" lon="5.14601">
        <ele>329.7</ele>
        <time>2013-02-18T14:11:22.000Z</time>
      </trkpt>
      <trkpt lat="43.99671" lon="5.14606">
        <ele>329.8</ele>
        <time>2013-02-18T14:11:24.000Z</time>
      </trkpt>
      <trkpt lat="43.9967" lon="5.14608">
        <ele>329.8</ele>
        <time>2013-02-18T14:11:25.000Z</time>
      </trkpt>
      <trkpt lat="43.99668" lon="5.14613">
        <ele>330.1</ele>
        <time>2013-02-18T14:11:27.000Z</time>
      </trkpt>
      <trkpt lat="43.99667" lon="5.14615">
        <ele>330.1</ele>
        <time>2013-02-18T14:11:28.000Z</time>
      </trkpt>
      <trkpt lat="43.99665" lon="5.1462">
        <ele>330.8</ele>
        <time>2013-02-18T14:11:30.000Z</time>
      </trkpt>
      <trkpt lat="43.99664" lon="5.14622">
        <ele>330.9</ele>
        <time>2013-02-18T14:11:31.000Z</time>
      </trkpt>
      <trkpt lat="43.99663" lon="5.14624">
        <ele>331</ele>
        <time>2013-02-18T14:11:32.000Z</time>
      </trkpt>
      <trkpt lat="43.99662" lon="5.14627">
        <ele>331.2</ele>
        <time>2013-02-18T14:11:33.000Z</time>
      </trkpt>
      <trkpt lat="43.9966" lon="5.14629">
        <ele>331.3</ele>
        <time>2013-02-18T14:11:34.000Z</time>
      </trkpt>
      <trkpt lat="43.99657" lon="5.14631">
        <ele>331.6</ele>
        <time>2013-02-18T14:11:35.000Z</time>
      </trkpt>
      <trkpt lat="43.99653" lon="5.14633">
        <ele>331.6</ele>
        <time>2013-02-18T14:11:36.000Z</time>
      </trkpt>
      <trkpt lat="43.99651" lon="5.14636">
        <ele>331.8</ele>
        <time>2013-02-18T14:11:37.000Z</time>
      </trkpt>
      <trkpt lat="43.99648" lon="5.14638">
        <ele>332.4</ele>
        <time>2013-02-18T14:11:39.000Z</time>
      </trkpt>
      <trkpt lat="43.99647" lon="5.14639">
        <ele>332.2</ele>
        <time>2013-02-18T14:11:40.000Z</time>
      </trkpt>
      <trkpt lat="43.99644" lon="5.14642">
        <ele>332.3</ele>
        <time>2013-02-18T14:11:43.000Z</time>
      </trkpt>
      <trkpt lat="43.99642" lon="5.14642">
        <ele>332.1</ele>
        <time>2013-02-18T14:11:44.000Z</time>
      </trkpt>
      <trkpt lat="43.99639" lon="5.14645">
        <ele>331.8</ele>
        <time>2013-02-18T14:11:47.000Z</time>
      </trkpt>
      <trkpt lat="43.99637" lon="5.14646">
        <ele>331.5</ele>
        <time>2013-02-18T14:11:48.000Z</time>
      </trkpt>
      <trkpt lat="43.99634" lon="5.14647">
        <ele>331.5</ele>
        <time>2013-02-18T14:11:49.000Z</time>
      </trkpt>
      <trkpt lat="43.99632" lon="5.14649">
        <ele>331.5</ele>
        <time>2013-02-18T14:11:50.000Z</time>
      </trkpt>
      <trkpt lat="43.9963" lon="5.14653">
        <ele>331.4</ele>
        <time>2013-02-18T14:11:53.000Z</time>
      </trkpt>
      <trkpt lat="43.99628" lon="5.14652">
        <ele>331.5</ele>
        <time>2013-02-18T14:11:54.000Z</time>
      </trkpt>
      <trkpt lat="43.99624" lon="5.14652">
        <ele>331.9</ele>
        <time>2013-02-18T14:11:57.000Z</time>
      </trkpt>
      <trkpt lat="43.99622" lon="5.14651">
        <ele>332</ele>
        <time>2013-02-18T14:11:58.000Z</time>
      </trkpt>
      <trkpt lat="43.99619" lon="5.14655">
        <ele>332.4</ele>
        <time>2013-02-18T14:12:02.000Z</time>
      </trkpt>
      <trkpt lat="43.99617" lon="5.14655">
        <ele>332.8</ele>
        <time>2013-02-18T14:12:03.000Z</time>
      </trkpt>
      <trkpt lat="43.99614" lon="5.14655">
        <ele>333.2</ele>
        <time>2013-02-18T14:12:05.000Z</time>
      </trkpt>
      <trkpt lat="43.99612" lon="5.14656">
        <ele>332.3</ele>
        <time>2013-02-18T14:12:06.000Z</time>
      </trkpt>
      <trkpt lat="43.99608" lon="5.14659">
        <ele>332.6</ele>
        <time>2013-02-18T14:12:10.000Z</time>
      </trkpt>
      <trkpt lat="43.99605" lon="5.14662">
        <ele>332.6</ele>
        <time>2013-02-18T14:12:11.000Z</time>
      </trkpt>
      <trkpt lat="43.99604" lon="5.14663">
        <ele>334.3</ele>
        <time>2013-02-18T14:12:14.000Z</time>
      </trkpt>
      <trkpt lat="43.99601" lon="5.14666">
        <ele>334.9</ele>
        <time>2013-02-18T14:12:15.000Z</time>
      </trkpt>
      <trkpt lat="43.99599" lon="5.1467">
        <ele>335.6</ele>
        <time>2013-02-18T14:12:16.000Z</time>
      </trkpt>
      <trkpt lat="43.99596" lon="5.14671">
        <ele>335.5</ele>
        <time>2013-02-18T14:12:17.000Z</time>
      </trkpt>
      <trkpt lat="43.99592" lon="5.14672">
        <ele>335.6</ele>
        <time>2013-02-18T14:12:19.000Z</time>
      </trkpt>
      <trkpt lat="43.99591" lon="5.14674">
        <ele>335.6</ele>
        <time>2013-02-18T14:12:20.000Z</time>
      </trkpt>
      <trkpt lat="43.99588" lon="5.14675">
        <ele>335.6</ele>
        <time>2013-02-18T14:12:21.000Z</time>
      </trkpt>
      <trkpt lat="43.99587" lon="5.14677">
        <ele>335.5</ele>
        <time>2013-02-18T14:12:22.000Z</time>
      </trkpt>
      <trkpt lat="43.99584" lon="5.14677">
        <ele>335.7</ele>
        <time>2013-02-18T14:12:23.000Z</time>
      </trkpt>
      <trkpt lat="43.99582" lon="5.14678">
        <ele>335.6</ele>
        <time>2013-02-18T14:12:24.000Z</time>
      </trkpt>
      <trkpt lat="43.99578" lon="5.1468">
        <ele>335.4</ele>
        <time>2013-02-18T14:12:25.000Z</time>
      </trkpt>
      <trkpt lat="43.99577" lon="5.14682">
        <ele>335.6</ele>
        <time>2013-02-18T14:12:26.000Z</time>
      </trkpt>
      <trkpt lat="43.99571" lon="5.14684">
        <ele>335.4</ele>
        <time>2013-02-18T14:12:27.000Z</time>
      </trkpt>
      <trkpt lat="43.99566" lon="5.14684">
        <ele>335.6</ele>
        <time>2013-02-18T14:12:30.000Z</time>
      </trkpt>
      <trkpt lat="43.99564" lon="5.14685">
        <ele>335.6</ele>
        <time>2013-02-18T14:12:31.000Z</time>
      </trkpt>
      <trkpt lat="43.99561" lon="5.14686">
        <ele>335.4</ele>
        <time>2013-02-18T14:12:33.000Z</time>
      </trkpt>
      <trkpt lat="43.99559" lon="5.14687">
        <ele>335.4</ele>
        <time>2013-02-18T14:12:34.000Z</time>
      </trkpt>
      <trkpt lat="43.99556" lon="5.14687">
        <ele>335.5</ele>
        <time>2013-02-18T14:12:35.000Z</time>
      </trkpt>
      <trkpt lat="43.99554" lon="5.14688">
        <ele>335.5</ele>
        <time>2013-02-18T14:12:36.000Z</time>
      </trkpt>
      <trkpt lat="43.99555" lon="5.14694">
        <ele>335.6</ele>
        <time>2013-02-18T14:12:37.000Z</time>
      </trkpt>
      <trkpt lat="43.99556" lon="5.14697">
        <ele>335.8</ele>
        <time>2013-02-18T14:12:38.000Z</time>
      </trkpt>
      <trkpt lat="43.99554" lon="5.14698">
        <ele>335.9</ele>
        <time>2013-02-18T14:12:40.000Z</time>
      </trkpt>
      <trkpt lat="43.99551" lon="5.147">
        <ele>335.7</ele>
        <time>2013-02-18T14:12:41.000Z</time>
      </trkpt>
      <trkpt lat="43.99548" lon="5.14701">
        <ele>336.3</ele>
        <time>2013-02-18T14:12:43.000Z</time>
      </trkpt>
      <trkpt lat="43.99546" lon="5.14701">
        <ele>335.8</ele>
        <time>2013-02-18T14:12:44.000Z</time>
      </trkpt>
      <trkpt lat="43.99541" lon="5.14702">
        <ele>336.2</ele>
        <time>2013-02-18T14:12:46.000Z</time>
      </trkpt>
      <trkpt lat="43.9954" lon="5.14699">
        <ele>338.9</ele>
        <time>2013-02-18T14:12:47.000Z</time>
      </trkpt>
      <trkpt lat="43.99538" lon="5.14699">
        <ele>338.1</ele>
        <time>2013-02-18T14:12:48.000Z</time>
      </trkpt>
      <trkpt lat="43.99535" lon="5.14701">
        <ele>338.9</ele>
        <time>2013-02-18T14:12:49.000Z</time>
      </trkpt>
      <trkpt lat="43.99533" lon="5.14702">
        <ele>339.3</ele>
        <time>2013-02-18T14:12:50.000Z</time>
      </trkpt>
      <trkpt lat="43.99529" lon="5.14705">
        <ele>339.9</ele>
        <time>2013-02-18T14:12:51.000Z</time>
      </trkpt>
      <trkpt lat="43.99528" lon="5.14708">
        <ele>340.4</ele>
        <time>2013-02-18T14:12:52.000Z</time>
      </trkpt>
      <trkpt lat="43.99526" lon="5.1471">
        <ele>340.4</ele>
        <time>2013-02-18T14:12:53.000Z</time>
      </trkpt>
      <trkpt lat="43.99524" lon="5.14711">
        <ele>340.4</ele>
        <time>2013-02-18T14:12:54.000Z</time>
      </trkpt>
      <trkpt lat="43.99521" lon="5.14714">
        <ele>340.5</ele>
        <time>2013-02-18T14:12:55.000Z</time>
      </trkpt>
      <trkpt lat="43.99517" lon="5.14716">
        <ele>340.1</ele>
        <time>2013-02-18T14:12:56.000Z</time>
      </trkpt>
      <trkpt lat="43.99512" lon="5.14717">
        <ele>338.3</ele>
        <time>2013-02-18T14:12:57.000Z</time>
      </trkpt>
      <trkpt lat="43.99508" lon="5.14716">
        <ele>337.5</ele>
        <time>2013-02-18T14:12:58.000Z</time>
      </trkpt>
      <trkpt lat="43.99506" lon="5.14717">
        <ele>337.2</ele>
        <time>2013-02-18T14:12:59.000Z</time>
      </trkpt>
      <trkpt lat="43.99503" lon="5.14718">
        <ele>337</ele>
        <time>2013-02-18T14:13:00.000Z</time>
      </trkpt>
      <trkpt lat="43.99501" lon="5.14719">
        <ele>336.8</ele>
        <time>2013-02-18T14:13:01.000Z</time>
      </trkpt>
      <trkpt lat="43.99498" lon="5.14721">
        <ele>336.3</ele>
        <time>2013-02-18T14:13:02.000Z</time>
      </trkpt>
      <trkpt lat="43.99496" lon="5.14721">
        <ele>335.6</ele>
        <time>2013-02-18T14:13:03.000Z</time>
      </trkpt>
      <trkpt lat="43.99492" lon="5.14722">
        <ele>335.8</ele>
        <time>2013-02-18T14:13:06.000Z</time>
      </trkpt>
      <trkpt lat="43.99491" lon="5.14723">
        <ele>335.6</ele>
        <time>2013-02-18T14:13:07.000Z</time>
      </trkpt>
      <trkpt lat="43.99487" lon="5.14723">
        <ele>336</ele>
        <time>2013-02-18T14:13:55.000Z</time>
      </trkpt>
      <trkpt lat="43.99485" lon="5.14724">
        <ele>335.2</ele>
        <time>2013-02-18T14:13:56.000Z</time>
      </trkpt>
      <trkpt lat="43.99482" lon="5.14726">
        <ele>334.2</ele>
        <time>2013-02-18T14:13:57.000Z</time>
      </trkpt>
      <trkpt lat="43.99479" lon="5.14726">
        <ele>333.4</ele>
        <time>2013-02-18T14:13:58.000Z</time>
      </trkpt>
      <trkpt lat="43.99474" lon="5.14723">
        <ele>338.2</ele>
        <time>2013-02-18T14:13:59.000Z</time>
      </trkpt>
      <trkpt lat="43.99471" lon="5.14723">
        <ele>338.6</ele>
        <time>2013-02-18T14:14:00.000Z</time>
      </trkpt>
      <trkpt lat="43.99468" lon="5.14722">
        <ele>337.4</ele>
        <time>2013-02-18T14:14:01.000Z</time>
      </trkpt>
      <trkpt lat="43.99465" lon="5.1472">
        <ele>336.3</ele>
        <time>2013-02-18T14:14:02.000Z</time>
      </trkpt>
      <trkpt lat="43.99462" lon="5.14716">
        <ele>334.6</ele>
        <time>2013-02-18T14:14:03.000Z</time>
      </trkpt>
      <trkpt lat="43.99459" lon="5.14715">
        <ele>334.2</ele>
        <time>2013-02-18T14:14:04.000Z</time>
      </trkpt>
      <trkpt lat="43.99455" lon="5.14714">
        <ele>334</ele>
        <time>2013-02-18T14:14:05.000Z</time>
      </trkpt>
      <trkpt lat="43.99448" lon="5.14717">
        <ele>333.4</ele>
        <time>2013-02-18T14:14:06.000Z</time>
      </trkpt>
      <trkpt lat="43.9944" lon="5.14722">
        <ele>333.2</ele>
        <time>2013-02-18T14:14:07.000Z</time>
      </trkpt>
      <trkpt lat="43.99435" lon="5.14722">
        <ele>332.7</ele>
        <time>2013-02-18T14:14:08.000Z</time>
      </trkpt>
      <trkpt lat="43.99431" lon="5.14723">
        <ele>332.8</ele>
        <time>2013-02-18T14:14:09.000Z</time>
      </trkpt>
      <trkpt lat="43.99427" lon="5.14724">
        <ele>332.4</ele>
        <time>2013-02-18T14:14:10.000Z</time>
      </trkpt>
      <trkpt lat="43.99422" lon="5.14725">
        <ele>332.2</ele>
        <time>2013-02-18T14:14:11.000Z</time>
      </trkpt>
      <trkpt lat="43.99418" lon="5.14726">
        <ele>331.8</ele>
        <time>2013-02-18T14:14:12.000Z</time>
      </trkpt>
      <trkpt lat="43.99414" lon="5.14726">
        <ele>331.4</ele>
        <time>2013-02-18T14:14:13.000Z</time>
      </trkpt>
      <trkpt lat="43.99411" lon="5.14727">
        <ele>331</ele>
        <time>2013-02-18T14:14:14.000Z</time>
      </trkpt>
      <trkpt lat="43.99407" lon="5.14728">
        <ele>331</ele>
        <time>2013-02-18T14:14:15.000Z</time>
      </trkpt>
      <trkpt lat="43.99403" lon="5.14729">
        <ele>330.9</ele>
        <time>2013-02-18T14:14:16.000Z</time>
      </trkpt>
      <trkpt lat="43.99399" lon="5.1473">
        <ele>330.3</ele>
        <time>2013-02-18T14:14:17.000Z</time>
      </trkpt>
      <trkpt lat="43.99394" lon="5.14731">
        <ele>329.7</ele>
        <time>2013-02-18T14:14:18.000Z</time>
      </trkpt>
      <trkpt lat="43.9939" lon="5.14732">
        <ele>329.5</ele>
        <time>2013-02-18T14:14:19.000Z</time>
      </trkpt>
      <trkpt lat="43.99385" lon="5.14732">
        <ele>329.2</ele>
        <time>2013-02-18T14:14:20.000Z</time>
      </trkpt>
      <trkpt lat="43.9938" lon="5.14733">
        <ele>329.2</ele>
        <time>2013-02-18T14:14:21.000Z</time>
      </trkpt>
      <trkpt lat="43.99376" lon="5.14734">
        <ele>329.2</ele>
        <time>2013-02-18T14:14:22.000Z</time>
      </trkpt>
      <trkpt lat="43.99371" lon="5.14734">
        <ele>329.1</ele>
        <time>2013-02-18T14:14:23.000Z</time>
      </trkpt>
      <trkpt lat="43.99365" lon="5.14734">
        <ele>329.2</ele>
        <time>2013-02-18T14:14:24.000Z</time>
      </trkpt>
      <trkpt lat="43.9936" lon="5.14737">
        <ele>329.6</ele>
        <time>2013-02-18T14:14:25.000Z</time>
      </trkpt>
      <trkpt lat="43.99354" lon="5.14737">
        <ele>328.5</ele>
        <time>2013-02-18T14:14:26.000Z</time>
      </trkpt>
      <trkpt lat="43.99347" lon="5.14739">
        <ele>328.2</ele>
        <time>2013-02-18T14:14:27.000Z</time>
      </trkpt>
      <trkpt lat="43.99342" lon="5.14739">
        <ele>328.4</ele>
        <time>2013-02-18T14:14:28.000Z</time>
      </trkpt>
      <trkpt lat="43.99335" lon="5.14741">
        <ele>329</ele>
        <time>2013-02-18T14:14:29.000Z</time>
      </trkpt>
      <trkpt lat="43.99329" lon="5.14747">
        <ele>330.1</ele>
        <time>2013-02-18T14:14:30.000Z</time>
      </trkpt>
      <trkpt lat="43.99321" lon="5.14758">
        <ele>332.4</ele>
        <time>2013-02-18T14:14:31.000Z</time>
      </trkpt>
      <trkpt lat="43.99309" lon="5.14774">
        <ele>336.1</ele>
        <time>2013-02-18T14:14:32.000Z</time>
      </trkpt>
      <trkpt lat="43.99315" lon="5.14743">
        <ele>327.6</ele>
        <time>2013-02-18T14:14:33.000Z</time>
      </trkpt>
      <trkpt lat="43.9931" lon="5.14742">
        <ele>327.2</ele>
        <time>2013-02-18T14:14:34.000Z</time>
      </trkpt>
      <trkpt lat="43.99307" lon="5.14742">
        <ele>326.2</ele>
        <time>2013-02-18T14:14:35.000Z</time>
      </trkpt>
      <trkpt lat="43.99303" lon="5.14743">
        <ele>326.4</ele>
        <time>2013-02-18T14:14:36.000Z</time>
      </trkpt>
      <trkpt lat="43.993" lon="5.14743">
        <ele>326.3</ele>
        <time>2013-02-18T14:14:37.000Z</time>
      </trkpt>
      <trkpt lat="43.99296" lon="5.14743">
        <ele>325.5</ele>
        <time>2013-02-18T14:14:38.000Z</time>
      </trkpt>
      <trkpt lat="43.99297" lon="5.14732">
        <ele>327</ele>
        <time>2013-02-18T14:14:39.000Z</time>
      </trkpt>
      <trkpt lat="43.99296" lon="5.14729">
        <ele>327.3</ele>
        <time>2013-02-18T14:14:40.000Z</time>
      </trkpt>
      <trkpt lat="43.99295" lon="5.14724">
        <ele>327.3</ele>
        <time>2013-02-18T14:14:41.000Z</time>
      </trkpt>
      <trkpt lat="43.99294" lon="5.1472">
        <ele>325.9</ele>
        <time>2013-02-18T14:14:42.000Z</time>
      </trkpt>
      <trkpt lat="43.99293" lon="5.14716">
        <ele>324.7</ele>
        <time>2013-02-18T14:14:43.000Z</time>
      </trkpt>
      <trkpt lat="43.99292" lon="5.1471">
        <ele>324</ele>
        <time>2013-02-18T14:14:44.000Z</time>
      </trkpt>
      <trkpt lat="43.99291" lon="5.14705">
        <ele>323.5</ele>
        <time>2013-02-18T14:14:45.000Z</time>
      </trkpt>
      <trkpt lat="43.99291" lon="5.14713">
        <ele>328.3</ele>
        <time>2013-02-18T14:14:46.000Z</time>
      </trkpt>
      <trkpt lat="43.9929" lon="5.14708">
        <ele>327.2</ele>
        <time>2013-02-18T14:14:48.000Z</time>
      </trkpt>
      <trkpt lat="43.99289" lon="5.14706">
        <ele>328.1</ele>
        <time>2013-02-18T14:14:49.000Z</time>
      </trkpt>
      <trkpt lat="43.99289" lon="5.147">
        <ele>329.2</ele>
        <time>2013-02-18T14:14:51.000Z</time>
      </trkpt>
      <trkpt lat="43.99289" lon="5.14698">
        <ele>329.7</ele>
        <time>2013-02-18T14:14:52.000Z</time>
      </trkpt>
      <trkpt lat="43.9929" lon="5.14692">
        <ele>331.2</ele>
        <time>2013-02-18T14:14:59.000Z</time>
      </trkpt>
      <trkpt lat="43.9929" lon="5.14692">
        <ele>331.4</ele>
        <time>2013-02-18T14:15:00.000Z</time>
      </trkpt>
      <trkpt lat="43.99293" lon="5.14689">
        <ele>331.6</ele>
        <time>2013-02-18T14:15:08.000Z</time>
      </trkpt>
      <trkpt lat="43.99293" lon="5.14685">
        <ele>331.5</ele>
        <time>2013-02-18T14:15:09.000Z</time>
      </trkpt>
      <trkpt lat="43.99296" lon="5.14681">
        <ele>331.4</ele>
        <time>2013-02-18T14:15:10.000Z</time>
      </trkpt>
      <trkpt lat="43.99298" lon="5.14681">
        <ele>331.1</ele>
        <time>2013-02-18T14:15:11.000Z</time>
      </trkpt>
      <trkpt lat="43.993" lon="5.14677">
        <ele>330.7</ele>
        <time>2013-02-18T14:15:14.000Z</time>
      </trkpt>
      <trkpt lat="43.99302" lon="5.14676">
        <ele>330.7</ele>
        <time>2013-02-18T14:15:15.000Z</time>
      </trkpt>
      <trkpt lat="43.99304" lon="5.14674">
        <ele>330.6</ele>
        <time>2013-02-18T14:15:18.000Z</time>
      </trkpt>
      <trkpt lat="43.99306" lon="5.14672">
        <ele>330.7</ele>
        <time>2013-02-18T14:15:19.000Z</time>
      </trkpt>
      <trkpt lat="43.99308" lon="5.14668">
        <ele>332.3</ele>
        <time>2013-02-18T14:15:29.000Z</time>
      </trkpt>
      <trkpt lat="43.99309" lon="5.14665">
        <ele>331.7</ele>
        <time>2013-02-18T14:15:30.000Z</time>
      </trkpt>
      <trkpt lat="43.9931" lon="5.14659">
        <ele>333.1</ele>
        <time>2013-02-18T14:15:39.000Z</time>
      </trkpt>
      <trkpt lat="43.9931" lon="5.14657">
        <ele>333.7</ele>
        <time>2013-02-18T14:15:40.000Z</time>
      </trkpt>
      <trkpt lat="43.9931" lon="5.14659">
        <ele>334.3</ele>
        <time>2013-02-18T14:15:47.000Z</time>
      </trkpt>
      <trkpt lat="43.99306" lon="5.14663">
        <ele>334.6</ele>
        <time>2013-02-18T14:15:48.000Z</time>
      </trkpt>
      <trkpt lat="43.99309" lon="5.14661">
        <ele>333.5</ele>
        <time>2013-02-18T14:15:50.000Z</time>
      </trkpt>
      <trkpt lat="43.99309" lon="5.14659">
        <ele>332.9</ele>
        <time>2013-02-18T14:15:51.000Z</time>
      </trkpt>
      <trkpt lat="43.99309" lon="5.14653">
        <ele>332.8</ele>
        <time>2013-02-18T14:15:52.000Z</time>
      </trkpt>
      <trkpt lat="43.9931" lon="5.14647">
        <ele>332.1</ele>
        <time>2013-02-18T14:15:53.000Z</time>
      </trkpt>
      <trkpt lat="43.99311" lon="5.14637">
        <ele>331.4</ele>
        <time>2013-02-18T14:15:54.000Z</time>
      </trkpt>
      <trkpt lat="43.99307" lon="5.14642">
        <ele>333.3</ele>
        <time>2013-02-18T14:15:55.000Z</time>
      </trkpt>
      <trkpt lat="43.99304" lon="5.1464">
        <ele>333.2</ele>
        <time>2013-02-18T14:15:58.000Z</time>
      </trkpt>
      <trkpt lat="43.99304" lon="5.14637">
        <ele>333.5</ele>
        <time>2013-02-18T14:15:59.000Z</time>
      </trkpt>
      <trkpt lat="43.99303" lon="5.14632">
        <ele>334.7</ele>
        <time>2013-02-18T14:16:01.000Z</time>
      </trkpt>
      <trkpt lat="43.993" lon="5.14634">
        <ele>331.6</ele>
        <time>2013-02-18T14:16:02.000Z</time>
      </trkpt>
      <trkpt lat="43.99298" lon="5.14629">
        <ele>336.3</ele>
        <time>2013-02-18T14:16:08.000Z</time>
      </trkpt>
      <trkpt lat="43.99297" lon="5.14627">
        <ele>335.9</ele>
        <time>2013-02-18T14:16:09.000Z</time>
      </trkpt>
      <trkpt lat="43.99297" lon="5.14622">
        <ele>336.1</ele>
        <time>2013-02-18T14:16:13.000Z</time>
      </trkpt>
      <trkpt lat="43.99297" lon="5.1462">
        <ele>336.8</ele>
        <time>2013-02-18T14:16:14.000Z</time>
      </trkpt>
      <trkpt lat="43.99295" lon="5.14615">
        <ele>339.8</ele>
        <time>2013-02-18T14:16:19.000Z</time>
      </trkpt>
      <trkpt lat="43.99294" lon="5.14614">
        <ele>339.6</ele>
        <time>2013-02-18T14:16:20.000Z</time>
      </trkpt>
      <trkpt lat="43.99292" lon="5.1461">
        <ele>339.8</ele>
        <time>2013-02-18T14:16:25.000Z</time>
      </trkpt>
      <trkpt lat="43.99292" lon="5.14609">
        <ele>340</ele>
        <time>2013-02-18T14:16:26.000Z</time>
      </trkpt>
      <trkpt lat="43.99289" lon="5.14604">
        <ele>341.3</ele>
        <time>2013-02-18T14:16:30.000Z</time>
      </trkpt>
      <trkpt lat="43.9929" lon="5.14602">
        <ele>342</ele>
        <time>2013-02-18T14:16:31.000Z</time>
      </trkpt>
      <trkpt lat="43.99287" lon="5.14597">
        <ele>344.2</ele>
        <time>2013-02-18T14:16:37.000Z</time>
      </trkpt>
      <trkpt lat="43.99287" lon="5.14596">
        <ele>344.4</ele>
        <time>2013-02-18T14:16:38.000Z</time>
      </trkpt>
      <trkpt lat="43.99287" lon="5.14589">
        <ele>344.2</ele>
        <time>2013-02-18T14:16:44.000Z</time>
      </trkpt>
      <trkpt lat="43.99287" lon="5.14587">
        <ele>344.2</ele>
        <time>2013-02-18T14:16:45.000Z</time>
      </trkpt>
      <trkpt lat="43.99287" lon="5.14581">
        <ele>344.4</ele>
        <time>2013-02-18T14:16:48.000Z</time>
      </trkpt>
      <trkpt lat="43.99286" lon="5.14579">
        <ele>344.6</ele>
        <time>2013-02-18T14:16:49.000Z</time>
      </trkpt>
      <trkpt lat="43.99285" lon="5.14575">
        <ele>345</ele>
        <time>2013-02-18T14:16:51.000Z</time>
      </trkpt>
      <trkpt lat="43.99285" lon="5.14572">
        <ele>345.2</ele>
        <time>2013-02-18T14:16:52.000Z</time>
      </trkpt>
      <trkpt lat="43.99284" lon="5.14568">
        <ele>345.8</ele>
        <time>2013-02-18T14:16:54.000Z</time>
      </trkpt>
      <trkpt lat="43.99283" lon="5.14565">
        <ele>345.9</ele>
        <time>2013-02-18T14:16:55.000Z</time>
      </trkpt>
      <trkpt lat="43.99281" lon="5.1456">
        <ele>345.5</ele>
        <time>2013-02-18T14:16:58.000Z</time>
      </trkpt>
      <trkpt lat="43.99281" lon="5.14558">
        <ele>345.6</ele>
        <time>2013-02-18T14:16:59.000Z</time>
      </trkpt>
      <trkpt lat="43.9928" lon="5.14554">
        <ele>345.8</ele>
        <time>2013-02-18T14:17:01.000Z</time>
      </trkpt>
      <trkpt lat="43.99279" lon="5.14552">
        <ele>345.8</ele>
        <time>2013-02-18T14:17:02.000Z</time>
      </trkpt>
      <trkpt lat="43.99277" lon="5.14547">
        <ele>345.8</ele>
        <time>2013-02-18T14:17:04.000Z</time>
      </trkpt>
      <trkpt lat="43.99276" lon="5.14544">
        <ele>345.5</ele>
        <time>2013-02-18T14:17:05.000Z</time>
      </trkpt>
      <trkpt lat="43.99275" lon="5.14541">
        <ele>345.2</ele>
        <time>2013-02-18T14:17:06.000Z</time>
      </trkpt>
      <trkpt lat="43.99274" lon="5.14538">
        <ele>345.1</ele>
        <time>2013-02-18T14:17:07.000Z</time>
      </trkpt>
      <trkpt lat="43.99272" lon="5.14535">
        <ele>345</ele>
        <time>2013-02-18T14:17:08.000Z</time>
      </trkpt>
      <trkpt lat="43.99271" lon="5.14531">
        <ele>345.1</ele>
        <time>2013-02-18T14:17:09.000Z</time>
      </trkpt>
      <trkpt lat="43.9927" lon="5.14528">
        <ele>344.8</ele>
        <time>2013-02-18T14:17:10.000Z</time>
      </trkpt>
      <trkpt lat="43.99267" lon="5.14524">
        <ele>343.6</ele>
        <time>2013-02-18T14:17:11.000Z</time>
      </trkpt>
      <trkpt lat="43.99265" lon="5.1452">
        <ele>343.2</ele>
        <time>2013-02-18T14:17:12.000Z</time>
      </trkpt>
      <trkpt lat="43.99263" lon="5.14516">
        <ele>343</ele>
        <time>2013-02-18T14:17:13.000Z</time>
      </trkpt>
      <trkpt lat="43.99261" lon="5.14512">
        <ele>343.3</ele>
        <time>2013-02-18T14:17:14.000Z</time>
      </trkpt>
      <trkpt lat="43.99258" lon="5.14509">
        <ele>343.1</ele>
        <time>2013-02-18T14:17:15.000Z</time>
      </trkpt>
      <trkpt lat="43.99256" lon="5.14505">
        <ele>343.2</ele>
        <time>2013-02-18T14:17:16.000Z</time>
      </trkpt>
      <trkpt lat="43.99254" lon="5.14502">
        <ele>344.1</ele>
        <time>2013-02-18T14:17:17.000Z</time>
      </trkpt>
      <trkpt lat="43.99252" lon="5.14498">
        <ele>345.1</ele>
        <time>2013-02-18T14:17:18.000Z</time>
      </trkpt>
      <trkpt lat="43.99248" lon="5.14497">
        <ele>348</ele>
        <time>2013-02-18T14:17:19.000Z</time>
      </trkpt>
      <trkpt lat="43.99245" lon="5.14493">
        <ele>348.1</ele>
        <time>2013-02-18T14:17:20.000Z</time>
      </trkpt>
      <trkpt lat="43.99242" lon="5.14497">
        <ele>350.7</ele>
        <time>2013-02-18T14:17:21.000Z</time>
      </trkpt>
      <trkpt lat="43.99239" lon="5.14499">
        <ele>350.7</ele>
        <time>2013-02-18T14:17:25.000Z</time>
      </trkpt>
      <trkpt lat="43.99238" lon="5.14499">
        <ele>350.7</ele>
        <time>2013-02-18T14:17:26.000Z</time>
      </trkpt>
      <trkpt lat="43.99234" lon="5.14502">
        <ele>351.3</ele>
        <time>2013-02-18T14:17:28.000Z</time>
      </trkpt>
      <trkpt lat="43.99231" lon="5.14502">
        <ele>349.6</ele>
        <time>2013-02-18T14:17:29.000Z</time>
      </trkpt>
      <trkpt lat="43.99227" lon="5.14501">
        <ele>349.6</ele>
        <time>2013-02-18T14:17:30.000Z</time>
      </trkpt>
      <trkpt lat="43.99225" lon="5.14501">
        <ele>350.1</ele>
        <time>2013-02-18T14:17:31.000Z</time>
      </trkpt>
      <trkpt lat="43.99222" lon="5.145">
        <ele>349.8</ele>
        <time>2013-02-18T14:17:32.000Z</time>
      </trkpt>
      <trkpt lat="43.9922" lon="5.14501">
        <ele>350.1</ele>
        <time>2013-02-18T14:17:33.000Z</time>
      </trkpt>
      <trkpt lat="43.99217" lon="5.145">
        <ele>351.1</ele>
        <time>2013-02-18T14:17:34.000Z</time>
      </trkpt>
      <trkpt lat="43.99213" lon="5.14499">
        <ele>353.1</ele>
        <time>2013-02-18T14:17:35.000Z</time>
      </trkpt>
      <trkpt lat="43.9921" lon="5.14497">
        <ele>352.7</ele>
        <time>2013-02-18T14:17:36.000Z</time>
      </trkpt>
      <trkpt lat="43.99208" lon="5.14496">
        <ele>351.4</ele>
        <time>2013-02-18T14:17:37.000Z</time>
      </trkpt>
      <trkpt lat="43.99206" lon="5.14494">
        <ele>349.2</ele>
        <time>2013-02-18T14:17:38.000Z</time>
      </trkpt>
      <trkpt lat="43.99202" lon="5.14492">
        <ele>347.7</ele>
        <time>2013-02-18T14:17:39.000Z</time>
      </trkpt>
      <trkpt lat="43.99199" lon="5.14491">
        <ele>346.7</ele>
        <time>2013-02-18T14:17:40.000Z</time>
      </trkpt>
      <trkpt lat="43.99195" lon="5.14487">
        <ele>346.4</ele>
        <time>2013-02-18T14:17:41.000Z</time>
      </trkpt>
      <trkpt lat="43.99191" lon="5.14484">
        <ele>346</ele>
        <time>2013-02-18T14:17:42.000Z</time>
      </trkpt>
      <trkpt lat="43.99186" lon="5.14481">
        <ele>345.4</ele>
        <time>2013-02-18T14:17:43.000Z</time>
      </trkpt>
      <trkpt lat="43.99181" lon="5.14477">
        <ele>345.2</ele>
        <time>2013-02-18T14:17:44.000Z</time>
      </trkpt>
      <trkpt lat="43.99176" lon="5.14475">
        <ele>345.2</ele>
        <time>2013-02-18T14:17:45.000Z</time>
      </trkpt>
      <trkpt lat="43.99172" lon="5.14478">
        <ele>345</ele>
        <time>2013-02-18T14:17:46.000Z</time>
      </trkpt>
      <trkpt lat="43.99169" lon="5.14479">
        <ele>344.5</ele>
        <time>2013-02-18T14:17:47.000Z</time>
      </trkpt>
      <trkpt lat="43.99166" lon="5.1448">
        <ele>344.3</ele>
        <time>2013-02-18T14:17:48.000Z</time>
      </trkpt>
      <trkpt lat="43.99162" lon="5.1448">
        <ele>343.9</ele>
        <time>2013-02-18T14:17:50.000Z</time>
      </trkpt>
      <trkpt lat="43.99158" lon="5.14481">
        <ele>344</ele>
        <time>2013-02-18T14:17:51.000Z</time>
      </trkpt>
      <trkpt lat="43.99157" lon="5.14485">
        <ele>342.2</ele>
        <time>2013-02-18T14:17:52.000Z</time>
      </trkpt>
      <trkpt lat="43.99155" lon="5.14487">
        <ele>342.5</ele>
        <time>2013-02-18T14:17:53.000Z</time>
      </trkpt>
      <trkpt lat="43.99151" lon="5.14487">
        <ele>342.9</ele>
        <time>2013-02-18T14:17:55.000Z</time>
      </trkpt>
      <trkpt lat="43.99149" lon="5.14488">
        <ele>343.1</ele>
        <time>2013-02-18T14:17:56.000Z</time>
      </trkpt>
      <trkpt lat="43.99145" lon="5.14489">
        <ele>345</ele>
        <time>2013-02-18T14:17:58.000Z</time>
      </trkpt>
      <trkpt lat="43.99144" lon="5.1449">
        <ele>347.2</ele>
        <time>2013-02-18T14:17:59.000Z</time>
      </trkpt>
      <trkpt lat="43.99141" lon="5.14493">
        <ele>346.7</ele>
        <time>2013-02-18T14:18:01.000Z</time>
      </trkpt>
      <trkpt lat="43.99138" lon="5.14494">
        <ele>346.2</ele>
        <time>2013-02-18T14:18:02.000Z</time>
      </trkpt>
      <trkpt lat="43.99135" lon="5.14494">
        <ele>345</ele>
        <time>2013-02-18T14:18:04.000Z</time>
      </trkpt>
      <trkpt lat="43.99133" lon="5.14493">
        <ele>344.1</ele>
        <time>2013-02-18T14:18:05.000Z</time>
      </trkpt>
      <trkpt lat="43.9913" lon="5.14498">
        <ele>346</ele>
        <time>2013-02-18T14:18:06.000Z</time>
      </trkpt>
      <trkpt lat="43.99126" lon="5.14498">
        <ele>344</ele>
        <time>2013-02-18T14:18:08.000Z</time>
      </trkpt>
      <trkpt lat="43.99124" lon="5.14499">
        <ele>342.7</ele>
        <time>2013-02-18T14:18:09.000Z</time>
      </trkpt>
      <trkpt lat="43.99119" lon="5.14501">
        <ele>341</ele>
        <time>2013-02-18T14:18:11.000Z</time>
      </trkpt>
      <trkpt lat="43.99117" lon="5.14501">
        <ele>340.9</ele>
        <time>2013-02-18T14:18:12.000Z</time>
      </trkpt>
      <trkpt lat="43.99115" lon="5.14503">
        <ele>340.8</ele>
        <time>2013-02-18T14:18:13.000Z</time>
      </trkpt>
      <trkpt lat="43.99111" lon="5.14506">
        <ele>341.1</ele>
        <time>2013-02-18T14:18:14.000Z</time>
      </trkpt>
      <trkpt lat="43.99108" lon="5.14508">
        <ele>340.2</ele>
        <time>2013-02-18T14:18:15.000Z</time>
      </trkpt>
      <trkpt lat="43.99106" lon="5.14509">
        <ele>340.2</ele>
        <time>2013-02-18T14:18:16.000Z</time>
      </trkpt>
      <trkpt lat="43.99108" lon="5.14513">
        <ele>341.4</ele>
        <time>2013-02-18T14:18:17.000Z</time>
      </trkpt>
      <trkpt lat="43.99107" lon="5.14516">
        <ele>341.3</ele>
        <time>2013-02-18T14:18:18.000Z</time>
      </trkpt>
      <trkpt lat="43.99106" lon="5.14519">
        <ele>341.7</ele>
        <time>2013-02-18T14:18:19.000Z</time>
      </trkpt>
      <trkpt lat="43.99106" lon="5.14523">
        <ele>343.2</ele>
        <time>2013-02-18T14:18:20.000Z</time>
      </trkpt>
      <trkpt lat="43.99103" lon="5.14521">
        <ele>349.6</ele>
        <time>2013-02-18T14:18:24.000Z</time>
      </trkpt>
      <trkpt lat="43.99101" lon="5.1453">
        <ele>349.3</ele>
        <time>2013-02-18T14:18:25.000Z</time>
      </trkpt>
      <trkpt lat="43.99099" lon="5.14534">
        <ele>353.8</ele>
        <time>2013-02-18T14:18:27.000Z</time>
      </trkpt>
      <trkpt lat="43.99097" lon="5.14539">
        <ele>357.5</ele>
        <time>2013-02-18T14:18:28.000Z</time>
      </trkpt>
      <trkpt lat="43.99098" lon="5.14549">
        <ele>355.2</ele>
        <time>2013-02-18T14:18:29.000Z</time>
      </trkpt>
      <trkpt lat="43.99097" lon="5.14554">
        <ele>353.7</ele>
        <time>2013-02-18T14:18:33.000Z</time>
      </trkpt>
      <trkpt lat="43.99096" lon="5.14557">
        <ele>351</ele>
        <time>2013-02-18T14:18:34.000Z</time>
      </trkpt>
      <trkpt lat="43.99095" lon="5.1456">
        <ele>348.9</ele>
        <time>2013-02-18T14:18:35.000Z</time>
      </trkpt>
      <trkpt lat="43.99092" lon="5.14563">
        <ele>347.6</ele>
        <time>2013-02-18T14:18:36.000Z</time>
      </trkpt>
      <trkpt lat="43.99088" lon="5.14557">
        <ele>347.6</ele>
        <time>2013-02-18T14:18:37.000Z</time>
      </trkpt>
      <trkpt lat="43.99085" lon="5.14556">
        <ele>346.9</ele>
        <time>2013-02-18T14:18:38.000Z</time>
      </trkpt>
      <trkpt lat="43.99082" lon="5.14556">
        <ele>346.5</ele>
        <time>2013-02-18T14:18:39.000Z</time>
      </trkpt>
      <trkpt lat="43.99079" lon="5.14556">
        <ele>346.6</ele>
        <time>2013-02-18T14:18:40.000Z</time>
      </trkpt>
      <trkpt lat="43.99075" lon="5.14553">
        <ele>343.5</ele>
        <time>2013-02-18T14:18:41.000Z</time>
      </trkpt>
      <trkpt lat="43.99072" lon="5.14555">
        <ele>343.9</ele>
        <time>2013-02-18T14:18:42.000Z</time>
      </trkpt>
      <trkpt lat="43.99069" lon="5.14556">
        <ele>344.4</ele>
        <time>2013-02-18T14:18:43.000Z</time>
      </trkpt>
      <trkpt lat="43.99066" lon="5.14557">
        <ele>348</ele>
        <time>2013-02-18T14:18:45.000Z</time>
      </trkpt>
      <trkpt lat="43.99063" lon="5.1456">
        <ele>346.3</ele>
        <time>2013-02-18T14:18:46.000Z</time>
      </trkpt>
      <trkpt lat="43.9906" lon="5.14564">
        <ele>346.8</ele>
        <time>2013-02-18T14:18:48.000Z</time>
      </trkpt>
      <trkpt lat="43.99057" lon="5.14566">
        <ele>347</ele>
        <time>2013-02-18T14:18:49.000Z</time>
      </trkpt>
      <trkpt lat="43.99055" lon="5.14567">
        <ele>346.1</ele>
        <time>2013-02-18T14:18:50.000Z</time>
      </trkpt>
      <trkpt lat="43.99053" lon="5.14568">
        <ele>344.1</ele>
        <time>2013-02-18T14:18:51.000Z</time>
      </trkpt>
      <trkpt lat="43.9905" lon="5.1457">
        <ele>343.6</ele>
        <time>2013-02-18T14:18:52.000Z</time>
      </trkpt>
      <trkpt lat="43.99048" lon="5.14571">
        <ele>343.8</ele>
        <time>2013-02-18T14:18:53.000Z</time>
      </trkpt>
      <trkpt lat="43.99047" lon="5.14573">
        <ele>343.5</ele>
        <time>2013-02-18T14:18:54.000Z</time>
      </trkpt>
      <trkpt lat="43.99044" lon="5.14575">
        <ele>345.3</ele>
        <time>2013-02-18T14:18:55.000Z</time>
      </trkpt>
      <trkpt lat="43.9904" lon="5.14578">
        <ele>350.6</ele>
        <time>2013-02-18T14:18:57.000Z</time>
      </trkpt>
      <trkpt lat="43.99038" lon="5.1458">
        <ele>350.9</ele>
        <time>2013-02-18T14:18:58.000Z</time>
      </trkpt>
      <trkpt lat="43.99036" lon="5.14584">
        <ele>351.5</ele>
        <time>2013-02-18T14:18:59.000Z</time>
      </trkpt>
      <trkpt lat="43.99033" lon="5.14587">
        <ele>350.8</ele>
        <time>2013-02-18T14:19:00.000Z</time>
      </trkpt>
      <trkpt lat="43.9903" lon="5.14589">
        <ele>350.2</ele>
        <time>2013-02-18T14:19:01.000Z</time>
      </trkpt>
      <trkpt lat="43.99028" lon="5.14591">
        <ele>349.1</ele>
        <time>2013-02-18T14:19:02.000Z</time>
      </trkpt>
      <trkpt lat="43.99025" lon="5.14593">
        <ele>348.2</ele>
        <time>2013-02-18T14:19:03.000Z</time>
      </trkpt>
      <trkpt lat="43.99023" lon="5.14595">
        <ele>347.1</ele>
        <time>2013-02-18T14:19:04.000Z</time>
      </trkpt>
      <trkpt lat="43.99021" lon="5.14602">
        <ele>348.1</ele>
        <time>2013-02-18T14:19:05.000Z</time>
      </trkpt>
      <trkpt lat="43.9902" lon="5.14604">
        <ele>348.3</ele>
        <time>2013-02-18T14:19:06.000Z</time>
      </trkpt>
      <trkpt lat="43.99018" lon="5.14606">
        <ele>348.5</ele>
        <time>2013-02-18T14:19:07.000Z</time>
      </trkpt>
      <trkpt lat="43.99014" lon="5.14609">
        <ele>349.2</ele>
        <time>2013-02-18T14:19:09.000Z</time>
      </trkpt>
      <trkpt lat="43.99012" lon="5.14613">
        <ele>349.7</ele>
        <time>2013-02-18T14:19:10.000Z</time>
      </trkpt>
      <trkpt lat="43.99009" lon="5.14616">
        <ele>347.7</ele>
        <time>2013-02-18T14:19:11.000Z</time>
      </trkpt>
      <trkpt lat="43.99008" lon="5.14619">
        <ele>347.5</ele>
        <time>2013-02-18T14:19:12.000Z</time>
      </trkpt>
      <trkpt lat="43.99006" lon="5.14621">
        <ele>348</ele>
        <time>2013-02-18T14:19:13.000Z</time>
      </trkpt>
      <trkpt lat="43.99004" lon="5.14623">
        <ele>348.6</ele>
        <time>2013-02-18T14:19:14.000Z</time>
      </trkpt>
      <trkpt lat="43.99002" lon="5.14626">
        <ele>349.3</ele>
        <time>2013-02-18T14:19:15.000Z</time>
      </trkpt>
      <trkpt lat="43.99" lon="5.14629">
        <ele>349.1</ele>
        <time>2013-02-18T14:19:16.000Z</time>
      </trkpt>
      <trkpt lat="43.98998" lon="5.14631">
        <ele>349.1</ele>
        <time>2013-02-18T14:19:17.000Z</time>
      </trkpt>
      <trkpt lat="43.98996" lon="5.14633">
        <ele>349</ele>
        <time>2013-02-18T14:19:18.000Z</time>
      </trkpt>
      <trkpt lat="43.98994" lon="5.14634">
        <ele>349.5</ele>
        <time>2013-02-18T14:19:19.000Z</time>
      </trkpt>
      <trkpt lat="43.98991" lon="5.14637">
        <ele>349.8</ele>
        <time>2013-02-18T14:19:20.000Z</time>
      </trkpt>
      <trkpt lat="43.98989" lon="5.14638">
        <ele>349.9</ele>
        <time>2013-02-18T14:19:21.000Z</time>
      </trkpt>
      <trkpt lat="43.98987" lon="5.14641">
        <ele>350.3</ele>
        <time>2013-02-18T14:19:22.000Z</time>
      </trkpt>
      <trkpt lat="43.98986" lon="5.14646">
        <ele>350.7</ele>
        <time>2013-02-18T14:19:23.000Z</time>
      </trkpt>
      <trkpt lat="43.98982" lon="5.14647">
        <ele>351.1</ele>
        <time>2013-02-18T14:19:24.000Z</time>
      </trkpt>
      <trkpt lat="43.98975" lon="5.14649">
        <ele>337.5</ele>
        <time>2013-02-18T14:19:25.000Z</time>
      </trkpt>
      <trkpt lat="43.98972" lon="5.14653">
        <ele>339.9</ele>
        <time>2013-02-18T14:19:27.000Z</time>
      </trkpt>
      <trkpt lat="43.98969" lon="5.14655">
        <ele>339.3</ele>
        <time>2013-02-18T14:19:28.000Z</time>
      </trkpt>
      <trkpt lat="43.98968" lon="5.14659">
        <ele>338.3</ele>
        <time>2013-02-18T14:19:29.000Z</time>
      </trkpt>
      <trkpt lat="43.98966" lon="5.1466">
        <ele>337.7</ele>
        <time>2013-02-18T14:19:30.000Z</time>
      </trkpt>
      <trkpt lat="43.98962" lon="5.14664">
        <ele>342.6</ele>
        <time>2013-02-18T14:19:32.000Z</time>
      </trkpt>
      <trkpt lat="43.98961" lon="5.14666">
        <ele>341.7</ele>
        <time>2013-02-18T14:19:33.000Z</time>
      </trkpt>
      <trkpt lat="43.98959" lon="5.14668">
        <ele>341</ele>
        <time>2013-02-18T14:19:34.000Z</time>
      </trkpt>
      <trkpt lat="43.98957" lon="5.14669">
        <ele>340.4</ele>
        <time>2013-02-18T14:19:35.000Z</time>
      </trkpt>
      <trkpt lat="43.98954" lon="5.14671">
        <ele>340.6</ele>
        <time>2013-02-18T14:19:36.000Z</time>
      </trkpt>
      <trkpt lat="43.98952" lon="5.14674">
        <ele>340.9</ele>
        <time>2013-02-18T14:19:37.000Z</time>
      </trkpt>
      <trkpt lat="43.98949" lon="5.14674">
        <ele>349</ele>
        <time>2013-02-18T14:20:18.000Z</time>
      </trkpt>
      <trkpt lat="43.98947" lon="5.14672">
        <ele>348.9</ele>
        <time>2013-02-18T14:20:19.000Z</time>
      </trkpt>
      <trkpt lat="43.98943" lon="5.14671">
        <ele>349.1</ele>
        <time>2013-02-18T14:20:21.000Z</time>
      </trkpt>
      <trkpt lat="43.98941" lon="5.14669">
        <ele>348.6</ele>
        <time>2013-02-18T14:20:22.000Z</time>
      </trkpt>
      <trkpt lat="43.98938" lon="5.14665">
        <ele>345.9</ele>
        <time>2013-02-18T14:20:23.000Z</time>
      </trkpt>
      <trkpt lat="43.98936" lon="5.14661">
        <ele>346</ele>
        <time>2013-02-18T14:20:24.000Z</time>
      </trkpt>
      <trkpt lat="43.98934" lon="5.14657">
        <ele>345.7</ele>
        <time>2013-02-18T14:20:25.000Z</time>
      </trkpt>
      <trkpt lat="43.98931" lon="5.14651">
        <ele>346.2</ele>
        <time>2013-02-18T14:20:26.000Z</time>
      </trkpt>
      <trkpt lat="43.98928" lon="5.14645">
        <ele>346.2</ele>
        <time>2013-02-18T14:20:27.000Z</time>
      </trkpt>
      <trkpt lat="43.98925" lon="5.14638">
        <ele>346.4</ele>
        <time>2013-02-18T14:20:28.000Z</time>
      </trkpt>
      <trkpt lat="43.98923" lon="5.14632">
        <ele>346.9</ele>
        <time>2013-02-18T14:20:29.000Z</time>
      </trkpt>
      <trkpt lat="43.98919" lon="5.14629">
        <ele>347.1</ele>
        <time>2013-02-18T14:20:30.000Z</time>
      </trkpt>
      <trkpt lat="43.98915" lon="5.14623">
        <ele>347.5</ele>
        <time>2013-02-18T14:20:31.000Z</time>
      </trkpt>
      <trkpt lat="43.98912" lon="5.14618">
        <ele>347.1</ele>
        <time>2013-02-18T14:20:32.000Z</time>
      </trkpt>
      <trkpt lat="43.98908" lon="5.14612">
        <ele>347.2</ele>
        <time>2013-02-18T14:20:33.000Z</time>
      </trkpt>
      <trkpt lat="43.98903" lon="5.14605">
        <ele>347.4</ele>
        <time>2013-02-18T14:20:34.000Z</time>
      </trkpt>
      <trkpt lat="43.989" lon="5.14597">
        <ele>347.7</ele>
        <time>2013-02-18T14:20:35.000Z</time>
      </trkpt>
      <trkpt lat="43.98894" lon="5.14591">
        <ele>348</ele>
        <time>2013-02-18T14:20:36.000Z</time>
      </trkpt>
      <trkpt lat="43.98887" lon="5.14588">
        <ele>348</ele>
        <time>2013-02-18T14:20:37.000Z</time>
      </trkpt>
      <trkpt lat="43.98881" lon="5.14587">
        <ele>347.8</ele>
        <time>2013-02-18T14:20:38.000Z</time>
      </trkpt>
      <trkpt lat="43.98877" lon="5.14582">
        <ele>348</ele>
        <time>2013-02-18T14:20:39.000Z</time>
      </trkpt>
      <trkpt lat="43.98874" lon="5.14578">
        <ele>348</ele>
        <time>2013-02-18T14:20:40.000Z</time>
      </trkpt>
      <trkpt lat="43.9887" lon="5.14576">
        <ele>347.9</ele>
        <time>2013-02-18T14:20:41.000Z</time>
      </trkpt>
      <trkpt lat="43.98865" lon="5.14575">
        <ele>347.7</ele>
        <time>2013-02-18T14:20:42.000Z</time>
      </trkpt>
      <trkpt lat="43.98871" lon="5.14561">
        <ele>344.5</ele>
        <time>2013-02-18T14:20:43.000Z</time>
      </trkpt>
      <trkpt lat="43.98869" lon="5.14558">
        <ele>345.2</ele>
        <time>2013-02-18T14:20:44.000Z</time>
      </trkpt>
      <trkpt lat="43.98867" lon="5.14554">
        <ele>345.1</ele>
        <time>2013-02-18T14:20:45.000Z</time>
      </trkpt>
      <trkpt lat="43.98865" lon="5.14551">
        <ele>345.6</ele>
        <time>2013-02-18T14:20:46.000Z</time>
      </trkpt>
      <trkpt lat="43.98862" lon="5.14549">
        <ele>345.8</ele>
        <time>2013-02-18T14:20:47.000Z</time>
      </trkpt>
      <trkpt lat="43.9886" lon="5.14546">
        <ele>346.4</ele>
        <time>2013-02-18T14:20:48.000Z</time>
      </trkpt>
      <trkpt lat="43.98859" lon="5.14542">
        <ele>346.2</ele>
        <time>2013-02-18T14:20:49.000Z</time>
      </trkpt>
      <trkpt lat="43.98856" lon="5.14539">
        <ele>346</ele>
        <time>2013-02-18T14:20:50.000Z</time>
      </trkpt>
      <trkpt lat="43.98853" lon="5.14535">
        <ele>345.7</ele>
        <time>2013-02-18T14:20:51.000Z</time>
      </trkpt>
      <trkpt lat="43.98849" lon="5.14531">
        <ele>345.5</ele>
        <time>2013-02-18T14:20:52.000Z</time>
      </trkpt>
      <trkpt lat="43.98845" lon="5.14528">
        <ele>345.1</ele>
        <time>2013-02-18T14:20:53.000Z</time>
      </trkpt>
      <trkpt lat="43.98843" lon="5.1452">
        <ele>344.3</ele>
        <time>2013-02-18T14:20:54.000Z</time>
      </trkpt>
      <trkpt lat="43.9884" lon="5.14517">
        <ele>345.2</ele>
        <time>2013-02-18T14:20:55.000Z</time>
      </trkpt>
      <trkpt lat="43.98835" lon="5.14517">
        <ele>344.2</ele>
        <time>2013-02-18T14:20:56.000Z</time>
      </trkpt>
      <trkpt lat="43.98834" lon="5.14521">
        <ele>345.3</ele>
        <time>2013-02-18T14:20:58.000Z</time>
      </trkpt>
      <trkpt lat="43.9883" lon="5.14522">
        <ele>351.5</ele>
        <time>2013-02-18T14:20:59.000Z</time>
      </trkpt>
      <trkpt lat="43.98838" lon="5.1451">
        <ele>351.2</ele>
        <time>2013-02-18T14:21:00.000Z</time>
      </trkpt>
      <trkpt lat="43.98841" lon="5.14501">
        <ele>350.5</ele>
        <time>2013-02-18T14:21:01.000Z</time>
      </trkpt>
      <trkpt lat="43.98839" lon="5.14495">
        <ele>351.9</ele>
        <time>2013-02-18T14:21:05.000Z</time>
      </trkpt>
      <trkpt lat="43.98839" lon="5.14495">
        <ele>352</ele>
        <time>2013-02-18T14:21:06.000Z</time>
      </trkpt>
      <trkpt lat="43.98837" lon="5.14494">
        <ele>352.4</ele>
        <time>2013-02-18T14:21:15.000Z</time>
      </trkpt>
      <trkpt lat="43.98832" lon="5.14495">
        <ele>351.8</ele>
        <time>2013-02-18T14:21:16.000Z</time>
      </trkpt>
      <trkpt lat="43.9883" lon="5.14496">
        <ele>352.1</ele>
        <time>2013-02-18T14:21:17.000Z</time>
      </trkpt>
      <trkpt lat="43.98827" lon="5.14494">
        <ele>352.3</ele>
        <time>2013-02-18T14:21:18.000Z</time>
      </trkpt>
      <trkpt lat="43.98824" lon="5.14492">
        <ele>352.2</ele>
        <time>2013-02-18T14:21:19.000Z</time>
      </trkpt>
      <trkpt lat="43.98822" lon="5.14491">
        <ele>351.8</ele>
        <time>2013-02-18T14:21:20.000Z</time>
      </trkpt>
      <trkpt lat="43.9882" lon="5.1449">
        <ele>350.8</ele>
        <time>2013-02-18T14:21:21.000Z</time>
      </trkpt>
      <trkpt lat="43.98815" lon="5.14488">
        <ele>345.6</ele>
        <time>2013-02-18T14:21:22.000Z</time>
      </trkpt>
      <trkpt lat="43.98819" lon="5.14482">
        <ele>342.4</ele>
        <time>2013-02-18T14:21:23.000Z</time>
      </trkpt>
      <trkpt lat="43.98821" lon="5.14479">
        <ele>336.3</ele>
        <time>2013-02-18T14:21:25.000Z</time>
      </trkpt>
      <trkpt lat="43.98824" lon="5.14478">
        <ele>335.1</ele>
        <time>2013-02-18T14:21:26.000Z</time>
      </trkpt>
      <trkpt lat="43.98825" lon="5.14475">
        <ele>333.1</ele>
        <time>2013-02-18T14:21:27.000Z</time>
      </trkpt>
      <trkpt lat="43.98827" lon="5.14473">
        <ele>331.5</ele>
        <time>2013-02-18T14:21:28.000Z</time>
      </trkpt>
      <trkpt lat="43.98829" lon="5.1447">
        <ele>330.6</ele>
        <time>2013-02-18T14:21:29.000Z</time>
      </trkpt>
      <trkpt lat="43.98832" lon="5.14467">
        <ele>329.7</ele>
        <time>2013-02-18T14:21:30.000Z</time>
      </trkpt>
      <trkpt lat="43.98833" lon="5.14464">
        <ele>329</ele>
        <time>2013-02-18T14:21:31.000Z</time>
      </trkpt>
      <trkpt lat="43.98835" lon="5.1446">
        <ele>327.9</ele>
        <time>2013-02-18T14:21:32.000Z</time>
      </trkpt>
      <trkpt lat="43.98837" lon="5.14456">
        <ele>327.4</ele>
        <time>2013-02-18T14:21:33.000Z</time>
      </trkpt>
      <trkpt lat="43.9884" lon="5.14453">
        <ele>326</ele>
        <time>2013-02-18T14:21:34.000Z</time>
      </trkpt>
      <trkpt lat="43.98843" lon="5.1445">
        <ele>324.5</ele>
        <time>2013-02-18T14:21:35.000Z</time>
      </trkpt>
      <trkpt lat="43.98845" lon="5.14446">
        <ele>323.8</ele>
        <time>2013-02-18T14:21:36.000Z</time>
      </trkpt>
      <trkpt lat="43.98847" lon="5.14443">
        <ele>322.4</ele>
        <time>2013-02-18T14:21:37.000Z</time>
      </trkpt>
      <trkpt lat="43.9885" lon="5.14439">
        <ele>321.8</ele>
        <time>2013-02-18T14:21:38.000Z</time>
      </trkpt>
      <trkpt lat="43.98849" lon="5.14434">
        <ele>321.1</ele>
        <time>2013-02-18T14:21:41.000Z</time>
      </trkpt>
      <trkpt lat="43.98845" lon="5.14439">
        <ele>319.2</ele>
        <time>2013-02-18T14:21:42.000Z</time>
      </trkpt>
      <trkpt lat="43.98841" lon="5.14442">
        <ele>318</ele>
        <time>2013-02-18T14:21:44.000Z</time>
      </trkpt>
      <trkpt lat="43.98839" lon="5.14442">
        <ele>317.9</ele>
        <time>2013-02-18T14:21:45.000Z</time>
      </trkpt>
      <trkpt lat="43.98837" lon="5.14442">
        <ele>317.9</ele>
        <time>2013-02-18T14:21:46.000Z</time>
      </trkpt>
      <trkpt lat="43.98841" lon="5.14429">
        <ele>319.5</ele>
        <time>2013-02-18T14:21:47.000Z</time>
      </trkpt>
      <trkpt lat="43.98843" lon="5.14426">
        <ele>318</ele>
        <time>2013-02-18T14:21:48.000Z</time>
      </trkpt>
      <trkpt lat="43.98845" lon="5.14423">
        <ele>316.9</ele>
        <time>2013-02-18T14:21:49.000Z</time>
      </trkpt>
      <trkpt lat="43.98848" lon="5.14423">
        <ele>315.6</ele>
        <time>2013-02-18T14:21:50.000Z</time>
      </trkpt>
      <trkpt lat="43.98851" lon="5.14423">
        <ele>315</ele>
        <time>2013-02-18T14:21:51.000Z</time>
      </trkpt>
      <trkpt lat="43.98854" lon="5.14422">
        <ele>314.1</ele>
        <time>2013-02-18T14:21:52.000Z</time>
      </trkpt>
      <trkpt lat="43.98857" lon="5.14421">
        <ele>313.5</ele>
        <time>2013-02-18T14:21:53.000Z</time>
      </trkpt>
      <trkpt lat="43.98859" lon="5.1442">
        <ele>312.8</ele>
        <time>2013-02-18T14:21:54.000Z</time>
      </trkpt>
      <trkpt lat="43.9886" lon="5.14416">
        <ele>313.2</ele>
        <time>2013-02-18T14:21:55.000Z</time>
      </trkpt>
      <trkpt lat="43.9886" lon="5.14411">
        <ele>312.2</ele>
        <time>2013-02-18T14:21:57.000Z</time>
      </trkpt>
      <trkpt lat="43.9886" lon="5.14409">
        <ele>311.8</ele>
        <time>2013-02-18T14:21:58.000Z</time>
      </trkpt>
      <trkpt lat="43.98856" lon="5.14408">
        <ele>311.6</ele>
        <time>2013-02-18T14:22:01.000Z</time>
      </trkpt>
      <trkpt lat="43.98853" lon="5.1441">
        <ele>311.9</ele>
        <time>2013-02-18T14:22:02.000Z</time>
      </trkpt>
      <trkpt lat="43.98851" lon="5.14412">
        <ele>312.1</ele>
        <time>2013-02-18T14:22:03.000Z</time>
      </trkpt>
      <trkpt lat="43.98845" lon="5.1441">
        <ele>315.7</ele>
        <time>2013-02-18T14:22:04.000Z</time>
      </trkpt>
      <trkpt lat="43.98841" lon="5.1441">
        <ele>317.3</ele>
        <time>2013-02-18T14:22:05.000Z</time>
      </trkpt>
      <trkpt lat="43.98838" lon="5.1441">
        <ele>318.2</ele>
        <time>2013-02-18T14:22:06.000Z</time>
      </trkpt>
      <trkpt lat="43.98835" lon="5.14409">
        <ele>318.7</ele>
        <time>2013-02-18T14:22:07.000Z</time>
      </trkpt>
      <trkpt lat="43.98833" lon="5.14409">
        <ele>319</ele>
        <time>2013-02-18T14:22:08.000Z</time>
      </trkpt>
      <trkpt lat="43.9883" lon="5.14411">
        <ele>319.7</ele>
        <time>2013-02-18T14:22:09.000Z</time>
      </trkpt>
      <trkpt lat="43.98827" lon="5.14411">
        <ele>320.1</ele>
        <time>2013-02-18T14:22:10.000Z</time>
      </trkpt>
      <trkpt lat="43.98825" lon="5.1441">
        <ele>320.2</ele>
        <time>2013-02-18T14:22:11.000Z</time>
      </trkpt>
      <trkpt lat="43.98822" lon="5.14408">
        <ele>320.4</ele>
        <time>2013-02-18T14:22:12.000Z</time>
      </trkpt>
      <trkpt lat="43.98818" lon="5.14403">
        <ele>320.2</ele>
        <time>2013-02-18T14:22:13.000Z</time>
      </trkpt>
      <trkpt lat="43.98815" lon="5.14398">
        <ele>319.8</ele>
        <time>2013-02-18T14:22:14.000Z</time>
      </trkpt>
      <trkpt lat="43.98811" lon="5.14391">
        <ele>319.5</ele>
        <time>2013-02-18T14:22:15.000Z</time>
      </trkpt>
      <trkpt lat="43.98808" lon="5.14392">
        <ele>316.2</ele>
        <time>2013-02-18T14:22:16.000Z</time>
      </trkpt>
      <trkpt lat="43.98804" lon="5.1439">
        <ele>314.9</ele>
        <time>2013-02-18T14:22:17.000Z</time>
      </trkpt>
      <trkpt lat="43.98802" lon="5.14386">
        <ele>314.9</ele>
        <time>2013-02-18T14:22:18.000Z</time>
      </trkpt>
      <trkpt lat="43.98799" lon="5.14383">
        <ele>314.3</ele>
        <time>2013-02-18T14:22:19.000Z</time>
      </trkpt>
      <trkpt lat="43.98796" lon="5.14381">
        <ele>314.1</ele>
        <time>2013-02-18T14:22:20.000Z</time>
      </trkpt>
      <trkpt lat="43.98804" lon="5.14366">
        <ele>310.3</ele>
        <time>2013-02-18T14:22:21.000Z</time>
      </trkpt>
      <trkpt lat="43.98803" lon="5.14361">
        <ele>309.7</ele>
        <time>2013-02-18T14:22:22.000Z</time>
      </trkpt>
      <trkpt lat="43.98802" lon="5.14355">
        <ele>308.2</ele>
        <time>2013-02-18T14:22:23.000Z</time>
      </trkpt>
      <trkpt lat="43.988" lon="5.14352">
        <ele>302.7</ele>
        <time>2013-02-18T14:22:24.000Z</time>
      </trkpt>
      <trkpt lat="43.98801" lon="5.14347">
        <ele>299.8</ele>
        <time>2013-02-18T14:22:25.000Z</time>
      </trkpt>
      <trkpt lat="43.98803" lon="5.14343">
        <ele>298.5</ele>
        <time>2013-02-18T14:22:26.000Z</time>
      </trkpt>
      <trkpt lat="43.98808" lon="5.14338">
        <ele>297.7</ele>
        <time>2013-02-18T14:22:27.000Z</time>
      </trkpt>
      <trkpt lat="43.98813" lon="5.14337">
        <ele>297</ele>
        <time>2013-02-18T14:22:28.000Z</time>
      </trkpt>
      <trkpt lat="43.98818" lon="5.14336">
        <ele>295</ele>
        <time>2013-02-18T14:22:29.000Z</time>
      </trkpt>
      <trkpt lat="43.98824" lon="5.14334">
        <ele>294.7</ele>
        <time>2013-02-18T14:22:30.000Z</time>
      </trkpt>
      <trkpt lat="43.9883" lon="5.14333">
        <ele>294.9</ele>
        <time>2013-02-18T14:22:31.000Z</time>
      </trkpt>
      <trkpt lat="43.98836" lon="5.1433">
        <ele>294.7</ele>
        <time>2013-02-18T14:22:32.000Z</time>
      </trkpt>
      <trkpt lat="43.98842" lon="5.1433">
        <ele>294.3</ele>
        <time>2013-02-18T14:22:33.000Z</time>
      </trkpt>
      <trkpt lat="43.98847" lon="5.14328">
        <ele>294.1</ele>
        <time>2013-02-18T14:22:34.000Z</time>
      </trkpt>
      <trkpt lat="43.98853" lon="5.14325">
        <ele>292.8</ele>
        <time>2013-02-18T14:22:35.000Z</time>
      </trkpt>
      <trkpt lat="43.98859" lon="5.14322">
        <ele>291.7</ele>
        <time>2013-02-18T14:22:36.000Z</time>
      </trkpt>
      <trkpt lat="43.98865" lon="5.1432">
        <ele>290.9</ele>
        <time>2013-02-18T14:22:37.000Z</time>
      </trkpt>
      <trkpt lat="43.98872" lon="5.14319">
        <ele>290</ele>
        <time>2013-02-18T14:22:38.000Z</time>
      </trkpt>
      <trkpt lat="43.98878" lon="5.14317">
        <ele>288.9</ele>
        <time>2013-02-18T14:22:39.000Z</time>
      </trkpt>
      <trkpt lat="43.98884" lon="5.14316">
        <ele>288.2</ele>
        <time>2013-02-18T14:22:40.000Z</time>
      </trkpt>
      <trkpt lat="43.98887" lon="5.14313">
        <ele>287.5</ele>
        <time>2013-02-18T14:22:41.000Z</time>
      </trkpt>
      <trkpt lat="43.98891" lon="5.1431">
        <ele>287.5</ele>
        <time>2013-02-18T14:22:42.000Z</time>
      </trkpt>
      <trkpt lat="43.98893" lon="5.14306">
        <ele>283.3</ele>
        <time>2013-02-18T14:22:44.000Z</time>
      </trkpt>
      <trkpt lat="43.98894" lon="5.14302">
        <ele>282.8</ele>
        <time>2013-02-18T14:22:45.000Z</time>
      </trkpt>
      <trkpt lat="43.98894" lon="5.14297">
        <ele>282.7</ele>
        <time>2013-02-18T14:22:46.000Z</time>
      </trkpt>
      <trkpt lat="43.98894" lon="5.14291">
        <ele>283.1</ele>
        <time>2013-02-18T14:22:47.000Z</time>
      </trkpt>
      <trkpt lat="43.98893" lon="5.14285">
        <ele>283.3</ele>
        <time>2013-02-18T14:22:48.000Z</time>
      </trkpt>
      <trkpt lat="43.98893" lon="5.1428">
        <ele>281.1</ele>
        <time>2013-02-18T14:22:49.000Z</time>
      </trkpt>
      <trkpt lat="43.98896" lon="5.14275">
        <ele>280.1</ele>
        <time>2013-02-18T14:22:50.000Z</time>
      </trkpt>
      <trkpt lat="43.98898" lon="5.14271">
        <ele>279.4</ele>
        <time>2013-02-18T14:22:51.000Z</time>
      </trkpt>
      <trkpt lat="43.98903" lon="5.14269">
        <ele>278</ele>
        <time>2013-02-18T14:22:52.000Z</time>
      </trkpt>
      <trkpt lat="43.98906" lon="5.14267">
        <ele>277.2</ele>
        <time>2013-02-18T14:22:53.000Z</time>
      </trkpt>
      <trkpt lat="43.98909" lon="5.14265">
        <ele>276.6</ele>
        <time>2013-02-18T14:22:54.000Z</time>
      </trkpt>
      <trkpt lat="43.9891" lon="5.14262">
        <ele>276.9</ele>
        <time>2013-02-18T14:22:55.000Z</time>
      </trkpt>
      <trkpt lat="43.98912" lon="5.1426">
        <ele>276.6</ele>
        <time>2013-02-18T14:22:56.000Z</time>
      </trkpt>
      <trkpt lat="43.98915" lon="5.14257">
        <ele>276</ele>
        <time>2013-02-18T14:22:57.000Z</time>
      </trkpt>
      <trkpt lat="43.98918" lon="5.14254">
        <ele>275.7</ele>
        <time>2013-02-18T14:22:58.000Z</time>
      </trkpt>
      <trkpt lat="43.9892" lon="5.14251">
        <ele>274.9</ele>
        <time>2013-02-18T14:22:59.000Z</time>
      </trkpt>
      <trkpt lat="43.98923" lon="5.14248">
        <ele>274.3</ele>
        <time>2013-02-18T14:23:00.000Z</time>
      </trkpt>
      <trkpt lat="43.9892" lon="5.14243">
        <ele>273.1</ele>
        <time>2013-02-18T14:23:01.000Z</time>
      </trkpt>
      <trkpt lat="43.98919" lon="5.14239">
        <ele>272.7</ele>
        <time>2013-02-18T14:23:02.000Z</time>
      </trkpt>
      <trkpt lat="43.98915" lon="5.14237">
        <ele>270.5</ele>
        <time>2013-02-18T14:23:03.000Z</time>
      </trkpt>
      <trkpt lat="43.98912" lon="5.14234">
        <ele>269.4</ele>
        <time>2013-02-18T14:23:04.000Z</time>
      </trkpt>
      <trkpt lat="43.98908" lon="5.14234">
        <ele>268.9</ele>
        <time>2013-02-18T14:23:05.000Z</time>
      </trkpt>
      <trkpt lat="43.98904" lon="5.14232">
        <ele>268</ele>
        <time>2013-02-18T14:23:06.000Z</time>
      </trkpt>
      <trkpt lat="43.98901" lon="5.1423">
        <ele>267</ele>
        <time>2013-02-18T14:23:07.000Z</time>
      </trkpt>
      <trkpt lat="43.98897" lon="5.14229">
        <ele>266.7</ele>
        <time>2013-02-18T14:23:08.000Z</time>
      </trkpt>
      <trkpt lat="43.98894" lon="5.14231">
        <ele>266.4</ele>
        <time>2013-02-18T14:23:09.000Z</time>
      </trkpt>
      <trkpt lat="43.9889" lon="5.14232">
        <ele>266.8</ele>
        <time>2013-02-18T14:23:10.000Z</time>
      </trkpt>
      <trkpt lat="43.98887" lon="5.14233">
        <ele>267.5</ele>
        <time>2013-02-18T14:23:11.000Z</time>
      </trkpt>
      <trkpt lat="43.98884" lon="5.14234">
        <ele>268.2</ele>
        <time>2013-02-18T14:23:12.000Z</time>
      </trkpt>
      <trkpt lat="43.9888" lon="5.14235">
        <ele>268.4</ele>
        <time>2013-02-18T14:23:13.000Z</time>
      </trkpt>
      <trkpt lat="43.98877" lon="5.14236">
        <ele>268.3</ele>
        <time>2013-02-18T14:23:14.000Z</time>
      </trkpt>
      <trkpt lat="43.98875" lon="5.14235">
        <ele>268.9</ele>
        <time>2013-02-18T14:23:15.000Z</time>
      </trkpt>
      <trkpt lat="43.98873" lon="5.14238">
        <ele>269.4</ele>
        <time>2013-02-18T14:23:16.000Z</time>
      </trkpt>
      <trkpt lat="43.9887" lon="5.14239">
        <ele>269.6</ele>
        <time>2013-02-18T14:23:17.000Z</time>
      </trkpt>
      <trkpt lat="43.98865" lon="5.14241">
        <ele>269.6</ele>
        <time>2013-02-18T14:23:18.000Z</time>
      </trkpt>
      <trkpt lat="43.98861" lon="5.14242">
        <ele>270</ele>
        <time>2013-02-18T14:23:19.000Z</time>
      </trkpt>
      <trkpt lat="43.98858" lon="5.14242">
        <ele>270.2</ele>
        <time>2013-02-18T14:23:20.000Z</time>
      </trkpt>
      <trkpt lat="43.98855" lon="5.14242">
        <ele>270.2</ele>
        <time>2013-02-18T14:23:21.000Z</time>
      </trkpt>
      <trkpt lat="43.98854" lon="5.14236">
        <ele>268.7</ele>
        <time>2013-02-18T14:24:11.000Z</time>
      </trkpt>
      <trkpt lat="43.98854" lon="5.14236">
        <ele>268.8</ele>
        <time>2013-02-18T14:24:12.000Z</time>
      </trkpt>
      <trkpt lat="43.9885" lon="5.14234">
        <ele>272.9</ele>
        <time>2013-02-18T14:26:22.000Z</time>
      </trkpt>
      <trkpt lat="43.9885" lon="5.14234">
        <ele>272.7</ele>
        <time>2013-02-18T14:26:23.000Z</time>
      </trkpt>
      <trkpt lat="43.98846" lon="5.1423">
        <ele>271.6</ele>
        <time>2013-02-18T14:26:25.000Z</time>
      </trkpt>
      <trkpt lat="43.98845" lon="5.14229">
        <ele>272</ele>
        <time>2013-02-18T14:26:26.000Z</time>
      </trkpt>
      <trkpt lat="43.98843" lon="5.14222">
        <ele>271.6</ele>
        <time>2013-02-18T14:26:27.000Z</time>
      </trkpt>
      <trkpt lat="43.98841" lon="5.14219">
        <ele>271.5</ele>
        <time>2013-02-18T14:26:28.000Z</time>
      </trkpt>
      <trkpt lat="43.98839" lon="5.14217">
        <ele>270.9</ele>
        <time>2013-02-18T14:26:29.000Z</time>
      </trkpt>
      <trkpt lat="43.98838" lon="5.14215">
        <ele>270.9</ele>
        <time>2013-02-18T14:26:30.000Z</time>
      </trkpt>
      <trkpt lat="43.98835" lon="5.14213">
        <ele>269.3</ele>
        <time>2013-02-18T14:26:31.000Z</time>
      </trkpt>
      <trkpt lat="43.98832" lon="5.14211">
        <ele>269.2</ele>
        <time>2013-02-18T14:26:32.000Z</time>
      </trkpt>
      <trkpt lat="43.9883" lon="5.14208">
        <ele>268.8</ele>
        <time>2013-02-18T14:26:33.000Z</time>
      </trkpt>
      <trkpt lat="43.98828" lon="5.14206">
        <ele>268.6</ele>
        <time>2013-02-18T14:26:34.000Z</time>
      </trkpt>
      <trkpt lat="43.98827" lon="5.14202">
        <ele>268.5</ele>
        <time>2013-02-18T14:26:35.000Z</time>
      </trkpt>
      <trkpt lat="43.98825" lon="5.14199">
        <ele>268.9</ele>
        <time>2013-02-18T14:26:36.000Z</time>
      </trkpt>
      <trkpt lat="43.98824" lon="5.14195">
        <ele>268.5</ele>
        <time>2013-02-18T14:26:37.000Z</time>
      </trkpt>
      <trkpt lat="43.98822" lon="5.14193">
        <ele>269.4</ele>
        <time>2013-02-18T14:26:38.000Z</time>
      </trkpt>
      <trkpt lat="43.98821" lon="5.1419">
        <ele>270.4</ele>
        <time>2013-02-18T14:26:39.000Z</time>
      </trkpt>
      <trkpt lat="43.9882" lon="5.14187">
        <ele>271.7</ele>
        <time>2013-02-18T14:26:40.000Z</time>
      </trkpt>
      <trkpt lat="43.98819" lon="5.14182">
        <ele>271.9</ele>
        <time>2013-02-18T14:26:41.000Z</time>
      </trkpt>
      <trkpt lat="43.98817" lon="5.1418">
        <ele>272.2</ele>
        <time>2013-02-18T14:26:42.000Z</time>
      </trkpt>
      <trkpt lat="43.98816" lon="5.14177">
        <ele>272.7</ele>
        <time>2013-02-18T14:26:43.000Z</time>
      </trkpt>
      <trkpt lat="43.98813" lon="5.14171">
        <ele>273.6</ele>
        <time>2013-02-18T14:26:45.000Z</time>
      </trkpt>
      <trkpt lat="43.98812" lon="5.14169">
        <ele>274.3</ele>
        <time>2013-02-18T14:26:46.000Z</time>
      </trkpt>
      <trkpt lat="43.9881" lon="5.14167">
        <ele>274.8</ele>
        <time>2013-02-18T14:26:47.000Z</time>
      </trkpt>
      <trkpt lat="43.98808" lon="5.14166">
        <ele>275.6</ele>
        <time>2013-02-18T14:26:48.000Z</time>
      </trkpt>
      <trkpt lat="43.98805" lon="5.14162">
        <ele>276</ele>
        <time>2013-02-18T14:26:50.000Z</time>
      </trkpt>
      <trkpt lat="43.98802" lon="5.14161">
        <ele>276.4</ele>
        <time>2013-02-18T14:26:51.000Z</time>
      </trkpt>
      <trkpt lat="43.98798" lon="5.1416">
        <ele>276.6</ele>
        <time>2013-02-18T14:26:53.000Z</time>
      </trkpt>
      <trkpt lat="43.98796" lon="5.14159">
        <ele>276.7</ele>
        <time>2013-02-18T14:26:54.000Z</time>
      </trkpt>
      <trkpt lat="43.98792" lon="5.14158">
        <ele>276.7</ele>
        <time>2013-02-18T14:26:56.000Z</time>
      </trkpt>
      <trkpt lat="43.9879" lon="5.14158">
        <ele>277</ele>
        <time>2013-02-18T14:26:57.000Z</time>
      </trkpt>
      <trkpt lat="43.98787" lon="5.14159">
        <ele>277.3</ele>
        <time>2013-02-18T14:26:59.000Z</time>
      </trkpt>
      <trkpt lat="43.98785" lon="5.14159">
        <ele>277.6</ele>
        <time>2013-02-18T14:27:00.000Z</time>
      </trkpt>
      <trkpt lat="43.98781" lon="5.1416">
        <ele>278.1</ele>
        <time>2013-02-18T14:27:02.000Z</time>
      </trkpt>
      <trkpt lat="43.98779" lon="5.1416">
        <ele>278.2</ele>
        <time>2013-02-18T14:27:03.000Z</time>
      </trkpt>
      <trkpt lat="43.98776" lon="5.14161">
        <ele>278.5</ele>
        <time>2013-02-18T14:27:05.000Z</time>
      </trkpt>
      <trkpt lat="43.98774" lon="5.14161">
        <ele>278.5</ele>
        <time>2013-02-18T14:27:06.000Z</time>
      </trkpt>
      <trkpt lat="43.9877" lon="5.14162">
        <ele>278.8</ele>
        <time>2013-02-18T14:27:08.000Z</time>
      </trkpt>
      <trkpt lat="43.98768" lon="5.14163">
        <ele>279</ele>
        <time>2013-02-18T14:27:09.000Z</time>
      </trkpt>
      <trkpt lat="43.98765" lon="5.14164">
        <ele>279.4</ele>
        <time>2013-02-18T14:27:11.000Z</time>
      </trkpt>
      <trkpt lat="43.98763" lon="5.14164">
        <ele>279.6</ele>
        <time>2013-02-18T14:27:12.000Z</time>
      </trkpt>
      <trkpt lat="43.98759" lon="5.14165">
        <ele>280.3</ele>
        <time>2013-02-18T14:27:14.000Z</time>
      </trkpt>
      <trkpt lat="43.98758" lon="5.14166">
        <ele>280.3</ele>
        <time>2013-02-18T14:27:15.000Z</time>
      </trkpt>
      <trkpt lat="43.98754" lon="5.14167">
        <ele>280.5</ele>
        <time>2013-02-18T14:27:17.000Z</time>
      </trkpt>
      <trkpt lat="43.98752" lon="5.14167">
        <ele>280.6</ele>
        <time>2013-02-18T14:27:18.000Z</time>
      </trkpt>
      <trkpt lat="43.9875" lon="5.14168">
        <ele>281.2</ele>
        <time>2013-02-18T14:27:19.000Z</time>
      </trkpt>
      <trkpt lat="43.98748" lon="5.14169">
        <ele>281.9</ele>
        <time>2013-02-18T14:27:20.000Z</time>
      </trkpt>
      <trkpt lat="43.98745" lon="5.14172">
        <ele>284</ele>
        <time>2013-02-18T14:27:22.000Z</time>
      </trkpt>
      <trkpt lat="43.98744" lon="5.14174">
        <ele>284.7</ele>
        <time>2013-02-18T14:27:23.000Z</time>
      </trkpt>
      <trkpt lat="43.9874" lon="5.14175">
        <ele>284.8</ele>
        <time>2013-02-18T14:27:26.000Z</time>
      </trkpt>
      <trkpt lat="43.98738" lon="5.14175">
        <ele>285.2</ele>
        <time>2013-02-18T14:27:27.000Z</time>
      </trkpt>
      <trkpt lat="43.98735" lon="5.14176">
        <ele>285.5</ele>
        <time>2013-02-18T14:27:29.000Z</time>
      </trkpt>
      <trkpt lat="43.98733" lon="5.14176">
        <ele>285.4</ele>
        <time>2013-02-18T14:27:30.000Z</time>
      </trkpt>
      <trkpt lat="43.98729" lon="5.14177">
        <ele>285.7</ele>
        <time>2013-02-18T14:27:33.000Z</time>
      </trkpt>
      <trkpt lat="43.98728" lon="5.14178">
        <ele>285.7</ele>
        <time>2013-02-18T14:27:34.000Z</time>
      </trkpt>
      <trkpt lat="43.98726" lon="5.14179">
        <ele>285.6</ele>
        <time>2013-02-18T14:27:35.000Z</time>
      </trkpt>
      <trkpt lat="43.98723" lon="5.1418">
        <ele>285.5</ele>
        <time>2013-02-18T14:27:36.000Z</time>
      </trkpt>
      <trkpt lat="43.98719" lon="5.14181">
        <ele>286.3</ele>
        <time>2013-02-18T14:27:38.000Z</time>
      </trkpt>
      <trkpt lat="43.98718" lon="5.14181">
        <ele>286.5</ele>
        <time>2013-02-18T14:27:39.000Z</time>
      </trkpt>
      <trkpt lat="43.98715" lon="5.14184">
        <ele>287.6</ele>
        <time>2013-02-18T14:27:43.000Z</time>
      </trkpt>
      <trkpt lat="43.98714" lon="5.14184">
        <ele>287.3</ele>
        <time>2013-02-18T14:27:44.000Z</time>
      </trkpt>
      <trkpt lat="43.9871" lon="5.14181">
        <ele>287.8</ele>
        <time>2013-02-18T14:27:47.000Z</time>
      </trkpt>
      <trkpt lat="43.98707" lon="5.14182">
        <ele>287.4</ele>
        <time>2013-02-18T14:27:48.000Z</time>
      </trkpt>
      <trkpt lat="43.98703" lon="5.14183">
        <ele>287.4</ele>
        <time>2013-02-18T14:27:50.000Z</time>
      </trkpt>
      <trkpt lat="43.98701" lon="5.14183">
        <ele>287.5</ele>
        <time>2013-02-18T14:27:51.000Z</time>
      </trkpt>
      <trkpt lat="43.98698" lon="5.14185">
        <ele>288.3</ele>
        <time>2013-02-18T14:27:53.000Z</time>
      </trkpt>
      <trkpt lat="43.98696" lon="5.14185">
        <ele>288.6</ele>
        <time>2013-02-18T14:27:54.000Z</time>
      </trkpt>
      <trkpt lat="43.98693" lon="5.14186">
        <ele>289</ele>
        <time>2013-02-18T14:27:56.000Z</time>
      </trkpt>
      <trkpt lat="43.98692" lon="5.14186">
        <ele>289.1</ele>
        <time>2013-02-18T14:27:57.000Z</time>
      </trkpt>
      <trkpt lat="43.98688" lon="5.14186">
        <ele>287.9</ele>
        <time>2013-02-18T14:27:59.000Z</time>
      </trkpt>
      <trkpt lat="43.98686" lon="5.14187">
        <ele>288.1</ele>
        <time>2013-02-18T14:28:00.000Z</time>
      </trkpt>
      <trkpt lat="43.98682" lon="5.14187">
        <ele>288.6</ele>
        <time>2013-02-18T14:28:04.000Z</time>
      </trkpt>
      <trkpt lat="43.9868" lon="5.14188">
        <ele>288.6</ele>
        <time>2013-02-18T14:28:05.000Z</time>
      </trkpt>
      <trkpt lat="43.98677" lon="5.14188">
        <ele>288.2</ele>
        <time>2013-02-18T14:28:07.000Z</time>
      </trkpt>
      <trkpt lat="43.98675" lon="5.14189">
        <ele>288.6</ele>
        <time>2013-02-18T14:28:08.000Z</time>
      </trkpt>
      <trkpt lat="43.98672" lon="5.14189">
        <ele>288.6</ele>
        <time>2013-02-18T14:28:10.000Z</time>
      </trkpt>
      <trkpt lat="43.9867" lon="5.14189">
        <ele>288.2</ele>
        <time>2013-02-18T14:28:11.000Z</time>
      </trkpt>
      <trkpt lat="43.98666" lon="5.1419">
        <ele>287.9</ele>
        <time>2013-02-18T14:28:14.000Z</time>
      </trkpt>
      <trkpt lat="43.98664" lon="5.14189">
        <ele>288.3</ele>
        <time>2013-02-18T14:28:15.000Z</time>
      </trkpt>
      <trkpt lat="43.9866" lon="5.14186">
        <ele>288</ele>
        <time>2013-02-18T14:28:18.000Z</time>
      </trkpt>
      <trkpt lat="43.9866" lon="5.14185">
        <ele>287.7</ele>
        <time>2013-02-18T14:28:19.000Z</time>
      </trkpt>
      <trkpt lat="43.98658" lon="5.14182">
        <ele>287.4</ele>
        <time>2013-02-18T14:28:21.000Z</time>
      </trkpt>
      <trkpt lat="43.98653" lon="5.14188">
        <ele>290.1</ele>
        <time>2013-02-18T14:28:22.000Z</time>
      </trkpt>
      <trkpt lat="43.98649" lon="5.14188">
        <ele>291.1</ele>
        <time>2013-02-18T14:28:25.000Z</time>
      </trkpt>
      <trkpt lat="43.98647" lon="5.14188">
        <ele>291.2</ele>
        <time>2013-02-18T14:28:26.000Z</time>
      </trkpt>
      <trkpt lat="43.98644" lon="5.14187">
        <ele>294</ele>
        <time>2013-02-18T14:28:29.000Z</time>
      </trkpt>
      <trkpt lat="43.98642" lon="5.14186">
        <ele>293.9</ele>
        <time>2013-02-18T14:28:30.000Z</time>
      </trkpt>
      <trkpt lat="43.98639" lon="5.14182">
        <ele>295.2</ele>
        <time>2013-02-18T14:28:33.000Z</time>
      </trkpt>
      <trkpt lat="43.98638" lon="5.14181">
        <ele>295.9</ele>
        <time>2013-02-18T14:28:34.000Z</time>
      </trkpt>
      <trkpt lat="43.98635" lon="5.14178">
        <ele>295.8</ele>
        <time>2013-02-18T14:28:36.000Z</time>
      </trkpt>
      <trkpt lat="43.98634" lon="5.14177">
        <ele>295.7</ele>
        <time>2013-02-18T14:28:37.000Z</time>
      </trkpt>
      <trkpt lat="43.98632" lon="5.14176">
        <ele>296.6</ele>
        <time>2013-02-18T14:28:39.000Z</time>
      </trkpt>
      <trkpt lat="43.9863" lon="5.14176">
        <ele>296.5</ele>
        <time>2013-02-18T14:28:40.000Z</time>
      </trkpt>
      <trkpt lat="43.98626" lon="5.14173">
        <ele>296.9</ele>
        <time>2013-02-18T14:28:43.000Z</time>
      </trkpt>
      <trkpt lat="43.98625" lon="5.14171">
        <ele>296.5</ele>
        <time>2013-02-18T14:28:44.000Z</time>
      </trkpt>
      <trkpt lat="43.98623" lon="5.1417">
        <ele>296.9</ele>
        <time>2013-02-18T14:28:45.000Z</time>
      </trkpt>
      <trkpt lat="43.9862" lon="5.1417">
        <ele>297.7</ele>
        <time>2013-02-18T14:28:46.000Z</time>
      </trkpt>
      <trkpt lat="43.98617" lon="5.14169">
        <ele>297.7</ele>
        <time>2013-02-18T14:28:48.000Z</time>
      </trkpt>
      <trkpt lat="43.98613" lon="5.14169">
        <ele>297.8</ele>
        <time>2013-02-18T14:28:49.000Z</time>
      </trkpt>
      <trkpt lat="43.9861" lon="5.14167">
        <ele>300</ele>
        <time>2013-02-18T14:28:52.000Z</time>
      </trkpt>
      <trkpt lat="43.98608" lon="5.14167">
        <ele>300.1</ele>
        <time>2013-02-18T14:28:53.000Z</time>
      </trkpt>
      <trkpt lat="43.98607" lon="5.14162">
        <ele>301.6</ele>
        <time>2013-02-18T14:28:56.000Z</time>
      </trkpt>
      <trkpt lat="43.98608" lon="5.1416">
        <ele>302</ele>
        <time>2013-02-18T14:28:57.000Z</time>
      </trkpt>
      <trkpt lat="43.98604" lon="5.14158">
        <ele>302.4</ele>
        <time>2013-02-18T14:28:59.000Z</time>
      </trkpt>
      <trkpt lat="43.98602" lon="5.14157">
        <ele>302.4</ele>
        <time>2013-02-18T14:29:00.000Z</time>
      </trkpt>
      <trkpt lat="43.98599" lon="5.14154">
        <ele>302.9</ele>
        <time>2013-02-18T14:29:02.000Z</time>
      </trkpt>
      <trkpt lat="43.98596" lon="5.14154">
        <ele>302.5</ele>
        <time>2013-02-18T14:29:03.000Z</time>
      </trkpt>
      <trkpt lat="43.98591" lon="5.14156">
        <ele>302.6</ele>
        <time>2013-02-18T14:29:04.000Z</time>
      </trkpt>
      <trkpt lat="43.9859" lon="5.14151">
        <ele>302.6</ele>
        <time>2013-02-18T14:29:08.000Z</time>
      </trkpt>
      <trkpt lat="43.98589" lon="5.14149">
        <ele>302.6</ele>
        <time>2013-02-18T14:29:09.000Z</time>
      </trkpt>
      <trkpt lat="43.98586" lon="5.14147">
        <ele>303.8</ele>
        <time>2013-02-18T14:29:14.000Z</time>
      </trkpt>
      <trkpt lat="43.98584" lon="5.14145">
        <ele>303.9</ele>
        <time>2013-02-18T14:29:15.000Z</time>
      </trkpt>
      <trkpt lat="43.98581" lon="5.14146">
        <ele>304.5</ele>
        <time>2013-02-18T14:29:16.000Z</time>
      </trkpt>
      <trkpt lat="43.98578" lon="5.14148">
        <ele>305.5</ele>
        <time>2013-02-18T14:29:17.000Z</time>
      </trkpt>
      <trkpt lat="43.98577" lon="5.14145">
        <ele>306.1</ele>
        <time>2013-02-18T14:29:20.000Z</time>
      </trkpt>
      <trkpt lat="43.98572" lon="5.14149">
        <ele>307.3</ele>
        <time>2013-02-18T14:29:21.000Z</time>
      </trkpt>
      <trkpt lat="43.98569" lon="5.14147">
        <ele>308.3</ele>
        <time>2013-02-18T14:29:23.000Z</time>
      </trkpt>
      <trkpt lat="43.98568" lon="5.14145">
        <ele>308.7</ele>
        <time>2013-02-18T14:29:24.000Z</time>
      </trkpt>
      <trkpt lat="43.98567" lon="5.14146">
        <ele>309</ele>
        <time>2013-02-18T14:29:25.000Z</time>
      </trkpt>
      <trkpt lat="43.98564" lon="5.14148">
        <ele>310</ele>
        <time>2013-02-18T14:29:26.000Z</time>
      </trkpt>
      <trkpt lat="43.9856" lon="5.14149">
        <ele>311.3</ele>
        <time>2013-02-18T14:29:30.000Z</time>
      </trkpt>
      <trkpt lat="43.98557" lon="5.14148">
        <ele>312</ele>
        <time>2013-02-18T14:29:31.000Z</time>
      </trkpt>
      <trkpt lat="43.98552" lon="5.14148">
        <ele>312.4</ele>
        <time>2013-02-18T14:29:35.000Z</time>
      </trkpt>
      <trkpt lat="43.9855" lon="5.14149">
        <ele>312.6</ele>
        <time>2013-02-18T14:29:36.000Z</time>
      </trkpt>
      <trkpt lat="43.98548" lon="5.1415">
        <ele>313.1</ele>
        <time>2013-02-18T14:29:38.000Z</time>
      </trkpt>
      <trkpt lat="43.98544" lon="5.14153">
        <ele>314.6</ele>
        <time>2013-02-18T14:29:39.000Z</time>
      </trkpt>
      <trkpt lat="43.98541" lon="5.14153">
        <ele>315.1</ele>
        <time>2013-02-18T14:29:41.000Z</time>
      </trkpt>
      <trkpt lat="43.98539" lon="5.14153">
        <ele>315.2</ele>
        <time>2013-02-18T14:29:42.000Z</time>
      </trkpt>
      <trkpt lat="43.98535" lon="5.14153">
        <ele>316.4</ele>
        <time>2013-02-18T14:29:44.000Z</time>
      </trkpt>
      <trkpt lat="43.98531" lon="5.14154">
        <ele>317.1</ele>
        <time>2013-02-18T14:29:45.000Z</time>
      </trkpt>
      <trkpt lat="43.98527" lon="5.14154">
        <ele>318.8</ele>
        <time>2013-02-18T14:29:49.000Z</time>
      </trkpt>
      <trkpt lat="43.98526" lon="5.14151">
        <ele>318.7</ele>
        <time>2013-02-18T14:29:50.000Z</time>
      </trkpt>
      <trkpt lat="43.98523" lon="5.14152">
        <ele>319.6</ele>
        <time>2013-02-18T14:29:52.000Z</time>
      </trkpt>
      <trkpt lat="43.98521" lon="5.14155">
        <ele>320.6</ele>
        <time>2013-02-18T14:29:53.000Z</time>
      </trkpt>
      <trkpt lat="43.98519" lon="5.14151">
        <ele>322.3</ele>
        <time>2013-02-18T14:29:58.000Z</time>
      </trkpt>
      <trkpt lat="43.98517" lon="5.14151">
        <ele>323.2</ele>
        <time>2013-02-18T14:29:59.000Z</time>
      </trkpt>
      <trkpt lat="43.98514" lon="5.14152">
        <ele>323.4</ele>
        <time>2013-02-18T14:30:02.000Z</time>
      </trkpt>
      <trkpt lat="43.9851" lon="5.14153">
        <ele>323.7</ele>
        <time>2013-02-18T14:30:03.000Z</time>
      </trkpt>
      <trkpt lat="43.98509" lon="5.14151">
        <ele>324.1</ele>
        <time>2013-02-18T14:30:05.000Z</time>
      </trkpt>
      <trkpt lat="43.98505" lon="5.14153">
        <ele>324.4</ele>
        <time>2013-02-18T14:30:06.000Z</time>
      </trkpt>
      <trkpt lat="43.98501" lon="5.14154">
        <ele>324.9</ele>
        <time>2013-02-18T14:30:08.000Z</time>
      </trkpt>
      <trkpt lat="43.985" lon="5.14155">
        <ele>324.9</ele>
        <time>2013-02-18T14:30:09.000Z</time>
      </trkpt>
      <trkpt lat="43.98496" lon="5.14157">
        <ele>324.2</ele>
        <time>2013-02-18T14:30:12.000Z</time>
      </trkpt>
      <trkpt lat="43.98495" lon="5.14158">
        <ele>324.8</ele>
        <time>2013-02-18T14:30:13.000Z</time>
      </trkpt>
      <trkpt lat="43.98492" lon="5.14162">
        <ele>316.7</ele>
        <time>2013-02-18T14:30:24.000Z</time>
      </trkpt>
      <trkpt lat="43.98491" lon="5.14163">
        <ele>316.5</ele>
        <time>2013-02-18T14:30:25.000Z</time>
      </trkpt>
      <trkpt lat="43.98488" lon="5.14167">
        <ele>316.7</ele>
        <time>2013-02-18T14:30:28.000Z</time>
      </trkpt>
      <trkpt lat="43.98487" lon="5.14169">
        <ele>316.8</ele>
        <time>2013-02-18T14:30:29.000Z</time>
      </trkpt>
      <trkpt lat="43.98485" lon="5.14172">
        <ele>316.9</ele>
        <time>2013-02-18T14:30:32.000Z</time>
      </trkpt>
      <trkpt lat="43.98483" lon="5.14174">
        <ele>316.6</ele>
        <time>2013-02-18T14:30:33.000Z</time>
      </trkpt>
      <trkpt lat="43.9848" lon="5.14177">
        <ele>316.8</ele>
        <time>2013-02-18T14:30:36.000Z</time>
      </trkpt>
      <trkpt lat="43.98479" lon="5.14178">
        <ele>317.1</ele>
        <time>2013-02-18T14:30:37.000Z</time>
      </trkpt>
      <trkpt lat="43.98476" lon="5.14181">
        <ele>318.3</ele>
        <time>2013-02-18T14:30:40.000Z</time>
      </trkpt>
      <trkpt lat="43.98475" lon="5.14182">
        <ele>318</ele>
        <time>2013-02-18T14:30:41.000Z</time>
      </trkpt>
      <trkpt lat="43.98471" lon="5.14183">
        <ele>318.1</ele>
        <time>2013-02-18T14:30:44.000Z</time>
      </trkpt>
      <trkpt lat="43.9847" lon="5.14184">
        <ele>318.2</ele>
        <time>2013-02-18T14:30:45.000Z</time>
      </trkpt>
      <trkpt lat="43.98466" lon="5.14182">
        <ele>316.3</ele>
        <time>2013-02-18T14:31:13.000Z</time>
      </trkpt>
      <trkpt lat="43.98465" lon="5.14184">
        <ele>316.8</ele>
        <time>2013-02-18T14:31:14.000Z</time>
      </trkpt>
      <trkpt lat="43.98462" lon="5.14188">
        <ele>315.6</ele>
        <time>2013-02-18T14:31:22.000Z</time>
      </trkpt>
      <trkpt lat="43.98461" lon="5.14188">
        <ele>316.4</ele>
        <time>2013-02-18T14:31:23.000Z</time>
      </trkpt>
      <trkpt lat="43.98457" lon="5.14189">
        <ele>316.2</ele>
        <time>2013-02-18T14:31:26.000Z</time>
      </trkpt>
      <trkpt lat="43.98456" lon="5.1419">
        <ele>316.5</ele>
        <time>2013-02-18T14:31:27.000Z</time>
      </trkpt>
      <trkpt lat="43.98453" lon="5.14191">
        <ele>317.1</ele>
        <time>2013-02-18T14:31:29.000Z</time>
      </trkpt>
      <trkpt lat="43.98451" lon="5.14191">
        <ele>317.7</ele>
        <time>2013-02-18T14:31:30.000Z</time>
      </trkpt>
      <trkpt lat="43.98448" lon="5.14192">
        <ele>317.8</ele>
        <time>2013-02-18T14:31:32.000Z</time>
      </trkpt>
      <trkpt lat="43.98447" lon="5.14193">
        <ele>317.6</ele>
        <time>2013-02-18T14:31:33.000Z</time>
      </trkpt>
      <trkpt lat="43.98443" lon="5.14195">
        <ele>317.7</ele>
        <time>2013-02-18T14:31:35.000Z</time>
      </trkpt>
      <trkpt lat="43.98442" lon="5.14195">
        <ele>317.6</ele>
        <time>2013-02-18T14:31:36.000Z</time>
      </trkpt>
      <trkpt lat="43.98439" lon="5.14197">
        <ele>318.1</ele>
        <time>2013-02-18T14:31:38.000Z</time>
      </trkpt>
      <trkpt lat="43.98437" lon="5.14197">
        <ele>318.3</ele>
        <time>2013-02-18T14:31:39.000Z</time>
      </trkpt>
      <trkpt lat="43.98434" lon="5.14199">
        <ele>318.3</ele>
        <time>2013-02-18T14:31:41.000Z</time>
      </trkpt>
      <trkpt lat="43.98433" lon="5.142">
        <ele>318.6</ele>
        <time>2013-02-18T14:31:42.000Z</time>
      </trkpt>
      <trkpt lat="43.9843" lon="5.142">
        <ele>319</ele>
        <time>2013-02-18T14:31:44.000Z</time>
      </trkpt>
      <trkpt lat="43.98428" lon="5.14202">
        <ele>319.5</ele>
        <time>2013-02-18T14:31:45.000Z</time>
      </trkpt>
      <trkpt lat="43.98425" lon="5.14203">
        <ele>319.6</ele>
        <time>2013-02-18T14:31:47.000Z</time>
      </trkpt>
      <trkpt lat="43.98423" lon="5.14204">
        <ele>319.9</ele>
        <time>2013-02-18T14:31:48.000Z</time>
      </trkpt>
      <trkpt lat="43.9842" lon="5.14205">
        <ele>320.5</ele>
        <time>2013-02-18T14:31:50.000Z</time>
      </trkpt>
      <trkpt lat="43.98418" lon="5.14206">
        <ele>320.6</ele>
        <time>2013-02-18T14:31:51.000Z</time>
      </trkpt>
      <trkpt lat="43.98415" lon="5.14207">
        <ele>321</ele>
        <time>2013-02-18T14:31:53.000Z</time>
      </trkpt>
      <trkpt lat="43.98413" lon="5.14208">
        <ele>321.3</ele>
        <time>2013-02-18T14:31:54.000Z</time>
      </trkpt>
      <trkpt lat="43.98409" lon="5.1421">
        <ele>321.7</ele>
        <time>2013-02-18T14:31:56.000Z</time>
      </trkpt>
      <trkpt lat="43.98408" lon="5.14211">
        <ele>322.2</ele>
        <time>2013-02-18T14:31:57.000Z</time>
      </trkpt>
      <trkpt lat="43.98406" lon="5.14212">
        <ele>323.1</ele>
        <time>2013-02-18T14:31:58.000Z</time>
      </trkpt>
      <trkpt lat="43.98403" lon="5.14214">
        <ele>324.1</ele>
        <time>2013-02-18T14:31:59.000Z</time>
      </trkpt>
      <trkpt lat="43.98399" lon="5.14215">
        <ele>325.8</ele>
        <time>2013-02-18T14:32:02.000Z</time>
      </trkpt>
      <trkpt lat="43.98399" lon="5.14217">
        <ele>326.4</ele>
        <time>2013-02-18T14:32:03.000Z</time>
      </trkpt>
      <trkpt lat="43.98395" lon="5.14219">
        <ele>326.4</ele>
        <time>2013-02-18T14:32:05.000Z</time>
      </trkpt>
      <trkpt lat="43.98394" lon="5.14219">
        <ele>326.4</ele>
        <time>2013-02-18T14:32:06.000Z</time>
      </trkpt>
      <trkpt lat="43.98392" lon="5.1422">
        <ele>326.5</ele>
        <time>2013-02-18T14:32:07.000Z</time>
      </trkpt>
      <trkpt lat="43.98389" lon="5.14221">
        <ele>326.5</ele>
        <time>2013-02-18T14:32:08.000Z</time>
      </trkpt>
      <trkpt lat="43.98386" lon="5.14222">
        <ele>327.3</ele>
        <time>2013-02-18T14:32:11.000Z</time>
      </trkpt>
      <trkpt lat="43.98383" lon="5.14223">
        <ele>326.8</ele>
        <time>2013-02-18T14:32:12.000Z</time>
      </trkpt>
      <trkpt lat="43.9838" lon="5.14224">
        <ele>327.3</ele>
        <time>2013-02-18T14:32:15.000Z</time>
      </trkpt>
      <trkpt lat="43.98378" lon="5.14225">
        <ele>327.3</ele>
        <time>2013-02-18T14:32:16.000Z</time>
      </trkpt>
      <trkpt lat="43.98374" lon="5.14225">
        <ele>327.7</ele>
        <time>2013-02-18T14:32:18.000Z</time>
      </trkpt>
      <trkpt lat="43.98373" lon="5.14226">
        <ele>327.7</ele>
        <time>2013-02-18T14:32:19.000Z</time>
      </trkpt>
      <trkpt lat="43.9837" lon="5.14228">
        <ele>328.2</ele>
        <time>2013-02-18T14:32:21.000Z</time>
      </trkpt>
      <trkpt lat="43.98368" lon="5.14229">
        <ele>328.1</ele>
        <time>2013-02-18T14:32:22.000Z</time>
      </trkpt>
      <trkpt lat="43.98365" lon="5.14231">
        <ele>328.7</ele>
        <time>2013-02-18T14:32:24.000Z</time>
      </trkpt>
      <trkpt lat="43.98363" lon="5.14232">
        <ele>329.1</ele>
        <time>2013-02-18T14:32:25.000Z</time>
      </trkpt>
      <trkpt lat="43.9836" lon="5.14233">
        <ele>329.8</ele>
        <time>2013-02-18T14:32:27.000Z</time>
      </trkpt>
      <trkpt lat="43.98359" lon="5.14231">
        <ele>326.2</ele>
        <time>2013-02-18T14:32:28.000Z</time>
      </trkpt>
      <trkpt lat="43.98355" lon="5.14232">
        <ele>326.9</ele>
        <time>2013-02-18T14:32:30.000Z</time>
      </trkpt>
      <trkpt lat="43.98354" lon="5.14233">
        <ele>327.5</ele>
        <time>2013-02-18T14:32:31.000Z</time>
      </trkpt>
      <trkpt lat="43.98351" lon="5.14235">
        <ele>327.7</ele>
        <time>2013-02-18T14:32:33.000Z</time>
      </trkpt>
      <trkpt lat="43.98349" lon="5.14235">
        <ele>328</ele>
        <time>2013-02-18T14:32:34.000Z</time>
      </trkpt>
      <trkpt lat="43.98346" lon="5.14236">
        <ele>328.6</ele>
        <time>2013-02-18T14:32:36.000Z</time>
      </trkpt>
      <trkpt lat="43.98345" lon="5.14237">
        <ele>328.7</ele>
        <time>2013-02-18T14:32:37.000Z</time>
      </trkpt>
      <trkpt lat="43.98341" lon="5.14239">
        <ele>328.8</ele>
        <time>2013-02-18T14:32:39.000Z</time>
      </trkpt>
      <trkpt lat="43.9834" lon="5.1424">
        <ele>328.8</ele>
        <time>2013-02-18T14:32:40.000Z</time>
      </trkpt>
      <trkpt lat="43.98337" lon="5.14241">
        <ele>329.4</ele>
        <time>2013-02-18T14:32:42.000Z</time>
      </trkpt>
      <trkpt lat="43.98335" lon="5.14242">
        <ele>329.3</ele>
        <time>2013-02-18T14:32:43.000Z</time>
      </trkpt>
      <trkpt lat="43.98332" lon="5.14243">
        <ele>329.6</ele>
        <time>2013-02-18T14:32:45.000Z</time>
      </trkpt>
      <trkpt lat="43.98331" lon="5.14244">
        <ele>330</ele>
        <time>2013-02-18T14:32:46.000Z</time>
      </trkpt>
      <trkpt lat="43.98328" lon="5.14245">
        <ele>330.4</ele>
        <time>2013-02-18T14:32:48.000Z</time>
      </trkpt>
      <trkpt lat="43.98326" lon="5.14246">
        <ele>330.6</ele>
        <time>2013-02-18T14:32:49.000Z</time>
      </trkpt>
      <trkpt lat="43.98323" lon="5.14248">
        <ele>331.1</ele>
        <time>2013-02-18T14:32:51.000Z</time>
      </trkpt>
      <trkpt lat="43.98322" lon="5.14248">
        <ele>331.3</ele>
        <time>2013-02-18T14:32:52.000Z</time>
      </trkpt>
      <trkpt lat="43.98319" lon="5.1425">
        <ele>331.7</ele>
        <time>2013-02-18T14:32:54.000Z</time>
      </trkpt>
      <trkpt lat="43.98317" lon="5.14251">
        <ele>331.9</ele>
        <time>2013-02-18T14:32:55.000Z</time>
      </trkpt>
      <trkpt lat="43.98314" lon="5.14252">
        <ele>332.2</ele>
        <time>2013-02-18T14:32:57.000Z</time>
      </trkpt>
      <trkpt lat="43.98313" lon="5.14253">
        <ele>332.4</ele>
        <time>2013-02-18T14:32:58.000Z</time>
      </trkpt>
      <trkpt lat="43.9831" lon="5.14255">
        <ele>332.6</ele>
        <time>2013-02-18T14:33:00.000Z</time>
      </trkpt>
      <trkpt lat="43.98308" lon="5.14255">
        <ele>332.7</ele>
        <time>2013-02-18T14:33:01.000Z</time>
      </trkpt>
      <trkpt lat="43.98305" lon="5.14258">
        <ele>333.1</ele>
        <time>2013-02-18T14:33:03.000Z</time>
      </trkpt>
      <trkpt lat="43.98304" lon="5.1426">
        <ele>333.1</ele>
        <time>2013-02-18T14:33:04.000Z</time>
      </trkpt>
      <trkpt lat="43.98301" lon="5.14263">
        <ele>334.2</ele>
        <time>2013-02-18T14:33:07.000Z</time>
      </trkpt>
      <trkpt lat="43.98299" lon="5.14266">
        <ele>334.4</ele>
        <time>2013-02-18T14:33:08.000Z</time>
      </trkpt>
      <trkpt lat="43.98297" lon="5.14267">
        <ele>334.9</ele>
        <time>2013-02-18T14:33:10.000Z</time>
      </trkpt>
      <trkpt lat="43.98295" lon="5.14269">
        <ele>335.3</ele>
        <time>2013-02-18T14:33:11.000Z</time>
      </trkpt>
      <trkpt lat="43.98292" lon="5.14273">
        <ele>335.2</ele>
        <time>2013-02-18T14:33:14.000Z</time>
      </trkpt>
      <trkpt lat="43.98291" lon="5.14275">
        <ele>335.3</ele>
        <time>2013-02-18T14:33:15.000Z</time>
      </trkpt>
      <trkpt lat="43.98289" lon="5.14279">
        <ele>336</ele>
        <time>2013-02-18T14:33:17.000Z</time>
      </trkpt>
      <trkpt lat="43.98287" lon="5.14281">
        <ele>336.2</ele>
        <time>2013-02-18T14:33:18.000Z</time>
      </trkpt>
      <trkpt lat="43.98284" lon="5.14285">
        <ele>336.7</ele>
        <time>2013-02-18T14:33:21.000Z</time>
      </trkpt>
      <trkpt lat="43.98283" lon="5.14286">
        <ele>337.1</ele>
        <time>2013-02-18T14:33:22.000Z</time>
      </trkpt>
      <trkpt lat="43.98279" lon="5.14289">
        <ele>337.3</ele>
        <time>2013-02-18T14:33:25.000Z</time>
      </trkpt>
      <trkpt lat="43.98278" lon="5.1429">
        <ele>337.3</ele>
        <time>2013-02-18T14:33:26.000Z</time>
      </trkpt>
      <trkpt lat="43.98276" lon="5.14293">
        <ele>338</ele>
        <time>2013-02-18T14:33:28.000Z</time>
      </trkpt>
      <trkpt lat="43.98275" lon="5.14295">
        <ele>337.6</ele>
        <time>2013-02-18T14:33:29.000Z</time>
      </trkpt>
      <trkpt lat="43.98272" lon="5.14298">
        <ele>338</ele>
        <time>2013-02-18T14:33:31.000Z</time>
      </trkpt>
      <trkpt lat="43.9827" lon="5.14299">
        <ele>338.4</ele>
        <time>2013-02-18T14:33:32.000Z</time>
      </trkpt>
      <trkpt lat="43.98268" lon="5.14303">
        <ele>339.2</ele>
        <time>2013-02-18T14:33:34.000Z</time>
      </trkpt>
      <trkpt lat="43.98267" lon="5.14305">
        <ele>339.4</ele>
        <time>2013-02-18T14:33:35.000Z</time>
      </trkpt>
      <trkpt lat="43.98265" lon="5.14308">
        <ele>340.4</ele>
        <time>2013-02-18T14:33:37.000Z</time>
      </trkpt>
      <trkpt lat="43.98264" lon="5.14309">
        <ele>340.6</ele>
        <time>2013-02-18T14:33:38.000Z</time>
      </trkpt>
      <trkpt lat="43.98261" lon="5.14313">
        <ele>340.9</ele>
        <time>2013-02-18T14:33:40.000Z</time>
      </trkpt>
      <trkpt lat="43.9826" lon="5.14314">
        <ele>340.9</ele>
        <time>2013-02-18T14:33:41.000Z</time>
      </trkpt>
      <trkpt lat="43.98256" lon="5.14315">
        <ele>340.3</ele>
        <time>2013-02-18T14:33:43.000Z</time>
      </trkpt>
      <trkpt lat="43.98255" lon="5.14316">
        <ele>340.3</ele>
        <time>2013-02-18T14:33:44.000Z</time>
      </trkpt>
      <trkpt lat="43.98251" lon="5.14317">
        <ele>340.3</ele>
        <time>2013-02-18T14:33:46.000Z</time>
      </trkpt>
      <trkpt lat="43.98249" lon="5.14317">
        <ele>340.4</ele>
        <time>2013-02-18T14:33:47.000Z</time>
      </trkpt>
      <trkpt lat="43.98246" lon="5.14316">
        <ele>340.7</ele>
        <time>2013-02-18T14:33:49.000Z</time>
      </trkpt>
      <trkpt lat="43.98245" lon="5.14315">
        <ele>340.6</ele>
        <time>2013-02-18T14:33:50.000Z</time>
      </trkpt>
      <trkpt lat="43.98242" lon="5.1431">
        <ele>341.9</ele>
        <time>2013-02-18T14:33:53.000Z</time>
      </trkpt>
      <trkpt lat="43.98242" lon="5.14308">
        <ele>341.9</ele>
        <time>2013-02-18T14:33:54.000Z</time>
      </trkpt>
      <trkpt lat="43.98243" lon="5.14303">
        <ele>342.5</ele>
        <time>2013-02-18T14:33:56.000Z</time>
      </trkpt>
      <trkpt lat="43.98244" lon="5.14301">
        <ele>342.6</ele>
        <time>2013-02-18T14:33:57.000Z</time>
      </trkpt>
      <trkpt lat="43.98245" lon="5.14297">
        <ele>343</ele>
        <time>2013-02-18T14:33:59.000Z</time>
      </trkpt>
      <trkpt lat="43.98247" lon="5.14296">
        <ele>343.2</ele>
        <time>2013-02-18T14:34:00.000Z</time>
      </trkpt>
      <trkpt lat="43.98249" lon="5.14293">
        <ele>343.5</ele>
        <time>2013-02-18T14:34:02.000Z</time>
      </trkpt>
      <trkpt lat="43.9825" lon="5.14292">
        <ele>343.7</ele>
        <time>2013-02-18T14:34:03.000Z</time>
      </trkpt>
      <trkpt lat="43.98253" lon="5.14289">
        <ele>343.3</ele>
        <time>2013-02-18T14:34:05.000Z</time>
      </trkpt>
      <trkpt lat="43.98254" lon="5.14287">
        <ele>343.6</ele>
        <time>2013-02-18T14:34:06.000Z</time>
      </trkpt>
      <trkpt lat="43.98256" lon="5.14284">
        <ele>343.7</ele>
        <time>2013-02-18T14:34:08.000Z</time>
      </trkpt>
      <trkpt lat="43.98257" lon="5.14282">
        <ele>343.8</ele>
        <time>2013-02-18T14:34:09.000Z</time>
      </trkpt>
      <trkpt lat="43.98259" lon="5.14279">
        <ele>343.9</ele>
        <time>2013-02-18T14:34:11.000Z</time>
      </trkpt>
      <trkpt lat="43.9826" lon="5.14277">
        <ele>344.2</ele>
        <time>2013-02-18T14:34:12.000Z</time>
      </trkpt>
      <trkpt lat="43.98261" lon="5.14273">
        <ele>344.3</ele>
        <time>2013-02-18T14:34:14.000Z</time>
      </trkpt>
      <trkpt lat="43.98262" lon="5.14271">
        <ele>344.5</ele>
        <time>2013-02-18T14:34:15.000Z</time>
      </trkpt>
      <trkpt lat="43.98263" lon="5.14266">
        <ele>344.9</ele>
        <time>2013-02-18T14:34:17.000Z</time>
      </trkpt>
      <trkpt lat="43.98263" lon="5.14264">
        <ele>345.1</ele>
        <time>2013-02-18T14:34:18.000Z</time>
      </trkpt>
      <trkpt lat="43.98264" lon="5.14258">
        <ele>345.3</ele>
        <time>2013-02-18T14:34:21.000Z</time>
      </trkpt>
      <trkpt lat="43.98263" lon="5.14256">
        <ele>345.6</ele>
        <time>2013-02-18T14:34:22.000Z</time>
      </trkpt>
      <trkpt lat="43.98262" lon="5.14251">
        <ele>346.1</ele>
        <time>2013-02-18T14:34:24.000Z</time>
      </trkpt>
      <trkpt lat="43.98261" lon="5.14249">
        <ele>346.2</ele>
        <time>2013-02-18T14:34:25.000Z</time>
      </trkpt>
      <trkpt lat="43.98258" lon="5.14246">
        <ele>346.3</ele>
        <time>2013-02-18T14:34:27.000Z</time>
      </trkpt>
      <trkpt lat="43.98257" lon="5.14246">
        <ele>346.5</ele>
        <time>2013-02-18T14:34:28.000Z</time>
      </trkpt>
      <trkpt lat="43.98253" lon="5.14247">
        <ele>347.2</ele>
        <time>2013-02-18T14:34:31.000Z</time>
      </trkpt>
      <trkpt lat="43.98252" lon="5.14249">
        <ele>347.4</ele>
        <time>2013-02-18T14:34:32.000Z</time>
      </trkpt>
      <trkpt lat="43.98251" lon="5.14254">
        <ele>347.7</ele>
        <time>2013-02-18T14:34:35.000Z</time>
      </trkpt>
      <trkpt lat="43.9825" lon="5.14256">
        <ele>347.8</ele>
        <time>2013-02-18T14:34:36.000Z</time>
      </trkpt>
      <trkpt lat="43.98247" lon="5.14261">
        <ele>348</ele>
        <time>2013-02-18T14:34:39.000Z</time>
      </trkpt>
      <trkpt lat="43.98247" lon="5.14262">
        <ele>348.1</ele>
        <time>2013-02-18T14:34:40.000Z</time>
      </trkpt>
      <trkpt lat="43.98247" lon="5.14267">
        <ele>349</ele>
        <time>2013-02-18T14:35:46.000Z</time>
      </trkpt>
      <trkpt lat="43.98246" lon="5.14268">
        <ele>349</ele>
        <time>2013-02-18T14:35:47.000Z</time>
      </trkpt>
      <trkpt lat="43.98243" lon="5.14271">
        <ele>348.6</ele>
        <time>2013-02-18T14:35:49.000Z</time>
      </trkpt>
      <trkpt lat="43.98242" lon="5.14273">
        <ele>348.8</ele>
        <time>2013-02-18T14:35:50.000Z</time>
      </trkpt>
      <trkpt lat="43.98239" lon="5.14277">
        <ele>348.6</ele>
        <time>2013-02-18T14:35:52.000Z</time>
      </trkpt>
      <trkpt lat="43.98238" lon="5.1428">
        <ele>348.5</ele>
        <time>2013-02-18T14:35:53.000Z</time>
      </trkpt>
      <trkpt lat="43.98234" lon="5.14284">
        <ele>348.6</ele>
        <time>2013-02-18T14:35:55.000Z</time>
      </trkpt>
      <trkpt lat="43.98233" lon="5.14286">
        <ele>348.8</ele>
        <time>2013-02-18T14:35:56.000Z</time>
      </trkpt>
      <trkpt lat="43.98231" lon="5.14288">
        <ele>348.9</ele>
        <time>2013-02-18T14:35:57.000Z</time>
      </trkpt>
      <trkpt lat="43.98229" lon="5.14291">
        <ele>348.6</ele>
        <time>2013-02-18T14:35:58.000Z</time>
      </trkpt>
      <trkpt lat="43.98227" lon="5.14293">
        <ele>348.5</ele>
        <time>2013-02-18T14:35:59.000Z</time>
      </trkpt>
      <trkpt lat="43.98226" lon="5.14295">
        <ele>348.5</ele>
        <time>2013-02-18T14:36:00.000Z</time>
      </trkpt>
      <trkpt lat="43.98224" lon="5.14297">
        <ele>348.6</ele>
        <time>2013-02-18T14:36:01.000Z</time>
      </trkpt>
      <trkpt lat="43.98221" lon="5.14299">
        <ele>348.8</ele>
        <time>2013-02-18T14:36:02.000Z</time>
      </trkpt>
      <trkpt lat="43.98219" lon="5.14301">
        <ele>348.9</ele>
        <time>2013-02-18T14:36:03.000Z</time>
      </trkpt>
      <trkpt lat="43.98217" lon="5.14304">
        <ele>349.1</ele>
        <time>2013-02-18T14:36:04.000Z</time>
      </trkpt>
      <trkpt lat="43.98215" lon="5.14305">
        <ele>349.1</ele>
        <time>2013-02-18T14:36:05.000Z</time>
      </trkpt>
      <trkpt lat="43.98213" lon="5.14307">
        <ele>349</ele>
        <time>2013-02-18T14:36:06.000Z</time>
      </trkpt>
      <trkpt lat="43.98211" lon="5.14309">
        <ele>349.1</ele>
        <time>2013-02-18T14:36:07.000Z</time>
      </trkpt>
      <trkpt lat="43.98209" lon="5.14311">
        <ele>349.3</ele>
        <time>2013-02-18T14:36:08.000Z</time>
      </trkpt>
      <trkpt lat="43.98207" lon="5.14314">
        <ele>349.4</ele>
        <time>2013-02-18T14:36:09.000Z</time>
      </trkpt>
      <trkpt lat="43.98205" lon="5.14317">
        <ele>349.5</ele>
        <time>2013-02-18T14:36:10.000Z</time>
      </trkpt>
      <trkpt lat="43.98203" lon="5.14319">
        <ele>349.6</ele>
        <time>2013-02-18T14:36:11.000Z</time>
      </trkpt>
      <trkpt lat="43.98201" lon="5.14322">
        <ele>349.6</ele>
        <time>2013-02-18T14:36:12.000Z</time>
      </trkpt>
      <trkpt lat="43.98199" lon="5.14324">
        <ele>349.4</ele>
        <time>2013-02-18T14:36:13.000Z</time>
      </trkpt>
      <trkpt lat="43.98198" lon="5.14326">
        <ele>349.6</ele>
        <time>2013-02-18T14:36:14.000Z</time>
      </trkpt>
      <trkpt lat="43.98196" lon="5.14329">
        <ele>349.9</ele>
        <time>2013-02-18T14:36:15.000Z</time>
      </trkpt>
      <trkpt lat="43.98194" lon="5.14331">
        <ele>350.1</ele>
        <time>2013-02-18T14:36:16.000Z</time>
      </trkpt>
      <trkpt lat="43.98192" lon="5.14333">
        <ele>350</ele>
        <time>2013-02-18T14:36:17.000Z</time>
      </trkpt>
      <trkpt lat="43.98191" lon="5.14337">
        <ele>350.7</ele>
        <time>2013-02-18T14:36:18.000Z</time>
      </trkpt>
      <trkpt lat="43.98189" lon="5.1434">
        <ele>350.7</ele>
        <time>2013-02-18T14:36:19.000Z</time>
      </trkpt>
      <trkpt lat="43.98187" lon="5.14343">
        <ele>350.8</ele>
        <time>2013-02-18T14:36:20.000Z</time>
      </trkpt>
      <trkpt lat="43.98186" lon="5.14345">
        <ele>351.1</ele>
        <time>2013-02-18T14:36:21.000Z</time>
      </trkpt>
      <trkpt lat="43.98183" lon="5.14348">
        <ele>351.3</ele>
        <time>2013-02-18T14:36:22.000Z</time>
      </trkpt>
      <trkpt lat="43.98182" lon="5.1435">
        <ele>351.5</ele>
        <time>2013-02-18T14:36:23.000Z</time>
      </trkpt>
      <trkpt lat="43.9818" lon="5.14352">
        <ele>351.7</ele>
        <time>2013-02-18T14:36:24.000Z</time>
      </trkpt>
      <trkpt lat="43.98178" lon="5.14355">
        <ele>351.8</ele>
        <time>2013-02-18T14:36:25.000Z</time>
      </trkpt>
      <trkpt lat="43.98176" lon="5.14357">
        <ele>351.8</ele>
        <time>2013-02-18T14:36:26.000Z</time>
      </trkpt>
      <trkpt lat="43.98174" lon="5.14359">
        <ele>351.9</ele>
        <time>2013-02-18T14:36:27.000Z</time>
      </trkpt>
      <trkpt lat="43.98172" lon="5.14361">
        <ele>352.1</ele>
        <time>2013-02-18T14:36:28.000Z</time>
      </trkpt>
      <trkpt lat="43.9817" lon="5.14364">
        <ele>352.3</ele>
        <time>2013-02-18T14:36:29.000Z</time>
      </trkpt>
      <trkpt lat="43.98168" lon="5.14366">
        <ele>352.5</ele>
        <time>2013-02-18T14:36:30.000Z</time>
      </trkpt>
      <trkpt lat="43.98166" lon="5.14368">
        <ele>352.7</ele>
        <time>2013-02-18T14:36:31.000Z</time>
      </trkpt>
      <trkpt lat="43.98165" lon="5.14371">
        <ele>353</ele>
        <time>2013-02-18T14:36:32.000Z</time>
      </trkpt>
      <trkpt lat="43.98163" lon="5.14373">
        <ele>353.3</ele>
        <time>2013-02-18T14:36:33.000Z</time>
      </trkpt>
      <trkpt lat="43.98161" lon="5.14375">
        <ele>353.4</ele>
        <time>2013-02-18T14:36:34.000Z</time>
      </trkpt>
      <trkpt lat="43.98159" lon="5.14377">
        <ele>353.6</ele>
        <time>2013-02-18T14:36:35.000Z</time>
      </trkpt>
      <trkpt lat="43.98157" lon="5.14379">
        <ele>353.6</ele>
        <time>2013-02-18T14:36:36.000Z</time>
      </trkpt>
      <trkpt lat="43.98155" lon="5.14382">
        <ele>353.8</ele>
        <time>2013-02-18T14:36:37.000Z</time>
      </trkpt>
      <trkpt lat="43.98153" lon="5.14384">
        <ele>353.9</ele>
        <time>2013-02-18T14:36:38.000Z</time>
      </trkpt>
      <trkpt lat="43.98151" lon="5.14387">
        <ele>354.1</ele>
        <time>2013-02-18T14:36:39.000Z</time>
      </trkpt>
      <trkpt lat="43.98149" lon="5.14389">
        <ele>354.3</ele>
        <time>2013-02-18T14:36:40.000Z</time>
      </trkpt>
      <trkpt lat="43.98147" lon="5.14391">
        <ele>354.4</ele>
        <time>2013-02-18T14:36:41.000Z</time>
      </trkpt>
      <trkpt lat="43.98145" lon="5.14393">
        <ele>354.5</ele>
        <time>2013-02-18T14:36:42.000Z</time>
      </trkpt>
      <trkpt lat="43.98144" lon="5.14395">
        <ele>354.7</ele>
        <time>2013-02-18T14:36:43.000Z</time>
      </trkpt>
      <trkpt lat="43.98142" lon="5.14397">
        <ele>354.8</ele>
        <time>2013-02-18T14:36:44.000Z</time>
      </trkpt>
      <trkpt lat="43.9814" lon="5.14399">
        <ele>355</ele>
        <time>2013-02-18T14:36:45.000Z</time>
      </trkpt>
      <trkpt lat="43.98138" lon="5.14402">
        <ele>355.2</ele>
        <time>2013-02-18T14:36:46.000Z</time>
      </trkpt>
      <trkpt lat="43.98136" lon="5.14404">
        <ele>355.3</ele>
        <time>2013-02-18T14:36:47.000Z</time>
      </trkpt>
      <trkpt lat="43.98135" lon="5.14406">
        <ele>355.6</ele>
        <time>2013-02-18T14:36:48.000Z</time>
      </trkpt>
      <trkpt lat="43.98133" lon="5.14409">
        <ele>355.7</ele>
        <time>2013-02-18T14:36:49.000Z</time>
      </trkpt>
      <trkpt lat="43.98131" lon="5.14411">
        <ele>355.7</ele>
        <time>2013-02-18T14:36:50.000Z</time>
      </trkpt>
      <trkpt lat="43.98129" lon="5.14413">
        <ele>355.9</ele>
        <time>2013-02-18T14:36:51.000Z</time>
      </trkpt>
      <trkpt lat="43.98128" lon="5.14416">
        <ele>356</ele>
        <time>2013-02-18T14:36:52.000Z</time>
      </trkpt>
      <trkpt lat="43.98127" lon="5.14419">
        <ele>356.1</ele>
        <time>2013-02-18T14:36:53.000Z</time>
      </trkpt>
      <trkpt lat="43.98125" lon="5.14421">
        <ele>356.3</ele>
        <time>2013-02-18T14:36:54.000Z</time>
      </trkpt>
      <trkpt lat="43.98124" lon="5.14424">
        <ele>356.5</ele>
        <time>2013-02-18T14:36:55.000Z</time>
      </trkpt>
      <trkpt lat="43.98123" lon="5.14427">
        <ele>356.8</ele>
        <time>2013-02-18T14:36:56.000Z</time>
      </trkpt>
      <trkpt lat="43.98122" lon="5.1443">
        <ele>357.3</ele>
        <time>2013-02-18T14:36:57.000Z</time>
      </trkpt>
      <trkpt lat="43.98122" lon="5.14433">
        <ele>356.8</ele>
        <time>2013-02-18T14:36:58.000Z</time>
      </trkpt>
      <trkpt lat="43.98122" lon="5.14439">
        <ele>357.1</ele>
        <time>2013-02-18T14:37:00.000Z</time>
      </trkpt>
      <trkpt lat="43.98121" lon="5.14441">
        <ele>357.4</ele>
        <time>2013-02-18T14:37:01.000Z</time>
      </trkpt>
      <trkpt lat="43.98121" lon="5.14447">
        <ele>357.8</ele>
        <time>2013-02-18T14:37:03.000Z</time>
      </trkpt>
      <trkpt lat="43.98121" lon="5.14449">
        <ele>357.7</ele>
        <time>2013-02-18T14:37:04.000Z</time>
      </trkpt>
      <trkpt lat="43.9812" lon="5.14454">
        <ele>357.9</ele>
        <time>2013-02-18T14:37:06.000Z</time>
      </trkpt>
      <trkpt lat="43.9812" lon="5.14457">
        <ele>358.1</ele>
        <time>2013-02-18T14:37:07.000Z</time>
      </trkpt>
      <trkpt lat="43.98116" lon="5.1446">
        <ele>358.6</ele>
        <time>2013-02-18T14:37:09.000Z</time>
      </trkpt>
      <trkpt lat="43.98115" lon="5.14462">
        <ele>358.6</ele>
        <time>2013-02-18T14:37:10.000Z</time>
      </trkpt>
      <trkpt lat="43.98112" lon="5.14466">
        <ele>359.6</ele>
        <time>2013-02-18T14:37:12.000Z</time>
      </trkpt>
      <trkpt lat="43.9811" lon="5.14467">
        <ele>359.9</ele>
        <time>2013-02-18T14:37:13.000Z</time>
      </trkpt>
      <trkpt lat="43.98107" lon="5.14471">
        <ele>360.1</ele>
        <time>2013-02-18T14:37:15.000Z</time>
      </trkpt>
      <trkpt lat="43.98105" lon="5.14473">
        <ele>360.7</ele>
        <time>2013-02-18T14:37:16.000Z</time>
      </trkpt>
      <trkpt lat="43.98102" lon="5.14477">
        <ele>361.1</ele>
        <time>2013-02-18T14:37:18.000Z</time>
      </trkpt>
      <trkpt lat="43.98101" lon="5.14479">
        <ele>362</ele>
        <time>2013-02-18T14:37:19.000Z</time>
      </trkpt>
      <trkpt lat="43.98098" lon="5.14483">
        <ele>362.5</ele>
        <time>2013-02-18T14:37:21.000Z</time>
      </trkpt>
      <trkpt lat="43.98097" lon="5.14485">
        <ele>362.7</ele>
        <time>2013-02-18T14:37:22.000Z</time>
      </trkpt>
      <trkpt lat="43.98094" lon="5.14488">
        <ele>362.7</ele>
        <time>2013-02-18T14:37:24.000Z</time>
      </trkpt>
      <trkpt lat="43.98093" lon="5.14491">
        <ele>363.3</ele>
        <time>2013-02-18T14:37:25.000Z</time>
      </trkpt>
      <trkpt lat="43.9809" lon="5.14495">
        <ele>364.4</ele>
        <time>2013-02-18T14:37:27.000Z</time>
      </trkpt>
      <trkpt lat="43.98089" lon="5.14497">
        <ele>364.5</ele>
        <time>2013-02-18T14:37:28.000Z</time>
      </trkpt>
      <trkpt lat="43.98086" lon="5.145">
        <ele>364.8</ele>
        <time>2013-02-18T14:37:30.000Z</time>
      </trkpt>
      <trkpt lat="43.98085" lon="5.14501">
        <ele>364.7</ele>
        <time>2013-02-18T14:37:31.000Z</time>
      </trkpt>
      <trkpt lat="43.98082" lon="5.14505">
        <ele>365.1</ele>
        <time>2013-02-18T14:37:33.000Z</time>
      </trkpt>
      <trkpt lat="43.9808" lon="5.14506">
        <ele>365.4</ele>
        <time>2013-02-18T14:37:34.000Z</time>
      </trkpt>
      <trkpt lat="43.98077" lon="5.14507">
        <ele>365.1</ele>
        <time>2013-02-18T14:37:35.000Z</time>
      </trkpt>
      <trkpt lat="43.98075" lon="5.14509">
        <ele>365.3</ele>
        <time>2013-02-18T14:37:36.000Z</time>
      </trkpt>
      <trkpt lat="43.98072" lon="5.14511">
        <ele>365.5</ele>
        <time>2013-02-18T14:37:38.000Z</time>
      </trkpt>
      <trkpt lat="43.9807" lon="5.14513">
        <ele>365.4</ele>
        <time>2013-02-18T14:37:39.000Z</time>
      </trkpt>
      <trkpt lat="43.98067" lon="5.14516">
        <ele>365.7</ele>
        <time>2013-02-18T14:37:41.000Z</time>
      </trkpt>
      <trkpt lat="43.98065" lon="5.14517">
        <ele>366.1</ele>
        <time>2013-02-18T14:37:42.000Z</time>
      </trkpt>
      <trkpt lat="43.98062" lon="5.1452">
        <ele>366.4</ele>
        <time>2013-02-18T14:37:44.000Z</time>
      </trkpt>
      <trkpt lat="43.9806" lon="5.14522">
        <ele>366.3</ele>
        <time>2013-02-18T14:37:45.000Z</time>
      </trkpt>
      <trkpt lat="43.98057" lon="5.14525">
        <ele>366.4</ele>
        <time>2013-02-18T14:37:47.000Z</time>
      </trkpt>
      <trkpt lat="43.98055" lon="5.14527">
        <ele>366.5</ele>
        <time>2013-02-18T14:37:48.000Z</time>
      </trkpt>
      <trkpt lat="43.98051" lon="5.1453">
        <ele>366.7</ele>
        <time>2013-02-18T14:37:50.000Z</time>
      </trkpt>
      <trkpt lat="43.9805" lon="5.14531">
        <ele>366.8</ele>
        <time>2013-02-18T14:37:51.000Z</time>
      </trkpt>
      <trkpt lat="43.98046" lon="5.14534">
        <ele>367.2</ele>
        <time>2013-02-18T14:37:53.000Z</time>
      </trkpt>
      <trkpt lat="43.98044" lon="5.14536">
        <ele>367.1</ele>
        <time>2013-02-18T14:37:54.000Z</time>
      </trkpt>
      <trkpt lat="43.98041" lon="5.14537">
        <ele>367.2</ele>
        <time>2013-02-18T14:37:55.000Z</time>
      </trkpt>
      <trkpt lat="43.98039" lon="5.14539">
        <ele>367.1</ele>
        <time>2013-02-18T14:37:56.000Z</time>
      </trkpt>
      <trkpt lat="43.98035" lon="5.14541">
        <ele>367.1</ele>
        <time>2013-02-18T14:37:58.000Z</time>
      </trkpt>
      <trkpt lat="43.98034" lon="5.14542">
        <ele>367.3</ele>
        <time>2013-02-18T14:37:59.000Z</time>
      </trkpt>
      <trkpt lat="43.9803" lon="5.14544">
        <ele>367.6</ele>
        <time>2013-02-18T14:38:01.000Z</time>
      </trkpt>
      <trkpt lat="43.98028" lon="5.14544">
        <ele>367.7</ele>
        <time>2013-02-18T14:38:02.000Z</time>
      </trkpt>
      <trkpt lat="43.98025" lon="5.14546">
        <ele>367.9</ele>
        <time>2013-02-18T14:38:04.000Z</time>
      </trkpt>
      <trkpt lat="43.98023" lon="5.14547">
        <ele>368</ele>
        <time>2013-02-18T14:38:05.000Z</time>
      </trkpt>
      <trkpt lat="43.9802" lon="5.14549">
        <ele>368.1</ele>
        <time>2013-02-18T14:38:07.000Z</time>
      </trkpt>
      <trkpt lat="43.98019" lon="5.14549">
        <ele>368.1</ele>
        <time>2013-02-18T14:38:08.000Z</time>
      </trkpt>
      <trkpt lat="43.98016" lon="5.14551">
        <ele>368.6</ele>
        <time>2013-02-18T14:38:10.000Z</time>
      </trkpt>
      <trkpt lat="43.98014" lon="5.14551">
        <ele>368.5</ele>
        <time>2013-02-18T14:38:11.000Z</time>
      </trkpt>
      <trkpt lat="43.98011" lon="5.14553">
        <ele>369.1</ele>
        <time>2013-02-18T14:38:13.000Z</time>
      </trkpt>
      <trkpt lat="43.9801" lon="5.14554">
        <ele>369.1</ele>
        <time>2013-02-18T14:38:14.000Z</time>
      </trkpt>
      <trkpt lat="43.98007" lon="5.14556">
        <ele>369.5</ele>
        <time>2013-02-18T14:38:16.000Z</time>
      </trkpt>
      <trkpt lat="43.98005" lon="5.14556">
        <ele>369.6</ele>
        <time>2013-02-18T14:38:17.000Z</time>
      </trkpt>
      <trkpt lat="43.98002" lon="5.14557">
        <ele>369.8</ele>
        <time>2013-02-18T14:38:19.000Z</time>
      </trkpt>
      <trkpt lat="43.98001" lon="5.14558">
        <ele>369.9</ele>
        <time>2013-02-18T14:38:20.000Z</time>
      </trkpt>
      <trkpt lat="43.97998" lon="5.1456">
        <ele>370.2</ele>
        <time>2013-02-18T14:38:22.000Z</time>
      </trkpt>
      <trkpt lat="43.97996" lon="5.14561">
        <ele>370.3</ele>
        <time>2013-02-18T14:38:23.000Z</time>
      </trkpt>
      <trkpt lat="43.97993" lon="5.14563">
        <ele>370.7</ele>
        <time>2013-02-18T14:38:25.000Z</time>
      </trkpt>
      <trkpt lat="43.97992" lon="5.14563">
        <ele>371.1</ele>
        <time>2013-02-18T14:38:26.000Z</time>
      </trkpt>
      <trkpt lat="43.97989" lon="5.14564">
        <ele>371.3</ele>
        <time>2013-02-18T14:38:28.000Z</time>
      </trkpt>
      <trkpt lat="43.97987" lon="5.14564">
        <ele>371.9</ele>
        <time>2013-02-18T14:38:29.000Z</time>
      </trkpt>
      <trkpt lat="43.97983" lon="5.14564">
        <ele>372.2</ele>
        <time>2013-02-18T14:38:31.000Z</time>
      </trkpt>
      <trkpt lat="43.97982" lon="5.14564">
        <ele>372.2</ele>
        <time>2013-02-18T14:38:32.000Z</time>
      </trkpt>
      <trkpt lat="43.97979" lon="5.14564">
        <ele>372.3</ele>
        <time>2013-02-18T14:38:34.000Z</time>
      </trkpt>
      <trkpt lat="43.97977" lon="5.14564">
        <ele>372.3</ele>
        <time>2013-02-18T14:38:35.000Z</time>
      </trkpt>
      <trkpt lat="43.97974" lon="5.14564">
        <ele>372.3</ele>
        <time>2013-02-18T14:38:37.000Z</time>
      </trkpt>
      <trkpt lat="43.97972" lon="5.14565">
        <ele>372.3</ele>
        <time>2013-02-18T14:38:38.000Z</time>
      </trkpt>
      <trkpt lat="43.9797" lon="5.14566">
        <ele>372.4</ele>
        <time>2013-02-18T14:38:39.000Z</time>
      </trkpt>
      <trkpt lat="43.97967" lon="5.14565">
        <ele>372.4</ele>
        <time>2013-02-18T14:38:40.000Z</time>
      </trkpt>
      <trkpt lat="43.97964" lon="5.14565">
        <ele>373.7</ele>
        <time>2013-02-18T14:38:42.000Z</time>
      </trkpt>
      <trkpt lat="43.97962" lon="5.14565">
        <ele>374.1</ele>
        <time>2013-02-18T14:38:43.000Z</time>
      </trkpt>
      <trkpt lat="43.97959" lon="5.14564">
        <ele>373.9</ele>
        <time>2013-02-18T14:38:45.000Z</time>
      </trkpt>
      <trkpt lat="43.97957" lon="5.14564">
        <ele>374.1</ele>
        <time>2013-02-18T14:38:46.000Z</time>
      </trkpt>
      <trkpt lat="43.97953" lon="5.14563">
        <ele>374.2</ele>
        <time>2013-02-18T14:38:48.000Z</time>
      </trkpt>
      <trkpt lat="43.97951" lon="5.14562">
        <ele>374.1</ele>
        <time>2013-02-18T14:38:49.000Z</time>
      </trkpt>
      <trkpt lat="43.97949" lon="5.14558">
        <ele>376.8</ele>
        <time>2013-02-18T14:38:52.000Z</time>
      </trkpt>
      <trkpt lat="43.97948" lon="5.14556">
        <ele>378.6</ele>
        <time>2013-02-18T14:38:53.000Z</time>
      </trkpt>
      <trkpt lat="43.97945" lon="5.14553">
        <ele>380.1</ele>
        <time>2013-02-18T14:38:55.000Z</time>
      </trkpt>
      <trkpt lat="43.97944" lon="5.14551">
        <ele>380.8</ele>
        <time>2013-02-18T14:38:56.000Z</time>
      </trkpt>
      <trkpt lat="43.97941" lon="5.14547">
        <ele>382</ele>
        <time>2013-02-18T14:38:59.000Z</time>
      </trkpt>
      <trkpt lat="43.9794" lon="5.14545">
        <ele>381.5</ele>
        <time>2013-02-18T14:39:00.000Z</time>
      </trkpt>
      <trkpt lat="43.97939" lon="5.1454">
        <ele>381.9</ele>
        <time>2013-02-18T14:39:03.000Z</time>
      </trkpt>
      <trkpt lat="43.97939" lon="5.14538">
        <ele>382</ele>
        <time>2013-02-18T14:39:04.000Z</time>
      </trkpt>
      <trkpt lat="43.9794" lon="5.14534">
        <ele>382.2</ele>
        <time>2013-02-18T14:39:06.000Z</time>
      </trkpt>
      <trkpt lat="43.9794" lon="5.14532">
        <ele>382.3</ele>
        <time>2013-02-18T14:39:07.000Z</time>
      </trkpt>
      <trkpt lat="43.97942" lon="5.14527">
        <ele>381.8</ele>
        <time>2013-02-18T14:39:10.000Z</time>
      </trkpt>
      <trkpt lat="43.97942" lon="5.14525">
        <ele>381.4</ele>
        <time>2013-02-18T14:39:11.000Z</time>
      </trkpt>
      <trkpt lat="43.97944" lon="5.1452">
        <ele>381.6</ele>
        <time>2013-02-18T14:39:13.000Z</time>
      </trkpt>
      <trkpt lat="43.97945" lon="5.14518">
        <ele>381.2</ele>
        <time>2013-02-18T14:39:14.000Z</time>
      </trkpt>
      <trkpt lat="43.97946" lon="5.14513">
        <ele>380.9</ele>
        <time>2013-02-18T14:39:17.000Z</time>
      </trkpt>
      <trkpt lat="43.97947" lon="5.14511">
        <ele>380.9</ele>
        <time>2013-02-18T14:39:18.000Z</time>
      </trkpt>
      <trkpt lat="43.97948" lon="5.14506">
        <ele>380.9</ele>
        <time>2013-02-18T14:39:20.000Z</time>
      </trkpt>
      <trkpt lat="43.97949" lon="5.14504">
        <ele>381.1</ele>
        <time>2013-02-18T14:39:21.000Z</time>
      </trkpt>
      <trkpt lat="43.97949" lon="5.145">
        <ele>380.8</ele>
        <time>2013-02-18T14:39:23.000Z</time>
      </trkpt>
      <trkpt lat="43.9795" lon="5.14498">
        <ele>380.8</ele>
        <time>2013-02-18T14:39:24.000Z</time>
      </trkpt>
      <trkpt lat="43.9795" lon="5.14493">
        <ele>381.4</ele>
        <time>2013-02-18T14:39:26.000Z</time>
      </trkpt>
      <trkpt lat="43.9795" lon="5.14491">
        <ele>380.9</ele>
        <time>2013-02-18T14:39:27.000Z</time>
      </trkpt>
      <trkpt lat="43.9795" lon="5.14486">
        <ele>380.7</ele>
        <time>2013-02-18T14:39:29.000Z</time>
      </trkpt>
      <trkpt lat="43.97951" lon="5.14483">
        <ele>380.7</ele>
        <time>2013-02-18T14:39:30.000Z</time>
      </trkpt>
      <trkpt lat="43.97952" lon="5.14479">
        <ele>380.7</ele>
        <time>2013-02-18T14:39:32.000Z</time>
      </trkpt>
      <trkpt lat="43.97952" lon="5.14477">
        <ele>380.9</ele>
        <time>2013-02-18T14:39:33.000Z</time>
      </trkpt>
      <trkpt lat="43.97953" lon="5.14472">
        <ele>381.2</ele>
        <time>2013-02-18T14:39:35.000Z</time>
      </trkpt>
      <trkpt lat="43.97954" lon="5.1447">
        <ele>381.5</ele>
        <time>2013-02-18T14:39:36.000Z</time>
      </trkpt>
      <trkpt lat="43.97955" lon="5.14466">
        <ele>381.5</ele>
        <time>2013-02-18T14:39:38.000Z</time>
      </trkpt>
      <trkpt lat="43.97956" lon="5.14464">
        <ele>381.4</ele>
        <time>2013-02-18T14:39:39.000Z</time>
      </trkpt>
      <trkpt lat="43.97957" lon="5.1446">
        <ele>381.4</ele>
        <time>2013-02-18T14:39:41.000Z</time>
      </trkpt>
      <trkpt lat="43.97957" lon="5.14458">
        <ele>381.5</ele>
        <time>2013-02-18T14:39:42.000Z</time>
      </trkpt>
      <trkpt lat="43.97958" lon="5.14453">
        <ele>381.7</ele>
        <time>2013-02-18T14:39:44.000Z</time>
      </trkpt>
      <trkpt lat="43.97958" lon="5.1445">
        <ele>381.8</ele>
        <time>2013-02-18T14:39:45.000Z</time>
      </trkpt>
      <trkpt lat="43.97959" lon="5.14444">
        <ele>381.9</ele>
        <time>2013-02-18T14:39:48.000Z</time>
      </trkpt>
      <trkpt lat="43.9796" lon="5.14442">
        <ele>381.8</ele>
        <time>2013-02-18T14:39:49.000Z</time>
      </trkpt>
      <trkpt lat="43.9796" lon="5.14438">
        <ele>381.6</ele>
        <time>2013-02-18T14:39:51.000Z</time>
      </trkpt>
      <trkpt lat="43.9796" lon="5.14436">
        <ele>381.4</ele>
        <time>2013-02-18T14:39:52.000Z</time>
      </trkpt>
      <trkpt lat="43.97961" lon="5.14432">
        <ele>381.4</ele>
        <time>2013-02-18T14:39:54.000Z</time>
      </trkpt>
      <trkpt lat="43.97962" lon="5.14429">
        <ele>381.3</ele>
        <time>2013-02-18T14:39:55.000Z</time>
      </trkpt>
      <trkpt lat="43.97962" lon="5.14424">
        <ele>381.8</ele>
        <time>2013-02-18T14:39:58.000Z</time>
      </trkpt>
      <trkpt lat="43.97962" lon="5.14422">
        <ele>382.1</ele>
        <time>2013-02-18T14:39:59.000Z</time>
      </trkpt>
      <trkpt lat="43.97958" lon="5.14423">
        <ele>379.9</ele>
        <time>2013-02-18T14:41:52.000Z</time>
      </trkpt>
      <trkpt lat="43.97956" lon="5.14424">
        <ele>379.7</ele>
        <time>2013-02-18T14:41:53.000Z</time>
      </trkpt>
      <trkpt lat="43.97954" lon="5.14427">
        <ele>380.5</ele>
        <time>2013-02-18T14:41:55.000Z</time>
      </trkpt>
      <trkpt lat="43.97952" lon="5.14429">
        <ele>380.8</ele>
        <time>2013-02-18T14:41:56.000Z</time>
      </trkpt>
      <trkpt lat="43.9795" lon="5.14432">
        <ele>381.2</ele>
        <time>2013-02-18T14:41:58.000Z</time>
      </trkpt>
      <trkpt lat="43.97948" lon="5.14434">
        <ele>381.2</ele>
        <time>2013-02-18T14:41:59.000Z</time>
      </trkpt>
      <trkpt lat="43.97946" lon="5.14437">
        <ele>380.8</ele>
        <time>2013-02-18T14:42:01.000Z</time>
      </trkpt>
      <trkpt lat="43.97945" lon="5.14439">
        <ele>381.6</ele>
        <time>2013-02-18T14:42:02.000Z</time>
      </trkpt>
      <trkpt lat="43.97942" lon="5.14441">
        <ele>381.7</ele>
        <time>2013-02-18T14:42:04.000Z</time>
      </trkpt>
      <trkpt lat="43.97941" lon="5.14443">
        <ele>381.6</ele>
        <time>2013-02-18T14:42:05.000Z</time>
      </trkpt>
      <trkpt lat="43.97938" lon="5.14447">
        <ele>382.4</ele>
        <time>2013-02-18T14:42:08.000Z</time>
      </trkpt>
      <trkpt lat="43.97937" lon="5.14448">
        <ele>382.7</ele>
        <time>2013-02-18T14:42:09.000Z</time>
      </trkpt>
      <trkpt lat="43.97933" lon="5.14451">
        <ele>383.5</ele>
        <time>2013-02-18T14:42:15.000Z</time>
      </trkpt>
      <trkpt lat="43.97933" lon="5.14453">
        <ele>383.6</ele>
        <time>2013-02-18T14:42:16.000Z</time>
      </trkpt>
      <trkpt lat="43.97931" lon="5.14458">
        <ele>384.1</ele>
        <time>2013-02-18T14:42:21.000Z</time>
      </trkpt>
      <trkpt lat="43.97931" lon="5.14459">
        <ele>384.3</ele>
        <time>2013-02-18T14:42:22.000Z</time>
      </trkpt>
      <trkpt lat="43.97929" lon="5.14462">
        <ele>384</ele>
        <time>2013-02-18T14:42:25.000Z</time>
      </trkpt>
      <trkpt lat="43.97927" lon="5.14463">
        <ele>383.8</ele>
        <time>2013-02-18T14:42:26.000Z</time>
      </trkpt>
      <trkpt lat="43.97923" lon="5.14466">
        <ele>384.5</ele>
        <time>2013-02-18T14:42:30.000Z</time>
      </trkpt>
      <trkpt lat="43.97922" lon="5.14467">
        <ele>384.1</ele>
        <time>2013-02-18T14:42:31.000Z</time>
      </trkpt>
      <trkpt lat="43.97919" lon="5.14471">
        <ele>385.4</ele>
        <time>2013-02-18T14:42:35.000Z</time>
      </trkpt>
      <trkpt lat="43.97918" lon="5.14473">
        <ele>385.1</ele>
        <time>2013-02-18T14:42:36.000Z</time>
      </trkpt>
      <trkpt lat="43.97915" lon="5.14475">
        <ele>385.5</ele>
        <time>2013-02-18T14:42:40.000Z</time>
      </trkpt>
      <trkpt lat="43.97914" lon="5.14477">
        <ele>385.1</ele>
        <time>2013-02-18T14:42:41.000Z</time>
      </trkpt>
      <trkpt lat="43.97911" lon="5.14481">
        <ele>385.3</ele>
        <time>2013-02-18T14:42:44.000Z</time>
      </trkpt>
      <trkpt lat="43.9791" lon="5.14481">
        <ele>385.1</ele>
        <time>2013-02-18T14:42:45.000Z</time>
      </trkpt>
      <trkpt lat="43.97907" lon="5.14485">
        <ele>386</ele>
        <time>2013-02-18T14:42:48.000Z</time>
      </trkpt>
      <trkpt lat="43.97906" lon="5.14486">
        <ele>386.1</ele>
        <time>2013-02-18T14:42:49.000Z</time>
      </trkpt>
      <trkpt lat="43.97903" lon="5.1449">
        <ele>386.5</ele>
        <time>2013-02-18T14:42:56.000Z</time>
      </trkpt>
      <trkpt lat="43.97902" lon="5.14491">
        <ele>386.4</ele>
        <time>2013-02-18T14:42:57.000Z</time>
      </trkpt>
      <trkpt lat="43.97899" lon="5.14494">
        <ele>386.5</ele>
        <time>2013-02-18T14:43:01.000Z</time>
      </trkpt>
      <trkpt lat="43.97898" lon="5.14495">
        <ele>386.4</ele>
        <time>2013-02-18T14:43:02.000Z</time>
      </trkpt>
      <trkpt lat="43.97895" lon="5.14497">
        <ele>386.1</ele>
        <time>2013-02-18T14:43:05.000Z</time>
      </trkpt>
      <trkpt lat="43.97894" lon="5.14499">
        <ele>386.2</ele>
        <time>2013-02-18T14:43:06.000Z</time>
      </trkpt>
      <trkpt lat="43.97891" lon="5.14502">
        <ele>386.3</ele>
        <time>2013-02-18T14:43:09.000Z</time>
      </trkpt>
      <trkpt lat="43.9789" lon="5.14503">
        <ele>386.3</ele>
        <time>2013-02-18T14:43:10.000Z</time>
      </trkpt>
      <trkpt lat="43.97887" lon="5.14505">
        <ele>386.7</ele>
        <time>2013-02-18T14:43:13.000Z</time>
      </trkpt>
      <trkpt lat="43.97885" lon="5.14506">
        <ele>386.7</ele>
        <time>2013-02-18T14:43:14.000Z</time>
      </trkpt>
      <trkpt lat="43.97883" lon="5.14509">
        <ele>386.9</ele>
        <time>2013-02-18T14:43:17.000Z</time>
      </trkpt>
      <trkpt lat="43.97881" lon="5.1451">
        <ele>387</ele>
        <time>2013-02-18T14:43:18.000Z</time>
      </trkpt>
      <trkpt lat="43.97877" lon="5.14513">
        <ele>386.8</ele>
        <time>2013-02-18T14:43:25.000Z</time>
      </trkpt>
      <trkpt lat="43.97877" lon="5.14514">
        <ele>386.9</ele>
        <time>2013-02-18T14:43:26.000Z</time>
      </trkpt>
      <trkpt lat="43.97874" lon="5.14516">
        <ele>387.1</ele>
        <time>2013-02-18T14:43:29.000Z</time>
      </trkpt>
      <trkpt lat="43.97872" lon="5.14518">
        <ele>387.3</ele>
        <time>2013-02-18T14:43:30.000Z</time>
      </trkpt>
      <trkpt lat="43.97869" lon="5.1452">
        <ele>387.5</ele>
        <time>2013-02-18T14:43:32.000Z</time>
      </trkpt>
      <trkpt lat="43.97868" lon="5.14521">
        <ele>387.4</ele>
        <time>2013-02-18T14:43:33.000Z</time>
      </trkpt>
      <trkpt lat="43.97864" lon="5.14522">
        <ele>387.6</ele>
        <time>2013-02-18T14:43:36.000Z</time>
      </trkpt>
      <trkpt lat="43.97863" lon="5.14522">
        <ele>387.8</ele>
        <time>2013-02-18T14:43:37.000Z</time>
      </trkpt>
      <trkpt lat="43.97858" lon="5.1452">
        <ele>388.4</ele>
        <time>2013-02-18T14:43:40.000Z</time>
      </trkpt>
      <trkpt lat="43.97858" lon="5.14519">
        <ele>388.7</ele>
        <time>2013-02-18T14:43:41.000Z</time>
      </trkpt>
      <trkpt lat="43.97859" lon="5.14524">
        <ele>390.4</ele>
        <time>2013-02-18T14:43:53.000Z</time>
      </trkpt>
      <trkpt lat="43.97854" lon="5.14531">
        <ele>387.6</ele>
        <time>2013-02-18T14:43:54.000Z</time>
      </trkpt>
      <trkpt lat="43.97853" lon="5.14533">
        <ele>388</ele>
        <time>2013-02-18T14:43:55.000Z</time>
      </trkpt>
      <trkpt lat="43.9785" lon="5.14535">
        <ele>388.4</ele>
        <time>2013-02-18T14:43:56.000Z</time>
      </trkpt>
      <trkpt lat="43.97847" lon="5.14537">
        <ele>388.5</ele>
        <time>2013-02-18T14:43:58.000Z</time>
      </trkpt>
      <trkpt lat="43.97845" lon="5.14538">
        <ele>388.6</ele>
        <time>2013-02-18T14:43:59.000Z</time>
      </trkpt>
      <trkpt lat="43.97842" lon="5.14539">
        <ele>389.2</ele>
        <time>2013-02-18T14:44:01.000Z</time>
      </trkpt>
      <trkpt lat="43.9784" lon="5.1454">
        <ele>389.1</ele>
        <time>2013-02-18T14:44:02.000Z</time>
      </trkpt>
      <trkpt lat="43.97837" lon="5.14542">
        <ele>389.2</ele>
        <time>2013-02-18T14:44:04.000Z</time>
      </trkpt>
      <trkpt lat="43.97835" lon="5.14543">
        <ele>389.1</ele>
        <time>2013-02-18T14:44:05.000Z</time>
      </trkpt>
      <trkpt lat="43.97831" lon="5.14546">
        <ele>389.3</ele>
        <time>2013-02-18T14:44:07.000Z</time>
      </trkpt>
      <trkpt lat="43.9783" lon="5.14547">
        <ele>389.5</ele>
        <time>2013-02-18T14:44:08.000Z</time>
      </trkpt>
      <trkpt lat="43.97827" lon="5.1455">
        <ele>389.9</ele>
        <time>2013-02-18T14:44:10.000Z</time>
      </trkpt>
      <trkpt lat="43.97825" lon="5.14551">
        <ele>389.6</ele>
        <time>2013-02-18T14:44:11.000Z</time>
      </trkpt>
      <trkpt lat="43.97821" lon="5.14553">
        <ele>389.6</ele>
        <time>2013-02-18T14:44:13.000Z</time>
      </trkpt>
      <trkpt lat="43.9782" lon="5.14555">
        <ele>389.6</ele>
        <time>2013-02-18T14:44:14.000Z</time>
      </trkpt>
      <trkpt lat="43.97816" lon="5.14557">
        <ele>390</ele>
        <time>2013-02-18T14:44:16.000Z</time>
      </trkpt>
      <trkpt lat="43.97814" lon="5.14559">
        <ele>390.3</ele>
        <time>2013-02-18T14:44:17.000Z</time>
      </trkpt>
      <trkpt lat="43.9781" lon="5.14562">
        <ele>390.8</ele>
        <time>2013-02-18T14:44:19.000Z</time>
      </trkpt>
      <trkpt lat="43.97809" lon="5.14563">
        <ele>390.9</ele>
        <time>2013-02-18T14:44:20.000Z</time>
      </trkpt>
      <trkpt lat="43.97805" lon="5.14566">
        <ele>391.1</ele>
        <time>2013-02-18T14:44:22.000Z</time>
      </trkpt>
      <trkpt lat="43.97803" lon="5.14567">
        <ele>391.4</ele>
        <time>2013-02-18T14:44:23.000Z</time>
      </trkpt>
      <trkpt lat="43.978" lon="5.1457">
        <ele>391.8</ele>
        <time>2013-02-18T14:44:25.000Z</time>
      </trkpt>
      <trkpt lat="43.97798" lon="5.14571">
        <ele>392</ele>
        <time>2013-02-18T14:44:26.000Z</time>
      </trkpt>
      <trkpt lat="43.97794" lon="5.14575">
        <ele>392.4</ele>
        <time>2013-02-18T14:44:28.000Z</time>
      </trkpt>
      <trkpt lat="43.97792" lon="5.14576">
        <ele>392.5</ele>
        <time>2013-02-18T14:44:29.000Z</time>
      </trkpt>
      <trkpt lat="43.97789" lon="5.14578">
        <ele>392.7</ele>
        <time>2013-02-18T14:44:31.000Z</time>
      </trkpt>
      <trkpt lat="43.97787" lon="5.14579">
        <ele>392.7</ele>
        <time>2013-02-18T14:44:32.000Z</time>
      </trkpt>
      <trkpt lat="43.97784" lon="5.14581">
        <ele>393</ele>
        <time>2013-02-18T14:44:34.000Z</time>
      </trkpt>
      <trkpt lat="43.97783" lon="5.14582">
        <ele>393.3</ele>
        <time>2013-02-18T14:44:35.000Z</time>
      </trkpt>
      <trkpt lat="43.9778" lon="5.14585">
        <ele>393.6</ele>
        <time>2013-02-18T14:44:37.000Z</time>
      </trkpt>
      <trkpt lat="43.97779" lon="5.14586">
        <ele>393.6</ele>
        <time>2013-02-18T14:44:38.000Z</time>
      </trkpt>
      <trkpt lat="43.97776" lon="5.14588">
        <ele>393.7</ele>
        <time>2013-02-18T14:44:40.000Z</time>
      </trkpt>
      <trkpt lat="43.97774" lon="5.14589">
        <ele>393.7</ele>
        <time>2013-02-18T14:44:41.000Z</time>
      </trkpt>
      <trkpt lat="43.97771" lon="5.14591">
        <ele>394</ele>
        <time>2013-02-18T14:44:43.000Z</time>
      </trkpt>
      <trkpt lat="43.97769" lon="5.14592">
        <ele>394.4</ele>
        <time>2013-02-18T14:44:44.000Z</time>
      </trkpt>
      <trkpt lat="43.97767" lon="5.14594">
        <ele>394.8</ele>
        <time>2013-02-18T14:44:46.000Z</time>
      </trkpt>
      <trkpt lat="43.97765" lon="5.14595">
        <ele>394.9</ele>
        <time>2013-02-18T14:44:47.000Z</time>
      </trkpt>
      <trkpt lat="43.97762" lon="5.14598">
        <ele>395.3</ele>
        <time>2013-02-18T14:44:50.000Z</time>
      </trkpt>
      <trkpt lat="43.9776" lon="5.14598">
        <ele>395.2</ele>
        <time>2013-02-18T14:44:51.000Z</time>
      </trkpt>
      <trkpt lat="43.97757" lon="5.14601">
        <ele>395.6</ele>
        <time>2013-02-18T14:44:54.000Z</time>
      </trkpt>
      <trkpt lat="43.97755" lon="5.14602">
        <ele>395.9</ele>
        <time>2013-02-18T14:44:55.000Z</time>
      </trkpt>
      <trkpt lat="43.97752" lon="5.14604">
        <ele>396.6</ele>
        <time>2013-02-18T14:44:57.000Z</time>
      </trkpt>
      <trkpt lat="43.97751" lon="5.14605">
        <ele>397</ele>
        <time>2013-02-18T14:44:58.000Z</time>
      </trkpt>
      <trkpt lat="43.97747" lon="5.14607">
        <ele>397.4</ele>
        <time>2013-02-18T14:45:01.000Z</time>
      </trkpt>
      <trkpt lat="43.97745" lon="5.14608">
        <ele>397.6</ele>
        <time>2013-02-18T14:45:02.000Z</time>
      </trkpt>
      <trkpt lat="43.97742" lon="5.1461">
        <ele>398</ele>
        <time>2013-02-18T14:45:05.000Z</time>
      </trkpt>
      <trkpt lat="43.97741" lon="5.14611">
        <ele>398.2</ele>
        <time>2013-02-18T14:45:06.000Z</time>
      </trkpt>
      <trkpt lat="43.97738" lon="5.14614">
        <ele>398.6</ele>
        <time>2013-02-18T14:45:09.000Z</time>
      </trkpt>
      <trkpt lat="43.97736" lon="5.14615">
        <ele>399</ele>
        <time>2013-02-18T14:45:10.000Z</time>
      </trkpt>
      <trkpt lat="43.97733" lon="5.14618">
        <ele>399.7</ele>
        <time>2013-02-18T14:45:16.000Z</time>
      </trkpt>
      <trkpt lat="43.97732" lon="5.14619">
        <ele>400</ele>
        <time>2013-02-18T14:45:17.000Z</time>
      </trkpt>
      <trkpt lat="43.97729" lon="5.14622">
        <ele>400.8</ele>
        <time>2013-02-18T14:45:22.000Z</time>
      </trkpt>
      <trkpt lat="43.97728" lon="5.14623">
        <ele>401</ele>
        <time>2013-02-18T14:45:23.000Z</time>
      </trkpt>
      <trkpt lat="43.97725" lon="5.14626">
        <ele>401.6</ele>
        <time>2013-02-18T14:45:28.000Z</time>
      </trkpt>
      <trkpt lat="43.97725" lon="5.14627">
        <ele>401.7</ele>
        <time>2013-02-18T14:45:29.000Z</time>
      </trkpt>
      <trkpt lat="43.97724" lon="5.14633">
        <ele>401.9</ele>
        <time>2013-02-18T14:45:35.000Z</time>
      </trkpt>
      <trkpt lat="43.97727" lon="5.14633">
        <ele>401.2</ele>
        <time>2013-02-18T14:45:36.000Z</time>
      </trkpt>
      <trkpt lat="43.97724" lon="5.14634">
        <ele>401.5</ele>
        <time>2013-02-18T14:45:41.000Z</time>
      </trkpt>
      <trkpt lat="43.97722" lon="5.14636">
        <ele>401.8</ele>
        <time>2013-02-18T14:45:42.000Z</time>
      </trkpt>
      <trkpt lat="43.9772" lon="5.14641">
        <ele>402.9</ele>
        <time>2013-02-18T14:45:46.000Z</time>
      </trkpt>
      <trkpt lat="43.97719" lon="5.14641">
        <ele>402.8</ele>
        <time>2013-02-18T14:45:47.000Z</time>
      </trkpt>
      <trkpt lat="43.9772" lon="5.14644">
        <ele>403.3</ele>
        <time>2013-02-18T14:45:51.000Z</time>
      </trkpt>
      <trkpt lat="43.97719" lon="5.14648">
        <ele>403.1</ele>
        <time>2013-02-18T14:45:52.000Z</time>
      </trkpt>
      <trkpt lat="43.97718" lon="5.14653">
        <ele>402.8</ele>
        <time>2013-02-18T14:45:54.000Z</time>
      </trkpt>
      <trkpt lat="43.97718" lon="5.14655">
        <ele>403.4</ele>
        <time>2013-02-18T14:45:55.000Z</time>
      </trkpt>
      <trkpt lat="43.97718" lon="5.1466">
        <ele>403.6</ele>
        <time>2013-02-18T14:45:57.000Z</time>
      </trkpt>
      <trkpt lat="43.97718" lon="5.14663">
        <ele>403.5</ele>
        <time>2013-02-18T14:45:58.000Z</time>
      </trkpt>
      <trkpt lat="43.97718" lon="5.14668">
        <ele>404</ele>
        <time>2013-02-18T14:46:00.000Z</time>
      </trkpt>
      <trkpt lat="43.97717" lon="5.1467">
        <ele>404.2</ele>
        <time>2013-02-18T14:46:01.000Z</time>
      </trkpt>
      <trkpt lat="43.97717" lon="5.14675">
        <ele>405.4</ele>
        <time>2013-02-18T14:46:03.000Z</time>
      </trkpt>
      <trkpt lat="43.97717" lon="5.14678">
        <ele>405.4</ele>
        <time>2013-02-18T14:46:04.000Z</time>
      </trkpt>
      <trkpt lat="43.97717" lon="5.14683">
        <ele>405.3</ele>
        <time>2013-02-18T14:46:06.000Z</time>
      </trkpt>
      <trkpt lat="43.97717" lon="5.14685">
        <ele>405.4</ele>
        <time>2013-02-18T14:46:07.000Z</time>
      </trkpt>
      <trkpt lat="43.97717" lon="5.1469">
        <ele>405.6</ele>
        <time>2013-02-18T14:46:09.000Z</time>
      </trkpt>
      <trkpt lat="43.97716" lon="5.14692">
        <ele>405.8</ele>
        <time>2013-02-18T14:46:10.000Z</time>
      </trkpt>
      <trkpt lat="43.97714" lon="5.14696">
        <ele>405.8</ele>
        <time>2013-02-18T14:46:12.000Z</time>
      </trkpt>
      <trkpt lat="43.97714" lon="5.14698">
        <ele>405.9</ele>
        <time>2013-02-18T14:46:13.000Z</time>
      </trkpt>
      <trkpt lat="43.97711" lon="5.14701">
        <ele>406.7</ele>
        <time>2013-02-18T14:46:15.000Z</time>
      </trkpt>
      <trkpt lat="43.97709" lon="5.14702">
        <ele>407.4</ele>
        <time>2013-02-18T14:46:16.000Z</time>
      </trkpt>
      <trkpt lat="43.97706" lon="5.14704">
        <ele>408.3</ele>
        <time>2013-02-18T14:46:18.000Z</time>
      </trkpt>
      <trkpt lat="43.97704" lon="5.14705">
        <ele>408.5</ele>
        <time>2013-02-18T14:46:19.000Z</time>
      </trkpt>
      <trkpt lat="43.97701" lon="5.14707">
        <ele>409</ele>
        <time>2013-02-18T14:46:21.000Z</time>
      </trkpt>
      <trkpt lat="43.977" lon="5.14708">
        <ele>409.3</ele>
        <time>2013-02-18T14:46:22.000Z</time>
      </trkpt>
      <trkpt lat="43.97698" lon="5.14713">
        <ele>409.7</ele>
        <time>2013-02-18T14:46:26.000Z</time>
      </trkpt>
      <trkpt lat="43.97697" lon="5.14715">
        <ele>409.5</ele>
        <time>2013-02-18T14:46:27.000Z</time>
      </trkpt>
      <trkpt lat="43.97698" lon="5.14719">
        <ele>409.8</ele>
        <time>2013-02-18T14:46:29.000Z</time>
      </trkpt>
      <trkpt lat="43.97698" lon="5.14722">
        <ele>410.5</ele>
        <time>2013-02-18T14:46:30.000Z</time>
      </trkpt>
      <trkpt lat="43.97701" lon="5.14721">
        <ele>411</ele>
        <time>2013-02-18T14:46:40.000Z</time>
      </trkpt>
      <trkpt lat="43.97703" lon="5.14721">
        <ele>410.8</ele>
        <time>2013-02-18T14:46:41.000Z</time>
      </trkpt>
      <trkpt lat="43.97701" lon="5.14715">
        <ele>407.7</ele>
        <time>2013-02-18T14:48:10.000Z</time>
      </trkpt>
      <trkpt lat="43.97701" lon="5.14713">
        <ele>408.3</ele>
        <time>2013-02-18T14:48:11.000Z</time>
      </trkpt>
      <trkpt lat="43.97701" lon="5.14708">
        <ele>409.7</ele>
        <time>2013-02-18T14:48:13.000Z</time>
      </trkpt>
      <trkpt lat="43.977" lon="5.14706">
        <ele>411</ele>
        <time>2013-02-18T14:48:14.000Z</time>
      </trkpt>
      <trkpt lat="43.97698" lon="5.14706">
        <ele>418.8</ele>
        <time>2013-02-18T14:48:17.000Z</time>
      </trkpt>
      <trkpt lat="43.97698" lon="5.14696">
        <ele>417.5</ele>
        <time>2013-02-18T14:48:18.000Z</time>
      </trkpt>
      <trkpt lat="43.97696" lon="5.1469">
        <ele>417.3</ele>
        <time>2013-02-18T14:48:19.000Z</time>
      </trkpt>
      <trkpt lat="43.97695" lon="5.14688">
        <ele>419.6</ele>
        <time>2013-02-18T14:48:20.000Z</time>
      </trkpt>
      <trkpt lat="43.97694" lon="5.14682">
        <ele>419.1</ele>
        <time>2013-02-18T14:48:21.000Z</time>
      </trkpt>
      <trkpt lat="43.97691" lon="5.14676">
        <ele>417.2</ele>
        <time>2013-02-18T14:48:22.000Z</time>
      </trkpt>
      <trkpt lat="43.97691" lon="5.1467">
        <ele>415.8</ele>
        <time>2013-02-18T14:48:23.000Z</time>
      </trkpt>
      <trkpt lat="43.97692" lon="5.14664">
        <ele>415.3</ele>
        <time>2013-02-18T14:48:24.000Z</time>
      </trkpt>
      <trkpt lat="43.97692" lon="5.14659">
        <ele>414.9</ele>
        <time>2013-02-18T14:48:25.000Z</time>
      </trkpt>
      <trkpt lat="43.97693" lon="5.14654">
        <ele>414.6</ele>
        <time>2013-02-18T14:48:26.000Z</time>
      </trkpt>
      <trkpt lat="43.97694" lon="5.14649">
        <ele>414.3</ele>
        <time>2013-02-18T14:48:27.000Z</time>
      </trkpt>
      <trkpt lat="43.97694" lon="5.14645">
        <ele>414.1</ele>
        <time>2013-02-18T14:48:28.000Z</time>
      </trkpt>
      <trkpt lat="43.97695" lon="5.14639">
        <ele>414.2</ele>
        <time>2013-02-18T14:48:29.000Z</time>
      </trkpt>
      <trkpt lat="43.97698" lon="5.14636">
        <ele>411.9</ele>
        <time>2013-02-18T14:48:30.000Z</time>
      </trkpt>
      <trkpt lat="43.97698" lon="5.14631">
        <ele>411.9</ele>
        <time>2013-02-18T14:48:31.000Z</time>
      </trkpt>
      <trkpt lat="43.977" lon="5.14626">
        <ele>411.9</ele>
        <time>2013-02-18T14:48:32.000Z</time>
      </trkpt>
      <trkpt lat="43.97701" lon="5.14621">
        <ele>411.9</ele>
        <time>2013-02-18T14:48:33.000Z</time>
      </trkpt>
      <trkpt lat="43.97702" lon="5.14616">
        <ele>411.4</ele>
        <time>2013-02-18T14:48:34.000Z</time>
      </trkpt>
      <trkpt lat="43.97704" lon="5.14611">
        <ele>410.8</ele>
        <time>2013-02-18T14:48:35.000Z</time>
      </trkpt>
      <trkpt lat="43.97705" lon="5.14607">
        <ele>410.1</ele>
        <time>2013-02-18T14:48:36.000Z</time>
      </trkpt>
      <trkpt lat="43.97707" lon="5.14604">
        <ele>409.4</ele>
        <time>2013-02-18T14:48:37.000Z</time>
      </trkpt>
      <trkpt lat="43.97704" lon="5.14598">
        <ele>412.6</ele>
        <time>2013-02-18T14:48:38.000Z</time>
      </trkpt>
      <trkpt lat="43.97704" lon="5.14594">
        <ele>411.6</ele>
        <time>2013-02-18T14:48:39.000Z</time>
      </trkpt>
      <trkpt lat="43.97705" lon="5.14588">
        <ele>410.8</ele>
        <time>2013-02-18T14:48:40.000Z</time>
      </trkpt>
      <trkpt lat="43.97707" lon="5.14583">
        <ele>409.8</ele>
        <time>2013-02-18T14:48:41.000Z</time>
      </trkpt>
      <trkpt lat="43.97708" lon="5.14579">
        <ele>409.6</ele>
        <time>2013-02-18T14:48:42.000Z</time>
      </trkpt>
      <trkpt lat="43.9771" lon="5.14575">
        <ele>409.2</ele>
        <time>2013-02-18T14:48:43.000Z</time>
      </trkpt>
      <trkpt lat="43.97712" lon="5.1457">
        <ele>408.9</ele>
        <time>2013-02-18T14:48:44.000Z</time>
      </trkpt>
      <trkpt lat="43.97713" lon="5.14567">
        <ele>408.9</ele>
        <time>2013-02-18T14:48:45.000Z</time>
      </trkpt>
      <trkpt lat="43.97714" lon="5.14562">
        <ele>408.9</ele>
        <time>2013-02-18T14:48:46.000Z</time>
      </trkpt>
      <trkpt lat="43.97713" lon="5.14558">
        <ele>409.7</ele>
        <time>2013-02-18T14:48:47.000Z</time>
      </trkpt>
      <trkpt lat="43.97713" lon="5.14554">
        <ele>410.2</ele>
        <time>2013-02-18T14:48:48.000Z</time>
      </trkpt>
      <trkpt lat="43.97712" lon="5.14549">
        <ele>410.4</ele>
        <time>2013-02-18T14:48:49.000Z</time>
      </trkpt>
      <trkpt lat="43.9771" lon="5.14546">
        <ele>411.4</ele>
        <time>2013-02-18T14:48:50.000Z</time>
      </trkpt>
      <trkpt lat="43.97707" lon="5.14544">
        <ele>411.8</ele>
        <time>2013-02-18T14:48:52.000Z</time>
      </trkpt>
      <trkpt lat="43.97705" lon="5.14544">
        <ele>412</ele>
        <time>2013-02-18T14:48:53.000Z</time>
      </trkpt>
      <trkpt lat="43.97701" lon="5.14546">
        <ele>412.2</ele>
        <time>2013-02-18T14:48:55.000Z</time>
      </trkpt>
      <trkpt lat="43.977" lon="5.1455">
        <ele>412.1</ele>
        <time>2013-02-18T14:48:56.000Z</time>
      </trkpt>
      <trkpt lat="43.97696" lon="5.14554">
        <ele>412.2</ele>
        <time>2013-02-18T14:48:58.000Z</time>
      </trkpt>
      <trkpt lat="43.97695" lon="5.14556">
        <ele>412.2</ele>
        <time>2013-02-18T14:48:59.000Z</time>
      </trkpt>
      <trkpt lat="43.97693" lon="5.14558">
        <ele>412.4</ele>
        <time>2013-02-18T14:49:00.000Z</time>
      </trkpt>
      <trkpt lat="43.97691" lon="5.14561">
        <ele>412.3</ele>
        <time>2013-02-18T14:49:01.000Z</time>
      </trkpt>
      <trkpt lat="43.9769" lon="5.14563">
        <ele>412.4</ele>
        <time>2013-02-18T14:49:02.000Z</time>
      </trkpt>
      <trkpt lat="43.97688" lon="5.14565">
        <ele>412.6</ele>
        <time>2013-02-18T14:49:03.000Z</time>
      </trkpt>
      <trkpt lat="43.97686" lon="5.14568">
        <ele>412.4</ele>
        <time>2013-02-18T14:49:04.000Z</time>
      </trkpt>
      <trkpt lat="43.97685" lon="5.1457">
        <ele>412.4</ele>
        <time>2013-02-18T14:49:05.000Z</time>
      </trkpt>
      <trkpt lat="43.97683" lon="5.14572">
        <ele>412.6</ele>
        <time>2013-02-18T14:49:06.000Z</time>
      </trkpt>
      <trkpt lat="43.97681" lon="5.14574">
        <ele>412.8</ele>
        <time>2013-02-18T14:49:07.000Z</time>
      </trkpt>
      <trkpt lat="43.97679" lon="5.14577">
        <ele>413.1</ele>
        <time>2013-02-18T14:49:08.000Z</time>
      </trkpt>
      <trkpt lat="43.97678" lon="5.14579">
        <ele>413.1</ele>
        <time>2013-02-18T14:49:09.000Z</time>
      </trkpt>
      <trkpt lat="43.97676" lon="5.14581">
        <ele>413.3</ele>
        <time>2013-02-18T14:49:10.000Z</time>
      </trkpt>
      <trkpt lat="43.97674" lon="5.14584">
        <ele>413.4</ele>
        <time>2013-02-18T14:49:11.000Z</time>
      </trkpt>
      <trkpt lat="43.97673" lon="5.14586">
        <ele>413.5</ele>
        <time>2013-02-18T14:49:12.000Z</time>
      </trkpt>
      <trkpt lat="43.97671" lon="5.14588">
        <ele>413.9</ele>
        <time>2013-02-18T14:49:13.000Z</time>
      </trkpt>
      <trkpt lat="43.97668" lon="5.14592">
        <ele>414.2</ele>
        <time>2013-02-18T14:49:15.000Z</time>
      </trkpt>
      <trkpt lat="43.97666" lon="5.14595">
        <ele>414.3</ele>
        <time>2013-02-18T14:49:16.000Z</time>
      </trkpt>
      <trkpt lat="43.97663" lon="5.14599">
        <ele>414.7</ele>
        <time>2013-02-18T14:49:18.000Z</time>
      </trkpt>
      <trkpt lat="43.97661" lon="5.14601">
        <ele>414.7</ele>
        <time>2013-02-18T14:49:19.000Z</time>
      </trkpt>
      <trkpt lat="43.97658" lon="5.14605">
        <ele>415</ele>
        <time>2013-02-18T14:49:21.000Z</time>
      </trkpt>
      <trkpt lat="43.97657" lon="5.14607">
        <ele>415.3</ele>
        <time>2013-02-18T14:49:22.000Z</time>
      </trkpt>
      <trkpt lat="43.97654" lon="5.14612">
        <ele>415.7</ele>
        <time>2013-02-18T14:49:24.000Z</time>
      </trkpt>
      <trkpt lat="43.97653" lon="5.14614">
        <ele>416.1</ele>
        <time>2013-02-18T14:49:25.000Z</time>
      </trkpt>
      <trkpt lat="43.9765" lon="5.14619">
        <ele>416.4</ele>
        <time>2013-02-18T14:49:27.000Z</time>
      </trkpt>
      <trkpt lat="43.97649" lon="5.14621">
        <ele>416.6</ele>
        <time>2013-02-18T14:49:28.000Z</time>
      </trkpt>
      <trkpt lat="43.97646" lon="5.14625">
        <ele>417</ele>
        <time>2013-02-18T14:49:30.000Z</time>
      </trkpt>
      <trkpt lat="43.97644" lon="5.14627">
        <ele>417.2</ele>
        <time>2013-02-18T14:49:31.000Z</time>
      </trkpt>
      <trkpt lat="43.97642" lon="5.14631">
        <ele>417.6</ele>
        <time>2013-02-18T14:49:33.000Z</time>
      </trkpt>
      <trkpt lat="43.97641" lon="5.14633">
        <ele>418.1</ele>
        <time>2013-02-18T14:49:34.000Z</time>
      </trkpt>
      <trkpt lat="43.97639" lon="5.14638">
        <ele>420.8</ele>
        <time>2013-02-18T14:49:36.000Z</time>
      </trkpt>
      <trkpt lat="43.9764" lon="5.14643">
        <ele>422.4</ele>
        <time>2013-02-18T14:49:37.000Z</time>
      </trkpt>
      <trkpt lat="43.9764" lon="5.14646">
        <ele>422.2</ele>
        <time>2013-02-18T14:49:38.000Z</time>
      </trkpt>
      <trkpt lat="43.97639" lon="5.14649">
        <ele>421.4</ele>
        <time>2013-02-18T14:49:39.000Z</time>
      </trkpt>
      <trkpt lat="43.97635" lon="5.14652">
        <ele>422.3</ele>
        <time>2013-02-18T14:49:43.000Z</time>
      </trkpt>
      <trkpt lat="43.97635" lon="5.14654">
        <ele>423.6</ele>
        <time>2013-02-18T14:49:44.000Z</time>
      </trkpt>
      <trkpt lat="43.97631" lon="5.14656">
        <ele>425.5</ele>
        <time>2013-02-18T14:50:25.000Z</time>
      </trkpt>
      <trkpt lat="43.97631" lon="5.14656">
        <ele>425.5</ele>
        <time>2013-02-18T14:50:26.000Z</time>
      </trkpt>
      <trkpt lat="43.97628" lon="5.14653">
        <ele>425</ele>
        <time>2013-02-18T14:50:45.000Z</time>
      </trkpt>
      <trkpt lat="43.97626" lon="5.14654">
        <ele>423.2</ele>
        <time>2013-02-18T14:50:46.000Z</time>
      </trkpt>
      <trkpt lat="43.97623" lon="5.14654">
        <ele>423.6</ele>
        <time>2013-02-18T14:50:48.000Z</time>
      </trkpt>
      <trkpt lat="43.9762" lon="5.14655">
        <ele>422.7</ele>
        <time>2013-02-18T14:50:49.000Z</time>
      </trkpt>
      <trkpt lat="43.97616" lon="5.14656">
        <ele>422.6</ele>
        <time>2013-02-18T14:50:51.000Z</time>
      </trkpt>
      <trkpt lat="43.97614" lon="5.14657">
        <ele>423.4</ele>
        <time>2013-02-18T14:50:52.000Z</time>
      </trkpt>
      <trkpt lat="43.97611" lon="5.14659">
        <ele>422.7</ele>
        <time>2013-02-18T14:50:54.000Z</time>
      </trkpt>
      <trkpt lat="43.97609" lon="5.1466">
        <ele>422.6</ele>
        <time>2013-02-18T14:50:55.000Z</time>
      </trkpt>
      <trkpt lat="43.97605" lon="5.14661">
        <ele>423</ele>
        <time>2013-02-18T14:50:57.000Z</time>
      </trkpt>
      <trkpt lat="43.97603" lon="5.14662">
        <ele>423</ele>
        <time>2013-02-18T14:50:58.000Z</time>
      </trkpt>
      <trkpt lat="43.97599" lon="5.14662">
        <ele>423.6</ele>
        <time>2013-02-18T14:51:00.000Z</time>
      </trkpt>
      <trkpt lat="43.97597" lon="5.14661">
        <ele>423.8</ele>
        <time>2013-02-18T14:51:01.000Z</time>
      </trkpt>
      <trkpt lat="43.97594" lon="5.14661">
        <ele>424</ele>
        <time>2013-02-18T14:51:02.000Z</time>
      </trkpt>
      <trkpt lat="43.97592" lon="5.1466">
        <ele>423.9</ele>
        <time>2013-02-18T14:51:03.000Z</time>
      </trkpt>
      <trkpt lat="43.97589" lon="5.1466">
        <ele>424.1</ele>
        <time>2013-02-18T14:51:05.000Z</time>
      </trkpt>
      <trkpt lat="43.97585" lon="5.1466">
        <ele>424.3</ele>
        <time>2013-02-18T14:51:06.000Z</time>
      </trkpt>
      <trkpt lat="43.97583" lon="5.14661">
        <ele>424.4</ele>
        <time>2013-02-18T14:51:07.000Z</time>
      </trkpt>
      <trkpt lat="43.9758" lon="5.14659">
        <ele>424.5</ele>
        <time>2013-02-18T14:51:08.000Z</time>
      </trkpt>
      <trkpt lat="43.97577" lon="5.1466">
        <ele>422.9</ele>
        <time>2013-02-18T14:51:09.000Z</time>
      </trkpt>
      <trkpt lat="43.97574" lon="5.1466">
        <ele>423.5</ele>
        <time>2013-02-18T14:51:10.000Z</time>
      </trkpt>
      <trkpt lat="43.97571" lon="5.14661">
        <ele>422.8</ele>
        <time>2013-02-18T14:51:11.000Z</time>
      </trkpt>
      <trkpt lat="43.97568" lon="5.14662">
        <ele>422.9</ele>
        <time>2013-02-18T14:51:12.000Z</time>
      </trkpt>
      <trkpt lat="43.97566" lon="5.14662">
        <ele>422.5</ele>
        <time>2013-02-18T14:51:13.000Z</time>
      </trkpt>
      <trkpt lat="43.97563" lon="5.14662">
        <ele>422.8</ele>
        <time>2013-02-18T14:51:14.000Z</time>
      </trkpt>
      <trkpt lat="43.97561" lon="5.14662">
        <ele>424</ele>
        <time>2013-02-18T14:51:15.000Z</time>
      </trkpt>
      <trkpt lat="43.97558" lon="5.14664">
        <ele>425.6</ele>
        <time>2013-02-18T14:51:16.000Z</time>
      </trkpt>
      <trkpt lat="43.97556" lon="5.14665">
        <ele>428.2</ele>
        <time>2013-02-18T14:51:17.000Z</time>
      </trkpt>
      <trkpt lat="43.97554" lon="5.14666">
        <ele>429.5</ele>
        <time>2013-02-18T14:51:18.000Z</time>
      </trkpt>
      <trkpt lat="43.97551" lon="5.14666">
        <ele>429.6</ele>
        <time>2013-02-18T14:51:19.000Z</time>
      </trkpt>
      <trkpt lat="43.97549" lon="5.14666">
        <ele>429.6</ele>
        <time>2013-02-18T14:51:20.000Z</time>
      </trkpt>
      <trkpt lat="43.97545" lon="5.14666">
        <ele>429.5</ele>
        <time>2013-02-18T14:51:21.000Z</time>
      </trkpt>
      <trkpt lat="43.97541" lon="5.14666">
        <ele>429.4</ele>
        <time>2013-02-18T14:51:22.000Z</time>
      </trkpt>
      <trkpt lat="43.97537" lon="5.14667">
        <ele>429.2</ele>
        <time>2013-02-18T14:51:23.000Z</time>
      </trkpt>
      <trkpt lat="43.97535" lon="5.14667">
        <ele>429.4</ele>
        <time>2013-02-18T14:51:24.000Z</time>
      </trkpt>
      <trkpt lat="43.97532" lon="5.14667">
        <ele>429.3</ele>
        <time>2013-02-18T14:51:25.000Z</time>
      </trkpt>
      <trkpt lat="43.97528" lon="5.14667">
        <ele>429.1</ele>
        <time>2013-02-18T14:51:26.000Z</time>
      </trkpt>
      <trkpt lat="43.97525" lon="5.14668">
        <ele>428.8</ele>
        <time>2013-02-18T14:51:27.000Z</time>
      </trkpt>
      <trkpt lat="43.97522" lon="5.14668">
        <ele>428.3</ele>
        <time>2013-02-18T14:51:28.000Z</time>
      </trkpt>
      <trkpt lat="43.97517" lon="5.14668">
        <ele>427.6</ele>
        <time>2013-02-18T14:51:30.000Z</time>
      </trkpt>
      <trkpt lat="43.97515" lon="5.14668">
        <ele>427.4</ele>
        <time>2013-02-18T14:51:31.000Z</time>
      </trkpt>
      <trkpt lat="43.97511" lon="5.14666">
        <ele>427.5</ele>
        <time>2013-02-18T14:51:33.000Z</time>
      </trkpt>
      <trkpt lat="43.97509" lon="5.14668">
        <ele>427.7</ele>
        <time>2013-02-18T14:51:34.000Z</time>
      </trkpt>
      <trkpt lat="43.97505" lon="5.14669">
        <ele>427.9</ele>
        <time>2013-02-18T14:51:35.000Z</time>
      </trkpt>
      <trkpt lat="43.97501" lon="5.14671">
        <ele>428.2</ele>
        <time>2013-02-18T14:51:36.000Z</time>
      </trkpt>
      <trkpt lat="43.97498" lon="5.14672">
        <ele>427.9</ele>
        <time>2013-02-18T14:51:37.000Z</time>
      </trkpt>
      <trkpt lat="43.97495" lon="5.14672">
        <ele>427.2</ele>
        <time>2013-02-18T14:51:38.000Z</time>
      </trkpt>
      <trkpt lat="43.97491" lon="5.14673">
        <ele>427.3</ele>
        <time>2013-02-18T14:51:40.000Z</time>
      </trkpt>
      <trkpt lat="43.97489" lon="5.14671">
        <ele>427.1</ele>
        <time>2013-02-18T14:51:41.000Z</time>
      </trkpt>
      <trkpt lat="43.97486" lon="5.14671">
        <ele>427</ele>
        <time>2013-02-18T14:51:43.000Z</time>
      </trkpt>
      <trkpt lat="43.97484" lon="5.14672">
        <ele>427</ele>
        <time>2013-02-18T14:51:44.000Z</time>
      </trkpt>
      <trkpt lat="43.97481" lon="5.14671">
        <ele>426.7</ele>
        <time>2013-02-18T14:51:45.000Z</time>
      </trkpt>
      <trkpt lat="43.97479" lon="5.14672">
        <ele>426.5</ele>
        <time>2013-02-18T14:51:46.000Z</time>
      </trkpt>
      <trkpt lat="43.97475" lon="5.14673">
        <ele>426.5</ele>
        <time>2013-02-18T14:51:47.000Z</time>
      </trkpt>
      <trkpt lat="43.97474" lon="5.14674">
        <ele>427</ele>
        <time>2013-02-18T14:51:48.000Z</time>
      </trkpt>
      <trkpt lat="43.97471" lon="5.14673">
        <ele>426.7</ele>
        <time>2013-02-18T14:51:49.000Z</time>
      </trkpt>
      <trkpt lat="43.97468" lon="5.14671">
        <ele>426.6</ele>
        <time>2013-02-18T14:51:50.000Z</time>
      </trkpt>
      <trkpt lat="43.97464" lon="5.14673">
        <ele>426.2</ele>
        <time>2013-02-18T14:51:52.000Z</time>
      </trkpt>
      <trkpt lat="43.97463" lon="5.14673">
        <ele>427</ele>
        <time>2013-02-18T14:51:53.000Z</time>
      </trkpt>
      <trkpt lat="43.97459" lon="5.14673">
        <ele>427</ele>
        <time>2013-02-18T14:51:55.000Z</time>
      </trkpt>
      <trkpt lat="43.97457" lon="5.14674">
        <ele>427.1</ele>
        <time>2013-02-18T14:51:56.000Z</time>
      </trkpt>
      <trkpt lat="43.97452" lon="5.14672">
        <ele>426.5</ele>
        <time>2013-02-18T14:51:58.000Z</time>
      </trkpt>
      <trkpt lat="43.97449" lon="5.14672">
        <ele>426.6</ele>
        <time>2013-02-18T14:51:59.000Z</time>
      </trkpt>
      <trkpt lat="43.97448" lon="5.14673">
        <ele>426.6</ele>
        <time>2013-02-18T14:52:00.000Z</time>
      </trkpt>
      <trkpt lat="43.97444" lon="5.14673">
        <ele>428.4</ele>
        <time>2013-02-18T14:52:02.000Z</time>
      </trkpt>
      <trkpt lat="43.97442" lon="5.14673">
        <ele>428</ele>
        <time>2013-02-18T14:52:03.000Z</time>
      </trkpt>
      <trkpt lat="43.97439" lon="5.14674">
        <ele>428.2</ele>
        <time>2013-02-18T14:52:04.000Z</time>
      </trkpt>
      <trkpt lat="43.97437" lon="5.14675">
        <ele>428.2</ele>
        <time>2013-02-18T14:52:05.000Z</time>
      </trkpt>
      <trkpt lat="43.97435" lon="5.14676">
        <ele>428.3</ele>
        <time>2013-02-18T14:52:06.000Z</time>
      </trkpt>
      <trkpt lat="43.97432" lon="5.14677">
        <ele>427.9</ele>
        <time>2013-02-18T14:52:07.000Z</time>
      </trkpt>
      <trkpt lat="43.97428" lon="5.14679">
        <ele>428.5</ele>
        <time>2013-02-18T14:52:09.000Z</time>
      </trkpt>
      <trkpt lat="43.97426" lon="5.1468">
        <ele>428.7</ele>
        <time>2013-02-18T14:52:10.000Z</time>
      </trkpt>
      <trkpt lat="43.97424" lon="5.14681">
        <ele>428.7</ele>
        <time>2013-02-18T14:52:11.000Z</time>
      </trkpt>
      <trkpt lat="43.97422" lon="5.14682">
        <ele>428.6</ele>
        <time>2013-02-18T14:52:12.000Z</time>
      </trkpt>
      <trkpt lat="43.9742" lon="5.14684">
        <ele>429.1</ele>
        <time>2013-02-18T14:52:13.000Z</time>
      </trkpt>
      <trkpt lat="43.97417" lon="5.14686">
        <ele>429.8</ele>
        <time>2013-02-18T14:52:14.000Z</time>
      </trkpt>
      <trkpt lat="43.97415" lon="5.14688">
        <ele>430.3</ele>
        <time>2013-02-18T14:52:15.000Z</time>
      </trkpt>
      <trkpt lat="43.97413" lon="5.1469">
        <ele>430.6</ele>
        <time>2013-02-18T14:52:16.000Z</time>
      </trkpt>
      <trkpt lat="43.9741" lon="5.14693">
        <ele>431</ele>
        <time>2013-02-18T14:52:18.000Z</time>
      </trkpt>
      <trkpt lat="43.97408" lon="5.14695">
        <ele>431.1</ele>
        <time>2013-02-18T14:52:19.000Z</time>
      </trkpt>
      <trkpt lat="43.97405" lon="5.14699">
        <ele>431.6</ele>
        <time>2013-02-18T14:52:21.000Z</time>
      </trkpt>
      <trkpt lat="43.97404" lon="5.14701">
        <ele>432.5</ele>
        <time>2013-02-18T14:52:22.000Z</time>
      </trkpt>
      <trkpt lat="43.97402" lon="5.14703">
        <ele>432.8</ele>
        <time>2013-02-18T14:52:23.000Z</time>
      </trkpt>
      <trkpt lat="43.974" lon="5.14706">
        <ele>433.7</ele>
        <time>2013-02-18T14:52:24.000Z</time>
      </trkpt>
      <trkpt lat="43.97398" lon="5.14709">
        <ele>433.3</ele>
        <time>2013-02-18T14:52:25.000Z</time>
      </trkpt>
      <trkpt lat="43.97395" lon="5.14712">
        <ele>432.4</ele>
        <time>2013-02-18T14:52:26.000Z</time>
      </trkpt>
      <trkpt lat="43.97393" lon="5.14715">
        <ele>431</ele>
        <time>2013-02-18T14:52:27.000Z</time>
      </trkpt>
      <trkpt lat="43.9739" lon="5.14718">
        <ele>430.6</ele>
        <time>2013-02-18T14:52:28.000Z</time>
      </trkpt>
      <trkpt lat="43.97388" lon="5.14721">
        <ele>430.3</ele>
        <time>2013-02-18T14:52:29.000Z</time>
      </trkpt>
      <trkpt lat="43.9739" lon="5.14724">
        <ele>431.7</ele>
        <time>2013-02-18T14:52:30.000Z</time>
      </trkpt>
      <trkpt lat="43.9739" lon="5.14728">
        <ele>432</ele>
        <time>2013-02-18T14:52:31.000Z</time>
      </trkpt>
      <trkpt lat="43.97389" lon="5.14732">
        <ele>432.5</ele>
        <time>2013-02-18T14:52:32.000Z</time>
      </trkpt>
      <trkpt lat="43.97388" lon="5.14735">
        <ele>432.4</ele>
        <time>2013-02-18T14:52:33.000Z</time>
      </trkpt>
      <trkpt lat="43.97388" lon="5.14739">
        <ele>432.6</ele>
        <time>2013-02-18T14:52:34.000Z</time>
      </trkpt>
      <trkpt lat="43.97387" lon="5.14743">
        <ele>432.8</ele>
        <time>2013-02-18T14:52:35.000Z</time>
      </trkpt>
      <trkpt lat="43.97387" lon="5.14747">
        <ele>433</ele>
        <time>2013-02-18T14:52:36.000Z</time>
      </trkpt>
      <trkpt lat="43.97387" lon="5.14752">
        <ele>433.2</ele>
        <time>2013-02-18T14:52:37.000Z</time>
      </trkpt>
      <trkpt lat="43.97387" lon="5.14756">
        <ele>433.5</ele>
        <time>2013-02-18T14:52:38.000Z</time>
      </trkpt>
      <trkpt lat="43.97387" lon="5.1476">
        <ele>433.4</ele>
        <time>2013-02-18T14:52:39.000Z</time>
      </trkpt>
      <trkpt lat="43.97387" lon="5.14763">
        <ele>433.2</ele>
        <time>2013-02-18T14:52:40.000Z</time>
      </trkpt>
      <trkpt lat="43.97387" lon="5.14766">
        <ele>433</ele>
        <time>2013-02-18T14:52:41.000Z</time>
      </trkpt>
      <trkpt lat="43.97387" lon="5.1477">
        <ele>432.9</ele>
        <time>2013-02-18T14:52:42.000Z</time>
      </trkpt>
      <trkpt lat="43.97387" lon="5.14774">
        <ele>433.1</ele>
        <time>2013-02-18T14:52:43.000Z</time>
      </trkpt>
      <trkpt lat="43.97387" lon="5.14778">
        <ele>433.1</ele>
        <time>2013-02-18T14:52:44.000Z</time>
      </trkpt>
      <trkpt lat="43.97387" lon="5.14781">
        <ele>433.1</ele>
        <time>2013-02-18T14:52:45.000Z</time>
      </trkpt>
      <trkpt lat="43.97387" lon="5.14785">
        <ele>433.1</ele>
        <time>2013-02-18T14:52:46.000Z</time>
      </trkpt>
      <trkpt lat="43.97387" lon="5.14789">
        <ele>433.1</ele>
        <time>2013-02-18T14:52:47.000Z</time>
      </trkpt>
      <trkpt lat="43.97387" lon="5.14793">
        <ele>433.1</ele>
        <time>2013-02-18T14:52:48.000Z</time>
      </trkpt>
      <trkpt lat="43.97387" lon="5.14797">
        <ele>433.1</ele>
        <time>2013-02-18T14:52:49.000Z</time>
      </trkpt>
      <trkpt lat="43.97387" lon="5.148">
        <ele>433.1</ele>
        <time>2013-02-18T14:52:50.000Z</time>
      </trkpt>
      <trkpt lat="43.97387" lon="5.14804">
        <ele>433.1</ele>
        <time>2013-02-18T14:52:51.000Z</time>
      </trkpt>
      <trkpt lat="43.97386" lon="5.1481">
        <ele>433</ele>
        <time>2013-02-18T14:52:52.000Z</time>
      </trkpt>
      <trkpt lat="43.97386" lon="5.14816">
        <ele>433.9</ele>
        <time>2013-02-18T14:52:53.000Z</time>
      </trkpt>
      <trkpt lat="43.97387" lon="5.14821">
        <ele>433</ele>
        <time>2013-02-18T14:52:54.000Z</time>
      </trkpt>
      <trkpt lat="43.97385" lon="5.14826">
        <ele>432.3</ele>
        <time>2013-02-18T14:52:55.000Z</time>
      </trkpt>
      <trkpt lat="43.97385" lon="5.14831">
        <ele>432.5</ele>
        <time>2013-02-18T14:52:56.000Z</time>
      </trkpt>
      <trkpt lat="43.97385" lon="5.14836">
        <ele>432.2</ele>
        <time>2013-02-18T14:52:57.000Z</time>
      </trkpt>
      <trkpt lat="43.97383" lon="5.1484">
        <ele>432.2</ele>
        <time>2013-02-18T14:52:58.000Z</time>
      </trkpt>
      <trkpt lat="43.97383" lon="5.14845">
        <ele>432.7</ele>
        <time>2013-02-18T14:52:59.000Z</time>
      </trkpt>
      <trkpt lat="43.97382" lon="5.14847">
        <ele>432.9</ele>
        <time>2013-02-18T14:53:00.000Z</time>
      </trkpt>
      <trkpt lat="43.97381" lon="5.14851">
        <ele>433.9</ele>
        <time>2013-02-18T14:53:01.000Z</time>
      </trkpt>
      <trkpt lat="43.97379" lon="5.14855">
        <ele>434.3</ele>
        <time>2013-02-18T14:53:02.000Z</time>
      </trkpt>
      <trkpt lat="43.97379" lon="5.1486">
        <ele>434.4</ele>
        <time>2013-02-18T14:53:03.000Z</time>
      </trkpt>
      <trkpt lat="43.97377" lon="5.14866">
        <ele>434.4</ele>
        <time>2013-02-18T14:53:04.000Z</time>
      </trkpt>
      <trkpt lat="43.97375" lon="5.14873">
        <ele>433.3</ele>
        <time>2013-02-18T14:53:05.000Z</time>
      </trkpt>
      <trkpt lat="43.97373" lon="5.14879">
        <ele>433.2</ele>
        <time>2013-02-18T14:53:06.000Z</time>
      </trkpt>
      <trkpt lat="43.97371" lon="5.14887">
        <ele>433.7</ele>
        <time>2013-02-18T14:53:07.000Z</time>
      </trkpt>
      <trkpt lat="43.97369" lon="5.14894">
        <ele>433.9</ele>
        <time>2013-02-18T14:53:08.000Z</time>
      </trkpt>
      <trkpt lat="43.97367" lon="5.14899">
        <ele>433.5</ele>
        <time>2013-02-18T14:53:09.000Z</time>
      </trkpt>
      <trkpt lat="43.97366" lon="5.14904">
        <ele>433.6</ele>
        <time>2013-02-18T14:53:10.000Z</time>
      </trkpt>
      <trkpt lat="43.97367" lon="5.1491">
        <ele>433.1</ele>
        <time>2013-02-18T14:53:13.000Z</time>
      </trkpt>
      <trkpt lat="43.97367" lon="5.14912">
        <ele>433.3</ele>
        <time>2013-02-18T14:53:14.000Z</time>
      </trkpt>
      <trkpt lat="43.97363" lon="5.14913">
        <ele>431.5</ele>
        <time>2013-02-18T14:53:16.000Z</time>
      </trkpt>
      <trkpt lat="43.97361" lon="5.14912">
        <ele>430.2</ele>
        <time>2013-02-18T14:53:17.000Z</time>
      </trkpt>
      <trkpt lat="43.97364" lon="5.14908">
        <ele>430</ele>
        <time>2013-02-18T14:53:19.000Z</time>
      </trkpt>
      <trkpt lat="43.97364" lon="5.14906">
        <ele>429.8</ele>
        <time>2013-02-18T14:53:20.000Z</time>
      </trkpt>
      <trkpt lat="43.97366" lon="5.14902">
        <ele>429.1</ele>
        <time>2013-02-18T14:53:22.000Z</time>
      </trkpt>
      <trkpt lat="43.97367" lon="5.149">
        <ele>429.3</ele>
        <time>2013-02-18T14:53:23.000Z</time>
      </trkpt>
      <trkpt lat="43.97368" lon="5.14896">
        <ele>429.5</ele>
        <time>2013-02-18T14:53:25.000Z</time>
      </trkpt>
      <trkpt lat="43.97369" lon="5.14894">
        <ele>429</ele>
        <time>2013-02-18T14:53:26.000Z</time>
      </trkpt>
      <trkpt lat="43.97366" lon="5.14894">
        <ele>429.2</ele>
        <time>2013-02-18T14:53:37.000Z</time>
      </trkpt>
      <trkpt lat="43.97364" lon="5.14895">
        <ele>428.2</ele>
        <time>2013-02-18T14:53:38.000Z</time>
      </trkpt>
      <trkpt lat="43.97361" lon="5.14898">
        <ele>426.7</ele>
        <time>2013-02-18T14:53:40.000Z</time>
      </trkpt>
      <trkpt lat="43.9736" lon="5.149">
        <ele>426.2</ele>
        <time>2013-02-18T14:53:41.000Z</time>
      </trkpt>
      <trkpt lat="43.97357" lon="5.14905">
        <ele>425.5</ele>
        <time>2013-02-18T14:53:43.000Z</time>
      </trkpt>
      <trkpt lat="43.97356" lon="5.14908">
        <ele>425</ele>
        <time>2013-02-18T14:53:44.000Z</time>
      </trkpt>
      <trkpt lat="43.97355" lon="5.14911">
        <ele>424.8</ele>
        <time>2013-02-18T14:53:45.000Z</time>
      </trkpt>
      <trkpt lat="43.97353" lon="5.14914">
        <ele>424</ele>
        <time>2013-02-18T14:53:46.000Z</time>
      </trkpt>
      <trkpt lat="43.97351" lon="5.14916">
        <ele>423.6</ele>
        <time>2013-02-18T14:53:47.000Z</time>
      </trkpt>
      <trkpt lat="43.9735" lon="5.14918">
        <ele>422.9</ele>
        <time>2013-02-18T14:53:48.000Z</time>
      </trkpt>
      <trkpt lat="43.97347" lon="5.14923">
        <ele>420</ele>
        <time>2013-02-18T14:53:51.000Z</time>
      </trkpt>
      <trkpt lat="43.97345" lon="5.14925">
        <ele>419.9</ele>
        <time>2013-02-18T14:53:52.000Z</time>
      </trkpt>
      <trkpt lat="43.97342" lon="5.14928">
        <ele>420.2</ele>
        <time>2013-02-18T14:53:54.000Z</time>
      </trkpt>
      <trkpt lat="43.9734" lon="5.1493">
        <ele>420.1</ele>
        <time>2013-02-18T14:53:55.000Z</time>
      </trkpt>
      <trkpt lat="43.97338" lon="5.14932">
        <ele>419.7</ele>
        <time>2013-02-18T14:53:56.000Z</time>
      </trkpt>
      <trkpt lat="43.97337" lon="5.14934">
        <ele>419.4</ele>
        <time>2013-02-18T14:53:57.000Z</time>
      </trkpt>
      <trkpt lat="43.97334" lon="5.14935">
        <ele>419.3</ele>
        <time>2013-02-18T14:53:58.000Z</time>
      </trkpt>
      <trkpt lat="43.97328" lon="5.14933">
        <ele>421.4</ele>
        <time>2013-02-18T14:53:59.000Z</time>
      </trkpt>
      <trkpt lat="43.97324" lon="5.14934">
        <ele>421.9</ele>
        <time>2013-02-18T14:54:00.000Z</time>
      </trkpt>
      <trkpt lat="43.97321" lon="5.14935">
        <ele>422.2</ele>
        <time>2013-02-18T14:54:01.000Z</time>
      </trkpt>
      <trkpt lat="43.97316" lon="5.14935">
        <ele>420.4</ele>
        <time>2013-02-18T14:54:02.000Z</time>
      </trkpt>
      <trkpt lat="43.97312" lon="5.14935">
        <ele>420</ele>
        <time>2013-02-18T14:54:03.000Z</time>
      </trkpt>
      <trkpt lat="43.97309" lon="5.14936">
        <ele>419.5</ele>
        <time>2013-02-18T14:54:04.000Z</time>
      </trkpt>
      <trkpt lat="43.97304" lon="5.14937">
        <ele>418.6</ele>
        <time>2013-02-18T14:54:05.000Z</time>
      </trkpt>
      <trkpt lat="43.973" lon="5.14939">
        <ele>417.9</ele>
        <time>2013-02-18T14:54:06.000Z</time>
      </trkpt>
      <trkpt lat="43.97296" lon="5.1494">
        <ele>417.3</ele>
        <time>2013-02-18T14:54:07.000Z</time>
      </trkpt>
      <trkpt lat="43.97291" lon="5.1494">
        <ele>417.1</ele>
        <time>2013-02-18T14:54:08.000Z</time>
      </trkpt>
      <trkpt lat="43.97287" lon="5.14942">
        <ele>417.3</ele>
        <time>2013-02-18T14:54:09.000Z</time>
      </trkpt>
      <trkpt lat="43.97283" lon="5.14942">
        <ele>417.6</ele>
        <time>2013-02-18T14:54:10.000Z</time>
      </trkpt>
      <trkpt lat="43.97281" lon="5.14942">
        <ele>417.9</ele>
        <time>2013-02-18T14:54:11.000Z</time>
      </trkpt>
      <trkpt lat="43.97277" lon="5.14942">
        <ele>417.8</ele>
        <time>2013-02-18T14:54:13.000Z</time>
      </trkpt>
      <trkpt lat="43.97275" lon="5.14942">
        <ele>417.6</ele>
        <time>2013-02-18T14:54:14.000Z</time>
      </trkpt>
      <trkpt lat="43.97271" lon="5.14943">
        <ele>416.8</ele>
        <time>2013-02-18T14:54:16.000Z</time>
      </trkpt>
      <trkpt lat="43.97269" lon="5.14943">
        <ele>416.6</ele>
        <time>2013-02-18T14:54:17.000Z</time>
      </trkpt>
      <trkpt lat="43.97265" lon="5.14943">
        <ele>417</ele>
        <time>2013-02-18T14:54:19.000Z</time>
      </trkpt>
      <trkpt lat="43.97263" lon="5.14943">
        <ele>417.6</ele>
        <time>2013-02-18T14:54:20.000Z</time>
      </trkpt>
      <trkpt lat="43.9726" lon="5.14943">
        <ele>417.9</ele>
        <time>2013-02-18T14:54:22.000Z</time>
      </trkpt>
      <trkpt lat="43.97258" lon="5.14944">
        <ele>418.3</ele>
        <time>2013-02-18T14:54:23.000Z</time>
      </trkpt>
      <trkpt lat="43.97255" lon="5.14946">
        <ele>418.4</ele>
        <time>2013-02-18T14:54:25.000Z</time>
      </trkpt>
      <trkpt lat="43.97253" lon="5.14947">
        <ele>419.4</ele>
        <time>2013-02-18T14:54:26.000Z</time>
      </trkpt>
      <trkpt lat="43.97251" lon="5.14951">
        <ele>420</ele>
        <time>2013-02-18T14:54:28.000Z</time>
      </trkpt>
      <trkpt lat="43.9725" lon="5.14952">
        <ele>420.1</ele>
        <time>2013-02-18T14:54:29.000Z</time>
      </trkpt>
      <trkpt lat="43.97247" lon="5.14955">
        <ele>420.7</ele>
        <time>2013-02-18T14:54:31.000Z</time>
      </trkpt>
      <trkpt lat="43.97245" lon="5.14955">
        <ele>421.2</ele>
        <time>2013-02-18T14:54:32.000Z</time>
      </trkpt>
      <trkpt lat="43.97241" lon="5.14953">
        <ele>421.4</ele>
        <time>2013-02-18T14:54:35.000Z</time>
      </trkpt>
      <trkpt lat="43.9724" lon="5.14951">
        <ele>421.8</ele>
        <time>2013-02-18T14:54:36.000Z</time>
      </trkpt>
      <trkpt lat="43.97237" lon="5.14949">
        <ele>421.5</ele>
        <time>2013-02-18T14:54:38.000Z</time>
      </trkpt>
      <trkpt lat="43.97236" lon="5.14948">
        <ele>421.6</ele>
        <time>2013-02-18T14:54:39.000Z</time>
      </trkpt>
      <trkpt lat="43.97232" lon="5.14948">
        <ele>422</ele>
        <time>2013-02-18T14:54:41.000Z</time>
      </trkpt>
      <trkpt lat="43.97231" lon="5.14949">
        <ele>422</ele>
        <time>2013-02-18T14:54:42.000Z</time>
      </trkpt>
      <trkpt lat="43.97228" lon="5.1495">
        <ele>422.4</ele>
        <time>2013-02-18T14:54:44.000Z</time>
      </trkpt>
      <trkpt lat="43.97226" lon="5.14951">
        <ele>422.5</ele>
        <time>2013-02-18T14:54:45.000Z</time>
      </trkpt>
      <trkpt lat="43.97223" lon="5.14954">
        <ele>422.2</ele>
        <time>2013-02-18T14:54:47.000Z</time>
      </trkpt>
      <trkpt lat="43.97222" lon="5.14957">
        <ele>422</ele>
        <time>2013-02-18T14:54:48.000Z</time>
      </trkpt>
      <trkpt lat="43.9722" lon="5.14959">
        <ele>421.7</ele>
        <time>2013-02-18T14:54:49.000Z</time>
      </trkpt>
      <trkpt lat="43.97218" lon="5.14961">
        <ele>421.4</ele>
        <time>2013-02-18T14:54:50.000Z</time>
      </trkpt>
      <trkpt lat="43.97214" lon="5.14963">
        <ele>420.9</ele>
        <time>2013-02-18T14:54:52.000Z</time>
      </trkpt>
      <trkpt lat="43.97213" lon="5.14964">
        <ele>421.1</ele>
        <time>2013-02-18T14:54:53.000Z</time>
      </trkpt>
      <trkpt lat="43.97213" lon="5.14969">
        <ele>421.7</ele>
        <time>2013-02-18T14:54:56.000Z</time>
      </trkpt>
      <trkpt lat="43.9721" lon="5.14971">
        <ele>422</ele>
        <time>2013-02-18T14:54:57.000Z</time>
      </trkpt>
      <trkpt lat="43.97211" lon="5.14976">
        <ele>422.6</ele>
        <time>2013-02-18T14:55:00.000Z</time>
      </trkpt>
      <trkpt lat="43.9721" lon="5.14978">
        <ele>423.2</ele>
        <time>2013-02-18T14:55:01.000Z</time>
      </trkpt>
      <trkpt lat="43.97208" lon="5.14983">
        <ele>423.7</ele>
        <time>2013-02-18T14:55:04.000Z</time>
      </trkpt>
      <trkpt lat="43.97207" lon="5.14986">
        <ele>423.5</ele>
        <time>2013-02-18T14:55:05.000Z</time>
      </trkpt>
      <trkpt lat="43.97203" lon="5.14988">
        <ele>424</ele>
        <time>2013-02-18T14:55:07.000Z</time>
      </trkpt>
      <trkpt lat="43.97201" lon="5.14989">
        <ele>423.8</ele>
        <time>2013-02-18T14:55:08.000Z</time>
      </trkpt>
      <trkpt lat="43.97198" lon="5.1499">
        <ele>424.4</ele>
        <time>2013-02-18T14:55:10.000Z</time>
      </trkpt>
      <trkpt lat="43.97196" lon="5.14991">
        <ele>424.4</ele>
        <time>2013-02-18T14:55:11.000Z</time>
      </trkpt>
      <trkpt lat="43.97193" lon="5.14991">
        <ele>425.7</ele>
        <time>2013-02-18T14:55:13.000Z</time>
      </trkpt>
      <trkpt lat="43.97191" lon="5.14991">
        <ele>425.8</ele>
        <time>2013-02-18T14:55:14.000Z</time>
      </trkpt>
      <trkpt lat="43.97187" lon="5.1499">
        <ele>425.8</ele>
        <time>2013-02-18T14:55:17.000Z</time>
      </trkpt>
      <trkpt lat="43.97185" lon="5.14989">
        <ele>426.4</ele>
        <time>2013-02-18T14:55:18.000Z</time>
      </trkpt>
      <trkpt lat="43.97182" lon="5.14986">
        <ele>427.3</ele>
        <time>2013-02-18T14:55:20.000Z</time>
      </trkpt>
      <trkpt lat="43.97181" lon="5.14984">
        <ele>427.2</ele>
        <time>2013-02-18T14:55:21.000Z</time>
      </trkpt>
      <trkpt lat="43.9718" lon="5.1498">
        <ele>428</ele>
        <time>2013-02-18T14:55:23.000Z</time>
      </trkpt>
      <trkpt lat="43.97179" lon="5.14977">
        <ele>427.9</ele>
        <time>2013-02-18T14:55:24.000Z</time>
      </trkpt>
      <trkpt lat="43.97179" lon="5.14971">
        <ele>429.8</ele>
        <time>2013-02-18T14:55:28.000Z</time>
      </trkpt>
      <trkpt lat="43.97179" lon="5.14969">
        <ele>430.1</ele>
        <time>2013-02-18T14:55:29.000Z</time>
      </trkpt>
      <trkpt lat="43.97179" lon="5.14964">
        <ele>431.1</ele>
        <time>2013-02-18T14:55:32.000Z</time>
      </trkpt>
      <trkpt lat="43.97179" lon="5.14962">
        <ele>431.2</ele>
        <time>2013-02-18T14:55:33.000Z</time>
      </trkpt>
      <trkpt lat="43.97179" lon="5.14955">
        <ele>431.5</ele>
        <time>2013-02-18T14:55:36.000Z</time>
      </trkpt>
      <trkpt lat="43.97179" lon="5.14954">
        <ele>431.8</ele>
        <time>2013-02-18T14:55:37.000Z</time>
      </trkpt>
      <trkpt lat="43.97178" lon="5.14948">
        <ele>432.7</ele>
        <time>2013-02-18T14:55:41.000Z</time>
      </trkpt>
      <trkpt lat="43.97178" lon="5.14947">
        <ele>433.2</ele>
        <time>2013-02-18T14:55:42.000Z</time>
      </trkpt>
      <trkpt lat="43.97177" lon="5.14941">
        <ele>434.7</ele>
        <time>2013-02-18T14:56:41.000Z</time>
      </trkpt>
      <trkpt lat="43.97177" lon="5.14938">
        <ele>436.7</ele>
        <time>2013-02-18T14:56:42.000Z</time>
      </trkpt>
      <trkpt lat="43.97175" lon="5.14934">
        <ele>437.8</ele>
        <time>2013-02-18T14:56:44.000Z</time>
      </trkpt>
      <trkpt lat="43.97175" lon="5.14932">
        <ele>438.6</ele>
        <time>2013-02-18T14:56:45.000Z</time>
      </trkpt>
      <trkpt lat="43.97174" lon="5.1493">
        <ele>438.9</ele>
        <time>2013-02-18T14:56:46.000Z</time>
      </trkpt>
      <trkpt lat="43.97175" lon="5.14925">
        <ele>437.9</ele>
        <time>2013-02-18T14:56:47.000Z</time>
      </trkpt>
      <trkpt lat="43.97174" lon="5.1492">
        <ele>437.8</ele>
        <time>2013-02-18T14:56:49.000Z</time>
      </trkpt>
      <trkpt lat="43.97174" lon="5.14918">
        <ele>438.4</ele>
        <time>2013-02-18T14:56:50.000Z</time>
      </trkpt>
      <trkpt lat="43.97174" lon="5.14912">
        <ele>438.5</ele>
        <time>2013-02-18T14:56:52.000Z</time>
      </trkpt>
      <trkpt lat="43.97174" lon="5.14909">
        <ele>437.9</ele>
        <time>2013-02-18T14:56:53.000Z</time>
      </trkpt>
      <trkpt lat="43.97174" lon="5.14905">
        <ele>438.7</ele>
        <time>2013-02-18T14:56:55.000Z</time>
      </trkpt>
      <trkpt lat="43.97174" lon="5.14902">
        <ele>438.5</ele>
        <time>2013-02-18T14:56:56.000Z</time>
      </trkpt>
      <trkpt lat="43.97171" lon="5.14898">
        <ele>445.6</ele>
        <time>2013-02-18T14:57:00.000Z</time>
      </trkpt>
      <trkpt lat="43.9717" lon="5.14897">
        <ele>446.7</ele>
        <time>2013-02-18T14:57:01.000Z</time>
      </trkpt>
      <trkpt lat="43.9717" lon="5.14891">
        <ele>446.4</ele>
        <time>2013-02-18T14:57:03.000Z</time>
      </trkpt>
      <trkpt lat="43.9717" lon="5.14889">
        <ele>446.8</ele>
        <time>2013-02-18T14:57:04.000Z</time>
      </trkpt>
      <trkpt lat="43.9717" lon="5.14883">
        <ele>447.8</ele>
        <time>2013-02-18T14:57:06.000Z</time>
      </trkpt>
      <trkpt lat="43.9717" lon="5.1488">
        <ele>448.2</ele>
        <time>2013-02-18T14:57:07.000Z</time>
      </trkpt>
      <trkpt lat="43.97169" lon="5.14877">
        <ele>448.1</ele>
        <time>2013-02-18T14:57:08.000Z</time>
      </trkpt>
      <trkpt lat="43.9717" lon="5.14873">
        <ele>447.4</ele>
        <time>2013-02-18T14:57:09.000Z</time>
      </trkpt>
      <trkpt lat="43.97171" lon="5.1487">
        <ele>447.1</ele>
        <time>2013-02-18T14:57:10.000Z</time>
      </trkpt>
      <trkpt lat="43.97171" lon="5.14867">
        <ele>446.9</ele>
        <time>2013-02-18T14:57:11.000Z</time>
      </trkpt>
      <trkpt lat="43.97171" lon="5.14862">
        <ele>447.6</ele>
        <time>2013-02-18T14:57:13.000Z</time>
      </trkpt>
      <trkpt lat="43.97172" lon="5.1486">
        <ele>448.1</ele>
        <time>2013-02-18T14:57:14.000Z</time>
      </trkpt>
      <trkpt lat="43.97171" lon="5.14855">
        <ele>448.6</ele>
        <time>2013-02-18T14:57:16.000Z</time>
      </trkpt>
      <trkpt lat="43.9717" lon="5.14852">
        <ele>448.4</ele>
        <time>2013-02-18T14:57:17.000Z</time>
      </trkpt>
      <trkpt lat="43.97169" lon="5.14848">
        <ele>447.8</ele>
        <time>2013-02-18T14:57:18.000Z</time>
      </trkpt>
      <trkpt lat="43.97169" lon="5.14844">
        <ele>449.9</ele>
        <time>2013-02-18T14:57:19.000Z</time>
      </trkpt>
      <trkpt lat="43.9717" lon="5.14838">
        <ele>450.9</ele>
        <time>2013-02-18T14:57:21.000Z</time>
      </trkpt>
      <trkpt lat="43.97169" lon="5.14835">
        <ele>451.1</ele>
        <time>2013-02-18T14:57:22.000Z</time>
      </trkpt>
      <trkpt lat="43.9717" lon="5.14831">
        <ele>451.3</ele>
        <time>2013-02-18T14:57:23.000Z</time>
      </trkpt>
      <trkpt lat="43.9717" lon="5.14828">
        <ele>451</ele>
        <time>2013-02-18T14:57:24.000Z</time>
      </trkpt>
      <trkpt lat="43.9717" lon="5.14825">
        <ele>451.2</ele>
        <time>2013-02-18T14:57:26.000Z</time>
      </trkpt>
      <trkpt lat="43.9717" lon="5.14821">
        <ele>450.8</ele>
        <time>2013-02-18T14:57:27.000Z</time>
      </trkpt>
      <trkpt lat="43.9717" lon="5.14816">
        <ele>452</ele>
        <time>2013-02-18T14:57:30.000Z</time>
      </trkpt>
      <trkpt lat="43.9717" lon="5.14814">
        <ele>452.3</ele>
        <time>2013-02-18T14:57:31.000Z</time>
      </trkpt>
      <trkpt lat="43.97171" lon="5.14809">
        <ele>450.9</ele>
        <time>2013-02-18T14:57:36.000Z</time>
      </trkpt>
      <trkpt lat="43.97171" lon="5.14807">
        <ele>450.7</ele>
        <time>2013-02-18T14:57:37.000Z</time>
      </trkpt>
      <trkpt lat="43.97172" lon="5.14803">
        <ele>449.6</ele>
        <time>2013-02-18T14:57:39.000Z</time>
      </trkpt>
      <trkpt lat="43.97172" lon="5.14801">
        <ele>448.8</ele>
        <time>2013-02-18T14:57:40.000Z</time>
      </trkpt>
      <trkpt lat="43.97172" lon="5.14796">
        <ele>447.9</ele>
        <time>2013-02-18T14:57:43.000Z</time>
      </trkpt>
      <trkpt lat="43.97172" lon="5.14794">
        <ele>447.7</ele>
        <time>2013-02-18T14:57:44.000Z</time>
      </trkpt>
      <trkpt lat="43.97173" lon="5.14789">
        <ele>447.4</ele>
        <time>2013-02-18T14:57:47.000Z</time>
      </trkpt>
      <trkpt lat="43.97173" lon="5.14788">
        <ele>447.7</ele>
        <time>2013-02-18T14:57:48.000Z</time>
      </trkpt>
      <trkpt lat="43.97175" lon="5.14783">
        <ele>444.7</ele>
        <time>2013-02-18T14:57:52.000Z</time>
      </trkpt>
      <trkpt lat="43.97175" lon="5.14781">
        <ele>445</ele>
        <time>2013-02-18T14:57:53.000Z</time>
      </trkpt>
      <trkpt lat="43.97176" lon="5.14775">
        <ele>444.5</ele>
        <time>2013-02-18T14:57:56.000Z</time>
      </trkpt>
      <trkpt lat="43.97177" lon="5.14771">
        <ele>444.1</ele>
        <time>2013-02-18T14:57:58.000Z</time>
      </trkpt>
      <trkpt lat="43.97178" lon="5.14766">
        <ele>444.3</ele>
        <time>2013-02-18T14:58:01.000Z</time>
      </trkpt>
      <trkpt lat="43.97178" lon="5.14765">
        <ele>444.1</ele>
        <time>2013-02-18T14:58:02.000Z</time>
      </trkpt>
      <trkpt lat="43.97179" lon="5.1476">
        <ele>444.5</ele>
        <time>2013-02-18T14:58:05.000Z</time>
      </trkpt>
      <trkpt lat="43.97179" lon="5.14758">
        <ele>444.6</ele>
        <time>2013-02-18T14:58:06.000Z</time>
      </trkpt>
      <trkpt lat="43.9718" lon="5.14753">
        <ele>444.8</ele>
        <time>2013-02-18T14:58:09.000Z</time>
      </trkpt>
      <trkpt lat="43.9718" lon="5.14751">
        <ele>444.9</ele>
        <time>2013-02-18T14:58:10.000Z</time>
      </trkpt>
      <trkpt lat="43.97181" lon="5.14746">
        <ele>444.8</ele>
        <time>2013-02-18T14:58:13.000Z</time>
      </trkpt>
      <trkpt lat="43.97181" lon="5.14745">
        <ele>445.1</ele>
        <time>2013-02-18T14:58:14.000Z</time>
      </trkpt>
      <trkpt lat="43.97181" lon="5.14739">
        <ele>445.5</ele>
        <time>2013-02-18T14:58:18.000Z</time>
      </trkpt>
      <trkpt lat="43.97182" lon="5.14738">
        <ele>445.4</ele>
        <time>2013-02-18T14:58:19.000Z</time>
      </trkpt>
      <trkpt lat="43.97183" lon="5.14732">
        <ele>461.3</ele>
        <time>2013-02-18T14:58:30.000Z</time>
      </trkpt>
      <trkpt lat="43.97184" lon="5.1473">
        <ele>460.9</ele>
        <time>2013-02-18T14:58:31.000Z</time>
      </trkpt>
      <trkpt lat="43.97185" lon="5.14725">
        <ele>461.7</ele>
        <time>2013-02-18T14:58:35.000Z</time>
      </trkpt>
      <trkpt lat="43.97185" lon="5.14723">
        <ele>461.5</ele>
        <time>2013-02-18T14:58:36.000Z</time>
      </trkpt>
      <trkpt lat="43.97187" lon="5.14718">
        <ele>462.2</ele>
        <time>2013-02-18T14:58:39.000Z</time>
      </trkpt>
      <trkpt lat="43.97187" lon="5.14716">
        <ele>462.3</ele>
        <time>2013-02-18T14:58:40.000Z</time>
      </trkpt>
      <trkpt lat="43.97188" lon="5.1471">
        <ele>449.8</ele>
        <time>2013-02-18T14:58:53.000Z</time>
      </trkpt>
      <trkpt lat="43.97189" lon="5.14709">
        <ele>450.8</ele>
        <time>2013-02-18T14:58:54.000Z</time>
      </trkpt>
      <trkpt lat="43.97188" lon="5.14704">
        <ele>449.2</ele>
        <time>2013-02-18T14:59:00.000Z</time>
      </trkpt>
      <trkpt lat="43.97189" lon="5.14703">
        <ele>449</ele>
        <time>2013-02-18T14:59:01.000Z</time>
      </trkpt>
      <trkpt lat="43.97191" lon="5.147">
        <ele>450.1</ele>
        <time>2013-02-18T14:59:03.000Z</time>
      </trkpt>
      <trkpt lat="43.97189" lon="5.14693">
        <ele>461.9</ele>
        <time>2013-02-18T14:59:04.000Z</time>
      </trkpt>
      <trkpt lat="43.97188" lon="5.14689">
        <ele>462.3</ele>
        <time>2013-02-18T14:59:09.000Z</time>
      </trkpt>
      <trkpt lat="43.97184" lon="5.1469">
        <ele>466.9</ele>
        <time>2013-02-18T14:59:10.000Z</time>
      </trkpt>
      <trkpt lat="43.97177" lon="5.14684">
        <ele>471.2</ele>
        <time>2013-02-18T14:59:11.000Z</time>
      </trkpt>
      <trkpt lat="43.97179" lon="5.14692">
        <ele>475.6</ele>
        <time>2013-02-18T14:59:12.000Z</time>
      </trkpt>
      <trkpt lat="43.97179" lon="5.14685">
        <ele>478.9</ele>
        <time>2013-02-18T14:59:13.000Z</time>
      </trkpt>
      <trkpt lat="43.9718" lon="5.14678">
        <ele>481</ele>
        <time>2013-02-18T14:59:14.000Z</time>
      </trkpt>
      <trkpt lat="43.97181" lon="5.14676">
        <ele>490.2</ele>
        <time>2013-02-18T14:59:18.000Z</time>
      </trkpt>
      <trkpt lat="43.97181" lon="5.14667">
        <ele>488.2</ele>
        <time>2013-02-18T14:59:19.000Z</time>
      </trkpt>
      <trkpt lat="43.97184" lon="5.14669">
        <ele>487.6</ele>
        <time>2013-02-18T14:59:20.000Z</time>
      </trkpt>
      <trkpt lat="43.97186" lon="5.1467">
        <ele>483.9</ele>
        <time>2013-02-18T14:59:21.000Z</time>
      </trkpt>
      <trkpt lat="43.97188" lon="5.14666">
        <ele>478.6</ele>
        <time>2013-02-18T14:59:22.000Z</time>
      </trkpt>
      <trkpt lat="43.9719" lon="5.14665">
        <ele>475.4</ele>
        <time>2013-02-18T14:59:23.000Z</time>
      </trkpt>
      <trkpt lat="43.97191" lon="5.14661">
        <ele>471.8</ele>
        <time>2013-02-18T14:59:25.000Z</time>
      </trkpt>
      <trkpt lat="43.97192" lon="5.14659">
        <ele>470.1</ele>
        <time>2013-02-18T14:59:26.000Z</time>
      </trkpt>
      <trkpt lat="43.9719" lon="5.14653">
        <ele>467.1</ele>
        <time>2013-02-18T14:59:31.000Z</time>
      </trkpt>
      <trkpt lat="43.9719" lon="5.14652">
        <ele>467.1</ele>
        <time>2013-02-18T14:59:32.000Z</time>
      </trkpt>
      <trkpt lat="43.97186" lon="5.1465">
        <ele>466.8</ele>
        <time>2013-02-18T14:59:35.000Z</time>
      </trkpt>
      <trkpt lat="43.97185" lon="5.1465">
        <ele>466.7</ele>
        <time>2013-02-18T14:59:36.000Z</time>
      </trkpt>
      <trkpt lat="43.97181" lon="5.14649">
        <ele>466.7</ele>
        <time>2013-02-18T14:59:39.000Z</time>
      </trkpt>
      <trkpt lat="43.9718" lon="5.14649">
        <ele>466.8</ele>
        <time>2013-02-18T14:59:40.000Z</time>
      </trkpt>
      <trkpt lat="43.97177" lon="5.1465">
        <ele>466.6</ele>
        <time>2013-02-18T14:59:43.000Z</time>
      </trkpt>
      <trkpt lat="43.97175" lon="5.1465">
        <ele>466.5</ele>
        <time>2013-02-18T14:59:44.000Z</time>
      </trkpt>
      <trkpt lat="43.97171" lon="5.1465">
        <ele>466.1</ele>
        <time>2013-02-18T14:59:47.000Z</time>
      </trkpt>
      <trkpt lat="43.9717" lon="5.1465">
        <ele>466.3</ele>
        <time>2013-02-18T14:59:48.000Z</time>
      </trkpt>
      <trkpt lat="43.97166" lon="5.1465">
        <ele>466.4</ele>
        <time>2013-02-18T14:59:51.000Z</time>
      </trkpt>
      <trkpt lat="43.97164" lon="5.1465">
        <ele>466.4</ele>
        <time>2013-02-18T14:59:52.000Z</time>
      </trkpt>
      <trkpt lat="43.97161" lon="5.14651">
        <ele>466.4</ele>
        <time>2013-02-18T14:59:54.000Z</time>
      </trkpt>
      <trkpt lat="43.9716" lon="5.14651">
        <ele>466.2</ele>
        <time>2013-02-18T14:59:55.000Z</time>
      </trkpt>
      <trkpt lat="43.97155" lon="5.1465">
        <ele>466.4</ele>
        <time>2013-02-18T14:59:58.000Z</time>
      </trkpt>
      <trkpt lat="43.97154" lon="5.1465">
        <ele>466.4</ele>
        <time>2013-02-18T14:59:59.000Z</time>
      </trkpt>
      <trkpt lat="43.97151" lon="5.1465">
        <ele>466.4</ele>
        <time>2013-02-18T15:00:01.000Z</time>
      </trkpt>
      <trkpt lat="43.97149" lon="5.1465">
        <ele>466</ele>
        <time>2013-02-18T15:00:02.000Z</time>
      </trkpt>
      <trkpt lat="43.97144" lon="5.1465">
        <ele>465.5</ele>
        <time>2013-02-18T15:00:04.000Z</time>
      </trkpt>
      <trkpt lat="43.97142" lon="5.1465">
        <ele>465.2</ele>
        <time>2013-02-18T15:00:05.000Z</time>
      </trkpt>
      <trkpt lat="43.97138" lon="5.14651">
        <ele>465.4</ele>
        <time>2013-02-18T15:00:07.000Z</time>
      </trkpt>
      <trkpt lat="43.97136" lon="5.14651">
        <ele>465.7</ele>
        <time>2013-02-18T15:00:08.000Z</time>
      </trkpt>
      <trkpt lat="43.97133" lon="5.14652">
        <ele>466</ele>
        <time>2013-02-18T15:00:10.000Z</time>
      </trkpt>
      <trkpt lat="43.97131" lon="5.14652">
        <ele>465.9</ele>
        <time>2013-02-18T15:00:11.000Z</time>
      </trkpt>
      <trkpt lat="43.97127" lon="5.14651">
        <ele>465.9</ele>
        <time>2013-02-18T15:00:13.000Z</time>
      </trkpt>
      <trkpt lat="43.97126" lon="5.14651">
        <ele>465.7</ele>
        <time>2013-02-18T15:00:14.000Z</time>
      </trkpt>
      <trkpt lat="43.97122" lon="5.14651">
        <ele>465.4</ele>
        <time>2013-02-18T15:00:16.000Z</time>
      </trkpt>
      <trkpt lat="43.9712" lon="5.14651">
        <ele>465.4</ele>
        <time>2013-02-18T15:00:17.000Z</time>
      </trkpt>
      <trkpt lat="43.97117" lon="5.14651">
        <ele>465.2</ele>
        <time>2013-02-18T15:00:19.000Z</time>
      </trkpt>
      <trkpt lat="43.97115" lon="5.14651">
        <ele>465.4</ele>
        <time>2013-02-18T15:00:20.000Z</time>
      </trkpt>
      <trkpt lat="43.97111" lon="5.14652">
        <ele>465.6</ele>
        <time>2013-02-18T15:00:22.000Z</time>
      </trkpt>
      <trkpt lat="43.97109" lon="5.14652">
        <ele>465.5</ele>
        <time>2013-02-18T15:00:23.000Z</time>
      </trkpt>
      <trkpt lat="43.97105" lon="5.14652">
        <ele>465.8</ele>
        <time>2013-02-18T15:00:25.000Z</time>
      </trkpt>
      <trkpt lat="43.97104" lon="5.14652">
        <ele>465.8</ele>
        <time>2013-02-18T15:00:26.000Z</time>
      </trkpt>
      <trkpt lat="43.971" lon="5.14652">
        <ele>465.9</ele>
        <time>2013-02-18T15:00:28.000Z</time>
      </trkpt>
      <trkpt lat="43.97098" lon="5.14652">
        <ele>466.1</ele>
        <time>2013-02-18T15:00:29.000Z</time>
      </trkpt>
      <trkpt lat="43.97094" lon="5.14652">
        <ele>466.7</ele>
        <time>2013-02-18T15:00:31.000Z</time>
      </trkpt>
      <trkpt lat="43.97092" lon="5.14652">
        <ele>466.8</ele>
        <time>2013-02-18T15:00:32.000Z</time>
      </trkpt>
      <trkpt lat="43.97088" lon="5.14652">
        <ele>466.9</ele>
        <time>2013-02-18T15:00:34.000Z</time>
      </trkpt>
      <trkpt lat="43.97086" lon="5.14651">
        <ele>466.9</ele>
        <time>2013-02-18T15:00:35.000Z</time>
      </trkpt>
      <trkpt lat="43.97082" lon="5.14651">
        <ele>466.8</ele>
        <time>2013-02-18T15:00:37.000Z</time>
      </trkpt>
      <trkpt lat="43.97081" lon="5.14651">
        <ele>466.8</ele>
        <time>2013-02-18T15:00:38.000Z</time>
      </trkpt>
      <trkpt lat="43.97077" lon="5.14651">
        <ele>466.9</ele>
        <time>2013-02-18T15:00:40.000Z</time>
      </trkpt>
      <trkpt lat="43.97075" lon="5.14651">
        <ele>467.1</ele>
        <time>2013-02-18T15:00:41.000Z</time>
      </trkpt>
      <trkpt lat="43.97071" lon="5.1465">
        <ele>467.4</ele>
        <time>2013-02-18T15:00:43.000Z</time>
      </trkpt>
      <trkpt lat="43.97069" lon="5.1465">
        <ele>467.4</ele>
        <time>2013-02-18T15:00:44.000Z</time>
      </trkpt>
      <trkpt lat="43.97066" lon="5.1465">
        <ele>467.8</ele>
        <time>2013-02-18T15:00:46.000Z</time>
      </trkpt>
      <trkpt lat="43.97065" lon="5.14651">
        <ele>467.8</ele>
        <time>2013-02-18T15:00:47.000Z</time>
      </trkpt>
      <trkpt lat="43.97061" lon="5.14651">
        <ele>467.8</ele>
        <time>2013-02-18T15:00:49.000Z</time>
      </trkpt>
      <trkpt lat="43.9706" lon="5.14651">
        <ele>467.9</ele>
        <time>2013-02-18T15:00:50.000Z</time>
      </trkpt>
      <trkpt lat="43.97056" lon="5.14649">
        <ele>468</ele>
        <time>2013-02-18T15:00:52.000Z</time>
      </trkpt>
      <trkpt lat="43.97054" lon="5.14648">
        <ele>467.9</ele>
        <time>2013-02-18T15:00:53.000Z</time>
      </trkpt>
      <trkpt lat="43.97051" lon="5.14646">
        <ele>468.1</ele>
        <time>2013-02-18T15:00:55.000Z</time>
      </trkpt>
      <trkpt lat="43.97049" lon="5.14644">
        <ele>468.1</ele>
        <time>2013-02-18T15:00:56.000Z</time>
      </trkpt>
      <trkpt lat="43.97046" lon="5.14642">
        <ele>467.9</ele>
        <time>2013-02-18T15:00:57.000Z</time>
      </trkpt>
      <trkpt lat="43.97044" lon="5.14641">
        <ele>467.8</ele>
        <time>2013-02-18T15:00:58.000Z</time>
      </trkpt>
      <trkpt lat="43.97042" lon="5.14639">
        <ele>467.9</ele>
        <time>2013-02-18T15:00:59.000Z</time>
      </trkpt>
      <trkpt lat="43.9704" lon="5.14636">
        <ele>467.8</ele>
        <time>2013-02-18T15:01:00.000Z</time>
      </trkpt>
      <trkpt lat="43.97038" lon="5.14633">
        <ele>467.8</ele>
        <time>2013-02-18T15:01:01.000Z</time>
      </trkpt>
      <trkpt lat="43.97037" lon="5.1463">
        <ele>467.9</ele>
        <time>2013-02-18T15:01:02.000Z</time>
      </trkpt>
      <trkpt lat="43.97035" lon="5.14627">
        <ele>468</ele>
        <time>2013-02-18T15:01:03.000Z</time>
      </trkpt>
      <trkpt lat="43.97033" lon="5.14624">
        <ele>467.9</ele>
        <time>2013-02-18T15:01:04.000Z</time>
      </trkpt>
      <trkpt lat="43.97031" lon="5.1462">
        <ele>468</ele>
        <time>2013-02-18T15:01:05.000Z</time>
      </trkpt>
      <trkpt lat="43.97029" lon="5.14618">
        <ele>468.3</ele>
        <time>2013-02-18T15:01:06.000Z</time>
      </trkpt>
      <trkpt lat="43.97028" lon="5.14614">
        <ele>468.2</ele>
        <time>2013-02-18T15:01:07.000Z</time>
      </trkpt>
      <trkpt lat="43.97026" lon="5.14611">
        <ele>468.2</ele>
        <time>2013-02-18T15:01:08.000Z</time>
      </trkpt>
      <trkpt lat="43.97025" lon="5.14608">
        <ele>468.4</ele>
        <time>2013-02-18T15:01:09.000Z</time>
      </trkpt>
      <trkpt lat="43.97023" lon="5.14605">
        <ele>468.4</ele>
        <time>2013-02-18T15:01:10.000Z</time>
      </trkpt>
      <trkpt lat="43.97021" lon="5.146">
        <ele>468.4</ele>
        <time>2013-02-18T15:01:12.000Z</time>
      </trkpt>
      <trkpt lat="43.97019" lon="5.14598">
        <ele>468.5</ele>
        <time>2013-02-18T15:01:13.000Z</time>
      </trkpt>
      <trkpt lat="43.97017" lon="5.14594">
        <ele>469.8</ele>
        <time>2013-02-18T15:01:15.000Z</time>
      </trkpt>
      <trkpt lat="43.97015" lon="5.14593">
        <ele>471.1</ele>
        <time>2013-02-18T15:01:16.000Z</time>
      </trkpt>
      <trkpt lat="43.97012" lon="5.14597">
        <ele>475.8</ele>
        <time>2013-02-18T15:01:18.000Z</time>
      </trkpt>
      <trkpt lat="43.9701" lon="5.1459">
        <ele>471.3</ele>
        <time>2013-02-18T15:01:19.000Z</time>
      </trkpt>
      <trkpt lat="43.97006" lon="5.14588">
        <ele>471.9</ele>
        <time>2013-02-18T15:01:21.000Z</time>
      </trkpt>
      <trkpt lat="43.97005" lon="5.14587">
        <ele>471.7</ele>
        <time>2013-02-18T15:01:22.000Z</time>
      </trkpt>
      <trkpt lat="43.97002" lon="5.14584">
        <ele>470.4</ele>
        <time>2013-02-18T15:01:24.000Z</time>
      </trkpt>
      <trkpt lat="43.96999" lon="5.14586">
        <ele>471.5</ele>
        <time>2013-02-18T15:01:25.000Z</time>
      </trkpt>
      <trkpt lat="43.96995" lon="5.14585">
        <ele>471.6</ele>
        <time>2013-02-18T15:01:27.000Z</time>
      </trkpt>
      <trkpt lat="43.96993" lon="5.14587">
        <ele>474.6</ele>
        <time>2013-02-18T15:01:28.000Z</time>
      </trkpt>
      <trkpt lat="43.96989" lon="5.14586">
        <ele>473.8</ele>
        <time>2013-02-18T15:01:30.000Z</time>
      </trkpt>
      <trkpt lat="43.96987" lon="5.14587">
        <ele>473.4</ele>
        <time>2013-02-18T15:01:31.000Z</time>
      </trkpt>
      <trkpt lat="43.96983" lon="5.14588">
        <ele>471.9</ele>
        <time>2013-02-18T15:01:33.000Z</time>
      </trkpt>
      <trkpt lat="43.96981" lon="5.14588">
        <ele>471</ele>
        <time>2013-02-18T15:01:34.000Z</time>
      </trkpt>
      <trkpt lat="43.96978" lon="5.14587">
        <ele>468.6</ele>
        <time>2013-02-18T15:01:35.000Z</time>
      </trkpt>
      <trkpt lat="43.96975" lon="5.14588">
        <ele>468</ele>
        <time>2013-02-18T15:01:36.000Z</time>
      </trkpt>
      <trkpt lat="43.96972" lon="5.14587">
        <ele>467.6</ele>
        <time>2013-02-18T15:01:37.000Z</time>
      </trkpt>
      <trkpt lat="43.96966" lon="5.14589">
        <ele>466.8</ele>
        <time>2013-02-18T15:01:38.000Z</time>
      </trkpt>
      <trkpt lat="43.96961" lon="5.14587">
        <ele>466</ele>
        <time>2013-02-18T15:01:39.000Z</time>
      </trkpt>
      <trkpt lat="43.9696" lon="5.14592">
        <ele>465.1</ele>
        <time>2013-02-18T15:01:40.000Z</time>
      </trkpt>
      <trkpt lat="43.96959" lon="5.14595">
        <ele>464.7</ele>
        <time>2013-02-18T15:01:41.000Z</time>
      </trkpt>
      <trkpt lat="43.96956" lon="5.14597">
        <ele>464.9</ele>
        <time>2013-02-18T15:01:43.000Z</time>
      </trkpt>
      <trkpt lat="43.96967" lon="5.14597">
        <ele>466.1</ele>
        <time>2013-02-18T15:01:44.000Z</time>
      </trkpt>
      <trkpt lat="43.96968" lon="5.14597">
        <ele>466.4</ele>
        <time>2013-02-18T15:01:46.000Z</time>
      </trkpt>
      <trkpt lat="43.96973" lon="5.14595">
        <ele>467.1</ele>
        <time>2013-02-18T15:01:47.000Z</time>
      </trkpt>
      <trkpt lat="43.96976" lon="5.14595">
        <ele>468.6</ele>
        <time>2013-02-18T15:02:25.000Z</time>
      </trkpt>
      <trkpt lat="43.96978" lon="5.14595">
        <ele>469.6</ele>
        <time>2013-02-18T15:02:26.000Z</time>
      </trkpt>
      <trkpt lat="43.96977" lon="5.14591">
        <ele>469.3</ele>
        <time>2013-02-18T15:02:28.000Z</time>
      </trkpt>
      <trkpt lat="43.9698" lon="5.14589">
        <ele>470.5</ele>
        <time>2013-02-18T15:02:29.000Z</time>
      </trkpt>
      <trkpt lat="43.96982" lon="5.14586">
        <ele>472.4</ele>
        <time>2013-02-18T15:02:30.000Z</time>
      </trkpt>
      <trkpt lat="43.96985" lon="5.14584">
        <ele>472.2</ele>
        <time>2013-02-18T15:02:31.000Z</time>
      </trkpt>
      <trkpt lat="43.96989" lon="5.14583">
        <ele>472.2</ele>
        <time>2013-02-18T15:02:32.000Z</time>
      </trkpt>
      <trkpt lat="43.96993" lon="5.14581">
        <ele>471.7</ele>
        <time>2013-02-18T15:02:33.000Z</time>
      </trkpt>
      <trkpt lat="43.96998" lon="5.14581">
        <ele>471.7</ele>
        <time>2013-02-18T15:02:34.000Z</time>
      </trkpt>
      <trkpt lat="43.97003" lon="5.14581">
        <ele>470.8</ele>
        <time>2013-02-18T15:02:35.000Z</time>
      </trkpt>
      <trkpt lat="43.97007" lon="5.14583">
        <ele>469.5</ele>
        <time>2013-02-18T15:02:36.000Z</time>
      </trkpt>
      <trkpt lat="43.97011" lon="5.14583">
        <ele>469.4</ele>
        <time>2013-02-18T15:02:37.000Z</time>
      </trkpt>
      <trkpt lat="43.97013" lon="5.14586">
        <ele>469.7</ele>
        <time>2013-02-18T15:02:38.000Z</time>
      </trkpt>
      <trkpt lat="43.97017" lon="5.14588">
        <ele>469.7</ele>
        <time>2013-02-18T15:02:39.000Z</time>
      </trkpt>
      <trkpt lat="43.97019" lon="5.14588">
        <ele>472.8</ele>
        <time>2013-02-18T15:02:41.000Z</time>
      </trkpt>
      <trkpt lat="43.97021" lon="5.14588">
        <ele>473.1</ele>
        <time>2013-02-18T15:02:42.000Z</time>
      </trkpt>
      <trkpt lat="43.97025" lon="5.14585">
        <ele>472.1</ele>
        <time>2013-02-18T15:02:44.000Z</time>
      </trkpt>
      <trkpt lat="43.97026" lon="5.14585">
        <ele>468.2</ele>
        <time>2013-02-18T15:02:45.000Z</time>
      </trkpt>
      <trkpt lat="43.97025" lon="5.1458">
        <ele>467.8</ele>
        <time>2013-02-18T15:02:47.000Z</time>
      </trkpt>
      <trkpt lat="43.97024" lon="5.14577">
        <ele>468.3</ele>
        <time>2013-02-18T15:02:48.000Z</time>
      </trkpt>
      <trkpt lat="43.97023" lon="5.14572">
        <ele>468.7</ele>
        <time>2013-02-18T15:02:50.000Z</time>
      </trkpt>
      <trkpt lat="43.97023" lon="5.1457">
        <ele>469.1</ele>
        <time>2013-02-18T15:02:51.000Z</time>
      </trkpt>
      <trkpt lat="43.97022" lon="5.14564">
        <ele>467.3</ele>
        <time>2013-02-18T15:02:54.000Z</time>
      </trkpt>
      <trkpt lat="43.97022" lon="5.14562">
        <ele>468.4</ele>
        <time>2013-02-18T15:02:55.000Z</time>
      </trkpt>
      <trkpt lat="43.97022" lon="5.14556">
        <ele>469</ele>
        <time>2013-02-18T15:02:57.000Z</time>
      </trkpt>
      <trkpt lat="43.97022" lon="5.14553">
        <ele>469.8</ele>
        <time>2013-02-18T15:02:58.000Z</time>
      </trkpt>
      <trkpt lat="43.97022" lon="5.14547">
        <ele>470.6</ele>
        <time>2013-02-18T15:03:00.000Z</time>
      </trkpt>
      <trkpt lat="43.97025" lon="5.14541">
        <ele>474.8</ele>
        <time>2013-02-18T15:03:01.000Z</time>
      </trkpt>
      <trkpt lat="43.97027" lon="5.14537">
        <ele>475.5</ele>
        <time>2013-02-18T15:03:02.000Z</time>
      </trkpt>
      <trkpt lat="43.97029" lon="5.14534">
        <ele>475.2</ele>
        <time>2013-02-18T15:03:03.000Z</time>
      </trkpt>
      <trkpt lat="43.97031" lon="5.1453">
        <ele>475.3</ele>
        <time>2013-02-18T15:03:04.000Z</time>
      </trkpt>
      <trkpt lat="43.97033" lon="5.14526">
        <ele>474.9</ele>
        <time>2013-02-18T15:03:05.000Z</time>
      </trkpt>
      <trkpt lat="43.97035" lon="5.14523">
        <ele>474.7</ele>
        <time>2013-02-18T15:03:06.000Z</time>
      </trkpt>
      <trkpt lat="43.97036" lon="5.1452">
        <ele>474.6</ele>
        <time>2013-02-18T15:03:07.000Z</time>
      </trkpt>
      <trkpt lat="43.97038" lon="5.14517">
        <ele>474.5</ele>
        <time>2013-02-18T15:03:08.000Z</time>
      </trkpt>
      <trkpt lat="43.97039" lon="5.14514">
        <ele>474</ele>
        <time>2013-02-18T15:03:09.000Z</time>
      </trkpt>
      <trkpt lat="43.97041" lon="5.14511">
        <ele>473.7</ele>
        <time>2013-02-18T15:03:10.000Z</time>
      </trkpt>
      <trkpt lat="43.97043" lon="5.14508">
        <ele>473.5</ele>
        <time>2013-02-18T15:03:11.000Z</time>
      </trkpt>
      <trkpt lat="43.97044" lon="5.14506">
        <ele>473.2</ele>
        <time>2013-02-18T15:03:12.000Z</time>
      </trkpt>
      <trkpt lat="43.97046" lon="5.14503">
        <ele>472.8</ele>
        <time>2013-02-18T15:03:13.000Z</time>
      </trkpt>
      <trkpt lat="43.97048" lon="5.14499">
        <ele>472.1</ele>
        <time>2013-02-18T15:03:15.000Z</time>
      </trkpt>
      <trkpt lat="43.97048" lon="5.14496">
        <ele>472.4</ele>
        <time>2013-02-18T15:03:16.000Z</time>
      </trkpt>
      <trkpt lat="43.97049" lon="5.14493">
        <ele>472.2</ele>
        <time>2013-02-18T15:03:17.000Z</time>
      </trkpt>
      <trkpt lat="43.9705" lon="5.14489">
        <ele>471.9</ele>
        <time>2013-02-18T15:03:18.000Z</time>
      </trkpt>
      <trkpt lat="43.9705" lon="5.14486">
        <ele>471.6</ele>
        <time>2013-02-18T15:03:19.000Z</time>
      </trkpt>
      <trkpt lat="43.9705" lon="5.14483">
        <ele>471.4</ele>
        <time>2013-02-18T15:03:20.000Z</time>
      </trkpt>
      <trkpt lat="43.97051" lon="5.14478">
        <ele>470.9</ele>
        <time>2013-02-18T15:03:22.000Z</time>
      </trkpt>
      <trkpt lat="43.97052" lon="5.14476">
        <ele>470.3</ele>
        <time>2013-02-18T15:03:23.000Z</time>
      </trkpt>
      <trkpt lat="43.97053" lon="5.14472">
        <ele>470.1</ele>
        <time>2013-02-18T15:03:25.000Z</time>
      </trkpt>
      <trkpt lat="43.97053" lon="5.1447">
        <ele>470</ele>
        <time>2013-02-18T15:03:26.000Z</time>
      </trkpt>
      <trkpt lat="43.97055" lon="5.14475">
        <ele>470.4</ele>
        <time>2013-02-18T15:04:29.000Z</time>
      </trkpt>
      <trkpt lat="43.97054" lon="5.14477">
        <ele>471.8</ele>
        <time>2013-02-18T15:04:30.000Z</time>
      </trkpt>
      <trkpt lat="43.97053" lon="5.14482">
        <ele>472</ele>
        <time>2013-02-18T15:04:32.000Z</time>
      </trkpt>
      <trkpt lat="43.97053" lon="5.14484">
        <ele>471.8</ele>
        <time>2013-02-18T15:04:33.000Z</time>
      </trkpt>
      <trkpt lat="43.97053" lon="5.14489">
        <ele>471.2</ele>
        <time>2013-02-18T15:04:35.000Z</time>
      </trkpt>
      <trkpt lat="43.97053" lon="5.14491">
        <ele>471.1</ele>
        <time>2013-02-18T15:04:36.000Z</time>
      </trkpt>
      <trkpt lat="43.97052" lon="5.14496">
        <ele>470.8</ele>
        <time>2013-02-18T15:04:38.000Z</time>
      </trkpt>
      <trkpt lat="43.97051" lon="5.14498">
        <ele>471.1</ele>
        <time>2013-02-18T15:04:39.000Z</time>
      </trkpt>
      <trkpt lat="43.9705" lon="5.14502">
        <ele>471.9</ele>
        <time>2013-02-18T15:04:41.000Z</time>
      </trkpt>
      <trkpt lat="43.9705" lon="5.14505">
        <ele>471.9</ele>
        <time>2013-02-18T15:04:42.000Z</time>
      </trkpt>
      <trkpt lat="43.97053" lon="5.14505">
        <ele>473.3</ele>
        <time>2013-02-18T15:04:44.000Z</time>
      </trkpt>
      <trkpt lat="43.97057" lon="5.14506">
        <ele>477.4</ele>
        <time>2013-02-18T15:04:45.000Z</time>
      </trkpt>
      <trkpt lat="43.9706" lon="5.14508">
        <ele>481</ele>
        <time>2013-02-18T15:04:46.000Z</time>
      </trkpt>
      <trkpt lat="43.97062" lon="5.14505">
        <ele>483.2</ele>
        <time>2013-02-18T15:04:47.000Z</time>
      </trkpt>
      <trkpt lat="43.97062" lon="5.14511">
        <ele>483.9</ele>
        <time>2013-02-18T15:04:48.000Z</time>
      </trkpt>
      <trkpt lat="43.97058" lon="5.14514">
        <ele>483.7</ele>
        <time>2013-02-18T15:04:49.000Z</time>
      </trkpt>
      <trkpt lat="43.97057" lon="5.14517">
        <ele>483.7</ele>
        <time>2013-02-18T15:04:50.000Z</time>
      </trkpt>
      <trkpt lat="43.97056" lon="5.1452">
        <ele>483.7</ele>
        <time>2013-02-18T15:04:51.000Z</time>
      </trkpt>
      <trkpt lat="43.97054" lon="5.14519">
        <ele>493.4</ele>
        <time>2013-02-18T15:04:52.000Z</time>
      </trkpt>
      <trkpt lat="43.97051" lon="5.14521">
        <ele>493.2</ele>
        <time>2013-02-18T15:04:53.000Z</time>
      </trkpt>
      <trkpt lat="43.97052" lon="5.14527">
        <ele>503.9</ele>
        <time>2013-02-18T15:04:56.000Z</time>
      </trkpt>
      <trkpt lat="43.97056" lon="5.14531">
        <ele>507.8</ele>
        <time>2013-02-18T15:04:57.000Z</time>
      </trkpt>
      <trkpt lat="43.97052" lon="5.14536">
        <ele>507.8</ele>
        <time>2013-02-18T15:04:58.000Z</time>
      </trkpt>
      <trkpt lat="43.97052" lon="5.1454">
        <ele>507.3</ele>
        <time>2013-02-18T15:04:59.000Z</time>
      </trkpt>
      <trkpt lat="43.97051" lon="5.14543">
        <ele>506.9</ele>
        <time>2013-02-18T15:05:00.000Z</time>
      </trkpt>
      <trkpt lat="43.97051" lon="5.14548">
        <ele>506.6</ele>
        <time>2013-02-18T15:05:01.000Z</time>
      </trkpt>
      <trkpt lat="43.97049" lon="5.1455">
        <ele>506.2</ele>
        <time>2013-02-18T15:05:02.000Z</time>
      </trkpt>
      <trkpt lat="43.97045" lon="5.14553">
        <ele>505.7</ele>
        <time>2013-02-18T15:05:03.000Z</time>
      </trkpt>
      <trkpt lat="43.97039" lon="5.14556">
        <ele>505.3</ele>
        <time>2013-02-18T15:05:04.000Z</time>
      </trkpt>
      <trkpt lat="43.97036" lon="5.14552">
        <ele>502</ele>
        <time>2013-02-18T15:05:07.000Z</time>
      </trkpt>
      <trkpt lat="43.97035" lon="5.14554">
        <ele>501.7</ele>
        <time>2013-02-18T15:05:08.000Z</time>
      </trkpt>
      <trkpt lat="43.97039" lon="5.14557">
        <ele>502.1</ele>
        <time>2013-02-18T15:05:09.000Z</time>
      </trkpt>
      <trkpt lat="43.97039" lon="5.14556">
        <ele>500.6</ele>
        <time>2013-02-18T15:05:10.000Z</time>
      </trkpt>
      <trkpt lat="43.97024" lon="5.14569">
        <ele>484.2</ele>
        <time>2013-02-18T15:05:11.000Z</time>
      </trkpt>
      <trkpt lat="43.97022" lon="5.14572">
        <ele>480.8</ele>
        <time>2013-02-18T15:05:12.000Z</time>
      </trkpt>
      <trkpt lat="43.9702" lon="5.14573">
        <ele>478.8</ele>
        <time>2013-02-18T15:05:13.000Z</time>
      </trkpt>
      <trkpt lat="43.97017" lon="5.14571">
        <ele>477.9</ele>
        <time>2013-02-18T15:05:16.000Z</time>
      </trkpt>
      <trkpt lat="43.97015" lon="5.1457">
        <ele>476.9</ele>
        <time>2013-02-18T15:05:17.000Z</time>
      </trkpt>
      <trkpt lat="43.97012" lon="5.14565">
        <ele>475.5</ele>
        <time>2013-02-18T15:05:19.000Z</time>
      </trkpt>
      <trkpt lat="43.97011" lon="5.14563">
        <ele>475.4</ele>
        <time>2013-02-18T15:05:20.000Z</time>
      </trkpt>
      <trkpt lat="43.9701" lon="5.1456">
        <ele>474.8</ele>
        <time>2013-02-18T15:05:21.000Z</time>
      </trkpt>
      <trkpt lat="43.97008" lon="5.14557">
        <ele>474.5</ele>
        <time>2013-02-18T15:05:22.000Z</time>
      </trkpt>
      <trkpt lat="43.97007" lon="5.14552">
        <ele>474.2</ele>
        <time>2013-02-18T15:05:24.000Z</time>
      </trkpt>
      <trkpt lat="43.97006" lon="5.1455">
        <ele>474.2</ele>
        <time>2013-02-18T15:05:25.000Z</time>
      </trkpt>
      <trkpt lat="43.97004" lon="5.1455">
        <ele>476.7</ele>
        <time>2013-02-18T15:05:26.000Z</time>
      </trkpt>
      <trkpt lat="43.97001" lon="5.14554">
        <ele>482.1</ele>
        <time>2013-02-18T15:05:27.000Z</time>
      </trkpt>
      <trkpt lat="43.96998" lon="5.14559">
        <ele>487.8</ele>
        <time>2013-02-18T15:05:28.000Z</time>
      </trkpt>
      <trkpt lat="43.96996" lon="5.14563">
        <ele>492.4</ele>
        <time>2013-02-18T15:05:29.000Z</time>
      </trkpt>
      <trkpt lat="43.96994" lon="5.14563">
        <ele>494.8</ele>
        <time>2013-02-18T15:05:30.000Z</time>
      </trkpt>
      <trkpt lat="43.96994" lon="5.14565">
        <ele>492.9</ele>
        <time>2013-02-18T15:05:32.000Z</time>
      </trkpt>
      <trkpt lat="43.96989" lon="5.14555">
        <ele>491.2</ele>
        <time>2013-02-18T15:05:33.000Z</time>
      </trkpt>
      <trkpt lat="43.96989" lon="5.14555">
        <ele>492.9</ele>
        <time>2013-02-18T15:05:36.000Z</time>
      </trkpt>
      <trkpt lat="43.96987" lon="5.14549">
        <ele>491.8</ele>
        <time>2013-02-18T15:05:37.000Z</time>
      </trkpt>
      <trkpt lat="43.9698" lon="5.14542">
        <ele>504.3</ele>
        <time>2013-02-18T15:05:38.000Z</time>
      </trkpt>
      <trkpt lat="43.96978" lon="5.14534">
        <ele>500.1</ele>
        <time>2013-02-18T15:05:39.000Z</time>
      </trkpt>
      <trkpt lat="43.96978" lon="5.14525">
        <ele>495.9</ele>
        <time>2013-02-18T15:05:40.000Z</time>
      </trkpt>
      <trkpt lat="43.96978" lon="5.14519">
        <ele>493.2</ele>
        <time>2013-02-18T15:05:42.000Z</time>
      </trkpt>
      <trkpt lat="43.96978" lon="5.14516">
        <ele>492.3</ele>
        <time>2013-02-18T15:05:43.000Z</time>
      </trkpt>
      <trkpt lat="43.96979" lon="5.1451">
        <ele>491.4</ele>
        <time>2013-02-18T15:05:45.000Z</time>
      </trkpt>
      <trkpt lat="43.96979" lon="5.14507">
        <ele>491.3</ele>
        <time>2013-02-18T15:05:46.000Z</time>
      </trkpt>
      <trkpt lat="43.96979" lon="5.14501">
        <ele>491.3</ele>
        <time>2013-02-18T15:05:48.000Z</time>
      </trkpt>
      <trkpt lat="43.96977" lon="5.14497">
        <ele>491.3</ele>
        <time>2013-02-18T15:05:49.000Z</time>
      </trkpt>
      <trkpt lat="43.96973" lon="5.14491">
        <ele>490.1</ele>
        <time>2013-02-18T15:05:50.000Z</time>
      </trkpt>
      <trkpt lat="43.96967" lon="5.14493">
        <ele>490.1</ele>
        <time>2013-02-18T15:05:51.000Z</time>
      </trkpt>
      <trkpt lat="43.96964" lon="5.14491">
        <ele>488</ele>
        <time>2013-02-18T15:05:52.000Z</time>
      </trkpt>
      <trkpt lat="43.9696" lon="5.14486">
        <ele>486.9</ele>
        <time>2013-02-18T15:05:53.000Z</time>
      </trkpt>
      <trkpt lat="43.96958" lon="5.14482">
        <ele>484.5</ele>
        <time>2013-02-18T15:05:57.000Z</time>
      </trkpt>
      <trkpt lat="43.96953" lon="5.14479">
        <ele>483.9</ele>
        <time>2013-02-18T15:05:58.000Z</time>
      </trkpt>
      <trkpt lat="43.96956" lon="5.1448">
        <ele>482.4</ele>
        <time>2013-02-18T15:05:59.000Z</time>
      </trkpt>
      <trkpt lat="43.9696" lon="5.1447">
        <ele>482</ele>
        <time>2013-02-18T15:06:00.000Z</time>
      </trkpt>
      <trkpt lat="43.96958" lon="5.14459">
        <ele>483.7</ele>
        <time>2013-02-18T15:06:01.000Z</time>
      </trkpt>
      <trkpt lat="43.96961" lon="5.1445">
        <ele>482.6</ele>
        <time>2013-02-18T15:06:02.000Z</time>
      </trkpt>
      <trkpt lat="43.96961" lon="5.14444">
        <ele>481.2</ele>
        <time>2013-02-18T15:06:03.000Z</time>
      </trkpt>
      <trkpt lat="43.96962" lon="5.14437">
        <ele>479.8</ele>
        <time>2013-02-18T15:06:04.000Z</time>
      </trkpt>
      <trkpt lat="43.96961" lon="5.14433">
        <ele>478.7</ele>
        <time>2013-02-18T15:06:05.000Z</time>
      </trkpt>
      <trkpt lat="43.96962" lon="5.14429">
        <ele>477.6</ele>
        <time>2013-02-18T15:06:06.000Z</time>
      </trkpt>
      <trkpt lat="43.96962" lon="5.14426">
        <ele>476.2</ele>
        <time>2013-02-18T15:06:07.000Z</time>
      </trkpt>
      <trkpt lat="43.96962" lon="5.14423">
        <ele>476.4</ele>
        <time>2013-02-18T15:06:08.000Z</time>
      </trkpt>
      <trkpt lat="43.96961" lon="5.14419">
        <ele>475.7</ele>
        <time>2013-02-18T15:06:09.000Z</time>
      </trkpt>
      <trkpt lat="43.9696" lon="5.14415">
        <ele>475.1</ele>
        <time>2013-02-18T15:06:10.000Z</time>
      </trkpt>
      <trkpt lat="43.96958" lon="5.14411">
        <ele>476.1</ele>
        <time>2013-02-18T15:06:11.000Z</time>
      </trkpt>
      <trkpt lat="43.96957" lon="5.14407">
        <ele>476.4</ele>
        <time>2013-02-18T15:06:12.000Z</time>
      </trkpt>
      <trkpt lat="43.96956" lon="5.14403">
        <ele>476</ele>
        <time>2013-02-18T15:06:13.000Z</time>
      </trkpt>
      <trkpt lat="43.96954" lon="5.144">
        <ele>475.3</ele>
        <time>2013-02-18T15:06:14.000Z</time>
      </trkpt>
      <trkpt lat="43.96952" lon="5.14396">
        <ele>475.3</ele>
        <time>2013-02-18T15:06:15.000Z</time>
      </trkpt>
      <trkpt lat="43.9695" lon="5.14392">
        <ele>474.6</ele>
        <time>2013-02-18T15:06:16.000Z</time>
      </trkpt>
      <trkpt lat="43.96948" lon="5.14388">
        <ele>474.2</ele>
        <time>2013-02-18T15:06:17.000Z</time>
      </trkpt>
      <trkpt lat="43.96946" lon="5.14386">
        <ele>473.6</ele>
        <time>2013-02-18T15:06:18.000Z</time>
      </trkpt>
      <trkpt lat="43.96943" lon="5.14382">
        <ele>473.2</ele>
        <time>2013-02-18T15:06:20.000Z</time>
      </trkpt>
      <trkpt lat="43.96941" lon="5.14381">
        <ele>472.9</ele>
        <time>2013-02-18T15:06:21.000Z</time>
      </trkpt>
      <trkpt lat="43.96939" lon="5.14377">
        <ele>472.6</ele>
        <time>2013-02-18T15:06:23.000Z</time>
      </trkpt>
      <trkpt lat="43.96936" lon="5.14374">
        <ele>472.8</ele>
        <time>2013-02-18T15:06:24.000Z</time>
      </trkpt>
      <trkpt lat="43.96935" lon="5.14371">
        <ele>472.9</ele>
        <time>2013-02-18T15:06:25.000Z</time>
      </trkpt>
      <trkpt lat="43.96933" lon="5.14369">
        <ele>472.8</ele>
        <time>2013-02-18T15:06:26.000Z</time>
      </trkpt>
      <trkpt lat="43.96929" lon="5.14365">
        <ele>474.5</ele>
        <time>2013-02-18T15:06:27.000Z</time>
      </trkpt>
      <trkpt lat="43.96928" lon="5.14362">
        <ele>474.3</ele>
        <time>2013-02-18T15:06:28.000Z</time>
      </trkpt>
      <trkpt lat="43.96926" lon="5.14359">
        <ele>474.2</ele>
        <time>2013-02-18T15:06:29.000Z</time>
      </trkpt>
      <trkpt lat="43.96925" lon="5.14355">
        <ele>473.9</ele>
        <time>2013-02-18T15:06:30.000Z</time>
      </trkpt>
      <trkpt lat="43.96921" lon="5.1435">
        <ele>473.5</ele>
        <time>2013-02-18T15:06:32.000Z</time>
      </trkpt>
      <trkpt lat="43.9692" lon="5.14348">
        <ele>473.2</ele>
        <time>2013-02-18T15:06:33.000Z</time>
      </trkpt>
      <trkpt lat="43.96918" lon="5.14344">
        <ele>473.1</ele>
        <time>2013-02-18T15:06:35.000Z</time>
      </trkpt>
      <trkpt lat="43.96917" lon="5.14343">
        <ele>473.4</ele>
        <time>2013-02-18T15:06:36.000Z</time>
      </trkpt>
      <trkpt lat="43.96914" lon="5.1434">
        <ele>473.8</ele>
        <time>2013-02-18T15:06:38.000Z</time>
      </trkpt>
      <trkpt lat="43.96911" lon="5.14337">
        <ele>473.8</ele>
        <time>2013-02-18T15:06:39.000Z</time>
      </trkpt>
      <trkpt lat="43.96908" lon="5.14335">
        <ele>473.8</ele>
        <time>2013-02-18T15:06:41.000Z</time>
      </trkpt>
      <trkpt lat="43.96908" lon="5.14333">
        <ele>473.7</ele>
        <time>2013-02-18T15:06:42.000Z</time>
      </trkpt>
      <trkpt lat="43.96906" lon="5.14331">
        <ele>474</ele>
        <time>2013-02-18T15:06:44.000Z</time>
      </trkpt>
      <trkpt lat="43.96904" lon="5.14329">
        <ele>473.9</ele>
        <time>2013-02-18T15:06:45.000Z</time>
      </trkpt>
      <trkpt lat="43.96902" lon="5.14326">
        <ele>473.7</ele>
        <time>2013-02-18T15:06:46.000Z</time>
      </trkpt>
      <trkpt lat="43.96902" lon="5.14323">
        <ele>473.3</ele>
        <time>2013-02-18T15:06:47.000Z</time>
      </trkpt>
      <trkpt lat="43.96899" lon="5.1432">
        <ele>468.7</ele>
        <time>2013-02-18T15:06:50.000Z</time>
      </trkpt>
      <trkpt lat="43.96898" lon="5.14319">
        <ele>468.3</ele>
        <time>2013-02-18T15:06:51.000Z</time>
      </trkpt>
      <trkpt lat="43.96897" lon="5.14315">
        <ele>468.6</ele>
        <time>2013-02-18T15:07:23.000Z</time>
      </trkpt>
      <trkpt lat="43.96895" lon="5.14313">
        <ele>469.5</ele>
        <time>2013-02-18T15:07:24.000Z</time>
      </trkpt>
      <trkpt lat="43.96893" lon="5.14312">
        <ele>469.1</ele>
        <time>2013-02-18T15:07:25.000Z</time>
      </trkpt>
      <trkpt lat="43.9689" lon="5.1431">
        <ele>468.7</ele>
        <time>2013-02-18T15:07:26.000Z</time>
      </trkpt>
      <trkpt lat="43.96887" lon="5.14306">
        <ele>469.2</ele>
        <time>2013-02-18T15:07:27.000Z</time>
      </trkpt>
      <trkpt lat="43.96882" lon="5.14301">
        <ele>469.4</ele>
        <time>2013-02-18T15:07:28.000Z</time>
      </trkpt>
      <trkpt lat="43.96878" lon="5.14296">
        <ele>469.9</ele>
        <time>2013-02-18T15:07:29.000Z</time>
      </trkpt>
      <trkpt lat="43.96876" lon="5.14291">
        <ele>469.6</ele>
        <time>2013-02-18T15:07:30.000Z</time>
      </trkpt>
      <trkpt lat="43.96874" lon="5.14286">
        <ele>469.4</ele>
        <time>2013-02-18T15:07:31.000Z</time>
      </trkpt>
      <trkpt lat="43.96872" lon="5.1428">
        <ele>470.1</ele>
        <time>2013-02-18T15:07:32.000Z</time>
      </trkpt>
      <trkpt lat="43.96869" lon="5.14274">
        <ele>470.8</ele>
        <time>2013-02-18T15:07:33.000Z</time>
      </trkpt>
      <trkpt lat="43.96867" lon="5.14269">
        <ele>470</ele>
        <time>2013-02-18T15:07:34.000Z</time>
      </trkpt>
      <trkpt lat="43.96865" lon="5.14264">
        <ele>469.8</ele>
        <time>2013-02-18T15:07:35.000Z</time>
      </trkpt>
      <trkpt lat="43.96862" lon="5.14258">
        <ele>469.1</ele>
        <time>2013-02-18T15:07:36.000Z</time>
      </trkpt>
      <trkpt lat="43.9686" lon="5.14253">
        <ele>468.5</ele>
        <time>2013-02-18T15:07:37.000Z</time>
      </trkpt>
      <trkpt lat="43.96858" lon="5.14251">
        <ele>468.3</ele>
        <time>2013-02-18T15:07:38.000Z</time>
      </trkpt>
      <trkpt lat="43.96857" lon="5.14245">
        <ele>467.9</ele>
        <time>2013-02-18T15:07:39.000Z</time>
      </trkpt>
      <trkpt lat="43.96856" lon="5.14242">
        <ele>467.5</ele>
        <time>2013-02-18T15:07:40.000Z</time>
      </trkpt>
      <trkpt lat="43.96855" lon="5.14237">
        <ele>468.3</ele>
        <time>2013-02-18T15:07:41.000Z</time>
      </trkpt>
      <trkpt lat="43.96853" lon="5.14234">
        <ele>468.2</ele>
        <time>2013-02-18T15:07:42.000Z</time>
      </trkpt>
      <trkpt lat="43.96852" lon="5.1423">
        <ele>467.9</ele>
        <time>2013-02-18T15:07:43.000Z</time>
      </trkpt>
      <trkpt lat="43.96851" lon="5.14227">
        <ele>467.9</ele>
        <time>2013-02-18T15:07:44.000Z</time>
      </trkpt>
      <trkpt lat="43.96849" lon="5.14224">
        <ele>468.3</ele>
        <time>2013-02-18T15:07:45.000Z</time>
      </trkpt>
      <trkpt lat="43.96848" lon="5.14221">
        <ele>468.4</ele>
        <time>2013-02-18T15:07:46.000Z</time>
      </trkpt>
      <trkpt lat="43.96847" lon="5.14218">
        <ele>468.2</ele>
        <time>2013-02-18T15:07:47.000Z</time>
      </trkpt>
      <trkpt lat="43.96845" lon="5.14214">
        <ele>469.7</ele>
        <time>2013-02-18T15:07:48.000Z</time>
      </trkpt>
      <trkpt lat="43.96843" lon="5.14211">
        <ele>469.5</ele>
        <time>2013-02-18T15:07:49.000Z</time>
      </trkpt>
      <trkpt lat="43.96842" lon="5.14207">
        <ele>469.3</ele>
        <time>2013-02-18T15:07:50.000Z</time>
      </trkpt>
      <trkpt lat="43.96841" lon="5.14204">
        <ele>469.1</ele>
        <time>2013-02-18T15:07:51.000Z</time>
      </trkpt>
      <trkpt lat="43.96839" lon="5.142">
        <ele>469.1</ele>
        <time>2013-02-18T15:07:52.000Z</time>
      </trkpt>
      <trkpt lat="43.96838" lon="5.14196">
        <ele>469.6</ele>
        <time>2013-02-18T15:07:53.000Z</time>
      </trkpt>
      <trkpt lat="43.96837" lon="5.14191">
        <ele>469.8</ele>
        <time>2013-02-18T15:07:54.000Z</time>
      </trkpt>
      <trkpt lat="43.96835" lon="5.14187">
        <ele>470</ele>
        <time>2013-02-18T15:07:55.000Z</time>
      </trkpt>
      <trkpt lat="43.96832" lon="5.14183">
        <ele>470.7</ele>
        <time>2013-02-18T15:07:57.000Z</time>
      </trkpt>
      <trkpt lat="43.96831" lon="5.1418">
        <ele>470.5</ele>
        <time>2013-02-18T15:07:58.000Z</time>
      </trkpt>
      <trkpt lat="43.96829" lon="5.14177">
        <ele>470.5</ele>
        <time>2013-02-18T15:07:59.000Z</time>
      </trkpt>
      <trkpt lat="43.96828" lon="5.14173">
        <ele>470.2</ele>
        <time>2013-02-18T15:08:00.000Z</time>
      </trkpt>
      <trkpt lat="43.96827" lon="5.14169">
        <ele>469.4</ele>
        <time>2013-02-18T15:08:01.000Z</time>
      </trkpt>
      <trkpt lat="43.96825" lon="5.14165">
        <ele>470.3</ele>
        <time>2013-02-18T15:08:02.000Z</time>
      </trkpt>
      <trkpt lat="43.96823" lon="5.14161">
        <ele>470.7</ele>
        <time>2013-02-18T15:08:03.000Z</time>
      </trkpt>
      <trkpt lat="43.96822" lon="5.14158">
        <ele>470.3</ele>
        <time>2013-02-18T15:08:04.000Z</time>
      </trkpt>
      <trkpt lat="43.9682" lon="5.14155">
        <ele>469.8</ele>
        <time>2013-02-18T15:08:05.000Z</time>
      </trkpt>
      <trkpt lat="43.96819" lon="5.14151">
        <ele>470</ele>
        <time>2013-02-18T15:08:06.000Z</time>
      </trkpt>
      <trkpt lat="43.96817" lon="5.14148">
        <ele>469.7</ele>
        <time>2013-02-18T15:08:07.000Z</time>
      </trkpt>
      <trkpt lat="43.96816" lon="5.14144">
        <ele>469.4</ele>
        <time>2013-02-18T15:08:08.000Z</time>
      </trkpt>
      <trkpt lat="43.96814" lon="5.14141">
        <ele>469.3</ele>
        <time>2013-02-18T15:08:09.000Z</time>
      </trkpt>
      <trkpt lat="43.96812" lon="5.14138">
        <ele>469.5</ele>
        <time>2013-02-18T15:08:10.000Z</time>
      </trkpt>
      <trkpt lat="43.9681" lon="5.14135">
        <ele>469.8</ele>
        <time>2013-02-18T15:08:11.000Z</time>
      </trkpt>
      <trkpt lat="43.96809" lon="5.14133">
        <ele>469.5</ele>
        <time>2013-02-18T15:08:12.000Z</time>
      </trkpt>
      <trkpt lat="43.96808" lon="5.1413">
        <ele>470.2</ele>
        <time>2013-02-18T15:08:13.000Z</time>
      </trkpt>
      <trkpt lat="43.96806" lon="5.14127">
        <ele>470.1</ele>
        <time>2013-02-18T15:08:14.000Z</time>
      </trkpt>
      <trkpt lat="43.96805" lon="5.14124">
        <ele>470.4</ele>
        <time>2013-02-18T15:08:15.000Z</time>
      </trkpt>
      <trkpt lat="43.96803" lon="5.14121">
        <ele>470</ele>
        <time>2013-02-18T15:08:16.000Z</time>
      </trkpt>
      <trkpt lat="43.96801" lon="5.14118">
        <ele>469.6</ele>
        <time>2013-02-18T15:08:17.000Z</time>
      </trkpt>
      <trkpt lat="43.96799" lon="5.14115">
        <ele>469.6</ele>
        <time>2013-02-18T15:08:18.000Z</time>
      </trkpt>
      <trkpt lat="43.96798" lon="5.14109">
        <ele>469.1</ele>
        <time>2013-02-18T15:08:20.000Z</time>
      </trkpt>
      <trkpt lat="43.96798" lon="5.14106">
        <ele>468.6</ele>
        <time>2013-02-18T15:08:21.000Z</time>
      </trkpt>
      <trkpt lat="43.96796" lon="5.14103">
        <ele>468.3</ele>
        <time>2013-02-18T15:08:22.000Z</time>
      </trkpt>
      <trkpt lat="43.96795" lon="5.14098">
        <ele>469.7</ele>
        <time>2013-02-18T15:08:23.000Z</time>
      </trkpt>
      <trkpt lat="43.96793" lon="5.14094">
        <ele>469.8</ele>
        <time>2013-02-18T15:08:24.000Z</time>
      </trkpt>
      <trkpt lat="43.96792" lon="5.1409">
        <ele>470</ele>
        <time>2013-02-18T15:08:25.000Z</time>
      </trkpt>
      <trkpt lat="43.96791" lon="5.14085">
        <ele>470.1</ele>
        <time>2013-02-18T15:08:26.000Z</time>
      </trkpt>
      <trkpt lat="43.9679" lon="5.14081">
        <ele>470.2</ele>
        <time>2013-02-18T15:08:27.000Z</time>
      </trkpt>
      <trkpt lat="43.9679" lon="5.14077">
        <ele>469.8</ele>
        <time>2013-02-18T15:08:28.000Z</time>
      </trkpt>
      <trkpt lat="43.9679" lon="5.14072">
        <ele>469.9</ele>
        <time>2013-02-18T15:08:29.000Z</time>
      </trkpt>
      <trkpt lat="43.96791" lon="5.14066">
        <ele>469.5</ele>
        <time>2013-02-18T15:08:30.000Z</time>
      </trkpt>
      <trkpt lat="43.96791" lon="5.14062">
        <ele>469.4</ele>
        <time>2013-02-18T15:08:31.000Z</time>
      </trkpt>
      <trkpt lat="43.96794" lon="5.1406">
        <ele>466.9</ele>
        <time>2013-02-18T15:08:32.000Z</time>
      </trkpt>
      <trkpt lat="43.96795" lon="5.14056">
        <ele>467.3</ele>
        <time>2013-02-18T15:08:33.000Z</time>
      </trkpt>
      <trkpt lat="43.96795" lon="5.14052">
        <ele>467.4</ele>
        <time>2013-02-18T15:08:34.000Z</time>
      </trkpt>
      <trkpt lat="43.96796" lon="5.14049">
        <ele>467.3</ele>
        <time>2013-02-18T15:08:35.000Z</time>
      </trkpt>
      <trkpt lat="43.96797" lon="5.14045">
        <ele>467.5</ele>
        <time>2013-02-18T15:08:36.000Z</time>
      </trkpt>
      <trkpt lat="43.96799" lon="5.14042">
        <ele>467.6</ele>
        <time>2013-02-18T15:08:37.000Z</time>
      </trkpt>
      <trkpt lat="43.968" lon="5.14039">
        <ele>468</ele>
        <time>2013-02-18T15:08:38.000Z</time>
      </trkpt>
      <trkpt lat="43.968" lon="5.14035">
        <ele>468</ele>
        <time>2013-02-18T15:08:39.000Z</time>
      </trkpt>
      <trkpt lat="43.96802" lon="5.14031">
        <ele>468.5</ele>
        <time>2013-02-18T15:08:40.000Z</time>
      </trkpt>
      <trkpt lat="43.96802" lon="5.14027">
        <ele>468.6</ele>
        <time>2013-02-18T15:08:41.000Z</time>
      </trkpt>
      <trkpt lat="43.96804" lon="5.14024">
        <ele>468.6</ele>
        <time>2013-02-18T15:08:42.000Z</time>
      </trkpt>
      <trkpt lat="43.96805" lon="5.14021">
        <ele>468.9</ele>
        <time>2013-02-18T15:08:43.000Z</time>
      </trkpt>
      <trkpt lat="43.96806" lon="5.14018">
        <ele>468.9</ele>
        <time>2013-02-18T15:08:44.000Z</time>
      </trkpt>
      <trkpt lat="43.96808" lon="5.14014">
        <ele>469.2</ele>
        <time>2013-02-18T15:08:45.000Z</time>
      </trkpt>
      <trkpt lat="43.96809" lon="5.14012">
        <ele>469.3</ele>
        <time>2013-02-18T15:08:46.000Z</time>
      </trkpt>
      <trkpt lat="43.96812" lon="5.14007">
        <ele>469.5</ele>
        <time>2013-02-18T15:08:48.000Z</time>
      </trkpt>
      <trkpt lat="43.96813" lon="5.14005">
        <ele>469.9</ele>
        <time>2013-02-18T15:08:49.000Z</time>
      </trkpt>
      <trkpt lat="43.96814" lon="5.14002">
        <ele>469.9</ele>
        <time>2013-02-18T15:08:50.000Z</time>
      </trkpt>
      <trkpt lat="43.96815" lon="5.13999">
        <ele>470.3</ele>
        <time>2013-02-18T15:08:51.000Z</time>
      </trkpt>
      <trkpt lat="43.96817" lon="5.13996">
        <ele>470.4</ele>
        <time>2013-02-18T15:08:52.000Z</time>
      </trkpt>
      <trkpt lat="43.96818" lon="5.13993">
        <ele>470.5</ele>
        <time>2013-02-18T15:08:53.000Z</time>
      </trkpt>
      <trkpt lat="43.9682" lon="5.13991">
        <ele>470.3</ele>
        <time>2013-02-18T15:08:54.000Z</time>
      </trkpt>
      <trkpt lat="43.96822" lon="5.13989">
        <ele>470.7</ele>
        <time>2013-02-18T15:08:55.000Z</time>
      </trkpt>
      <trkpt lat="43.96823" lon="5.13986">
        <ele>471.1</ele>
        <time>2013-02-18T15:08:56.000Z</time>
      </trkpt>
      <trkpt lat="43.96824" lon="5.13983">
        <ele>471.5</ele>
        <time>2013-02-18T15:08:57.000Z</time>
      </trkpt>
      <trkpt lat="43.96826" lon="5.1398">
        <ele>471.3</ele>
        <time>2013-02-18T15:08:58.000Z</time>
      </trkpt>
      <trkpt lat="43.96828" lon="5.13978">
        <ele>471.5</ele>
        <time>2013-02-18T15:08:59.000Z</time>
      </trkpt>
      <trkpt lat="43.9683" lon="5.13975">
        <ele>471.3</ele>
        <time>2013-02-18T15:09:00.000Z</time>
      </trkpt>
      <trkpt lat="43.96832" lon="5.13973">
        <ele>471.1</ele>
        <time>2013-02-18T15:09:01.000Z</time>
      </trkpt>
      <trkpt lat="43.96833" lon="5.1397">
        <ele>471.3</ele>
        <time>2013-02-18T15:09:02.000Z</time>
      </trkpt>
      <trkpt lat="43.96835" lon="5.13968">
        <ele>471.2</ele>
        <time>2013-02-18T15:09:03.000Z</time>
      </trkpt>
      <trkpt lat="43.96837" lon="5.13965">
        <ele>471.5</ele>
        <time>2013-02-18T15:09:04.000Z</time>
      </trkpt>
      <trkpt lat="43.9684" lon="5.13963">
        <ele>471.6</ele>
        <time>2013-02-18T15:09:05.000Z</time>
      </trkpt>
      <trkpt lat="43.96842" lon="5.1396">
        <ele>471.7</ele>
        <time>2013-02-18T15:09:06.000Z</time>
      </trkpt>
      <trkpt lat="43.96844" lon="5.13958">
        <ele>471.7</ele>
        <time>2013-02-18T15:09:07.000Z</time>
      </trkpt>
      <trkpt lat="43.96847" lon="5.13957">
        <ele>471.7</ele>
        <time>2013-02-18T15:09:08.000Z</time>
      </trkpt>
      <trkpt lat="43.9685" lon="5.13956">
        <ele>471.5</ele>
        <time>2013-02-18T15:09:09.000Z</time>
      </trkpt>
      <trkpt lat="43.96853" lon="5.13955">
        <ele>471.2</ele>
        <time>2013-02-18T15:09:10.000Z</time>
      </trkpt>
      <trkpt lat="43.96856" lon="5.13953">
        <ele>471.4</ele>
        <time>2013-02-18T15:09:11.000Z</time>
      </trkpt>
      <trkpt lat="43.96859" lon="5.13952">
        <ele>471.3</ele>
        <time>2013-02-18T15:09:12.000Z</time>
      </trkpt>
      <trkpt lat="43.96861" lon="5.13951">
        <ele>471.3</ele>
        <time>2013-02-18T15:09:13.000Z</time>
      </trkpt>
      <trkpt lat="43.96864" lon="5.1395">
        <ele>471.4</ele>
        <time>2013-02-18T15:09:14.000Z</time>
      </trkpt>
      <trkpt lat="43.96867" lon="5.13948">
        <ele>471.4</ele>
        <time>2013-02-18T15:09:15.000Z</time>
      </trkpt>
      <trkpt lat="43.96869" lon="5.13947">
        <ele>471.4</ele>
        <time>2013-02-18T15:09:16.000Z</time>
      </trkpt>
      <trkpt lat="43.96872" lon="5.13945">
        <ele>471.7</ele>
        <time>2013-02-18T15:09:17.000Z</time>
      </trkpt>
      <trkpt lat="43.96874" lon="5.13944">
        <ele>471.6</ele>
        <time>2013-02-18T15:09:18.000Z</time>
      </trkpt>
      <trkpt lat="43.96876" lon="5.13942">
        <ele>472</ele>
        <time>2013-02-18T15:09:19.000Z</time>
      </trkpt>
      <trkpt lat="43.96879" lon="5.1394">
        <ele>471.9</ele>
        <time>2013-02-18T15:09:20.000Z</time>
      </trkpt>
      <trkpt lat="43.96882" lon="5.13939">
        <ele>471.7</ele>
        <time>2013-02-18T15:09:21.000Z</time>
      </trkpt>
      <trkpt lat="43.96884" lon="5.13937">
        <ele>471.2</ele>
        <time>2013-02-18T15:09:22.000Z</time>
      </trkpt>
      <trkpt lat="43.96887" lon="5.13936">
        <ele>471.3</ele>
        <time>2013-02-18T15:09:23.000Z</time>
      </trkpt>
      <trkpt lat="43.96889" lon="5.13934">
        <ele>471.3</ele>
        <time>2013-02-18T15:09:24.000Z</time>
      </trkpt>
      <trkpt lat="43.96892" lon="5.13933">
        <ele>471.1</ele>
        <time>2013-02-18T15:09:25.000Z</time>
      </trkpt>
      <trkpt lat="43.96894" lon="5.13932">
        <ele>471.2</ele>
        <time>2013-02-18T15:09:26.000Z</time>
      </trkpt>
      <trkpt lat="43.96897" lon="5.13932">
        <ele>471.1</ele>
        <time>2013-02-18T15:09:27.000Z</time>
      </trkpt>
      <trkpt lat="43.969" lon="5.13931">
        <ele>471.1</ele>
        <time>2013-02-18T15:09:28.000Z</time>
      </trkpt>
      <trkpt lat="43.96903" lon="5.1393">
        <ele>471.3</ele>
        <time>2013-02-18T15:09:29.000Z</time>
      </trkpt>
      <trkpt lat="43.96906" lon="5.13929">
        <ele>471</ele>
        <time>2013-02-18T15:09:30.000Z</time>
      </trkpt>
      <trkpt lat="43.96909" lon="5.13927">
        <ele>471.1</ele>
        <time>2013-02-18T15:09:31.000Z</time>
      </trkpt>
      <trkpt lat="43.96912" lon="5.13926">
        <ele>471.2</ele>
        <time>2013-02-18T15:09:32.000Z</time>
      </trkpt>
      <trkpt lat="43.96915" lon="5.13925">
        <ele>470.8</ele>
        <time>2013-02-18T15:09:33.000Z</time>
      </trkpt>
      <trkpt lat="43.96918" lon="5.13923">
        <ele>470.5</ele>
        <time>2013-02-18T15:09:34.000Z</time>
      </trkpt>
      <trkpt lat="43.96921" lon="5.1392">
        <ele>470.5</ele>
        <time>2013-02-18T15:09:35.000Z</time>
      </trkpt>
      <trkpt lat="43.96924" lon="5.13918">
        <ele>470</ele>
        <time>2013-02-18T15:09:36.000Z</time>
      </trkpt>
      <trkpt lat="43.96926" lon="5.13916">
        <ele>470.1</ele>
        <time>2013-02-18T15:09:37.000Z</time>
      </trkpt>
      <trkpt lat="43.96928" lon="5.13913">
        <ele>470</ele>
        <time>2013-02-18T15:09:38.000Z</time>
      </trkpt>
      <trkpt lat="43.96928" lon="5.1391">
        <ele>470.1</ele>
        <time>2013-02-18T15:09:39.000Z</time>
      </trkpt>
      <trkpt lat="43.96931" lon="5.13907">
        <ele>471.2</ele>
        <time>2013-02-18T15:10:09.000Z</time>
      </trkpt>
      <trkpt lat="43.96932" lon="5.13905">
        <ele>473</ele>
        <time>2013-02-18T15:10:10.000Z</time>
      </trkpt>
      <trkpt lat="43.96934" lon="5.13901">
        <ele>471.4</ele>
        <time>2013-02-18T15:10:13.000Z</time>
      </trkpt>
      <trkpt lat="43.96936" lon="5.13899">
        <ele>471.2</ele>
        <time>2013-02-18T15:10:14.000Z</time>
      </trkpt>
      <trkpt lat="43.96939" lon="5.13899">
        <ele>471</ele>
        <time>2013-02-18T15:10:15.000Z</time>
      </trkpt>
      <trkpt lat="43.96943" lon="5.13898">
        <ele>470.7</ele>
        <time>2013-02-18T15:10:16.000Z</time>
      </trkpt>
      <trkpt lat="43.96946" lon="5.13897">
        <ele>470.6</ele>
        <time>2013-02-18T15:10:17.000Z</time>
      </trkpt>
      <trkpt lat="43.96949" lon="5.13895">
        <ele>470.3</ele>
        <time>2013-02-18T15:10:18.000Z</time>
      </trkpt>
      <trkpt lat="43.96953" lon="5.13894">
        <ele>470</ele>
        <time>2013-02-18T15:10:19.000Z</time>
      </trkpt>
      <trkpt lat="43.96956" lon="5.13892">
        <ele>470.2</ele>
        <time>2013-02-18T15:10:20.000Z</time>
      </trkpt>
      <trkpt lat="43.96959" lon="5.1389">
        <ele>470.3</ele>
        <time>2013-02-18T15:10:21.000Z</time>
      </trkpt>
      <trkpt lat="43.96962" lon="5.13889">
        <ele>470.1</ele>
        <time>2013-02-18T15:10:22.000Z</time>
      </trkpt>
      <trkpt lat="43.96965" lon="5.13887">
        <ele>470</ele>
        <time>2013-02-18T15:10:23.000Z</time>
      </trkpt>
      <trkpt lat="43.96968" lon="5.13886">
        <ele>469.4</ele>
        <time>2013-02-18T15:10:24.000Z</time>
      </trkpt>
      <trkpt lat="43.96971" lon="5.13885">
        <ele>469.8</ele>
        <time>2013-02-18T15:10:25.000Z</time>
      </trkpt>
      <trkpt lat="43.96975" lon="5.13883">
        <ele>469.2</ele>
        <time>2013-02-18T15:10:26.000Z</time>
      </trkpt>
      <trkpt lat="43.96978" lon="5.13881">
        <ele>469</ele>
        <time>2013-02-18T15:10:27.000Z</time>
      </trkpt>
      <trkpt lat="43.96982" lon="5.13879">
        <ele>468.5</ele>
        <time>2013-02-18T15:10:28.000Z</time>
      </trkpt>
      <trkpt lat="43.96986" lon="5.13877">
        <ele>467.9</ele>
        <time>2013-02-18T15:10:29.000Z</time>
      </trkpt>
      <trkpt lat="43.9699" lon="5.13875">
        <ele>468</ele>
        <time>2013-02-18T15:10:30.000Z</time>
      </trkpt>
      <trkpt lat="43.96994" lon="5.13874">
        <ele>467.8</ele>
        <time>2013-02-18T15:10:31.000Z</time>
      </trkpt>
      <trkpt lat="43.96998" lon="5.13873">
        <ele>467.5</ele>
        <time>2013-02-18T15:10:32.000Z</time>
      </trkpt>
      <trkpt lat="43.97003" lon="5.13872">
        <ele>467.2</ele>
        <time>2013-02-18T15:10:33.000Z</time>
      </trkpt>
      <trkpt lat="43.97007" lon="5.1387">
        <ele>467</ele>
        <time>2013-02-18T15:10:34.000Z</time>
      </trkpt>
      <trkpt lat="43.97011" lon="5.13868">
        <ele>466.9</ele>
        <time>2013-02-18T15:10:35.000Z</time>
      </trkpt>
      <trkpt lat="43.97015" lon="5.13867">
        <ele>466.9</ele>
        <time>2013-02-18T15:10:36.000Z</time>
      </trkpt>
      <trkpt lat="43.97019" lon="5.13865">
        <ele>466.5</ele>
        <time>2013-02-18T15:10:37.000Z</time>
      </trkpt>
      <trkpt lat="43.97023" lon="5.13863">
        <ele>466.4</ele>
        <time>2013-02-18T15:10:38.000Z</time>
      </trkpt>
      <trkpt lat="43.97026" lon="5.13863">
        <ele>466.2</ele>
        <time>2013-02-18T15:10:39.000Z</time>
      </trkpt>
      <trkpt lat="43.9703" lon="5.13862">
        <ele>465.3</ele>
        <time>2013-02-18T15:10:40.000Z</time>
      </trkpt>
      <trkpt lat="43.97034" lon="5.13861">
        <ele>464.4</ele>
        <time>2013-02-18T15:10:41.000Z</time>
      </trkpt>
      <trkpt lat="43.97039" lon="5.1386">
        <ele>463.6</ele>
        <time>2013-02-18T15:10:42.000Z</time>
      </trkpt>
      <trkpt lat="43.97042" lon="5.13859">
        <ele>463.8</ele>
        <time>2013-02-18T15:10:43.000Z</time>
      </trkpt>
      <trkpt lat="43.97045" lon="5.13857">
        <ele>463.9</ele>
        <time>2013-02-18T15:10:44.000Z</time>
      </trkpt>
      <trkpt lat="43.97049" lon="5.13856">
        <ele>463.7</ele>
        <time>2013-02-18T15:10:45.000Z</time>
      </trkpt>
      <trkpt lat="43.97052" lon="5.13855">
        <ele>463.8</ele>
        <time>2013-02-18T15:10:46.000Z</time>
      </trkpt>
      <trkpt lat="43.97055" lon="5.13854">
        <ele>463.9</ele>
        <time>2013-02-18T15:10:47.000Z</time>
      </trkpt>
      <trkpt lat="43.97058" lon="5.13854">
        <ele>463.5</ele>
        <time>2013-02-18T15:10:48.000Z</time>
      </trkpt>
      <trkpt lat="43.97061" lon="5.13854">
        <ele>463.3</ele>
        <time>2013-02-18T15:10:49.000Z</time>
      </trkpt>
      <trkpt lat="43.97064" lon="5.13854">
        <ele>463</ele>
        <time>2013-02-18T15:10:50.000Z</time>
      </trkpt>
      <trkpt lat="43.97067" lon="5.13855">
        <ele>463</ele>
        <time>2013-02-18T15:10:51.000Z</time>
      </trkpt>
      <trkpt lat="43.9707" lon="5.13854">
        <ele>463.1</ele>
        <time>2013-02-18T15:10:52.000Z</time>
      </trkpt>
      <trkpt lat="43.97074" lon="5.13856">
        <ele>462.8</ele>
        <time>2013-02-18T15:10:53.000Z</time>
      </trkpt>
      <trkpt lat="43.97078" lon="5.13858">
        <ele>462.5</ele>
        <time>2013-02-18T15:10:54.000Z</time>
      </trkpt>
      <trkpt lat="43.97082" lon="5.1386">
        <ele>462.6</ele>
        <time>2013-02-18T15:10:55.000Z</time>
      </trkpt>
      <trkpt lat="43.97086" lon="5.13862">
        <ele>462.6</ele>
        <time>2013-02-18T15:10:56.000Z</time>
      </trkpt>
      <trkpt lat="43.97088" lon="5.13865">
        <ele>462.4</ele>
        <time>2013-02-18T15:10:57.000Z</time>
      </trkpt>
      <trkpt lat="43.97091" lon="5.13868">
        <ele>462.3</ele>
        <time>2013-02-18T15:10:58.000Z</time>
      </trkpt>
      <trkpt lat="43.97094" lon="5.1387">
        <ele>462.4</ele>
        <time>2013-02-18T15:10:59.000Z</time>
      </trkpt>
      <trkpt lat="43.97097" lon="5.13871">
        <ele>462.5</ele>
        <time>2013-02-18T15:11:00.000Z</time>
      </trkpt>
      <trkpt lat="43.971" lon="5.13871">
        <ele>462.6</ele>
        <time>2013-02-18T15:11:01.000Z</time>
      </trkpt>
      <trkpt lat="43.97101" lon="5.13865">
        <ele>461</ele>
        <time>2013-02-18T15:11:02.000Z</time>
      </trkpt>
      <trkpt lat="43.97104" lon="5.13863">
        <ele>460.2</ele>
        <time>2013-02-18T15:11:03.000Z</time>
      </trkpt>
      <trkpt lat="43.97107" lon="5.13861">
        <ele>460.4</ele>
        <time>2013-02-18T15:11:04.000Z</time>
      </trkpt>
      <trkpt lat="43.9711" lon="5.13858">
        <ele>461.6</ele>
        <time>2013-02-18T15:11:05.000Z</time>
      </trkpt>
      <trkpt lat="43.97112" lon="5.13856">
        <ele>462.8</ele>
        <time>2013-02-18T15:11:06.000Z</time>
      </trkpt>
      <trkpt lat="43.97114" lon="5.13854">
        <ele>463.5</ele>
        <time>2013-02-18T15:11:07.000Z</time>
      </trkpt>
      <trkpt lat="43.97116" lon="5.13853">
        <ele>464</ele>
        <time>2013-02-18T15:11:08.000Z</time>
      </trkpt>
      <trkpt lat="43.9712" lon="5.13864">
        <ele>463.2</ele>
        <time>2013-02-18T15:11:09.000Z</time>
      </trkpt>
      <trkpt lat="43.97121" lon="5.13867">
        <ele>462.5</ele>
        <time>2013-02-18T15:11:10.000Z</time>
      </trkpt>
      <trkpt lat="43.97122" lon="5.1387">
        <ele>461.8</ele>
        <time>2013-02-18T15:11:11.000Z</time>
      </trkpt>
      <trkpt lat="43.97124" lon="5.13875">
        <ele>461.6</ele>
        <time>2013-02-18T15:11:13.000Z</time>
      </trkpt>
      <trkpt lat="43.97125" lon="5.13876">
        <ele>461.2</ele>
        <time>2013-02-18T15:11:14.000Z</time>
      </trkpt>
      <trkpt lat="43.97126" lon="5.13879">
        <ele>461.1</ele>
        <time>2013-02-18T15:11:16.000Z</time>
      </trkpt>
      <trkpt lat="43.97129" lon="5.13882">
        <ele>460.2</ele>
        <time>2013-02-18T15:11:17.000Z</time>
      </trkpt>
      <trkpt lat="43.97132" lon="5.13886">
        <ele>459.7</ele>
        <time>2013-02-18T15:11:19.000Z</time>
      </trkpt>
      <trkpt lat="43.97134" lon="5.13889">
        <ele>459.2</ele>
        <time>2013-02-18T15:11:20.000Z</time>
      </trkpt>
      <trkpt lat="43.97135" lon="5.13891">
        <ele>458.5</ele>
        <time>2013-02-18T15:11:21.000Z</time>
      </trkpt>
      <trkpt lat="43.97137" lon="5.13893">
        <ele>458.2</ele>
        <time>2013-02-18T15:11:22.000Z</time>
      </trkpt>
      <trkpt lat="43.97139" lon="5.13895">
        <ele>457.7</ele>
        <time>2013-02-18T15:11:23.000Z</time>
      </trkpt>
      <trkpt lat="43.9714" lon="5.13898">
        <ele>456.9</ele>
        <time>2013-02-18T15:11:24.000Z</time>
      </trkpt>
      <trkpt lat="43.97143" lon="5.13902">
        <ele>455.9</ele>
        <time>2013-02-18T15:11:26.000Z</time>
      </trkpt>
      <trkpt lat="43.97145" lon="5.13902">
        <ele>455</ele>
        <time>2013-02-18T15:11:27.000Z</time>
      </trkpt>
      <trkpt lat="43.97148" lon="5.139">
        <ele>454.6</ele>
        <time>2013-02-18T15:11:29.000Z</time>
      </trkpt>
      <trkpt lat="43.9715" lon="5.13898">
        <ele>454.5</ele>
        <time>2013-02-18T15:11:30.000Z</time>
      </trkpt>
      <trkpt lat="43.97152" lon="5.13896">
        <ele>454.6</ele>
        <time>2013-02-18T15:11:31.000Z</time>
      </trkpt>
      <trkpt lat="43.97154" lon="5.13894">
        <ele>454.1</ele>
        <time>2013-02-18T15:11:32.000Z</time>
      </trkpt>
      <trkpt lat="43.97156" lon="5.13892">
        <ele>453.8</ele>
        <time>2013-02-18T15:11:33.000Z</time>
      </trkpt>
      <trkpt lat="43.97157" lon="5.1389">
        <ele>453.5</ele>
        <time>2013-02-18T15:11:34.000Z</time>
      </trkpt>
      <trkpt lat="43.97159" lon="5.13887">
        <ele>454.5</ele>
        <time>2013-02-18T15:11:35.000Z</time>
      </trkpt>
      <trkpt lat="43.97162" lon="5.13884">
        <ele>453.5</ele>
        <time>2013-02-18T15:11:36.000Z</time>
      </trkpt>
      <trkpt lat="43.97163" lon="5.13882">
        <ele>454.3</ele>
        <time>2013-02-18T15:11:37.000Z</time>
      </trkpt>
      <trkpt lat="43.97165" lon="5.1388">
        <ele>453.7</ele>
        <time>2013-02-18T15:11:38.000Z</time>
      </trkpt>
      <trkpt lat="43.97167" lon="5.13877">
        <ele>453</ele>
        <time>2013-02-18T15:11:39.000Z</time>
      </trkpt>
      <trkpt lat="43.97168" lon="5.13874">
        <ele>452.3</ele>
        <time>2013-02-18T15:11:40.000Z</time>
      </trkpt>
      <trkpt lat="43.97168" lon="5.1387">
        <ele>452</ele>
        <time>2013-02-18T15:11:41.000Z</time>
      </trkpt>
      <trkpt lat="43.97167" lon="5.13867">
        <ele>451.5</ele>
        <time>2013-02-18T15:11:42.000Z</time>
      </trkpt>
      <trkpt lat="43.97166" lon="5.13863">
        <ele>451.5</ele>
        <time>2013-02-18T15:11:43.000Z</time>
      </trkpt>
      <trkpt lat="43.97165" lon="5.1386">
        <ele>451.5</ele>
        <time>2013-02-18T15:11:44.000Z</time>
      </trkpt>
      <trkpt lat="43.97163" lon="5.13857">
        <ele>450.8</ele>
        <time>2013-02-18T15:12:11.000Z</time>
      </trkpt>
      <trkpt lat="43.97161" lon="5.13855">
        <ele>453.2</ele>
        <time>2013-02-18T15:12:12.000Z</time>
      </trkpt>
      <trkpt lat="43.97156" lon="5.13856">
        <ele>452.9</ele>
        <time>2013-02-18T15:12:13.000Z</time>
      </trkpt>
      <trkpt lat="43.97153" lon="5.13848">
        <ele>457.8</ele>
        <time>2013-02-18T15:12:14.000Z</time>
      </trkpt>
      <trkpt lat="43.9715" lon="5.13844">
        <ele>457</ele>
        <time>2013-02-18T15:12:16.000Z</time>
      </trkpt>
      <trkpt lat="43.97148" lon="5.13844">
        <ele>456.9</ele>
        <time>2013-02-18T15:12:17.000Z</time>
      </trkpt>
      <trkpt lat="43.97145" lon="5.13841">
        <ele>458.3</ele>
        <time>2013-02-18T15:12:18.000Z</time>
      </trkpt>
      <trkpt lat="43.97144" lon="5.13836">
        <ele>457.1</ele>
        <time>2013-02-18T15:12:19.000Z</time>
      </trkpt>
      <trkpt lat="43.97142" lon="5.13832">
        <ele>456.4</ele>
        <time>2013-02-18T15:12:20.000Z</time>
      </trkpt>
      <trkpt lat="43.9714" lon="5.13828">
        <ele>456.4</ele>
        <time>2013-02-18T15:12:21.000Z</time>
      </trkpt>
      <trkpt lat="43.97138" lon="5.13823">
        <ele>456.5</ele>
        <time>2013-02-18T15:12:22.000Z</time>
      </trkpt>
      <trkpt lat="43.97135" lon="5.13819">
        <ele>456.8</ele>
        <time>2013-02-18T15:12:23.000Z</time>
      </trkpt>
      <trkpt lat="43.97133" lon="5.13815">
        <ele>457.2</ele>
        <time>2013-02-18T15:12:24.000Z</time>
      </trkpt>
      <trkpt lat="43.97131" lon="5.13811">
        <ele>457.4</ele>
        <time>2013-02-18T15:12:25.000Z</time>
      </trkpt>
      <trkpt lat="43.97129" lon="5.13806">
        <ele>456.2</ele>
        <time>2013-02-18T15:12:26.000Z</time>
      </trkpt>
      <trkpt lat="43.97127" lon="5.13802">
        <ele>456.2</ele>
        <time>2013-02-18T15:12:27.000Z</time>
      </trkpt>
      <trkpt lat="43.97126" lon="5.138">
        <ele>456.4</ele>
        <time>2013-02-18T15:12:28.000Z</time>
      </trkpt>
      <trkpt lat="43.97124" lon="5.13797">
        <ele>456.7</ele>
        <time>2013-02-18T15:12:29.000Z</time>
      </trkpt>
      <trkpt lat="43.97122" lon="5.13795">
        <ele>457.1</ele>
        <time>2013-02-18T15:12:30.000Z</time>
      </trkpt>
      <trkpt lat="43.9712" lon="5.13791">
        <ele>457.1</ele>
        <time>2013-02-18T15:12:31.000Z</time>
      </trkpt>
      <trkpt lat="43.97118" lon="5.13786">
        <ele>456.5</ele>
        <time>2013-02-18T15:12:32.000Z</time>
      </trkpt>
      <trkpt lat="43.97118" lon="5.13783">
        <ele>453.9</ele>
        <time>2013-02-18T15:12:33.000Z</time>
      </trkpt>
      <trkpt lat="43.97117" lon="5.13779">
        <ele>452.4</ele>
        <time>2013-02-18T15:12:34.000Z</time>
      </trkpt>
      <trkpt lat="43.97116" lon="5.13777">
        <ele>451.5</ele>
        <time>2013-02-18T15:12:35.000Z</time>
      </trkpt>
      <trkpt lat="43.97116" lon="5.13774">
        <ele>450.1</ele>
        <time>2013-02-18T15:12:36.000Z</time>
      </trkpt>
      <trkpt lat="43.97118" lon="5.1377">
        <ele>449.1</ele>
        <time>2013-02-18T15:12:37.000Z</time>
      </trkpt>
      <trkpt lat="43.97121" lon="5.13766">
        <ele>447.6</ele>
        <time>2013-02-18T15:12:39.000Z</time>
      </trkpt>
      <trkpt lat="43.97123" lon="5.13764">
        <ele>446.6</ele>
        <time>2013-02-18T15:12:40.000Z</time>
      </trkpt>
      <trkpt lat="43.97121" lon="5.13758">
        <ele>446</ele>
        <time>2013-02-18T15:12:44.000Z</time>
      </trkpt>
      <trkpt lat="43.9712" lon="5.13758">
        <ele>446</ele>
        <time>2013-02-18T15:12:45.000Z</time>
      </trkpt>
      <trkpt lat="43.97117" lon="5.13761">
        <ele>446.9</ele>
        <time>2013-02-18T15:12:59.000Z</time>
      </trkpt>
      <trkpt lat="43.97115" lon="5.1376">
        <ele>447</ele>
        <time>2013-02-18T15:13:00.000Z</time>
      </trkpt>
      <trkpt lat="43.97113" lon="5.13763">
        <ele>448.6</ele>
        <time>2013-02-18T15:13:03.000Z</time>
      </trkpt>
      <trkpt lat="43.9711" lon="5.13764">
        <ele>449.3</ele>
        <time>2013-02-18T15:13:04.000Z</time>
      </trkpt>
      <trkpt lat="43.97107" lon="5.13767">
        <ele>448.7</ele>
        <time>2013-02-18T15:13:05.000Z</time>
      </trkpt>
      <trkpt lat="43.97104" lon="5.13769">
        <ele>448.9</ele>
        <time>2013-02-18T15:13:06.000Z</time>
      </trkpt>
      <trkpt lat="43.97102" lon="5.1377">
        <ele>448.9</ele>
        <time>2013-02-18T15:13:07.000Z</time>
      </trkpt>
      <trkpt lat="43.97099" lon="5.13771">
        <ele>449.1</ele>
        <time>2013-02-18T15:13:08.000Z</time>
      </trkpt>
      <trkpt lat="43.97096" lon="5.13772">
        <ele>449.6</ele>
        <time>2013-02-18T15:13:09.000Z</time>
      </trkpt>
      <trkpt lat="43.97094" lon="5.13774">
        <ele>450.1</ele>
        <time>2013-02-18T15:13:10.000Z</time>
      </trkpt>
      <trkpt lat="43.9709" lon="5.13773">
        <ele>449.1</ele>
        <time>2013-02-18T15:13:11.000Z</time>
      </trkpt>
      <trkpt lat="43.97087" lon="5.13773">
        <ele>449</ele>
        <time>2013-02-18T15:13:12.000Z</time>
      </trkpt>
      <trkpt lat="43.97085" lon="5.13776">
        <ele>449.1</ele>
        <time>2013-02-18T15:13:13.000Z</time>
      </trkpt>
      <trkpt lat="43.97082" lon="5.13777">
        <ele>449.3</ele>
        <time>2013-02-18T15:13:14.000Z</time>
      </trkpt>
      <trkpt lat="43.97079" lon="5.13778">
        <ele>449.1</ele>
        <time>2013-02-18T15:13:15.000Z</time>
      </trkpt>
      <trkpt lat="43.97077" lon="5.1378">
        <ele>448.8</ele>
        <time>2013-02-18T15:13:16.000Z</time>
      </trkpt>
      <trkpt lat="43.97074" lon="5.13781">
        <ele>447.7</ele>
        <time>2013-02-18T15:13:17.000Z</time>
      </trkpt>
      <trkpt lat="43.97071" lon="5.13783">
        <ele>447.5</ele>
        <time>2013-02-18T15:13:18.000Z</time>
      </trkpt>
      <trkpt lat="43.97068" lon="5.13784">
        <ele>447.3</ele>
        <time>2013-02-18T15:13:19.000Z</time>
      </trkpt>
      <trkpt lat="43.97064" lon="5.13783">
        <ele>448.5</ele>
        <time>2013-02-18T15:13:20.000Z</time>
      </trkpt>
      <trkpt lat="43.97061" lon="5.13785">
        <ele>448</ele>
        <time>2013-02-18T15:13:21.000Z</time>
      </trkpt>
      <trkpt lat="43.97058" lon="5.13786">
        <ele>447.7</ele>
        <time>2013-02-18T15:13:22.000Z</time>
      </trkpt>
      <trkpt lat="43.97055" lon="5.13787">
        <ele>447.4</ele>
        <time>2013-02-18T15:13:23.000Z</time>
      </trkpt>
      <trkpt lat="43.97052" lon="5.13786">
        <ele>447.1</ele>
        <time>2013-02-18T15:13:24.000Z</time>
      </trkpt>
      <trkpt lat="43.97049" lon="5.13787">
        <ele>446.7</ele>
        <time>2013-02-18T15:13:25.000Z</time>
      </trkpt>
      <trkpt lat="43.97046" lon="5.13788">
        <ele>446.6</ele>
        <time>2013-02-18T15:13:26.000Z</time>
      </trkpt>
      <trkpt lat="43.97042" lon="5.13784">
        <ele>443.8</ele>
        <time>2013-02-18T15:13:27.000Z</time>
      </trkpt>
      <trkpt lat="43.97039" lon="5.13784">
        <ele>443.7</ele>
        <time>2013-02-18T15:13:28.000Z</time>
      </trkpt>
      <trkpt lat="43.97035" lon="5.13784">
        <ele>443.4</ele>
        <time>2013-02-18T15:13:29.000Z</time>
      </trkpt>
      <trkpt lat="43.97031" lon="5.13784">
        <ele>443.1</ele>
        <time>2013-02-18T15:13:30.000Z</time>
      </trkpt>
      <trkpt lat="43.97031" lon="5.13784">
        <ele>442.8</ele>
        <time>2013-02-18T15:13:31.000Z</time>
      </trkpt>
      <trkpt lat="43.97028" lon="5.1378">
        <ele>441.2</ele>
        <time>2013-02-18T15:13:33.000Z</time>
      </trkpt>
      <trkpt lat="43.97026" lon="5.13777">
        <ele>440.7</ele>
        <time>2013-02-18T15:13:34.000Z</time>
      </trkpt>
      <trkpt lat="43.97023" lon="5.13775">
        <ele>439.9</ele>
        <time>2013-02-18T15:13:36.000Z</time>
      </trkpt>
      <trkpt lat="43.97021" lon="5.13774">
        <ele>439.4</ele>
        <time>2013-02-18T15:13:37.000Z</time>
      </trkpt>
      <trkpt lat="43.97018" lon="5.13781">
        <ele>438.6</ele>
        <time>2013-02-18T15:13:38.000Z</time>
      </trkpt>
      <trkpt lat="43.97015" lon="5.13782">
        <ele>438.4</ele>
        <time>2013-02-18T15:13:39.000Z</time>
      </trkpt>
      <trkpt lat="43.97012" lon="5.13784">
        <ele>438.2</ele>
        <time>2013-02-18T15:13:40.000Z</time>
      </trkpt>
      <trkpt lat="43.97009" lon="5.13786">
        <ele>437.7</ele>
        <time>2013-02-18T15:13:41.000Z</time>
      </trkpt>
      <trkpt lat="43.97005" lon="5.13787">
        <ele>437.1</ele>
        <time>2013-02-18T15:13:42.000Z</time>
      </trkpt>
      <trkpt lat="43.97" lon="5.13789">
        <ele>436.7</ele>
        <time>2013-02-18T15:13:43.000Z</time>
      </trkpt>
      <trkpt lat="43.96996" lon="5.1379">
        <ele>436.6</ele>
        <time>2013-02-18T15:13:44.000Z</time>
      </trkpt>
      <trkpt lat="43.96991" lon="5.13793">
        <ele>436.5</ele>
        <time>2013-02-18T15:13:45.000Z</time>
      </trkpt>
      <trkpt lat="43.96986" lon="5.13797">
        <ele>436.8</ele>
        <time>2013-02-18T15:13:46.000Z</time>
      </trkpt>
      <trkpt lat="43.96982" lon="5.138">
        <ele>436.6</ele>
        <time>2013-02-18T15:13:47.000Z</time>
      </trkpt>
      <trkpt lat="43.96978" lon="5.13802">
        <ele>436.2</ele>
        <time>2013-02-18T15:13:48.000Z</time>
      </trkpt>
      <trkpt lat="43.96974" lon="5.13805">
        <ele>436.3</ele>
        <time>2013-02-18T15:13:49.000Z</time>
      </trkpt>
      <trkpt lat="43.9697" lon="5.13806">
        <ele>436.6</ele>
        <time>2013-02-18T15:13:50.000Z</time>
      </trkpt>
      <trkpt lat="43.96967" lon="5.13809">
        <ele>438.5</ele>
        <time>2013-02-18T15:13:51.000Z</time>
      </trkpt>
      <trkpt lat="43.96963" lon="5.13819">
        <ele>442.6</ele>
        <time>2013-02-18T15:13:52.000Z</time>
      </trkpt>
      <trkpt lat="43.96959" lon="5.13834">
        <ele>444.2</ele>
        <time>2013-02-18T15:13:53.000Z</time>
      </trkpt>
      <trkpt lat="43.96956" lon="5.13836">
        <ele>445.1</ele>
        <time>2013-02-18T15:13:54.000Z</time>
      </trkpt>
      <trkpt lat="43.96951" lon="5.13837">
        <ele>444.7</ele>
        <time>2013-02-18T15:13:55.000Z</time>
      </trkpt>
      <trkpt lat="43.96946" lon="5.13839">
        <ele>458</ele>
        <time>2013-02-18T15:13:56.000Z</time>
      </trkpt>
      <trkpt lat="43.96944" lon="5.13832">
        <ele>457.8</ele>
        <time>2013-02-18T15:13:57.000Z</time>
      </trkpt>
      <trkpt lat="43.9694" lon="5.13833">
        <ele>464.3</ele>
        <time>2013-02-18T15:13:59.000Z</time>
      </trkpt>
      <trkpt lat="43.96935" lon="5.13829">
        <ele>465.1</ele>
        <time>2013-02-18T15:14:00.000Z</time>
      </trkpt>
      <trkpt lat="43.96932" lon="5.13831">
        <ele>465.3</ele>
        <time>2013-02-18T15:14:02.000Z</time>
      </trkpt>
      <trkpt lat="43.96927" lon="5.13831">
        <ele>463.7</ele>
        <time>2013-02-18T15:14:03.000Z</time>
      </trkpt>
      <trkpt lat="43.96924" lon="5.13832">
        <ele>463.7</ele>
        <time>2013-02-18T15:14:04.000Z</time>
      </trkpt>
      <trkpt lat="43.96919" lon="5.13831">
        <ele>461.3</ele>
        <time>2013-02-18T15:14:05.000Z</time>
      </trkpt>
      <trkpt lat="43.96915" lon="5.13831">
        <ele>460.3</ele>
        <time>2013-02-18T15:14:06.000Z</time>
      </trkpt>
      <trkpt lat="43.96912" lon="5.13831">
        <ele>458.4</ele>
        <time>2013-02-18T15:14:07.000Z</time>
      </trkpt>
      <trkpt lat="43.9691" lon="5.13831">
        <ele>457.1</ele>
        <time>2013-02-18T15:14:08.000Z</time>
      </trkpt>
      <trkpt lat="43.96906" lon="5.13831">
        <ele>456.4</ele>
        <time>2013-02-18T15:14:09.000Z</time>
      </trkpt>
      <trkpt lat="43.96903" lon="5.13833">
        <ele>456.4</ele>
        <time>2013-02-18T15:14:10.000Z</time>
      </trkpt>
      <trkpt lat="43.969" lon="5.13833">
        <ele>456.3</ele>
        <time>2013-02-18T15:14:11.000Z</time>
      </trkpt>
      <trkpt lat="43.96896" lon="5.13835">
        <ele>456.6</ele>
        <time>2013-02-18T15:14:12.000Z</time>
      </trkpt>
      <trkpt lat="43.96894" lon="5.13835">
        <ele>454.4</ele>
        <time>2013-02-18T15:14:13.000Z</time>
      </trkpt>
      <trkpt lat="43.96892" lon="5.13836">
        <ele>454</ele>
        <time>2013-02-18T15:14:14.000Z</time>
      </trkpt>
      <trkpt lat="43.9689" lon="5.13837">
        <ele>453.5</ele>
        <time>2013-02-18T15:14:15.000Z</time>
      </trkpt>
      <trkpt lat="43.96887" lon="5.13839">
        <ele>453</ele>
        <time>2013-02-18T15:14:16.000Z</time>
      </trkpt>
      <trkpt lat="43.96884" lon="5.13841">
        <ele>452.7</ele>
        <time>2013-02-18T15:14:17.000Z</time>
      </trkpt>
      <trkpt lat="43.96881" lon="5.13843">
        <ele>452.6</ele>
        <time>2013-02-18T15:14:18.000Z</time>
      </trkpt>
      <trkpt lat="43.96878" lon="5.13845">
        <ele>453.4</ele>
        <time>2013-02-18T15:14:19.000Z</time>
      </trkpt>
      <trkpt lat="43.96876" lon="5.13845">
        <ele>453.4</ele>
        <time>2013-02-18T15:14:20.000Z</time>
      </trkpt>
      <trkpt lat="43.96873" lon="5.13846">
        <ele>452.5</ele>
        <time>2013-02-18T15:14:21.000Z</time>
      </trkpt>
      <trkpt lat="43.9687" lon="5.13848">
        <ele>452.1</ele>
        <time>2013-02-18T15:14:22.000Z</time>
      </trkpt>
      <trkpt lat="43.96868" lon="5.13849">
        <ele>451.8</ele>
        <time>2013-02-18T15:14:23.000Z</time>
      </trkpt>
      <trkpt lat="43.96865" lon="5.1385">
        <ele>451.3</ele>
        <time>2013-02-18T15:14:24.000Z</time>
      </trkpt>
      <trkpt lat="43.96862" lon="5.13852">
        <ele>450.8</ele>
        <time>2013-02-18T15:14:25.000Z</time>
      </trkpt>
      <trkpt lat="43.9686" lon="5.13853">
        <ele>451</ele>
        <time>2013-02-18T15:14:26.000Z</time>
      </trkpt>
      <trkpt lat="43.96856" lon="5.13854">
        <ele>450.5</ele>
        <time>2013-02-18T15:14:27.000Z</time>
      </trkpt>
      <trkpt lat="43.96853" lon="5.13855">
        <ele>450.3</ele>
        <time>2013-02-18T15:14:28.000Z</time>
      </trkpt>
      <trkpt lat="43.9685" lon="5.13856">
        <ele>450.3</ele>
        <time>2013-02-18T15:14:29.000Z</time>
      </trkpt>
      <trkpt lat="43.96847" lon="5.13857">
        <ele>449.6</ele>
        <time>2013-02-18T15:14:30.000Z</time>
      </trkpt>
      <trkpt lat="43.96842" lon="5.13857">
        <ele>449.2</ele>
        <time>2013-02-18T15:14:31.000Z</time>
      </trkpt>
      <trkpt lat="43.96839" lon="5.13858">
        <ele>448.8</ele>
        <time>2013-02-18T15:14:32.000Z</time>
      </trkpt>
      <trkpt lat="43.96835" lon="5.13858">
        <ele>448.5</ele>
        <time>2013-02-18T15:14:33.000Z</time>
      </trkpt>
      <trkpt lat="43.96832" lon="5.13857">
        <ele>447.9</ele>
        <time>2013-02-18T15:14:34.000Z</time>
      </trkpt>
      <trkpt lat="43.96828" lon="5.13857">
        <ele>447.2</ele>
        <time>2013-02-18T15:14:35.000Z</time>
      </trkpt>
      <trkpt lat="43.96825" lon="5.13857">
        <ele>447.2</ele>
        <time>2013-02-18T15:14:36.000Z</time>
      </trkpt>
      <trkpt lat="43.96821" lon="5.13857">
        <ele>447.2</ele>
        <time>2013-02-18T15:14:37.000Z</time>
      </trkpt>
      <trkpt lat="43.96818" lon="5.13857">
        <ele>447.5</ele>
        <time>2013-02-18T15:14:38.000Z</time>
      </trkpt>
      <trkpt lat="43.96814" lon="5.13857">
        <ele>447.8</ele>
        <time>2013-02-18T15:14:39.000Z</time>
      </trkpt>
      <trkpt lat="43.96809" lon="5.13859">
        <ele>449.3</ele>
        <time>2013-02-18T15:14:40.000Z</time>
      </trkpt>
      <trkpt lat="43.96805" lon="5.13862">
        <ele>452.4</ele>
        <time>2013-02-18T15:14:41.000Z</time>
      </trkpt>
      <trkpt lat="43.96807" lon="5.13869">
        <ele>455.7</ele>
        <time>2013-02-18T15:14:42.000Z</time>
      </trkpt>
      <trkpt lat="43.96805" lon="5.1387">
        <ele>457.5</ele>
        <time>2013-02-18T15:14:44.000Z</time>
      </trkpt>
      <trkpt lat="43.96803" lon="5.1387">
        <ele>457.4</ele>
        <time>2013-02-18T15:14:45.000Z</time>
      </trkpt>
      <trkpt lat="43.968" lon="5.13866">
        <ele>461.9</ele>
        <time>2013-02-18T15:14:47.000Z</time>
      </trkpt>
      <trkpt lat="43.96794" lon="5.13868">
        <ele>460.7</ele>
        <time>2013-02-18T15:14:48.000Z</time>
      </trkpt>
      <trkpt lat="43.96789" lon="5.13867">
        <ele>460.5</ele>
        <time>2013-02-18T15:14:49.000Z</time>
      </trkpt>
      <trkpt lat="43.96786" lon="5.13868">
        <ele>459.9</ele>
        <time>2013-02-18T15:14:50.000Z</time>
      </trkpt>
      <trkpt lat="43.96783" lon="5.13868">
        <ele>459</ele>
        <time>2013-02-18T15:14:51.000Z</time>
      </trkpt>
      <trkpt lat="43.9678" lon="5.13867">
        <ele>457.6</ele>
        <time>2013-02-18T15:14:52.000Z</time>
      </trkpt>
      <trkpt lat="43.96778" lon="5.13866">
        <ele>456.8</ele>
        <time>2013-02-18T15:14:53.000Z</time>
      </trkpt>
      <trkpt lat="43.96775" lon="5.13866">
        <ele>456.4</ele>
        <time>2013-02-18T15:14:54.000Z</time>
      </trkpt>
      <trkpt lat="43.96773" lon="5.13867">
        <ele>455.9</ele>
        <time>2013-02-18T15:14:55.000Z</time>
      </trkpt>
      <trkpt lat="43.96773" lon="5.13861">
        <ele>453.4</ele>
        <time>2013-02-18T15:14:56.000Z</time>
      </trkpt>
      <trkpt lat="43.96771" lon="5.13855">
        <ele>451.1</ele>
        <time>2013-02-18T15:14:57.000Z</time>
      </trkpt>
      <trkpt lat="43.96769" lon="5.13854">
        <ele>450.4</ele>
        <time>2013-02-18T15:14:58.000Z</time>
      </trkpt>
      <trkpt lat="43.96765" lon="5.13853">
        <ele>449.3</ele>
        <time>2013-02-18T15:14:59.000Z</time>
      </trkpt>
      <trkpt lat="43.96762" lon="5.13853">
        <ele>448.3</ele>
        <time>2013-02-18T15:15:00.000Z</time>
      </trkpt>
      <trkpt lat="43.96759" lon="5.13852">
        <ele>447.1</ele>
        <time>2013-02-18T15:15:01.000Z</time>
      </trkpt>
      <trkpt lat="43.96756" lon="5.13852">
        <ele>446.1</ele>
        <time>2013-02-18T15:15:02.000Z</time>
      </trkpt>
      <trkpt lat="43.96754" lon="5.13852">
        <ele>445.1</ele>
        <time>2013-02-18T15:15:03.000Z</time>
      </trkpt>
      <trkpt lat="43.96751" lon="5.13852">
        <ele>444.5</ele>
        <time>2013-02-18T15:15:04.000Z</time>
      </trkpt>
      <trkpt lat="43.96749" lon="5.13852">
        <ele>443.7</ele>
        <time>2013-02-18T15:15:05.000Z</time>
      </trkpt>
      <trkpt lat="43.96746" lon="5.13852">
        <ele>442.9</ele>
        <time>2013-02-18T15:15:06.000Z</time>
      </trkpt>
      <trkpt lat="43.96743" lon="5.13848">
        <ele>442.1</ele>
        <time>2013-02-18T15:15:08.000Z</time>
      </trkpt>
      <trkpt lat="43.96742" lon="5.13846">
        <ele>441.5</ele>
        <time>2013-02-18T15:15:09.000Z</time>
      </trkpt>
      <trkpt lat="43.96738" lon="5.13847">
        <ele>436.9</ele>
        <time>2013-02-18T15:15:11.000Z</time>
      </trkpt>
      <trkpt lat="43.96735" lon="5.13847">
        <ele>435.3</ele>
        <time>2013-02-18T15:15:12.000Z</time>
      </trkpt>
      <trkpt lat="43.96731" lon="5.13847">
        <ele>433.9</ele>
        <time>2013-02-18T15:15:13.000Z</time>
      </trkpt>
      <trkpt lat="43.96728" lon="5.13848">
        <ele>432.4</ele>
        <time>2013-02-18T15:15:14.000Z</time>
      </trkpt>
      <trkpt lat="43.96725" lon="5.13848">
        <ele>431.9</ele>
        <time>2013-02-18T15:15:15.000Z</time>
      </trkpt>
      <trkpt lat="43.96721" lon="5.13851">
        <ele>431.7</ele>
        <time>2013-02-18T15:15:16.000Z</time>
      </trkpt>
      <trkpt lat="43.96718" lon="5.13854">
        <ele>431.4</ele>
        <time>2013-02-18T15:15:17.000Z</time>
      </trkpt>
      <trkpt lat="43.96715" lon="5.13856">
        <ele>431</ele>
        <time>2013-02-18T15:15:18.000Z</time>
      </trkpt>
      <trkpt lat="43.96712" lon="5.13859">
        <ele>430.2</ele>
        <time>2013-02-18T15:15:19.000Z</time>
      </trkpt>
      <trkpt lat="43.96707" lon="5.1386">
        <ele>429.4</ele>
        <time>2013-02-18T15:15:20.000Z</time>
      </trkpt>
      <trkpt lat="43.96703" lon="5.13862">
        <ele>428.6</ele>
        <time>2013-02-18T15:15:21.000Z</time>
      </trkpt>
      <trkpt lat="43.96698" lon="5.13863">
        <ele>427.6</ele>
        <time>2013-02-18T15:15:22.000Z</time>
      </trkpt>
      <trkpt lat="43.96694" lon="5.13865">
        <ele>426.9</ele>
        <time>2013-02-18T15:15:23.000Z</time>
      </trkpt>
      <trkpt lat="43.96688" lon="5.13866">
        <ele>426.5</ele>
        <time>2013-02-18T15:15:24.000Z</time>
      </trkpt>
      <trkpt lat="43.96683" lon="5.13867">
        <ele>426.2</ele>
        <time>2013-02-18T15:15:25.000Z</time>
      </trkpt>
      <trkpt lat="43.96678" lon="5.13867">
        <ele>425.9</ele>
        <time>2013-02-18T15:15:26.000Z</time>
      </trkpt>
      <trkpt lat="43.96675" lon="5.13868">
        <ele>426</ele>
        <time>2013-02-18T15:15:27.000Z</time>
      </trkpt>
      <trkpt lat="43.96673" lon="5.13869">
        <ele>425.8</ele>
        <time>2013-02-18T15:15:28.000Z</time>
      </trkpt>
      <trkpt lat="43.96669" lon="5.13868">
        <ele>425.5</ele>
        <time>2013-02-18T15:15:30.000Z</time>
      </trkpt>
      <trkpt lat="43.96666" lon="5.13869">
        <ele>425</ele>
        <time>2013-02-18T15:15:31.000Z</time>
      </trkpt>
      <trkpt lat="43.96663" lon="5.13869">
        <ele>425.2</ele>
        <time>2013-02-18T15:15:32.000Z</time>
      </trkpt>
      <trkpt lat="43.96661" lon="5.13871">
        <ele>424.9</ele>
        <time>2013-02-18T15:15:33.000Z</time>
      </trkpt>
      <trkpt lat="43.96657" lon="5.13871">
        <ele>424.1</ele>
        <time>2013-02-18T15:16:00.000Z</time>
      </trkpt>
      <trkpt lat="43.96655" lon="5.13871">
        <ele>424.3</ele>
        <time>2013-02-18T15:16:01.000Z</time>
      </trkpt>
      <trkpt lat="43.96651" lon="5.13873">
        <ele>424.2</ele>
        <time>2013-02-18T15:16:05.000Z</time>
      </trkpt>
      <trkpt lat="43.96649" lon="5.13873">
        <ele>424.5</ele>
        <time>2013-02-18T15:16:06.000Z</time>
      </trkpt>
      <trkpt lat="43.96645" lon="5.13874">
        <ele>424.5</ele>
        <time>2013-02-18T15:16:08.000Z</time>
      </trkpt>
      <trkpt lat="43.96644" lon="5.13874">
        <ele>424.8</ele>
        <time>2013-02-18T15:16:09.000Z</time>
      </trkpt>
      <trkpt lat="43.9664" lon="5.13875">
        <ele>425</ele>
        <time>2013-02-18T15:16:11.000Z</time>
      </trkpt>
      <trkpt lat="43.96638" lon="5.13875">
        <ele>425.3</ele>
        <time>2013-02-18T15:16:12.000Z</time>
      </trkpt>
      <trkpt lat="43.96634" lon="5.13877">
        <ele>425.3</ele>
        <time>2013-02-18T15:16:14.000Z</time>
      </trkpt>
      <trkpt lat="43.96632" lon="5.13877">
        <ele>425.1</ele>
        <time>2013-02-18T15:16:15.000Z</time>
      </trkpt>
      <trkpt lat="43.96629" lon="5.13878">
        <ele>425.6</ele>
        <time>2013-02-18T15:16:16.000Z</time>
      </trkpt>
      <trkpt lat="43.96627" lon="5.13878">
        <ele>425.7</ele>
        <time>2013-02-18T15:16:17.000Z</time>
      </trkpt>
      <trkpt lat="43.96624" lon="5.13879">
        <ele>426.6</ele>
        <time>2013-02-18T15:16:18.000Z</time>
      </trkpt>
      <trkpt lat="43.96622" lon="5.1388">
        <ele>426.9</ele>
        <time>2013-02-18T15:16:19.000Z</time>
      </trkpt>
      <trkpt lat="43.9662" lon="5.1388">
        <ele>426.9</ele>
        <time>2013-02-18T15:16:20.000Z</time>
      </trkpt>
      <trkpt lat="43.96617" lon="5.13881">
        <ele>427</ele>
        <time>2013-02-18T15:16:21.000Z</time>
      </trkpt>
      <trkpt lat="43.96613" lon="5.13883">
        <ele>427.1</ele>
        <time>2013-02-18T15:16:23.000Z</time>
      </trkpt>
      <trkpt lat="43.96611" lon="5.13884">
        <ele>427.1</ele>
        <time>2013-02-18T15:16:24.000Z</time>
      </trkpt>
      <trkpt lat="43.96608" lon="5.13885">
        <ele>426.8</ele>
        <time>2013-02-18T15:16:25.000Z</time>
      </trkpt>
      <trkpt lat="43.96606" lon="5.13886">
        <ele>426.4</ele>
        <time>2013-02-18T15:16:26.000Z</time>
      </trkpt>
      <trkpt lat="43.96603" lon="5.13887">
        <ele>426</ele>
        <time>2013-02-18T15:16:27.000Z</time>
      </trkpt>
      <trkpt lat="43.96601" lon="5.13889">
        <ele>425.4</ele>
        <time>2013-02-18T15:16:28.000Z</time>
      </trkpt>
      <trkpt lat="43.96598" lon="5.1389">
        <ele>424.8</ele>
        <time>2013-02-18T15:16:29.000Z</time>
      </trkpt>
      <trkpt lat="43.96594" lon="5.13892">
        <ele>423.8</ele>
        <time>2013-02-18T15:16:30.000Z</time>
      </trkpt>
      <trkpt lat="43.96587" lon="5.13895">
        <ele>424.4</ele>
        <time>2013-02-18T15:16:31.000Z</time>
      </trkpt>
      <trkpt lat="43.96582" lon="5.13898">
        <ele>423.8</ele>
        <time>2013-02-18T15:16:32.000Z</time>
      </trkpt>
      <trkpt lat="43.96578" lon="5.139">
        <ele>424</ele>
        <time>2013-02-18T15:16:33.000Z</time>
      </trkpt>
      <trkpt lat="43.96574" lon="5.13902">
        <ele>423.7</ele>
        <time>2013-02-18T15:16:34.000Z</time>
      </trkpt>
      <trkpt lat="43.9657" lon="5.13904">
        <ele>423.4</ele>
        <time>2013-02-18T15:16:35.000Z</time>
      </trkpt>
      <trkpt lat="43.96566" lon="5.13907">
        <ele>423.6</ele>
        <time>2013-02-18T15:16:36.000Z</time>
      </trkpt>
      <trkpt lat="43.96564" lon="5.13911">
        <ele>423.6</ele>
        <time>2013-02-18T15:16:37.000Z</time>
      </trkpt>
      <trkpt lat="43.96561" lon="5.13913">
        <ele>423.7</ele>
        <time>2013-02-18T15:16:38.000Z</time>
      </trkpt>
      <trkpt lat="43.96559" lon="5.13916">
        <ele>423.8</ele>
        <time>2013-02-18T15:16:39.000Z</time>
      </trkpt>
      <trkpt lat="43.96557" lon="5.1392">
        <ele>422.6</ele>
        <time>2013-02-18T15:16:41.000Z</time>
      </trkpt>
      <trkpt lat="43.96556" lon="5.13922">
        <ele>423.2</ele>
        <time>2013-02-18T15:16:42.000Z</time>
      </trkpt>
      <trkpt lat="43.96554" lon="5.13924">
        <ele>423.3</ele>
        <time>2013-02-18T15:16:43.000Z</time>
      </trkpt>
      <trkpt lat="43.96552" lon="5.13926">
        <ele>423.1</ele>
        <time>2013-02-18T15:16:44.000Z</time>
      </trkpt>
      <trkpt lat="43.96549" lon="5.13929">
        <ele>422.8</ele>
        <time>2013-02-18T15:16:45.000Z</time>
      </trkpt>
      <trkpt lat="43.96544" lon="5.13931">
        <ele>422.7</ele>
        <time>2013-02-18T15:16:46.000Z</time>
      </trkpt>
      <trkpt lat="43.9654" lon="5.13932">
        <ele>423</ele>
        <time>2013-02-18T15:16:47.000Z</time>
      </trkpt>
      <trkpt lat="43.96536" lon="5.13934">
        <ele>423.3</ele>
        <time>2013-02-18T15:16:48.000Z</time>
      </trkpt>
      <trkpt lat="43.96534" lon="5.13937">
        <ele>423.8</ele>
        <time>2013-02-18T15:16:49.000Z</time>
      </trkpt>
      <trkpt lat="43.96531" lon="5.13937">
        <ele>423.7</ele>
        <time>2013-02-18T15:16:50.000Z</time>
      </trkpt>
      <trkpt lat="43.96529" lon="5.13939">
        <ele>423.5</ele>
        <time>2013-02-18T15:16:51.000Z</time>
      </trkpt>
      <trkpt lat="43.96526" lon="5.1394">
        <ele>422.8</ele>
        <time>2013-02-18T15:16:53.000Z</time>
      </trkpt>
      <trkpt lat="43.96524" lon="5.13941">
        <ele>422.7</ele>
        <time>2013-02-18T15:16:54.000Z</time>
      </trkpt>
      <trkpt lat="43.96522" lon="5.13945">
        <ele>422.1</ele>
        <time>2013-02-18T15:16:56.000Z</time>
      </trkpt>
      <trkpt lat="43.96519" lon="5.13948">
        <ele>422.3</ele>
        <time>2013-02-18T15:16:57.000Z</time>
      </trkpt>
      <trkpt lat="43.9652" lon="5.13951">
        <ele>422.1</ele>
        <time>2013-02-18T15:16:59.000Z</time>
      </trkpt>
      <trkpt lat="43.96523" lon="5.13954">
        <ele>421.9</ele>
        <time>2013-02-18T15:17:00.000Z</time>
      </trkpt>
      <trkpt lat="43.96523" lon="5.13958">
        <ele>421.9</ele>
        <time>2013-02-18T15:17:02.000Z</time>
      </trkpt>
      <trkpt lat="43.96522" lon="5.13962">
        <ele>421.9</ele>
        <time>2013-02-18T15:17:03.000Z</time>
      </trkpt>
      <trkpt lat="43.96522" lon="5.13965">
        <ele>421.9</ele>
        <time>2013-02-18T15:17:04.000Z</time>
      </trkpt>
      <trkpt lat="43.96522" lon="5.13968">
        <ele>422.1</ele>
        <time>2013-02-18T15:17:05.000Z</time>
      </trkpt>
      <trkpt lat="43.96527" lon="5.13968">
        <ele>423.9</ele>
        <time>2013-02-18T15:17:06.000Z</time>
      </trkpt>
      <trkpt lat="43.96529" lon="5.13972">
        <ele>423.7</ele>
        <time>2013-02-18T15:17:09.000Z</time>
      </trkpt>
      <trkpt lat="43.96529" lon="5.13975">
        <ele>423.9</ele>
        <time>2013-02-18T15:17:10.000Z</time>
      </trkpt>
      <trkpt lat="43.96527" lon="5.13977">
        <ele>423.9</ele>
        <time>2013-02-18T15:17:11.000Z</time>
      </trkpt>
      <trkpt lat="43.96525" lon="5.1398">
        <ele>424.1</ele>
        <time>2013-02-18T15:17:12.000Z</time>
      </trkpt>
      <trkpt lat="43.96524" lon="5.13983">
        <ele>424</ele>
        <time>2013-02-18T15:17:13.000Z</time>
      </trkpt>
      <trkpt lat="43.96522" lon="5.13985">
        <ele>424</ele>
        <time>2013-02-18T15:17:14.000Z</time>
      </trkpt>
      <trkpt lat="43.96521" lon="5.13987">
        <ele>424.3</ele>
        <time>2013-02-18T15:17:16.000Z</time>
      </trkpt>
      <trkpt lat="43.96518" lon="5.1399">
        <ele>424.4</ele>
        <time>2013-02-18T15:17:17.000Z</time>
      </trkpt>
      <trkpt lat="43.96522" lon="5.13991">
        <ele>426</ele>
        <time>2013-02-18T15:17:18.000Z</time>
      </trkpt>
      <trkpt lat="43.96522" lon="5.13994">
        <ele>425.9</ele>
        <time>2013-02-18T15:17:19.000Z</time>
      </trkpt>
      <trkpt lat="43.96524" lon="5.13999">
        <ele>428.2</ele>
        <time>2013-02-18T15:17:22.000Z</time>
      </trkpt>
      <trkpt lat="43.96523" lon="5.14001">
        <ele>428.4</ele>
        <time>2013-02-18T15:17:23.000Z</time>
      </trkpt>
      <trkpt lat="43.96521" lon="5.14007">
        <ele>430.4</ele>
        <time>2013-02-18T15:17:26.000Z</time>
      </trkpt>
      <trkpt lat="43.96518" lon="5.14009">
        <ele>430.9</ele>
        <time>2013-02-18T15:17:27.000Z</time>
      </trkpt>
      <trkpt lat="43.96519" lon="5.14013">
        <ele>434.7</ele>
        <time>2013-02-18T15:17:29.000Z</time>
      </trkpt>
      <trkpt lat="43.96517" lon="5.14015">
        <ele>432.9</ele>
        <time>2013-02-18T15:17:30.000Z</time>
      </trkpt>
      <trkpt lat="43.96517" lon="5.14021">
        <ele>435.2</ele>
        <time>2013-02-18T15:17:34.000Z</time>
      </trkpt>
      <trkpt lat="43.96516" lon="5.14023">
        <ele>435.7</ele>
        <time>2013-02-18T15:17:35.000Z</time>
      </trkpt>
      <trkpt lat="43.96514" lon="5.14028">
        <ele>435.9</ele>
        <time>2013-02-18T15:17:38.000Z</time>
      </trkpt>
      <trkpt lat="43.96512" lon="5.1403">
        <ele>436.7</ele>
        <time>2013-02-18T15:17:39.000Z</time>
      </trkpt>
      <trkpt lat="43.96512" lon="5.14032">
        <ele>437</ele>
        <time>2013-02-18T15:17:40.000Z</time>
      </trkpt>
      <trkpt lat="43.9651" lon="5.14035">
        <ele>437.4</ele>
        <time>2013-02-18T15:17:41.000Z</time>
      </trkpt>
      <trkpt lat="43.96511" lon="5.14039">
        <ele>438.8</ele>
        <time>2013-02-18T15:17:43.000Z</time>
      </trkpt>
      <trkpt lat="43.96514" lon="5.1404">
        <ele>439.1</ele>
        <time>2013-02-18T15:17:44.000Z</time>
      </trkpt>
      <trkpt lat="43.96512" lon="5.14044">
        <ele>439.5</ele>
        <time>2013-02-18T15:17:46.000Z</time>
      </trkpt>
      <trkpt lat="43.96513" lon="5.14047">
        <ele>440.9</ele>
        <time>2013-02-18T15:17:47.000Z</time>
      </trkpt>
      <trkpt lat="43.96512" lon="5.14051">
        <ele>442.9</ele>
        <time>2013-02-18T15:17:49.000Z</time>
      </trkpt>
      <trkpt lat="43.96512" lon="5.14054">
        <ele>443.5</ele>
        <time>2013-02-18T15:17:50.000Z</time>
      </trkpt>
      <trkpt lat="43.9651" lon="5.14059">
        <ele>443.5</ele>
        <time>2013-02-18T15:17:53.000Z</time>
      </trkpt>
      <trkpt lat="43.96509" lon="5.14063">
        <ele>443.6</ele>
        <time>2013-02-18T15:17:54.000Z</time>
      </trkpt>
      <trkpt lat="43.96508" lon="5.14068">
        <ele>444.6</ele>
        <time>2013-02-18T15:17:56.000Z</time>
      </trkpt>
      <trkpt lat="43.96507" lon="5.1407">
        <ele>445.1</ele>
        <time>2013-02-18T15:17:57.000Z</time>
      </trkpt>
      <trkpt lat="43.96504" lon="5.14073">
        <ele>443.4</ele>
        <time>2013-02-18T15:17:58.000Z</time>
      </trkpt>
      <trkpt lat="43.96504" lon="5.14075">
        <ele>443.8</ele>
        <time>2013-02-18T15:17:59.000Z</time>
      </trkpt>
      <trkpt lat="43.96502" lon="5.1408">
        <ele>444</ele>
        <time>2013-02-18T15:18:01.000Z</time>
      </trkpt>
      <trkpt lat="43.96501" lon="5.14082">
        <ele>443.9</ele>
        <time>2013-02-18T15:18:02.000Z</time>
      </trkpt>
      <trkpt lat="43.96499" lon="5.14087">
        <ele>444.6</ele>
        <time>2013-02-18T15:18:04.000Z</time>
      </trkpt>
      <trkpt lat="43.96499" lon="5.14089">
        <ele>445.2</ele>
        <time>2013-02-18T15:18:05.000Z</time>
      </trkpt>
      <trkpt lat="43.96497" lon="5.14094">
        <ele>445.5</ele>
        <time>2013-02-18T15:18:07.000Z</time>
      </trkpt>
      <trkpt lat="43.96496" lon="5.14096">
        <ele>445.7</ele>
        <time>2013-02-18T15:18:08.000Z</time>
      </trkpt>
      <trkpt lat="43.96493" lon="5.141">
        <ele>445.9</ele>
        <time>2013-02-18T15:18:10.000Z</time>
      </trkpt>
      <trkpt lat="43.96491" lon="5.14103">
        <ele>445.2</ele>
        <time>2013-02-18T15:18:11.000Z</time>
      </trkpt>
      <trkpt lat="43.9649" lon="5.14107">
        <ele>446</ele>
        <time>2013-02-18T15:18:13.000Z</time>
      </trkpt>
      <trkpt lat="43.96489" lon="5.14108">
        <ele>446.6</ele>
        <time>2013-02-18T15:18:14.000Z</time>
      </trkpt>
      <trkpt lat="43.96486" lon="5.1411">
        <ele>445.3</ele>
        <time>2013-02-18T15:18:15.000Z</time>
      </trkpt>
      <trkpt lat="43.96483" lon="5.14112">
        <ele>444.3</ele>
        <time>2013-02-18T15:18:16.000Z</time>
      </trkpt>
      <trkpt lat="43.96482" lon="5.14117">
        <ele>445.3</ele>
        <time>2013-02-18T15:18:18.000Z</time>
      </trkpt>
      <trkpt lat="43.96481" lon="5.14118">
        <ele>445.7</ele>
        <time>2013-02-18T15:18:19.000Z</time>
      </trkpt>
      <trkpt lat="43.96479" lon="5.14122">
        <ele>446.4</ele>
        <time>2013-02-18T15:18:21.000Z</time>
      </trkpt>
      <trkpt lat="43.96477" lon="5.14124">
        <ele>446.8</ele>
        <time>2013-02-18T15:18:22.000Z</time>
      </trkpt>
      <trkpt lat="43.96474" lon="5.14128">
        <ele>445.1</ele>
        <time>2013-02-18T15:18:24.000Z</time>
      </trkpt>
      <trkpt lat="43.96473" lon="5.14129">
        <ele>445.1</ele>
        <time>2013-02-18T15:18:25.000Z</time>
      </trkpt>
      <trkpt lat="43.9647" lon="5.14133">
        <ele>445</ele>
        <time>2013-02-18T15:18:27.000Z</time>
      </trkpt>
      <trkpt lat="43.96469" lon="5.14135">
        <ele>445.3</ele>
        <time>2013-02-18T15:18:28.000Z</time>
      </trkpt>
      <trkpt lat="43.96467" lon="5.14139">
        <ele>445.1</ele>
        <time>2013-02-18T15:18:30.000Z</time>
      </trkpt>
      <trkpt lat="43.96465" lon="5.14141">
        <ele>444.2</ele>
        <time>2013-02-18T15:18:31.000Z</time>
      </trkpt>
      <trkpt lat="43.96462" lon="5.14144">
        <ele>444.1</ele>
        <time>2013-02-18T15:18:33.000Z</time>
      </trkpt>
      <trkpt lat="43.96461" lon="5.14147">
        <ele>443.8</ele>
        <time>2013-02-18T15:18:34.000Z</time>
      </trkpt>
      <trkpt lat="43.96458" lon="5.1415">
        <ele>443.5</ele>
        <time>2013-02-18T15:18:36.000Z</time>
      </trkpt>
      <trkpt lat="43.96457" lon="5.14152">
        <ele>443.6</ele>
        <time>2013-02-18T15:18:37.000Z</time>
      </trkpt>
      <trkpt lat="43.96455" lon="5.14155">
        <ele>444.5</ele>
        <time>2013-02-18T15:18:39.000Z</time>
      </trkpt>
      <trkpt lat="43.96453" lon="5.14157">
        <ele>444.3</ele>
        <time>2013-02-18T15:18:40.000Z</time>
      </trkpt>
      <trkpt lat="43.96451" lon="5.1416">
        <ele>444.6</ele>
        <time>2013-02-18T15:18:42.000Z</time>
      </trkpt>
      <trkpt lat="43.96449" lon="5.14162">
        <ele>444.4</ele>
        <time>2013-02-18T15:18:43.000Z</time>
      </trkpt>
      <trkpt lat="43.96446" lon="5.14165">
        <ele>444.1</ele>
        <time>2013-02-18T15:18:45.000Z</time>
      </trkpt>
      <trkpt lat="43.96445" lon="5.14167">
        <ele>444.2</ele>
        <time>2013-02-18T15:18:46.000Z</time>
      </trkpt>
      <trkpt lat="43.96442" lon="5.14171">
        <ele>444.3</ele>
        <time>2013-02-18T15:18:49.000Z</time>
      </trkpt>
      <trkpt lat="43.96441" lon="5.14172">
        <ele>443.9</ele>
        <time>2013-02-18T15:18:50.000Z</time>
      </trkpt>
      <trkpt lat="43.96438" lon="5.14175">
        <ele>442.9</ele>
        <time>2013-02-18T15:18:53.000Z</time>
      </trkpt>
      <trkpt lat="43.96437" lon="5.14177">
        <ele>443.1</ele>
        <time>2013-02-18T15:18:54.000Z</time>
      </trkpt>
      <trkpt lat="43.96434" lon="5.14182">
        <ele>443.3</ele>
        <time>2013-02-18T15:18:56.000Z</time>
      </trkpt>
      <trkpt lat="43.96434" lon="5.14185">
        <ele>443.2</ele>
        <time>2013-02-18T15:18:57.000Z</time>
      </trkpt>
      <trkpt lat="43.96439" lon="5.14186">
        <ele>447</ele>
        <time>2013-02-18T15:18:58.000Z</time>
      </trkpt>
      <trkpt lat="43.9644" lon="5.14192">
        <ele>450</ele>
        <time>2013-02-18T15:19:01.000Z</time>
      </trkpt>
      <trkpt lat="43.9644" lon="5.14193">
        <ele>450.2</ele>
        <time>2013-02-18T15:19:02.000Z</time>
      </trkpt>
      <trkpt lat="43.96441" lon="5.14197">
        <ele>450.7</ele>
        <time>2013-02-18T15:19:04.000Z</time>
      </trkpt>
      <trkpt lat="43.96442" lon="5.142">
        <ele>450.7</ele>
        <time>2013-02-18T15:19:06.000Z</time>
      </trkpt>
      <trkpt lat="43.96439" lon="5.14205">
        <ele>452.7</ele>
        <time>2013-02-18T15:19:08.000Z</time>
      </trkpt>
      <trkpt lat="43.96438" lon="5.14205">
        <ele>451.9</ele>
        <time>2013-02-18T15:19:09.000Z</time>
      </trkpt>
      <trkpt lat="43.96438" lon="5.14211">
        <ele>452.6</ele>
        <time>2013-02-18T15:19:13.000Z</time>
      </trkpt>
      <trkpt lat="43.96437" lon="5.14212">
        <ele>452.5</ele>
        <time>2013-02-18T15:19:14.000Z</time>
      </trkpt>
      <trkpt lat="43.9644" lon="5.14216">
        <ele>454.8</ele>
        <time>2013-02-18T15:19:20.000Z</time>
      </trkpt>
      <trkpt lat="43.9644" lon="5.14216">
        <ele>454.8</ele>
        <time>2013-02-18T15:19:21.000Z</time>
      </trkpt>
      <trkpt lat="43.9644" lon="5.14222">
        <ele>459.1</ele>
        <time>2013-02-18T15:19:33.000Z</time>
      </trkpt>
      <trkpt lat="43.96439" lon="5.14223">
        <ele>459.5</ele>
        <time>2013-02-18T15:19:34.000Z</time>
      </trkpt>
      <trkpt lat="43.96439" lon="5.14228">
        <ele>457.7</ele>
        <time>2013-02-18T15:19:45.000Z</time>
      </trkpt>
      <trkpt lat="43.96438" lon="5.14229">
        <ele>457.7</ele>
        <time>2013-02-18T15:19:46.000Z</time>
      </trkpt>
      <trkpt lat="43.96438" lon="5.14235">
        <ele>459.4</ele>
        <time>2013-02-18T15:19:52.000Z</time>
      </trkpt>
      <trkpt lat="43.96437" lon="5.14236">
        <ele>459.4</ele>
        <time>2013-02-18T15:19:53.000Z</time>
      </trkpt>
      <trkpt lat="43.96436" lon="5.14242">
        <ele>458.7</ele>
        <time>2013-02-18T15:19:58.000Z</time>
      </trkpt>
      <trkpt lat="43.96437" lon="5.14243">
        <ele>458.6</ele>
        <time>2013-02-18T15:19:59.000Z</time>
      </trkpt>
      <trkpt lat="43.96436" lon="5.14249">
        <ele>459.1</ele>
        <time>2013-02-18T15:20:01.000Z</time>
      </trkpt>
      <trkpt lat="43.96436" lon="5.1425">
        <ele>460</ele>
        <time>2013-02-18T15:20:02.000Z</time>
      </trkpt>
      <trkpt lat="43.96435" lon="5.14256">
        <ele>459.7</ele>
        <time>2013-02-18T15:20:06.000Z</time>
      </trkpt>
      <trkpt lat="43.96436" lon="5.14257">
        <ele>460.2</ele>
        <time>2013-02-18T15:20:07.000Z</time>
      </trkpt>
      <trkpt lat="43.96435" lon="5.14263">
        <ele>461.3</ele>
        <time>2013-02-18T15:20:12.000Z</time>
      </trkpt>
      <trkpt lat="43.96435" lon="5.14264">
        <ele>461.6</ele>
        <time>2013-02-18T15:20:13.000Z</time>
      </trkpt>
      <trkpt lat="43.96435" lon="5.1427">
        <ele>462.4</ele>
        <time>2013-02-18T15:20:19.000Z</time>
      </trkpt>
      <trkpt lat="43.96435" lon="5.14271">
        <ele>463</ele>
        <time>2013-02-18T15:20:20.000Z</time>
      </trkpt>
      <trkpt lat="43.96433" lon="5.14276">
        <ele>465.1</ele>
        <time>2013-02-18T15:20:24.000Z</time>
      </trkpt>
      <trkpt lat="43.96433" lon="5.14278">
        <ele>464.3</ele>
        <time>2013-02-18T15:20:25.000Z</time>
      </trkpt>
      <trkpt lat="43.96435" lon="5.14284">
        <ele>464.4</ele>
        <time>2013-02-18T15:20:30.000Z</time>
      </trkpt>
      <trkpt lat="43.96435" lon="5.14285">
        <ele>464.4</ele>
        <time>2013-02-18T15:20:31.000Z</time>
      </trkpt>
      <trkpt lat="43.96434" lon="5.14291">
        <ele>465.7</ele>
        <time>2013-02-18T15:20:36.000Z</time>
      </trkpt>
      <trkpt lat="43.96434" lon="5.14293">
        <ele>465.2</ele>
        <time>2013-02-18T15:20:37.000Z</time>
      </trkpt>
      <trkpt lat="43.96432" lon="5.14299">
        <ele>465.7</ele>
        <time>2013-02-18T15:20:42.000Z</time>
      </trkpt>
      <trkpt lat="43.96432" lon="5.143">
        <ele>465.2</ele>
        <time>2013-02-18T15:20:43.000Z</time>
      </trkpt>
      <trkpt lat="43.96433" lon="5.14304">
        <ele>467.1</ele>
        <time>2013-02-18T15:20:46.000Z</time>
      </trkpt>
      <trkpt lat="43.96433" lon="5.14306">
        <ele>467.9</ele>
        <time>2013-02-18T15:20:47.000Z</time>
      </trkpt>
      <trkpt lat="43.96433" lon="5.1431">
        <ele>468.4</ele>
        <time>2013-02-18T15:20:51.000Z</time>
      </trkpt>
      <trkpt lat="43.96433" lon="5.14313">
        <ele>468.6</ele>
        <time>2013-02-18T15:20:53.000Z</time>
      </trkpt>
      <trkpt lat="43.96431" lon="5.14318">
        <ele>467.6</ele>
        <time>2013-02-18T15:20:56.000Z</time>
      </trkpt>
      <trkpt lat="43.96431" lon="5.14318">
        <ele>468.8</ele>
        <time>2013-02-18T15:20:57.000Z</time>
      </trkpt>
      <trkpt lat="43.9643" lon="5.14324">
        <ele>470.2</ele>
        <time>2013-02-18T15:21:02.000Z</time>
      </trkpt>
      <trkpt lat="43.96431" lon="5.14325">
        <ele>470.5</ele>
        <time>2013-02-18T15:21:03.000Z</time>
      </trkpt>
      <trkpt lat="43.96431" lon="5.14331">
        <ele>474</ele>
        <time>2013-02-18T15:21:11.000Z</time>
      </trkpt>
      <trkpt lat="43.96427" lon="5.14333">
        <ele>471.1</ele>
        <time>2013-02-18T15:21:12.000Z</time>
      </trkpt>
      <trkpt lat="43.96424" lon="5.14335">
        <ele>469.3</ele>
        <time>2013-02-18T15:21:14.000Z</time>
      </trkpt>
      <trkpt lat="43.96423" lon="5.14336">
        <ele>468.8</ele>
        <time>2013-02-18T15:21:15.000Z</time>
      </trkpt>
      <trkpt lat="43.9642" lon="5.1434">
        <ele>467.9</ele>
        <time>2013-02-18T15:21:24.000Z</time>
      </trkpt>
      <trkpt lat="43.9642" lon="5.14341">
        <ele>468.1</ele>
        <time>2013-02-18T15:21:25.000Z</time>
      </trkpt>
      <trkpt lat="43.96416" lon="5.14344">
        <ele>468.8</ele>
        <time>2013-02-18T15:21:29.000Z</time>
      </trkpt>
      <trkpt lat="43.96416" lon="5.14345">
        <ele>468.9</ele>
        <time>2013-02-18T15:21:30.000Z</time>
      </trkpt>
      <trkpt lat="43.96412" lon="5.14348">
        <ele>463.9</ele>
        <time>2013-02-18T15:22:28.000Z</time>
      </trkpt>
      <trkpt lat="43.96412" lon="5.14349">
        <ele>464</ele>
        <time>2013-02-18T15:22:29.000Z</time>
      </trkpt>
      <trkpt lat="43.96411" lon="5.14354">
        <ele>463</ele>
        <time>2013-02-18T15:22:36.000Z</time>
      </trkpt>
      <trkpt lat="43.96411" lon="5.14355">
        <ele>463.6</ele>
        <time>2013-02-18T15:22:37.000Z</time>
      </trkpt>
      <trkpt lat="43.96409" lon="5.14359">
        <ele>464.4</ele>
        <time>2013-02-18T15:22:40.000Z</time>
      </trkpt>
      <trkpt lat="43.96408" lon="5.1436">
        <ele>464.7</ele>
        <time>2013-02-18T15:22:41.000Z</time>
      </trkpt>
      <trkpt lat="43.96406" lon="5.14365">
        <ele>464.8</ele>
        <time>2013-02-18T15:22:44.000Z</time>
      </trkpt>
      <trkpt lat="43.96405" lon="5.14365">
        <ele>464.5</ele>
        <time>2013-02-18T15:22:45.000Z</time>
      </trkpt>
      <trkpt lat="43.96405" lon="5.14371">
        <ele>463.9</ele>
        <time>2013-02-18T15:22:50.000Z</time>
      </trkpt>
      <trkpt lat="43.96405" lon="5.14374">
        <ele>464.2</ele>
        <time>2013-02-18T15:22:51.000Z</time>
      </trkpt>
      <trkpt lat="43.96405" lon="5.14378">
        <ele>464.6</ele>
        <time>2013-02-18T15:22:55.000Z</time>
      </trkpt>
      <trkpt lat="43.96407" lon="5.1438">
        <ele>464.8</ele>
        <time>2013-02-18T15:22:56.000Z</time>
      </trkpt>
      <trkpt lat="43.96403" lon="5.14381">
        <ele>464.7</ele>
        <time>2013-02-18T15:22:59.000Z</time>
      </trkpt>
      <trkpt lat="43.96402" lon="5.14381">
        <ele>465</ele>
        <time>2013-02-18T15:23:00.000Z</time>
      </trkpt>
      <trkpt lat="43.964" lon="5.14383">
        <ele>464.8</ele>
        <time>2013-02-18T15:23:04.000Z</time>
      </trkpt>
      <trkpt lat="43.96397" lon="5.14382">
        <ele>466.5</ele>
        <time>2013-02-18T15:23:06.000Z</time>
      </trkpt>
      <trkpt lat="43.96393" lon="5.14381">
        <ele>468</ele>
        <time>2013-02-18T15:23:11.000Z</time>
      </trkpt>
      <trkpt lat="43.96393" lon="5.14381">
        <ele>468.5</ele>
        <time>2013-02-18T15:23:12.000Z</time>
      </trkpt>
      <trkpt lat="43.96392" lon="5.14387">
        <ele>471.3</ele>
        <time>2013-02-18T15:23:24.000Z</time>
      </trkpt>
      <trkpt lat="43.96391" lon="5.14388">
        <ele>471.3</ele>
        <time>2013-02-18T15:23:25.000Z</time>
      </trkpt>
      <trkpt lat="43.96389" lon="5.1439">
        <ele>471.7</ele>
        <time>2013-02-18T15:23:27.000Z</time>
      </trkpt>
      <trkpt lat="43.96387" lon="5.14391">
        <ele>471.6</ele>
        <time>2013-02-18T15:23:28.000Z</time>
      </trkpt>
      <trkpt lat="43.96384" lon="5.14395">
        <ele>471.1</ele>
        <time>2013-02-18T15:23:36.000Z</time>
      </trkpt>
      <trkpt lat="43.96383" lon="5.14396">
        <ele>471.3</ele>
        <time>2013-02-18T15:23:37.000Z</time>
      </trkpt>
      <trkpt lat="43.96379" lon="5.14398">
        <ele>472.3</ele>
        <time>2013-02-18T15:23:42.000Z</time>
      </trkpt>
      <trkpt lat="43.96378" lon="5.14398">
        <ele>472.5</ele>
        <time>2013-02-18T15:23:43.000Z</time>
      </trkpt>
      <trkpt lat="43.96375" lon="5.14401">
        <ele>469.6</ele>
        <time>2013-02-18T15:23:46.000Z</time>
      </trkpt>
      <trkpt lat="43.96373" lon="5.14402">
        <ele>469.7</ele>
        <time>2013-02-18T15:23:47.000Z</time>
      </trkpt>
      <trkpt lat="43.96371" lon="5.14406">
        <ele>470.3</ele>
        <time>2013-02-18T15:23:55.000Z</time>
      </trkpt>
      <trkpt lat="43.96371" lon="5.14407">
        <ele>470.9</ele>
        <time>2013-02-18T15:23:56.000Z</time>
      </trkpt>
      <trkpt lat="43.96368" lon="5.14411">
        <ele>473.1</ele>
        <time>2013-02-18T15:24:01.000Z</time>
      </trkpt>
      <trkpt lat="43.96368" lon="5.14412">
        <ele>473.6</ele>
        <time>2013-02-18T15:24:02.000Z</time>
      </trkpt>
      <trkpt lat="43.96366" lon="5.14418">
        <ele>475.1</ele>
        <time>2013-02-18T15:24:08.000Z</time>
      </trkpt>
      <trkpt lat="43.96367" lon="5.1442">
        <ele>475.4</ele>
        <time>2013-02-18T15:24:09.000Z</time>
      </trkpt>
      <trkpt lat="43.96368" lon="5.14426">
        <ele>476.7</ele>
        <time>2013-02-18T15:24:14.000Z</time>
      </trkpt>
      <trkpt lat="43.96369" lon="5.14427">
        <ele>477.7</ele>
        <time>2013-02-18T15:24:15.000Z</time>
      </trkpt>
      <trkpt lat="43.96371" lon="5.14432">
        <ele>478.6</ele>
        <time>2013-02-18T15:24:20.000Z</time>
      </trkpt>
      <trkpt lat="43.96371" lon="5.14433">
        <ele>478.4</ele>
        <time>2013-02-18T15:24:21.000Z</time>
      </trkpt>
      <trkpt lat="43.96368" lon="5.14435">
        <ele>479.9</ele>
        <time>2013-02-18T15:24:22.000Z</time>
      </trkpt>
      <trkpt lat="43.96364" lon="5.14435">
        <ele>478.5</ele>
        <time>2013-02-18T15:24:23.000Z</time>
      </trkpt>
      <trkpt lat="43.96361" lon="5.14439">
        <ele>478.6</ele>
        <time>2013-02-18T15:24:28.000Z</time>
      </trkpt>
      <trkpt lat="43.9636" lon="5.1444">
        <ele>479.1</ele>
        <time>2013-02-18T15:24:29.000Z</time>
      </trkpt>
      <trkpt lat="43.96357" lon="5.14444">
        <ele>478.7</ele>
        <time>2013-02-18T15:24:35.000Z</time>
      </trkpt>
      <trkpt lat="43.96356" lon="5.14444">
        <ele>478.1</ele>
        <time>2013-02-18T15:24:36.000Z</time>
      </trkpt>
      <trkpt lat="43.96354" lon="5.14449">
        <ele>478</ele>
        <time>2013-02-18T15:24:38.000Z</time>
      </trkpt>
      <trkpt lat="43.96353" lon="5.1445">
        <ele>478.3</ele>
        <time>2013-02-18T15:24:39.000Z</time>
      </trkpt>
      <trkpt lat="43.96353" lon="5.14456">
        <ele>480</ele>
        <time>2013-02-18T15:24:53.000Z</time>
      </trkpt>
      <trkpt lat="43.96353" lon="5.14457">
        <ele>480.4</ele>
        <time>2013-02-18T15:24:54.000Z</time>
      </trkpt>
      <trkpt lat="43.96349" lon="5.1446">
        <ele>480</ele>
        <time>2013-02-18T15:24:58.000Z</time>
      </trkpt>
      <trkpt lat="43.96349" lon="5.14461">
        <ele>480.2</ele>
        <time>2013-02-18T15:24:59.000Z</time>
      </trkpt>
      <trkpt lat="43.96345" lon="5.14463">
        <ele>481.3</ele>
        <time>2013-02-18T15:25:03.000Z</time>
      </trkpt>
      <trkpt lat="43.96344" lon="5.14464">
        <ele>481.2</ele>
        <time>2013-02-18T15:25:04.000Z</time>
      </trkpt>
      <trkpt lat="43.9634" lon="5.14466">
        <ele>479.1</ele>
        <time>2013-02-18T15:25:08.000Z</time>
      </trkpt>
      <trkpt lat="43.9634" lon="5.14467">
        <ele>478.3</ele>
        <time>2013-02-18T15:25:09.000Z</time>
      </trkpt>
      <trkpt lat="43.96336" lon="5.14468">
        <ele>477.7</ele>
        <time>2013-02-18T15:25:12.000Z</time>
      </trkpt>
      <trkpt lat="43.96334" lon="5.14469">
        <ele>477.8</ele>
        <time>2013-02-18T15:25:13.000Z</time>
      </trkpt>
      <trkpt lat="43.96331" lon="5.1447">
        <ele>478.1</ele>
        <time>2013-02-18T15:25:17.000Z</time>
      </trkpt>
      <trkpt lat="43.9633" lon="5.1447">
        <ele>478</ele>
        <time>2013-02-18T15:25:18.000Z</time>
      </trkpt>
      <trkpt lat="43.96326" lon="5.1447">
        <ele>476.4</ele>
        <time>2013-02-18T15:25:25.000Z</time>
      </trkpt>
      <trkpt lat="43.96325" lon="5.1447">
        <ele>476</ele>
        <time>2013-02-18T15:25:26.000Z</time>
      </trkpt>
      <trkpt lat="43.96322" lon="5.14473">
        <ele>476</ele>
        <time>2013-02-18T15:25:32.000Z</time>
      </trkpt>
      <trkpt lat="43.96321" lon="5.14473">
        <ele>476.4</ele>
        <time>2013-02-18T15:25:33.000Z</time>
      </trkpt>
      <trkpt lat="43.96322" lon="5.14467">
        <ele>480.7</ele>
        <time>2013-02-18T15:26:23.000Z</time>
      </trkpt>
      <trkpt lat="43.96322" lon="5.14466">
        <ele>481.9</ele>
        <time>2013-02-18T15:26:24.000Z</time>
      </trkpt>
      <trkpt lat="43.96325" lon="5.14464">
        <ele>480.2</ele>
        <time>2013-02-18T15:26:30.000Z</time>
      </trkpt>
      <trkpt lat="43.96327" lon="5.14464">
        <ele>480.7</ele>
        <time>2013-02-18T15:26:31.000Z</time>
      </trkpt>
      <trkpt lat="43.9633" lon="5.14461">
        <ele>480.3</ele>
        <time>2013-02-18T15:26:35.000Z</time>
      </trkpt>
      <trkpt lat="43.96331" lon="5.14461">
        <ele>480.2</ele>
        <time>2013-02-18T15:26:36.000Z</time>
      </trkpt>
      <trkpt lat="43.96335" lon="5.14461">
        <ele>479.4</ele>
        <time>2013-02-18T15:26:39.000Z</time>
      </trkpt>
      <trkpt lat="43.96336" lon="5.1446">
        <ele>479.9</ele>
        <time>2013-02-18T15:26:40.000Z</time>
      </trkpt>
      <trkpt lat="43.96339" lon="5.14458">
        <ele>479.6</ele>
        <time>2013-02-18T15:26:43.000Z</time>
      </trkpt>
      <trkpt lat="43.9634" lon="5.14457">
        <ele>479.6</ele>
        <time>2013-02-18T15:26:44.000Z</time>
      </trkpt>
      <trkpt lat="43.96344" lon="5.14456">
        <ele>480.1</ele>
        <time>2013-02-18T15:26:48.000Z</time>
      </trkpt>
      <trkpt lat="43.96345" lon="5.14456">
        <ele>480</ele>
        <time>2013-02-18T15:26:49.000Z</time>
      </trkpt>
      <trkpt lat="43.96348" lon="5.14452">
        <ele>479.8</ele>
        <time>2013-02-18T15:26:53.000Z</time>
      </trkpt>
      <trkpt lat="43.96349" lon="5.14451">
        <ele>479.9</ele>
        <time>2013-02-18T15:26:54.000Z</time>
      </trkpt>
      <trkpt lat="43.96351" lon="5.14448">
        <ele>479.2</ele>
        <time>2013-02-18T15:26:57.000Z</time>
      </trkpt>
      <trkpt lat="43.96351" lon="5.14445">
        <ele>476.5</ele>
        <time>2013-02-18T15:26:58.000Z</time>
      </trkpt>
      <trkpt lat="43.96353" lon="5.14442">
        <ele>475.7</ele>
        <time>2013-02-18T15:27:04.000Z</time>
      </trkpt>
      <trkpt lat="43.96355" lon="5.14441">
        <ele>476</ele>
        <time>2013-02-18T15:27:06.000Z</time>
      </trkpt>
      <trkpt lat="43.96357" lon="5.14437">
        <ele>476.7</ele>
        <time>2013-02-18T15:27:10.000Z</time>
      </trkpt>
      <trkpt lat="43.96358" lon="5.14437">
        <ele>476.6</ele>
        <time>2013-02-18T15:27:11.000Z</time>
      </trkpt>
      <trkpt lat="43.96361" lon="5.14437">
        <ele>478.1</ele>
        <time>2013-02-18T15:27:15.000Z</time>
      </trkpt>
      <trkpt lat="43.96363" lon="5.14435">
        <ele>478.7</ele>
        <time>2013-02-18T15:27:16.000Z</time>
      </trkpt>
      <trkpt lat="43.96366" lon="5.14432">
        <ele>477.6</ele>
        <time>2013-02-18T15:27:23.000Z</time>
      </trkpt>
      <trkpt lat="43.96366" lon="5.1443">
        <ele>476.7</ele>
        <time>2013-02-18T15:27:24.000Z</time>
      </trkpt>
      <trkpt lat="43.96364" lon="5.14425">
        <ele>477.4</ele>
        <time>2013-02-18T15:27:29.000Z</time>
      </trkpt>
      <trkpt lat="43.96364" lon="5.14424">
        <ele>477.3</ele>
        <time>2013-02-18T15:27:30.000Z</time>
      </trkpt>
      <trkpt lat="43.96364" lon="5.14418">
        <ele>475.7</ele>
        <time>2013-02-18T15:27:34.000Z</time>
      </trkpt>
      <trkpt lat="43.96364" lon="5.14417">
        <ele>475.9</ele>
        <time>2013-02-18T15:27:35.000Z</time>
      </trkpt>
      <trkpt lat="43.96368" lon="5.14418">
        <ele>476.4</ele>
        <time>2013-02-18T15:28:17.000Z</time>
      </trkpt>
      <trkpt lat="43.96369" lon="5.14421">
        <ele>476.4</ele>
        <time>2013-02-18T15:28:18.000Z</time>
      </trkpt>
      <trkpt lat="43.96368" lon="5.14424">
        <ele>476.4</ele>
        <time>2013-02-18T15:28:20.000Z</time>
      </trkpt>
      <trkpt lat="43.96369" lon="5.14427">
        <ele>476.1</ele>
        <time>2013-02-18T15:28:21.000Z</time>
      </trkpt>
      <trkpt lat="43.9637" lon="5.14432">
        <ele>476.9</ele>
        <time>2013-02-18T15:28:24.000Z</time>
      </trkpt>
      <trkpt lat="43.96369" lon="5.14434">
        <ele>476.9</ele>
        <time>2013-02-18T15:28:25.000Z</time>
      </trkpt>
      <trkpt lat="43.96366" lon="5.14437">
        <ele>477</ele>
        <time>2013-02-18T15:28:27.000Z</time>
      </trkpt>
      <trkpt lat="43.96365" lon="5.14438">
        <ele>476.6</ele>
        <time>2013-02-18T15:28:28.000Z</time>
      </trkpt>
      <trkpt lat="43.96366" lon="5.14432">
        <ele>475.6</ele>
        <time>2013-02-18T15:28:49.000Z</time>
      </trkpt>
      <trkpt lat="43.96367" lon="5.14431">
        <ele>475.1</ele>
        <time>2013-02-18T15:28:50.000Z</time>
      </trkpt>
      <trkpt lat="43.96367" lon="5.14425">
        <ele>474.9</ele>
        <time>2013-02-18T15:28:54.000Z</time>
      </trkpt>
      <trkpt lat="43.96366" lon="5.14425">
        <ele>474.7</ele>
        <time>2013-02-18T15:28:55.000Z</time>
      </trkpt>
      <trkpt lat="43.96367" lon="5.1442">
        <ele>476.4</ele>
        <time>2013-02-18T15:28:59.000Z</time>
      </trkpt>
      <trkpt lat="43.96367" lon="5.14418">
        <ele>476.3</ele>
        <time>2013-02-18T15:29:00.000Z</time>
      </trkpt>
      <trkpt lat="43.96367" lon="5.14413">
        <ele>477.5</ele>
        <time>2013-02-18T15:29:04.000Z</time>
      </trkpt>
      <trkpt lat="43.96368" lon="5.14411">
        <ele>477</ele>
        <time>2013-02-18T15:29:06.000Z</time>
      </trkpt>
      <trkpt lat="43.96371" lon="5.14408">
        <ele>475.3</ele>
        <time>2013-02-18T15:29:09.000Z</time>
      </trkpt>
      <trkpt lat="43.96372" lon="5.14407">
        <ele>475.1</ele>
        <time>2013-02-18T15:29:10.000Z</time>
      </trkpt>
      <trkpt lat="43.96374" lon="5.14403">
        <ele>476.3</ele>
        <time>2013-02-18T15:29:14.000Z</time>
      </trkpt>
      <trkpt lat="43.96376" lon="5.14402">
        <ele>474.3</ele>
        <time>2013-02-18T15:29:15.000Z</time>
      </trkpt>
      <trkpt lat="43.96379" lon="5.14398">
        <ele>473</ele>
        <time>2013-02-18T15:29:19.000Z</time>
      </trkpt>
      <trkpt lat="43.9638" lon="5.14397">
        <ele>472.8</ele>
        <time>2013-02-18T15:29:20.000Z</time>
      </trkpt>
      <trkpt lat="43.96383" lon="5.14395">
        <ele>472.2</ele>
        <time>2013-02-18T15:29:23.000Z</time>
      </trkpt>
      <trkpt lat="43.96384" lon="5.14395">
        <ele>472.4</ele>
        <time>2013-02-18T15:29:24.000Z</time>
      </trkpt>
      <trkpt lat="43.96388" lon="5.14392">
        <ele>472.3</ele>
        <time>2013-02-18T15:29:28.000Z</time>
      </trkpt>
      <trkpt lat="43.96388" lon="5.1439">
        <ele>470.6</ele>
        <time>2013-02-18T15:29:29.000Z</time>
      </trkpt>
      <trkpt lat="43.96389" lon="5.14385">
        <ele>469.2</ele>
        <time>2013-02-18T15:29:33.000Z</time>
      </trkpt>
      <trkpt lat="43.96389" lon="5.14383">
        <ele>469.1</ele>
        <time>2013-02-18T15:29:34.000Z</time>
      </trkpt>
      <trkpt lat="43.96393" lon="5.14381">
        <ele>468.5</ele>
        <time>2013-02-18T15:29:37.000Z</time>
      </trkpt>
      <trkpt lat="43.96394" lon="5.1438">
        <ele>467.9</ele>
        <time>2013-02-18T15:29:38.000Z</time>
      </trkpt>
      <trkpt lat="43.96397" lon="5.14379">
        <ele>466.9</ele>
        <time>2013-02-18T15:29:42.000Z</time>
      </trkpt>
      <trkpt lat="43.96398" lon="5.14379">
        <ele>467</ele>
        <time>2013-02-18T15:29:43.000Z</time>
      </trkpt>
      <trkpt lat="43.96401" lon="5.14375">
        <ele>466.1</ele>
        <time>2013-02-18T15:29:46.000Z</time>
      </trkpt>
      <trkpt lat="43.96401" lon="5.14373">
        <ele>465.7</ele>
        <time>2013-02-18T15:29:47.000Z</time>
      </trkpt>
      <trkpt lat="43.96403" lon="5.1437">
        <ele>464.9</ele>
        <time>2013-02-18T15:29:49.000Z</time>
      </trkpt>
      <trkpt lat="43.96404" lon="5.14368">
        <ele>464.5</ele>
        <time>2013-02-18T15:29:50.000Z</time>
      </trkpt>
      <trkpt lat="43.96405" lon="5.14363">
        <ele>464.1</ele>
        <time>2013-02-18T15:29:53.000Z</time>
      </trkpt>
      <trkpt lat="43.96406" lon="5.14361">
        <ele>464.1</ele>
        <time>2013-02-18T15:29:54.000Z</time>
      </trkpt>
      <trkpt lat="43.96408" lon="5.14357">
        <ele>463.5</ele>
        <time>2013-02-18T15:29:57.000Z</time>
      </trkpt>
      <trkpt lat="43.96408" lon="5.14355">
        <ele>463.7</ele>
        <time>2013-02-18T15:29:58.000Z</time>
      </trkpt>
      <trkpt lat="43.9641" lon="5.1435">
        <ele>462.2</ele>
        <time>2013-02-18T15:30:03.000Z</time>
      </trkpt>
      <trkpt lat="43.9641" lon="5.14349">
        <ele>462.5</ele>
        <time>2013-02-18T15:30:04.000Z</time>
      </trkpt>
      <trkpt lat="43.96412" lon="5.14345">
        <ele>463.3</ele>
        <time>2013-02-18T15:30:08.000Z</time>
      </trkpt>
      <trkpt lat="43.96412" lon="5.14343">
        <ele>463.5</ele>
        <time>2013-02-18T15:30:09.000Z</time>
      </trkpt>
      <trkpt lat="43.96414" lon="5.1434">
        <ele>463.5</ele>
        <time>2013-02-18T15:30:17.000Z</time>
      </trkpt>
      <trkpt lat="43.96417" lon="5.14335">
        <ele>461.9</ele>
        <time>2013-02-18T15:30:18.000Z</time>
      </trkpt>
      <trkpt lat="43.96417" lon="5.14331">
        <ele>461.7</ele>
        <time>2013-02-18T15:30:19.000Z</time>
      </trkpt>
      <trkpt lat="43.96418" lon="5.14328">
        <ele>461.6</ele>
        <time>2013-02-18T15:30:20.000Z</time>
      </trkpt>
      <trkpt lat="43.96418" lon="5.14324">
        <ele>461.8</ele>
        <time>2013-02-18T15:30:21.000Z</time>
      </trkpt>
      <trkpt lat="43.96419" lon="5.14321">
        <ele>461.8</ele>
        <time>2013-02-18T15:30:22.000Z</time>
      </trkpt>
      <trkpt lat="43.96422" lon="5.14317">
        <ele>460.6</ele>
        <time>2013-02-18T15:30:26.000Z</time>
      </trkpt>
      <trkpt lat="43.96422" lon="5.14315">
        <ele>460.5</ele>
        <time>2013-02-18T15:30:27.000Z</time>
      </trkpt>
      <trkpt lat="43.96422" lon="5.14309">
        <ele>460.4</ele>
        <time>2013-02-18T15:30:29.000Z</time>
      </trkpt>
      <trkpt lat="43.96422" lon="5.14305">
        <ele>460.2</ele>
        <time>2013-02-18T15:30:30.000Z</time>
      </trkpt>
      <trkpt lat="43.96422" lon="5.143">
        <ele>460</ele>
        <time>2013-02-18T15:30:31.000Z</time>
      </trkpt>
      <trkpt lat="43.96422" lon="5.14296">
        <ele>460</ele>
        <time>2013-02-18T15:30:32.000Z</time>
      </trkpt>
      <trkpt lat="43.96422" lon="5.14291">
        <ele>460</ele>
        <time>2013-02-18T15:30:33.000Z</time>
      </trkpt>
      <trkpt lat="43.96422" lon="5.14287">
        <ele>458.7</ele>
        <time>2013-02-18T15:30:34.000Z</time>
      </trkpt>
      <trkpt lat="43.96424" lon="5.14281">
        <ele>457.9</ele>
        <time>2013-02-18T15:30:35.000Z</time>
      </trkpt>
      <trkpt lat="43.96428" lon="5.14276">
        <ele>459</ele>
        <time>2013-02-18T15:30:36.000Z</time>
      </trkpt>
      <trkpt lat="43.9643" lon="5.14272">
        <ele>458.3</ele>
        <time>2013-02-18T15:30:37.000Z</time>
      </trkpt>
      <trkpt lat="43.96432" lon="5.14269">
        <ele>457.7</ele>
        <time>2013-02-18T15:30:38.000Z</time>
      </trkpt>
      <trkpt lat="43.96432" lon="5.14266">
        <ele>457.1</ele>
        <time>2013-02-18T15:30:39.000Z</time>
      </trkpt>
      <trkpt lat="43.96432" lon="5.14263">
        <ele>456.8</ele>
        <time>2013-02-18T15:30:40.000Z</time>
      </trkpt>
      <trkpt lat="43.96433" lon="5.1426">
        <ele>456.2</ele>
        <time>2013-02-18T15:30:41.000Z</time>
      </trkpt>
      <trkpt lat="43.96433" lon="5.14256">
        <ele>456.3</ele>
        <time>2013-02-18T15:30:42.000Z</time>
      </trkpt>
      <trkpt lat="43.96433" lon="5.14253">
        <ele>456.1</ele>
        <time>2013-02-18T15:30:43.000Z</time>
      </trkpt>
      <trkpt lat="43.96433" lon="5.14248">
        <ele>456.4</ele>
        <time>2013-02-18T15:30:44.000Z</time>
      </trkpt>
      <trkpt lat="43.96433" lon="5.14245">
        <ele>455.9</ele>
        <time>2013-02-18T15:30:45.000Z</time>
      </trkpt>
      <trkpt lat="43.96433" lon="5.14241">
        <ele>455.2</ele>
        <time>2013-02-18T15:30:46.000Z</time>
      </trkpt>
      <trkpt lat="43.96433" lon="5.14237">
        <ele>454.2</ele>
        <time>2013-02-18T15:30:47.000Z</time>
      </trkpt>
      <trkpt lat="43.96432" lon="5.14232">
        <ele>453.5</ele>
        <time>2013-02-18T15:30:48.000Z</time>
      </trkpt>
      <trkpt lat="43.96431" lon="5.14227">
        <ele>449</ele>
        <time>2013-02-18T15:30:52.000Z</time>
      </trkpt>
      <trkpt lat="43.96429" lon="5.14221">
        <ele>449.3</ele>
        <time>2013-02-18T15:30:53.000Z</time>
      </trkpt>
      <trkpt lat="43.96428" lon="5.14217">
        <ele>447.9</ele>
        <time>2013-02-18T15:30:54.000Z</time>
      </trkpt>
      <trkpt lat="43.96428" lon="5.14211">
        <ele>447.1</ele>
        <time>2013-02-18T15:30:55.000Z</time>
      </trkpt>
      <trkpt lat="43.96427" lon="5.14206">
        <ele>446.2</ele>
        <time>2013-02-18T15:30:56.000Z</time>
      </trkpt>
      <trkpt lat="43.96427" lon="5.14201">
        <ele>445.5</ele>
        <time>2013-02-18T15:30:57.000Z</time>
      </trkpt>
      <trkpt lat="43.96426" lon="5.14196">
        <ele>445.6</ele>
        <time>2013-02-18T15:30:58.000Z</time>
      </trkpt>
      <trkpt lat="43.96427" lon="5.14191">
        <ele>446.1</ele>
        <time>2013-02-18T15:30:59.000Z</time>
      </trkpt>
      <trkpt lat="43.96426" lon="5.14186">
        <ele>446.6</ele>
        <time>2013-02-18T15:31:00.000Z</time>
      </trkpt>
      <trkpt lat="43.96426" lon="5.1418">
        <ele>446.7</ele>
        <time>2013-02-18T15:31:01.000Z</time>
      </trkpt>
      <trkpt lat="43.96424" lon="5.14174">
        <ele>446.6</ele>
        <time>2013-02-18T15:31:02.000Z</time>
      </trkpt>
      <trkpt lat="43.96424" lon="5.14172">
        <ele>446.8</ele>
        <time>2013-02-18T15:31:03.000Z</time>
      </trkpt>
      <trkpt lat="43.9642" lon="5.14165">
        <ele>446.3</ele>
        <time>2013-02-18T15:31:04.000Z</time>
      </trkpt>
      <trkpt lat="43.96421" lon="5.14158">
        <ele>447.4</ele>
        <time>2013-02-18T15:31:06.000Z</time>
      </trkpt>
      <trkpt lat="43.96421" lon="5.14155">
        <ele>447.6</ele>
        <time>2013-02-18T15:31:07.000Z</time>
      </trkpt>
      <trkpt lat="43.96423" lon="5.14152">
        <ele>448.2</ele>
        <time>2013-02-18T15:31:08.000Z</time>
      </trkpt>
      <trkpt lat="43.96424" lon="5.14149">
        <ele>448.8</ele>
        <time>2013-02-18T15:31:09.000Z</time>
      </trkpt>
      <trkpt lat="43.96425" lon="5.14145">
        <ele>448.9</ele>
        <time>2013-02-18T15:31:10.000Z</time>
      </trkpt>
      <trkpt lat="43.96426" lon="5.14141">
        <ele>449</ele>
        <time>2013-02-18T15:31:11.000Z</time>
      </trkpt>
      <trkpt lat="43.96428" lon="5.14138">
        <ele>449.2</ele>
        <time>2013-02-18T15:31:12.000Z</time>
      </trkpt>
      <trkpt lat="43.96429" lon="5.14135">
        <ele>449.1</ele>
        <time>2013-02-18T15:31:13.000Z</time>
      </trkpt>
      <trkpt lat="43.96431" lon="5.14132">
        <ele>449.8</ele>
        <time>2013-02-18T15:31:14.000Z</time>
      </trkpt>
      <trkpt lat="43.96432" lon="5.1413">
        <ele>449.7</ele>
        <time>2013-02-18T15:31:15.000Z</time>
      </trkpt>
      <trkpt lat="43.96434" lon="5.14127">
        <ele>449.8</ele>
        <time>2013-02-18T15:31:16.000Z</time>
      </trkpt>
      <trkpt lat="43.96436" lon="5.14125">
        <ele>450.1</ele>
        <time>2013-02-18T15:31:17.000Z</time>
      </trkpt>
      <trkpt lat="43.96437" lon="5.14122">
        <ele>450.4</ele>
        <time>2013-02-18T15:31:18.000Z</time>
      </trkpt>
      <trkpt lat="43.96439" lon="5.14119">
        <ele>450.4</ele>
        <time>2013-02-18T15:31:19.000Z</time>
      </trkpt>
      <trkpt lat="43.96441" lon="5.14117">
        <ele>451.2</ele>
        <time>2013-02-18T15:31:20.000Z</time>
      </trkpt>
      <trkpt lat="43.96442" lon="5.14114">
        <ele>452.1</ele>
        <time>2013-02-18T15:31:21.000Z</time>
      </trkpt>
      <trkpt lat="43.96444" lon="5.14109">
        <ele>453</ele>
        <time>2013-02-18T15:31:23.000Z</time>
      </trkpt>
      <trkpt lat="43.96446" lon="5.14107">
        <ele>453.3</ele>
        <time>2013-02-18T15:31:24.000Z</time>
      </trkpt>
      <trkpt lat="43.96448" lon="5.14102">
        <ele>453.8</ele>
        <time>2013-02-18T15:31:26.000Z</time>
      </trkpt>
      <trkpt lat="43.9645" lon="5.14099">
        <ele>454.1</ele>
        <time>2013-02-18T15:31:27.000Z</time>
      </trkpt>
      <trkpt lat="43.96451" lon="5.14096">
        <ele>453.6</ele>
        <time>2013-02-18T15:31:28.000Z</time>
      </trkpt>
      <trkpt lat="43.96452" lon="5.14094">
        <ele>453.6</ele>
        <time>2013-02-18T15:31:29.000Z</time>
      </trkpt>
      <trkpt lat="43.96453" lon="5.14091">
        <ele>453.8</ele>
        <time>2013-02-18T15:31:30.000Z</time>
      </trkpt>
      <trkpt lat="43.96454" lon="5.14088">
        <ele>454</ele>
        <time>2013-02-18T15:31:31.000Z</time>
      </trkpt>
      <trkpt lat="43.96454" lon="5.14082">
        <ele>454.3</ele>
        <time>2013-02-18T15:31:33.000Z</time>
      </trkpt>
      <trkpt lat="43.96454" lon="5.14079">
        <ele>454.4</ele>
        <time>2013-02-18T15:31:34.000Z</time>
      </trkpt>
      <trkpt lat="43.96454" lon="5.14073">
        <ele>453.7</ele>
        <time>2013-02-18T15:31:36.000Z</time>
      </trkpt>
      <trkpt lat="43.96453" lon="5.14069">
        <ele>453.8</ele>
        <time>2013-02-18T15:31:37.000Z</time>
      </trkpt>
      <trkpt lat="43.96452" lon="5.14066">
        <ele>454</ele>
        <time>2013-02-18T15:31:38.000Z</time>
      </trkpt>
      <trkpt lat="43.96452" lon="5.14063">
        <ele>454.2</ele>
        <time>2013-02-18T15:31:39.000Z</time>
      </trkpt>
      <trkpt lat="43.96451" lon="5.1406">
        <ele>453.9</ele>
        <time>2013-02-18T15:31:40.000Z</time>
      </trkpt>
      <trkpt lat="43.96451" lon="5.14056">
        <ele>453.4</ele>
        <time>2013-02-18T15:31:41.000Z</time>
      </trkpt>
      <trkpt lat="43.9645" lon="5.14053">
        <ele>454.2</ele>
        <time>2013-02-18T15:31:42.000Z</time>
      </trkpt>
      <trkpt lat="43.9645" lon="5.1405">
        <ele>454.1</ele>
        <time>2013-02-18T15:31:43.000Z</time>
      </trkpt>
      <trkpt lat="43.9645" lon="5.14046">
        <ele>454.2</ele>
        <time>2013-02-18T15:31:44.000Z</time>
      </trkpt>
      <trkpt lat="43.9645" lon="5.14042">
        <ele>454.2</ele>
        <time>2013-02-18T15:31:45.000Z</time>
      </trkpt>
      <trkpt lat="43.9645" lon="5.14038">
        <ele>454.3</ele>
        <time>2013-02-18T15:31:46.000Z</time>
      </trkpt>
      <trkpt lat="43.9645" lon="5.14035">
        <ele>454.5</ele>
        <time>2013-02-18T15:31:47.000Z</time>
      </trkpt>
      <trkpt lat="43.9645" lon="5.14031">
        <ele>454.5</ele>
        <time>2013-02-18T15:31:48.000Z</time>
      </trkpt>
      <trkpt lat="43.96451" lon="5.14027">
        <ele>453.9</ele>
        <time>2013-02-18T15:31:49.000Z</time>
      </trkpt>
      <trkpt lat="43.96452" lon="5.14023">
        <ele>453.9</ele>
        <time>2013-02-18T15:31:50.000Z</time>
      </trkpt>
      <trkpt lat="43.96452" lon="5.14019">
        <ele>454.1</ele>
        <time>2013-02-18T15:31:51.000Z</time>
      </trkpt>
      <trkpt lat="43.96452" lon="5.14016">
        <ele>454.6</ele>
        <time>2013-02-18T15:31:52.000Z</time>
      </trkpt>
      <trkpt lat="43.96452" lon="5.14012">
        <ele>455.4</ele>
        <time>2013-02-18T15:31:53.000Z</time>
      </trkpt>
      <trkpt lat="43.96451" lon="5.14008">
        <ele>455.8</ele>
        <time>2013-02-18T15:31:54.000Z</time>
      </trkpt>
      <trkpt lat="43.96452" lon="5.14004">
        <ele>455.9</ele>
        <time>2013-02-18T15:31:55.000Z</time>
      </trkpt>
      <trkpt lat="43.96453" lon="5.14">
        <ele>453.9</ele>
        <time>2013-02-18T15:31:56.000Z</time>
      </trkpt>
      <trkpt lat="43.96453" lon="5.13996">
        <ele>454.5</ele>
        <time>2013-02-18T15:31:57.000Z</time>
      </trkpt>
      <trkpt lat="43.96453" lon="5.13993">
        <ele>455.1</ele>
        <time>2013-02-18T15:31:58.000Z</time>
      </trkpt>
      <trkpt lat="43.96453" lon="5.13988">
        <ele>455.1</ele>
        <time>2013-02-18T15:31:59.000Z</time>
      </trkpt>
      <trkpt lat="43.96453" lon="5.13985">
        <ele>455.5</ele>
        <time>2013-02-18T15:32:00.000Z</time>
      </trkpt>
      <trkpt lat="43.96453" lon="5.13981">
        <ele>456.5</ele>
        <time>2013-02-18T15:32:01.000Z</time>
      </trkpt>
      <trkpt lat="43.96452" lon="5.13977">
        <ele>455.3</ele>
        <time>2013-02-18T15:32:02.000Z</time>
      </trkpt>
      <trkpt lat="43.96452" lon="5.13973">
        <ele>455.5</ele>
        <time>2013-02-18T15:32:03.000Z</time>
      </trkpt>
      <trkpt lat="43.96451" lon="5.1397">
        <ele>455.5</ele>
        <time>2013-02-18T15:32:04.000Z</time>
      </trkpt>
      <trkpt lat="43.9645" lon="5.13967">
        <ele>455.6</ele>
        <time>2013-02-18T15:32:05.000Z</time>
      </trkpt>
      <trkpt lat="43.96449" lon="5.13963">
        <ele>455.2</ele>
        <time>2013-02-18T15:32:06.000Z</time>
      </trkpt>
      <trkpt lat="43.96448" lon="5.13959">
        <ele>455.6</ele>
        <time>2013-02-18T15:32:07.000Z</time>
      </trkpt>
      <trkpt lat="43.96448" lon="5.13955">
        <ele>455.5</ele>
        <time>2013-02-18T15:32:08.000Z</time>
      </trkpt>
      <trkpt lat="43.96447" lon="5.13951">
        <ele>455.1</ele>
        <time>2013-02-18T15:32:09.000Z</time>
      </trkpt>
      <trkpt lat="43.96446" lon="5.13948">
        <ele>455</ele>
        <time>2013-02-18T15:32:10.000Z</time>
      </trkpt>
      <trkpt lat="43.96445" lon="5.13945">
        <ele>455</ele>
        <time>2013-02-18T15:32:11.000Z</time>
      </trkpt>
      <trkpt lat="43.96444" lon="5.13941">
        <ele>455.4</ele>
        <time>2013-02-18T15:32:12.000Z</time>
      </trkpt>
      <trkpt lat="43.96443" lon="5.13938">
        <ele>455.5</ele>
        <time>2013-02-18T15:32:13.000Z</time>
      </trkpt>
      <trkpt lat="43.96442" lon="5.13934">
        <ele>455.3</ele>
        <time>2013-02-18T15:32:14.000Z</time>
      </trkpt>
      <trkpt lat="43.9644" lon="5.13931">
        <ele>455.7</ele>
        <time>2013-02-18T15:32:15.000Z</time>
      </trkpt>
      <trkpt lat="43.96438" lon="5.13929">
        <ele>456.5</ele>
        <time>2013-02-18T15:32:16.000Z</time>
      </trkpt>
      <trkpt lat="43.96435" lon="5.13929">
        <ele>458.8</ele>
        <time>2013-02-18T15:32:17.000Z</time>
      </trkpt>
      <trkpt lat="43.9643" lon="5.13931">
        <ele>461.5</ele>
        <time>2013-02-18T15:32:18.000Z</time>
      </trkpt>
      <trkpt lat="43.96426" lon="5.13937">
        <ele>464.1</ele>
        <time>2013-02-18T15:32:19.000Z</time>
      </trkpt>
      <trkpt lat="43.96425" lon="5.13941">
        <ele>466.1</ele>
        <time>2013-02-18T15:32:20.000Z</time>
      </trkpt>
      <trkpt lat="43.96425" lon="5.13926">
        <ele>464.3</ele>
        <time>2013-02-18T15:32:21.000Z</time>
      </trkpt>
      <trkpt lat="43.96423" lon="5.13922">
        <ele>465.4</ele>
        <time>2013-02-18T15:32:23.000Z</time>
      </trkpt>
      <trkpt lat="43.96421" lon="5.1392">
        <ele>465.9</ele>
        <time>2013-02-18T15:32:24.000Z</time>
      </trkpt>
      <trkpt lat="43.96419" lon="5.13918">
        <ele>465.5</ele>
        <time>2013-02-18T15:32:25.000Z</time>
      </trkpt>
      <trkpt lat="43.96417" lon="5.13915">
        <ele>464.6</ele>
        <time>2013-02-18T15:32:26.000Z</time>
      </trkpt>
      <trkpt lat="43.96413" lon="5.13913">
        <ele>464.5</ele>
        <time>2013-02-18T15:32:28.000Z</time>
      </trkpt>
      <trkpt lat="43.96412" lon="5.13911">
        <ele>464.6</ele>
        <time>2013-02-18T15:32:29.000Z</time>
      </trkpt>
      <trkpt lat="43.96408" lon="5.13908">
        <ele>465</ele>
        <time>2013-02-18T15:32:31.000Z</time>
      </trkpt>
      <trkpt lat="43.96406" lon="5.13907">
        <ele>464.9</ele>
        <time>2013-02-18T15:32:32.000Z</time>
      </trkpt>
      <trkpt lat="43.96403" lon="5.13904">
        <ele>465.8</ele>
        <time>2013-02-18T15:32:34.000Z</time>
      </trkpt>
      <trkpt lat="43.96401" lon="5.13903">
        <ele>465.5</ele>
        <time>2013-02-18T15:32:35.000Z</time>
      </trkpt>
      <trkpt lat="43.96398" lon="5.139">
        <ele>465.5</ele>
        <time>2013-02-18T15:32:37.000Z</time>
      </trkpt>
      <trkpt lat="43.96396" lon="5.13898">
        <ele>465.5</ele>
        <time>2013-02-18T15:32:38.000Z</time>
      </trkpt>
      <trkpt lat="43.96393" lon="5.13896">
        <ele>465.6</ele>
        <time>2013-02-18T15:32:40.000Z</time>
      </trkpt>
      <trkpt lat="43.96392" lon="5.13895">
        <ele>465.6</ele>
        <time>2013-02-18T15:32:41.000Z</time>
      </trkpt>
      <trkpt lat="43.96388" lon="5.13893">
        <ele>466.4</ele>
        <time>2013-02-18T15:32:44.000Z</time>
      </trkpt>
      <trkpt lat="43.96387" lon="5.13892">
        <ele>467</ele>
        <time>2013-02-18T15:32:45.000Z</time>
      </trkpt>
      <trkpt lat="43.96386" lon="5.13892">
        <ele>473.2</ele>
        <time>2013-02-18T15:32:50.000Z</time>
      </trkpt>
      <trkpt lat="43.96388" lon="5.13901">
        <ele>476.2</ele>
        <time>2013-02-18T15:32:51.000Z</time>
      </trkpt>
      <trkpt lat="43.96385" lon="5.13902">
        <ele>477</ele>
        <time>2013-02-18T15:32:54.000Z</time>
      </trkpt>
      <trkpt lat="43.96383" lon="5.13906">
        <ele>476.9</ele>
        <time>2013-02-18T15:32:55.000Z</time>
      </trkpt>
      <trkpt lat="43.9638" lon="5.1391">
        <ele>476.7</ele>
        <time>2013-02-18T15:32:56.000Z</time>
      </trkpt>
      <trkpt lat="43.96391" lon="5.139">
        <ele>476.7</ele>
        <time>2013-02-18T15:32:57.000Z</time>
      </trkpt>
      <trkpt lat="43.96385" lon="5.1389">
        <ele>476.3</ele>
        <time>2013-02-18T15:32:58.000Z</time>
      </trkpt>
      <trkpt lat="43.96378" lon="5.13889">
        <ele>478.8</ele>
        <time>2013-02-18T15:32:59.000Z</time>
      </trkpt>
      <trkpt lat="43.96373" lon="5.13886">
        <ele>478.3</ele>
        <time>2013-02-18T15:33:00.000Z</time>
      </trkpt>
      <trkpt lat="43.9637" lon="5.13881">
        <ele>477.6</ele>
        <time>2013-02-18T15:33:01.000Z</time>
      </trkpt>
      <trkpt lat="43.96367" lon="5.13878">
        <ele>476.8</ele>
        <time>2013-02-18T15:33:02.000Z</time>
      </trkpt>
      <trkpt lat="43.96366" lon="5.13875">
        <ele>476.2</ele>
        <time>2013-02-18T15:33:03.000Z</time>
      </trkpt>
      <trkpt lat="43.96365" lon="5.13872">
        <ele>476.1</ele>
        <time>2013-02-18T15:33:04.000Z</time>
      </trkpt>
      <trkpt lat="43.96362" lon="5.13868">
        <ele>476.2</ele>
        <time>2013-02-18T15:33:09.000Z</time>
      </trkpt>
      <trkpt lat="43.9636" lon="5.13866">
        <ele>476.1</ele>
        <time>2013-02-18T15:33:10.000Z</time>
      </trkpt>
      <trkpt lat="43.96358" lon="5.13864">
        <ele>475.8</ele>
        <time>2013-02-18T15:33:12.000Z</time>
      </trkpt>
      <trkpt lat="43.96356" lon="5.13864">
        <ele>475.7</ele>
        <time>2013-02-18T15:33:13.000Z</time>
      </trkpt>
      <trkpt lat="43.96354" lon="5.13863">
        <ele>475.6</ele>
        <time>2013-02-18T15:33:14.000Z</time>
      </trkpt>
      <trkpt lat="43.96348" lon="5.13862">
        <ele>474.1</ele>
        <time>2013-02-18T15:33:15.000Z</time>
      </trkpt>
      <trkpt lat="43.96344" lon="5.13862">
        <ele>474</ele>
        <time>2013-02-18T15:33:16.000Z</time>
      </trkpt>
      <trkpt lat="43.96342" lon="5.13861">
        <ele>473.4</ele>
        <time>2013-02-18T15:33:17.000Z</time>
      </trkpt>
      <trkpt lat="43.96339" lon="5.13857">
        <ele>472.6</ele>
        <time>2013-02-18T15:33:20.000Z</time>
      </trkpt>
      <trkpt lat="43.96338" lon="5.13857">
        <ele>472.1</ele>
        <time>2013-02-18T15:33:21.000Z</time>
      </trkpt>
      <trkpt lat="43.96334" lon="5.13855">
        <ele>472.3</ele>
        <time>2013-02-18T15:33:24.000Z</time>
      </trkpt>
      <trkpt lat="43.96333" lon="5.13854">
        <ele>472.3</ele>
        <time>2013-02-18T15:33:25.000Z</time>
      </trkpt>
      <trkpt lat="43.9633" lon="5.1385">
        <ele>471.9</ele>
        <time>2013-02-18T15:33:28.000Z</time>
      </trkpt>
      <trkpt lat="43.9633" lon="5.13849">
        <ele>471.7</ele>
        <time>2013-02-18T15:33:29.000Z</time>
      </trkpt>
      <trkpt lat="43.96326" lon="5.13847">
        <ele>471.6</ele>
        <time>2013-02-18T15:33:31.000Z</time>
      </trkpt>
      <trkpt lat="43.96324" lon="5.13847">
        <ele>471.6</ele>
        <time>2013-02-18T15:33:32.000Z</time>
      </trkpt>
      <trkpt lat="43.9632" lon="5.13845">
        <ele>472.3</ele>
        <time>2013-02-18T15:33:35.000Z</time>
      </trkpt>
      <trkpt lat="43.96318" lon="5.13844">
        <ele>472.3</ele>
        <time>2013-02-18T15:33:36.000Z</time>
      </trkpt>
      <trkpt lat="43.96315" lon="5.13841">
        <ele>472.7</ele>
        <time>2013-02-18T15:33:39.000Z</time>
      </trkpt>
      <trkpt lat="43.96314" lon="5.1384">
        <ele>472</ele>
        <time>2013-02-18T15:33:40.000Z</time>
      </trkpt>
      <trkpt lat="43.96311" lon="5.13838">
        <ele>472.1</ele>
        <time>2013-02-18T15:33:42.000Z</time>
      </trkpt>
      <trkpt lat="43.9631" lon="5.13837">
        <ele>472.2</ele>
        <time>2013-02-18T15:33:43.000Z</time>
      </trkpt>
      <trkpt lat="43.96306" lon="5.13834">
        <ele>472.9</ele>
        <time>2013-02-18T15:33:46.000Z</time>
      </trkpt>
      <trkpt lat="43.96305" lon="5.13833">
        <ele>472.6</ele>
        <time>2013-02-18T15:33:47.000Z</time>
      </trkpt>
      <trkpt lat="43.96301" lon="5.13831">
        <ele>472.6</ele>
        <time>2013-02-18T15:33:49.000Z</time>
      </trkpt>
      <trkpt lat="43.963" lon="5.1383">
        <ele>472.2</ele>
        <time>2013-02-18T15:33:50.000Z</time>
      </trkpt>
      <trkpt lat="43.96296" lon="5.13828">
        <ele>472.5</ele>
        <time>2013-02-18T15:33:53.000Z</time>
      </trkpt>
      <trkpt lat="43.96295" lon="5.13827">
        <ele>472.6</ele>
        <time>2013-02-18T15:33:54.000Z</time>
      </trkpt>
      <trkpt lat="43.96291" lon="5.13825">
        <ele>473.5</ele>
        <time>2013-02-18T15:33:57.000Z</time>
      </trkpt>
      <trkpt lat="43.96289" lon="5.13824">
        <ele>473.7</ele>
        <time>2013-02-18T15:33:58.000Z</time>
      </trkpt>
      <trkpt lat="43.96287" lon="5.13822">
        <ele>473.7</ele>
        <time>2013-02-18T15:34:00.000Z</time>
      </trkpt>
      <trkpt lat="43.96285" lon="5.13821">
        <ele>473.7</ele>
        <time>2013-02-18T15:34:01.000Z</time>
      </trkpt>
      <trkpt lat="43.96281" lon="5.13819">
        <ele>474</ele>
        <time>2013-02-18T15:34:04.000Z</time>
      </trkpt>
      <trkpt lat="43.9628" lon="5.13818">
        <ele>473.9</ele>
        <time>2013-02-18T15:34:05.000Z</time>
      </trkpt>
      <trkpt lat="43.96276" lon="5.13815">
        <ele>474.3</ele>
        <time>2013-02-18T15:34:08.000Z</time>
      </trkpt>
      <trkpt lat="43.96274" lon="5.13814">
        <ele>474.1</ele>
        <time>2013-02-18T15:34:09.000Z</time>
      </trkpt>
      <trkpt lat="43.96271" lon="5.13812">
        <ele>474.6</ele>
        <time>2013-02-18T15:34:12.000Z</time>
      </trkpt>
      <trkpt lat="43.96269" lon="5.13811">
        <ele>474.6</ele>
        <time>2013-02-18T15:34:13.000Z</time>
      </trkpt>
      <trkpt lat="43.96266" lon="5.13809">
        <ele>474.7</ele>
        <time>2013-02-18T15:34:15.000Z</time>
      </trkpt>
      <trkpt lat="43.96265" lon="5.13808">
        <ele>474.7</ele>
        <time>2013-02-18T15:34:16.000Z</time>
      </trkpt>
      <trkpt lat="43.96261" lon="5.13806">
        <ele>475.1</ele>
        <time>2013-02-18T15:34:19.000Z</time>
      </trkpt>
      <trkpt lat="43.9626" lon="5.13805">
        <ele>475.3</ele>
        <time>2013-02-18T15:34:20.000Z</time>
      </trkpt>
      <trkpt lat="43.96257" lon="5.13803">
        <ele>475.7</ele>
        <time>2013-02-18T15:34:22.000Z</time>
      </trkpt>
      <trkpt lat="43.96255" lon="5.13802">
        <ele>475.9</ele>
        <time>2013-02-18T15:34:23.000Z</time>
      </trkpt>
      <trkpt lat="43.96253" lon="5.138">
        <ele>476.5</ele>
        <time>2013-02-18T15:34:25.000Z</time>
      </trkpt>
      <trkpt lat="43.96251" lon="5.13799">
        <ele>476.7</ele>
        <time>2013-02-18T15:34:26.000Z</time>
      </trkpt>
      <trkpt lat="43.96248" lon="5.13797">
        <ele>477.6</ele>
        <time>2013-02-18T15:34:28.000Z</time>
      </trkpt>
      <trkpt lat="43.96247" lon="5.13796">
        <ele>478.1</ele>
        <time>2013-02-18T15:34:29.000Z</time>
      </trkpt>
      <trkpt lat="43.96244" lon="5.13793">
        <ele>478.4</ele>
        <time>2013-02-18T15:34:31.000Z</time>
      </trkpt>
      <trkpt lat="43.96243" lon="5.13792">
        <ele>478.6</ele>
        <time>2013-02-18T15:34:32.000Z</time>
      </trkpt>
      <trkpt lat="43.9624" lon="5.1379">
        <ele>478.9</ele>
        <time>2013-02-18T15:34:34.000Z</time>
      </trkpt>
      <trkpt lat="43.96239" lon="5.13789">
        <ele>479.1</ele>
        <time>2013-02-18T15:34:35.000Z</time>
      </trkpt>
      <trkpt lat="43.96235" lon="5.13786">
        <ele>479.7</ele>
        <time>2013-02-18T15:34:38.000Z</time>
      </trkpt>
      <trkpt lat="43.96233" lon="5.13785">
        <ele>479.7</ele>
        <time>2013-02-18T15:34:39.000Z</time>
      </trkpt>
      <trkpt lat="43.96231" lon="5.13783">
        <ele>480</ele>
        <time>2013-02-18T15:34:41.000Z</time>
      </trkpt>
      <trkpt lat="43.9623" lon="5.13782">
        <ele>480.2</ele>
        <time>2013-02-18T15:34:42.000Z</time>
      </trkpt>
      <trkpt lat="43.96227" lon="5.13779">
        <ele>480.1</ele>
        <time>2013-02-18T15:34:44.000Z</time>
      </trkpt>
      <trkpt lat="43.96226" lon="5.13778">
        <ele>480.3</ele>
        <time>2013-02-18T15:34:45.000Z</time>
      </trkpt>
      <trkpt lat="43.96223" lon="5.13776">
        <ele>480.5</ele>
        <time>2013-02-18T15:34:47.000Z</time>
      </trkpt>
      <trkpt lat="43.96221" lon="5.13775">
        <ele>480.4</ele>
        <time>2013-02-18T15:34:48.000Z</time>
      </trkpt>
      <trkpt lat="43.96219" lon="5.13772">
        <ele>480.5</ele>
        <time>2013-02-18T15:34:50.000Z</time>
      </trkpt>
      <trkpt lat="43.96217" lon="5.13771">
        <ele>480.5</ele>
        <time>2013-02-18T15:34:51.000Z</time>
      </trkpt>
      <trkpt lat="43.96214" lon="5.13769">
        <ele>480.9</ele>
        <time>2013-02-18T15:34:53.000Z</time>
      </trkpt>
      <trkpt lat="43.96213" lon="5.13768">
        <ele>481</ele>
        <time>2013-02-18T15:34:54.000Z</time>
      </trkpt>
      <trkpt lat="43.9621" lon="5.13766">
        <ele>481.5</ele>
        <time>2013-02-18T15:34:56.000Z</time>
      </trkpt>
      <trkpt lat="43.96209" lon="5.13764">
        <ele>481.5</ele>
        <time>2013-02-18T15:34:57.000Z</time>
      </trkpt>
      <trkpt lat="43.96206" lon="5.13762">
        <ele>481.1</ele>
        <time>2013-02-18T15:34:59.000Z</time>
      </trkpt>
      <trkpt lat="43.96205" lon="5.1376">
        <ele>481.1</ele>
        <time>2013-02-18T15:35:00.000Z</time>
      </trkpt>
      <trkpt lat="43.96201" lon="5.13757">
        <ele>481.3</ele>
        <time>2013-02-18T15:35:03.000Z</time>
      </trkpt>
      <trkpt lat="43.962" lon="5.13756">
        <ele>481.6</ele>
        <time>2013-02-18T15:35:04.000Z</time>
      </trkpt>
      <trkpt lat="43.96196" lon="5.13753">
        <ele>482.3</ele>
        <time>2013-02-18T15:35:07.000Z</time>
      </trkpt>
      <trkpt lat="43.96195" lon="5.13752">
        <ele>482.2</ele>
        <time>2013-02-18T15:35:08.000Z</time>
      </trkpt>
      <trkpt lat="43.96192" lon="5.13749">
        <ele>482.8</ele>
        <time>2013-02-18T15:35:10.000Z</time>
      </trkpt>
      <trkpt lat="43.96191" lon="5.13748">
        <ele>482.6</ele>
        <time>2013-02-18T15:35:11.000Z</time>
      </trkpt>
      <trkpt lat="43.96189" lon="5.13746">
        <ele>482.9</ele>
        <time>2013-02-18T15:35:13.000Z</time>
      </trkpt>
      <trkpt lat="43.96187" lon="5.13745">
        <ele>483.1</ele>
        <time>2013-02-18T15:35:14.000Z</time>
      </trkpt>
      <trkpt lat="43.96183" lon="5.13742">
        <ele>483.3</ele>
        <time>2013-02-18T15:35:17.000Z</time>
      </trkpt>
      <trkpt lat="43.96182" lon="5.13741">
        <ele>483.2</ele>
        <time>2013-02-18T15:35:18.000Z</time>
      </trkpt>
      <trkpt lat="43.96179" lon="5.13738">
        <ele>483.6</ele>
        <time>2013-02-18T15:35:20.000Z</time>
      </trkpt>
      <trkpt lat="43.96178" lon="5.13737">
        <ele>483.9</ele>
        <time>2013-02-18T15:35:21.000Z</time>
      </trkpt>
      <trkpt lat="43.96176" lon="5.13735">
        <ele>484.1</ele>
        <time>2013-02-18T15:35:23.000Z</time>
      </trkpt>
      <trkpt lat="43.96174" lon="5.13733">
        <ele>484.3</ele>
        <time>2013-02-18T15:35:24.000Z</time>
      </trkpt>
      <trkpt lat="43.96171" lon="5.13731">
        <ele>485.5</ele>
        <time>2013-02-18T15:35:27.000Z</time>
      </trkpt>
      <trkpt lat="43.96169" lon="5.1373">
        <ele>485.6</ele>
        <time>2013-02-18T15:35:28.000Z</time>
      </trkpt>
      <trkpt lat="43.96166" lon="5.13728">
        <ele>486.4</ele>
        <time>2013-02-18T15:35:30.000Z</time>
      </trkpt>
      <trkpt lat="43.96165" lon="5.13727">
        <ele>486.5</ele>
        <time>2013-02-18T15:35:31.000Z</time>
      </trkpt>
      <trkpt lat="43.96162" lon="5.13724">
        <ele>486.8</ele>
        <time>2013-02-18T15:35:33.000Z</time>
      </trkpt>
      <trkpt lat="43.96161" lon="5.13723">
        <ele>487.2</ele>
        <time>2013-02-18T15:35:34.000Z</time>
      </trkpt>
      <trkpt lat="43.96158" lon="5.1372">
        <ele>487.9</ele>
        <time>2013-02-18T15:35:37.000Z</time>
      </trkpt>
      <trkpt lat="43.96158" lon="5.13718">
        <ele>487.9</ele>
        <time>2013-02-18T15:35:38.000Z</time>
      </trkpt>
      <trkpt lat="43.96154" lon="5.13714">
        <ele>488.8</ele>
        <time>2013-02-18T15:35:41.000Z</time>
      </trkpt>
      <trkpt lat="43.96153" lon="5.13713">
        <ele>489</ele>
        <time>2013-02-18T15:35:42.000Z</time>
      </trkpt>
      <trkpt lat="43.9615" lon="5.13709">
        <ele>489.8</ele>
        <time>2013-02-18T15:35:45.000Z</time>
      </trkpt>
      <trkpt lat="43.96149" lon="5.13708">
        <ele>490.2</ele>
        <time>2013-02-18T15:35:46.000Z</time>
      </trkpt>
      <trkpt lat="43.96147" lon="5.13705">
        <ele>490.8</ele>
        <time>2013-02-18T15:35:48.000Z</time>
      </trkpt>
      <trkpt lat="43.96146" lon="5.13704">
        <ele>490.8</ele>
        <time>2013-02-18T15:35:49.000Z</time>
      </trkpt>
      <trkpt lat="43.96143" lon="5.13701">
        <ele>491</ele>
        <time>2013-02-18T15:35:51.000Z</time>
      </trkpt>
      <trkpt lat="43.96142" lon="5.137">
        <ele>491.1</ele>
        <time>2013-02-18T15:35:52.000Z</time>
      </trkpt>
      <trkpt lat="43.96139" lon="5.13695">
        <ele>491.7</ele>
        <time>2013-02-18T15:35:55.000Z</time>
      </trkpt>
      <trkpt lat="43.96138" lon="5.13694">
        <ele>492</ele>
        <time>2013-02-18T15:35:56.000Z</time>
      </trkpt>
      <trkpt lat="43.96135" lon="5.13691">
        <ele>492.3</ele>
        <time>2013-02-18T15:35:59.000Z</time>
      </trkpt>
      <trkpt lat="43.96134" lon="5.1369">
        <ele>492.5</ele>
        <time>2013-02-18T15:36:00.000Z</time>
      </trkpt>
      <trkpt lat="43.96131" lon="5.13687">
        <ele>493.1</ele>
        <time>2013-02-18T15:36:03.000Z</time>
      </trkpt>
      <trkpt lat="43.9613" lon="5.13686">
        <ele>493.1</ele>
        <time>2013-02-18T15:36:04.000Z</time>
      </trkpt>
      <trkpt lat="43.96127" lon="5.13683">
        <ele>493.7</ele>
        <time>2013-02-18T15:36:07.000Z</time>
      </trkpt>
      <trkpt lat="43.96125" lon="5.13682">
        <ele>493.8</ele>
        <time>2013-02-18T15:36:08.000Z</time>
      </trkpt>
      <trkpt lat="43.96123" lon="5.13682">
        <ele>495.5</ele>
        <time>2013-02-18T15:36:10.000Z</time>
      </trkpt>
      <trkpt lat="43.9612" lon="5.13686">
        <ele>499.6</ele>
        <time>2013-02-18T15:36:11.000Z</time>
      </trkpt>
      <trkpt lat="43.96118" lon="5.13694">
        <ele>504.5</ele>
        <time>2013-02-18T15:36:12.000Z</time>
      </trkpt>
      <trkpt lat="43.96118" lon="5.13686">
        <ele>503.2</ele>
        <time>2013-02-18T15:36:13.000Z</time>
      </trkpt>
      <trkpt lat="43.96115" lon="5.13685">
        <ele>505.5</ele>
        <time>2013-02-18T15:36:15.000Z</time>
      </trkpt>
      <trkpt lat="43.96114" lon="5.13683">
        <ele>506.2</ele>
        <time>2013-02-18T15:36:16.000Z</time>
      </trkpt>
      <trkpt lat="43.96111" lon="5.13679">
        <ele>505</ele>
        <time>2013-02-18T15:36:19.000Z</time>
      </trkpt>
      <trkpt lat="43.96108" lon="5.13683">
        <ele>508.2</ele>
        <time>2013-02-18T15:36:20.000Z</time>
      </trkpt>
      <trkpt lat="43.96104" lon="5.13682">
        <ele>506.2</ele>
        <time>2013-02-18T15:36:24.000Z</time>
      </trkpt>
      <trkpt lat="43.96103" lon="5.13682">
        <ele>506</ele>
        <time>2013-02-18T15:36:25.000Z</time>
      </trkpt>
      <trkpt lat="43.961" lon="5.13678">
        <ele>505.1</ele>
        <time>2013-02-18T15:36:29.000Z</time>
      </trkpt>
      <trkpt lat="43.96099" lon="5.13678">
        <ele>504.5</ele>
        <time>2013-02-18T15:36:30.000Z</time>
      </trkpt>
      <trkpt lat="43.96097" lon="5.13676">
        <ele>502.8</ele>
        <time>2013-02-18T15:36:34.000Z</time>
      </trkpt>
      <trkpt lat="43.96105" lon="5.13661">
        <ele>501.7</ele>
        <time>2013-02-18T15:36:35.000Z</time>
      </trkpt>
      <trkpt lat="43.96107" lon="5.13657">
        <ele>500.9</ele>
        <time>2013-02-18T15:36:38.000Z</time>
      </trkpt>
      <trkpt lat="43.96108" lon="5.13656">
        <ele>501.3</ele>
        <time>2013-02-18T15:36:39.000Z</time>
      </trkpt>
      <trkpt lat="43.96112" lon="5.13653">
        <ele>501.1</ele>
        <time>2013-02-18T15:36:46.000Z</time>
      </trkpt>
      <trkpt lat="43.96112" lon="5.13653">
        <ele>501.1</ele>
        <time>2013-02-18T15:36:47.000Z</time>
      </trkpt>
      <trkpt lat="43.96117" lon="5.13652">
        <ele>501.2</ele>
        <time>2013-02-18T15:36:51.000Z</time>
      </trkpt>
      <trkpt lat="43.96118" lon="5.13653">
        <ele>500.7</ele>
        <time>2013-02-18T15:36:52.000Z</time>
      </trkpt>
      <trkpt lat="43.96119" lon="5.13647">
        <ele>505.7</ele>
        <time>2013-02-18T15:37:00.000Z</time>
      </trkpt>
      <trkpt lat="43.9612" lon="5.13647">
        <ele>506.4</ele>
        <time>2013-02-18T15:37:01.000Z</time>
      </trkpt>
      <trkpt lat="43.96123" lon="5.13647">
        <ele>506.7</ele>
        <time>2013-02-18T15:37:04.000Z</time>
      </trkpt>
      <trkpt lat="43.96124" lon="5.13647">
        <ele>506.8</ele>
        <time>2013-02-18T15:37:05.000Z</time>
      </trkpt>
      <trkpt lat="43.96124" lon="5.13643">
        <ele>507.3</ele>
        <time>2013-02-18T15:37:10.000Z</time>
      </trkpt>
      <trkpt lat="43.96131" lon="5.13649">
        <ele>505.9</ele>
        <time>2013-02-18T15:37:11.000Z</time>
      </trkpt>
      <trkpt lat="43.96134" lon="5.13647">
        <ele>508.3</ele>
        <time>2013-02-18T15:37:16.000Z</time>
      </trkpt>
      <trkpt lat="43.96136" lon="5.13647">
        <ele>508.8</ele>
        <time>2013-02-18T15:37:17.000Z</time>
      </trkpt>
      <trkpt lat="43.96139" lon="5.13645">
        <ele>509.3</ele>
        <time>2013-02-18T15:37:21.000Z</time>
      </trkpt>
      <trkpt lat="43.9614" lon="5.13645">
        <ele>509.1</ele>
        <time>2013-02-18T15:37:22.000Z</time>
      </trkpt>
      <trkpt lat="43.96144" lon="5.13646">
        <ele>509</ele>
        <time>2013-02-18T15:37:25.000Z</time>
      </trkpt>
      <trkpt lat="43.96145" lon="5.13646">
        <ele>508.9</ele>
        <time>2013-02-18T15:37:26.000Z</time>
      </trkpt>
      <trkpt lat="43.96149" lon="5.13644">
        <ele>509</ele>
        <time>2013-02-18T15:37:32.000Z</time>
      </trkpt>
      <trkpt lat="43.96151" lon="5.13645">
        <ele>508.5</ele>
        <time>2013-02-18T15:37:33.000Z</time>
      </trkpt>
      <trkpt lat="43.96154" lon="5.13647">
        <ele>508.4</ele>
        <time>2013-02-18T15:37:34.000Z</time>
      </trkpt>
      <trkpt lat="43.96156" lon="5.13648">
        <ele>508.1</ele>
        <time>2013-02-18T15:37:35.000Z</time>
      </trkpt>
      <trkpt lat="43.96159" lon="5.1365">
        <ele>508.9</ele>
        <time>2013-02-18T15:37:38.000Z</time>
      </trkpt>
      <trkpt lat="43.96161" lon="5.1365">
        <ele>508.6</ele>
        <time>2013-02-18T15:37:39.000Z</time>
      </trkpt>
      <trkpt lat="43.96164" lon="5.13646">
        <ele>507.6</ele>
        <time>2013-02-18T15:37:44.000Z</time>
      </trkpt>
      <trkpt lat="43.96165" lon="5.13646">
        <ele>507.8</ele>
        <time>2013-02-18T15:37:45.000Z</time>
      </trkpt>
      <trkpt lat="43.96169" lon="5.13645">
        <ele>508.6</ele>
        <time>2013-02-18T15:37:50.000Z</time>
      </trkpt>
      <trkpt lat="43.9617" lon="5.13645">
        <ele>509.3</ele>
        <time>2013-02-18T15:37:51.000Z</time>
      </trkpt>
      <trkpt lat="43.96174" lon="5.13645">
        <ele>509.8</ele>
        <time>2013-02-18T15:37:55.000Z</time>
      </trkpt>
      <trkpt lat="43.96175" lon="5.13644">
        <ele>509.8</ele>
        <time>2013-02-18T15:37:56.000Z</time>
      </trkpt>
      <trkpt lat="43.96179" lon="5.13643">
        <ele>510.3</ele>
        <time>2013-02-18T15:38:00.000Z</time>
      </trkpt>
      <trkpt lat="43.9618" lon="5.13642">
        <ele>510.5</ele>
        <time>2013-02-18T15:38:01.000Z</time>
      </trkpt>
      <trkpt lat="43.96183" lon="5.1364">
        <ele>510.2</ele>
        <time>2013-02-18T15:38:09.000Z</time>
      </trkpt>
      <trkpt lat="43.96184" lon="5.13639">
        <ele>510.3</ele>
        <time>2013-02-18T15:38:10.000Z</time>
      </trkpt>
      <trkpt lat="43.96187" lon="5.13638">
        <ele>510.5</ele>
        <time>2013-02-18T15:38:13.000Z</time>
      </trkpt>
      <trkpt lat="43.96188" lon="5.13637">
        <ele>510.5</ele>
        <time>2013-02-18T15:38:14.000Z</time>
      </trkpt>
      <trkpt lat="43.96185" lon="5.13638">
        <ele>511.7</ele>
        <time>2013-02-18T15:40:52.000Z</time>
      </trkpt>
      <trkpt lat="43.96184" lon="5.13639">
        <ele>511.9</ele>
        <time>2013-02-18T15:40:53.000Z</time>
      </trkpt>
      <trkpt lat="43.9618" lon="5.13642">
        <ele>512.5</ele>
        <time>2013-02-18T15:40:55.000Z</time>
      </trkpt>
      <trkpt lat="43.96177" lon="5.13642">
        <ele>510.9</ele>
        <time>2013-02-18T15:40:56.000Z</time>
      </trkpt>
      <trkpt lat="43.96175" lon="5.13644">
        <ele>510.8</ele>
        <time>2013-02-18T15:40:57.000Z</time>
      </trkpt>
      <trkpt lat="43.96172" lon="5.13645">
        <ele>510.9</ele>
        <time>2013-02-18T15:40:58.000Z</time>
      </trkpt>
      <trkpt lat="43.96168" lon="5.13645">
        <ele>510.7</ele>
        <time>2013-02-18T15:40:59.000Z</time>
      </trkpt>
      <trkpt lat="43.96165" lon="5.13646">
        <ele>510.3</ele>
        <time>2013-02-18T15:41:00.000Z</time>
      </trkpt>
      <trkpt lat="43.96161" lon="5.13646">
        <ele>509.9</ele>
        <time>2013-02-18T15:41:01.000Z</time>
      </trkpt>
      <trkpt lat="43.96156" lon="5.13645">
        <ele>509</ele>
        <time>2013-02-18T15:41:02.000Z</time>
      </trkpt>
      <trkpt lat="43.96151" lon="5.13645">
        <ele>508.3</ele>
        <time>2013-02-18T15:41:03.000Z</time>
      </trkpt>
      <trkpt lat="43.96146" lon="5.13645">
        <ele>507.7</ele>
        <time>2013-02-18T15:41:04.000Z</time>
      </trkpt>
      <trkpt lat="43.96141" lon="5.13648">
        <ele>506.4</ele>
        <time>2013-02-18T15:41:05.000Z</time>
      </trkpt>
      <trkpt lat="43.96136" lon="5.1365">
        <ele>505.4</ele>
        <time>2013-02-18T15:41:06.000Z</time>
      </trkpt>
      <trkpt lat="43.9613" lon="5.13651">
        <ele>504.6</ele>
        <time>2013-02-18T15:41:07.000Z</time>
      </trkpt>
      <trkpt lat="43.96125" lon="5.13652">
        <ele>503.5</ele>
        <time>2013-02-18T15:41:08.000Z</time>
      </trkpt>
      <trkpt lat="43.9612" lon="5.13653">
        <ele>502.6</ele>
        <time>2013-02-18T15:41:09.000Z</time>
      </trkpt>
      <trkpt lat="43.96115" lon="5.13656">
        <ele>501.5</ele>
        <time>2013-02-18T15:41:10.000Z</time>
      </trkpt>
      <trkpt lat="43.9611" lon="5.13658">
        <ele>501</ele>
        <time>2013-02-18T15:41:11.000Z</time>
      </trkpt>
      <trkpt lat="43.96106" lon="5.13661">
        <ele>501</ele>
        <time>2013-02-18T15:41:12.000Z</time>
      </trkpt>
      <trkpt lat="43.96103" lon="5.13664">
        <ele>499.9</ele>
        <time>2013-02-18T15:41:13.000Z</time>
      </trkpt>
      <trkpt lat="43.961" lon="5.13665">
        <ele>500</ele>
        <time>2013-02-18T15:41:14.000Z</time>
      </trkpt>
      <trkpt lat="43.96097" lon="5.13664">
        <ele>500.4</ele>
        <time>2013-02-18T15:41:15.000Z</time>
      </trkpt>
      <trkpt lat="43.96095" lon="5.13662">
        <ele>500.7</ele>
        <time>2013-02-18T15:41:16.000Z</time>
      </trkpt>
      <trkpt lat="43.96093" lon="5.1366">
        <ele>501</ele>
        <time>2013-02-18T15:41:17.000Z</time>
      </trkpt>
      <trkpt lat="43.96091" lon="5.13657">
        <ele>501.3</ele>
        <time>2013-02-18T15:41:18.000Z</time>
      </trkpt>
      <trkpt lat="43.96089" lon="5.13655">
        <ele>501.7</ele>
        <time>2013-02-18T15:41:19.000Z</time>
      </trkpt>
      <trkpt lat="43.96087" lon="5.13654">
        <ele>501.9</ele>
        <time>2013-02-18T15:41:20.000Z</time>
      </trkpt>
      <trkpt lat="43.96085" lon="5.13652">
        <ele>502.5</ele>
        <time>2013-02-18T15:41:21.000Z</time>
      </trkpt>
      <trkpt lat="43.96082" lon="5.1365">
        <ele>503</ele>
        <time>2013-02-18T15:41:22.000Z</time>
      </trkpt>
      <trkpt lat="43.9608" lon="5.13649">
        <ele>503.2</ele>
        <time>2013-02-18T15:41:23.000Z</time>
      </trkpt>
      <trkpt lat="43.96078" lon="5.13647">
        <ele>503.4</ele>
        <time>2013-02-18T15:41:24.000Z</time>
      </trkpt>
      <trkpt lat="43.96075" lon="5.13645">
        <ele>503.5</ele>
        <time>2013-02-18T15:41:25.000Z</time>
      </trkpt>
      <trkpt lat="43.96073" lon="5.13643">
        <ele>503.8</ele>
        <time>2013-02-18T15:41:26.000Z</time>
      </trkpt>
      <trkpt lat="43.96071" lon="5.13641">
        <ele>504.1</ele>
        <time>2013-02-18T15:41:27.000Z</time>
      </trkpt>
      <trkpt lat="43.96068" lon="5.1364">
        <ele>504.1</ele>
        <time>2013-02-18T15:41:28.000Z</time>
      </trkpt>
      <trkpt lat="43.96066" lon="5.13638">
        <ele>504.5</ele>
        <time>2013-02-18T15:41:29.000Z</time>
      </trkpt>
      <trkpt lat="43.96064" lon="5.13637">
        <ele>504.8</ele>
        <time>2013-02-18T15:41:30.000Z</time>
      </trkpt>
      <trkpt lat="43.96062" lon="5.13635">
        <ele>505.1</ele>
        <time>2013-02-18T15:41:31.000Z</time>
      </trkpt>
      <trkpt lat="43.96059" lon="5.13634">
        <ele>505.3</ele>
        <time>2013-02-18T15:41:32.000Z</time>
      </trkpt>
      <trkpt lat="43.96057" lon="5.13632">
        <ele>505.5</ele>
        <time>2013-02-18T15:41:33.000Z</time>
      </trkpt>
      <trkpt lat="43.96055" lon="5.13631">
        <ele>505.6</ele>
        <time>2013-02-18T15:41:34.000Z</time>
      </trkpt>
      <trkpt lat="43.96053" lon="5.13629">
        <ele>505.9</ele>
        <time>2013-02-18T15:41:35.000Z</time>
      </trkpt>
      <trkpt lat="43.96051" lon="5.13627">
        <ele>506</ele>
        <time>2013-02-18T15:41:36.000Z</time>
      </trkpt>
      <trkpt lat="43.96049" lon="5.13626">
        <ele>506.1</ele>
        <time>2013-02-18T15:41:37.000Z</time>
      </trkpt>
      <trkpt lat="43.96047" lon="5.13625">
        <ele>506.3</ele>
        <time>2013-02-18T15:41:38.000Z</time>
      </trkpt>
      <trkpt lat="43.96044" lon="5.13624">
        <ele>506.8</ele>
        <time>2013-02-18T15:41:39.000Z</time>
      </trkpt>
      <trkpt lat="43.96042" lon="5.13623">
        <ele>506.6</ele>
        <time>2013-02-18T15:41:40.000Z</time>
      </trkpt>
      <trkpt lat="43.9604" lon="5.13621">
        <ele>506.9</ele>
        <time>2013-02-18T15:41:41.000Z</time>
      </trkpt>
      <trkpt lat="43.96037" lon="5.1362">
        <ele>506.8</ele>
        <time>2013-02-18T15:41:42.000Z</time>
      </trkpt>
      <trkpt lat="43.96035" lon="5.13619">
        <ele>507.2</ele>
        <time>2013-02-18T15:41:43.000Z</time>
      </trkpt>
      <trkpt lat="43.96033" lon="5.13618">
        <ele>507.3</ele>
        <time>2013-02-18T15:41:44.000Z</time>
      </trkpt>
      <trkpt lat="43.96031" lon="5.13617">
        <ele>507.5</ele>
        <time>2013-02-18T15:41:45.000Z</time>
      </trkpt>
      <trkpt lat="43.96026" lon="5.13615">
        <ele>507.8</ele>
        <time>2013-02-18T15:41:47.000Z</time>
      </trkpt>
      <trkpt lat="43.96024" lon="5.13614">
        <ele>508</ele>
        <time>2013-02-18T15:41:48.000Z</time>
      </trkpt>
      <trkpt lat="43.9602" lon="5.13612">
        <ele>508.1</ele>
        <time>2013-02-18T15:41:50.000Z</time>
      </trkpt>
      <trkpt lat="43.96018" lon="5.13611">
        <ele>508.3</ele>
        <time>2013-02-18T15:41:51.000Z</time>
      </trkpt>
      <trkpt lat="43.96016" lon="5.13609">
        <ele>508.5</ele>
        <time>2013-02-18T15:41:52.000Z</time>
      </trkpt>
      <trkpt lat="43.96013" lon="5.13608">
        <ele>508.4</ele>
        <time>2013-02-18T15:41:53.000Z</time>
      </trkpt>
      <trkpt lat="43.96011" lon="5.13606">
        <ele>508.4</ele>
        <time>2013-02-18T15:41:54.000Z</time>
      </trkpt>
      <trkpt lat="43.96009" lon="5.13605">
        <ele>508.6</ele>
        <time>2013-02-18T15:41:55.000Z</time>
      </trkpt>
      <trkpt lat="43.96006" lon="5.13602">
        <ele>508.5</ele>
        <time>2013-02-18T15:41:57.000Z</time>
      </trkpt>
      <trkpt lat="43.96003" lon="5.136">
        <ele>509</ele>
        <time>2013-02-18T15:41:58.000Z</time>
      </trkpt>
      <trkpt lat="43.96" lon="5.13598">
        <ele>509.1</ele>
        <time>2013-02-18T15:42:00.000Z</time>
      </trkpt>
      <trkpt lat="43.95997" lon="5.13596">
        <ele>509.2</ele>
        <time>2013-02-18T15:42:01.000Z</time>
      </trkpt>
      <trkpt lat="43.95994" lon="5.13593">
        <ele>509.3</ele>
        <time>2013-02-18T15:42:03.000Z</time>
      </trkpt>
      <trkpt lat="43.95992" lon="5.13591">
        <ele>509.7</ele>
        <time>2013-02-18T15:42:04.000Z</time>
      </trkpt>
      <trkpt lat="43.9599" lon="5.1359">
        <ele>510.2</ele>
        <time>2013-02-18T15:42:05.000Z</time>
      </trkpt>
      <trkpt lat="43.95987" lon="5.13588">
        <ele>511.1</ele>
        <time>2013-02-18T15:42:06.000Z</time>
      </trkpt>
      <trkpt lat="43.95984" lon="5.13584">
        <ele>509.6</ele>
        <time>2013-02-18T15:42:08.000Z</time>
      </trkpt>
      <trkpt lat="43.95982" lon="5.13582">
        <ele>510.1</ele>
        <time>2013-02-18T15:42:09.000Z</time>
      </trkpt>
      <trkpt lat="43.95978" lon="5.13579">
        <ele>510.5</ele>
        <time>2013-02-18T15:42:11.000Z</time>
      </trkpt>
      <trkpt lat="43.95977" lon="5.13577">
        <ele>510.7</ele>
        <time>2013-02-18T15:42:12.000Z</time>
      </trkpt>
      <trkpt lat="43.95975" lon="5.13575">
        <ele>510.5</ele>
        <time>2013-02-18T15:42:13.000Z</time>
      </trkpt>
      <trkpt lat="43.95973" lon="5.13572">
        <ele>510.7</ele>
        <time>2013-02-18T15:42:14.000Z</time>
      </trkpt>
      <trkpt lat="43.9597" lon="5.13568">
        <ele>511</ele>
        <time>2013-02-18T15:42:16.000Z</time>
      </trkpt>
      <trkpt lat="43.95968" lon="5.13565">
        <ele>511.1</ele>
        <time>2013-02-18T15:42:17.000Z</time>
      </trkpt>
      <trkpt lat="43.95966" lon="5.1356">
        <ele>511.2</ele>
        <time>2013-02-18T15:42:19.000Z</time>
      </trkpt>
      <trkpt lat="43.95965" lon="5.13558">
        <ele>511.4</ele>
        <time>2013-02-18T15:42:20.000Z</time>
      </trkpt>
      <trkpt lat="43.95963" lon="5.13553">
        <ele>511.7</ele>
        <time>2013-02-18T15:42:22.000Z</time>
      </trkpt>
      <trkpt lat="43.95962" lon="5.13551">
        <ele>511.8</ele>
        <time>2013-02-18T15:42:23.000Z</time>
      </trkpt>
      <trkpt lat="43.9596" lon="5.13548">
        <ele>512</ele>
        <time>2013-02-18T15:42:25.000Z</time>
      </trkpt>
      <trkpt lat="43.95959" lon="5.13546">
        <ele>512.2</ele>
        <time>2013-02-18T15:42:26.000Z</time>
      </trkpt>
      <trkpt lat="43.95957" lon="5.13541">
        <ele>512.4</ele>
        <time>2013-02-18T15:42:28.000Z</time>
      </trkpt>
      <trkpt lat="43.95956" lon="5.13539">
        <ele>512.5</ele>
        <time>2013-02-18T15:42:29.000Z</time>
      </trkpt>
      <trkpt lat="43.95954" lon="5.13535">
        <ele>513.2</ele>
        <time>2013-02-18T15:42:31.000Z</time>
      </trkpt>
      <trkpt lat="43.95954" lon="5.13533">
        <ele>513.4</ele>
        <time>2013-02-18T15:42:32.000Z</time>
      </trkpt>
      <trkpt lat="43.95952" lon="5.1353">
        <ele>513.4</ele>
        <time>2013-02-18T15:42:34.000Z</time>
      </trkpt>
      <trkpt lat="43.95951" lon="5.13528">
        <ele>513.6</ele>
        <time>2013-02-18T15:42:35.000Z</time>
      </trkpt>
      <trkpt lat="43.95949" lon="5.13525">
        <ele>513.7</ele>
        <time>2013-02-18T15:42:37.000Z</time>
      </trkpt>
      <trkpt lat="43.95948" lon="5.13523">
        <ele>513.4</ele>
        <time>2013-02-18T15:42:38.000Z</time>
      </trkpt>
      <trkpt lat="43.95945" lon="5.1352">
        <ele>513.9</ele>
        <time>2013-02-18T15:42:40.000Z</time>
      </trkpt>
      <trkpt lat="43.95944" lon="5.13518">
        <ele>514.1</ele>
        <time>2013-02-18T15:42:41.000Z</time>
      </trkpt>
      <trkpt lat="43.95942" lon="5.13514">
        <ele>513.2</ele>
        <time>2013-02-18T15:42:43.000Z</time>
      </trkpt>
      <trkpt lat="43.95941" lon="5.13513">
        <ele>513.7</ele>
        <time>2013-02-18T15:42:44.000Z</time>
      </trkpt>
      <trkpt lat="43.95939" lon="5.13509">
        <ele>513.4</ele>
        <time>2013-02-18T15:42:46.000Z</time>
      </trkpt>
      <trkpt lat="43.95938" lon="5.13508">
        <ele>513.8</ele>
        <time>2013-02-18T15:42:47.000Z</time>
      </trkpt>
      <trkpt lat="43.95935" lon="5.13504">
        <ele>514.1</ele>
        <time>2013-02-18T15:42:49.000Z</time>
      </trkpt>
      <trkpt lat="43.95934" lon="5.13503">
        <ele>514.5</ele>
        <time>2013-02-18T15:42:50.000Z</time>
      </trkpt>
      <trkpt lat="43.95932" lon="5.135">
        <ele>514.8</ele>
        <time>2013-02-18T15:42:52.000Z</time>
      </trkpt>
      <trkpt lat="43.95931" lon="5.13498">
        <ele>515</ele>
        <time>2013-02-18T15:42:53.000Z</time>
      </trkpt>
      <trkpt lat="43.95928" lon="5.13495">
        <ele>515.5</ele>
        <time>2013-02-18T15:42:55.000Z</time>
      </trkpt>
      <trkpt lat="43.95927" lon="5.13493">
        <ele>515.7</ele>
        <time>2013-02-18T15:42:56.000Z</time>
      </trkpt>
      <trkpt lat="43.95925" lon="5.1349">
        <ele>516</ele>
        <time>2013-02-18T15:42:58.000Z</time>
      </trkpt>
      <trkpt lat="43.95923" lon="5.13489">
        <ele>516.5</ele>
        <time>2013-02-18T15:42:59.000Z</time>
      </trkpt>
      <trkpt lat="43.9592" lon="5.13485">
        <ele>517</ele>
        <time>2013-02-18T15:43:02.000Z</time>
      </trkpt>
      <trkpt lat="43.95918" lon="5.13484">
        <ele>517.4</ele>
        <time>2013-02-18T15:43:03.000Z</time>
      </trkpt>
      <trkpt lat="43.95916" lon="5.13481">
        <ele>517.9</ele>
        <time>2013-02-18T15:43:05.000Z</time>
      </trkpt>
      <trkpt lat="43.95914" lon="5.1348">
        <ele>518.1</ele>
        <time>2013-02-18T15:43:06.000Z</time>
      </trkpt>
      <trkpt lat="43.95911" lon="5.13477">
        <ele>518.8</ele>
        <time>2013-02-18T15:43:09.000Z</time>
      </trkpt>
      <trkpt lat="43.95909" lon="5.13476">
        <ele>519</ele>
        <time>2013-02-18T15:43:10.000Z</time>
      </trkpt>
      <trkpt lat="43.95907" lon="5.13473">
        <ele>519.1</ele>
        <time>2013-02-18T15:43:12.000Z</time>
      </trkpt>
      <trkpt lat="43.95906" lon="5.13472">
        <ele>519.4</ele>
        <time>2013-02-18T15:43:13.000Z</time>
      </trkpt>
      <trkpt lat="43.95903" lon="5.13469">
        <ele>520.1</ele>
        <time>2013-02-18T15:43:15.000Z</time>
      </trkpt>
      <trkpt lat="43.95902" lon="5.13467">
        <ele>520.3</ele>
        <time>2013-02-18T15:43:16.000Z</time>
      </trkpt>
      <trkpt lat="43.95899" lon="5.13464">
        <ele>520</ele>
        <time>2013-02-18T15:43:19.000Z</time>
      </trkpt>
      <trkpt lat="43.95897" lon="5.13463">
        <ele>520.4</ele>
        <time>2013-02-18T15:43:20.000Z</time>
      </trkpt>
      <trkpt lat="43.95893" lon="5.1346">
        <ele>521.1</ele>
        <time>2013-02-18T15:43:23.000Z</time>
      </trkpt>
      <trkpt lat="43.95892" lon="5.13459">
        <ele>521.4</ele>
        <time>2013-02-18T15:43:24.000Z</time>
      </trkpt>
      <trkpt lat="43.95889" lon="5.13455">
        <ele>521.9</ele>
        <time>2013-02-18T15:43:27.000Z</time>
      </trkpt>
      <trkpt lat="43.95887" lon="5.13454">
        <ele>522.1</ele>
        <time>2013-02-18T15:43:28.000Z</time>
      </trkpt>
      <trkpt lat="43.95884" lon="5.13451">
        <ele>522.8</ele>
        <time>2013-02-18T15:43:31.000Z</time>
      </trkpt>
      <trkpt lat="43.95882" lon="5.1345">
        <ele>522.9</ele>
        <time>2013-02-18T15:43:32.000Z</time>
      </trkpt>
      <trkpt lat="43.95879" lon="5.13448">
        <ele>523.2</ele>
        <time>2013-02-18T15:43:34.000Z</time>
      </trkpt>
      <trkpt lat="43.95878" lon="5.13447">
        <ele>523.5</ele>
        <time>2013-02-18T15:43:35.000Z</time>
      </trkpt>
      <trkpt lat="43.95875" lon="5.13444">
        <ele>524</ele>
        <time>2013-02-18T15:43:38.000Z</time>
      </trkpt>
      <trkpt lat="43.95874" lon="5.13442">
        <ele>523.9</ele>
        <time>2013-02-18T15:43:39.000Z</time>
      </trkpt>
      <trkpt lat="43.95871" lon="5.13438">
        <ele>525</ele>
        <time>2013-02-18T15:43:43.000Z</time>
      </trkpt>
      <trkpt lat="43.9587" lon="5.13437">
        <ele>525</ele>
        <time>2013-02-18T15:43:44.000Z</time>
      </trkpt>
      <trkpt lat="43.95869" lon="5.13432">
        <ele>523.3</ele>
        <time>2013-02-18T15:44:41.000Z</time>
      </trkpt>
      <trkpt lat="43.95868" lon="5.13429">
        <ele>524.9</ele>
        <time>2013-02-18T15:44:42.000Z</time>
      </trkpt>
      <trkpt lat="43.95867" lon="5.13424">
        <ele>523.9</ele>
        <time>2013-02-18T15:44:44.000Z</time>
      </trkpt>
      <trkpt lat="43.95866" lon="5.13421">
        <ele>523.7</ele>
        <time>2013-02-18T15:44:45.000Z</time>
      </trkpt>
      <trkpt lat="43.95865" lon="5.13417">
        <ele>524.5</ele>
        <time>2013-02-18T15:44:47.000Z</time>
      </trkpt>
      <trkpt lat="43.95865" lon="5.13414">
        <ele>524.8</ele>
        <time>2013-02-18T15:44:48.000Z</time>
      </trkpt>
      <trkpt lat="43.95865" lon="5.13409">
        <ele>525.9</ele>
        <time>2013-02-18T15:44:50.000Z</time>
      </trkpt>
      <trkpt lat="43.95865" lon="5.13407">
        <ele>525.8</ele>
        <time>2013-02-18T15:44:51.000Z</time>
      </trkpt>
      <trkpt lat="43.95865" lon="5.13402">
        <ele>526.7</ele>
        <time>2013-02-18T15:44:53.000Z</time>
      </trkpt>
      <trkpt lat="43.95865" lon="5.13399">
        <ele>527.2</ele>
        <time>2013-02-18T15:44:54.000Z</time>
      </trkpt>
      <trkpt lat="43.95864" lon="5.13395">
        <ele>527.6</ele>
        <time>2013-02-18T15:44:56.000Z</time>
      </trkpt>
      <trkpt lat="43.95864" lon="5.13392">
        <ele>527.6</ele>
        <time>2013-02-18T15:44:57.000Z</time>
      </trkpt>
      <trkpt lat="43.95863" lon="5.13387">
        <ele>527.5</ele>
        <time>2013-02-18T15:44:59.000Z</time>
      </trkpt>
      <trkpt lat="43.95863" lon="5.13384">
        <ele>527.8</ele>
        <time>2013-02-18T15:45:00.000Z</time>
      </trkpt>
      <trkpt lat="43.95861" lon="5.1338">
        <ele>528.4</ele>
        <time>2013-02-18T15:45:02.000Z</time>
      </trkpt>
      <trkpt lat="43.95861" lon="5.13378">
        <ele>528.8</ele>
        <time>2013-02-18T15:45:03.000Z</time>
      </trkpt>
      <trkpt lat="43.95859" lon="5.13374">
        <ele>529.6</ele>
        <time>2013-02-18T15:45:05.000Z</time>
      </trkpt>
      <trkpt lat="43.95858" lon="5.13371">
        <ele>529.4</ele>
        <time>2013-02-18T15:45:06.000Z</time>
      </trkpt>
      <trkpt lat="43.95857" lon="5.13367">
        <ele>529.7</ele>
        <time>2013-02-18T15:45:08.000Z</time>
      </trkpt>
      <trkpt lat="43.95856" lon="5.13365">
        <ele>529.7</ele>
        <time>2013-02-18T15:45:09.000Z</time>
      </trkpt>
      <trkpt lat="43.95855" lon="5.13361">
        <ele>529.9</ele>
        <time>2013-02-18T15:45:11.000Z</time>
      </trkpt>
      <trkpt lat="43.95854" lon="5.13359">
        <ele>530.1</ele>
        <time>2013-02-18T15:45:12.000Z</time>
      </trkpt>
      <trkpt lat="43.95853" lon="5.13354">
        <ele>530.6</ele>
        <time>2013-02-18T15:45:14.000Z</time>
      </trkpt>
      <trkpt lat="43.95852" lon="5.13353">
        <ele>530.8</ele>
        <time>2013-02-18T15:45:15.000Z</time>
      </trkpt>
      <trkpt lat="43.9585" lon="5.13349">
        <ele>531.1</ele>
        <time>2013-02-18T15:45:17.000Z</time>
      </trkpt>
      <trkpt lat="43.95849" lon="5.13347">
        <ele>531.3</ele>
        <time>2013-02-18T15:45:18.000Z</time>
      </trkpt>
      <trkpt lat="43.95847" lon="5.13342">
        <ele>532.9</ele>
        <time>2013-02-18T15:45:21.000Z</time>
      </trkpt>
      <trkpt lat="43.95846" lon="5.1334">
        <ele>533.1</ele>
        <time>2013-02-18T15:45:22.000Z</time>
      </trkpt>
      <trkpt lat="43.95844" lon="5.13335">
        <ele>534.2</ele>
        <time>2013-02-18T15:45:25.000Z</time>
      </trkpt>
      <trkpt lat="43.95843" lon="5.13334">
        <ele>533.9</ele>
        <time>2013-02-18T15:45:26.000Z</time>
      </trkpt>
      <trkpt lat="43.95842" lon="5.13328">
        <ele>534.1</ele>
        <time>2013-02-18T15:45:31.000Z</time>
      </trkpt>
      <trkpt lat="43.95841" lon="5.13327">
        <ele>534.1</ele>
        <time>2013-02-18T15:45:32.000Z</time>
      </trkpt>
      <trkpt lat="43.95839" lon="5.13322">
        <ele>535</ele>
        <time>2013-02-18T15:45:35.000Z</time>
      </trkpt>
      <trkpt lat="43.95839" lon="5.1332">
        <ele>534.9</ele>
        <time>2013-02-18T15:45:36.000Z</time>
      </trkpt>
      <trkpt lat="43.95837" lon="5.13314">
        <ele>535.9</ele>
        <time>2013-02-18T15:45:40.000Z</time>
      </trkpt>
      <trkpt lat="43.95837" lon="5.13312">
        <ele>536.1</ele>
        <time>2013-02-18T15:45:41.000Z</time>
      </trkpt>
      <trkpt lat="43.95835" lon="5.13307">
        <ele>536.3</ele>
        <time>2013-02-18T15:45:44.000Z</time>
      </trkpt>
      <trkpt lat="43.95835" lon="5.13305">
        <ele>536.3</ele>
        <time>2013-02-18T15:45:45.000Z</time>
      </trkpt>
      <trkpt lat="43.95834" lon="5.133">
        <ele>536.7</ele>
        <time>2013-02-18T15:45:48.000Z</time>
      </trkpt>
      <trkpt lat="43.95833" lon="5.13298">
        <ele>536.7</ele>
        <time>2013-02-18T15:45:49.000Z</time>
      </trkpt>
      <trkpt lat="43.95831" lon="5.13293">
        <ele>537.3</ele>
        <time>2013-02-18T15:45:52.000Z</time>
      </trkpt>
      <trkpt lat="43.9583" lon="5.13291">
        <ele>537.1</ele>
        <time>2013-02-18T15:45:53.000Z</time>
      </trkpt>
      <trkpt lat="43.95829" lon="5.13287">
        <ele>537.5</ele>
        <time>2013-02-18T15:45:56.000Z</time>
      </trkpt>
      <trkpt lat="43.95828" lon="5.13285">
        <ele>537.6</ele>
        <time>2013-02-18T15:45:57.000Z</time>
      </trkpt>
      <trkpt lat="43.95826" lon="5.13281">
        <ele>538</ele>
        <time>2013-02-18T15:46:00.000Z</time>
      </trkpt>
      <trkpt lat="43.95826" lon="5.1328">
        <ele>537.9</ele>
        <time>2013-02-18T15:46:01.000Z</time>
      </trkpt>
      <trkpt lat="43.95824" lon="5.13276">
        <ele>537.8</ele>
        <time>2013-02-18T15:46:04.000Z</time>
      </trkpt>
      <trkpt lat="43.95823" lon="5.13274">
        <ele>538</ele>
        <time>2013-02-18T15:46:05.000Z</time>
      </trkpt>
      <trkpt lat="43.95822" lon="5.1327">
        <ele>538</ele>
        <time>2013-02-18T15:46:08.000Z</time>
      </trkpt>
      <trkpt lat="43.95821" lon="5.13268">
        <ele>538.2</ele>
        <time>2013-02-18T15:46:09.000Z</time>
      </trkpt>
      <trkpt lat="43.95819" lon="5.13264">
        <ele>538.1</ele>
        <time>2013-02-18T15:46:12.000Z</time>
      </trkpt>
      <trkpt lat="43.95818" lon="5.13262">
        <ele>538.2</ele>
        <time>2013-02-18T15:46:13.000Z</time>
      </trkpt>
      <trkpt lat="43.95815" lon="5.13258">
        <ele>538.5</ele>
        <time>2013-02-18T15:46:17.000Z</time>
      </trkpt>
      <trkpt lat="43.95814" lon="5.13257">
        <ele>537.4</ele>
        <time>2013-02-18T15:46:18.000Z</time>
      </trkpt>
      <trkpt lat="43.95812" lon="5.13252">
        <ele>537.9</ele>
        <time>2013-02-18T15:46:21.000Z</time>
      </trkpt>
      <trkpt lat="43.95811" lon="5.1325">
        <ele>538.1</ele>
        <time>2013-02-18T15:46:22.000Z</time>
      </trkpt>
      <trkpt lat="43.95809" lon="5.13245">
        <ele>539.6</ele>
        <time>2013-02-18T15:46:26.000Z</time>
      </trkpt>
      <trkpt lat="43.95808" lon="5.13244">
        <ele>539.3</ele>
        <time>2013-02-18T15:46:27.000Z</time>
      </trkpt>
      <trkpt lat="43.95806" lon="5.1324">
        <ele>539</ele>
        <time>2013-02-18T15:46:30.000Z</time>
      </trkpt>
      <trkpt lat="43.95805" lon="5.13239">
        <ele>538.7</ele>
        <time>2013-02-18T15:46:31.000Z</time>
      </trkpt>
      <trkpt lat="43.95804" lon="5.13233">
        <ele>539.3</ele>
        <time>2013-02-18T15:46:34.000Z</time>
      </trkpt>
      <trkpt lat="43.95804" lon="5.13232">
        <ele>539.1</ele>
        <time>2013-02-18T15:46:35.000Z</time>
      </trkpt>
      <trkpt lat="43.95804" lon="5.13227">
        <ele>540.7</ele>
        <time>2013-02-18T15:46:38.000Z</time>
      </trkpt>
      <trkpt lat="43.95804" lon="5.13225">
        <ele>540.9</ele>
        <time>2013-02-18T15:46:39.000Z</time>
      </trkpt>
      <trkpt lat="43.95801" lon="5.1322">
        <ele>542.1</ele>
        <time>2013-02-18T15:46:44.000Z</time>
      </trkpt>
      <trkpt lat="43.958" lon="5.1322">
        <ele>542.3</ele>
        <time>2013-02-18T15:46:45.000Z</time>
      </trkpt>
      <trkpt lat="43.95796" lon="5.13222">
        <ele>543.2</ele>
        <time>2013-02-18T15:47:14.000Z</time>
      </trkpt>
      <trkpt lat="43.95794" lon="5.13222">
        <ele>543.2</ele>
        <time>2013-02-18T15:47:15.000Z</time>
      </trkpt>
      <trkpt lat="43.95791" lon="5.13223">
        <ele>541.7</ele>
        <time>2013-02-18T15:47:20.000Z</time>
      </trkpt>
      <trkpt lat="43.9579" lon="5.13224">
        <ele>541.6</ele>
        <time>2013-02-18T15:47:21.000Z</time>
      </trkpt>
      <trkpt lat="43.95787" lon="5.13226">
        <ele>542</ele>
        <time>2013-02-18T15:47:23.000Z</time>
      </trkpt>
      <trkpt lat="43.95786" lon="5.13228">
        <ele>542.1</ele>
        <time>2013-02-18T15:47:24.000Z</time>
      </trkpt>
      <trkpt lat="43.95783" lon="5.13231">
        <ele>542.3</ele>
        <time>2013-02-18T15:47:26.000Z</time>
      </trkpt>
      <trkpt lat="43.95782" lon="5.13232">
        <ele>543.9</ele>
        <time>2013-02-18T15:47:27.000Z</time>
      </trkpt>
      <trkpt lat="43.95781" lon="5.13236">
        <ele>544.6</ele>
        <time>2013-02-18T15:47:29.000Z</time>
      </trkpt>
      <trkpt lat="43.9578" lon="5.13238">
        <ele>545.6</ele>
        <time>2013-02-18T15:47:30.000Z</time>
      </trkpt>
      <trkpt lat="43.9578" lon="5.13244">
        <ele>544.9</ele>
        <time>2013-02-18T15:47:33.000Z</time>
      </trkpt>
      <trkpt lat="43.95779" lon="5.13245">
        <ele>544.6</ele>
        <time>2013-02-18T15:47:34.000Z</time>
      </trkpt>
      <trkpt lat="43.95777" lon="5.13249">
        <ele>543.8</ele>
        <time>2013-02-18T15:47:36.000Z</time>
      </trkpt>
      <trkpt lat="43.95775" lon="5.1325">
        <ele>543.9</ele>
        <time>2013-02-18T15:47:37.000Z</time>
      </trkpt>
      <trkpt lat="43.95771" lon="5.1325">
        <ele>542.5</ele>
        <time>2013-02-18T15:47:39.000Z</time>
      </trkpt>
      <trkpt lat="43.9577" lon="5.13251">
        <ele>542.1</ele>
        <time>2013-02-18T15:47:40.000Z</time>
      </trkpt>
      <trkpt lat="43.95766" lon="5.13253">
        <ele>542</ele>
        <time>2013-02-18T15:47:42.000Z</time>
      </trkpt>
      <trkpt lat="43.95764" lon="5.13254">
        <ele>542</ele>
        <time>2013-02-18T15:47:43.000Z</time>
      </trkpt>
      <trkpt lat="43.9576" lon="5.13257">
        <ele>541.9</ele>
        <time>2013-02-18T15:47:45.000Z</time>
      </trkpt>
      <trkpt lat="43.95758" lon="5.13258">
        <ele>541.9</ele>
        <time>2013-02-18T15:47:46.000Z</time>
      </trkpt>
      <trkpt lat="43.95754" lon="5.1326">
        <ele>542.3</ele>
        <time>2013-02-18T15:47:48.000Z</time>
      </trkpt>
      <trkpt lat="43.95752" lon="5.13261">
        <ele>542.6</ele>
        <time>2013-02-18T15:47:49.000Z</time>
      </trkpt>
      <trkpt lat="43.95749" lon="5.13263">
        <ele>543</ele>
        <time>2013-02-18T15:47:51.000Z</time>
      </trkpt>
      <trkpt lat="43.95747" lon="5.13263">
        <ele>543.2</ele>
        <time>2013-02-18T15:47:52.000Z</time>
      </trkpt>
      <trkpt lat="43.95742" lon="5.13264">
        <ele>543.3</ele>
        <time>2013-02-18T15:47:54.000Z</time>
      </trkpt>
      <trkpt lat="43.9574" lon="5.13263">
        <ele>543.9</ele>
        <time>2013-02-18T15:47:55.000Z</time>
      </trkpt>
      <trkpt lat="43.95737" lon="5.13264">
        <ele>544.2</ele>
        <time>2013-02-18T15:47:57.000Z</time>
      </trkpt>
      <trkpt lat="43.95735" lon="5.13264">
        <ele>544.5</ele>
        <time>2013-02-18T15:47:58.000Z</time>
      </trkpt>
      <trkpt lat="43.95731" lon="5.13264">
        <ele>544.7</ele>
        <time>2013-02-18T15:48:00.000Z</time>
      </trkpt>
      <trkpt lat="43.95729" lon="5.13264">
        <ele>545.2</ele>
        <time>2013-02-18T15:48:01.000Z</time>
      </trkpt>
      <trkpt lat="43.95725" lon="5.13263">
        <ele>545.3</ele>
        <time>2013-02-18T15:48:03.000Z</time>
      </trkpt>
      <trkpt lat="43.95724" lon="5.13263">
        <ele>545.7</ele>
        <time>2013-02-18T15:48:04.000Z</time>
      </trkpt>
      <trkpt lat="43.9572" lon="5.13262">
        <ele>546.4</ele>
        <time>2013-02-18T15:48:06.000Z</time>
      </trkpt>
      <trkpt lat="43.95718" lon="5.13263">
        <ele>546.9</ele>
        <time>2013-02-18T15:48:07.000Z</time>
      </trkpt>
      <trkpt lat="43.95714" lon="5.13265">
        <ele>547.8</ele>
        <time>2013-02-18T15:48:10.000Z</time>
      </trkpt>
      <trkpt lat="43.95712" lon="5.13266">
        <ele>548.2</ele>
        <time>2013-02-18T15:48:11.000Z</time>
      </trkpt>
      <trkpt lat="43.9571" lon="5.13268">
        <ele>548.4</ele>
        <time>2013-02-18T15:48:13.000Z</time>
      </trkpt>
      <trkpt lat="43.95709" lon="5.1327">
        <ele>548.8</ele>
        <time>2013-02-18T15:48:14.000Z</time>
      </trkpt>
      <trkpt lat="43.95706" lon="5.13274">
        <ele>549.4</ele>
        <time>2013-02-18T15:48:17.000Z</time>
      </trkpt>
      <trkpt lat="43.95705" lon="5.13276">
        <ele>549.5</ele>
        <time>2013-02-18T15:48:18.000Z</time>
      </trkpt>
      <trkpt lat="43.95702" lon="5.13279">
        <ele>550.1</ele>
        <time>2013-02-18T15:48:20.000Z</time>
      </trkpt>
      <trkpt lat="43.95701" lon="5.1328">
        <ele>550.6</ele>
        <time>2013-02-18T15:48:21.000Z</time>
      </trkpt>
      <trkpt lat="43.95698" lon="5.13283">
        <ele>550.7</ele>
        <time>2013-02-18T15:48:24.000Z</time>
      </trkpt>
      <trkpt lat="43.95697" lon="5.13284">
        <ele>550.8</ele>
        <time>2013-02-18T15:48:25.000Z</time>
      </trkpt>
      <trkpt lat="43.95694" lon="5.13287">
        <ele>551</ele>
        <time>2013-02-18T15:48:28.000Z</time>
      </trkpt>
      <trkpt lat="43.95693" lon="5.13288">
        <ele>551</ele>
        <time>2013-02-18T15:48:29.000Z</time>
      </trkpt>
      <trkpt lat="43.9569" lon="5.13292">
        <ele>550.9</ele>
        <time>2013-02-18T15:48:32.000Z</time>
      </trkpt>
      <trkpt lat="43.95689" lon="5.13294">
        <ele>550.7</ele>
        <time>2013-02-18T15:48:33.000Z</time>
      </trkpt>
      <trkpt lat="43.95686" lon="5.13298">
        <ele>551.2</ele>
        <time>2013-02-18T15:48:36.000Z</time>
      </trkpt>
      <trkpt lat="43.95685" lon="5.13299">
        <ele>551.3</ele>
        <time>2013-02-18T15:48:37.000Z</time>
      </trkpt>
      <trkpt lat="43.95682" lon="5.13303">
        <ele>551.8</ele>
        <time>2013-02-18T15:48:40.000Z</time>
      </trkpt>
      <trkpt lat="43.95681" lon="5.13304">
        <ele>552.1</ele>
        <time>2013-02-18T15:48:41.000Z</time>
      </trkpt>
      <trkpt lat="43.95679" lon="5.13307">
        <ele>553</ele>
        <time>2013-02-18T15:48:44.000Z</time>
      </trkpt>
      <trkpt lat="43.95678" lon="5.13309">
        <ele>553.4</ele>
        <time>2013-02-18T15:48:45.000Z</time>
      </trkpt>
      <trkpt lat="43.95675" lon="5.13311">
        <ele>553.6</ele>
        <time>2013-02-18T15:48:48.000Z</time>
      </trkpt>
      <trkpt lat="43.95674" lon="5.13313">
        <ele>553.6</ele>
        <time>2013-02-18T15:48:49.000Z</time>
      </trkpt>
      <trkpt lat="43.95671" lon="5.13316">
        <ele>554.1</ele>
        <time>2013-02-18T15:48:52.000Z</time>
      </trkpt>
      <trkpt lat="43.95669" lon="5.13316">
        <ele>554.3</ele>
        <time>2013-02-18T15:48:53.000Z</time>
      </trkpt>
      <trkpt lat="43.95665" lon="5.13319">
        <ele>555.4</ele>
        <time>2013-02-18T15:48:58.000Z</time>
      </trkpt>
      <trkpt lat="43.95665" lon="5.1332">
        <ele>554.6</ele>
        <time>2013-02-18T15:48:59.000Z</time>
      </trkpt>
      <trkpt lat="43.95662" lon="5.13323">
        <ele>556.5</ele>
        <time>2013-02-18T15:49:02.000Z</time>
      </trkpt>
      <trkpt lat="43.95662" lon="5.13324">
        <ele>557.1</ele>
        <time>2013-02-18T15:49:03.000Z</time>
      </trkpt>
      <trkpt lat="43.95659" lon="5.13327">
        <ele>557.9</ele>
        <time>2013-02-18T15:49:07.000Z</time>
      </trkpt>
      <trkpt lat="43.95657" lon="5.13329">
        <ele>558.6</ele>
        <time>2013-02-18T15:49:09.000Z</time>
      </trkpt>
      <trkpt lat="43.95653" lon="5.13333">
        <ele>558.2</ele>
        <time>2013-02-18T15:49:17.000Z</time>
      </trkpt>
      <trkpt lat="43.95652" lon="5.13334">
        <ele>558.7</ele>
        <time>2013-02-18T15:49:18.000Z</time>
      </trkpt>
      <trkpt lat="43.95649" lon="5.13338">
        <ele>559</ele>
        <time>2013-02-18T15:49:22.000Z</time>
      </trkpt>
      <trkpt lat="43.95648" lon="5.13339">
        <ele>559.2</ele>
        <time>2013-02-18T15:49:23.000Z</time>
      </trkpt>
      <trkpt lat="43.95646" lon="5.13342">
        <ele>559.9</ele>
        <time>2013-02-18T15:49:26.000Z</time>
      </trkpt>
      <trkpt lat="43.95645" lon="5.13343">
        <ele>560.5</ele>
        <time>2013-02-18T15:49:27.000Z</time>
      </trkpt>
      <trkpt lat="43.95642" lon="5.13348">
        <ele>563.3</ele>
        <time>2013-02-18T15:49:31.000Z</time>
      </trkpt>
      <trkpt lat="43.95642" lon="5.13349">
        <ele>563.3</ele>
        <time>2013-02-18T15:49:32.000Z</time>
      </trkpt>
      <trkpt lat="43.95638" lon="5.13352">
        <ele>562.1</ele>
        <time>2013-02-18T15:49:35.000Z</time>
      </trkpt>
      <trkpt lat="43.95637" lon="5.13354">
        <ele>561.9</ele>
        <time>2013-02-18T15:49:36.000Z</time>
      </trkpt>
      <trkpt lat="43.95634" lon="5.13357">
        <ele>562.4</ele>
        <time>2013-02-18T15:49:40.000Z</time>
      </trkpt>
      <trkpt lat="43.95633" lon="5.13357">
        <ele>562</ele>
        <time>2013-02-18T15:49:41.000Z</time>
      </trkpt>
      <trkpt lat="43.95629" lon="5.13358">
        <ele>563.4</ele>
        <time>2013-02-18T15:49:44.000Z</time>
      </trkpt>
      <trkpt lat="43.95628" lon="5.13358">
        <ele>563.5</ele>
        <time>2013-02-18T15:49:45.000Z</time>
      </trkpt>
      <trkpt lat="43.95626" lon="5.13353">
        <ele>562.9</ele>
        <time>2013-02-18T15:50:19.000Z</time>
      </trkpt>
      <trkpt lat="43.95626" lon="5.13351">
        <ele>563.1</ele>
        <time>2013-02-18T15:50:20.000Z</time>
      </trkpt>
      <trkpt lat="43.95627" lon="5.13347">
        <ele>562.5</ele>
        <time>2013-02-18T15:50:21.000Z</time>
      </trkpt>
      <trkpt lat="43.95627" lon="5.13344">
        <ele>562.9</ele>
        <time>2013-02-18T15:50:22.000Z</time>
      </trkpt>
      <trkpt lat="43.95627" lon="5.13341">
        <ele>562.9</ele>
        <time>2013-02-18T15:50:23.000Z</time>
      </trkpt>
      <trkpt lat="43.95628" lon="5.13338">
        <ele>562.5</ele>
        <time>2013-02-18T15:50:24.000Z</time>
      </trkpt>
      <trkpt lat="43.95629" lon="5.13335">
        <ele>562.2</ele>
        <time>2013-02-18T15:50:25.000Z</time>
      </trkpt>
      <trkpt lat="43.95631" lon="5.13333">
        <ele>562</ele>
        <time>2013-02-18T15:50:26.000Z</time>
      </trkpt>
      <trkpt lat="43.95632" lon="5.13329">
        <ele>561.8</ele>
        <time>2013-02-18T15:50:27.000Z</time>
      </trkpt>
      <trkpt lat="43.95633" lon="5.13326">
        <ele>561.2</ele>
        <time>2013-02-18T15:50:28.000Z</time>
      </trkpt>
      <trkpt lat="43.95634" lon="5.13322">
        <ele>561</ele>
        <time>2013-02-18T15:50:29.000Z</time>
      </trkpt>
      <trkpt lat="43.95635" lon="5.13319">
        <ele>561.1</ele>
        <time>2013-02-18T15:50:30.000Z</time>
      </trkpt>
      <trkpt lat="43.95636" lon="5.13315">
        <ele>561.3</ele>
        <time>2013-02-18T15:50:31.000Z</time>
      </trkpt>
      <trkpt lat="43.95636" lon="5.13312">
        <ele>561.2</ele>
        <time>2013-02-18T15:50:32.000Z</time>
      </trkpt>
      <trkpt lat="43.95637" lon="5.13308">
        <ele>561.2</ele>
        <time>2013-02-18T15:50:33.000Z</time>
      </trkpt>
      <trkpt lat="43.95636" lon="5.13303">
        <ele>561.3</ele>
        <time>2013-02-18T15:50:34.000Z</time>
      </trkpt>
      <trkpt lat="43.95635" lon="5.133">
        <ele>561.5</ele>
        <time>2013-02-18T15:50:35.000Z</time>
      </trkpt>
      <trkpt lat="43.95635" lon="5.13297">
        <ele>561.7</ele>
        <time>2013-02-18T15:50:36.000Z</time>
      </trkpt>
      <trkpt lat="43.95635" lon="5.13291">
        <ele>560.8</ele>
        <time>2013-02-18T15:50:38.000Z</time>
      </trkpt>
      <trkpt lat="43.95635" lon="5.13288">
        <ele>560.6</ele>
        <time>2013-02-18T15:50:39.000Z</time>
      </trkpt>
      <trkpt lat="43.95636" lon="5.13284">
        <ele>560.5</ele>
        <time>2013-02-18T15:50:40.000Z</time>
      </trkpt>
      <trkpt lat="43.95638" lon="5.13281">
        <ele>560.5</ele>
        <time>2013-02-18T15:50:41.000Z</time>
      </trkpt>
      <trkpt lat="43.9564" lon="5.13278">
        <ele>560.8</ele>
        <time>2013-02-18T15:50:42.000Z</time>
      </trkpt>
      <trkpt lat="43.95642" lon="5.13276">
        <ele>561.3</ele>
        <time>2013-02-18T15:50:43.000Z</time>
      </trkpt>
      <trkpt lat="43.95644" lon="5.13272">
        <ele>560.5</ele>
        <time>2013-02-18T15:50:44.000Z</time>
      </trkpt>
      <trkpt lat="43.95645" lon="5.13269">
        <ele>560.3</ele>
        <time>2013-02-18T15:50:45.000Z</time>
      </trkpt>
      <trkpt lat="43.95646" lon="5.13265">
        <ele>560.2</ele>
        <time>2013-02-18T15:50:46.000Z</time>
      </trkpt>
      <trkpt lat="43.95645" lon="5.1326">
        <ele>559.6</ele>
        <time>2013-02-18T15:50:47.000Z</time>
      </trkpt>
      <trkpt lat="43.95645" lon="5.13256">
        <ele>558.9</ele>
        <time>2013-02-18T15:50:48.000Z</time>
      </trkpt>
      <trkpt lat="43.95644" lon="5.13252">
        <ele>558.7</ele>
        <time>2013-02-18T15:50:49.000Z</time>
      </trkpt>
      <trkpt lat="43.95642" lon="5.13248">
        <ele>558.7</ele>
        <time>2013-02-18T15:50:50.000Z</time>
      </trkpt>
      <trkpt lat="43.95641" lon="5.13244">
        <ele>558.5</ele>
        <time>2013-02-18T15:50:51.000Z</time>
      </trkpt>
      <trkpt lat="43.9564" lon="5.1324">
        <ele>558.5</ele>
        <time>2013-02-18T15:50:52.000Z</time>
      </trkpt>
      <trkpt lat="43.9564" lon="5.13235">
        <ele>557.6</ele>
        <time>2013-02-18T15:50:53.000Z</time>
      </trkpt>
      <trkpt lat="43.9564" lon="5.1323">
        <ele>557.4</ele>
        <time>2013-02-18T15:50:54.000Z</time>
      </trkpt>
      <trkpt lat="43.9564" lon="5.13226">
        <ele>557.1</ele>
        <time>2013-02-18T15:50:55.000Z</time>
      </trkpt>
      <trkpt lat="43.9564" lon="5.13222">
        <ele>556.4</ele>
        <time>2013-02-18T15:50:56.000Z</time>
      </trkpt>
      <trkpt lat="43.9564" lon="5.13218">
        <ele>556.2</ele>
        <time>2013-02-18T15:50:57.000Z</time>
      </trkpt>
      <trkpt lat="43.95637" lon="5.13215">
        <ele>555.5</ele>
        <time>2013-02-18T15:50:58.000Z</time>
      </trkpt>
      <trkpt lat="43.95636" lon="5.13212">
        <ele>555.9</ele>
        <time>2013-02-18T15:50:59.000Z</time>
      </trkpt>
      <trkpt lat="43.95633" lon="5.13209">
        <ele>555.7</ele>
        <time>2013-02-18T15:51:00.000Z</time>
      </trkpt>
      <trkpt lat="43.9563" lon="5.13207">
        <ele>555.5</ele>
        <time>2013-02-18T15:51:01.000Z</time>
      </trkpt>
      <trkpt lat="43.95628" lon="5.13203">
        <ele>555.4</ele>
        <time>2013-02-18T15:51:02.000Z</time>
      </trkpt>
      <trkpt lat="43.95627" lon="5.13199">
        <ele>555.2</ele>
        <time>2013-02-18T15:51:03.000Z</time>
      </trkpt>
      <trkpt lat="43.95627" lon="5.13194">
        <ele>554.8</ele>
        <time>2013-02-18T15:51:04.000Z</time>
      </trkpt>
      <trkpt lat="43.95626" lon="5.13189">
        <ele>554.3</ele>
        <time>2013-02-18T15:51:05.000Z</time>
      </trkpt>
      <trkpt lat="43.95625" lon="5.13184">
        <ele>553.5</ele>
        <time>2013-02-18T15:51:06.000Z</time>
      </trkpt>
      <trkpt lat="43.95623" lon="5.1318">
        <ele>553.2</ele>
        <time>2013-02-18T15:51:07.000Z</time>
      </trkpt>
      <trkpt lat="43.95621" lon="5.13174">
        <ele>552.6</ele>
        <time>2013-02-18T15:51:08.000Z</time>
      </trkpt>
      <trkpt lat="43.95619" lon="5.13169">
        <ele>552.5</ele>
        <time>2013-02-18T15:51:09.000Z</time>
      </trkpt>
      <trkpt lat="43.95618" lon="5.13164">
        <ele>551.6</ele>
        <time>2013-02-18T15:51:10.000Z</time>
      </trkpt>
      <trkpt lat="43.95617" lon="5.13159">
        <ele>551.5</ele>
        <time>2013-02-18T15:51:11.000Z</time>
      </trkpt>
      <trkpt lat="43.95616" lon="5.13153">
        <ele>551.2</ele>
        <time>2013-02-18T15:51:12.000Z</time>
      </trkpt>
      <trkpt lat="43.95615" lon="5.13148">
        <ele>551</ele>
        <time>2013-02-18T15:51:13.000Z</time>
      </trkpt>
      <trkpt lat="43.95613" lon="5.13142">
        <ele>550.4</ele>
        <time>2013-02-18T15:51:14.000Z</time>
      </trkpt>
      <trkpt lat="43.95611" lon="5.13136">
        <ele>550</ele>
        <time>2013-02-18T15:51:15.000Z</time>
      </trkpt>
      <trkpt lat="43.95609" lon="5.1313">
        <ele>549.7</ele>
        <time>2013-02-18T15:51:16.000Z</time>
      </trkpt>
      <trkpt lat="43.95607" lon="5.13124">
        <ele>549.5</ele>
        <time>2013-02-18T15:51:17.000Z</time>
      </trkpt>
      <trkpt lat="43.95606" lon="5.13118">
        <ele>549.3</ele>
        <time>2013-02-18T15:51:18.000Z</time>
      </trkpt>
      <trkpt lat="43.95604" lon="5.13112">
        <ele>549.1</ele>
        <time>2013-02-18T15:51:19.000Z</time>
      </trkpt>
      <trkpt lat="43.95604" lon="5.13106">
        <ele>548.9</ele>
        <time>2013-02-18T15:51:20.000Z</time>
      </trkpt>
      <trkpt lat="43.95604" lon="5.131">
        <ele>548.9</ele>
        <time>2013-02-18T15:51:21.000Z</time>
      </trkpt>
      <trkpt lat="43.95604" lon="5.13093">
        <ele>549.2</ele>
        <time>2013-02-18T15:51:22.000Z</time>
      </trkpt>
      <trkpt lat="43.95604" lon="5.13087">
        <ele>548.6</ele>
        <time>2013-02-18T15:51:23.000Z</time>
      </trkpt>
      <trkpt lat="43.95603" lon="5.13082">
        <ele>548.5</ele>
        <time>2013-02-18T15:51:24.000Z</time>
      </trkpt>
      <trkpt lat="43.95602" lon="5.13077">
        <ele>548.4</ele>
        <time>2013-02-18T15:51:25.000Z</time>
      </trkpt>
      <trkpt lat="43.95601" lon="5.13073">
        <ele>548.3</ele>
        <time>2013-02-18T15:51:26.000Z</time>
      </trkpt>
      <trkpt lat="43.956" lon="5.13069">
        <ele>548.3</ele>
        <time>2013-02-18T15:51:27.000Z</time>
      </trkpt>
      <trkpt lat="43.95601" lon="5.13064">
        <ele>548.1</ele>
        <time>2013-02-18T15:51:28.000Z</time>
      </trkpt>
      <trkpt lat="43.95602" lon="5.1306">
        <ele>548.2</ele>
        <time>2013-02-18T15:51:29.000Z</time>
      </trkpt>
      <trkpt lat="43.95602" lon="5.13057">
        <ele>547.9</ele>
        <time>2013-02-18T15:51:30.000Z</time>
      </trkpt>
      <trkpt lat="43.95602" lon="5.13053">
        <ele>548</ele>
        <time>2013-02-18T15:51:31.000Z</time>
      </trkpt>
      <trkpt lat="43.95602" lon="5.13049">
        <ele>548.1</ele>
        <time>2013-02-18T15:51:32.000Z</time>
      </trkpt>
      <trkpt lat="43.95603" lon="5.13045">
        <ele>547.8</ele>
        <time>2013-02-18T15:51:33.000Z</time>
      </trkpt>
      <trkpt lat="43.95604" lon="5.13042">
        <ele>548.4</ele>
        <time>2013-02-18T15:51:34.000Z</time>
      </trkpt>
      <trkpt lat="43.95605" lon="5.13039">
        <ele>548.4</ele>
        <time>2013-02-18T15:51:35.000Z</time>
      </trkpt>
      <trkpt lat="43.95607" lon="5.13036">
        <ele>548</ele>
        <time>2013-02-18T15:51:36.000Z</time>
      </trkpt>
      <trkpt lat="43.95609" lon="5.13033">
        <ele>547.8</ele>
        <time>2013-02-18T15:51:37.000Z</time>
      </trkpt>
      <trkpt lat="43.95611" lon="5.1303">
        <ele>547.5</ele>
        <time>2013-02-18T15:51:38.000Z</time>
      </trkpt>
      <trkpt lat="43.95614" lon="5.13027">
        <ele>547.1</ele>
        <time>2013-02-18T15:51:40.000Z</time>
      </trkpt>
      <trkpt lat="43.95616" lon="5.13024">
        <ele>546.6</ele>
        <time>2013-02-18T15:51:41.000Z</time>
      </trkpt>
      <trkpt lat="43.95618" lon="5.1302">
        <ele>546.9</ele>
        <time>2013-02-18T15:51:42.000Z</time>
      </trkpt>
      <trkpt lat="43.9562" lon="5.13017">
        <ele>546.7</ele>
        <time>2013-02-18T15:51:43.000Z</time>
      </trkpt>
      <trkpt lat="43.95622" lon="5.13014">
        <ele>546.6</ele>
        <time>2013-02-18T15:51:44.000Z</time>
      </trkpt>
      <trkpt lat="43.95624" lon="5.1301">
        <ele>546.6</ele>
        <time>2013-02-18T15:51:45.000Z</time>
      </trkpt>
      <trkpt lat="43.95625" lon="5.13007">
        <ele>546.6</ele>
        <time>2013-02-18T15:51:46.000Z</time>
      </trkpt>
      <trkpt lat="43.95627" lon="5.13003">
        <ele>546.8</ele>
        <time>2013-02-18T15:51:47.000Z</time>
      </trkpt>
      <trkpt lat="43.95629" lon="5.12999">
        <ele>546.7</ele>
        <time>2013-02-18T15:51:48.000Z</time>
      </trkpt>
      <trkpt lat="43.95631" lon="5.12994">
        <ele>547</ele>
        <time>2013-02-18T15:51:49.000Z</time>
      </trkpt>
      <trkpt lat="43.95633" lon="5.12991">
        <ele>546.8</ele>
        <time>2013-02-18T15:51:50.000Z</time>
      </trkpt>
      <trkpt lat="43.95635" lon="5.12988">
        <ele>546.7</ele>
        <time>2013-02-18T15:51:51.000Z</time>
      </trkpt>
      <trkpt lat="43.95637" lon="5.12984">
        <ele>546.7</ele>
        <time>2013-02-18T15:51:52.000Z</time>
      </trkpt>
      <trkpt lat="43.9564" lon="5.12981">
        <ele>546.3</ele>
        <time>2013-02-18T15:51:53.000Z</time>
      </trkpt>
      <trkpt lat="43.95642" lon="5.12975">
        <ele>545.9</ele>
        <time>2013-02-18T15:51:54.000Z</time>
      </trkpt>
      <trkpt lat="43.95643" lon="5.12971">
        <ele>546.4</ele>
        <time>2013-02-18T15:51:55.000Z</time>
      </trkpt>
      <trkpt lat="43.95644" lon="5.12966">
        <ele>546.7</ele>
        <time>2013-02-18T15:51:56.000Z</time>
      </trkpt>
      <trkpt lat="43.95644" lon="5.12961">
        <ele>547.2</ele>
        <time>2013-02-18T15:51:57.000Z</time>
      </trkpt>
      <trkpt lat="43.95645" lon="5.12957">
        <ele>547.6</ele>
        <time>2013-02-18T15:51:58.000Z</time>
      </trkpt>
      <trkpt lat="43.95645" lon="5.12952">
        <ele>547.1</ele>
        <time>2013-02-18T15:51:59.000Z</time>
      </trkpt>
      <trkpt lat="43.95646" lon="5.12948">
        <ele>547.3</ele>
        <time>2013-02-18T15:52:00.000Z</time>
      </trkpt>
      <trkpt lat="43.95648" lon="5.12944">
        <ele>547.2</ele>
        <time>2013-02-18T15:52:01.000Z</time>
      </trkpt>
      <trkpt lat="43.95649" lon="5.12939">
        <ele>547.2</ele>
        <time>2013-02-18T15:52:03.000Z</time>
      </trkpt>
      <trkpt lat="43.9565" lon="5.12938">
        <ele>546.6</ele>
        <time>2013-02-18T15:52:04.000Z</time>
      </trkpt>
      <trkpt lat="43.95652" lon="5.12933">
        <ele>544</ele>
        <time>2013-02-18T15:52:16.000Z</time>
      </trkpt>
      <trkpt lat="43.95651" lon="5.12931">
        <ele>542.6</ele>
        <time>2013-02-18T15:52:17.000Z</time>
      </trkpt>
      <trkpt lat="43.95649" lon="5.12926">
        <ele>541.9</ele>
        <time>2013-02-18T15:52:22.000Z</time>
      </trkpt>
      <trkpt lat="43.95649" lon="5.12925">
        <ele>541.6</ele>
        <time>2013-02-18T15:52:23.000Z</time>
      </trkpt>
      <trkpt lat="43.95649" lon="5.12922">
        <ele>540.9</ele>
        <time>2013-02-18T15:52:37.000Z</time>
      </trkpt>
      <trkpt lat="43.95648" lon="5.12919">
        <ele>541.1</ele>
        <time>2013-02-18T15:52:38.000Z</time>
      </trkpt>
      <trkpt lat="43.95648" lon="5.12913">
        <ele>540.8</ele>
        <time>2013-02-18T15:52:41.000Z</time>
      </trkpt>
      <trkpt lat="43.95647" lon="5.12911">
        <ele>540.9</ele>
        <time>2013-02-18T15:52:42.000Z</time>
      </trkpt>
      <trkpt lat="43.95646" lon="5.12906">
        <ele>540.6</ele>
        <time>2013-02-18T15:52:44.000Z</time>
      </trkpt>
      <trkpt lat="43.95646" lon="5.12903">
        <ele>541</ele>
        <time>2013-02-18T15:52:45.000Z</time>
      </trkpt>
      <trkpt lat="43.95645" lon="5.129">
        <ele>540.2</ele>
        <time>2013-02-18T15:52:46.000Z</time>
      </trkpt>
      <trkpt lat="43.95645" lon="5.12897">
        <ele>539.3</ele>
        <time>2013-02-18T15:52:47.000Z</time>
      </trkpt>
      <trkpt lat="43.95641" lon="5.12894">
        <ele>539.3</ele>
        <time>2013-02-18T15:52:49.000Z</time>
      </trkpt>
      <trkpt lat="43.95639" lon="5.12892">
        <ele>539.3</ele>
        <time>2013-02-18T15:52:50.000Z</time>
      </trkpt>
      <trkpt lat="43.95637" lon="5.12889">
        <ele>537.9</ele>
        <time>2013-02-18T15:52:51.000Z</time>
      </trkpt>
      <trkpt lat="43.95634" lon="5.12886">
        <ele>536.9</ele>
        <time>2013-02-18T15:52:52.000Z</time>
      </trkpt>
      <trkpt lat="43.95632" lon="5.12884">
        <ele>536.9</ele>
        <time>2013-02-18T15:52:53.000Z</time>
      </trkpt>
      <trkpt lat="43.95631" lon="5.12881">
        <ele>536.5</ele>
        <time>2013-02-18T15:52:54.000Z</time>
      </trkpt>
      <trkpt lat="43.95629" lon="5.12877">
        <ele>536</ele>
        <time>2013-02-18T15:52:55.000Z</time>
      </trkpt>
      <trkpt lat="43.95628" lon="5.12874">
        <ele>535.4</ele>
        <time>2013-02-18T15:52:56.000Z</time>
      </trkpt>
      <trkpt lat="43.95627" lon="5.1287">
        <ele>534.7</ele>
        <time>2013-02-18T15:52:57.000Z</time>
      </trkpt>
      <trkpt lat="43.95628" lon="5.12865">
        <ele>534.8</ele>
        <time>2013-02-18T15:52:58.000Z</time>
      </trkpt>
      <trkpt lat="43.95628" lon="5.1286">
        <ele>534.2</ele>
        <time>2013-02-18T15:52:59.000Z</time>
      </trkpt>
      <trkpt lat="43.9563" lon="5.12856">
        <ele>533.7</ele>
        <time>2013-02-18T15:53:00.000Z</time>
      </trkpt>
      <trkpt lat="43.95632" lon="5.12854">
        <ele>531.7</ele>
        <time>2013-02-18T15:53:01.000Z</time>
      </trkpt>
      <trkpt lat="43.95634" lon="5.12849">
        <ele>530.3</ele>
        <time>2013-02-18T15:53:02.000Z</time>
      </trkpt>
      <trkpt lat="43.95635" lon="5.12844">
        <ele>529.2</ele>
        <time>2013-02-18T15:53:03.000Z</time>
      </trkpt>
      <trkpt lat="43.95622" lon="5.12836">
        <ele>532.7</ele>
        <time>2013-02-18T15:53:04.000Z</time>
      </trkpt>
      <trkpt lat="43.9562" lon="5.12831">
        <ele>531.1</ele>
        <time>2013-02-18T15:53:05.000Z</time>
      </trkpt>
      <trkpt lat="43.95619" lon="5.12826">
        <ele>529.5</ele>
        <time>2013-02-18T15:53:06.000Z</time>
      </trkpt>
      <trkpt lat="43.95618" lon="5.12821">
        <ele>528.5</ele>
        <time>2013-02-18T15:53:07.000Z</time>
      </trkpt>
      <trkpt lat="43.95617" lon="5.12816">
        <ele>527.1</ele>
        <time>2013-02-18T15:53:08.000Z</time>
      </trkpt>
      <trkpt lat="43.95618" lon="5.1281">
        <ele>526.4</ele>
        <time>2013-02-18T15:53:09.000Z</time>
      </trkpt>
      <trkpt lat="43.95618" lon="5.12806">
        <ele>525.6</ele>
        <time>2013-02-18T15:53:10.000Z</time>
      </trkpt>
      <trkpt lat="43.95618" lon="5.12802">
        <ele>525</ele>
        <time>2013-02-18T15:53:11.000Z</time>
      </trkpt>
      <trkpt lat="43.95618" lon="5.12797">
        <ele>524.1</ele>
        <time>2013-02-18T15:53:12.000Z</time>
      </trkpt>
      <trkpt lat="43.95619" lon="5.12792">
        <ele>523.5</ele>
        <time>2013-02-18T15:53:13.000Z</time>
      </trkpt>
      <trkpt lat="43.95619" lon="5.12787">
        <ele>523</ele>
        <time>2013-02-18T15:53:14.000Z</time>
      </trkpt>
      <trkpt lat="43.95619" lon="5.12782">
        <ele>521.8</ele>
        <time>2013-02-18T15:53:15.000Z</time>
      </trkpt>
      <trkpt lat="43.95619" lon="5.12778">
        <ele>520.6</ele>
        <time>2013-02-18T15:53:16.000Z</time>
      </trkpt>
      <trkpt lat="43.95618" lon="5.12772">
        <ele>519.8</ele>
        <time>2013-02-18T15:53:17.000Z</time>
      </trkpt>
      <trkpt lat="43.95617" lon="5.12767">
        <ele>519.5</ele>
        <time>2013-02-18T15:53:18.000Z</time>
      </trkpt>
      <trkpt lat="43.95614" lon="5.12762">
        <ele>518.9</ele>
        <time>2013-02-18T15:53:19.000Z</time>
      </trkpt>
      <trkpt lat="43.95612" lon="5.12757">
        <ele>518.6</ele>
        <time>2013-02-18T15:53:20.000Z</time>
      </trkpt>
      <trkpt lat="43.9561" lon="5.12752">
        <ele>519.1</ele>
        <time>2013-02-18T15:53:21.000Z</time>
      </trkpt>
      <trkpt lat="43.95609" lon="5.12746">
        <ele>520.7</ele>
        <time>2013-02-18T15:53:42.000Z</time>
      </trkpt>
      <trkpt lat="43.95608" lon="5.12743">
        <ele>520.9</ele>
        <time>2013-02-18T15:53:43.000Z</time>
      </trkpt>
      <trkpt lat="43.95606" lon="5.12738">
        <ele>519.5</ele>
        <time>2013-02-18T15:53:44.000Z</time>
      </trkpt>
      <trkpt lat="43.95605" lon="5.12733">
        <ele>519.1</ele>
        <time>2013-02-18T15:53:45.000Z</time>
      </trkpt>
      <trkpt lat="43.95605" lon="5.12727">
        <ele>519</ele>
        <time>2013-02-18T15:53:46.000Z</time>
      </trkpt>
      <trkpt lat="43.95604" lon="5.12722">
        <ele>518.2</ele>
        <time>2013-02-18T15:53:47.000Z</time>
      </trkpt>
      <trkpt lat="43.95603" lon="5.12717">
        <ele>517.7</ele>
        <time>2013-02-18T15:53:48.000Z</time>
      </trkpt>
      <trkpt lat="43.95603" lon="5.12711">
        <ele>517.1</ele>
        <time>2013-02-18T15:53:49.000Z</time>
      </trkpt>
      <trkpt lat="43.95602" lon="5.12705">
        <ele>516.5</ele>
        <time>2013-02-18T15:53:50.000Z</time>
      </trkpt>
      <trkpt lat="43.95602" lon="5.12699">
        <ele>516</ele>
        <time>2013-02-18T15:53:51.000Z</time>
      </trkpt>
      <trkpt lat="43.956" lon="5.12691">
        <ele>515.8</ele>
        <time>2013-02-18T15:53:52.000Z</time>
      </trkpt>
      <trkpt lat="43.95599" lon="5.12684">
        <ele>514.8</ele>
        <time>2013-02-18T15:53:53.000Z</time>
      </trkpt>
      <trkpt lat="43.95599" lon="5.12676">
        <ele>513.4</ele>
        <time>2013-02-18T15:53:54.000Z</time>
      </trkpt>
      <trkpt lat="43.95598" lon="5.12669">
        <ele>512.3</ele>
        <time>2013-02-18T15:53:55.000Z</time>
      </trkpt>
      <trkpt lat="43.95597" lon="5.12662">
        <ele>511.2</ele>
        <time>2013-02-18T15:53:56.000Z</time>
      </trkpt>
      <trkpt lat="43.95597" lon="5.12655">
        <ele>510.2</ele>
        <time>2013-02-18T15:53:57.000Z</time>
      </trkpt>
      <trkpt lat="43.95597" lon="5.12649">
        <ele>510.2</ele>
        <time>2013-02-18T15:53:58.000Z</time>
      </trkpt>
      <trkpt lat="43.95597" lon="5.12644">
        <ele>510.1</ele>
        <time>2013-02-18T15:53:59.000Z</time>
      </trkpt>
      <trkpt lat="43.95597" lon="5.1264">
        <ele>509.6</ele>
        <time>2013-02-18T15:54:00.000Z</time>
      </trkpt>
      <trkpt lat="43.95599" lon="5.12636">
        <ele>508.3</ele>
        <time>2013-02-18T15:54:01.000Z</time>
      </trkpt>
      <trkpt lat="43.95602" lon="5.12636">
        <ele>508.2</ele>
        <time>2013-02-18T15:54:02.000Z</time>
      </trkpt>
      <trkpt lat="43.95605" lon="5.12637">
        <ele>507.5</ele>
        <time>2013-02-18T15:54:03.000Z</time>
      </trkpt>
      <trkpt lat="43.95606" lon="5.1264">
        <ele>505</ele>
        <time>2013-02-18T15:54:36.000Z</time>
      </trkpt>
      <trkpt lat="43.95613" lon="5.12643">
        <ele>506.3</ele>
        <time>2013-02-18T15:54:37.000Z</time>
      </trkpt>
      <trkpt lat="43.95616" lon="5.12643">
        <ele>505.2</ele>
        <time>2013-02-18T15:54:38.000Z</time>
      </trkpt>
      <trkpt lat="43.95619" lon="5.12645">
        <ele>505.7</ele>
        <time>2013-02-18T15:54:39.000Z</time>
      </trkpt>
      <trkpt lat="43.95622" lon="5.12645">
        <ele>505.9</ele>
        <time>2013-02-18T15:54:40.000Z</time>
      </trkpt>
      <trkpt lat="43.95627" lon="5.12643">
        <ele>507.8</ele>
        <time>2013-02-18T15:54:41.000Z</time>
      </trkpt>
      <trkpt lat="43.9563" lon="5.1264">
        <ele>507.8</ele>
        <time>2013-02-18T15:54:42.000Z</time>
      </trkpt>
      <trkpt lat="43.95635" lon="5.1263">
        <ele>510.6</ele>
        <time>2013-02-18T15:54:43.000Z</time>
      </trkpt>
      <trkpt lat="43.95639" lon="5.12622">
        <ele>511.4</ele>
        <time>2013-02-18T15:54:44.000Z</time>
      </trkpt>
      <trkpt lat="43.95644" lon="5.12621">
        <ele>510.6</ele>
        <time>2013-02-18T15:54:45.000Z</time>
      </trkpt>
      <trkpt lat="43.9565" lon="5.12615">
        <ele>517.4</ele>
        <time>2013-02-18T15:54:46.000Z</time>
      </trkpt>
      <trkpt lat="43.95657" lon="5.12614">
        <ele>518.4</ele>
        <time>2013-02-18T15:54:47.000Z</time>
      </trkpt>
      <trkpt lat="43.95662" lon="5.12612">
        <ele>519.6</ele>
        <time>2013-02-18T15:54:48.000Z</time>
      </trkpt>
      <trkpt lat="43.95666" lon="5.12619">
        <ele>519.3</ele>
        <time>2013-02-18T15:54:49.000Z</time>
      </trkpt>
      <trkpt lat="43.9567" lon="5.12624">
        <ele>518.2</ele>
        <time>2013-02-18T15:54:50.000Z</time>
      </trkpt>
      <trkpt lat="43.95675" lon="5.12629">
        <ele>518.2</ele>
        <time>2013-02-18T15:54:51.000Z</time>
      </trkpt>
      <trkpt lat="43.95679" lon="5.12631">
        <ele>517.6</ele>
        <time>2013-02-18T15:54:52.000Z</time>
      </trkpt>
      <trkpt lat="43.95683" lon="5.12632">
        <ele>517.4</ele>
        <time>2013-02-18T15:54:53.000Z</time>
      </trkpt>
      <trkpt lat="43.95687" lon="5.12633">
        <ele>517.6</ele>
        <time>2013-02-18T15:54:54.000Z</time>
      </trkpt>
      <trkpt lat="43.95691" lon="5.12636">
        <ele>517.3</ele>
        <time>2013-02-18T15:54:55.000Z</time>
      </trkpt>
      <trkpt lat="43.95695" lon="5.12638">
        <ele>517.1</ele>
        <time>2013-02-18T15:54:56.000Z</time>
      </trkpt>
      <trkpt lat="43.95698" lon="5.1264">
        <ele>517.1</ele>
        <time>2013-02-18T15:54:57.000Z</time>
      </trkpt>
      <trkpt lat="43.95701" lon="5.12643">
        <ele>516.7</ele>
        <time>2013-02-18T15:54:58.000Z</time>
      </trkpt>
      <trkpt lat="43.95705" lon="5.12644">
        <ele>516.8</ele>
        <time>2013-02-18T15:54:59.000Z</time>
      </trkpt>
      <trkpt lat="43.95709" lon="5.12646">
        <ele>516.2</ele>
        <time>2013-02-18T15:55:00.000Z</time>
      </trkpt>
      <trkpt lat="43.95714" lon="5.12648">
        <ele>516</ele>
        <time>2013-02-18T15:55:01.000Z</time>
      </trkpt>
      <trkpt lat="43.95718" lon="5.12651">
        <ele>515.5</ele>
        <time>2013-02-18T15:55:02.000Z</time>
      </trkpt>
      <trkpt lat="43.95722" lon="5.12653">
        <ele>515.5</ele>
        <time>2013-02-18T15:55:03.000Z</time>
      </trkpt>
      <trkpt lat="43.95726" lon="5.12656">
        <ele>515.2</ele>
        <time>2013-02-18T15:55:04.000Z</time>
      </trkpt>
      <trkpt lat="43.9573" lon="5.12659">
        <ele>515.1</ele>
        <time>2013-02-18T15:55:05.000Z</time>
      </trkpt>
      <trkpt lat="43.95733" lon="5.12661">
        <ele>514.4</ele>
        <time>2013-02-18T15:55:06.000Z</time>
      </trkpt>
      <trkpt lat="43.95737" lon="5.12664">
        <ele>513.7</ele>
        <time>2013-02-18T15:55:07.000Z</time>
      </trkpt>
      <trkpt lat="43.95746" lon="5.12668">
        <ele>512.6</ele>
        <time>2013-02-18T15:55:09.000Z</time>
      </trkpt>
      <trkpt lat="43.9575" lon="5.1267">
        <ele>512.3</ele>
        <time>2013-02-18T15:55:10.000Z</time>
      </trkpt>
      <trkpt lat="43.95755" lon="5.12671">
        <ele>512.6</ele>
        <time>2013-02-18T15:55:11.000Z</time>
      </trkpt>
      <trkpt lat="43.95759" lon="5.12671">
        <ele>512.7</ele>
        <time>2013-02-18T15:55:12.000Z</time>
      </trkpt>
      <trkpt lat="43.95763" lon="5.12671">
        <ele>512.4</ele>
        <time>2013-02-18T15:55:13.000Z</time>
      </trkpt>
      <trkpt lat="43.95768" lon="5.12672">
        <ele>512.4</ele>
        <time>2013-02-18T15:55:14.000Z</time>
      </trkpt>
      <trkpt lat="43.95773" lon="5.12672">
        <ele>512.2</ele>
        <time>2013-02-18T15:55:15.000Z</time>
      </trkpt>
      <trkpt lat="43.95777" lon="5.12671">
        <ele>512.4</ele>
        <time>2013-02-18T15:55:16.000Z</time>
      </trkpt>
      <trkpt lat="43.95781" lon="5.12673">
        <ele>512.7</ele>
        <time>2013-02-18T15:55:17.000Z</time>
      </trkpt>
      <trkpt lat="43.95785" lon="5.12674">
        <ele>512.9</ele>
        <time>2013-02-18T15:55:18.000Z</time>
      </trkpt>
      <trkpt lat="43.95789" lon="5.12675">
        <ele>513</ele>
        <time>2013-02-18T15:55:19.000Z</time>
      </trkpt>
      <trkpt lat="43.95793" lon="5.12677">
        <ele>512.5</ele>
        <time>2013-02-18T15:55:20.000Z</time>
      </trkpt>
      <trkpt lat="43.95797" lon="5.12679">
        <ele>512.3</ele>
        <time>2013-02-18T15:55:21.000Z</time>
      </trkpt>
      <trkpt lat="43.95801" lon="5.1268">
        <ele>512.1</ele>
        <time>2013-02-18T15:55:22.000Z</time>
      </trkpt>
      <trkpt lat="43.95805" lon="5.1268">
        <ele>512.5</ele>
        <time>2013-02-18T15:55:23.000Z</time>
      </trkpt>
      <trkpt lat="43.95809" lon="5.12681">
        <ele>512.4</ele>
        <time>2013-02-18T15:55:24.000Z</time>
      </trkpt>
      <trkpt lat="43.95813" lon="5.12682">
        <ele>512.2</ele>
        <time>2013-02-18T15:55:25.000Z</time>
      </trkpt>
      <trkpt lat="43.95817" lon="5.12683">
        <ele>511.9</ele>
        <time>2013-02-18T15:55:26.000Z</time>
      </trkpt>
      <trkpt lat="43.9582" lon="5.12683">
        <ele>512.4</ele>
        <time>2013-02-18T15:55:27.000Z</time>
      </trkpt>
      <trkpt lat="43.95824" lon="5.12683">
        <ele>512.7</ele>
        <time>2013-02-18T15:55:28.000Z</time>
      </trkpt>
      <trkpt lat="43.95827" lon="5.12683">
        <ele>512.8</ele>
        <time>2013-02-18T15:55:29.000Z</time>
      </trkpt>
      <trkpt lat="43.95832" lon="5.12683">
        <ele>512.4</ele>
        <time>2013-02-18T15:55:30.000Z</time>
      </trkpt>
      <trkpt lat="43.95836" lon="5.12682">
        <ele>511.8</ele>
        <time>2013-02-18T15:55:31.000Z</time>
      </trkpt>
      <trkpt lat="43.9584" lon="5.12682">
        <ele>511.8</ele>
        <time>2013-02-18T15:55:32.000Z</time>
      </trkpt>
      <trkpt lat="43.95843" lon="5.12682">
        <ele>511.4</ele>
        <time>2013-02-18T15:55:33.000Z</time>
      </trkpt>
      <trkpt lat="43.95847" lon="5.12682">
        <ele>511.5</ele>
        <time>2013-02-18T15:55:34.000Z</time>
      </trkpt>
      <trkpt lat="43.9585" lon="5.12682">
        <ele>512.8</ele>
        <time>2013-02-18T15:55:35.000Z</time>
      </trkpt>
      <trkpt lat="43.95853" lon="5.12682">
        <ele>512.8</ele>
        <time>2013-02-18T15:55:36.000Z</time>
      </trkpt>
      <trkpt lat="43.95857" lon="5.12682">
        <ele>513.1</ele>
        <time>2013-02-18T15:55:37.000Z</time>
      </trkpt>
      <trkpt lat="43.9586" lon="5.12682">
        <ele>513.1</ele>
        <time>2013-02-18T15:55:38.000Z</time>
      </trkpt>
      <trkpt lat="43.95863" lon="5.12682">
        <ele>513.6</ele>
        <time>2013-02-18T15:55:39.000Z</time>
      </trkpt>
      <trkpt lat="43.95867" lon="5.12682">
        <ele>513.2</ele>
        <time>2013-02-18T15:55:40.000Z</time>
      </trkpt>
      <trkpt lat="43.95871" lon="5.12683">
        <ele>512.6</ele>
        <time>2013-02-18T15:55:41.000Z</time>
      </trkpt>
      <trkpt lat="43.95874" lon="5.12684">
        <ele>512.3</ele>
        <time>2013-02-18T15:55:42.000Z</time>
      </trkpt>
      <trkpt lat="43.95878" lon="5.12683">
        <ele>511.9</ele>
        <time>2013-02-18T15:55:43.000Z</time>
      </trkpt>
      <trkpt lat="43.95881" lon="5.12685">
        <ele>511.6</ele>
        <time>2013-02-18T15:55:44.000Z</time>
      </trkpt>
      <trkpt lat="43.95885" lon="5.12685">
        <ele>511.4</ele>
        <time>2013-02-18T15:55:45.000Z</time>
      </trkpt>
      <trkpt lat="43.95888" lon="5.12685">
        <ele>511.2</ele>
        <time>2013-02-18T15:55:46.000Z</time>
      </trkpt>
      <trkpt lat="43.95892" lon="5.12685">
        <ele>511.3</ele>
        <time>2013-02-18T15:55:47.000Z</time>
      </trkpt>
      <trkpt lat="43.95895" lon="5.12685">
        <ele>512.4</ele>
        <time>2013-02-18T15:55:48.000Z</time>
      </trkpt>
      <trkpt lat="43.95898" lon="5.12686">
        <ele>512.4</ele>
        <time>2013-02-18T15:55:49.000Z</time>
      </trkpt>
      <trkpt lat="43.95901" lon="5.12686">
        <ele>512.2</ele>
        <time>2013-02-18T15:55:50.000Z</time>
      </trkpt>
      <trkpt lat="43.95904" lon="5.12687">
        <ele>511.9</ele>
        <time>2013-02-18T15:55:51.000Z</time>
      </trkpt>
      <trkpt lat="43.95907" lon="5.12687">
        <ele>512</ele>
        <time>2013-02-18T15:55:52.000Z</time>
      </trkpt>
      <trkpt lat="43.95911" lon="5.12688">
        <ele>512.4</ele>
        <time>2013-02-18T15:55:53.000Z</time>
      </trkpt>
      <trkpt lat="43.95914" lon="5.12689">
        <ele>512.1</ele>
        <time>2013-02-18T15:55:54.000Z</time>
      </trkpt>
      <trkpt lat="43.95917" lon="5.12689">
        <ele>512.3</ele>
        <time>2013-02-18T15:55:55.000Z</time>
      </trkpt>
      <trkpt lat="43.95921" lon="5.1269">
        <ele>512</ele>
        <time>2013-02-18T15:55:56.000Z</time>
      </trkpt>
      <trkpt lat="43.95924" lon="5.12691">
        <ele>511.8</ele>
        <time>2013-02-18T15:55:57.000Z</time>
      </trkpt>
      <trkpt lat="43.95927" lon="5.12693">
        <ele>511.8</ele>
        <time>2013-02-18T15:55:58.000Z</time>
      </trkpt>
      <trkpt lat="43.95931" lon="5.12694">
        <ele>511.5</ele>
        <time>2013-02-18T15:55:59.000Z</time>
      </trkpt>
      <trkpt lat="43.95935" lon="5.12694">
        <ele>511.4</ele>
        <time>2013-02-18T15:56:00.000Z</time>
      </trkpt>
      <trkpt lat="43.95938" lon="5.12695">
        <ele>511.3</ele>
        <time>2013-02-18T15:56:01.000Z</time>
      </trkpt>
      <trkpt lat="43.95942" lon="5.12696">
        <ele>510.9</ele>
        <time>2013-02-18T15:56:02.000Z</time>
      </trkpt>
      <trkpt lat="43.95946" lon="5.12697">
        <ele>510.8</ele>
        <time>2013-02-18T15:56:03.000Z</time>
      </trkpt>
      <trkpt lat="43.9595" lon="5.12698">
        <ele>510.8</ele>
        <time>2013-02-18T15:56:04.000Z</time>
      </trkpt>
      <trkpt lat="43.95954" lon="5.127">
        <ele>510.7</ele>
        <time>2013-02-18T15:56:05.000Z</time>
      </trkpt>
      <trkpt lat="43.95958" lon="5.12701">
        <ele>510.6</ele>
        <time>2013-02-18T15:56:06.000Z</time>
      </trkpt>
      <trkpt lat="43.95961" lon="5.12702">
        <ele>510.6</ele>
        <time>2013-02-18T15:56:07.000Z</time>
      </trkpt>
      <trkpt lat="43.95969" lon="5.12703">
        <ele>509.4</ele>
        <time>2013-02-18T15:56:09.000Z</time>
      </trkpt>
      <trkpt lat="43.95973" lon="5.12704">
        <ele>509.3</ele>
        <time>2013-02-18T15:56:10.000Z</time>
      </trkpt>
      <trkpt lat="43.95977" lon="5.12703">
        <ele>510.9</ele>
        <time>2013-02-18T15:56:11.000Z</time>
      </trkpt>
      <trkpt lat="43.95981" lon="5.12694">
        <ele>513.9</ele>
        <time>2013-02-18T15:56:12.000Z</time>
      </trkpt>
      <trkpt lat="43.95986" lon="5.12683">
        <ele>518.3</ele>
        <time>2013-02-18T15:56:13.000Z</time>
      </trkpt>
      <trkpt lat="43.95993" lon="5.12669">
        <ele>522.5</ele>
        <time>2013-02-18T15:56:14.000Z</time>
      </trkpt>
      <trkpt lat="43.95992" lon="5.12696">
        <ele>519.1</ele>
        <time>2013-02-18T15:56:15.000Z</time>
      </trkpt>
      <trkpt lat="43.95997" lon="5.12696">
        <ele>519.2</ele>
        <time>2013-02-18T15:56:16.000Z</time>
      </trkpt>
      <trkpt lat="43.96001" lon="5.12699">
        <ele>518.9</ele>
        <time>2013-02-18T15:56:17.000Z</time>
      </trkpt>
      <trkpt lat="43.96004" lon="5.12703">
        <ele>518</ele>
        <time>2013-02-18T15:56:18.000Z</time>
      </trkpt>
      <trkpt lat="43.96008" lon="5.12707">
        <ele>517.2</ele>
        <time>2013-02-18T15:56:19.000Z</time>
      </trkpt>
      <trkpt lat="43.96011" lon="5.12712">
        <ele>516.5</ele>
        <time>2013-02-18T15:56:20.000Z</time>
      </trkpt>
      <trkpt lat="43.96014" lon="5.12719">
        <ele>516</ele>
        <time>2013-02-18T15:56:21.000Z</time>
      </trkpt>
      <trkpt lat="43.96018" lon="5.12724">
        <ele>515.3</ele>
        <time>2013-02-18T15:56:22.000Z</time>
      </trkpt>
      <trkpt lat="43.96019" lon="5.12731">
        <ele>515.1</ele>
        <time>2013-02-18T15:56:23.000Z</time>
      </trkpt>
      <trkpt lat="43.96018" lon="5.12737">
        <ele>514.8</ele>
        <time>2013-02-18T15:56:24.000Z</time>
      </trkpt>
      <trkpt lat="43.96018" lon="5.12747">
        <ele>514.3</ele>
        <time>2013-02-18T15:56:25.000Z</time>
      </trkpt>
      <trkpt lat="43.96034" lon="5.1274">
        <ele>517.8</ele>
        <time>2013-02-18T15:56:26.000Z</time>
      </trkpt>
      <trkpt lat="43.96039" lon="5.12752">
        <ele>516.8</ele>
        <time>2013-02-18T15:56:27.000Z</time>
      </trkpt>
      <trkpt lat="43.96044" lon="5.12757">
        <ele>514.3</ele>
        <time>2013-02-18T15:56:28.000Z</time>
      </trkpt>
      <trkpt lat="43.96047" lon="5.1276">
        <ele>514.8</ele>
        <time>2013-02-18T15:56:30.000Z</time>
      </trkpt>
      <trkpt lat="43.96049" lon="5.12761">
        <ele>512.7</ele>
        <time>2013-02-18T15:56:31.000Z</time>
      </trkpt>
      <trkpt lat="43.96053" lon="5.12763">
        <ele>510.6</ele>
        <time>2013-02-18T15:56:32.000Z</time>
      </trkpt>
      <trkpt lat="43.96057" lon="5.12765">
        <ele>509.8</ele>
        <time>2013-02-18T15:56:33.000Z</time>
      </trkpt>
      <trkpt lat="43.96061" lon="5.12766">
        <ele>509</ele>
        <time>2013-02-18T15:56:34.000Z</time>
      </trkpt>
      <trkpt lat="43.96065" lon="5.12766">
        <ele>508.7</ele>
        <time>2013-02-18T15:56:35.000Z</time>
      </trkpt>
      <trkpt lat="43.9607" lon="5.12771">
        <ele>508.5</ele>
        <time>2013-02-18T15:56:36.000Z</time>
      </trkpt>
      <trkpt lat="43.96075" lon="5.12773">
        <ele>508</ele>
        <time>2013-02-18T15:56:37.000Z</time>
      </trkpt>
      <trkpt lat="43.96077" lon="5.12776">
        <ele>507.7</ele>
        <time>2013-02-18T15:56:38.000Z</time>
      </trkpt>
      <trkpt lat="43.96081" lon="5.12777">
        <ele>508</ele>
        <time>2013-02-18T15:56:39.000Z</time>
      </trkpt>
      <trkpt lat="43.96084" lon="5.1278">
        <ele>508</ele>
        <time>2013-02-18T15:56:40.000Z</time>
      </trkpt>
      <trkpt lat="43.96087" lon="5.12782">
        <ele>508</ele>
        <time>2013-02-18T15:56:41.000Z</time>
      </trkpt>
      <trkpt lat="43.96091" lon="5.12784">
        <ele>507.9</ele>
        <time>2013-02-18T15:56:42.000Z</time>
      </trkpt>
      <trkpt lat="43.96095" lon="5.12786">
        <ele>508.4</ele>
        <time>2013-02-18T15:56:43.000Z</time>
      </trkpt>
      <trkpt lat="43.96098" lon="5.12787">
        <ele>508.9</ele>
        <time>2013-02-18T15:56:44.000Z</time>
      </trkpt>
      <trkpt lat="43.96103" lon="5.12788">
        <ele>509.8</ele>
        <time>2013-02-18T15:56:45.000Z</time>
      </trkpt>
      <trkpt lat="43.96107" lon="5.12787">
        <ele>512.4</ele>
        <time>2013-02-18T15:56:46.000Z</time>
      </trkpt>
      <trkpt lat="43.96112" lon="5.12786">
        <ele>513.7</ele>
        <time>2013-02-18T15:56:47.000Z</time>
      </trkpt>
      <trkpt lat="43.96115" lon="5.12787">
        <ele>514</ele>
        <time>2013-02-18T15:56:48.000Z</time>
      </trkpt>
      <trkpt lat="43.9612" lon="5.12788">
        <ele>513.5</ele>
        <time>2013-02-18T15:56:49.000Z</time>
      </trkpt>
      <trkpt lat="43.96124" lon="5.12787">
        <ele>517.6</ele>
        <time>2013-02-18T15:56:50.000Z</time>
      </trkpt>
      <trkpt lat="43.96128" lon="5.12788">
        <ele>517.5</ele>
        <time>2013-02-18T15:56:51.000Z</time>
      </trkpt>
      <trkpt lat="43.96132" lon="5.12791">
        <ele>517.7</ele>
        <time>2013-02-18T15:56:52.000Z</time>
      </trkpt>
      <trkpt lat="43.96136" lon="5.12795">
        <ele>516.2</ele>
        <time>2013-02-18T15:56:53.000Z</time>
      </trkpt>
      <trkpt lat="43.96141" lon="5.12798">
        <ele>515.1</ele>
        <time>2013-02-18T15:56:54.000Z</time>
      </trkpt>
      <trkpt lat="43.96145" lon="5.12801">
        <ele>514.5</ele>
        <time>2013-02-18T15:56:55.000Z</time>
      </trkpt>
      <trkpt lat="43.96149" lon="5.12803">
        <ele>514.1</ele>
        <time>2013-02-18T15:56:56.000Z</time>
      </trkpt>
      <trkpt lat="43.96153" lon="5.12805">
        <ele>513.6</ele>
        <time>2013-02-18T15:56:57.000Z</time>
      </trkpt>
      <trkpt lat="43.96158" lon="5.12809">
        <ele>513</ele>
        <time>2013-02-18T15:56:58.000Z</time>
      </trkpt>
      <trkpt lat="43.96161" lon="5.12813">
        <ele>512.4</ele>
        <time>2013-02-18T15:56:59.000Z</time>
      </trkpt>
      <trkpt lat="43.96165" lon="5.12816">
        <ele>511.9</ele>
        <time>2013-02-18T15:57:00.000Z</time>
      </trkpt>
      <trkpt lat="43.96168" lon="5.12819">
        <ele>511.6</ele>
        <time>2013-02-18T15:57:01.000Z</time>
      </trkpt>
      <trkpt lat="43.96173" lon="5.12822">
        <ele>512</ele>
        <time>2013-02-18T15:57:02.000Z</time>
      </trkpt>
      <trkpt lat="43.96176" lon="5.12826">
        <ele>511.7</ele>
        <time>2013-02-18T15:57:03.000Z</time>
      </trkpt>
      <trkpt lat="43.9618" lon="5.12829">
        <ele>511.6</ele>
        <time>2013-02-18T15:57:04.000Z</time>
      </trkpt>
      <trkpt lat="43.96184" lon="5.12832">
        <ele>511.3</ele>
        <time>2013-02-18T15:57:05.000Z</time>
      </trkpt>
      <trkpt lat="43.96189" lon="5.12834">
        <ele>510</ele>
        <time>2013-02-18T15:57:06.000Z</time>
      </trkpt>
      <trkpt lat="43.96194" lon="5.12837">
        <ele>509.1</ele>
        <time>2013-02-18T15:57:07.000Z</time>
      </trkpt>
      <trkpt lat="43.96198" lon="5.12839">
        <ele>508.6</ele>
        <time>2013-02-18T15:57:08.000Z</time>
      </trkpt>
      <trkpt lat="43.96204" lon="5.12843">
        <ele>507.5</ele>
        <time>2013-02-18T15:57:09.000Z</time>
      </trkpt>
      <trkpt lat="43.9621" lon="5.12845">
        <ele>506.4</ele>
        <time>2013-02-18T15:57:10.000Z</time>
      </trkpt>
      <trkpt lat="43.96215" lon="5.12849">
        <ele>505.1</ele>
        <time>2013-02-18T15:57:11.000Z</time>
      </trkpt>
      <trkpt lat="43.96222" lon="5.12852">
        <ele>504.5</ele>
        <time>2013-02-18T15:57:12.000Z</time>
      </trkpt>
      <trkpt lat="43.96227" lon="5.12855">
        <ele>503.4</ele>
        <time>2013-02-18T15:57:13.000Z</time>
      </trkpt>
      <trkpt lat="43.96233" lon="5.12859">
        <ele>503.2</ele>
        <time>2013-02-18T15:57:14.000Z</time>
      </trkpt>
      <trkpt lat="43.96236" lon="5.12862">
        <ele>502.8</ele>
        <time>2013-02-18T15:57:15.000Z</time>
      </trkpt>
      <trkpt lat="43.96239" lon="5.12864">
        <ele>502.8</ele>
        <time>2013-02-18T15:57:16.000Z</time>
      </trkpt>
      <trkpt lat="43.96243" lon="5.12867">
        <ele>502.6</ele>
        <time>2013-02-18T15:57:17.000Z</time>
      </trkpt>
      <trkpt lat="43.96247" lon="5.12866">
        <ele>502.1</ele>
        <time>2013-02-18T15:57:18.000Z</time>
      </trkpt>
      <trkpt lat="43.96251" lon="5.12867">
        <ele>501.5</ele>
        <time>2013-02-18T15:57:19.000Z</time>
      </trkpt>
      <trkpt lat="43.96256" lon="5.12868">
        <ele>500.9</ele>
        <time>2013-02-18T15:57:20.000Z</time>
      </trkpt>
      <trkpt lat="43.9626" lon="5.12869">
        <ele>500.7</ele>
        <time>2013-02-18T15:57:21.000Z</time>
      </trkpt>
      <trkpt lat="43.96266" lon="5.12871">
        <ele>500.5</ele>
        <time>2013-02-18T15:57:22.000Z</time>
      </trkpt>
      <trkpt lat="43.96272" lon="5.12872">
        <ele>499.9</ele>
        <time>2013-02-18T15:57:23.000Z</time>
      </trkpt>
      <trkpt lat="43.96277" lon="5.12875">
        <ele>499.2</ele>
        <time>2013-02-18T15:57:24.000Z</time>
      </trkpt>
      <trkpt lat="43.96282" lon="5.12878">
        <ele>498.8</ele>
        <time>2013-02-18T15:57:25.000Z</time>
      </trkpt>
      <trkpt lat="43.96287" lon="5.12882">
        <ele>498</ele>
        <time>2013-02-18T15:57:26.000Z</time>
      </trkpt>
      <trkpt lat="43.96292" lon="5.12885">
        <ele>497.3</ele>
        <time>2013-02-18T15:57:27.000Z</time>
      </trkpt>
      <trkpt lat="43.96298" lon="5.12888">
        <ele>496.9</ele>
        <time>2013-02-18T15:57:28.000Z</time>
      </trkpt>
      <trkpt lat="43.96302" lon="5.12892">
        <ele>496.1</ele>
        <time>2013-02-18T15:57:29.000Z</time>
      </trkpt>
      <trkpt lat="43.96305" lon="5.12895">
        <ele>495.8</ele>
        <time>2013-02-18T15:57:30.000Z</time>
      </trkpt>
      <trkpt lat="43.96309" lon="5.12897">
        <ele>495</ele>
        <time>2013-02-18T15:57:31.000Z</time>
      </trkpt>
      <trkpt lat="43.96313" lon="5.129">
        <ele>494.6</ele>
        <time>2013-02-18T15:57:32.000Z</time>
      </trkpt>
      <trkpt lat="43.96316" lon="5.12904">
        <ele>494.1</ele>
        <time>2013-02-18T15:57:33.000Z</time>
      </trkpt>
      <trkpt lat="43.96319" lon="5.12907">
        <ele>493.6</ele>
        <time>2013-02-18T15:57:34.000Z</time>
      </trkpt>
      <trkpt lat="43.96322" lon="5.12909">
        <ele>493.2</ele>
        <time>2013-02-18T15:57:35.000Z</time>
      </trkpt>
      <trkpt lat="43.96326" lon="5.1291">
        <ele>492.9</ele>
        <time>2013-02-18T15:57:36.000Z</time>
      </trkpt>
      <trkpt lat="43.9633" lon="5.12911">
        <ele>492.1</ele>
        <time>2013-02-18T15:57:37.000Z</time>
      </trkpt>
      <trkpt lat="43.96333" lon="5.12912">
        <ele>491.6</ele>
        <time>2013-02-18T15:57:38.000Z</time>
      </trkpt>
      <trkpt lat="43.96336" lon="5.12913">
        <ele>490.5</ele>
        <time>2013-02-18T15:57:39.000Z</time>
      </trkpt>
      <trkpt lat="43.96339" lon="5.12915">
        <ele>490</ele>
        <time>2013-02-18T15:57:40.000Z</time>
      </trkpt>
      <trkpt lat="43.96343" lon="5.12916">
        <ele>488</ele>
        <time>2013-02-18T15:57:41.000Z</time>
      </trkpt>
      <trkpt lat="43.96346" lon="5.12917">
        <ele>486.7</ele>
        <time>2013-02-18T15:57:42.000Z</time>
      </trkpt>
      <trkpt lat="43.96349" lon="5.12918">
        <ele>485.9</ele>
        <time>2013-02-18T15:57:43.000Z</time>
      </trkpt>
      <trkpt lat="43.96352" lon="5.12919">
        <ele>485.5</ele>
        <time>2013-02-18T15:57:44.000Z</time>
      </trkpt>
      <trkpt lat="43.96356" lon="5.12918">
        <ele>484.4</ele>
        <time>2013-02-18T15:57:45.000Z</time>
      </trkpt>
      <trkpt lat="43.96359" lon="5.12919">
        <ele>483.7</ele>
        <time>2013-02-18T15:57:46.000Z</time>
      </trkpt>
      <trkpt lat="43.96362" lon="5.1292">
        <ele>483</ele>
        <time>2013-02-18T15:57:47.000Z</time>
      </trkpt>
      <trkpt lat="43.96365" lon="5.12922">
        <ele>482.4</ele>
        <time>2013-02-18T15:57:48.000Z</time>
      </trkpt>
      <trkpt lat="43.96368" lon="5.12924">
        <ele>481.6</ele>
        <time>2013-02-18T15:57:49.000Z</time>
      </trkpt>
      <trkpt lat="43.96371" lon="5.12925">
        <ele>481</ele>
        <time>2013-02-18T15:57:50.000Z</time>
      </trkpt>
      <trkpt lat="43.96374" lon="5.12928">
        <ele>480.3</ele>
        <time>2013-02-18T15:57:51.000Z</time>
      </trkpt>
      <trkpt lat="43.96375" lon="5.12931">
        <ele>479.5</ele>
        <time>2013-02-18T15:57:52.000Z</time>
      </trkpt>
      <trkpt lat="43.96377" lon="5.12933">
        <ele>478.8</ele>
        <time>2013-02-18T15:57:53.000Z</time>
      </trkpt>
      <trkpt lat="43.9638" lon="5.12933">
        <ele>478.2</ele>
        <time>2013-02-18T15:57:54.000Z</time>
      </trkpt>
      <trkpt lat="43.96383" lon="5.12932">
        <ele>477.3</ele>
        <time>2013-02-18T15:57:55.000Z</time>
      </trkpt>
      <trkpt lat="43.96386" lon="5.12933">
        <ele>476.7</ele>
        <time>2013-02-18T15:57:56.000Z</time>
      </trkpt>
      <trkpt lat="43.96389" lon="5.12933">
        <ele>475.5</ele>
        <time>2013-02-18T15:57:57.000Z</time>
      </trkpt>
      <trkpt lat="43.96392" lon="5.12933">
        <ele>474.9</ele>
        <time>2013-02-18T15:57:58.000Z</time>
      </trkpt>
      <trkpt lat="43.96396" lon="5.12932">
        <ele>475.6</ele>
        <time>2013-02-18T15:57:59.000Z</time>
      </trkpt>
      <trkpt lat="43.964" lon="5.12926">
        <ele>479.1</ele>
        <time>2013-02-18T15:58:00.000Z</time>
      </trkpt>
      <trkpt lat="43.96403" lon="5.1293">
        <ele>479</ele>
        <time>2013-02-18T15:58:01.000Z</time>
      </trkpt>
      <trkpt lat="43.96406" lon="5.1293">
        <ele>479.1</ele>
        <time>2013-02-18T15:58:02.000Z</time>
      </trkpt>
      <trkpt lat="43.96409" lon="5.12929">
        <ele>478.2</ele>
        <time>2013-02-18T15:58:03.000Z</time>
      </trkpt>
      <trkpt lat="43.96413" lon="5.12927">
        <ele>477.5</ele>
        <time>2013-02-18T15:58:04.000Z</time>
      </trkpt>
      <trkpt lat="43.96417" lon="5.12926">
        <ele>476.6</ele>
        <time>2013-02-18T15:58:05.000Z</time>
      </trkpt>
      <trkpt lat="43.96421" lon="5.12926">
        <ele>476.3</ele>
        <time>2013-02-18T15:58:06.000Z</time>
      </trkpt>
      <trkpt lat="43.96424" lon="5.12928">
        <ele>475.3</ele>
        <time>2013-02-18T15:58:07.000Z</time>
      </trkpt>
      <trkpt lat="43.96427" lon="5.12929">
        <ele>474.7</ele>
        <time>2013-02-18T15:58:08.000Z</time>
      </trkpt>
      <trkpt lat="43.96427" lon="5.12934">
        <ele>474</ele>
        <time>2013-02-18T15:58:09.000Z</time>
      </trkpt>
      <trkpt lat="43.96427" lon="5.12939">
        <ele>473.1</ele>
        <time>2013-02-18T15:58:10.000Z</time>
      </trkpt>
      <trkpt lat="43.96426" lon="5.12942">
        <ele>472.6</ele>
        <time>2013-02-18T15:58:11.000Z</time>
      </trkpt>
      <trkpt lat="43.96426" lon="5.12945">
        <ele>471.9</ele>
        <time>2013-02-18T15:58:12.000Z</time>
      </trkpt>
      <trkpt lat="43.96426" lon="5.12949">
        <ele>471.6</ele>
        <time>2013-02-18T15:58:13.000Z</time>
      </trkpt>
      <trkpt lat="43.96425" lon="5.12953">
        <ele>471.6</ele>
        <time>2013-02-18T15:58:14.000Z</time>
      </trkpt>
      <trkpt lat="43.96424" lon="5.12958">
        <ele>471.6</ele>
        <time>2013-02-18T15:58:16.000Z</time>
      </trkpt>
      <trkpt lat="43.96423" lon="5.12961">
        <ele>471.9</ele>
        <time>2013-02-18T15:58:17.000Z</time>
      </trkpt>
      <trkpt lat="43.96425" lon="5.12963">
        <ele>469</ele>
        <time>2013-02-18T15:58:21.000Z</time>
      </trkpt>
      <trkpt lat="43.96428" lon="5.12961">
        <ele>468.7</ele>
        <time>2013-02-18T15:58:22.000Z</time>
      </trkpt>
      <trkpt lat="43.9643" lon="5.12959">
        <ele>468.5</ele>
        <time>2013-02-18T15:58:23.000Z</time>
      </trkpt>
      <trkpt lat="43.96433" lon="5.12957">
        <ele>468.1</ele>
        <time>2013-02-18T15:58:24.000Z</time>
      </trkpt>
      <trkpt lat="43.96436" lon="5.12953">
        <ele>468.9</ele>
        <time>2013-02-18T15:58:25.000Z</time>
      </trkpt>
      <trkpt lat="43.96438" lon="5.12949">
        <ele>469.4</ele>
        <time>2013-02-18T15:58:26.000Z</time>
      </trkpt>
      <trkpt lat="43.96441" lon="5.12946">
        <ele>469.5</ele>
        <time>2013-02-18T15:58:27.000Z</time>
      </trkpt>
      <trkpt lat="43.96443" lon="5.12944">
        <ele>469.4</ele>
        <time>2013-02-18T15:58:28.000Z</time>
      </trkpt>
      <trkpt lat="43.96445" lon="5.12941">
        <ele>469.5</ele>
        <time>2013-02-18T15:58:29.000Z</time>
      </trkpt>
      <trkpt lat="43.96446" lon="5.12937">
        <ele>469.6</ele>
        <time>2013-02-18T15:58:30.000Z</time>
      </trkpt>
      <trkpt lat="43.96446" lon="5.12934">
        <ele>469.9</ele>
        <time>2013-02-18T15:58:31.000Z</time>
      </trkpt>
      <trkpt lat="43.96447" lon="5.12931">
        <ele>469.5</ele>
        <time>2013-02-18T15:58:32.000Z</time>
      </trkpt>
      <trkpt lat="43.96448" lon="5.12928">
        <ele>469.6</ele>
        <time>2013-02-18T15:58:33.000Z</time>
      </trkpt>
      <trkpt lat="43.96449" lon="5.12925">
        <ele>470</ele>
        <time>2013-02-18T15:58:34.000Z</time>
      </trkpt>
      <trkpt lat="43.9645" lon="5.12922">
        <ele>470.1</ele>
        <time>2013-02-18T15:58:35.000Z</time>
      </trkpt>
      <trkpt lat="43.96451" lon="5.12916">
        <ele>470.8</ele>
        <time>2013-02-18T15:58:38.000Z</time>
      </trkpt>
      <trkpt lat="43.96451" lon="5.12915">
        <ele>471.3</ele>
        <time>2013-02-18T15:58:39.000Z</time>
      </trkpt>
      <trkpt lat="43.96453" lon="5.12912">
        <ele>471.6</ele>
        <time>2013-02-18T15:59:09.000Z</time>
      </trkpt>
      <trkpt lat="43.96454" lon="5.1291">
        <ele>470.5</ele>
        <time>2013-02-18T15:59:10.000Z</time>
      </trkpt>
      <trkpt lat="43.96455" lon="5.12905">
        <ele>469.1</ele>
        <time>2013-02-18T15:59:12.000Z</time>
      </trkpt>
      <trkpt lat="43.96457" lon="5.12903">
        <ele>468.5</ele>
        <time>2013-02-18T15:59:13.000Z</time>
      </trkpt>
      <trkpt lat="43.96453" lon="5.12892">
        <ele>470.7</ele>
        <time>2013-02-18T15:59:14.000Z</time>
      </trkpt>
      <trkpt lat="43.96452" lon="5.1289">
        <ele>470</ele>
        <time>2013-02-18T15:59:15.000Z</time>
      </trkpt>
      <trkpt lat="43.96454" lon="5.12884">
        <ele>469.3</ele>
        <time>2013-02-18T15:59:16.000Z</time>
      </trkpt>
      <trkpt lat="43.96454" lon="5.1288">
        <ele>468.4</ele>
        <time>2013-02-18T15:59:17.000Z</time>
      </trkpt>
      <trkpt lat="43.96453" lon="5.12875">
        <ele>467.5</ele>
        <time>2013-02-18T15:59:18.000Z</time>
      </trkpt>
      <trkpt lat="43.96452" lon="5.12871">
        <ele>466.8</ele>
        <time>2013-02-18T15:59:19.000Z</time>
      </trkpt>
      <trkpt lat="43.96451" lon="5.12866">
        <ele>467.6</ele>
        <time>2013-02-18T15:59:20.000Z</time>
      </trkpt>
      <trkpt lat="43.9645" lon="5.12862">
        <ele>467.7</ele>
        <time>2013-02-18T15:59:21.000Z</time>
      </trkpt>
      <trkpt lat="43.96448" lon="5.12852">
        <ele>467.3</ele>
        <time>2013-02-18T15:59:23.000Z</time>
      </trkpt>
      <trkpt lat="43.96446" lon="5.12848">
        <ele>467.7</ele>
        <time>2013-02-18T15:59:24.000Z</time>
      </trkpt>
      <trkpt lat="43.96445" lon="5.12844">
        <ele>468.5</ele>
        <time>2013-02-18T15:59:25.000Z</time>
      </trkpt>
      <trkpt lat="43.96444" lon="5.12841">
        <ele>468.3</ele>
        <time>2013-02-18T15:59:26.000Z</time>
      </trkpt>
      <trkpt lat="43.96443" lon="5.12837">
        <ele>468</ele>
        <time>2013-02-18T15:59:27.000Z</time>
      </trkpt>
      <trkpt lat="43.96441" lon="5.12834">
        <ele>468</ele>
        <time>2013-02-18T15:59:28.000Z</time>
      </trkpt>
      <trkpt lat="43.96438" lon="5.12833">
        <ele>468.7</ele>
        <time>2013-02-18T15:59:29.000Z</time>
      </trkpt>
      <trkpt lat="43.96434" lon="5.12831">
        <ele>470.2</ele>
        <time>2013-02-18T15:59:31.000Z</time>
      </trkpt>
      <trkpt lat="43.96433" lon="5.12829">
        <ele>470.7</ele>
        <time>2013-02-18T15:59:32.000Z</time>
      </trkpt>
      <trkpt lat="43.96429" lon="5.12825">
        <ele>471.5</ele>
        <time>2013-02-18T15:59:34.000Z</time>
      </trkpt>
      <trkpt lat="43.96428" lon="5.12824">
        <ele>471.8</ele>
        <time>2013-02-18T15:59:35.000Z</time>
      </trkpt>
      <trkpt lat="43.96425" lon="5.12821">
        <ele>471.4</ele>
        <time>2013-02-18T15:59:37.000Z</time>
      </trkpt>
      <trkpt lat="43.96422" lon="5.1282">
        <ele>471.9</ele>
        <time>2013-02-18T15:59:38.000Z</time>
      </trkpt>
      <trkpt lat="43.9642" lon="5.12819">
        <ele>470.7</ele>
        <time>2013-02-18T15:59:39.000Z</time>
      </trkpt>
      <trkpt lat="43.96418" lon="5.12818">
        <ele>471.1</ele>
        <time>2013-02-18T15:59:40.000Z</time>
      </trkpt>
      <trkpt lat="43.96417" lon="5.12816">
        <ele>471.1</ele>
        <time>2013-02-18T15:59:41.000Z</time>
      </trkpt>
      <trkpt lat="43.96415" lon="5.12813">
        <ele>470.5</ele>
        <time>2013-02-18T15:59:42.000Z</time>
      </trkpt>
      <trkpt lat="43.96414" lon="5.1281">
        <ele>469.6</ele>
        <time>2013-02-18T15:59:43.000Z</time>
      </trkpt>
      <trkpt lat="43.96413" lon="5.12807">
        <ele>469</ele>
        <time>2013-02-18T15:59:44.000Z</time>
      </trkpt>
      <trkpt lat="43.9641" lon="5.12805">
        <ele>469.2</ele>
        <time>2013-02-18T15:59:45.000Z</time>
      </trkpt>
      <trkpt lat="43.96408" lon="5.12803">
        <ele>468.7</ele>
        <time>2013-02-18T15:59:46.000Z</time>
      </trkpt>
      <trkpt lat="43.96406" lon="5.128">
        <ele>468.5</ele>
        <time>2013-02-18T15:59:47.000Z</time>
      </trkpt>
      <trkpt lat="43.96403" lon="5.12795">
        <ele>467.6</ele>
        <time>2013-02-18T15:59:48.000Z</time>
      </trkpt>
      <trkpt lat="43.964" lon="5.12791">
        <ele>468.1</ele>
        <time>2013-02-18T15:59:49.000Z</time>
      </trkpt>
      <trkpt lat="43.96397" lon="5.12787">
        <ele>468.6</ele>
        <time>2013-02-18T15:59:50.000Z</time>
      </trkpt>
      <trkpt lat="43.96394" lon="5.12785">
        <ele>470.5</ele>
        <time>2013-02-18T15:59:51.000Z</time>
      </trkpt>
      <trkpt lat="43.96388" lon="5.1279">
        <ele>476.2</ele>
        <time>2013-02-18T15:59:52.000Z</time>
      </trkpt>
      <trkpt lat="43.96385" lon="5.12797">
        <ele>478.6</ele>
        <time>2013-02-18T15:59:53.000Z</time>
      </trkpt>
      <trkpt lat="43.96382" lon="5.12798">
        <ele>479.5</ele>
        <time>2013-02-18T15:59:54.000Z</time>
      </trkpt>
      <trkpt lat="43.96378" lon="5.12794">
        <ele>479.3</ele>
        <time>2013-02-18T15:59:55.000Z</time>
      </trkpt>
      <trkpt lat="43.96376" lon="5.12787">
        <ele>481.6</ele>
        <time>2013-02-18T15:59:56.000Z</time>
      </trkpt>
      <trkpt lat="43.96374" lon="5.12783">
        <ele>480.8</ele>
        <time>2013-02-18T15:59:57.000Z</time>
      </trkpt>
      <trkpt lat="43.9637" lon="5.12781">
        <ele>480.8</ele>
        <time>2013-02-18T15:59:58.000Z</time>
      </trkpt>
      <trkpt lat="43.96367" lon="5.12779">
        <ele>481.1</ele>
        <time>2013-02-18T15:59:59.000Z</time>
      </trkpt>
      <trkpt lat="43.96362" lon="5.12778">
        <ele>483.2</ele>
        <time>2013-02-18T16:00:00.000Z</time>
      </trkpt>
      <trkpt lat="43.96357" lon="5.12776">
        <ele>483.9</ele>
        <time>2013-02-18T16:00:01.000Z</time>
      </trkpt>
      <trkpt lat="43.96354" lon="5.12774">
        <ele>484.6</ele>
        <time>2013-02-18T16:00:02.000Z</time>
      </trkpt>
      <trkpt lat="43.96351" lon="5.12772">
        <ele>484</ele>
        <time>2013-02-18T16:00:03.000Z</time>
      </trkpt>
      <trkpt lat="43.96348" lon="5.12771">
        <ele>483</ele>
        <time>2013-02-18T16:00:04.000Z</time>
      </trkpt>
      <trkpt lat="43.96345" lon="5.1277">
        <ele>482.1</ele>
        <time>2013-02-18T16:00:05.000Z</time>
      </trkpt>
      <trkpt lat="43.96342" lon="5.12769">
        <ele>481.8</ele>
        <time>2013-02-18T16:00:06.000Z</time>
      </trkpt>
      <trkpt lat="43.96339" lon="5.12767">
        <ele>481.2</ele>
        <time>2013-02-18T16:00:07.000Z</time>
      </trkpt>
      <trkpt lat="43.96334" lon="5.12765">
        <ele>483.2</ele>
        <time>2013-02-18T16:00:09.000Z</time>
      </trkpt>
      <trkpt lat="43.96331" lon="5.12765">
        <ele>487.1</ele>
        <time>2013-02-18T16:00:10.000Z</time>
      </trkpt>
      <trkpt lat="43.96328" lon="5.12769">
        <ele>490.6</ele>
        <time>2013-02-18T16:00:11.000Z</time>
      </trkpt>
      <trkpt lat="43.96325" lon="5.12771">
        <ele>491.6</ele>
        <time>2013-02-18T16:00:12.000Z</time>
      </trkpt>
      <trkpt lat="43.96323" lon="5.1277">
        <ele>491.2</ele>
        <time>2013-02-18T16:00:13.000Z</time>
      </trkpt>
      <trkpt lat="43.96316" lon="5.12768">
        <ele>496.3</ele>
        <time>2013-02-18T16:00:14.000Z</time>
      </trkpt>
      <trkpt lat="43.96313" lon="5.12764">
        <ele>496.3</ele>
        <time>2013-02-18T16:00:15.000Z</time>
      </trkpt>
      <trkpt lat="43.9631" lon="5.12762">
        <ele>496</ele>
        <time>2013-02-18T16:00:16.000Z</time>
      </trkpt>
      <trkpt lat="43.96307" lon="5.1276">
        <ele>495.7</ele>
        <time>2013-02-18T16:00:17.000Z</time>
      </trkpt>
      <trkpt lat="43.96304" lon="5.12758">
        <ele>496.8</ele>
        <time>2013-02-18T16:00:18.000Z</time>
      </trkpt>
      <trkpt lat="43.96301" lon="5.12757">
        <ele>498.5</ele>
        <time>2013-02-18T16:00:19.000Z</time>
      </trkpt>
      <trkpt lat="43.96298" lon="5.12759">
        <ele>499.1</ele>
        <time>2013-02-18T16:00:20.000Z</time>
      </trkpt>
      <trkpt lat="43.96296" lon="5.12761">
        <ele>501.7</ele>
        <time>2013-02-18T16:00:21.000Z</time>
      </trkpt>
      <trkpt lat="43.9629" lon="5.12759">
        <ele>501.8</ele>
        <time>2013-02-18T16:00:22.000Z</time>
      </trkpt>
      <trkpt lat="43.96287" lon="5.12762">
        <ele>501.2</ele>
        <time>2013-02-18T16:00:23.000Z</time>
      </trkpt>
      <trkpt lat="43.96283" lon="5.12761">
        <ele>512.7</ele>
        <time>2013-02-18T16:00:24.000Z</time>
      </trkpt>
      <trkpt lat="43.96279" lon="5.12762">
        <ele>515.7</ele>
        <time>2013-02-18T16:00:26.000Z</time>
      </trkpt>
      <trkpt lat="43.96277" lon="5.12762">
        <ele>517.1</ele>
        <time>2013-02-18T16:00:27.000Z</time>
      </trkpt>
      <trkpt lat="43.96276" lon="5.12759">
        <ele>515.1</ele>
        <time>2013-02-18T16:00:28.000Z</time>
      </trkpt>
      <trkpt lat="43.96274" lon="5.12757">
        <ele>512</ele>
        <time>2013-02-18T16:00:29.000Z</time>
      </trkpt>
      <trkpt lat="43.96272" lon="5.12756">
        <ele>510.7</ele>
        <time>2013-02-18T16:00:30.000Z</time>
      </trkpt>
      <trkpt lat="43.96269" lon="5.12755">
        <ele>509.7</ele>
        <time>2013-02-18T16:00:31.000Z</time>
      </trkpt>
      <trkpt lat="43.96266" lon="5.12754">
        <ele>508.7</ele>
        <time>2013-02-18T16:00:32.000Z</time>
      </trkpt>
      <trkpt lat="43.96263" lon="5.12754">
        <ele>508.6</ele>
        <time>2013-02-18T16:00:33.000Z</time>
      </trkpt>
      <trkpt lat="43.96261" lon="5.12754">
        <ele>508.5</ele>
        <time>2013-02-18T16:00:34.000Z</time>
      </trkpt>
      <trkpt lat="43.96258" lon="5.12752">
        <ele>507.3</ele>
        <time>2013-02-18T16:00:35.000Z</time>
      </trkpt>
      <trkpt lat="43.96254" lon="5.12748">
        <ele>506.7</ele>
        <time>2013-02-18T16:00:36.000Z</time>
      </trkpt>
      <trkpt lat="43.96251" lon="5.12746">
        <ele>506.4</ele>
        <time>2013-02-18T16:00:37.000Z</time>
      </trkpt>
      <trkpt lat="43.96248" lon="5.12744">
        <ele>505.9</ele>
        <time>2013-02-18T16:00:38.000Z</time>
      </trkpt>
      <trkpt lat="43.96247" lon="5.12743">
        <ele>503</ele>
        <time>2013-02-18T16:00:39.000Z</time>
      </trkpt>
      <trkpt lat="43.96244" lon="5.12742">
        <ele>503.6</ele>
        <time>2013-02-18T16:00:40.000Z</time>
      </trkpt>
      <trkpt lat="43.96241" lon="5.12741">
        <ele>503.9</ele>
        <time>2013-02-18T16:00:41.000Z</time>
      </trkpt>
      <trkpt lat="43.96238" lon="5.1274">
        <ele>503.9</ele>
        <time>2013-02-18T16:00:42.000Z</time>
      </trkpt>
      <trkpt lat="43.96236" lon="5.12739">
        <ele>503.1</ele>
        <time>2013-02-18T16:00:43.000Z</time>
      </trkpt>
      <trkpt lat="43.96233" lon="5.12734">
        <ele>501</ele>
        <time>2013-02-18T16:00:44.000Z</time>
      </trkpt>
      <trkpt lat="43.9623" lon="5.12732">
        <ele>500.4</ele>
        <time>2013-02-18T16:00:45.000Z</time>
      </trkpt>
      <trkpt lat="43.96227" lon="5.1273">
        <ele>498.9</ele>
        <time>2013-02-18T16:00:46.000Z</time>
      </trkpt>
      <trkpt lat="43.96223" lon="5.12728">
        <ele>498.9</ele>
        <time>2013-02-18T16:00:47.000Z</time>
      </trkpt>
      <trkpt lat="43.96218" lon="5.12728">
        <ele>499.8</ele>
        <time>2013-02-18T16:00:48.000Z</time>
      </trkpt>
      <trkpt lat="43.96215" lon="5.12725">
        <ele>497.9</ele>
        <time>2013-02-18T16:00:50.000Z</time>
      </trkpt>
      <trkpt lat="43.96213" lon="5.12722">
        <ele>496.9</ele>
        <time>2013-02-18T16:00:51.000Z</time>
      </trkpt>
      <trkpt lat="43.96211" lon="5.12719">
        <ele>495.4</ele>
        <time>2013-02-18T16:00:52.000Z</time>
      </trkpt>
      <trkpt lat="43.96209" lon="5.12717">
        <ele>495.4</ele>
        <time>2013-02-18T16:00:53.000Z</time>
      </trkpt>
      <trkpt lat="43.96208" lon="5.12713">
        <ele>494.3</ele>
        <time>2013-02-18T16:00:54.000Z</time>
      </trkpt>
      <trkpt lat="43.96207" lon="5.12709">
        <ele>493.8</ele>
        <time>2013-02-18T16:00:55.000Z</time>
      </trkpt>
      <trkpt lat="43.96207" lon="5.12704">
        <ele>492.9</ele>
        <time>2013-02-18T16:00:56.000Z</time>
      </trkpt>
      <trkpt lat="43.9621" lon="5.127">
        <ele>490.3</ele>
        <time>2013-02-18T16:00:57.000Z</time>
      </trkpt>
      <trkpt lat="43.96213" lon="5.12697">
        <ele>486.2</ele>
        <time>2013-02-18T16:00:58.000Z</time>
      </trkpt>
      <trkpt lat="43.96216" lon="5.12695">
        <ele>483.8</ele>
        <time>2013-02-18T16:00:59.000Z</time>
      </trkpt>
      <trkpt lat="43.96219" lon="5.12693">
        <ele>482.4</ele>
        <time>2013-02-18T16:01:00.000Z</time>
      </trkpt>
      <trkpt lat="43.96222" lon="5.12691">
        <ele>481.1</ele>
        <time>2013-02-18T16:01:01.000Z</time>
      </trkpt>
      <trkpt lat="43.96224" lon="5.12689">
        <ele>480.8</ele>
        <time>2013-02-18T16:01:02.000Z</time>
      </trkpt>
      <trkpt lat="43.96227" lon="5.12686">
        <ele>480.4</ele>
        <time>2013-02-18T16:01:03.000Z</time>
      </trkpt>
      <trkpt lat="43.96229" lon="5.12683">
        <ele>479.6</ele>
        <time>2013-02-18T16:01:04.000Z</time>
      </trkpt>
      <trkpt lat="43.96233" lon="5.12681">
        <ele>478.4</ele>
        <time>2013-02-18T16:01:05.000Z</time>
      </trkpt>
      <trkpt lat="43.96237" lon="5.12682">
        <ele>475.6</ele>
        <time>2013-02-18T16:01:06.000Z</time>
      </trkpt>
      <trkpt lat="43.9624" lon="5.12678">
        <ele>473.5</ele>
        <time>2013-02-18T16:01:07.000Z</time>
      </trkpt>
      <trkpt lat="43.96242" lon="5.12673">
        <ele>471.8</ele>
        <time>2013-02-18T16:01:08.000Z</time>
      </trkpt>
      <trkpt lat="43.96245" lon="5.12668">
        <ele>470.2</ele>
        <time>2013-02-18T16:01:09.000Z</time>
      </trkpt>
      <trkpt lat="43.96245" lon="5.12666">
        <ele>469.2</ele>
        <time>2013-02-18T16:01:10.000Z</time>
      </trkpt>
      <trkpt lat="43.96246" lon="5.12662">
        <ele>468.6</ele>
        <time>2013-02-18T16:01:11.000Z</time>
      </trkpt>
      <trkpt lat="43.96245" lon="5.12659">
        <ele>467.4</ele>
        <time>2013-02-18T16:01:12.000Z</time>
      </trkpt>
      <trkpt lat="43.96248" lon="5.12655">
        <ele>463.5</ele>
        <time>2013-02-18T16:01:20.000Z</time>
      </trkpt>
      <trkpt lat="43.96251" lon="5.12655">
        <ele>462.6</ele>
        <time>2013-02-18T16:01:21.000Z</time>
      </trkpt>
      <trkpt lat="43.96254" lon="5.12658">
        <ele>460.8</ele>
        <time>2013-02-18T16:01:23.000Z</time>
      </trkpt>
      <trkpt lat="43.96255" lon="5.1266">
        <ele>460.6</ele>
        <time>2013-02-18T16:01:24.000Z</time>
      </trkpt>
      <trkpt lat="43.96257" lon="5.12663">
        <ele>459.2</ele>
        <time>2013-02-18T16:01:26.000Z</time>
      </trkpt>
      <trkpt lat="43.96259" lon="5.12665">
        <ele>459</ele>
        <time>2013-02-18T16:01:27.000Z</time>
      </trkpt>
      <trkpt lat="43.96262" lon="5.12667">
        <ele>457.5</ele>
        <time>2013-02-18T16:01:29.000Z</time>
      </trkpt>
      <trkpt lat="43.96265" lon="5.12668">
        <ele>457.6</ele>
        <time>2013-02-18T16:01:30.000Z</time>
      </trkpt>
      <trkpt lat="43.96267" lon="5.12668">
        <ele>457.3</ele>
        <time>2013-02-18T16:01:31.000Z</time>
      </trkpt>
      <trkpt lat="43.96271" lon="5.1267">
        <ele>456.1</ele>
        <time>2013-02-18T16:01:32.000Z</time>
      </trkpt>
      <trkpt lat="43.96274" lon="5.1267">
        <ele>455.6</ele>
        <time>2013-02-18T16:01:33.000Z</time>
      </trkpt>
      <trkpt lat="43.96277" lon="5.12669">
        <ele>454.9</ele>
        <time>2013-02-18T16:01:34.000Z</time>
      </trkpt>
      <trkpt lat="43.9628" lon="5.12667">
        <ele>454.5</ele>
        <time>2013-02-18T16:01:35.000Z</time>
      </trkpt>
      <trkpt lat="43.96281" lon="5.12664">
        <ele>453.5</ele>
        <time>2013-02-18T16:01:36.000Z</time>
      </trkpt>
      <trkpt lat="43.96284" lon="5.12659">
        <ele>452.8</ele>
        <time>2013-02-18T16:01:38.000Z</time>
      </trkpt>
      <trkpt lat="43.96278" lon="5.12656">
        <ele>452.5</ele>
        <time>2013-02-18T16:01:39.000Z</time>
      </trkpt>
      <trkpt lat="43.96276" lon="5.12654">
        <ele>452</ele>
        <time>2013-02-18T16:01:40.000Z</time>
      </trkpt>
      <trkpt lat="43.96274" lon="5.12651">
        <ele>451.7</ele>
        <time>2013-02-18T16:01:41.000Z</time>
      </trkpt>
      <trkpt lat="43.96278" lon="5.12647">
        <ele>451.3</ele>
        <time>2013-02-18T16:01:42.000Z</time>
      </trkpt>
      <trkpt lat="43.9628" lon="5.12645">
        <ele>449.8</ele>
        <time>2013-02-18T16:01:43.000Z</time>
      </trkpt>
      <trkpt lat="43.96281" lon="5.12641">
        <ele>449.6</ele>
        <time>2013-02-18T16:01:44.000Z</time>
      </trkpt>
      <trkpt lat="43.96282" lon="5.12637">
        <ele>449.6</ele>
        <time>2013-02-18T16:01:45.000Z</time>
      </trkpt>
      <trkpt lat="43.96283" lon="5.12634">
        <ele>448</ele>
        <time>2013-02-18T16:01:51.000Z</time>
      </trkpt>
      <trkpt lat="43.96283" lon="5.12632">
        <ele>447.1</ele>
        <time>2013-02-18T16:01:52.000Z</time>
      </trkpt>
      <trkpt lat="43.96284" lon="5.12627">
        <ele>445.8</ele>
        <time>2013-02-18T16:01:54.000Z</time>
      </trkpt>
      <trkpt lat="43.96285" lon="5.12625">
        <ele>445.5</ele>
        <time>2013-02-18T16:01:55.000Z</time>
      </trkpt>
      <trkpt lat="43.96287" lon="5.12622">
        <ele>444.9</ele>
        <time>2013-02-18T16:01:57.000Z</time>
      </trkpt>
      <trkpt lat="43.96287" lon="5.1262">
        <ele>444.5</ele>
        <time>2013-02-18T16:01:58.000Z</time>
      </trkpt>
      <trkpt lat="43.96291" lon="5.12617">
        <ele>443.4</ele>
        <time>2013-02-18T16:02:02.000Z</time>
      </trkpt>
      <trkpt lat="43.96292" lon="5.12616">
        <ele>443.3</ele>
        <time>2013-02-18T16:02:03.000Z</time>
      </trkpt>
      <trkpt lat="43.96293" lon="5.12614">
        <ele>443.6</ele>
        <time>2013-02-18T16:02:14.000Z</time>
      </trkpt>
      <trkpt lat="43.96293" lon="5.1261">
        <ele>443.5</ele>
        <time>2013-02-18T16:02:15.000Z</time>
      </trkpt>
      <trkpt lat="43.96294" lon="5.12607">
        <ele>442.4</ele>
        <time>2013-02-18T16:02:16.000Z</time>
      </trkpt>
      <trkpt lat="43.96295" lon="5.12604">
        <ele>441.7</ele>
        <time>2013-02-18T16:02:17.000Z</time>
      </trkpt>
      <trkpt lat="43.96295" lon="5.126">
        <ele>441.3</ele>
        <time>2013-02-18T16:02:18.000Z</time>
      </trkpt>
      <trkpt lat="43.96296" lon="5.12598">
        <ele>440.9</ele>
        <time>2013-02-18T16:02:19.000Z</time>
      </trkpt>
      <trkpt lat="43.96299" lon="5.12596">
        <ele>439.6</ele>
        <time>2013-02-18T16:02:20.000Z</time>
      </trkpt>
      <trkpt lat="43.96301" lon="5.12595">
        <ele>438.4</ele>
        <time>2013-02-18T16:02:21.000Z</time>
      </trkpt>
      <trkpt lat="43.96303" lon="5.12593">
        <ele>437.5</ele>
        <time>2013-02-18T16:02:22.000Z</time>
      </trkpt>
      <trkpt lat="43.96305" lon="5.12592">
        <ele>436.6</ele>
        <time>2013-02-18T16:02:23.000Z</time>
      </trkpt>
      <trkpt lat="43.96307" lon="5.12591">
        <ele>435.5</ele>
        <time>2013-02-18T16:02:24.000Z</time>
      </trkpt>
      <trkpt lat="43.96309" lon="5.12589">
        <ele>434.4</ele>
        <time>2013-02-18T16:02:25.000Z</time>
      </trkpt>
      <trkpt lat="43.96311" lon="5.12587">
        <ele>433.3</ele>
        <time>2013-02-18T16:02:26.000Z</time>
      </trkpt>
      <trkpt lat="43.96313" lon="5.12583">
        <ele>433.4</ele>
        <time>2013-02-18T16:02:27.000Z</time>
      </trkpt>
      <trkpt lat="43.96317" lon="5.12581">
        <ele>432.8</ele>
        <time>2013-02-18T16:02:28.000Z</time>
      </trkpt>
      <trkpt lat="43.9632" lon="5.12579">
        <ele>432.1</ele>
        <time>2013-02-18T16:02:29.000Z</time>
      </trkpt>
      <trkpt lat="43.96323" lon="5.12577">
        <ele>431.9</ele>
        <time>2013-02-18T16:02:30.000Z</time>
      </trkpt>
      <trkpt lat="43.96325" lon="5.12574">
        <ele>431.9</ele>
        <time>2013-02-18T16:02:31.000Z</time>
      </trkpt>
      <trkpt lat="43.96327" lon="5.12571">
        <ele>431.5</ele>
        <time>2013-02-18T16:02:32.000Z</time>
      </trkpt>
      <trkpt lat="43.9633" lon="5.12569">
        <ele>431.7</ele>
        <time>2013-02-18T16:02:33.000Z</time>
      </trkpt>
      <trkpt lat="43.96334" lon="5.12567">
        <ele>431</ele>
        <time>2013-02-18T16:02:34.000Z</time>
      </trkpt>
      <trkpt lat="43.96338" lon="5.12565">
        <ele>430.8</ele>
        <time>2013-02-18T16:02:35.000Z</time>
      </trkpt>
      <trkpt lat="43.96342" lon="5.12565">
        <ele>431.2</ele>
        <time>2013-02-18T16:02:36.000Z</time>
      </trkpt>
      <trkpt lat="43.96346" lon="5.12565">
        <ele>430.8</ele>
        <time>2013-02-18T16:02:37.000Z</time>
      </trkpt>
      <trkpt lat="43.9635" lon="5.12564">
        <ele>430.6</ele>
        <time>2013-02-18T16:02:38.000Z</time>
      </trkpt>
      <trkpt lat="43.96353" lon="5.12563">
        <ele>430.3</ele>
        <time>2013-02-18T16:02:39.000Z</time>
      </trkpt>
      <trkpt lat="43.96355" lon="5.1256">
        <ele>429.8</ele>
        <time>2013-02-18T16:02:40.000Z</time>
      </trkpt>
      <trkpt lat="43.96358" lon="5.12557">
        <ele>429</ele>
        <time>2013-02-18T16:02:41.000Z</time>
      </trkpt>
      <trkpt lat="43.96361" lon="5.12556">
        <ele>428.8</ele>
        <time>2013-02-18T16:02:42.000Z</time>
      </trkpt>
      <trkpt lat="43.96365" lon="5.12556">
        <ele>428.3</ele>
        <time>2013-02-18T16:02:43.000Z</time>
      </trkpt>
      <trkpt lat="43.96369" lon="5.12557">
        <ele>427.8</ele>
        <time>2013-02-18T16:02:44.000Z</time>
      </trkpt>
      <trkpt lat="43.96373" lon="5.12558">
        <ele>427.2</ele>
        <time>2013-02-18T16:02:45.000Z</time>
      </trkpt>
      <trkpt lat="43.96375" lon="5.12559">
        <ele>426.9</ele>
        <time>2013-02-18T16:02:46.000Z</time>
      </trkpt>
      <trkpt lat="43.96377" lon="5.12559">
        <ele>426</ele>
        <time>2013-02-18T16:02:47.000Z</time>
      </trkpt>
      <trkpt lat="43.9638" lon="5.12556">
        <ele>425.6</ele>
        <time>2013-02-18T16:02:48.000Z</time>
      </trkpt>
      <trkpt lat="43.96381" lon="5.12552">
        <ele>425.4</ele>
        <time>2013-02-18T16:02:49.000Z</time>
      </trkpt>
      <trkpt lat="43.96382" lon="5.12549">
        <ele>424.9</ele>
        <time>2013-02-18T16:02:50.000Z</time>
      </trkpt>
      <trkpt lat="43.96382" lon="5.12544">
        <ele>424.4</ele>
        <time>2013-02-18T16:02:51.000Z</time>
      </trkpt>
      <trkpt lat="43.96383" lon="5.12539">
        <ele>424</ele>
        <time>2013-02-18T16:02:52.000Z</time>
      </trkpt>
      <trkpt lat="43.96384" lon="5.12535">
        <ele>423.5</ele>
        <time>2013-02-18T16:02:53.000Z</time>
      </trkpt>
      <trkpt lat="43.96388" lon="5.12535">
        <ele>423.1</ele>
        <time>2013-02-18T16:02:54.000Z</time>
      </trkpt>
      <trkpt lat="43.96392" lon="5.12534">
        <ele>422.7</ele>
        <time>2013-02-18T16:02:55.000Z</time>
      </trkpt>
      <trkpt lat="43.96396" lon="5.12533">
        <ele>421.9</ele>
        <time>2013-02-18T16:02:56.000Z</time>
      </trkpt>
      <trkpt lat="43.964" lon="5.12532">
        <ele>421.3</ele>
        <time>2013-02-18T16:02:57.000Z</time>
      </trkpt>
      <trkpt lat="43.96404" lon="5.12531">
        <ele>420.4</ele>
        <time>2013-02-18T16:02:58.000Z</time>
      </trkpt>
      <trkpt lat="43.96407" lon="5.1253">
        <ele>419.5</ele>
        <time>2013-02-18T16:02:59.000Z</time>
      </trkpt>
      <trkpt lat="43.96411" lon="5.12528">
        <ele>418.7</ele>
        <time>2013-02-18T16:03:00.000Z</time>
      </trkpt>
      <trkpt lat="43.96415" lon="5.12527">
        <ele>417.8</ele>
        <time>2013-02-18T16:03:01.000Z</time>
      </trkpt>
      <trkpt lat="43.9642" lon="5.12525">
        <ele>417.3</ele>
        <time>2013-02-18T16:03:02.000Z</time>
      </trkpt>
      <trkpt lat="43.96424" lon="5.12523">
        <ele>416.6</ele>
        <time>2013-02-18T16:03:03.000Z</time>
      </trkpt>
      <trkpt lat="43.96429" lon="5.12522">
        <ele>415.7</ele>
        <time>2013-02-18T16:03:04.000Z</time>
      </trkpt>
      <trkpt lat="43.96434" lon="5.12522">
        <ele>415.1</ele>
        <time>2013-02-18T16:03:05.000Z</time>
      </trkpt>
      <trkpt lat="43.96439" lon="5.1252">
        <ele>415.4</ele>
        <time>2013-02-18T16:03:06.000Z</time>
      </trkpt>
      <trkpt lat="43.96445" lon="5.12518">
        <ele>414.1</ele>
        <time>2013-02-18T16:03:07.000Z</time>
      </trkpt>
      <trkpt lat="43.96455" lon="5.12513">
        <ele>414.1</ele>
        <time>2013-02-18T16:03:09.000Z</time>
      </trkpt>
      <trkpt lat="43.9646" lon="5.1251">
        <ele>414</ele>
        <time>2013-02-18T16:03:10.000Z</time>
      </trkpt>
      <trkpt lat="43.96464" lon="5.12507">
        <ele>413.6</ele>
        <time>2013-02-18T16:03:11.000Z</time>
      </trkpt>
      <trkpt lat="43.96468" lon="5.12505">
        <ele>413.4</ele>
        <time>2013-02-18T16:03:12.000Z</time>
      </trkpt>
      <trkpt lat="43.96471" lon="5.12504">
        <ele>413.9</ele>
        <time>2013-02-18T16:03:13.000Z</time>
      </trkpt>
      <trkpt lat="43.96475" lon="5.12503">
        <ele>414.9</ele>
        <time>2013-02-18T16:03:15.000Z</time>
      </trkpt>
      <trkpt lat="43.96477" lon="5.12503">
        <ele>414.8</ele>
        <time>2013-02-18T16:03:16.000Z</time>
      </trkpt>
      <trkpt lat="43.9648" lon="5.12502">
        <ele>414.5</ele>
        <time>2013-02-18T16:03:17.000Z</time>
      </trkpt>
      <trkpt lat="43.96482" lon="5.12502">
        <ele>414.4</ele>
        <time>2013-02-18T16:03:18.000Z</time>
      </trkpt>
      <trkpt lat="43.96485" lon="5.12502">
        <ele>414.6</ele>
        <time>2013-02-18T16:03:19.000Z</time>
      </trkpt>
      <trkpt lat="43.96488" lon="5.12503">
        <ele>414.4</ele>
        <time>2013-02-18T16:03:20.000Z</time>
      </trkpt>
      <trkpt lat="43.9649" lon="5.12503">
        <ele>414.4</ele>
        <time>2013-02-18T16:03:21.000Z</time>
      </trkpt>
      <trkpt lat="43.96493" lon="5.12503">
        <ele>414.5</ele>
        <time>2013-02-18T16:03:22.000Z</time>
      </trkpt>
      <trkpt lat="43.96496" lon="5.12503">
        <ele>414.4</ele>
        <time>2013-02-18T16:03:23.000Z</time>
      </trkpt>
      <trkpt lat="43.96499" lon="5.12502">
        <ele>414.2</ele>
        <time>2013-02-18T16:03:24.000Z</time>
      </trkpt>
      <trkpt lat="43.96502" lon="5.12502">
        <ele>414.1</ele>
        <time>2013-02-18T16:03:25.000Z</time>
      </trkpt>
      <trkpt lat="43.96505" lon="5.12502">
        <ele>414.1</ele>
        <time>2013-02-18T16:03:26.000Z</time>
      </trkpt>
      <trkpt lat="43.96508" lon="5.12501">
        <ele>414.1</ele>
        <time>2013-02-18T16:03:27.000Z</time>
      </trkpt>
      <trkpt lat="43.96512" lon="5.12501">
        <ele>413.9</ele>
        <time>2013-02-18T16:03:28.000Z</time>
      </trkpt>
      <trkpt lat="43.96515" lon="5.12501">
        <ele>413.8</ele>
        <time>2013-02-18T16:03:29.000Z</time>
      </trkpt>
      <trkpt lat="43.96518" lon="5.12501">
        <ele>413.4</ele>
        <time>2013-02-18T16:03:30.000Z</time>
      </trkpt>
      <trkpt lat="43.96522" lon="5.12501">
        <ele>413.2</ele>
        <time>2013-02-18T16:03:31.000Z</time>
      </trkpt>
      <trkpt lat="43.96526" lon="5.12501">
        <ele>413</ele>
        <time>2013-02-18T16:03:32.000Z</time>
      </trkpt>
      <trkpt lat="43.9653" lon="5.12501">
        <ele>412.8</ele>
        <time>2013-02-18T16:03:33.000Z</time>
      </trkpt>
      <trkpt lat="43.96534" lon="5.12501">
        <ele>413.2</ele>
        <time>2013-02-18T16:03:34.000Z</time>
      </trkpt>
      <trkpt lat="43.96539" lon="5.12502">
        <ele>413.1</ele>
        <time>2013-02-18T16:03:35.000Z</time>
      </trkpt>
      <trkpt lat="43.96543" lon="5.12503">
        <ele>412.7</ele>
        <time>2013-02-18T16:03:36.000Z</time>
      </trkpt>
      <trkpt lat="43.96548" lon="5.12504">
        <ele>412.3</ele>
        <time>2013-02-18T16:03:37.000Z</time>
      </trkpt>
      <trkpt lat="43.96551" lon="5.12504">
        <ele>411.9</ele>
        <time>2013-02-18T16:03:38.000Z</time>
      </trkpt>
      <trkpt lat="43.96555" lon="5.12505">
        <ele>411.8</ele>
        <time>2013-02-18T16:03:39.000Z</time>
      </trkpt>
      <trkpt lat="43.9656" lon="5.12505">
        <ele>411.8</ele>
        <time>2013-02-18T16:03:40.000Z</time>
      </trkpt>
      <trkpt lat="43.96563" lon="5.12506">
        <ele>410.9</ele>
        <time>2013-02-18T16:03:41.000Z</time>
      </trkpt>
      <trkpt lat="43.96567" lon="5.12506">
        <ele>410.8</ele>
        <time>2013-02-18T16:03:42.000Z</time>
      </trkpt>
      <trkpt lat="43.96571" lon="5.12506">
        <ele>411.4</ele>
        <time>2013-02-18T16:03:43.000Z</time>
      </trkpt>
      <trkpt lat="43.96574" lon="5.12506">
        <ele>411.9</ele>
        <time>2013-02-18T16:03:44.000Z</time>
      </trkpt>
      <trkpt lat="43.96578" lon="5.12506">
        <ele>410.9</ele>
        <time>2013-02-18T16:03:45.000Z</time>
      </trkpt>
      <trkpt lat="43.96582" lon="5.12506">
        <ele>410.9</ele>
        <time>2013-02-18T16:03:46.000Z</time>
      </trkpt>
      <trkpt lat="43.96585" lon="5.12506">
        <ele>411</ele>
        <time>2013-02-18T16:03:47.000Z</time>
      </trkpt>
      <trkpt lat="43.9659" lon="5.12506">
        <ele>410.7</ele>
        <time>2013-02-18T16:03:48.000Z</time>
      </trkpt>
      <trkpt lat="43.96593" lon="5.12506">
        <ele>411.4</ele>
        <time>2013-02-18T16:03:49.000Z</time>
      </trkpt>
      <trkpt lat="43.96597" lon="5.12506">
        <ele>411.5</ele>
        <time>2013-02-18T16:03:50.000Z</time>
      </trkpt>
      <trkpt lat="43.96601" lon="5.12507">
        <ele>410.9</ele>
        <time>2013-02-18T16:03:51.000Z</time>
      </trkpt>
      <trkpt lat="43.96605" lon="5.12507">
        <ele>410.1</ele>
        <time>2013-02-18T16:03:52.000Z</time>
      </trkpt>
      <trkpt lat="43.9661" lon="5.12507">
        <ele>409.4</ele>
        <time>2013-02-18T16:03:53.000Z</time>
      </trkpt>
      <trkpt lat="43.96613" lon="5.12507">
        <ele>408.9</ele>
        <time>2013-02-18T16:03:54.000Z</time>
      </trkpt>
      <trkpt lat="43.96616" lon="5.12507">
        <ele>408.7</ele>
        <time>2013-02-18T16:03:55.000Z</time>
      </trkpt>
      <trkpt lat="43.96619" lon="5.12507">
        <ele>409</ele>
        <time>2013-02-18T16:03:56.000Z</time>
      </trkpt>
      <trkpt lat="43.96623" lon="5.12508">
        <ele>409</ele>
        <time>2013-02-18T16:03:57.000Z</time>
      </trkpt>
      <trkpt lat="43.96626" lon="5.12507">
        <ele>408.1</ele>
        <time>2013-02-18T16:03:58.000Z</time>
      </trkpt>
      <trkpt lat="43.9663" lon="5.12507">
        <ele>407.4</ele>
        <time>2013-02-18T16:03:59.000Z</time>
      </trkpt>
      <trkpt lat="43.96633" lon="5.12507">
        <ele>407</ele>
        <time>2013-02-18T16:04:00.000Z</time>
      </trkpt>
      <trkpt lat="43.96636" lon="5.12507">
        <ele>406.8</ele>
        <time>2013-02-18T16:04:01.000Z</time>
      </trkpt>
      <trkpt lat="43.9664" lon="5.12507">
        <ele>406.7</ele>
        <time>2013-02-18T16:04:02.000Z</time>
      </trkpt>
      <trkpt lat="43.96644" lon="5.12505">
        <ele>407.7</ele>
        <time>2013-02-18T16:04:03.000Z</time>
      </trkpt>
      <trkpt lat="43.96647" lon="5.12504">
        <ele>407.4</ele>
        <time>2013-02-18T16:04:04.000Z</time>
      </trkpt>
      <trkpt lat="43.9665" lon="5.12503">
        <ele>408</ele>
        <time>2013-02-18T16:04:05.000Z</time>
      </trkpt>
      <trkpt lat="43.96653" lon="5.12502">
        <ele>408</ele>
        <time>2013-02-18T16:04:06.000Z</time>
      </trkpt>
      <trkpt lat="43.96657" lon="5.12501">
        <ele>408.3</ele>
        <time>2013-02-18T16:04:07.000Z</time>
      </trkpt>
      <trkpt lat="43.96664" lon="5.125">
        <ele>408.7</ele>
        <time>2013-02-18T16:04:09.000Z</time>
      </trkpt>
      <trkpt lat="43.96667" lon="5.12498">
        <ele>408.4</ele>
        <time>2013-02-18T16:04:10.000Z</time>
      </trkpt>
      <trkpt lat="43.96671" lon="5.12496">
        <ele>408.4</ele>
        <time>2013-02-18T16:04:11.000Z</time>
      </trkpt>
      <trkpt lat="43.96674" lon="5.12495">
        <ele>408.2</ele>
        <time>2013-02-18T16:04:12.000Z</time>
      </trkpt>
      <trkpt lat="43.96677" lon="5.12494">
        <ele>408.3</ele>
        <time>2013-02-18T16:04:13.000Z</time>
      </trkpt>
      <trkpt lat="43.9668" lon="5.12493">
        <ele>409</ele>
        <time>2013-02-18T16:04:14.000Z</time>
      </trkpt>
      <trkpt lat="43.96684" lon="5.12492">
        <ele>409.1</ele>
        <time>2013-02-18T16:04:15.000Z</time>
      </trkpt>
      <trkpt lat="43.96687" lon="5.12491">
        <ele>409</ele>
        <time>2013-02-18T16:04:16.000Z</time>
      </trkpt>
      <trkpt lat="43.9669" lon="5.12489">
        <ele>409</ele>
        <time>2013-02-18T16:04:17.000Z</time>
      </trkpt>
      <trkpt lat="43.96694" lon="5.12488">
        <ele>409.5</ele>
        <time>2013-02-18T16:04:18.000Z</time>
      </trkpt>
      <trkpt lat="43.96697" lon="5.12486">
        <ele>409.8</ele>
        <time>2013-02-18T16:04:19.000Z</time>
      </trkpt>
      <trkpt lat="43.967" lon="5.12484">
        <ele>410.1</ele>
        <time>2013-02-18T16:04:20.000Z</time>
      </trkpt>
      <trkpt lat="43.96703" lon="5.12482">
        <ele>410.4</ele>
        <time>2013-02-18T16:04:21.000Z</time>
      </trkpt>
      <trkpt lat="43.96706" lon="5.1248">
        <ele>410.1</ele>
        <time>2013-02-18T16:04:22.000Z</time>
      </trkpt>
      <trkpt lat="43.96709" lon="5.12478">
        <ele>409.9</ele>
        <time>2013-02-18T16:04:23.000Z</time>
      </trkpt>
      <trkpt lat="43.96712" lon="5.12476">
        <ele>410.1</ele>
        <time>2013-02-18T16:04:24.000Z</time>
      </trkpt>
      <trkpt lat="43.96715" lon="5.12475">
        <ele>409.9</ele>
        <time>2013-02-18T16:04:25.000Z</time>
      </trkpt>
      <trkpt lat="43.96718" lon="5.12473">
        <ele>410</ele>
        <time>2013-02-18T16:04:26.000Z</time>
      </trkpt>
      <trkpt lat="43.96721" lon="5.12471">
        <ele>410.2</ele>
        <time>2013-02-18T16:04:27.000Z</time>
      </trkpt>
      <trkpt lat="43.96724" lon="5.12468">
        <ele>410</ele>
        <time>2013-02-18T16:04:28.000Z</time>
      </trkpt>
      <trkpt lat="43.96727" lon="5.12465">
        <ele>410.1</ele>
        <time>2013-02-18T16:04:29.000Z</time>
      </trkpt>
      <trkpt lat="43.9673" lon="5.12463">
        <ele>409.9</ele>
        <time>2013-02-18T16:04:30.000Z</time>
      </trkpt>
      <trkpt lat="43.96733" lon="5.12461">
        <ele>409.5</ele>
        <time>2013-02-18T16:04:31.000Z</time>
      </trkpt>
      <trkpt lat="43.96736" lon="5.12458">
        <ele>409.4</ele>
        <time>2013-02-18T16:04:32.000Z</time>
      </trkpt>
      <trkpt lat="43.96739" lon="5.12456">
        <ele>409.5</ele>
        <time>2013-02-18T16:04:33.000Z</time>
      </trkpt>
      <trkpt lat="43.96742" lon="5.12452">
        <ele>409.5</ele>
        <time>2013-02-18T16:04:34.000Z</time>
      </trkpt>
      <trkpt lat="43.96745" lon="5.1245">
        <ele>409.3</ele>
        <time>2013-02-18T16:04:35.000Z</time>
      </trkpt>
      <trkpt lat="43.96748" lon="5.12446">
        <ele>408.9</ele>
        <time>2013-02-18T16:04:36.000Z</time>
      </trkpt>
      <trkpt lat="43.9675" lon="5.12443">
        <ele>408.6</ele>
        <time>2013-02-18T16:04:37.000Z</time>
      </trkpt>
      <trkpt lat="43.96752" lon="5.12439">
        <ele>408.5</ele>
        <time>2013-02-18T16:04:38.000Z</time>
      </trkpt>
      <trkpt lat="43.96755" lon="5.12436">
        <ele>408.3</ele>
        <time>2013-02-18T16:04:39.000Z</time>
      </trkpt>
      <trkpt lat="43.96757" lon="5.12433">
        <ele>408.4</ele>
        <time>2013-02-18T16:04:40.000Z</time>
      </trkpt>
      <trkpt lat="43.96759" lon="5.12429">
        <ele>408.3</ele>
        <time>2013-02-18T16:04:41.000Z</time>
      </trkpt>
      <trkpt lat="43.96761" lon="5.12424">
        <ele>408</ele>
        <time>2013-02-18T16:05:24.000Z</time>
      </trkpt>
      <trkpt lat="43.96762" lon="5.12423">
        <ele>407.9</ele>
        <time>2013-02-18T16:05:25.000Z</time>
      </trkpt>
      <trkpt lat="43.96765" lon="5.12423">
        <ele>408.1</ele>
        <time>2013-02-18T16:05:26.000Z</time>
      </trkpt>
      <trkpt lat="43.96768" lon="5.12422">
        <ele>407.5</ele>
        <time>2013-02-18T16:05:27.000Z</time>
      </trkpt>
      <trkpt lat="43.96772" lon="5.12423">
        <ele>407.1</ele>
        <time>2013-02-18T16:05:28.000Z</time>
      </trkpt>
      <trkpt lat="43.96775" lon="5.12424">
        <ele>406.4</ele>
        <time>2013-02-18T16:05:29.000Z</time>
      </trkpt>
      <trkpt lat="43.96779" lon="5.12426">
        <ele>406.6</ele>
        <time>2013-02-18T16:05:30.000Z</time>
      </trkpt>
      <trkpt lat="43.96782" lon="5.12428">
        <ele>405.5</ele>
        <time>2013-02-18T16:05:31.000Z</time>
      </trkpt>
      <trkpt lat="43.96786" lon="5.12429">
        <ele>405</ele>
        <time>2013-02-18T16:05:32.000Z</time>
      </trkpt>
      <trkpt lat="43.96789" lon="5.1243">
        <ele>404.3</ele>
        <time>2013-02-18T16:05:33.000Z</time>
      </trkpt>
      <trkpt lat="43.96793" lon="5.12431">
        <ele>403.1</ele>
        <time>2013-02-18T16:05:34.000Z</time>
      </trkpt>
      <trkpt lat="43.96797" lon="5.12432">
        <ele>402.9</ele>
        <time>2013-02-18T16:05:35.000Z</time>
      </trkpt>
      <trkpt lat="43.96801" lon="5.12432">
        <ele>402.1</ele>
        <time>2013-02-18T16:05:36.000Z</time>
      </trkpt>
      <trkpt lat="43.96807" lon="5.12434">
        <ele>401.7</ele>
        <time>2013-02-18T16:05:37.000Z</time>
      </trkpt>
      <trkpt lat="43.96811" lon="5.12435">
        <ele>400.9</ele>
        <time>2013-02-18T16:05:38.000Z</time>
      </trkpt>
      <trkpt lat="43.96815" lon="5.12437">
        <ele>400.3</ele>
        <time>2013-02-18T16:05:39.000Z</time>
      </trkpt>
      <trkpt lat="43.96819" lon="5.12439">
        <ele>399.5</ele>
        <time>2013-02-18T16:05:40.000Z</time>
      </trkpt>
      <trkpt lat="43.96822" lon="5.12439">
        <ele>399.3</ele>
        <time>2013-02-18T16:05:41.000Z</time>
      </trkpt>
      <trkpt lat="43.96826" lon="5.1244">
        <ele>398.8</ele>
        <time>2013-02-18T16:05:42.000Z</time>
      </trkpt>
      <trkpt lat="43.96829" lon="5.1244">
        <ele>398.5</ele>
        <time>2013-02-18T16:05:43.000Z</time>
      </trkpt>
      <trkpt lat="43.96832" lon="5.12439">
        <ele>397.8</ele>
        <time>2013-02-18T16:05:44.000Z</time>
      </trkpt>
      <trkpt lat="43.96834" lon="5.12437">
        <ele>397.6</ele>
        <time>2013-02-18T16:05:45.000Z</time>
      </trkpt>
      <trkpt lat="43.96836" lon="5.12434">
        <ele>396.9</ele>
        <time>2013-02-18T16:05:46.000Z</time>
      </trkpt>
      <trkpt lat="43.96838" lon="5.12431">
        <ele>396.5</ele>
        <time>2013-02-18T16:05:47.000Z</time>
      </trkpt>
      <trkpt lat="43.9684" lon="5.12428">
        <ele>396.4</ele>
        <time>2013-02-18T16:05:48.000Z</time>
      </trkpt>
      <trkpt lat="43.96841" lon="5.12426">
        <ele>395.9</ele>
        <time>2013-02-18T16:05:49.000Z</time>
      </trkpt>
      <trkpt lat="43.96845" lon="5.12425">
        <ele>395</ele>
        <time>2013-02-18T16:05:51.000Z</time>
      </trkpt>
      <trkpt lat="43.96848" lon="5.12425">
        <ele>394.3</ele>
        <time>2013-02-18T16:05:52.000Z</time>
      </trkpt>
      <trkpt lat="43.96852" lon="5.12425">
        <ele>393.9</ele>
        <time>2013-02-18T16:05:54.000Z</time>
      </trkpt>
      <trkpt lat="43.96854" lon="5.12425">
        <ele>394</ele>
        <time>2013-02-18T16:05:55.000Z</time>
      </trkpt>
      <trkpt lat="43.96851" lon="5.12428">
        <ele>395.9</ele>
        <time>2013-02-18T16:06:28.000Z</time>
      </trkpt>
      <trkpt lat="43.96851" lon="5.12431">
        <ele>395.8</ele>
        <time>2013-02-18T16:06:29.000Z</time>
      </trkpt>
      <trkpt lat="43.9685" lon="5.12437">
        <ele>394.7</ele>
        <time>2013-02-18T16:06:32.000Z</time>
      </trkpt>
      <trkpt lat="43.9685" lon="5.12439">
        <ele>394.3</ele>
        <time>2013-02-18T16:06:33.000Z</time>
      </trkpt>
      <trkpt lat="43.96849" lon="5.12444">
        <ele>393.7</ele>
        <time>2013-02-18T16:06:35.000Z</time>
      </trkpt>
      <trkpt lat="43.96849" lon="5.12447">
        <ele>393.6</ele>
        <time>2013-02-18T16:06:36.000Z</time>
      </trkpt>
      <trkpt lat="43.96851" lon="5.12452">
        <ele>392.8</ele>
        <time>2013-02-18T16:06:38.000Z</time>
      </trkpt>
      <trkpt lat="43.96853" lon="5.12453">
        <ele>392.4</ele>
        <time>2013-02-18T16:06:39.000Z</time>
      </trkpt>
      <trkpt lat="43.96855" lon="5.12456">
        <ele>391</ele>
        <time>2013-02-18T16:06:41.000Z</time>
      </trkpt>
      <trkpt lat="43.96857" lon="5.12458">
        <ele>390.6</ele>
        <time>2013-02-18T16:06:42.000Z</time>
      </trkpt>
      <trkpt lat="43.9686" lon="5.12455">
        <ele>390.7</ele>
        <time>2013-02-18T16:06:44.000Z</time>
      </trkpt>
      <trkpt lat="43.96863" lon="5.12454">
        <ele>389.6</ele>
        <time>2013-02-18T16:06:45.000Z</time>
      </trkpt>
      <trkpt lat="43.96865" lon="5.12453">
        <ele>389.1</ele>
        <time>2013-02-18T16:06:46.000Z</time>
      </trkpt>
      <trkpt lat="43.96868" lon="5.12451">
        <ele>388.8</ele>
        <time>2013-02-18T16:06:47.000Z</time>
      </trkpt>
      <trkpt lat="43.96872" lon="5.12449">
        <ele>388.4</ele>
        <time>2013-02-18T16:06:48.000Z</time>
      </trkpt>
      <trkpt lat="43.96874" lon="5.12447">
        <ele>388.4</ele>
        <time>2013-02-18T16:06:49.000Z</time>
      </trkpt>
      <trkpt lat="43.96876" lon="5.12443">
        <ele>388.6</ele>
        <time>2013-02-18T16:06:51.000Z</time>
      </trkpt>
      <trkpt lat="43.96877" lon="5.12441">
        <ele>388.9</ele>
        <time>2013-02-18T16:06:52.000Z</time>
      </trkpt>
      <trkpt lat="43.96878" lon="5.12437">
        <ele>388.6</ele>
        <time>2013-02-18T16:06:54.000Z</time>
      </trkpt>
      <trkpt lat="43.96879" lon="5.12434">
        <ele>388.9</ele>
        <time>2013-02-18T16:06:55.000Z</time>
      </trkpt>
      <trkpt lat="43.96881" lon="5.12432">
        <ele>388.9</ele>
        <time>2013-02-18T16:06:56.000Z</time>
      </trkpt>
      <trkpt lat="43.96882" lon="5.1243">
        <ele>388.8</ele>
        <time>2013-02-18T16:06:57.000Z</time>
      </trkpt>
      <trkpt lat="43.96884" lon="5.12427">
        <ele>388.6</ele>
        <time>2013-02-18T16:06:58.000Z</time>
      </trkpt>
      <trkpt lat="43.96885" lon="5.12423">
        <ele>388.1</ele>
        <time>2013-02-18T16:06:59.000Z</time>
      </trkpt>
      <trkpt lat="43.96886" lon="5.12415">
        <ele>387.8</ele>
        <time>2013-02-18T16:07:00.000Z</time>
      </trkpt>
      <trkpt lat="43.96888" lon="5.12409">
        <ele>387.4</ele>
        <time>2013-02-18T16:07:01.000Z</time>
      </trkpt>
      <trkpt lat="43.96889" lon="5.12406">
        <ele>386.5</ele>
        <time>2013-02-18T16:07:02.000Z</time>
      </trkpt>
      <trkpt lat="43.96891" lon="5.12402">
        <ele>386.2</ele>
        <time>2013-02-18T16:07:03.000Z</time>
      </trkpt>
      <trkpt lat="43.96896" lon="5.12402">
        <ele>386.4</ele>
        <time>2013-02-18T16:07:04.000Z</time>
      </trkpt>
      <trkpt lat="43.96899" lon="5.12399">
        <ele>387</ele>
        <time>2013-02-18T16:07:05.000Z</time>
      </trkpt>
      <trkpt lat="43.96901" lon="5.12398">
        <ele>386.6</ele>
        <time>2013-02-18T16:07:06.000Z</time>
      </trkpt>
      <trkpt lat="43.96903" lon="5.12396">
        <ele>386.7</ele>
        <time>2013-02-18T16:07:07.000Z</time>
      </trkpt>
      <trkpt lat="43.96903" lon="5.1239">
        <ele>385.7</ele>
        <time>2013-02-18T16:07:08.000Z</time>
      </trkpt>
      <trkpt lat="43.96904" lon="5.12386">
        <ele>385.2</ele>
        <time>2013-02-18T16:07:09.000Z</time>
      </trkpt>
      <trkpt lat="43.96905" lon="5.12382">
        <ele>385</ele>
        <time>2013-02-18T16:07:10.000Z</time>
      </trkpt>
      <trkpt lat="43.96907" lon="5.12378">
        <ele>384.7</ele>
        <time>2013-02-18T16:07:11.000Z</time>
      </trkpt>
      <trkpt lat="43.96909" lon="5.12374">
        <ele>384.2</ele>
        <time>2013-02-18T16:07:12.000Z</time>
      </trkpt>
      <trkpt lat="43.9691" lon="5.12368">
        <ele>383.8</ele>
        <time>2013-02-18T16:07:13.000Z</time>
      </trkpt>
      <trkpt lat="43.96912" lon="5.12363">
        <ele>383.9</ele>
        <time>2013-02-18T16:07:14.000Z</time>
      </trkpt>
      <trkpt lat="43.96915" lon="5.12359">
        <ele>383.7</ele>
        <time>2013-02-18T16:07:15.000Z</time>
      </trkpt>
      <trkpt lat="43.96919" lon="5.12358">
        <ele>383.6</ele>
        <time>2013-02-18T16:07:16.000Z</time>
      </trkpt>
      <trkpt lat="43.96922" lon="5.12354">
        <ele>383.3</ele>
        <time>2013-02-18T16:07:17.000Z</time>
      </trkpt>
      <trkpt lat="43.96924" lon="5.12351">
        <ele>383</ele>
        <time>2013-02-18T16:07:18.000Z</time>
      </trkpt>
      <trkpt lat="43.96928" lon="5.12346">
        <ele>383.6</ele>
        <time>2013-02-18T16:07:19.000Z</time>
      </trkpt>
      <trkpt lat="43.9693" lon="5.12344">
        <ele>383.2</ele>
        <time>2013-02-18T16:07:20.000Z</time>
      </trkpt>
      <trkpt lat="43.96934" lon="5.12341">
        <ele>382.7</ele>
        <time>2013-02-18T16:07:21.000Z</time>
      </trkpt>
      <trkpt lat="43.96936" lon="5.12338">
        <ele>381.9</ele>
        <time>2013-02-18T16:07:22.000Z</time>
      </trkpt>
      <trkpt lat="43.96934" lon="5.12334">
        <ele>382.1</ele>
        <time>2013-02-18T16:07:23.000Z</time>
      </trkpt>
      <trkpt lat="43.96936" lon="5.1233">
        <ele>381.1</ele>
        <time>2013-02-18T16:07:24.000Z</time>
      </trkpt>
      <trkpt lat="43.96938" lon="5.12325">
        <ele>380.8</ele>
        <time>2013-02-18T16:07:25.000Z</time>
      </trkpt>
      <trkpt lat="43.96939" lon="5.12321">
        <ele>381.1</ele>
        <time>2013-02-18T16:07:26.000Z</time>
      </trkpt>
      <trkpt lat="43.96943" lon="5.12315">
        <ele>380</ele>
        <time>2013-02-18T16:07:27.000Z</time>
      </trkpt>
      <trkpt lat="43.96946" lon="5.12309">
        <ele>379.5</ele>
        <time>2013-02-18T16:07:28.000Z</time>
      </trkpt>
      <trkpt lat="43.96948" lon="5.12302">
        <ele>379.7</ele>
        <time>2013-02-18T16:07:29.000Z</time>
      </trkpt>
      <trkpt lat="43.96951" lon="5.12296">
        <ele>379.8</ele>
        <time>2013-02-18T16:07:30.000Z</time>
      </trkpt>
      <trkpt lat="43.96953" lon="5.12289">
        <ele>379.7</ele>
        <time>2013-02-18T16:07:31.000Z</time>
      </trkpt>
      <trkpt lat="43.96955" lon="5.12284">
        <ele>379.3</ele>
        <time>2013-02-18T16:07:32.000Z</time>
      </trkpt>
      <trkpt lat="43.96958" lon="5.1228">
        <ele>378.8</ele>
        <time>2013-02-18T16:07:33.000Z</time>
      </trkpt>
      <trkpt lat="43.9696" lon="5.12275">
        <ele>378.3</ele>
        <time>2013-02-18T16:07:35.000Z</time>
      </trkpt>
      <trkpt lat="43.96956" lon="5.12273">
        <ele>376.5</ele>
        <time>2013-02-18T16:07:36.000Z</time>
      </trkpt>
      <trkpt lat="43.96953" lon="5.12268">
        <ele>377.7</ele>
        <time>2013-02-18T16:07:39.000Z</time>
      </trkpt>
      <trkpt lat="43.96952" lon="5.12267">
        <ele>378.5</ele>
        <time>2013-02-18T16:07:40.000Z</time>
      </trkpt>
      <trkpt lat="43.96956" lon="5.12268">
        <ele>377.2</ele>
        <time>2013-02-18T16:07:43.000Z</time>
      </trkpt>
      <trkpt lat="43.96956" lon="5.12269">
        <ele>376.7</ele>
        <time>2013-02-18T16:07:44.000Z</time>
      </trkpt>
      <trkpt lat="43.9696" lon="5.1227">
        <ele>378.4</ele>
        <time>2013-02-18T16:07:48.000Z</time>
      </trkpt>
      <trkpt lat="43.96961" lon="5.1227">
        <ele>378.7</ele>
        <time>2013-02-18T16:07:49.000Z</time>
      </trkpt>
      <trkpt lat="43.96964" lon="5.12265">
        <ele>380.1</ele>
        <time>2013-02-18T16:07:54.000Z</time>
      </trkpt>
      <trkpt lat="43.96964" lon="5.12264">
        <ele>379.5</ele>
        <time>2013-02-18T16:07:55.000Z</time>
      </trkpt>
      <trkpt lat="43.96966" lon="5.1226">
        <ele>378.4</ele>
        <time>2013-02-18T16:07:59.000Z</time>
      </trkpt>
      <trkpt lat="43.96967" lon="5.12259">
        <ele>378.1</ele>
        <time>2013-02-18T16:08:00.000Z</time>
      </trkpt>
      <trkpt lat="43.96968" lon="5.12254">
        <ele>377.3</ele>
        <time>2013-02-18T16:08:03.000Z</time>
      </trkpt>
      <trkpt lat="43.96969" lon="5.12253">
        <ele>377.5</ele>
        <time>2013-02-18T16:08:04.000Z</time>
      </trkpt>
      <trkpt lat="43.96972" lon="5.1225">
        <ele>379.6</ele>
        <time>2013-02-18T16:08:08.000Z</time>
      </trkpt>
      <trkpt lat="43.96973" lon="5.1225">
        <ele>380.1</ele>
        <time>2013-02-18T16:08:09.000Z</time>
      </trkpt>
      <trkpt lat="43.96971" lon="5.12253">
        <ele>379.5</ele>
        <time>2013-02-18T16:08:47.000Z</time>
      </trkpt>
      <trkpt lat="43.96972" lon="5.12256">
        <ele>379</ele>
        <time>2013-02-18T16:08:48.000Z</time>
      </trkpt>
      <trkpt lat="43.96967" lon="5.12257">
        <ele>382.9</ele>
        <time>2013-02-18T16:08:52.000Z</time>
      </trkpt>
      <trkpt lat="43.96967" lon="5.12258">
        <ele>383.3</ele>
        <time>2013-02-18T16:08:53.000Z</time>
      </trkpt>
      <trkpt lat="43.96967" lon="5.12263">
        <ele>383.8</ele>
        <time>2013-02-18T16:08:55.000Z</time>
      </trkpt>
      <trkpt lat="43.96963" lon="5.12267">
        <ele>381.7</ele>
        <time>2013-02-18T16:08:56.000Z</time>
      </trkpt>
      <trkpt lat="43.96961" lon="5.12271">
        <ele>381.7</ele>
        <time>2013-02-18T16:08:57.000Z</time>
      </trkpt>
      <trkpt lat="43.96959" lon="5.12272">
        <ele>381.5</ele>
        <time>2013-02-18T16:08:58.000Z</time>
      </trkpt>
      <trkpt lat="43.96956" lon="5.12267">
        <ele>381.3</ele>
        <time>2013-02-18T16:08:59.000Z</time>
      </trkpt>
      <trkpt lat="43.96954" lon="5.12264">
        <ele>380.9</ele>
        <time>2013-02-18T16:09:00.000Z</time>
      </trkpt>
      <trkpt lat="43.96952" lon="5.12263">
        <ele>380.3</ele>
        <time>2013-02-18T16:09:01.000Z</time>
      </trkpt>
      <trkpt lat="43.96949" lon="5.12261">
        <ele>380.3</ele>
        <time>2013-02-18T16:09:02.000Z</time>
      </trkpt>
      <trkpt lat="43.96947" lon="5.12258">
        <ele>380.4</ele>
        <time>2013-02-18T16:09:03.000Z</time>
      </trkpt>
      <trkpt lat="43.96944" lon="5.12254">
        <ele>380.5</ele>
        <time>2013-02-18T16:09:05.000Z</time>
      </trkpt>
      <trkpt lat="43.96944" lon="5.12253">
        <ele>380.4</ele>
        <time>2013-02-18T16:09:06.000Z</time>
      </trkpt>
      <trkpt lat="43.96942" lon="5.12247">
        <ele>381.2</ele>
        <time>2013-02-18T16:09:08.000Z</time>
      </trkpt>
      <trkpt lat="43.96942" lon="5.12243">
        <ele>380.3</ele>
        <time>2013-02-18T16:09:09.000Z</time>
      </trkpt>
      <trkpt lat="43.9694" lon="5.12238">
        <ele>380.9</ele>
        <time>2013-02-18T16:09:11.000Z</time>
      </trkpt>
      <trkpt lat="43.96938" lon="5.12235">
        <ele>380.9</ele>
        <time>2013-02-18T16:09:12.000Z</time>
      </trkpt>
      <trkpt lat="43.96938" lon="5.12231">
        <ele>384</ele>
        <time>2013-02-18T16:09:13.000Z</time>
      </trkpt>
      <trkpt lat="43.96938" lon="5.12228">
        <ele>383.7</ele>
        <time>2013-02-18T16:09:14.000Z</time>
      </trkpt>
      <trkpt lat="43.9694" lon="5.12224">
        <ele>383.4</ele>
        <time>2013-02-18T16:09:15.000Z</time>
      </trkpt>
      <trkpt lat="43.9694" lon="5.1222">
        <ele>383.8</ele>
        <time>2013-02-18T16:09:16.000Z</time>
      </trkpt>
      <trkpt lat="43.96941" lon="5.12215">
        <ele>384.5</ele>
        <time>2013-02-18T16:09:17.000Z</time>
      </trkpt>
      <trkpt lat="43.96942" lon="5.1221">
        <ele>385.6</ele>
        <time>2013-02-18T16:09:18.000Z</time>
      </trkpt>
      <trkpt lat="43.96941" lon="5.12207">
        <ele>386.6</ele>
        <time>2013-02-18T16:09:19.000Z</time>
      </trkpt>
      <trkpt lat="43.9694" lon="5.12201">
        <ele>386.3</ele>
        <time>2013-02-18T16:09:20.000Z</time>
      </trkpt>
      <trkpt lat="43.96942" lon="5.12197">
        <ele>385.3</ele>
        <time>2013-02-18T16:09:21.000Z</time>
      </trkpt>
      <trkpt lat="43.96943" lon="5.1219">
        <ele>384.3</ele>
        <time>2013-02-18T16:09:22.000Z</time>
      </trkpt>
      <trkpt lat="43.96943" lon="5.12185">
        <ele>383.7</ele>
        <time>2013-02-18T16:09:23.000Z</time>
      </trkpt>
      <trkpt lat="43.96943" lon="5.1218">
        <ele>383.8</ele>
        <time>2013-02-18T16:09:24.000Z</time>
      </trkpt>
      <trkpt lat="43.96943" lon="5.12176">
        <ele>383.7</ele>
        <time>2013-02-18T16:09:25.000Z</time>
      </trkpt>
      <trkpt lat="43.96944" lon="5.12171">
        <ele>383.8</ele>
        <time>2013-02-18T16:09:26.000Z</time>
      </trkpt>
      <trkpt lat="43.96945" lon="5.12166">
        <ele>386.4</ele>
        <time>2013-02-18T16:09:28.000Z</time>
      </trkpt>
      <trkpt lat="43.96946" lon="5.12162">
        <ele>385.8</ele>
        <time>2013-02-18T16:09:29.000Z</time>
      </trkpt>
      <trkpt lat="43.96948" lon="5.12159">
        <ele>384.8</ele>
        <time>2013-02-18T16:09:30.000Z</time>
      </trkpt>
      <trkpt lat="43.9695" lon="5.12154">
        <ele>384</ele>
        <time>2013-02-18T16:09:31.000Z</time>
      </trkpt>
      <trkpt lat="43.96954" lon="5.1215">
        <ele>383.7</ele>
        <time>2013-02-18T16:09:32.000Z</time>
      </trkpt>
      <trkpt lat="43.96956" lon="5.12147">
        <ele>382.8</ele>
        <time>2013-02-18T16:09:33.000Z</time>
      </trkpt>
      <trkpt lat="43.96958" lon="5.12141">
        <ele>383.2</ele>
        <time>2013-02-18T16:09:34.000Z</time>
      </trkpt>
      <trkpt lat="43.9696" lon="5.12137">
        <ele>383</ele>
        <time>2013-02-18T16:09:35.000Z</time>
      </trkpt>
      <trkpt lat="43.96961" lon="5.12136">
        <ele>381.5</ele>
        <time>2013-02-18T16:09:36.000Z</time>
      </trkpt>
      <trkpt lat="43.96962" lon="5.12133">
        <ele>381</ele>
        <time>2013-02-18T16:09:37.000Z</time>
      </trkpt>
      <trkpt lat="43.96964" lon="5.1213">
        <ele>379.6</ele>
        <time>2013-02-18T16:09:38.000Z</time>
      </trkpt>
      <trkpt lat="43.96965" lon="5.12125">
        <ele>379.7</ele>
        <time>2013-02-18T16:09:39.000Z</time>
      </trkpt>
      <trkpt lat="43.96966" lon="5.1212">
        <ele>380.2</ele>
        <time>2013-02-18T16:09:40.000Z</time>
      </trkpt>
      <trkpt lat="43.96967" lon="5.12116">
        <ele>380.1</ele>
        <time>2013-02-18T16:09:41.000Z</time>
      </trkpt>
      <trkpt lat="43.96969" lon="5.12112">
        <ele>379.9</ele>
        <time>2013-02-18T16:09:42.000Z</time>
      </trkpt>
      <trkpt lat="43.9697" lon="5.12108">
        <ele>379.1</ele>
        <time>2013-02-18T16:09:43.000Z</time>
      </trkpt>
      <trkpt lat="43.96973" lon="5.12103">
        <ele>379.1</ele>
        <time>2013-02-18T16:09:44.000Z</time>
      </trkpt>
      <trkpt lat="43.96975" lon="5.12098">
        <ele>377.5</ele>
        <time>2013-02-18T16:09:45.000Z</time>
      </trkpt>
      <trkpt lat="43.96978" lon="5.12092">
        <ele>377.1</ele>
        <time>2013-02-18T16:09:46.000Z</time>
      </trkpt>
      <trkpt lat="43.96981" lon="5.12086">
        <ele>377.5</ele>
        <time>2013-02-18T16:09:47.000Z</time>
      </trkpt>
      <trkpt lat="43.96985" lon="5.12082">
        <ele>377.6</ele>
        <time>2013-02-18T16:09:48.000Z</time>
      </trkpt>
      <trkpt lat="43.96989" lon="5.12076">
        <ele>377.4</ele>
        <time>2013-02-18T16:09:49.000Z</time>
      </trkpt>
      <trkpt lat="43.96992" lon="5.12072">
        <ele>377.4</ele>
        <time>2013-02-18T16:09:50.000Z</time>
      </trkpt>
      <trkpt lat="43.96997" lon="5.12068">
        <ele>377.2</ele>
        <time>2013-02-18T16:09:51.000Z</time>
      </trkpt>
      <trkpt lat="43.97001" lon="5.12063">
        <ele>376.6</ele>
        <time>2013-02-18T16:09:52.000Z</time>
      </trkpt>
      <trkpt lat="43.97005" lon="5.12058">
        <ele>376.8</ele>
        <time>2013-02-18T16:09:53.000Z</time>
      </trkpt>
      <trkpt lat="43.97007" lon="5.12053">
        <ele>376.7</ele>
        <time>2013-02-18T16:09:54.000Z</time>
      </trkpt>
      <trkpt lat="43.97005" lon="5.12049">
        <ele>377</ele>
        <time>2013-02-18T16:09:55.000Z</time>
      </trkpt>
      <trkpt lat="43.97006" lon="5.12044">
        <ele>377.7</ele>
        <time>2013-02-18T16:09:56.000Z</time>
      </trkpt>
      <trkpt lat="43.97011" lon="5.12041">
        <ele>379</ele>
        <time>2013-02-18T16:09:57.000Z</time>
      </trkpt>
      <trkpt lat="43.97014" lon="5.12039">
        <ele>379.1</ele>
        <time>2013-02-18T16:09:58.000Z</time>
      </trkpt>
      <trkpt lat="43.97016" lon="5.12035">
        <ele>377.9</ele>
        <time>2013-02-18T16:09:59.000Z</time>
      </trkpt>
      <trkpt lat="43.97018" lon="5.12032">
        <ele>377.3</ele>
        <time>2013-02-18T16:10:00.000Z</time>
      </trkpt>
      <trkpt lat="43.97021" lon="5.12028">
        <ele>377.4</ele>
        <time>2013-02-18T16:10:01.000Z</time>
      </trkpt>
      <trkpt lat="43.97023" lon="5.12023">
        <ele>377.8</ele>
        <time>2013-02-18T16:10:02.000Z</time>
      </trkpt>
      <trkpt lat="43.97024" lon="5.12018">
        <ele>378.1</ele>
        <time>2013-02-18T16:10:03.000Z</time>
      </trkpt>
      <trkpt lat="43.97024" lon="5.12013">
        <ele>378.2</ele>
        <time>2013-02-18T16:10:04.000Z</time>
      </trkpt>
      <trkpt lat="43.97025" lon="5.12008">
        <ele>378.2</ele>
        <time>2013-02-18T16:10:05.000Z</time>
      </trkpt>
      <trkpt lat="43.97027" lon="5.12005">
        <ele>375.5</ele>
        <time>2013-02-18T16:10:06.000Z</time>
      </trkpt>
      <trkpt lat="43.97029" lon="5.12">
        <ele>374.1</ele>
        <time>2013-02-18T16:10:07.000Z</time>
      </trkpt>
      <trkpt lat="43.9703" lon="5.11997">
        <ele>373</ele>
        <time>2013-02-18T16:10:08.000Z</time>
      </trkpt>
      <trkpt lat="43.97031" lon="5.11994">
        <ele>372</ele>
        <time>2013-02-18T16:10:09.000Z</time>
      </trkpt>
      <trkpt lat="43.97033" lon="5.1199">
        <ele>371.2</ele>
        <time>2013-02-18T16:10:10.000Z</time>
      </trkpt>
      <trkpt lat="43.97033" lon="5.11985">
        <ele>370.6</ele>
        <time>2013-02-18T16:10:11.000Z</time>
      </trkpt>
      <trkpt lat="43.97034" lon="5.11979">
        <ele>370</ele>
        <time>2013-02-18T16:10:12.000Z</time>
      </trkpt>
      <trkpt lat="43.97035" lon="5.11975">
        <ele>369.8</ele>
        <time>2013-02-18T16:10:13.000Z</time>
      </trkpt>
      <trkpt lat="43.97036" lon="5.11969">
        <ele>369.6</ele>
        <time>2013-02-18T16:10:14.000Z</time>
      </trkpt>
      <trkpt lat="43.97038" lon="5.11964">
        <ele>369.7</ele>
        <time>2013-02-18T16:10:15.000Z</time>
      </trkpt>
      <trkpt lat="43.9704" lon="5.1196">
        <ele>369.8</ele>
        <time>2013-02-18T16:10:16.000Z</time>
      </trkpt>
      <trkpt lat="43.97043" lon="5.11958">
        <ele>369.4</ele>
        <time>2013-02-18T16:10:17.000Z</time>
      </trkpt>
      <trkpt lat="43.97047" lon="5.11954">
        <ele>369.4</ele>
        <time>2013-02-18T16:10:18.000Z</time>
      </trkpt>
      <trkpt lat="43.97051" lon="5.1195">
        <ele>369.3</ele>
        <time>2013-02-18T16:10:19.000Z</time>
      </trkpt>
      <trkpt lat="43.97051" lon="5.11945">
        <ele>366.2</ele>
        <time>2013-02-18T16:10:21.000Z</time>
      </trkpt>
      <trkpt lat="43.97052" lon="5.11941">
        <ele>365.4</ele>
        <time>2013-02-18T16:10:22.000Z</time>
      </trkpt>
      <trkpt lat="43.97053" lon="5.11937">
        <ele>365.1</ele>
        <time>2013-02-18T16:10:23.000Z</time>
      </trkpt>
      <trkpt lat="43.97054" lon="5.11934">
        <ele>364.8</ele>
        <time>2013-02-18T16:10:24.000Z</time>
      </trkpt>
      <trkpt lat="43.97054" lon="5.1193">
        <ele>364.4</ele>
        <time>2013-02-18T16:10:25.000Z</time>
      </trkpt>
      <trkpt lat="43.97055" lon="5.11926">
        <ele>364</ele>
        <time>2013-02-18T16:10:26.000Z</time>
      </trkpt>
      <trkpt lat="43.97054" lon="5.11922">
        <ele>364.1</ele>
        <time>2013-02-18T16:10:27.000Z</time>
      </trkpt>
      <trkpt lat="43.97054" lon="5.11916">
        <ele>364.2</ele>
        <time>2013-02-18T16:10:28.000Z</time>
      </trkpt>
      <trkpt lat="43.97054" lon="5.11909">
        <ele>365.7</ele>
        <time>2013-02-18T16:10:29.000Z</time>
      </trkpt>
      <trkpt lat="43.97055" lon="5.11903">
        <ele>366.5</ele>
        <time>2013-02-18T16:10:30.000Z</time>
      </trkpt>
      <trkpt lat="43.97055" lon="5.11896">
        <ele>366.3</ele>
        <time>2013-02-18T16:10:31.000Z</time>
      </trkpt>
      <trkpt lat="43.97055" lon="5.11889">
        <ele>366.7</ele>
        <time>2013-02-18T16:10:32.000Z</time>
      </trkpt>
      <trkpt lat="43.97055" lon="5.11881">
        <ele>365.9</ele>
        <time>2013-02-18T16:10:33.000Z</time>
      </trkpt>
      <trkpt lat="43.97057" lon="5.11872">
        <ele>365.6</ele>
        <time>2013-02-18T16:10:34.000Z</time>
      </trkpt>
      <trkpt lat="43.97058" lon="5.11865">
        <ele>364.9</ele>
        <time>2013-02-18T16:10:35.000Z</time>
      </trkpt>
      <trkpt lat="43.97059" lon="5.11858">
        <ele>364.6</ele>
        <time>2013-02-18T16:10:36.000Z</time>
      </trkpt>
      <trkpt lat="43.97058" lon="5.11851">
        <ele>364.1</ele>
        <time>2013-02-18T16:10:37.000Z</time>
      </trkpt>
      <trkpt lat="43.97058" lon="5.11843">
        <ele>365.2</ele>
        <time>2013-02-18T16:10:38.000Z</time>
      </trkpt>
      <trkpt lat="43.97059" lon="5.11835">
        <ele>365.4</ele>
        <time>2013-02-18T16:10:39.000Z</time>
      </trkpt>
      <trkpt lat="43.97065" lon="5.11831">
        <ele>364</ele>
        <time>2013-02-18T16:10:40.000Z</time>
      </trkpt>
      <trkpt lat="43.9707" lon="5.11829">
        <ele>361.5</ele>
        <time>2013-02-18T16:10:41.000Z</time>
      </trkpt>
      <trkpt lat="43.97074" lon="5.11828">
        <ele>362.1</ele>
        <time>2013-02-18T16:10:42.000Z</time>
      </trkpt>
      <trkpt lat="43.97078" lon="5.11828">
        <ele>361.9</ele>
        <time>2013-02-18T16:10:43.000Z</time>
      </trkpt>
      <trkpt lat="43.97083" lon="5.11828">
        <ele>362.3</ele>
        <time>2013-02-18T16:10:44.000Z</time>
      </trkpt>
      <trkpt lat="43.97087" lon="5.11827">
        <ele>361.6</ele>
        <time>2013-02-18T16:10:45.000Z</time>
      </trkpt>
      <trkpt lat="43.97092" lon="5.11826">
        <ele>360.7</ele>
        <time>2013-02-18T16:10:46.000Z</time>
      </trkpt>
      <trkpt lat="43.97096" lon="5.11824">
        <ele>361.2</ele>
        <time>2013-02-18T16:10:47.000Z</time>
      </trkpt>
      <trkpt lat="43.97101" lon="5.11823">
        <ele>361.2</ele>
        <time>2013-02-18T16:10:48.000Z</time>
      </trkpt>
      <trkpt lat="43.97107" lon="5.11822">
        <ele>361.3</ele>
        <time>2013-02-18T16:10:49.000Z</time>
      </trkpt>
      <trkpt lat="43.97113" lon="5.11821">
        <ele>361.1</ele>
        <time>2013-02-18T16:10:50.000Z</time>
      </trkpt>
      <trkpt lat="43.97118" lon="5.11819">
        <ele>360.9</ele>
        <time>2013-02-18T16:10:51.000Z</time>
      </trkpt>
      <trkpt lat="43.97121" lon="5.11816">
        <ele>360.2</ele>
        <time>2013-02-18T16:10:52.000Z</time>
      </trkpt>
      <trkpt lat="43.97125" lon="5.11815">
        <ele>360.6</ele>
        <time>2013-02-18T16:10:53.000Z</time>
      </trkpt>
      <trkpt lat="43.97129" lon="5.11812">
        <ele>360.3</ele>
        <time>2013-02-18T16:10:54.000Z</time>
      </trkpt>
      <trkpt lat="43.97131" lon="5.11809">
        <ele>360</ele>
        <time>2013-02-18T16:10:55.000Z</time>
      </trkpt>
      <trkpt lat="43.97133" lon="5.11805">
        <ele>359.7</ele>
        <time>2013-02-18T16:10:56.000Z</time>
      </trkpt>
      <trkpt lat="43.97134" lon="5.11801">
        <ele>359.3</ele>
        <time>2013-02-18T16:10:57.000Z</time>
      </trkpt>
      <trkpt lat="43.97136" lon="5.11794">
        <ele>360.9</ele>
        <time>2013-02-18T16:10:58.000Z</time>
      </trkpt>
      <trkpt lat="43.97137" lon="5.11788">
        <ele>360.8</ele>
        <time>2013-02-18T16:10:59.000Z</time>
      </trkpt>
      <trkpt lat="43.97139" lon="5.11783">
        <ele>361.1</ele>
        <time>2013-02-18T16:11:00.000Z</time>
      </trkpt>
      <trkpt lat="43.97141" lon="5.11778">
        <ele>360.9</ele>
        <time>2013-02-18T16:11:01.000Z</time>
      </trkpt>
      <trkpt lat="43.97142" lon="5.11775">
        <ele>360.6</ele>
        <time>2013-02-18T16:11:02.000Z</time>
      </trkpt>
      <trkpt lat="43.97144" lon="5.1177">
        <ele>360.9</ele>
        <time>2013-02-18T16:11:04.000Z</time>
      </trkpt>
      <trkpt lat="43.97146" lon="5.11767">
        <ele>360.8</ele>
        <time>2013-02-18T16:11:05.000Z</time>
      </trkpt>
      <trkpt lat="43.97148" lon="5.11762">
        <ele>358.9</ele>
        <time>2013-02-18T16:11:49.000Z</time>
      </trkpt>
      <trkpt lat="43.97148" lon="5.11759">
        <ele>358.5</ele>
        <time>2013-02-18T16:11:50.000Z</time>
      </trkpt>
      <trkpt lat="43.97147" lon="5.11755">
        <ele>358.5</ele>
        <time>2013-02-18T16:11:51.000Z</time>
      </trkpt>
      <trkpt lat="43.97147" lon="5.11752">
        <ele>357.7</ele>
        <time>2013-02-18T16:11:52.000Z</time>
      </trkpt>
      <trkpt lat="43.97148" lon="5.11748">
        <ele>357.2</ele>
        <time>2013-02-18T16:11:53.000Z</time>
      </trkpt>
      <trkpt lat="43.9715" lon="5.11743">
        <ele>358.6</ele>
        <time>2013-02-18T16:11:54.000Z</time>
      </trkpt>
      <trkpt lat="43.97153" lon="5.1174">
        <ele>359.9</ele>
        <time>2013-02-18T16:11:55.000Z</time>
      </trkpt>
      <trkpt lat="43.97154" lon="5.11736">
        <ele>360.3</ele>
        <time>2013-02-18T16:11:56.000Z</time>
      </trkpt>
      <trkpt lat="43.97155" lon="5.11733">
        <ele>359.8</ele>
        <time>2013-02-18T16:11:57.000Z</time>
      </trkpt>
      <trkpt lat="43.97156" lon="5.11729">
        <ele>360</ele>
        <time>2013-02-18T16:11:58.000Z</time>
      </trkpt>
      <trkpt lat="43.97158" lon="5.11726">
        <ele>360.3</ele>
        <time>2013-02-18T16:11:59.000Z</time>
      </trkpt>
      <trkpt lat="43.97159" lon="5.11722">
        <ele>360.7</ele>
        <time>2013-02-18T16:12:00.000Z</time>
      </trkpt>
      <trkpt lat="43.9716" lon="5.11719">
        <ele>360.7</ele>
        <time>2013-02-18T16:12:01.000Z</time>
      </trkpt>
      <trkpt lat="43.97161" lon="5.11716">
        <ele>361.1</ele>
        <time>2013-02-18T16:12:02.000Z</time>
      </trkpt>
      <trkpt lat="43.97162" lon="5.11713">
        <ele>360.6</ele>
        <time>2013-02-18T16:12:03.000Z</time>
      </trkpt>
      <trkpt lat="43.97163" lon="5.1171">
        <ele>360.4</ele>
        <time>2013-02-18T16:12:04.000Z</time>
      </trkpt>
      <trkpt lat="43.97164" lon="5.11705">
        <ele>360.8</ele>
        <time>2013-02-18T16:12:06.000Z</time>
      </trkpt>
      <trkpt lat="43.97165" lon="5.11702">
        <ele>360.7</ele>
        <time>2013-02-18T16:12:07.000Z</time>
      </trkpt>
      <trkpt lat="43.97167" lon="5.11697">
        <ele>360.9</ele>
        <time>2013-02-18T16:12:09.000Z</time>
      </trkpt>
      <trkpt lat="43.97168" lon="5.11695">
        <ele>360.1</ele>
        <time>2013-02-18T16:12:10.000Z</time>
      </trkpt>
      <trkpt lat="43.9717" lon="5.1169">
        <ele>360.7</ele>
        <time>2013-02-18T16:12:12.000Z</time>
      </trkpt>
      <trkpt lat="43.9717" lon="5.11688">
        <ele>361.2</ele>
        <time>2013-02-18T16:12:13.000Z</time>
      </trkpt>
      <trkpt lat="43.97171" lon="5.11683">
        <ele>361.3</ele>
        <time>2013-02-18T16:12:16.000Z</time>
      </trkpt>
      <trkpt lat="43.97171" lon="5.11682">
        <ele>361.4</ele>
        <time>2013-02-18T16:12:17.000Z</time>
      </trkpt>
      <trkpt lat="43.97167" lon="5.11679">
        <ele>361.3</ele>
        <time>2013-02-18T16:12:26.000Z</time>
      </trkpt>
      <trkpt lat="43.97166" lon="5.11678">
        <ele>361.5</ele>
        <time>2013-02-18T16:12:27.000Z</time>
      </trkpt>
      <trkpt lat="43.97164" lon="5.11678">
        <ele>361.7</ele>
        <time>2013-02-18T16:12:28.000Z</time>
      </trkpt>
      <trkpt lat="43.97161" lon="5.11676">
        <ele>362.3</ele>
        <time>2013-02-18T16:12:29.000Z</time>
      </trkpt>
      <trkpt lat="43.97163" lon="5.1168">
        <ele>362.8</ele>
        <time>2013-02-18T16:12:51.000Z</time>
      </trkpt>
      <trkpt lat="43.97164" lon="5.11682">
        <ele>362.8</ele>
        <time>2013-02-18T16:12:52.000Z</time>
      </trkpt>
      <trkpt lat="43.97165" lon="5.11684">
        <ele>362.4</ele>
        <time>2013-02-18T16:12:53.000Z</time>
      </trkpt>
      <trkpt lat="43.97166" lon="5.11689">
        <ele>361.1</ele>
        <time>2013-02-18T16:12:54.000Z</time>
      </trkpt>
      <trkpt lat="43.97166" lon="5.11693">
        <ele>359.8</ele>
        <time>2013-02-18T16:12:55.000Z</time>
      </trkpt>
      <trkpt lat="43.97166" lon="5.11697">
        <ele>359.6</ele>
        <time>2013-02-18T16:12:56.000Z</time>
      </trkpt>
      <trkpt lat="43.97166" lon="5.11701">
        <ele>359.4</ele>
        <time>2013-02-18T16:12:57.000Z</time>
      </trkpt>
      <trkpt lat="43.97165" lon="5.11704">
        <ele>358.9</ele>
        <time>2013-02-18T16:12:58.000Z</time>
      </trkpt>
      <trkpt lat="43.97164" lon="5.11708">
        <ele>359.7</ele>
        <time>2013-02-18T16:12:59.000Z</time>
      </trkpt>
      <trkpt lat="43.97163" lon="5.11712">
        <ele>359.7</ele>
        <time>2013-02-18T16:13:00.000Z</time>
      </trkpt>
      <trkpt lat="43.97163" lon="5.11715">
        <ele>359.7</ele>
        <time>2013-02-18T16:13:01.000Z</time>
      </trkpt>
      <trkpt lat="43.97162" lon="5.11719">
        <ele>359.4</ele>
        <time>2013-02-18T16:13:02.000Z</time>
      </trkpt>
      <trkpt lat="43.97161" lon="5.11725">
        <ele>358.9</ele>
        <time>2013-02-18T16:13:03.000Z</time>
      </trkpt>
      <trkpt lat="43.97158" lon="5.1173">
        <ele>358.8</ele>
        <time>2013-02-18T16:13:04.000Z</time>
      </trkpt>
      <trkpt lat="43.97157" lon="5.11735">
        <ele>358.8</ele>
        <time>2013-02-18T16:13:05.000Z</time>
      </trkpt>
      <trkpt lat="43.97155" lon="5.11739">
        <ele>358.2</ele>
        <time>2013-02-18T16:13:06.000Z</time>
      </trkpt>
      <trkpt lat="43.97153" lon="5.11743">
        <ele>358.2</ele>
        <time>2013-02-18T16:13:07.000Z</time>
      </trkpt>
      <trkpt lat="43.97152" lon="5.11747">
        <ele>357.7</ele>
        <time>2013-02-18T16:13:08.000Z</time>
      </trkpt>
      <trkpt lat="43.9715" lon="5.11751">
        <ele>357.7</ele>
        <time>2013-02-18T16:13:09.000Z</time>
      </trkpt>
      <trkpt lat="43.97149" lon="5.11755">
        <ele>357.5</ele>
        <time>2013-02-18T16:13:10.000Z</time>
      </trkpt>
      <trkpt lat="43.97149" lon="5.11759">
        <ele>357.9</ele>
        <time>2013-02-18T16:13:11.000Z</time>
      </trkpt>
      <trkpt lat="43.97149" lon="5.11762">
        <ele>357.7</ele>
        <time>2013-02-18T16:13:12.000Z</time>
      </trkpt>
      <trkpt lat="43.97148" lon="5.11765">
        <ele>357.7</ele>
        <time>2013-02-18T16:13:13.000Z</time>
      </trkpt>
      <trkpt lat="43.97157" lon="5.11763">
        <ele>356.6</ele>
        <time>2013-02-18T16:13:14.000Z</time>
      </trkpt>
      <trkpt lat="43.97159" lon="5.11761">
        <ele>356.3</ele>
        <time>2013-02-18T16:13:15.000Z</time>
      </trkpt>
      <trkpt lat="43.97164" lon="5.1176">
        <ele>356.2</ele>
        <time>2013-02-18T16:13:16.000Z</time>
      </trkpt>
      <trkpt lat="43.97167" lon="5.11759">
        <ele>356.6</ele>
        <time>2013-02-18T16:13:17.000Z</time>
      </trkpt>
      <trkpt lat="43.97171" lon="5.11758">
        <ele>356.2</ele>
        <time>2013-02-18T16:13:18.000Z</time>
      </trkpt>
      <trkpt lat="43.97176" lon="5.11757">
        <ele>355.8</ele>
        <time>2013-02-18T16:13:19.000Z</time>
      </trkpt>
      <trkpt lat="43.97181" lon="5.11756">
        <ele>355.2</ele>
        <time>2013-02-18T16:13:20.000Z</time>
      </trkpt>
      <trkpt lat="43.97185" lon="5.11755">
        <ele>354.9</ele>
        <time>2013-02-18T16:13:21.000Z</time>
      </trkpt>
      <trkpt lat="43.9719" lon="5.11754">
        <ele>354.1</ele>
        <time>2013-02-18T16:13:22.000Z</time>
      </trkpt>
      <trkpt lat="43.97195" lon="5.11753">
        <ele>353.5</ele>
        <time>2013-02-18T16:13:23.000Z</time>
      </trkpt>
      <trkpt lat="43.972" lon="5.11751">
        <ele>352.9</ele>
        <time>2013-02-18T16:13:24.000Z</time>
      </trkpt>
      <trkpt lat="43.97205" lon="5.11749">
        <ele>352</ele>
        <time>2013-02-18T16:13:25.000Z</time>
      </trkpt>
      <trkpt lat="43.9721" lon="5.11746">
        <ele>351.2</ele>
        <time>2013-02-18T16:13:26.000Z</time>
      </trkpt>
      <trkpt lat="43.97214" lon="5.11741">
        <ele>350.9</ele>
        <time>2013-02-18T16:13:27.000Z</time>
      </trkpt>
      <trkpt lat="43.97218" lon="5.11737">
        <ele>350.8</ele>
        <time>2013-02-18T16:13:28.000Z</time>
      </trkpt>
      <trkpt lat="43.97223" lon="5.11733">
        <ele>350.5</ele>
        <time>2013-02-18T16:13:29.000Z</time>
      </trkpt>
      <trkpt lat="43.97229" lon="5.11729">
        <ele>349.6</ele>
        <time>2013-02-18T16:13:30.000Z</time>
      </trkpt>
      <trkpt lat="43.97234" lon="5.11725">
        <ele>349.2</ele>
        <time>2013-02-18T16:13:31.000Z</time>
      </trkpt>
      <trkpt lat="43.97238" lon="5.11722">
        <ele>348.9</ele>
        <time>2013-02-18T16:13:32.000Z</time>
      </trkpt>
      <trkpt lat="43.97243" lon="5.11718">
        <ele>348.5</ele>
        <time>2013-02-18T16:13:33.000Z</time>
      </trkpt>
      <trkpt lat="43.97247" lon="5.11715">
        <ele>348.2</ele>
        <time>2013-02-18T16:13:34.000Z</time>
      </trkpt>
      <trkpt lat="43.97251" lon="5.11709">
        <ele>348.3</ele>
        <time>2013-02-18T16:13:35.000Z</time>
      </trkpt>
      <trkpt lat="43.97254" lon="5.11703">
        <ele>348.2</ele>
        <time>2013-02-18T16:13:36.000Z</time>
      </trkpt>
      <trkpt lat="43.97256" lon="5.11696">
        <ele>348.2</ele>
        <time>2013-02-18T16:13:37.000Z</time>
      </trkpt>
      <trkpt lat="43.97259" lon="5.11688">
        <ele>348.3</ele>
        <time>2013-02-18T16:13:38.000Z</time>
      </trkpt>
      <trkpt lat="43.97262" lon="5.11681">
        <ele>348.4</ele>
        <time>2013-02-18T16:13:39.000Z</time>
      </trkpt>
      <trkpt lat="43.97268" lon="5.11674">
        <ele>347.1</ele>
        <time>2013-02-18T16:13:40.000Z</time>
      </trkpt>
      <trkpt lat="43.97273" lon="5.11667">
        <ele>346.3</ele>
        <time>2013-02-18T16:13:41.000Z</time>
      </trkpt>
      <trkpt lat="43.97278" lon="5.11661">
        <ele>345.1</ele>
        <time>2013-02-18T16:13:42.000Z</time>
      </trkpt>
      <trkpt lat="43.97285" lon="5.11657">
        <ele>344.6</ele>
        <time>2013-02-18T16:13:43.000Z</time>
      </trkpt>
      <trkpt lat="43.97293" lon="5.11652">
        <ele>344.3</ele>
        <time>2013-02-18T16:13:44.000Z</time>
      </trkpt>
      <trkpt lat="43.97302" lon="5.11647">
        <ele>344.2</ele>
        <time>2013-02-18T16:13:45.000Z</time>
      </trkpt>
      <trkpt lat="43.97308" lon="5.11642">
        <ele>344.3</ele>
        <time>2013-02-18T16:13:46.000Z</time>
      </trkpt>
      <trkpt lat="43.97316" lon="5.11635">
        <ele>344.2</ele>
        <time>2013-02-18T16:13:47.000Z</time>
      </trkpt>
      <trkpt lat="43.97324" lon="5.11633">
        <ele>342</ele>
        <time>2013-02-18T16:13:48.000Z</time>
      </trkpt>
      <trkpt lat="43.9733" lon="5.11626">
        <ele>340.6</ele>
        <time>2013-02-18T16:13:49.000Z</time>
      </trkpt>
      <trkpt lat="43.97337" lon="5.1162">
        <ele>339.3</ele>
        <time>2013-02-18T16:13:50.000Z</time>
      </trkpt>
      <trkpt lat="43.97346" lon="5.11614">
        <ele>338.7</ele>
        <time>2013-02-18T16:13:51.000Z</time>
      </trkpt>
      <trkpt lat="43.97353" lon="5.11607">
        <ele>338.2</ele>
        <time>2013-02-18T16:13:52.000Z</time>
      </trkpt>
      <trkpt lat="43.97361" lon="5.11601">
        <ele>337.5</ele>
        <time>2013-02-18T16:13:53.000Z</time>
      </trkpt>
      <trkpt lat="43.97369" lon="5.11594">
        <ele>336.7</ele>
        <time>2013-02-18T16:13:54.000Z</time>
      </trkpt>
      <trkpt lat="43.97377" lon="5.11589">
        <ele>335.5</ele>
        <time>2013-02-18T16:13:55.000Z</time>
      </trkpt>
      <trkpt lat="43.97385" lon="5.11583">
        <ele>335.1</ele>
        <time>2013-02-18T16:13:56.000Z</time>
      </trkpt>
      <trkpt lat="43.97393" lon="5.11578">
        <ele>334.8</ele>
        <time>2013-02-18T16:13:57.000Z</time>
      </trkpt>
      <trkpt lat="43.97401" lon="5.11574">
        <ele>334.5</ele>
        <time>2013-02-18T16:13:58.000Z</time>
      </trkpt>
      <trkpt lat="43.9741" lon="5.11571">
        <ele>334.2</ele>
        <time>2013-02-18T16:13:59.000Z</time>
      </trkpt>
      <trkpt lat="43.9742" lon="5.1157">
        <ele>331.9</ele>
        <time>2013-02-18T16:14:00.000Z</time>
      </trkpt>
      <trkpt lat="43.9743" lon="5.11568">
        <ele>331.3</ele>
        <time>2013-02-18T16:14:01.000Z</time>
      </trkpt>
      <trkpt lat="43.97439" lon="5.11568">
        <ele>331.1</ele>
        <time>2013-02-18T16:14:02.000Z</time>
      </trkpt>
      <trkpt lat="43.97449" lon="5.11569">
        <ele>330.6</ele>
        <time>2013-02-18T16:14:03.000Z</time>
      </trkpt>
      <trkpt lat="43.97458" lon="5.11569">
        <ele>331</ele>
        <time>2013-02-18T16:14:04.000Z</time>
      </trkpt>
      <trkpt lat="43.97468" lon="5.11568">
        <ele>330.9</ele>
        <time>2013-02-18T16:14:05.000Z</time>
      </trkpt>
      <trkpt lat="43.97476" lon="5.11564">
        <ele>330.8</ele>
        <time>2013-02-18T16:14:06.000Z</time>
      </trkpt>
      <trkpt lat="43.97484" lon="5.11564">
        <ele>331.1</ele>
        <time>2013-02-18T16:14:07.000Z</time>
      </trkpt>
      <trkpt lat="43.97493" lon="5.11574">
        <ele>329</ele>
        <time>2013-02-18T16:14:08.000Z</time>
      </trkpt>
      <trkpt lat="43.97502" lon="5.11577">
        <ele>328.4</ele>
        <time>2013-02-18T16:14:09.000Z</time>
      </trkpt>
      <trkpt lat="43.97512" lon="5.11579">
        <ele>328.1</ele>
        <time>2013-02-18T16:14:10.000Z</time>
      </trkpt>
      <trkpt lat="43.97521" lon="5.11581">
        <ele>328.1</ele>
        <time>2013-02-18T16:14:11.000Z</time>
      </trkpt>
      <trkpt lat="43.97531" lon="5.11581">
        <ele>327.5</ele>
        <time>2013-02-18T16:14:12.000Z</time>
      </trkpt>
      <trkpt lat="43.9754" lon="5.1158">
        <ele>327.4</ele>
        <time>2013-02-18T16:14:13.000Z</time>
      </trkpt>
      <trkpt lat="43.97549" lon="5.11579">
        <ele>327.3</ele>
        <time>2013-02-18T16:14:14.000Z</time>
      </trkpt>
      <trkpt lat="43.97559" lon="5.11579">
        <ele>327.4</ele>
        <time>2013-02-18T16:14:15.000Z</time>
      </trkpt>
      <trkpt lat="43.97569" lon="5.11577">
        <ele>327.2</ele>
        <time>2013-02-18T16:14:16.000Z</time>
      </trkpt>
      <trkpt lat="43.97578" lon="5.11573">
        <ele>327</ele>
        <time>2013-02-18T16:14:17.000Z</time>
      </trkpt>
      <trkpt lat="43.97586" lon="5.1157">
        <ele>327.1</ele>
        <time>2013-02-18T16:14:18.000Z</time>
      </trkpt>
      <trkpt lat="43.97595" lon="5.11568">
        <ele>327</ele>
        <time>2013-02-18T16:14:19.000Z</time>
      </trkpt>
      <trkpt lat="43.97603" lon="5.11562">
        <ele>327</ele>
        <time>2013-02-18T16:14:20.000Z</time>
      </trkpt>
      <trkpt lat="43.97607" lon="5.11562">
        <ele>326.9</ele>
        <time>2013-02-18T16:14:21.000Z</time>
      </trkpt>
      <trkpt lat="43.9761" lon="5.1156">
        <ele>324.2</ele>
        <time>2013-02-18T16:14:22.000Z</time>
      </trkpt>
      <trkpt lat="43.97634" lon="5.11582">
        <ele>314.3</ele>
        <time>2013-02-18T16:14:23.000Z</time>
      </trkpt>
      <trkpt lat="43.97644" lon="5.11573">
        <ele>314.3</ele>
        <time>2013-02-18T16:14:24.000Z</time>
      </trkpt>
      <trkpt lat="43.97653" lon="5.11566">
        <ele>314.8</ele>
        <time>2013-02-18T16:14:25.000Z</time>
      </trkpt>
      <trkpt lat="43.9766" lon="5.11561">
        <ele>315.3</ele>
        <time>2013-02-18T16:14:26.000Z</time>
      </trkpt>
      <trkpt lat="43.97668" lon="5.11555">
        <ele>315.6</ele>
        <time>2013-02-18T16:14:27.000Z</time>
      </trkpt>
      <trkpt lat="43.97675" lon="5.11548">
        <ele>315.4</ele>
        <time>2013-02-18T16:14:28.000Z</time>
      </trkpt>
      <trkpt lat="43.97682" lon="5.11544">
        <ele>315.4</ele>
        <time>2013-02-18T16:14:29.000Z</time>
      </trkpt>
      <trkpt lat="43.97689" lon="5.1154">
        <ele>315</ele>
        <time>2013-02-18T16:14:30.000Z</time>
      </trkpt>
      <trkpt lat="43.97696" lon="5.11537">
        <ele>314.3</ele>
        <time>2013-02-18T16:14:31.000Z</time>
      </trkpt>
      <trkpt lat="43.97704" lon="5.11534">
        <ele>313.2</ele>
        <time>2013-02-18T16:14:32.000Z</time>
      </trkpt>
      <trkpt lat="43.97711" lon="5.11532">
        <ele>312.6</ele>
        <time>2013-02-18T16:14:33.000Z</time>
      </trkpt>
      <trkpt lat="43.97719" lon="5.11532">
        <ele>312</ele>
        <time>2013-02-18T16:14:34.000Z</time>
      </trkpt>
      <trkpt lat="43.97727" lon="5.11534">
        <ele>311.5</ele>
        <time>2013-02-18T16:14:35.000Z</time>
      </trkpt>
      <trkpt lat="43.97734" lon="5.11541">
        <ele>310.9</ele>
        <time>2013-02-18T16:14:36.000Z</time>
      </trkpt>
      <trkpt lat="43.97741" lon="5.11564">
        <ele>309.7</ele>
        <time>2013-02-18T16:14:37.000Z</time>
      </trkpt>
      <trkpt lat="43.97751" lon="5.11576">
        <ele>308.6</ele>
        <time>2013-02-18T16:14:38.000Z</time>
      </trkpt>
      <trkpt lat="43.97759" lon="5.11585">
        <ele>307.5</ele>
        <time>2013-02-18T16:14:39.000Z</time>
      </trkpt>
      <trkpt lat="43.97769" lon="5.11583">
        <ele>306.2</ele>
        <time>2013-02-18T16:14:40.000Z</time>
      </trkpt>
      <trkpt lat="43.97773" lon="5.11579">
        <ele>302</ele>
        <time>2013-02-18T16:14:41.000Z</time>
      </trkpt>
      <trkpt lat="43.9778" lon="5.11582">
        <ele>300</ele>
        <time>2013-02-18T16:14:42.000Z</time>
      </trkpt>
      <trkpt lat="43.97787" lon="5.11581">
        <ele>298.5</ele>
        <time>2013-02-18T16:14:43.000Z</time>
      </trkpt>
      <trkpt lat="43.97798" lon="5.11581">
        <ele>297.6</ele>
        <time>2013-02-18T16:14:44.000Z</time>
      </trkpt>
      <trkpt lat="43.97808" lon="5.11582">
        <ele>296.7</ele>
        <time>2013-02-18T16:14:45.000Z</time>
      </trkpt>
      <trkpt lat="43.97817" lon="5.11582">
        <ele>295.8</ele>
        <time>2013-02-18T16:14:46.000Z</time>
      </trkpt>
      <trkpt lat="43.97824" lon="5.11582">
        <ele>294.5</ele>
        <time>2013-02-18T16:14:47.000Z</time>
      </trkpt>
      <trkpt lat="43.97833" lon="5.11582">
        <ele>293.3</ele>
        <time>2013-02-18T16:14:48.000Z</time>
      </trkpt>
      <trkpt lat="43.97839" lon="5.11577">
        <ele>291.6</ele>
        <time>2013-02-18T16:14:49.000Z</time>
      </trkpt>
      <trkpt lat="43.97843" lon="5.11569">
        <ele>290.4</ele>
        <time>2013-02-18T16:14:50.000Z</time>
      </trkpt>
      <trkpt lat="43.97846" lon="5.11568">
        <ele>285.5</ele>
        <time>2013-02-18T16:14:51.000Z</time>
      </trkpt>
      <trkpt lat="43.97852" lon="5.11564">
        <ele>284.4</ele>
        <time>2013-02-18T16:14:52.000Z</time>
      </trkpt>
      <trkpt lat="43.97858" lon="5.11559">
        <ele>283</ele>
        <time>2013-02-18T16:14:53.000Z</time>
      </trkpt>
      <trkpt lat="43.97865" lon="5.1155">
        <ele>282.9</ele>
        <time>2013-02-18T16:14:54.000Z</time>
      </trkpt>
      <trkpt lat="43.97868" lon="5.1154">
        <ele>284.8</ele>
        <time>2013-02-18T16:14:55.000Z</time>
      </trkpt>
      <trkpt lat="43.97874" lon="5.11533">
        <ele>285.3</ele>
        <time>2013-02-18T16:14:56.000Z</time>
      </trkpt>
      <trkpt lat="43.97879" lon="5.11527">
        <ele>285.9</ele>
        <time>2013-02-18T16:14:57.000Z</time>
      </trkpt>
      <trkpt lat="43.97885" lon="5.11522">
        <ele>286.5</ele>
        <time>2013-02-18T16:14:58.000Z</time>
      </trkpt>
      <trkpt lat="43.97891" lon="5.11518">
        <ele>287.3</ele>
        <time>2013-02-18T16:14:59.000Z</time>
      </trkpt>
      <trkpt lat="43.97899" lon="5.11515">
        <ele>288.3</ele>
        <time>2013-02-18T16:15:00.000Z</time>
      </trkpt>
      <trkpt lat="43.97906" lon="5.11512">
        <ele>289.1</ele>
        <time>2013-02-18T16:15:01.000Z</time>
      </trkpt>
      <trkpt lat="43.97913" lon="5.1151">
        <ele>288.8</ele>
        <time>2013-02-18T16:15:02.000Z</time>
      </trkpt>
      <trkpt lat="43.9792" lon="5.11508">
        <ele>288.5</ele>
        <time>2013-02-18T16:15:03.000Z</time>
      </trkpt>
      <trkpt lat="43.97928" lon="5.11504">
        <ele>289.4</ele>
        <time>2013-02-18T16:15:04.000Z</time>
      </trkpt>
      <trkpt lat="43.97936" lon="5.11496">
        <ele>290.9</ele>
        <time>2013-02-18T16:15:05.000Z</time>
      </trkpt>
      <trkpt lat="43.97944" lon="5.11488">
        <ele>297.2</ele>
        <time>2013-02-18T16:15:06.000Z</time>
      </trkpt>
      <trkpt lat="43.97947" lon="5.11471">
        <ele>301.2</ele>
        <time>2013-02-18T16:15:07.000Z</time>
      </trkpt>
      <trkpt lat="43.97956" lon="5.11446">
        <ele>305.2</ele>
        <time>2013-02-18T16:15:08.000Z</time>
      </trkpt>
      <trkpt lat="43.97959" lon="5.11433">
        <ele>307</ele>
        <time>2013-02-18T16:15:09.000Z</time>
      </trkpt>
      <trkpt lat="43.97965" lon="5.11447">
        <ele>305.9</ele>
        <time>2013-02-18T16:15:10.000Z</time>
      </trkpt>
      <trkpt lat="43.9797" lon="5.11442">
        <ele>305.6</ele>
        <time>2013-02-18T16:15:11.000Z</time>
      </trkpt>
      <trkpt lat="43.97972" lon="5.11444">
        <ele>305.6</ele>
        <time>2013-02-18T16:15:12.000Z</time>
      </trkpt>
      <trkpt lat="43.97978" lon="5.11434">
        <ele>305.7</ele>
        <time>2013-02-18T16:15:13.000Z</time>
      </trkpt>
      <trkpt lat="43.97982" lon="5.11439">
        <ele>305.7</ele>
        <time>2013-02-18T16:15:14.000Z</time>
      </trkpt>
      <trkpt lat="43.97987" lon="5.11435">
        <ele>305.7</ele>
        <time>2013-02-18T16:15:15.000Z</time>
      </trkpt>
      <trkpt lat="43.98006" lon="5.11473">
        <ele>305.4</ele>
        <time>2013-02-18T16:15:16.000Z</time>
      </trkpt>
      <trkpt lat="43.98019" lon="5.11476">
        <ele>305</ele>
        <time>2013-02-18T16:15:17.000Z</time>
      </trkpt>
      <trkpt lat="43.9803" lon="5.11475">
        <ele>304.8</ele>
        <time>2013-02-18T16:15:18.000Z</time>
      </trkpt>
      <trkpt lat="43.9804" lon="5.11477">
        <ele>302</ele>
        <time>2013-02-18T16:15:19.000Z</time>
      </trkpt>
      <trkpt lat="43.98049" lon="5.11478">
        <ele>300.7</ele>
        <time>2013-02-18T16:15:20.000Z</time>
      </trkpt>
      <trkpt lat="43.9806" lon="5.11477">
        <ele>300.5</ele>
        <time>2013-02-18T16:15:21.000Z</time>
      </trkpt>
      <trkpt lat="43.98071" lon="5.11474">
        <ele>299.6</ele>
        <time>2013-02-18T16:15:22.000Z</time>
      </trkpt>
      <trkpt lat="43.98082" lon="5.11472">
        <ele>299.1</ele>
        <time>2013-02-18T16:15:23.000Z</time>
      </trkpt>
      <trkpt lat="43.98093" lon="5.1147">
        <ele>298.5</ele>
        <time>2013-02-18T16:15:24.000Z</time>
      </trkpt>
      <trkpt lat="43.98104" lon="5.11466">
        <ele>298.6</ele>
        <time>2013-02-18T16:15:25.000Z</time>
      </trkpt>
      <trkpt lat="43.9811" lon="5.11469">
        <ele>297.3</ele>
        <time>2013-02-18T16:15:26.000Z</time>
      </trkpt>
      <trkpt lat="43.9812" lon="5.11468">
        <ele>297.6</ele>
        <time>2013-02-18T16:15:27.000Z</time>
      </trkpt>
      <trkpt lat="43.9813" lon="5.11466">
        <ele>297.6</ele>
        <time>2013-02-18T16:15:28.000Z</time>
      </trkpt>
      <trkpt lat="43.98139" lon="5.11471">
        <ele>296.6</ele>
        <time>2013-02-18T16:15:29.000Z</time>
      </trkpt>
      <trkpt lat="43.98148" lon="5.11484">
        <ele>294.2</ele>
        <time>2013-02-18T16:15:30.000Z</time>
      </trkpt>
      <trkpt lat="43.98156" lon="5.11491">
        <ele>293.9</ele>
        <time>2013-02-18T16:15:31.000Z</time>
      </trkpt>
      <trkpt lat="43.98163" lon="5.11497">
        <ele>293.8</ele>
        <time>2013-02-18T16:15:32.000Z</time>
      </trkpt>
      <trkpt lat="43.98171" lon="5.11501">
        <ele>293.1</ele>
        <time>2013-02-18T16:15:33.000Z</time>
      </trkpt>
      <trkpt lat="43.9818" lon="5.11503">
        <ele>292.4</ele>
        <time>2013-02-18T16:15:34.000Z</time>
      </trkpt>
      <trkpt lat="43.98189" lon="5.11506">
        <ele>292.4</ele>
        <time>2013-02-18T16:15:35.000Z</time>
      </trkpt>
      <trkpt lat="43.98199" lon="5.1151">
        <ele>292</ele>
        <time>2013-02-18T16:15:36.000Z</time>
      </trkpt>
      <trkpt lat="43.98207" lon="5.11513">
        <ele>291.9</ele>
        <time>2013-02-18T16:15:37.000Z</time>
      </trkpt>
      <trkpt lat="43.98215" lon="5.11513">
        <ele>291.4</ele>
        <time>2013-02-18T16:15:38.000Z</time>
      </trkpt>
      <trkpt lat="43.98224" lon="5.11514">
        <ele>290.7</ele>
        <time>2013-02-18T16:15:39.000Z</time>
      </trkpt>
      <trkpt lat="43.98231" lon="5.11514">
        <ele>290.6</ele>
        <time>2013-02-18T16:15:40.000Z</time>
      </trkpt>
      <trkpt lat="43.98239" lon="5.11521">
        <ele>289.8</ele>
        <time>2013-02-18T16:15:41.000Z</time>
      </trkpt>
      <trkpt lat="43.98246" lon="5.11526">
        <ele>289.6</ele>
        <time>2013-02-18T16:15:42.000Z</time>
      </trkpt>
      <trkpt lat="43.98252" lon="5.11533">
        <ele>289.1</ele>
        <time>2013-02-18T16:15:43.000Z</time>
      </trkpt>
      <trkpt lat="43.98256" lon="5.11541">
        <ele>288.9</ele>
        <time>2013-02-18T16:15:44.000Z</time>
      </trkpt>
      <trkpt lat="43.9826" lon="5.1155">
        <ele>288.7</ele>
        <time>2013-02-18T16:15:45.000Z</time>
      </trkpt>
      <trkpt lat="43.98264" lon="5.11559">
        <ele>287.8</ele>
        <time>2013-02-18T16:15:46.000Z</time>
      </trkpt>
      <trkpt lat="43.98269" lon="5.11567">
        <ele>288.3</ele>
        <time>2013-02-18T16:15:47.000Z</time>
      </trkpt>
      <trkpt lat="43.98272" lon="5.11574">
        <ele>288.9</ele>
        <time>2013-02-18T16:15:48.000Z</time>
      </trkpt>
      <trkpt lat="43.98275" lon="5.11579">
        <ele>289.8</ele>
        <time>2013-02-18T16:15:49.000Z</time>
      </trkpt>
      <trkpt lat="43.98279" lon="5.11586">
        <ele>290</ele>
        <time>2013-02-18T16:15:50.000Z</time>
      </trkpt>
      <trkpt lat="43.98283" lon="5.11591">
        <ele>289.6</ele>
        <time>2013-02-18T16:15:51.000Z</time>
      </trkpt>
      <trkpt lat="43.98288" lon="5.11596">
        <ele>289.8</ele>
        <time>2013-02-18T16:15:52.000Z</time>
      </trkpt>
      <trkpt lat="43.98292" lon="5.116">
        <ele>289.4</ele>
        <time>2013-02-18T16:15:53.000Z</time>
      </trkpt>
      <trkpt lat="43.98297" lon="5.11605">
        <ele>289.7</ele>
        <time>2013-02-18T16:15:54.000Z</time>
      </trkpt>
      <trkpt lat="43.98301" lon="5.11609">
        <ele>289.2</ele>
        <time>2013-02-18T16:15:55.000Z</time>
      </trkpt>
      <trkpt lat="43.98305" lon="5.11615">
        <ele>288.9</ele>
        <time>2013-02-18T16:15:56.000Z</time>
      </trkpt>
      <trkpt lat="43.9831" lon="5.1162">
        <ele>288.9</ele>
        <time>2013-02-18T16:15:57.000Z</time>
      </trkpt>
      <trkpt lat="43.98315" lon="5.1163">
        <ele>289</ele>
        <time>2013-02-18T16:15:58.000Z</time>
      </trkpt>
      <trkpt lat="43.98328" lon="5.11631">
        <ele>289.4</ele>
        <time>2013-02-18T16:15:59.000Z</time>
      </trkpt>
      <trkpt lat="43.9832" lon="5.1165">
        <ele>283.9</ele>
        <time>2013-02-18T16:16:00.000Z</time>
      </trkpt>
      <trkpt lat="43.98325" lon="5.11656">
        <ele>283.6</ele>
        <time>2013-02-18T16:16:01.000Z</time>
      </trkpt>
      <trkpt lat="43.9833" lon="5.11665">
        <ele>282.6</ele>
        <time>2013-02-18T16:16:02.000Z</time>
      </trkpt>
      <trkpt lat="43.98335" lon="5.11671">
        <ele>282.2</ele>
        <time>2013-02-18T16:16:03.000Z</time>
      </trkpt>
      <trkpt lat="43.9834" lon="5.11678">
        <ele>281.2</ele>
        <time>2013-02-18T16:16:04.000Z</time>
      </trkpt>
      <trkpt lat="43.98344" lon="5.11685">
        <ele>280.5</ele>
        <time>2013-02-18T16:16:05.000Z</time>
      </trkpt>
      <trkpt lat="43.9835" lon="5.1169">
        <ele>279.8</ele>
        <time>2013-02-18T16:16:06.000Z</time>
      </trkpt>
      <trkpt lat="43.98357" lon="5.11696">
        <ele>278.3</ele>
        <time>2013-02-18T16:16:07.000Z</time>
      </trkpt>
      <trkpt lat="43.98363" lon="5.11703">
        <ele>277.6</ele>
        <time>2013-02-18T16:16:08.000Z</time>
      </trkpt>
      <trkpt lat="43.9837" lon="5.11711">
        <ele>276.9</ele>
        <time>2013-02-18T16:16:09.000Z</time>
      </trkpt>
      <trkpt lat="43.98374" lon="5.11716">
        <ele>276.6</ele>
        <time>2013-02-18T16:16:10.000Z</time>
      </trkpt>
      <trkpt lat="43.9838" lon="5.11722">
        <ele>276.5</ele>
        <time>2013-02-18T16:16:11.000Z</time>
      </trkpt>
      <trkpt lat="43.98384" lon="5.11728">
        <ele>276.2</ele>
        <time>2013-02-18T16:16:12.000Z</time>
      </trkpt>
      <trkpt lat="43.9839" lon="5.11734">
        <ele>276.2</ele>
        <time>2013-02-18T16:16:13.000Z</time>
      </trkpt>
      <trkpt lat="43.98395" lon="5.1174">
        <ele>275.9</ele>
        <time>2013-02-18T16:16:14.000Z</time>
      </trkpt>
      <trkpt lat="43.984" lon="5.11747">
        <ele>275.7</ele>
        <time>2013-02-18T16:16:15.000Z</time>
      </trkpt>
      <trkpt lat="43.98404" lon="5.11753">
        <ele>275.3</ele>
        <time>2013-02-18T16:16:16.000Z</time>
      </trkpt>
      <trkpt lat="43.98407" lon="5.11761">
        <ele>275.2</ele>
        <time>2013-02-18T16:16:17.000Z</time>
      </trkpt>
      <trkpt lat="43.98409" lon="5.11769">
        <ele>275.2</ele>
        <time>2013-02-18T16:16:18.000Z</time>
      </trkpt>
      <trkpt lat="43.9841" lon="5.11775">
        <ele>275.9</ele>
        <time>2013-02-18T16:16:19.000Z</time>
      </trkpt>
      <trkpt lat="43.98411" lon="5.11782">
        <ele>276.2</ele>
        <time>2013-02-18T16:16:20.000Z</time>
      </trkpt>
      <trkpt lat="43.98411" lon="5.11787">
        <ele>276.6</ele>
        <time>2013-02-18T16:16:21.000Z</time>
      </trkpt>
      <trkpt lat="43.9841" lon="5.11791">
        <ele>277.4</ele>
        <time>2013-02-18T16:16:22.000Z</time>
      </trkpt>
      <trkpt lat="43.98408" lon="5.11795">
        <ele>278</ele>
        <time>2013-02-18T16:16:23.000Z</time>
      </trkpt>
      <trkpt lat="43.98406" lon="5.11798">
        <ele>278.5</ele>
        <time>2013-02-18T16:16:24.000Z</time>
      </trkpt>
      <trkpt lat="43.98404" lon="5.11801">
        <ele>278.6</ele>
        <time>2013-02-18T16:16:25.000Z</time>
      </trkpt>
      <trkpt lat="43.98402" lon="5.11803">
        <ele>279</ele>
        <time>2013-02-18T16:16:26.000Z</time>
      </trkpt>
      <trkpt lat="43.984" lon="5.11804">
        <ele>279.3</ele>
        <time>2013-02-18T16:16:27.000Z</time>
      </trkpt>
      <trkpt lat="43.98398" lon="5.11805">
        <ele>280</ele>
        <time>2013-02-18T16:16:28.000Z</time>
      </trkpt>
      <trkpt lat="43.98396" lon="5.11807">
        <ele>280.5</ele>
        <time>2013-02-18T16:16:29.000Z</time>
      </trkpt>
      <trkpt lat="43.98394" lon="5.11808">
        <ele>280.3</ele>
        <time>2013-02-18T16:16:30.000Z</time>
      </trkpt>
      <trkpt lat="43.9839" lon="5.11811">
        <ele>281</ele>
        <time>2013-02-18T16:16:32.000Z</time>
      </trkpt>
      <trkpt lat="43.98389" lon="5.11812">
        <ele>280.9</ele>
        <time>2013-02-18T16:16:33.000Z</time>
      </trkpt>
      <trkpt lat="43.98385" lon="5.11816">
        <ele>282</ele>
        <time>2013-02-18T16:16:36.000Z</time>
      </trkpt>
      <trkpt lat="43.98384" lon="5.11816">
        <ele>282.2</ele>
        <time>2013-02-18T16:16:37.000Z</time>
      </trkpt>
      <trkpt lat="43.98381" lon="5.11818">
        <ele>282.3</ele>
        <time>2013-02-18T16:16:39.000Z</time>
      </trkpt>
      <trkpt lat="43.98379" lon="5.11818">
        <ele>282.7</ele>
        <time>2013-02-18T16:16:40.000Z</time>
      </trkpt>
      <trkpt lat="43.98376" lon="5.11822">
        <ele>283</ele>
        <time>2013-02-18T16:16:42.000Z</time>
      </trkpt>
      <trkpt lat="43.98374" lon="5.11823">
        <ele>282.9</ele>
        <time>2013-02-18T16:16:43.000Z</time>
      </trkpt>
      <trkpt lat="43.98372" lon="5.11825">
        <ele>283.6</ele>
        <time>2013-02-18T16:16:45.000Z</time>
      </trkpt>
      <trkpt lat="43.9837" lon="5.11827">
        <ele>283.9</ele>
        <time>2013-02-18T16:16:46.000Z</time>
      </trkpt>
      <trkpt lat="43.98369" lon="5.11829">
        <ele>283.9</ele>
        <time>2013-02-18T16:16:47.000Z</time>
      </trkpt>
      <trkpt lat="43.98366" lon="5.11832">
        <ele>284.4</ele>
        <time>2013-02-18T16:16:48.000Z</time>
      </trkpt>
      <trkpt lat="43.98363" lon="5.11834">
        <ele>284.5</ele>
        <time>2013-02-18T16:16:49.000Z</time>
      </trkpt>
      <trkpt lat="43.98361" lon="5.11836">
        <ele>284.7</ele>
        <time>2013-02-18T16:16:50.000Z</time>
      </trkpt>
      <trkpt lat="43.98358" lon="5.11839">
        <ele>285</ele>
        <time>2013-02-18T16:16:51.000Z</time>
      </trkpt>
      <trkpt lat="43.98356" lon="5.11841">
        <ele>285.3</ele>
        <time>2013-02-18T16:16:52.000Z</time>
      </trkpt>
      <trkpt lat="43.98353" lon="5.11843">
        <ele>285.8</ele>
        <time>2013-02-18T16:16:53.000Z</time>
      </trkpt>
      <trkpt lat="43.9835" lon="5.11845">
        <ele>286</ele>
        <time>2013-02-18T16:16:54.000Z</time>
      </trkpt>
      <trkpt lat="43.98347" lon="5.11848">
        <ele>286</ele>
        <time>2013-02-18T16:16:55.000Z</time>
      </trkpt>
      <trkpt lat="43.98344" lon="5.11851">
        <ele>286.6</ele>
        <time>2013-02-18T16:16:56.000Z</time>
      </trkpt>
      <trkpt lat="43.98342" lon="5.11855">
        <ele>286.9</ele>
        <time>2013-02-18T16:16:57.000Z</time>
      </trkpt>
      <trkpt lat="43.9834" lon="5.11858">
        <ele>287.4</ele>
        <time>2013-02-18T16:16:58.000Z</time>
      </trkpt>
      <trkpt lat="43.98338" lon="5.11861">
        <ele>288</ele>
        <time>2013-02-18T16:16:59.000Z</time>
      </trkpt>
      <trkpt lat="43.98336" lon="5.11863">
        <ele>288.1</ele>
        <time>2013-02-18T16:17:00.000Z</time>
      </trkpt>
      <trkpt lat="43.98334" lon="5.11866">
        <ele>288.2</ele>
        <time>2013-02-18T16:17:01.000Z</time>
      </trkpt>
      <trkpt lat="43.98332" lon="5.11867">
        <ele>287.6</ele>
        <time>2013-02-18T16:17:02.000Z</time>
      </trkpt>
      <trkpt lat="43.9833" lon="5.11869">
        <ele>287.2</ele>
        <time>2013-02-18T16:17:03.000Z</time>
      </trkpt>
      <trkpt lat="43.98326" lon="5.11872">
        <ele>287.2</ele>
        <time>2013-02-18T16:17:04.000Z</time>
      </trkpt>
      <trkpt lat="43.98324" lon="5.11876">
        <ele>287.2</ele>
        <time>2013-02-18T16:17:06.000Z</time>
      </trkpt>
      <trkpt lat="43.98322" lon="5.11877">
        <ele>287.3</ele>
        <time>2013-02-18T16:17:07.000Z</time>
      </trkpt>
      <trkpt lat="43.98319" lon="5.1188">
        <ele>287.3</ele>
        <time>2013-02-18T16:17:09.000Z</time>
      </trkpt>
      <trkpt lat="43.98318" lon="5.11882">
        <ele>287.3</ele>
        <time>2013-02-18T16:17:10.000Z</time>
      </trkpt>
      <trkpt lat="43.98318" lon="5.11887">
        <ele>285.3</ele>
        <time>2013-02-18T16:17:13.000Z</time>
      </trkpt>
      <trkpt lat="43.98318" lon="5.1189">
        <ele>284.5</ele>
        <time>2013-02-18T16:17:14.000Z</time>
      </trkpt>
      <trkpt lat="43.98316" lon="5.11894">
        <ele>286.2</ele>
        <time>2013-02-18T16:17:16.000Z</time>
      </trkpt>
      <trkpt lat="43.98316" lon="5.11896">
        <ele>287.5</ele>
        <time>2013-02-18T16:17:17.000Z</time>
      </trkpt>
      <trkpt lat="43.98315" lon="5.11902">
        <ele>288.2</ele>
        <time>2013-02-18T16:17:32.000Z</time>
      </trkpt>
      <trkpt lat="43.98315" lon="5.11902">
        <ele>288</ele>
        <time>2013-02-18T16:17:33.000Z</time>
      </trkpt>
      <trkpt lat="43.98315" lon="5.11904">
        <ele>288.1</ele>
        <time>2013-02-18T16:18:11.000Z</time>
      </trkpt>
    </trkseg>
  </trk>
</gpx>